<?xml version="1.0" encoding="UTF-8" standalone="no" ?>
<gpx xmlns="http://www.topografix.com/GPX/1/1" xmlns:xsi="http://www.w3.org/2001/XMLSchema-instance" xsi:schemaLocation="http://www.topografix.com/GPX/1/1 http://www.topografix.com/GPX/1/1/gpx.xsd" version="1.1" creator="VisuGPX - https://www.visugpx.com">
  <metadata>
    <name>Retour au charbon</name>
  </metadata>
  <trk>
    <name><![CDATA[Retour au charbon_1]]></name>
    <trkseg>
      <trkpt lat="45.84466" lon="1.22282">
        <ele>276.5</ele>
        <time>2024-11-12T07:46:41Z</time>
      </trkpt>
      <trkpt lat="45.84466" lon="1.22282">
        <ele>276.5</ele>
        <time>2024-11-12T07:46:42Z</time>
      </trkpt>
      <trkpt lat="45.84466" lon="1.22282">
        <ele>276.5</ele>
        <time>2024-11-12T07:46:43Z</time>
      </trkpt>
      <trkpt lat="45.84466" lon="1.22283">
        <ele>276.5</ele>
        <time>2024-11-12T07:46:44Z</time>
      </trkpt>
      <trkpt lat="45.84466" lon="1.22282">
        <ele>276.5</ele>
        <time>2024-11-12T07:46:45Z</time>
      </trkpt>
      <trkpt lat="45.84466" lon="1.22282">
        <ele>276.5</ele>
        <time>2024-11-12T07:46:46Z</time>
      </trkpt>
      <trkpt lat="45.84467" lon="1.22282">
        <ele>276.5</ele>
        <time>2024-11-12T07:46:47Z</time>
      </trkpt>
      <trkpt lat="45.84467" lon="1.22282">
        <ele>276.5</ele>
        <time>2024-11-12T07:46:48Z</time>
      </trkpt>
      <trkpt lat="45.84467" lon="1.22282">
        <ele>276.5</ele>
        <time>2024-11-12T07:46:49Z</time>
      </trkpt>
      <trkpt lat="45.84467" lon="1.22282">
        <ele>276.5</ele>
        <time>2024-11-12T07:46:50Z</time>
      </trkpt>
      <trkpt lat="45.84467" lon="1.22282">
        <ele>276.5</ele>
        <time>2024-11-12T07:46:51Z</time>
      </trkpt>
      <trkpt lat="45.84467" lon="1.22282">
        <ele>276.5</ele>
        <time>2024-11-12T07:46:52Z</time>
      </trkpt>
      <trkpt lat="45.84467" lon="1.22282">
        <ele>276.5</ele>
        <time>2024-11-12T07:46:53Z</time>
      </trkpt>
      <trkpt lat="45.84467" lon="1.22282">
        <ele>276.5</ele>
        <time>2024-11-12T07:46:54Z</time>
      </trkpt>
      <trkpt lat="45.84467" lon="1.22282">
        <ele>276.5</ele>
        <time>2024-11-12T07:46:55Z</time>
      </trkpt>
      <trkpt lat="45.84467" lon="1.22282">
        <ele>276.5</ele>
        <time>2024-11-12T07:46:56Z</time>
      </trkpt>
      <trkpt lat="45.84467" lon="1.22282">
        <ele>276.5</ele>
        <time>2024-11-12T07:46:57Z</time>
      </trkpt>
      <trkpt lat="45.84467" lon="1.22282">
        <ele>276.5</ele>
        <time>2024-11-12T07:46:58Z</time>
      </trkpt>
      <trkpt lat="45.84467" lon="1.22282">
        <ele>276.5</ele>
        <time>2024-11-12T07:46:59Z</time>
      </trkpt>
      <trkpt lat="45.84467" lon="1.22282">
        <ele>276.5</ele>
        <time>2024-11-12T07:47:00Z</time>
      </trkpt>
      <trkpt lat="45.84467" lon="1.22282">
        <ele>276.5</ele>
        <time>2024-11-12T07:47:01Z</time>
      </trkpt>
      <trkpt lat="45.84467" lon="1.22282">
        <ele>276.5</ele>
        <time>2024-11-12T07:47:02Z</time>
      </trkpt>
      <trkpt lat="45.84467" lon="1.22282">
        <ele>276.5</ele>
        <time>2024-11-12T07:47:03Z</time>
      </trkpt>
      <trkpt lat="45.84467" lon="1.22282">
        <ele>276.5</ele>
        <time>2024-11-12T07:47:04Z</time>
      </trkpt>
      <trkpt lat="45.84467" lon="1.22282">
        <ele>276.5</ele>
        <time>2024-11-12T07:47:05Z</time>
      </trkpt>
      <trkpt lat="45.84467" lon="1.22282">
        <ele>276.5</ele>
        <time>2024-11-12T07:47:06Z</time>
      </trkpt>
      <trkpt lat="45.84467" lon="1.22282">
        <ele>276.5</ele>
        <time>2024-11-12T07:47:07Z</time>
      </trkpt>
      <trkpt lat="45.84467" lon="1.22282">
        <ele>276.5</ele>
        <time>2024-11-12T07:47:08Z</time>
      </trkpt>
      <trkpt lat="45.84467" lon="1.22282">
        <ele>276.5</ele>
        <time>2024-11-12T07:47:09Z</time>
      </trkpt>
      <trkpt lat="45.84467" lon="1.22282">
        <ele>276.5</ele>
        <time>2024-11-12T07:47:10Z</time>
      </trkpt>
      <trkpt lat="45.84467" lon="1.22282">
        <ele>276.5</ele>
        <time>2024-11-12T07:47:11Z</time>
      </trkpt>
      <trkpt lat="45.84467" lon="1.22282">
        <ele>276.5</ele>
        <time>2024-11-12T07:47:12Z</time>
      </trkpt>
      <trkpt lat="45.84467" lon="1.22282">
        <ele>276.5</ele>
        <time>2024-11-12T07:47:13Z</time>
      </trkpt>
      <trkpt lat="45.84467" lon="1.22282">
        <ele>276.5</ele>
        <time>2024-11-12T07:47:14Z</time>
      </trkpt>
      <trkpt lat="45.84467" lon="1.22282">
        <ele>276.5</ele>
        <time>2024-11-12T07:47:15Z</time>
      </trkpt>
      <trkpt lat="45.84467" lon="1.22282">
        <ele>276.5</ele>
        <time>2024-11-12T07:47:16Z</time>
      </trkpt>
      <trkpt lat="45.84467" lon="1.22282">
        <ele>276.5</ele>
        <time>2024-11-12T07:47:17Z</time>
      </trkpt>
      <trkpt lat="45.84467" lon="1.22282">
        <ele>276.5</ele>
        <time>2024-11-12T07:47:18Z</time>
      </trkpt>
      <trkpt lat="45.84467" lon="1.22282">
        <ele>276.5</ele>
        <time>2024-11-12T07:47:19Z</time>
      </trkpt>
      <trkpt lat="45.84467" lon="1.22282">
        <ele>276.5</ele>
        <time>2024-11-12T07:47:20Z</time>
      </trkpt>
      <trkpt lat="45.84467" lon="1.22282">
        <ele>276.5</ele>
        <time>2024-11-12T07:47:21Z</time>
      </trkpt>
      <trkpt lat="45.84467" lon="1.22282">
        <ele>276.5</ele>
        <time>2024-11-12T07:47:22Z</time>
      </trkpt>
      <trkpt lat="45.84467" lon="1.22282">
        <ele>276.5</ele>
        <time>2024-11-12T07:47:23Z</time>
      </trkpt>
      <trkpt lat="45.84467" lon="1.22282">
        <ele>276.5</ele>
        <time>2024-11-12T07:47:24Z</time>
      </trkpt>
      <trkpt lat="45.84467" lon="1.22282">
        <ele>276.5</ele>
        <time>2024-11-12T07:47:25Z</time>
      </trkpt>
      <trkpt lat="45.84467" lon="1.22282">
        <ele>276.5</ele>
        <time>2024-11-12T07:47:26Z</time>
      </trkpt>
      <trkpt lat="45.84467" lon="1.22282">
        <ele>276.5</ele>
        <time>2024-11-12T07:47:27Z</time>
      </trkpt>
      <trkpt lat="45.84467" lon="1.22282">
        <ele>276.5</ele>
        <time>2024-11-12T07:47:28Z</time>
      </trkpt>
      <trkpt lat="45.84467" lon="1.22282">
        <ele>276.5</ele>
        <time>2024-11-12T07:47:29Z</time>
      </trkpt>
      <trkpt lat="45.84467" lon="1.22282">
        <ele>276.5</ele>
        <time>2024-11-12T07:47:30Z</time>
      </trkpt>
      <trkpt lat="45.84467" lon="1.22282">
        <ele>276.5</ele>
        <time>2024-11-12T07:47:31Z</time>
      </trkpt>
      <trkpt lat="45.84467" lon="1.22282">
        <ele>276.5</ele>
        <time>2024-11-12T07:47:32Z</time>
      </trkpt>
      <trkpt lat="45.84467" lon="1.22282">
        <ele>276.5</ele>
        <time>2024-11-12T07:47:33Z</time>
      </trkpt>
      <trkpt lat="45.84467" lon="1.22283">
        <ele>276.5</ele>
        <time>2024-11-12T07:47:34Z</time>
      </trkpt>
      <trkpt lat="45.84467" lon="1.22283">
        <ele>276.5</ele>
        <time>2024-11-12T07:47:35Z</time>
      </trkpt>
      <trkpt lat="45.84467" lon="1.22283">
        <ele>276.5</ele>
        <time>2024-11-12T07:47:36Z</time>
      </trkpt>
      <trkpt lat="45.84467" lon="1.22283">
        <ele>276.5</ele>
        <time>2024-11-12T07:47:37Z</time>
      </trkpt>
      <trkpt lat="45.84467" lon="1.22283">
        <ele>276.5</ele>
        <time>2024-11-12T07:47:38Z</time>
      </trkpt>
      <trkpt lat="45.84467" lon="1.22283">
        <ele>276.5</ele>
        <time>2024-11-12T07:47:39Z</time>
      </trkpt>
      <trkpt lat="45.84467" lon="1.22283">
        <ele>276.5</ele>
        <time>2024-11-12T07:47:40Z</time>
      </trkpt>
      <trkpt lat="45.84467" lon="1.22283">
        <ele>276.5</ele>
        <time>2024-11-12T07:47:41Z</time>
      </trkpt>
      <trkpt lat="45.84467" lon="1.22283">
        <ele>276.5</ele>
        <time>2024-11-12T07:47:42Z</time>
      </trkpt>
      <trkpt lat="45.84467" lon="1.22283">
        <ele>276.5</ele>
        <time>2024-11-12T07:47:43Z</time>
      </trkpt>
      <trkpt lat="45.84467" lon="1.22284">
        <ele>276.5</ele>
        <time>2024-11-12T07:47:44Z</time>
      </trkpt>
      <trkpt lat="45.84466" lon="1.22284">
        <ele>276.4</ele>
        <time>2024-11-12T07:47:45Z</time>
      </trkpt>
      <trkpt lat="45.84467" lon="1.22283">
        <ele>276.4</ele>
        <time>2024-11-12T07:47:46Z</time>
      </trkpt>
      <trkpt lat="45.84467" lon="1.22283">
        <ele>276.4</ele>
        <time>2024-11-12T07:47:47Z</time>
      </trkpt>
      <trkpt lat="45.84467" lon="1.22283">
        <ele>276.4</ele>
        <time>2024-11-12T07:47:48Z</time>
      </trkpt>
      <trkpt lat="45.84467" lon="1.22283">
        <ele>276.4</ele>
        <time>2024-11-12T07:47:49Z</time>
      </trkpt>
      <trkpt lat="45.84467" lon="1.22283">
        <ele>276.4</ele>
        <time>2024-11-12T07:47:50Z</time>
      </trkpt>
      <trkpt lat="45.84467" lon="1.22283">
        <ele>276.4</ele>
        <time>2024-11-12T07:47:51Z</time>
      </trkpt>
      <trkpt lat="45.84467" lon="1.22284">
        <ele>276.4</ele>
        <time>2024-11-12T07:47:52Z</time>
      </trkpt>
      <trkpt lat="45.84466" lon="1.22284">
        <ele>276.4</ele>
        <time>2024-11-12T07:47:53Z</time>
      </trkpt>
      <trkpt lat="45.84466" lon="1.22284">
        <ele>276.4</ele>
        <time>2024-11-12T07:47:54Z</time>
      </trkpt>
      <trkpt lat="45.84466" lon="1.22284">
        <ele>276.4</ele>
        <time>2024-11-12T07:47:55Z</time>
      </trkpt>
      <trkpt lat="45.84466" lon="1.22284">
        <ele>276.4</ele>
        <time>2024-11-12T07:47:56Z</time>
      </trkpt>
      <trkpt lat="45.84465" lon="1.22284">
        <ele>276.4</ele>
        <time>2024-11-12T07:47:57Z</time>
      </trkpt>
      <trkpt lat="45.84465" lon="1.22284">
        <ele>276.4</ele>
        <time>2024-11-12T07:47:58Z</time>
      </trkpt>
      <trkpt lat="45.84465" lon="1.22285">
        <ele>276.4</ele>
        <time>2024-11-12T07:47:59Z</time>
      </trkpt>
      <trkpt lat="45.84465" lon="1.22285">
        <ele>276.4</ele>
        <time>2024-11-12T07:48:00Z</time>
      </trkpt>
      <trkpt lat="45.84465" lon="1.22285">
        <ele>276.4</ele>
        <time>2024-11-12T07:48:01Z</time>
      </trkpt>
      <trkpt lat="45.84465" lon="1.22285">
        <ele>276.4</ele>
        <time>2024-11-12T07:48:02Z</time>
      </trkpt>
      <trkpt lat="45.84465" lon="1.22285">
        <ele>276.4</ele>
        <time>2024-11-12T07:48:03Z</time>
      </trkpt>
      <trkpt lat="45.84465" lon="1.22286">
        <ele>276.4</ele>
        <time>2024-11-12T07:48:04Z</time>
      </trkpt>
      <trkpt lat="45.84465" lon="1.22286">
        <ele>276.4</ele>
        <time>2024-11-12T07:48:05Z</time>
      </trkpt>
      <trkpt lat="45.84465" lon="1.22286">
        <ele>276.4</ele>
        <time>2024-11-12T07:48:06Z</time>
      </trkpt>
      <trkpt lat="45.84465" lon="1.22286">
        <ele>276.4</ele>
        <time>2024-11-12T07:48:07Z</time>
      </trkpt>
      <trkpt lat="45.84464" lon="1.22287">
        <ele>276.4</ele>
        <time>2024-11-12T07:48:08Z</time>
      </trkpt>
      <trkpt lat="45.84464" lon="1.22287">
        <ele>276.4</ele>
        <time>2024-11-12T07:48:09Z</time>
      </trkpt>
      <trkpt lat="45.84464" lon="1.22287">
        <ele>276.4</ele>
        <time>2024-11-12T07:48:10Z</time>
      </trkpt>
      <trkpt lat="45.84465" lon="1.22287">
        <ele>276.4</ele>
        <time>2024-11-12T07:48:11Z</time>
      </trkpt>
      <trkpt lat="45.84465" lon="1.22288">
        <ele>276.4</ele>
        <time>2024-11-12T07:48:12Z</time>
      </trkpt>
      <trkpt lat="45.84465" lon="1.22288">
        <ele>276.4</ele>
        <time>2024-11-12T07:48:13Z</time>
      </trkpt>
      <trkpt lat="45.84465" lon="1.22288">
        <ele>276.4</ele>
        <time>2024-11-12T07:48:14Z</time>
      </trkpt>
      <trkpt lat="45.84464" lon="1.22287">
        <ele>276.4</ele>
        <time>2024-11-12T07:48:15Z</time>
      </trkpt>
      <trkpt lat="45.84464" lon="1.22287">
        <ele>276.4</ele>
        <time>2024-11-12T07:48:16Z</time>
      </trkpt>
      <trkpt lat="45.84465" lon="1.22287">
        <ele>276.4</ele>
        <time>2024-11-12T07:48:17Z</time>
      </trkpt>
      <trkpt lat="45.84465" lon="1.22287">
        <ele>276.4</ele>
        <time>2024-11-12T07:48:18Z</time>
      </trkpt>
      <trkpt lat="45.84465" lon="1.22287">
        <ele>276.4</ele>
        <time>2024-11-12T07:48:19Z</time>
      </trkpt>
      <trkpt lat="45.84465" lon="1.22286">
        <ele>276.4</ele>
        <time>2024-11-12T07:48:20Z</time>
      </trkpt>
      <trkpt lat="45.84465" lon="1.22286">
        <ele>276.4</ele>
        <time>2024-11-12T07:48:21Z</time>
      </trkpt>
      <trkpt lat="45.84464" lon="1.22287">
        <ele>276.4</ele>
        <time>2024-11-12T07:48:22Z</time>
      </trkpt>
      <trkpt lat="45.84464" lon="1.22287">
        <ele>276.4</ele>
        <time>2024-11-12T07:48:23Z</time>
      </trkpt>
      <trkpt lat="45.84464" lon="1.22287">
        <ele>276.4</ele>
        <time>2024-11-12T07:48:24Z</time>
      </trkpt>
      <trkpt lat="45.84464" lon="1.22287">
        <ele>276.4</ele>
        <time>2024-11-12T07:48:25Z</time>
      </trkpt>
      <trkpt lat="45.84464" lon="1.22287">
        <ele>276.4</ele>
        <time>2024-11-12T07:48:26Z</time>
      </trkpt>
      <trkpt lat="45.84463" lon="1.22288">
        <ele>276.4</ele>
        <time>2024-11-12T07:48:27Z</time>
      </trkpt>
      <trkpt lat="45.84463" lon="1.22288">
        <ele>276.4</ele>
        <time>2024-11-12T07:48:28Z</time>
      </trkpt>
      <trkpt lat="45.84463" lon="1.22288">
        <ele>276.4</ele>
        <time>2024-11-12T07:48:29Z</time>
      </trkpt>
      <trkpt lat="45.84463" lon="1.22289">
        <ele>276.4</ele>
        <time>2024-11-12T07:48:30Z</time>
      </trkpt>
      <trkpt lat="45.84463" lon="1.2229">
        <ele>276.4</ele>
        <time>2024-11-12T07:48:31Z</time>
      </trkpt>
      <trkpt lat="45.84462" lon="1.2229">
        <ele>276.4</ele>
        <time>2024-11-12T07:48:32Z</time>
      </trkpt>
      <trkpt lat="45.84462" lon="1.2229">
        <ele>276.4</ele>
        <time>2024-11-12T07:48:33Z</time>
      </trkpt>
      <trkpt lat="45.84462" lon="1.2229">
        <ele>276.4</ele>
        <time>2024-11-12T07:48:34Z</time>
      </trkpt>
      <trkpt lat="45.84462" lon="1.2229">
        <ele>276.4</ele>
        <time>2024-11-12T07:48:35Z</time>
      </trkpt>
      <trkpt lat="45.84462" lon="1.22291">
        <ele>276.4</ele>
        <time>2024-11-12T07:48:36Z</time>
      </trkpt>
      <trkpt lat="45.84462" lon="1.22291">
        <ele>276.4</ele>
        <time>2024-11-12T07:48:37Z</time>
      </trkpt>
      <trkpt lat="45.84462" lon="1.22292">
        <ele>276.5</ele>
        <time>2024-11-12T07:48:38Z</time>
      </trkpt>
      <trkpt lat="45.84462" lon="1.22292">
        <ele>276.5</ele>
        <time>2024-11-12T07:48:39Z</time>
      </trkpt>
      <trkpt lat="45.84463" lon="1.22293">
        <ele>276.5</ele>
        <time>2024-11-12T07:48:40Z</time>
      </trkpt>
      <trkpt lat="45.84464" lon="1.22294">
        <ele>276.5</ele>
        <time>2024-11-12T07:48:41Z</time>
      </trkpt>
      <trkpt lat="45.84464" lon="1.22294">
        <ele>276.5</ele>
        <time>2024-11-12T07:48:42Z</time>
      </trkpt>
      <trkpt lat="45.84465" lon="1.22296">
        <ele>276.5</ele>
        <time>2024-11-12T07:48:43Z</time>
      </trkpt>
      <trkpt lat="45.84466" lon="1.22296">
        <ele>276.5</ele>
        <time>2024-11-12T07:48:44Z</time>
      </trkpt>
      <trkpt lat="45.84468" lon="1.22297">
        <ele>276.6</ele>
        <time>2024-11-12T07:48:45Z</time>
      </trkpt>
      <trkpt lat="45.84469" lon="1.22297">
        <ele>276.6</ele>
        <time>2024-11-12T07:48:46Z</time>
      </trkpt>
      <trkpt lat="45.8447" lon="1.22297">
        <ele>276.6</ele>
        <time>2024-11-12T07:48:47Z</time>
      </trkpt>
      <trkpt lat="45.84472" lon="1.22298">
        <ele>276.6</ele>
        <time>2024-11-12T07:48:48Z</time>
      </trkpt>
      <trkpt lat="45.84473" lon="1.22299">
        <ele>276.7</ele>
        <time>2024-11-12T07:48:49Z</time>
      </trkpt>
      <trkpt lat="45.84474" lon="1.223">
        <ele>276.7</ele>
        <time>2024-11-12T07:48:50Z</time>
      </trkpt>
      <trkpt lat="45.84476" lon="1.22301">
        <ele>276.8</ele>
        <time>2024-11-12T07:48:51Z</time>
      </trkpt>
      <trkpt lat="45.84477" lon="1.22302">
        <ele>276.8</ele>
        <time>2024-11-12T07:48:52Z</time>
      </trkpt>
      <trkpt lat="45.84477" lon="1.22303">
        <ele>276.8</ele>
        <time>2024-11-12T07:48:53Z</time>
      </trkpt>
      <trkpt lat="45.84478" lon="1.22304">
        <ele>276.8</ele>
        <time>2024-11-12T07:48:54Z</time>
      </trkpt>
      <trkpt lat="45.84479" lon="1.22304">
        <ele>276.9</ele>
        <time>2024-11-12T07:48:55Z</time>
      </trkpt>
      <trkpt lat="45.84481" lon="1.22305">
        <ele>276.9</ele>
        <time>2024-11-12T07:48:56Z</time>
      </trkpt>
      <trkpt lat="45.84481" lon="1.22306">
        <ele>276.9</ele>
        <time>2024-11-12T07:48:57Z</time>
      </trkpt>
      <trkpt lat="45.84482" lon="1.22307">
        <ele>277</ele>
        <time>2024-11-12T07:48:58Z</time>
      </trkpt>
      <trkpt lat="45.84483" lon="1.22307">
        <ele>277</ele>
        <time>2024-11-12T07:48:59Z</time>
      </trkpt>
      <trkpt lat="45.84484" lon="1.22308">
        <ele>277</ele>
        <time>2024-11-12T07:49:00Z</time>
      </trkpt>
      <trkpt lat="45.84485" lon="1.22309">
        <ele>277.1</ele>
        <time>2024-11-12T07:49:01Z</time>
      </trkpt>
      <trkpt lat="45.84486" lon="1.22309">
        <ele>277.1</ele>
        <time>2024-11-12T07:49:02Z</time>
      </trkpt>
      <trkpt lat="45.84487" lon="1.2231">
        <ele>277.1</ele>
        <time>2024-11-12T07:49:03Z</time>
      </trkpt>
      <trkpt lat="45.84488" lon="1.2231">
        <ele>277.2</ele>
        <time>2024-11-12T07:49:04Z</time>
      </trkpt>
      <trkpt lat="45.84489" lon="1.22311">
        <ele>277.2</ele>
        <time>2024-11-12T07:49:05Z</time>
      </trkpt>
      <trkpt lat="45.8449" lon="1.22312">
        <ele>277.3</ele>
        <time>2024-11-12T07:49:06Z</time>
      </trkpt>
      <trkpt lat="45.84491" lon="1.22313">
        <ele>277.3</ele>
        <time>2024-11-12T07:49:07Z</time>
      </trkpt>
      <trkpt lat="45.84492" lon="1.22314">
        <ele>277.4</ele>
        <time>2024-11-12T07:49:08Z</time>
      </trkpt>
      <trkpt lat="45.84493" lon="1.22314">
        <ele>277.4</ele>
        <time>2024-11-12T07:49:09Z</time>
      </trkpt>
      <trkpt lat="45.84494" lon="1.22315">
        <ele>277.4</ele>
        <time>2024-11-12T07:49:10Z</time>
      </trkpt>
      <trkpt lat="45.84495" lon="1.22316">
        <ele>277.5</ele>
        <time>2024-11-12T07:49:11Z</time>
      </trkpt>
      <trkpt lat="45.84496" lon="1.22319">
        <ele>277.5</ele>
        <time>2024-11-12T07:49:12Z</time>
      </trkpt>
      <trkpt lat="45.84496" lon="1.2232">
        <ele>277.5</ele>
        <time>2024-11-12T07:49:13Z</time>
      </trkpt>
      <trkpt lat="45.84496" lon="1.22321">
        <ele>277.6</ele>
        <time>2024-11-12T07:49:14Z</time>
      </trkpt>
      <trkpt lat="45.84497" lon="1.22324">
        <ele>277.6</ele>
        <time>2024-11-12T07:49:15Z</time>
      </trkpt>
      <trkpt lat="45.84497" lon="1.22325">
        <ele>277.6</ele>
        <time>2024-11-12T07:49:16Z</time>
      </trkpt>
      <trkpt lat="45.84497" lon="1.22327">
        <ele>277.6</ele>
        <time>2024-11-12T07:49:17Z</time>
      </trkpt>
      <trkpt lat="45.84495" lon="1.2233">
        <ele>277.7</ele>
        <time>2024-11-12T07:49:18Z</time>
      </trkpt>
      <trkpt lat="45.84495" lon="1.22331">
        <ele>277.7</ele>
        <time>2024-11-12T07:49:19Z</time>
      </trkpt>
      <trkpt lat="45.84494" lon="1.22333">
        <ele>277.7</ele>
        <time>2024-11-12T07:49:20Z</time>
      </trkpt>
      <trkpt lat="45.84493" lon="1.22334">
        <ele>277.8</ele>
        <time>2024-11-12T07:49:21Z</time>
      </trkpt>
      <trkpt lat="45.84492" lon="1.22336">
        <ele>277.8</ele>
        <time>2024-11-12T07:49:22Z</time>
      </trkpt>
      <trkpt lat="45.84491" lon="1.22337">
        <ele>277.8</ele>
        <time>2024-11-12T07:49:23Z</time>
      </trkpt>
      <trkpt lat="45.8449" lon="1.22339">
        <ele>277.9</ele>
        <time>2024-11-12T07:49:24Z</time>
      </trkpt>
      <trkpt lat="45.8449" lon="1.2234">
        <ele>277.9</ele>
        <time>2024-11-12T07:49:25Z</time>
      </trkpt>
      <trkpt lat="45.84489" lon="1.22341">
        <ele>277.9</ele>
        <time>2024-11-12T07:49:26Z</time>
      </trkpt>
      <trkpt lat="45.84489" lon="1.22343">
        <ele>278</ele>
        <time>2024-11-12T07:49:27Z</time>
      </trkpt>
      <trkpt lat="45.84488" lon="1.22345">
        <ele>278</ele>
        <time>2024-11-12T07:49:28Z</time>
      </trkpt>
      <trkpt lat="45.84488" lon="1.22346">
        <ele>278</ele>
        <time>2024-11-12T07:49:29Z</time>
      </trkpt>
      <trkpt lat="45.84487" lon="1.22348">
        <ele>278.1</ele>
        <time>2024-11-12T07:49:30Z</time>
      </trkpt>
      <trkpt lat="45.84487" lon="1.2235">
        <ele>278.1</ele>
        <time>2024-11-12T07:49:31Z</time>
      </trkpt>
      <trkpt lat="45.84487" lon="1.22351">
        <ele>278.1</ele>
        <time>2024-11-12T07:49:32Z</time>
      </trkpt>
      <trkpt lat="45.84488" lon="1.22353">
        <ele>278.1</ele>
        <time>2024-11-12T07:49:33Z</time>
      </trkpt>
      <trkpt lat="45.84488" lon="1.22355">
        <ele>278.2</ele>
        <time>2024-11-12T07:49:34Z</time>
      </trkpt>
      <trkpt lat="45.84488" lon="1.22357">
        <ele>278.2</ele>
        <time>2024-11-12T07:49:35Z</time>
      </trkpt>
      <trkpt lat="45.84488" lon="1.22359">
        <ele>278.2</ele>
        <time>2024-11-12T07:49:36Z</time>
      </trkpt>
      <trkpt lat="45.84488" lon="1.22361">
        <ele>278.3</ele>
        <time>2024-11-12T07:49:37Z</time>
      </trkpt>
      <trkpt lat="45.84487" lon="1.22362">
        <ele>278.3</ele>
        <time>2024-11-12T07:49:38Z</time>
      </trkpt>
      <trkpt lat="45.84488" lon="1.22364">
        <ele>278.3</ele>
        <time>2024-11-12T07:49:39Z</time>
      </trkpt>
      <trkpt lat="45.8449" lon="1.22364">
        <ele>278.3</ele>
        <time>2024-11-12T07:49:40Z</time>
      </trkpt>
      <trkpt lat="45.8449" lon="1.22364">
        <ele>278.3</ele>
        <time>2024-11-12T07:49:41Z</time>
      </trkpt>
      <trkpt lat="45.84491" lon="1.22364">
        <ele>278.3</ele>
        <time>2024-11-12T07:49:42Z</time>
      </trkpt>
      <trkpt lat="45.84493" lon="1.22363">
        <ele>278.3</ele>
        <time>2024-11-12T07:49:43Z</time>
      </trkpt>
      <trkpt lat="45.84493" lon="1.22363">
        <ele>278.4</ele>
        <time>2024-11-12T07:49:44Z</time>
      </trkpt>
      <trkpt lat="45.84495" lon="1.22363">
        <ele>278.4</ele>
        <time>2024-11-12T07:49:45Z</time>
      </trkpt>
      <trkpt lat="45.84496" lon="1.22363">
        <ele>278.4</ele>
        <time>2024-11-12T07:49:46Z</time>
      </trkpt>
      <trkpt lat="45.84497" lon="1.22363">
        <ele>278.4</ele>
        <time>2024-11-12T07:49:47Z</time>
      </trkpt>
      <trkpt lat="45.84498" lon="1.22363">
        <ele>278.4</ele>
        <time>2024-11-12T07:49:48Z</time>
      </trkpt>
      <trkpt lat="45.845" lon="1.22363">
        <ele>278.4</ele>
        <time>2024-11-12T07:49:49Z</time>
      </trkpt>
      <trkpt lat="45.84501" lon="1.22363">
        <ele>278.4</ele>
        <time>2024-11-12T07:49:50Z</time>
      </trkpt>
      <trkpt lat="45.84502" lon="1.22363">
        <ele>278.4</ele>
        <time>2024-11-12T07:49:51Z</time>
      </trkpt>
      <trkpt lat="45.84503" lon="1.22363">
        <ele>278.5</ele>
        <time>2024-11-12T07:49:52Z</time>
      </trkpt>
      <trkpt lat="45.84504" lon="1.22363">
        <ele>278.5</ele>
        <time>2024-11-12T07:49:53Z</time>
      </trkpt>
      <trkpt lat="45.84505" lon="1.22363">
        <ele>278.5</ele>
        <time>2024-11-12T07:49:54Z</time>
      </trkpt>
      <trkpt lat="45.84506" lon="1.22365">
        <ele>278.5</ele>
        <time>2024-11-12T07:49:55Z</time>
      </trkpt>
      <trkpt lat="45.84507" lon="1.22367">
        <ele>278.5</ele>
        <time>2024-11-12T07:49:56Z</time>
      </trkpt>
      <trkpt lat="45.84508" lon="1.22368">
        <ele>278.5</ele>
        <time>2024-11-12T07:49:57Z</time>
      </trkpt>
      <trkpt lat="45.8451" lon="1.22369">
        <ele>278.5</ele>
        <time>2024-11-12T07:49:58Z</time>
      </trkpt>
      <trkpt lat="45.84512" lon="1.22371">
        <ele>278.6</ele>
        <time>2024-11-12T07:49:59Z</time>
      </trkpt>
      <trkpt lat="45.84512" lon="1.22372">
        <ele>278.6</ele>
        <time>2024-11-12T07:50:00Z</time>
      </trkpt>
      <trkpt lat="45.84513" lon="1.22373">
        <ele>278.6</ele>
        <time>2024-11-12T07:50:01Z</time>
      </trkpt>
      <trkpt lat="45.84514" lon="1.22374">
        <ele>278.6</ele>
        <time>2024-11-12T07:50:02Z</time>
      </trkpt>
      <trkpt lat="45.84515" lon="1.22375">
        <ele>278.6</ele>
        <time>2024-11-12T07:50:03Z</time>
      </trkpt>
      <trkpt lat="45.84517" lon="1.22376">
        <ele>278.6</ele>
        <time>2024-11-12T07:50:04Z</time>
      </trkpt>
      <trkpt lat="45.84518" lon="1.22377">
        <ele>278.7</ele>
        <time>2024-11-12T07:50:05Z</time>
      </trkpt>
      <trkpt lat="45.84519" lon="1.22378">
        <ele>278.7</ele>
        <time>2024-11-12T07:50:06Z</time>
      </trkpt>
      <trkpt lat="45.8452" lon="1.22379">
        <ele>278.7</ele>
        <time>2024-11-12T07:50:07Z</time>
      </trkpt>
      <trkpt lat="45.84521" lon="1.2238">
        <ele>278.7</ele>
        <time>2024-11-12T07:50:08Z</time>
      </trkpt>
      <trkpt lat="45.84522" lon="1.2238">
        <ele>278.7</ele>
        <time>2024-11-12T07:50:09Z</time>
      </trkpt>
      <trkpt lat="45.84523" lon="1.2238">
        <ele>278.7</ele>
        <time>2024-11-12T07:50:10Z</time>
      </trkpt>
      <trkpt lat="45.84525" lon="1.22381">
        <ele>278.8</ele>
        <time>2024-11-12T07:50:11Z</time>
      </trkpt>
      <trkpt lat="45.84526" lon="1.22381">
        <ele>278.8</ele>
        <time>2024-11-12T07:50:12Z</time>
      </trkpt>
      <trkpt lat="45.84528" lon="1.22381">
        <ele>278.8</ele>
        <time>2024-11-12T07:50:13Z</time>
      </trkpt>
      <trkpt lat="45.8453" lon="1.2238">
        <ele>278.8</ele>
        <time>2024-11-12T07:50:14Z</time>
      </trkpt>
      <trkpt lat="45.84531" lon="1.2238">
        <ele>278.8</ele>
        <time>2024-11-12T07:50:15Z</time>
      </trkpt>
      <trkpt lat="45.84533" lon="1.22379">
        <ele>278.9</ele>
        <time>2024-11-12T07:50:16Z</time>
      </trkpt>
      <trkpt lat="45.84534" lon="1.22378">
        <ele>278.9</ele>
        <time>2024-11-12T07:50:17Z</time>
      </trkpt>
      <trkpt lat="45.84536" lon="1.22374">
        <ele>278.9</ele>
        <time>2024-11-12T07:50:18Z</time>
      </trkpt>
      <trkpt lat="45.84536" lon="1.22373">
        <ele>278.9</ele>
        <time>2024-11-12T07:50:19Z</time>
      </trkpt>
      <trkpt lat="45.84537" lon="1.22371">
        <ele>279</ele>
        <time>2024-11-12T07:50:20Z</time>
      </trkpt>
      <trkpt lat="45.84538" lon="1.22369">
        <ele>279</ele>
        <time>2024-11-12T07:50:21Z</time>
      </trkpt>
      <trkpt lat="45.84538" lon="1.22366">
        <ele>279</ele>
        <time>2024-11-12T07:50:22Z</time>
      </trkpt>
      <trkpt lat="45.84538" lon="1.22362">
        <ele>279</ele>
        <time>2024-11-12T07:50:23Z</time>
      </trkpt>
      <trkpt lat="45.84538" lon="1.22361">
        <ele>279</ele>
        <time>2024-11-12T07:50:24Z</time>
      </trkpt>
      <trkpt lat="45.84538" lon="1.22359">
        <ele>279.1</ele>
        <time>2024-11-12T07:50:25Z</time>
      </trkpt>
      <trkpt lat="45.84538" lon="1.22357">
        <ele>279.1</ele>
        <time>2024-11-12T07:50:26Z</time>
      </trkpt>
      <trkpt lat="45.84539" lon="1.22354">
        <ele>279.1</ele>
        <time>2024-11-12T07:50:27Z</time>
      </trkpt>
      <trkpt lat="45.84539" lon="1.22353">
        <ele>279.1</ele>
        <time>2024-11-12T07:50:28Z</time>
      </trkpt>
      <trkpt lat="45.84539" lon="1.22352">
        <ele>279.1</ele>
        <time>2024-11-12T07:50:29Z</time>
      </trkpt>
      <trkpt lat="45.8454" lon="1.22349">
        <ele>279.2</ele>
        <time>2024-11-12T07:50:30Z</time>
      </trkpt>
      <trkpt lat="45.8454" lon="1.22348">
        <ele>279.2</ele>
        <time>2024-11-12T07:50:31Z</time>
      </trkpt>
      <trkpt lat="45.8454" lon="1.22346">
        <ele>279.2</ele>
        <time>2024-11-12T07:50:32Z</time>
      </trkpt>
      <trkpt lat="45.84541" lon="1.22343">
        <ele>279.3</ele>
        <time>2024-11-12T07:50:33Z</time>
      </trkpt>
      <trkpt lat="45.84542" lon="1.22342">
        <ele>279.3</ele>
        <time>2024-11-12T07:50:34Z</time>
      </trkpt>
      <trkpt lat="45.84543" lon="1.22341">
        <ele>279.3</ele>
        <time>2024-11-12T07:50:35Z</time>
      </trkpt>
      <trkpt lat="45.84544" lon="1.22339">
        <ele>279.3</ele>
        <time>2024-11-12T07:50:36Z</time>
      </trkpt>
      <trkpt lat="45.84545" lon="1.22336">
        <ele>279.4</ele>
        <time>2024-11-12T07:50:37Z</time>
      </trkpt>
      <trkpt lat="45.84546" lon="1.22335">
        <ele>279.4</ele>
        <time>2024-11-12T07:50:38Z</time>
      </trkpt>
      <trkpt lat="45.84546" lon="1.22334">
        <ele>279.4</ele>
        <time>2024-11-12T07:50:39Z</time>
      </trkpt>
      <trkpt lat="45.84547" lon="1.22332">
        <ele>279.4</ele>
        <time>2024-11-12T07:50:40Z</time>
      </trkpt>
      <trkpt lat="45.84548" lon="1.22331">
        <ele>279.5</ele>
        <time>2024-11-12T07:50:41Z</time>
      </trkpt>
      <trkpt lat="45.8455" lon="1.22329">
        <ele>279.5</ele>
        <time>2024-11-12T07:50:42Z</time>
      </trkpt>
      <trkpt lat="45.84551" lon="1.22327">
        <ele>279.5</ele>
        <time>2024-11-12T07:50:43Z</time>
      </trkpt>
      <trkpt lat="45.84553" lon="1.22326">
        <ele>279.6</ele>
        <time>2024-11-12T07:50:44Z</time>
      </trkpt>
      <trkpt lat="45.84554" lon="1.22326">
        <ele>279.6</ele>
        <time>2024-11-12T07:50:45Z</time>
      </trkpt>
      <trkpt lat="45.84554" lon="1.22325">
        <ele>279.6</ele>
        <time>2024-11-12T07:50:46Z</time>
      </trkpt>
      <trkpt lat="45.84557" lon="1.22323">
        <ele>279.7</ele>
        <time>2024-11-12T07:50:47Z</time>
      </trkpt>
      <trkpt lat="45.84558" lon="1.22323">
        <ele>279.7</ele>
        <time>2024-11-12T07:50:48Z</time>
      </trkpt>
      <trkpt lat="45.8456" lon="1.22322">
        <ele>279.8</ele>
        <time>2024-11-12T07:50:49Z</time>
      </trkpt>
      <trkpt lat="45.84561" lon="1.22322">
        <ele>279.8</ele>
        <time>2024-11-12T07:50:50Z</time>
      </trkpt>
      <trkpt lat="45.84562" lon="1.22322">
        <ele>279.8</ele>
        <time>2024-11-12T07:50:51Z</time>
      </trkpt>
      <trkpt lat="45.84565" lon="1.22322">
        <ele>279.9</ele>
        <time>2024-11-12T07:50:52Z</time>
      </trkpt>
      <trkpt lat="45.84566" lon="1.22322">
        <ele>279.9</ele>
        <time>2024-11-12T07:50:53Z</time>
      </trkpt>
      <trkpt lat="45.84567" lon="1.22322">
        <ele>280</ele>
        <time>2024-11-12T07:50:54Z</time>
      </trkpt>
      <trkpt lat="45.84568" lon="1.22322">
        <ele>280</ele>
        <time>2024-11-12T07:50:55Z</time>
      </trkpt>
      <trkpt lat="45.8457" lon="1.22322">
        <ele>280</ele>
        <time>2024-11-12T07:50:56Z</time>
      </trkpt>
      <trkpt lat="45.84571" lon="1.22322">
        <ele>280.1</ele>
        <time>2024-11-12T07:50:57Z</time>
      </trkpt>
      <trkpt lat="45.84573" lon="1.22324">
        <ele>280.1</ele>
        <time>2024-11-12T07:50:58Z</time>
      </trkpt>
      <trkpt lat="45.84574" lon="1.22325">
        <ele>280.2</ele>
        <time>2024-11-12T07:50:59Z</time>
      </trkpt>
      <trkpt lat="45.84575" lon="1.22326">
        <ele>280.2</ele>
        <time>2024-11-12T07:51:00Z</time>
      </trkpt>
      <trkpt lat="45.84576" lon="1.22327">
        <ele>280.2</ele>
        <time>2024-11-12T07:51:01Z</time>
      </trkpt>
      <trkpt lat="45.84577" lon="1.22327">
        <ele>280.3</ele>
        <time>2024-11-12T07:51:02Z</time>
      </trkpt>
      <trkpt lat="45.84579" lon="1.22325">
        <ele>280.4</ele>
        <time>2024-11-12T07:51:03Z</time>
      </trkpt>
      <trkpt lat="45.8458" lon="1.22324">
        <ele>280.4</ele>
        <time>2024-11-12T07:51:04Z</time>
      </trkpt>
      <trkpt lat="45.84581" lon="1.22324">
        <ele>280.5</ele>
        <time>2024-11-12T07:51:05Z</time>
      </trkpt>
      <trkpt lat="45.84582" lon="1.22324">
        <ele>280.5</ele>
        <time>2024-11-12T07:51:06Z</time>
      </trkpt>
      <trkpt lat="45.84584" lon="1.2232">
        <ele>280.6</ele>
        <time>2024-11-12T07:51:07Z</time>
      </trkpt>
      <trkpt lat="45.84585" lon="1.22317">
        <ele>280.8</ele>
        <time>2024-11-12T07:51:08Z</time>
      </trkpt>
      <trkpt lat="45.84587" lon="1.22316">
        <ele>280.9</ele>
        <time>2024-11-12T07:51:09Z</time>
      </trkpt>
      <trkpt lat="45.84588" lon="1.22316">
        <ele>280.9</ele>
        <time>2024-11-12T07:51:10Z</time>
      </trkpt>
      <trkpt lat="45.84589" lon="1.22316">
        <ele>281</ele>
        <time>2024-11-12T07:51:11Z</time>
      </trkpt>
      <trkpt lat="45.84591" lon="1.22313">
        <ele>281.2</ele>
        <time>2024-11-12T07:51:12Z</time>
      </trkpt>
      <trkpt lat="45.84592" lon="1.22311">
        <ele>281.3</ele>
        <time>2024-11-12T07:51:13Z</time>
      </trkpt>
      <trkpt lat="45.84592" lon="1.2231">
        <ele>281.4</ele>
        <time>2024-11-12T07:51:14Z</time>
      </trkpt>
      <trkpt lat="45.84594" lon="1.2231">
        <ele>281.5</ele>
        <time>2024-11-12T07:51:15Z</time>
      </trkpt>
      <trkpt lat="45.84595" lon="1.22311">
        <ele>281.6</ele>
        <time>2024-11-12T07:51:16Z</time>
      </trkpt>
      <trkpt lat="45.84597" lon="1.22313">
        <ele>281.8</ele>
        <time>2024-11-12T07:51:17Z</time>
      </trkpt>
      <trkpt lat="45.84598" lon="1.22313">
        <ele>281.8</ele>
        <time>2024-11-12T07:51:18Z</time>
      </trkpt>
      <trkpt lat="45.84598" lon="1.22313">
        <ele>281.9</ele>
        <time>2024-11-12T07:51:19Z</time>
      </trkpt>
      <trkpt lat="45.84599" lon="1.22313">
        <ele>282</ele>
        <time>2024-11-12T07:51:20Z</time>
      </trkpt>
      <trkpt lat="45.846" lon="1.22315">
        <ele>282.1</ele>
        <time>2024-11-12T07:51:21Z</time>
      </trkpt>
      <trkpt lat="45.84601" lon="1.22315">
        <ele>282.2</ele>
        <time>2024-11-12T07:51:22Z</time>
      </trkpt>
      <trkpt lat="45.84602" lon="1.22314">
        <ele>282.3</ele>
        <time>2024-11-12T07:51:23Z</time>
      </trkpt>
      <trkpt lat="45.84603" lon="1.22315">
        <ele>282.4</ele>
        <time>2024-11-12T07:51:24Z</time>
      </trkpt>
      <trkpt lat="45.84604" lon="1.22315">
        <ele>282.5</ele>
        <time>2024-11-12T07:51:25Z</time>
      </trkpt>
      <trkpt lat="45.84605" lon="1.22315">
        <ele>282.6</ele>
        <time>2024-11-12T07:51:26Z</time>
      </trkpt>
      <trkpt lat="45.84606" lon="1.22315">
        <ele>282.8</ele>
        <time>2024-11-12T07:51:27Z</time>
      </trkpt>
      <trkpt lat="45.84608" lon="1.22315">
        <ele>282.9</ele>
        <time>2024-11-12T07:51:28Z</time>
      </trkpt>
      <trkpt lat="45.84609" lon="1.22315">
        <ele>283</ele>
        <time>2024-11-12T07:51:29Z</time>
      </trkpt>
      <trkpt lat="45.8461" lon="1.22315">
        <ele>283.2</ele>
        <time>2024-11-12T07:51:30Z</time>
      </trkpt>
      <trkpt lat="45.84612" lon="1.22315">
        <ele>283.3</ele>
        <time>2024-11-12T07:51:31Z</time>
      </trkpt>
      <trkpt lat="45.84613" lon="1.22313">
        <ele>283.5</ele>
        <time>2024-11-12T07:51:32Z</time>
      </trkpt>
      <trkpt lat="45.84614" lon="1.22313">
        <ele>283.6</ele>
        <time>2024-11-12T07:51:33Z</time>
      </trkpt>
      <trkpt lat="45.84614" lon="1.22312">
        <ele>283.6</ele>
        <time>2024-11-12T07:51:34Z</time>
      </trkpt>
      <trkpt lat="45.84614" lon="1.22311">
        <ele>283.7</ele>
        <time>2024-11-12T07:51:35Z</time>
      </trkpt>
      <trkpt lat="45.84616" lon="1.22309">
        <ele>283.9</ele>
        <time>2024-11-12T07:51:36Z</time>
      </trkpt>
      <trkpt lat="45.84617" lon="1.22308">
        <ele>284</ele>
        <time>2024-11-12T07:51:37Z</time>
      </trkpt>
      <trkpt lat="45.84617" lon="1.22308">
        <ele>284.1</ele>
        <time>2024-11-12T07:51:38Z</time>
      </trkpt>
      <trkpt lat="45.84618" lon="1.22307">
        <ele>284.1</ele>
        <time>2024-11-12T07:51:39Z</time>
      </trkpt>
      <trkpt lat="45.84619" lon="1.22306">
        <ele>284.3</ele>
        <time>2024-11-12T07:51:40Z</time>
      </trkpt>
      <trkpt lat="45.8462" lon="1.22305">
        <ele>284.4</ele>
        <time>2024-11-12T07:51:41Z</time>
      </trkpt>
      <trkpt lat="45.84621" lon="1.22303">
        <ele>284.5</ele>
        <time>2024-11-12T07:51:42Z</time>
      </trkpt>
      <trkpt lat="45.84622" lon="1.22302">
        <ele>284.6</ele>
        <time>2024-11-12T07:51:43Z</time>
      </trkpt>
      <trkpt lat="45.84623" lon="1.22301">
        <ele>284.7</ele>
        <time>2024-11-12T07:51:44Z</time>
      </trkpt>
      <trkpt lat="45.84624" lon="1.22299">
        <ele>284.8</ele>
        <time>2024-11-12T07:51:45Z</time>
      </trkpt>
      <trkpt lat="45.84624" lon="1.22299">
        <ele>284.9</ele>
        <time>2024-11-12T07:51:46Z</time>
      </trkpt>
      <trkpt lat="45.84625" lon="1.22298">
        <ele>285</ele>
        <time>2024-11-12T07:51:47Z</time>
      </trkpt>
      <trkpt lat="45.84625" lon="1.22297">
        <ele>285</ele>
        <time>2024-11-12T07:51:48Z</time>
      </trkpt>
      <trkpt lat="45.84626" lon="1.22295">
        <ele>285.1</ele>
        <time>2024-11-12T07:51:49Z</time>
      </trkpt>
      <trkpt lat="45.84626" lon="1.22294">
        <ele>285.2</ele>
        <time>2024-11-12T07:51:50Z</time>
      </trkpt>
      <trkpt lat="45.84627" lon="1.22293">
        <ele>285.2</ele>
        <time>2024-11-12T07:51:51Z</time>
      </trkpt>
      <trkpt lat="45.84628" lon="1.22292">
        <ele>285.3</ele>
        <time>2024-11-12T07:51:52Z</time>
      </trkpt>
      <trkpt lat="45.84627" lon="1.22288">
        <ele>285.5</ele>
        <time>2024-11-12T07:51:53Z</time>
      </trkpt>
      <trkpt lat="45.84628" lon="1.22287">
        <ele>285.6</ele>
        <time>2024-11-12T07:51:54Z</time>
      </trkpt>
      <trkpt lat="45.84628" lon="1.22286">
        <ele>285.6</ele>
        <time>2024-11-12T07:51:55Z</time>
      </trkpt>
      <trkpt lat="45.84629" lon="1.22285">
        <ele>285.7</ele>
        <time>2024-11-12T07:51:56Z</time>
      </trkpt>
      <trkpt lat="45.84629" lon="1.22284">
        <ele>285.7</ele>
        <time>2024-11-12T07:51:57Z</time>
      </trkpt>
      <trkpt lat="45.84631" lon="1.22282">
        <ele>285.8</ele>
        <time>2024-11-12T07:51:58Z</time>
      </trkpt>
      <trkpt lat="45.84631" lon="1.22281">
        <ele>285.9</ele>
        <time>2024-11-12T07:51:59Z</time>
      </trkpt>
      <trkpt lat="45.84632" lon="1.2228">
        <ele>285.9</ele>
        <time>2024-11-12T07:52:00Z</time>
      </trkpt>
      <trkpt lat="45.84632" lon="1.22278">
        <ele>286</ele>
        <time>2024-11-12T07:52:01Z</time>
      </trkpt>
      <trkpt lat="45.84633" lon="1.22277">
        <ele>286.1</ele>
        <time>2024-11-12T07:52:02Z</time>
      </trkpt>
      <trkpt lat="45.84633" lon="1.22276">
        <ele>286.1</ele>
        <time>2024-11-12T07:52:03Z</time>
      </trkpt>
      <trkpt lat="45.84633" lon="1.22274">
        <ele>286.2</ele>
        <time>2024-11-12T07:52:04Z</time>
      </trkpt>
      <trkpt lat="45.84634" lon="1.22274">
        <ele>286.2</ele>
        <time>2024-11-12T07:52:05Z</time>
      </trkpt>
      <trkpt lat="45.84635" lon="1.22273">
        <ele>286.3</ele>
        <time>2024-11-12T07:52:06Z</time>
      </trkpt>
      <trkpt lat="45.84637" lon="1.2227">
        <ele>286.4</ele>
        <time>2024-11-12T07:52:07Z</time>
      </trkpt>
      <trkpt lat="45.84637" lon="1.22269">
        <ele>286.4</ele>
        <time>2024-11-12T07:52:08Z</time>
      </trkpt>
      <trkpt lat="45.84638" lon="1.22268">
        <ele>286.5</ele>
        <time>2024-11-12T07:52:09Z</time>
      </trkpt>
      <trkpt lat="45.8464" lon="1.22266">
        <ele>286.6</ele>
        <time>2024-11-12T07:52:10Z</time>
      </trkpt>
      <trkpt lat="45.8464" lon="1.22266">
        <ele>286.6</ele>
        <time>2024-11-12T07:52:11Z</time>
      </trkpt>
      <trkpt lat="45.84641" lon="1.22265">
        <ele>286.6</ele>
        <time>2024-11-12T07:52:12Z</time>
      </trkpt>
      <trkpt lat="45.84642" lon="1.22264">
        <ele>286.7</ele>
        <time>2024-11-12T07:52:13Z</time>
      </trkpt>
      <trkpt lat="45.84643" lon="1.22262">
        <ele>286.7</ele>
        <time>2024-11-12T07:52:14Z</time>
      </trkpt>
      <trkpt lat="45.84644" lon="1.22261">
        <ele>286.8</ele>
        <time>2024-11-12T07:52:15Z</time>
      </trkpt>
      <trkpt lat="45.84645" lon="1.2226">
        <ele>286.8</ele>
        <time>2024-11-12T07:52:16Z</time>
      </trkpt>
      <trkpt lat="45.84645" lon="1.22259">
        <ele>286.9</ele>
        <time>2024-11-12T07:52:17Z</time>
      </trkpt>
      <trkpt lat="45.84647" lon="1.22258">
        <ele>286.9</ele>
        <time>2024-11-12T07:52:18Z</time>
      </trkpt>
      <trkpt lat="45.84648" lon="1.22257">
        <ele>287</ele>
        <time>2024-11-12T07:52:19Z</time>
      </trkpt>
      <trkpt lat="45.8465" lon="1.22256">
        <ele>287.1</ele>
        <time>2024-11-12T07:52:20Z</time>
      </trkpt>
      <trkpt lat="45.84651" lon="1.22256">
        <ele>287.1</ele>
        <time>2024-11-12T07:52:21Z</time>
      </trkpt>
      <trkpt lat="45.84652" lon="1.22255">
        <ele>287.2</ele>
        <time>2024-11-12T07:52:22Z</time>
      </trkpt>
      <trkpt lat="45.84653" lon="1.22254">
        <ele>287.2</ele>
        <time>2024-11-12T07:52:23Z</time>
      </trkpt>
      <trkpt lat="45.84655" lon="1.22254">
        <ele>287.3</ele>
        <time>2024-11-12T07:52:24Z</time>
      </trkpt>
      <trkpt lat="45.84656" lon="1.22253">
        <ele>287.3</ele>
        <time>2024-11-12T07:52:25Z</time>
      </trkpt>
      <trkpt lat="45.84657" lon="1.22253">
        <ele>287.3</ele>
        <time>2024-11-12T07:52:26Z</time>
      </trkpt>
      <trkpt lat="45.84658" lon="1.22252">
        <ele>287.4</ele>
        <time>2024-11-12T07:52:27Z</time>
      </trkpt>
      <trkpt lat="45.84659" lon="1.22251">
        <ele>287.4</ele>
        <time>2024-11-12T07:52:28Z</time>
      </trkpt>
      <trkpt lat="45.84659" lon="1.22249">
        <ele>287.4</ele>
        <time>2024-11-12T07:52:29Z</time>
      </trkpt>
      <trkpt lat="45.84659" lon="1.22248">
        <ele>287.5</ele>
        <time>2024-11-12T07:52:30Z</time>
      </trkpt>
      <trkpt lat="45.84658" lon="1.22246">
        <ele>287.5</ele>
        <time>2024-11-12T07:52:31Z</time>
      </trkpt>
      <trkpt lat="45.84658" lon="1.22244">
        <ele>287.6</ele>
        <time>2024-11-12T07:52:32Z</time>
      </trkpt>
      <trkpt lat="45.84656" lon="1.22243">
        <ele>287.6</ele>
        <time>2024-11-12T07:52:33Z</time>
      </trkpt>
      <trkpt lat="45.84655" lon="1.22243">
        <ele>287.7</ele>
        <time>2024-11-12T07:52:34Z</time>
      </trkpt>
      <trkpt lat="45.84654" lon="1.22243">
        <ele>287.7</ele>
        <time>2024-11-12T07:52:35Z</time>
      </trkpt>
      <trkpt lat="45.84654" lon="1.22243">
        <ele>287.7</ele>
        <time>2024-11-12T07:52:36Z</time>
      </trkpt>
      <trkpt lat="45.84654" lon="1.22243">
        <ele>287.7</ele>
        <time>2024-11-12T07:52:37Z</time>
      </trkpt>
      <trkpt lat="45.84654" lon="1.22244">
        <ele>287.7</ele>
        <time>2024-11-12T07:52:38Z</time>
      </trkpt>
      <trkpt lat="45.84654" lon="1.22244">
        <ele>287.7</ele>
        <time>2024-11-12T07:52:39Z</time>
      </trkpt>
      <trkpt lat="45.84654" lon="1.22244">
        <ele>287.7</ele>
        <time>2024-11-12T07:52:40Z</time>
      </trkpt>
      <trkpt lat="45.84653" lon="1.22244">
        <ele>287.7</ele>
        <time>2024-11-12T07:52:41Z</time>
      </trkpt>
      <trkpt lat="45.84653" lon="1.22243">
        <ele>287.7</ele>
        <time>2024-11-12T07:52:42Z</time>
      </trkpt>
      <trkpt lat="45.84653" lon="1.22243">
        <ele>287.7</ele>
        <time>2024-11-12T07:52:43Z</time>
      </trkpt>
      <trkpt lat="45.84653" lon="1.22243">
        <ele>287.7</ele>
        <time>2024-11-12T07:52:44Z</time>
      </trkpt>
      <trkpt lat="45.84653" lon="1.22244">
        <ele>287.7</ele>
        <time>2024-11-12T07:52:45Z</time>
      </trkpt>
      <trkpt lat="45.84653" lon="1.22245">
        <ele>287.8</ele>
        <time>2024-11-12T07:52:46Z</time>
      </trkpt>
      <trkpt lat="45.84655" lon="1.22246">
        <ele>287.8</ele>
        <time>2024-11-12T07:52:47Z</time>
      </trkpt>
      <trkpt lat="45.84655" lon="1.22247">
        <ele>287.9</ele>
        <time>2024-11-12T07:52:48Z</time>
      </trkpt>
      <trkpt lat="45.84656" lon="1.22247">
        <ele>287.9</ele>
        <time>2024-11-12T07:52:49Z</time>
      </trkpt>
      <trkpt lat="45.84658" lon="1.22248">
        <ele>287.9</ele>
        <time>2024-11-12T07:52:50Z</time>
      </trkpt>
      <trkpt lat="45.84659" lon="1.22249">
        <ele>288</ele>
        <time>2024-11-12T07:52:51Z</time>
      </trkpt>
      <trkpt lat="45.84661" lon="1.22248">
        <ele>288</ele>
        <time>2024-11-12T07:52:52Z</time>
      </trkpt>
      <trkpt lat="45.84662" lon="1.22247">
        <ele>288.1</ele>
        <time>2024-11-12T07:52:53Z</time>
      </trkpt>
      <trkpt lat="45.84663" lon="1.22245">
        <ele>288.1</ele>
        <time>2024-11-12T07:52:54Z</time>
      </trkpt>
      <trkpt lat="45.84664" lon="1.22243">
        <ele>288.2</ele>
        <time>2024-11-12T07:52:55Z</time>
      </trkpt>
      <trkpt lat="45.84665" lon="1.22241">
        <ele>288.2</ele>
        <time>2024-11-12T07:52:56Z</time>
      </trkpt>
      <trkpt lat="45.84666" lon="1.2224">
        <ele>288.3</ele>
        <time>2024-11-12T07:52:57Z</time>
      </trkpt>
      <trkpt lat="45.84666" lon="1.22239">
        <ele>288.3</ele>
        <time>2024-11-12T07:52:58Z</time>
      </trkpt>
      <trkpt lat="45.84667" lon="1.22238">
        <ele>288.3</ele>
        <time>2024-11-12T07:52:59Z</time>
      </trkpt>
      <trkpt lat="45.84668" lon="1.22236">
        <ele>288.4</ele>
        <time>2024-11-12T07:53:00Z</time>
      </trkpt>
      <trkpt lat="45.84668" lon="1.22235">
        <ele>288.4</ele>
        <time>2024-11-12T07:53:01Z</time>
      </trkpt>
      <trkpt lat="45.84668" lon="1.22234">
        <ele>288.4</ele>
        <time>2024-11-12T07:53:02Z</time>
      </trkpt>
      <trkpt lat="45.84667" lon="1.22233">
        <ele>288.5</ele>
        <time>2024-11-12T07:53:03Z</time>
      </trkpt>
      <trkpt lat="45.84668" lon="1.22232">
        <ele>288.5</ele>
        <time>2024-11-12T07:53:04Z</time>
      </trkpt>
      <trkpt lat="45.84669" lon="1.22231">
        <ele>288.5</ele>
        <time>2024-11-12T07:53:05Z</time>
      </trkpt>
      <trkpt lat="45.8467" lon="1.2223">
        <ele>288.6</ele>
        <time>2024-11-12T07:53:06Z</time>
      </trkpt>
      <trkpt lat="45.8467" lon="1.22229">
        <ele>288.6</ele>
        <time>2024-11-12T07:53:07Z</time>
      </trkpt>
      <trkpt lat="45.84671" lon="1.22229">
        <ele>288.6</ele>
        <time>2024-11-12T07:53:08Z</time>
      </trkpt>
      <trkpt lat="45.84674" lon="1.22226">
        <ele>288.8</ele>
        <time>2024-11-12T07:53:09Z</time>
      </trkpt>
      <trkpt lat="45.84675" lon="1.22224">
        <ele>288.9</ele>
        <time>2024-11-12T07:53:10Z</time>
      </trkpt>
      <trkpt lat="45.84676" lon="1.22223">
        <ele>288.9</ele>
        <time>2024-11-12T07:53:11Z</time>
      </trkpt>
      <trkpt lat="45.84677" lon="1.22222">
        <ele>289</ele>
        <time>2024-11-12T07:53:12Z</time>
      </trkpt>
      <trkpt lat="45.84677" lon="1.22221">
        <ele>289.1</ele>
        <time>2024-11-12T07:53:13Z</time>
      </trkpt>
      <trkpt lat="45.84678" lon="1.22218">
        <ele>289.2</ele>
        <time>2024-11-12T07:53:14Z</time>
      </trkpt>
      <trkpt lat="45.8468" lon="1.22216">
        <ele>289.3</ele>
        <time>2024-11-12T07:53:15Z</time>
      </trkpt>
      <trkpt lat="45.8468" lon="1.22215">
        <ele>289.4</ele>
        <time>2024-11-12T07:53:16Z</time>
      </trkpt>
      <trkpt lat="45.84682" lon="1.22213">
        <ele>289.5</ele>
        <time>2024-11-12T07:53:17Z</time>
      </trkpt>
      <trkpt lat="45.84683" lon="1.22211">
        <ele>289.6</ele>
        <time>2024-11-12T07:53:18Z</time>
      </trkpt>
      <trkpt lat="45.84683" lon="1.2221">
        <ele>289.6</ele>
        <time>2024-11-12T07:53:19Z</time>
      </trkpt>
      <trkpt lat="45.84684" lon="1.22209">
        <ele>289.7</ele>
        <time>2024-11-12T07:53:20Z</time>
      </trkpt>
      <trkpt lat="45.84685" lon="1.22208">
        <ele>289.8</ele>
        <time>2024-11-12T07:53:21Z</time>
      </trkpt>
      <trkpt lat="45.84686" lon="1.22207">
        <ele>289.8</ele>
        <time>2024-11-12T07:53:22Z</time>
      </trkpt>
      <trkpt lat="45.84687" lon="1.22206">
        <ele>289.9</ele>
        <time>2024-11-12T07:53:23Z</time>
      </trkpt>
      <trkpt lat="45.84688" lon="1.22203">
        <ele>290.1</ele>
        <time>2024-11-12T07:53:24Z</time>
      </trkpt>
      <trkpt lat="45.84689" lon="1.22202">
        <ele>290.1</ele>
        <time>2024-11-12T07:53:25Z</time>
      </trkpt>
      <trkpt lat="45.8469" lon="1.22201">
        <ele>290.2</ele>
        <time>2024-11-12T07:53:26Z</time>
      </trkpt>
      <trkpt lat="45.84691" lon="1.222">
        <ele>290.3</ele>
        <time>2024-11-12T07:53:27Z</time>
      </trkpt>
      <trkpt lat="45.84692" lon="1.22199">
        <ele>290.4</ele>
        <time>2024-11-12T07:53:28Z</time>
      </trkpt>
      <trkpt lat="45.84692" lon="1.22196">
        <ele>290.5</ele>
        <time>2024-11-12T07:53:29Z</time>
      </trkpt>
      <trkpt lat="45.84693" lon="1.22195">
        <ele>290.6</ele>
        <time>2024-11-12T07:53:30Z</time>
      </trkpt>
      <trkpt lat="45.84693" lon="1.22194">
        <ele>290.7</ele>
        <time>2024-11-12T07:53:31Z</time>
      </trkpt>
      <trkpt lat="45.84694" lon="1.22193">
        <ele>290.7</ele>
        <time>2024-11-12T07:53:32Z</time>
      </trkpt>
      <trkpt lat="45.84694" lon="1.22193">
        <ele>290.7</ele>
        <time>2024-11-12T07:53:33Z</time>
      </trkpt>
      <trkpt lat="45.84694" lon="1.22192">
        <ele>290.8</ele>
        <time>2024-11-12T07:53:34Z</time>
      </trkpt>
      <trkpt lat="45.84694" lon="1.22193">
        <ele>290.8</ele>
        <time>2024-11-12T07:53:35Z</time>
      </trkpt>
      <trkpt lat="45.84694" lon="1.22194">
        <ele>290.9</ele>
        <time>2024-11-12T07:53:36Z</time>
      </trkpt>
      <trkpt lat="45.84694" lon="1.22194">
        <ele>290.9</ele>
        <time>2024-11-12T07:53:37Z</time>
      </trkpt>
      <trkpt lat="45.84694" lon="1.22195">
        <ele>290.9</ele>
        <time>2024-11-12T07:53:38Z</time>
      </trkpt>
      <trkpt lat="45.84694" lon="1.22194">
        <ele>290.9</ele>
        <time>2024-11-12T07:53:39Z</time>
      </trkpt>
      <trkpt lat="45.84696" lon="1.22193">
        <ele>291</ele>
        <time>2024-11-12T07:53:40Z</time>
      </trkpt>
      <trkpt lat="45.84697" lon="1.22192">
        <ele>291.2</ele>
        <time>2024-11-12T07:53:41Z</time>
      </trkpt>
      <trkpt lat="45.84699" lon="1.2219">
        <ele>291.3</ele>
        <time>2024-11-12T07:53:42Z</time>
      </trkpt>
      <trkpt lat="45.847" lon="1.22189">
        <ele>291.4</ele>
        <time>2024-11-12T07:53:43Z</time>
      </trkpt>
      <trkpt lat="45.84701" lon="1.22187">
        <ele>291.5</ele>
        <time>2024-11-12T07:53:44Z</time>
      </trkpt>
      <trkpt lat="45.84701" lon="1.22185">
        <ele>291.6</ele>
        <time>2024-11-12T07:53:45Z</time>
      </trkpt>
      <trkpt lat="45.84702" lon="1.22184">
        <ele>291.7</ele>
        <time>2024-11-12T07:53:46Z</time>
      </trkpt>
      <trkpt lat="45.84703" lon="1.22182">
        <ele>291.8</ele>
        <time>2024-11-12T07:53:47Z</time>
      </trkpt>
      <trkpt lat="45.84703" lon="1.2218">
        <ele>291.9</ele>
        <time>2024-11-12T07:53:48Z</time>
      </trkpt>
      <trkpt lat="45.84703" lon="1.22178">
        <ele>292.1</ele>
        <time>2024-11-12T07:53:49Z</time>
      </trkpt>
      <trkpt lat="45.84704" lon="1.22175">
        <ele>292.2</ele>
        <time>2024-11-12T07:53:50Z</time>
      </trkpt>
      <trkpt lat="45.84704" lon="1.22174">
        <ele>292.3</ele>
        <time>2024-11-12T07:53:51Z</time>
      </trkpt>
      <trkpt lat="45.84705" lon="1.22173">
        <ele>292.3</ele>
        <time>2024-11-12T07:53:52Z</time>
      </trkpt>
      <trkpt lat="45.84706" lon="1.22171">
        <ele>292.3</ele>
        <time>2024-11-12T07:53:53Z</time>
      </trkpt>
      <trkpt lat="45.84705" lon="1.22169">
        <ele>292.4</ele>
        <time>2024-11-12T07:53:54Z</time>
      </trkpt>
      <trkpt lat="45.84706" lon="1.22167">
        <ele>292.4</ele>
        <time>2024-11-12T07:53:55Z</time>
      </trkpt>
      <trkpt lat="45.84707" lon="1.22166">
        <ele>292.5</ele>
        <time>2024-11-12T07:53:56Z</time>
      </trkpt>
      <trkpt lat="45.84707" lon="1.22165">
        <ele>292.5</ele>
        <time>2024-11-12T07:53:57Z</time>
      </trkpt>
      <trkpt lat="45.84708" lon="1.22163">
        <ele>292.6</ele>
        <time>2024-11-12T07:53:58Z</time>
      </trkpt>
      <trkpt lat="45.84708" lon="1.22162">
        <ele>292.6</ele>
        <time>2024-11-12T07:53:59Z</time>
      </trkpt>
      <trkpt lat="45.84709" lon="1.22162">
        <ele>292.7</ele>
        <time>2024-11-12T07:54:00Z</time>
      </trkpt>
      <trkpt lat="45.8471" lon="1.2216">
        <ele>292.8</ele>
        <time>2024-11-12T07:54:01Z</time>
      </trkpt>
      <trkpt lat="45.84711" lon="1.22159">
        <ele>293</ele>
        <time>2024-11-12T07:54:02Z</time>
      </trkpt>
      <trkpt lat="45.84712" lon="1.22158">
        <ele>293.1</ele>
        <time>2024-11-12T07:54:03Z</time>
      </trkpt>
      <trkpt lat="45.84712" lon="1.22158">
        <ele>293.2</ele>
        <time>2024-11-12T07:54:04Z</time>
      </trkpt>
      <trkpt lat="45.84713" lon="1.22157">
        <ele>293.3</ele>
        <time>2024-11-12T07:54:05Z</time>
      </trkpt>
      <trkpt lat="45.84715" lon="1.22155">
        <ele>293.4</ele>
        <time>2024-11-12T07:54:06Z</time>
      </trkpt>
      <trkpt lat="45.84716" lon="1.22154">
        <ele>293.5</ele>
        <time>2024-11-12T07:54:07Z</time>
      </trkpt>
      <trkpt lat="45.84716" lon="1.22154">
        <ele>293.6</ele>
        <time>2024-11-12T07:54:08Z</time>
      </trkpt>
      <trkpt lat="45.84716" lon="1.22153">
        <ele>293.6</ele>
        <time>2024-11-12T07:54:09Z</time>
      </trkpt>
      <trkpt lat="45.84717" lon="1.22153">
        <ele>293.6</ele>
        <time>2024-11-12T07:54:10Z</time>
      </trkpt>
      <trkpt lat="45.84718" lon="1.22152">
        <ele>293.7</ele>
        <time>2024-11-12T07:54:11Z</time>
      </trkpt>
      <trkpt lat="45.84719" lon="1.22152">
        <ele>293.7</ele>
        <time>2024-11-12T07:54:12Z</time>
      </trkpt>
      <trkpt lat="45.84721" lon="1.22153">
        <ele>293.8</ele>
        <time>2024-11-12T07:54:13Z</time>
      </trkpt>
      <trkpt lat="45.84722" lon="1.22153">
        <ele>293.9</ele>
        <time>2024-11-12T07:54:14Z</time>
      </trkpt>
      <trkpt lat="45.84723" lon="1.22153">
        <ele>293.9</ele>
        <time>2024-11-12T07:54:15Z</time>
      </trkpt>
      <trkpt lat="45.84724" lon="1.22155">
        <ele>293.9</ele>
        <time>2024-11-12T07:54:16Z</time>
      </trkpt>
      <trkpt lat="45.84725" lon="1.22156">
        <ele>294</ele>
        <time>2024-11-12T07:54:17Z</time>
      </trkpt>
      <trkpt lat="45.84726" lon="1.22157">
        <ele>294</ele>
        <time>2024-11-12T07:54:18Z</time>
      </trkpt>
      <trkpt lat="45.84727" lon="1.22159">
        <ele>294</ele>
        <time>2024-11-12T07:54:19Z</time>
      </trkpt>
      <trkpt lat="45.84728" lon="1.2216">
        <ele>294</ele>
        <time>2024-11-12T07:54:20Z</time>
      </trkpt>
      <trkpt lat="45.84728" lon="1.22161">
        <ele>294</ele>
        <time>2024-11-12T07:54:21Z</time>
      </trkpt>
      <trkpt lat="45.8473" lon="1.22163">
        <ele>294.1</ele>
        <time>2024-11-12T07:54:22Z</time>
      </trkpt>
      <trkpt lat="45.84731" lon="1.22164">
        <ele>294.1</ele>
        <time>2024-11-12T07:54:23Z</time>
      </trkpt>
      <trkpt lat="45.84731" lon="1.22164">
        <ele>294.1</ele>
        <time>2024-11-12T07:54:24Z</time>
      </trkpt>
      <trkpt lat="45.84732" lon="1.22165">
        <ele>294.1</ele>
        <time>2024-11-12T07:54:25Z</time>
      </trkpt>
      <trkpt lat="45.84733" lon="1.22166">
        <ele>294.1</ele>
        <time>2024-11-12T07:54:26Z</time>
      </trkpt>
      <trkpt lat="45.84734" lon="1.22166">
        <ele>294.1</ele>
        <time>2024-11-12T07:54:27Z</time>
      </trkpt>
      <trkpt lat="45.84735" lon="1.22167">
        <ele>294.1</ele>
        <time>2024-11-12T07:54:28Z</time>
      </trkpt>
      <trkpt lat="45.84736" lon="1.22169">
        <ele>294.1</ele>
        <time>2024-11-12T07:54:29Z</time>
      </trkpt>
      <trkpt lat="45.84737" lon="1.22169">
        <ele>294.1</ele>
        <time>2024-11-12T07:54:30Z</time>
      </trkpt>
      <trkpt lat="45.84739" lon="1.2217">
        <ele>294</ele>
        <time>2024-11-12T07:54:31Z</time>
      </trkpt>
      <trkpt lat="45.84739" lon="1.2217">
        <ele>294</ele>
        <time>2024-11-12T07:54:32Z</time>
      </trkpt>
      <trkpt lat="45.8474" lon="1.2217">
        <ele>294</ele>
        <time>2024-11-12T07:54:33Z</time>
      </trkpt>
      <trkpt lat="45.84741" lon="1.22171">
        <ele>294</ele>
        <time>2024-11-12T07:54:34Z</time>
      </trkpt>
      <trkpt lat="45.84742" lon="1.22172">
        <ele>294</ele>
        <time>2024-11-12T07:54:35Z</time>
      </trkpt>
      <trkpt lat="45.84743" lon="1.22173">
        <ele>293.9</ele>
        <time>2024-11-12T07:54:36Z</time>
      </trkpt>
      <trkpt lat="45.84744" lon="1.22173">
        <ele>293.9</ele>
        <time>2024-11-12T07:54:37Z</time>
      </trkpt>
      <trkpt lat="45.84746" lon="1.22174">
        <ele>293.8</ele>
        <time>2024-11-12T07:54:38Z</time>
      </trkpt>
      <trkpt lat="45.84748" lon="1.22175">
        <ele>293.8</ele>
        <time>2024-11-12T07:54:39Z</time>
      </trkpt>
      <trkpt lat="45.84749" lon="1.22175">
        <ele>293.7</ele>
        <time>2024-11-12T07:54:40Z</time>
      </trkpt>
      <trkpt lat="45.84749" lon="1.22175">
        <ele>293.7</ele>
        <time>2024-11-12T07:54:41Z</time>
      </trkpt>
      <trkpt lat="45.84751" lon="1.22176">
        <ele>293.7</ele>
        <time>2024-11-12T07:54:42Z</time>
      </trkpt>
      <trkpt lat="45.84752" lon="1.22176">
        <ele>293.6</ele>
        <time>2024-11-12T07:54:43Z</time>
      </trkpt>
      <trkpt lat="45.84754" lon="1.22176">
        <ele>293.6</ele>
        <time>2024-11-12T07:54:44Z</time>
      </trkpt>
      <trkpt lat="45.84755" lon="1.22176">
        <ele>293.5</ele>
        <time>2024-11-12T07:54:45Z</time>
      </trkpt>
      <trkpt lat="45.84757" lon="1.22176">
        <ele>293.5</ele>
        <time>2024-11-12T07:54:46Z</time>
      </trkpt>
      <trkpt lat="45.84758" lon="1.22175">
        <ele>293.5</ele>
        <time>2024-11-12T07:54:47Z</time>
      </trkpt>
      <trkpt lat="45.84759" lon="1.22175">
        <ele>293.4</ele>
        <time>2024-11-12T07:54:48Z</time>
      </trkpt>
      <trkpt lat="45.8476" lon="1.22174">
        <ele>293.4</ele>
        <time>2024-11-12T07:54:49Z</time>
      </trkpt>
      <trkpt lat="45.84761" lon="1.22173">
        <ele>293.4</ele>
        <time>2024-11-12T07:54:50Z</time>
      </trkpt>
      <trkpt lat="45.84763" lon="1.22172">
        <ele>293.4</ele>
        <time>2024-11-12T07:54:51Z</time>
      </trkpt>
      <trkpt lat="45.84764" lon="1.22171">
        <ele>293.4</ele>
        <time>2024-11-12T07:54:52Z</time>
      </trkpt>
      <trkpt lat="45.84765" lon="1.2217">
        <ele>293.3</ele>
        <time>2024-11-12T07:54:53Z</time>
      </trkpt>
      <trkpt lat="45.84766" lon="1.22169">
        <ele>293.3</ele>
        <time>2024-11-12T07:54:54Z</time>
      </trkpt>
      <trkpt lat="45.84767" lon="1.22168">
        <ele>293.3</ele>
        <time>2024-11-12T07:54:55Z</time>
      </trkpt>
      <trkpt lat="45.84768" lon="1.22168">
        <ele>293.3</ele>
        <time>2024-11-12T07:54:56Z</time>
      </trkpt>
      <trkpt lat="45.84769" lon="1.22167">
        <ele>293.3</ele>
        <time>2024-11-12T07:54:57Z</time>
      </trkpt>
      <trkpt lat="45.84769" lon="1.22166">
        <ele>293.3</ele>
        <time>2024-11-12T07:54:58Z</time>
      </trkpt>
      <trkpt lat="45.84769" lon="1.22169">
        <ele>293.2</ele>
        <time>2024-11-12T07:54:59Z</time>
      </trkpt>
      <trkpt lat="45.84768" lon="1.2217">
        <ele>293.2</ele>
        <time>2024-11-12T07:55:00Z</time>
      </trkpt>
      <trkpt lat="45.84768" lon="1.2217">
        <ele>293.2</ele>
        <time>2024-11-12T07:55:01Z</time>
      </trkpt>
      <trkpt lat="45.84768" lon="1.2217">
        <ele>293.2</ele>
        <time>2024-11-12T07:55:02Z</time>
      </trkpt>
      <trkpt lat="45.8477" lon="1.22169">
        <ele>293.2</ele>
        <time>2024-11-12T07:55:03Z</time>
      </trkpt>
      <trkpt lat="45.84771" lon="1.22168">
        <ele>293.2</ele>
        <time>2024-11-12T07:55:04Z</time>
      </trkpt>
      <trkpt lat="45.84772" lon="1.22167">
        <ele>293.1</ele>
        <time>2024-11-12T07:55:05Z</time>
      </trkpt>
      <trkpt lat="45.84775" lon="1.22166">
        <ele>293.1</ele>
        <time>2024-11-12T07:55:06Z</time>
      </trkpt>
      <trkpt lat="45.84777" lon="1.22165">
        <ele>293</ele>
        <time>2024-11-12T07:55:07Z</time>
      </trkpt>
      <trkpt lat="45.84778" lon="1.22165">
        <ele>293</ele>
        <time>2024-11-12T07:55:08Z</time>
      </trkpt>
      <trkpt lat="45.84781" lon="1.22165">
        <ele>292.9</ele>
        <time>2024-11-12T07:55:09Z</time>
      </trkpt>
      <trkpt lat="45.84781" lon="1.22164">
        <ele>292.9</ele>
        <time>2024-11-12T07:55:10Z</time>
      </trkpt>
      <trkpt lat="45.84783" lon="1.22164">
        <ele>292.9</ele>
        <time>2024-11-12T07:55:11Z</time>
      </trkpt>
      <trkpt lat="45.84784" lon="1.22164">
        <ele>292.8</ele>
        <time>2024-11-12T07:55:12Z</time>
      </trkpt>
      <trkpt lat="45.84786" lon="1.22163">
        <ele>292.8</ele>
        <time>2024-11-12T07:55:13Z</time>
      </trkpt>
      <trkpt lat="45.84788" lon="1.22162">
        <ele>292.8</ele>
        <time>2024-11-12T07:55:14Z</time>
      </trkpt>
      <trkpt lat="45.84788" lon="1.22162">
        <ele>292.7</ele>
        <time>2024-11-12T07:55:15Z</time>
      </trkpt>
      <trkpt lat="45.8479" lon="1.22162">
        <ele>292.7</ele>
        <time>2024-11-12T07:55:16Z</time>
      </trkpt>
      <trkpt lat="45.8479" lon="1.22162">
        <ele>292.7</ele>
        <time>2024-11-12T07:55:17Z</time>
      </trkpt>
      <trkpt lat="45.84792" lon="1.22162">
        <ele>292.7</ele>
        <time>2024-11-12T07:55:18Z</time>
      </trkpt>
      <trkpt lat="45.84793" lon="1.22163">
        <ele>292.7</ele>
        <time>2024-11-12T07:55:19Z</time>
      </trkpt>
      <trkpt lat="45.84795" lon="1.22163">
        <ele>292.6</ele>
        <time>2024-11-12T07:55:20Z</time>
      </trkpt>
      <trkpt lat="45.84795" lon="1.22163">
        <ele>292.6</ele>
        <time>2024-11-12T07:55:21Z</time>
      </trkpt>
      <trkpt lat="45.84796" lon="1.22163">
        <ele>292.6</ele>
        <time>2024-11-12T07:55:22Z</time>
      </trkpt>
      <trkpt lat="45.84797" lon="1.22163">
        <ele>292.6</ele>
        <time>2024-11-12T07:55:23Z</time>
      </trkpt>
      <trkpt lat="45.84797" lon="1.22163">
        <ele>292.6</ele>
        <time>2024-11-12T07:55:24Z</time>
      </trkpt>
      <trkpt lat="45.84798" lon="1.22164">
        <ele>292.6</ele>
        <time>2024-11-12T07:55:25Z</time>
      </trkpt>
      <trkpt lat="45.84799" lon="1.22165">
        <ele>292.6</ele>
        <time>2024-11-12T07:55:26Z</time>
      </trkpt>
      <trkpt lat="45.848" lon="1.22165">
        <ele>292.6</ele>
        <time>2024-11-12T07:55:27Z</time>
      </trkpt>
      <trkpt lat="45.84803" lon="1.22167">
        <ele>292.6</ele>
        <time>2024-11-12T07:55:28Z</time>
      </trkpt>
      <trkpt lat="45.84804" lon="1.22167">
        <ele>292.6</ele>
        <time>2024-11-12T07:55:29Z</time>
      </trkpt>
      <trkpt lat="45.84806" lon="1.22168">
        <ele>292.6</ele>
        <time>2024-11-12T07:55:30Z</time>
      </trkpt>
      <trkpt lat="45.84807" lon="1.22169">
        <ele>292.6</ele>
        <time>2024-11-12T07:55:31Z</time>
      </trkpt>
      <trkpt lat="45.84807" lon="1.22169">
        <ele>292.6</ele>
        <time>2024-11-12T07:55:32Z</time>
      </trkpt>
      <trkpt lat="45.8481" lon="1.22172">
        <ele>292.6</ele>
        <time>2024-11-12T07:55:33Z</time>
      </trkpt>
      <trkpt lat="45.84811" lon="1.22173">
        <ele>292.6</ele>
        <time>2024-11-12T07:55:34Z</time>
      </trkpt>
      <trkpt lat="45.84812" lon="1.22174">
        <ele>292.7</ele>
        <time>2024-11-12T07:55:35Z</time>
      </trkpt>
      <trkpt lat="45.84813" lon="1.22175">
        <ele>292.7</ele>
        <time>2024-11-12T07:55:36Z</time>
      </trkpt>
      <trkpt lat="45.84814" lon="1.22176">
        <ele>292.7</ele>
        <time>2024-11-12T07:55:37Z</time>
      </trkpt>
      <trkpt lat="45.84816" lon="1.22178">
        <ele>292.7</ele>
        <time>2024-11-12T07:55:38Z</time>
      </trkpt>
      <trkpt lat="45.84817" lon="1.22178">
        <ele>292.7</ele>
        <time>2024-11-12T07:55:39Z</time>
      </trkpt>
      <trkpt lat="45.84818" lon="1.22179">
        <ele>292.8</ele>
        <time>2024-11-12T07:55:40Z</time>
      </trkpt>
      <trkpt lat="45.84819" lon="1.22179">
        <ele>292.8</ele>
        <time>2024-11-12T07:55:41Z</time>
      </trkpt>
      <trkpt lat="45.8482" lon="1.2218">
        <ele>292.8</ele>
        <time>2024-11-12T07:55:42Z</time>
      </trkpt>
      <trkpt lat="45.84821" lon="1.22182">
        <ele>292.8</ele>
        <time>2024-11-12T07:55:43Z</time>
      </trkpt>
      <trkpt lat="45.84821" lon="1.22183">
        <ele>292.9</ele>
        <time>2024-11-12T07:55:44Z</time>
      </trkpt>
      <trkpt lat="45.84822" lon="1.22185">
        <ele>292.9</ele>
        <time>2024-11-12T07:55:45Z</time>
      </trkpt>
      <trkpt lat="45.84822" lon="1.22187">
        <ele>292.9</ele>
        <time>2024-11-12T07:55:46Z</time>
      </trkpt>
      <trkpt lat="45.84823" lon="1.22187">
        <ele>292.9</ele>
        <time>2024-11-12T07:55:47Z</time>
      </trkpt>
      <trkpt lat="45.84823" lon="1.22188">
        <ele>292.9</ele>
        <time>2024-11-12T07:55:48Z</time>
      </trkpt>
      <trkpt lat="45.84824" lon="1.22188">
        <ele>292.9</ele>
        <time>2024-11-12T07:55:49Z</time>
      </trkpt>
      <trkpt lat="45.84824" lon="1.22189">
        <ele>293</ele>
        <time>2024-11-12T07:55:50Z</time>
      </trkpt>
      <trkpt lat="45.84825" lon="1.22189">
        <ele>293</ele>
        <time>2024-11-12T07:55:51Z</time>
      </trkpt>
      <trkpt lat="45.84825" lon="1.22189">
        <ele>293</ele>
        <time>2024-11-12T07:55:52Z</time>
      </trkpt>
      <trkpt lat="45.84826" lon="1.2219">
        <ele>293</ele>
        <time>2024-11-12T07:55:53Z</time>
      </trkpt>
      <trkpt lat="45.84827" lon="1.2219">
        <ele>293</ele>
        <time>2024-11-12T07:55:54Z</time>
      </trkpt>
      <trkpt lat="45.84827" lon="1.2219">
        <ele>293</ele>
        <time>2024-11-12T07:55:55Z</time>
      </trkpt>
      <trkpt lat="45.84828" lon="1.22191">
        <ele>293</ele>
        <time>2024-11-12T07:55:56Z</time>
      </trkpt>
      <trkpt lat="45.8483" lon="1.22192">
        <ele>293.1</ele>
        <time>2024-11-12T07:55:57Z</time>
      </trkpt>
      <trkpt lat="45.84831" lon="1.22192">
        <ele>293.1</ele>
        <time>2024-11-12T07:55:58Z</time>
      </trkpt>
      <trkpt lat="45.84831" lon="1.22192">
        <ele>293.1</ele>
        <time>2024-11-12T07:55:59Z</time>
      </trkpt>
      <trkpt lat="45.84832" lon="1.22194">
        <ele>293.1</ele>
        <time>2024-11-12T07:56:00Z</time>
      </trkpt>
      <trkpt lat="45.84833" lon="1.22193">
        <ele>293.2</ele>
        <time>2024-11-12T07:56:01Z</time>
      </trkpt>
      <trkpt lat="45.84833" lon="1.22192">
        <ele>293.2</ele>
        <time>2024-11-12T07:56:02Z</time>
      </trkpt>
      <trkpt lat="45.84833" lon="1.2219">
        <ele>293.2</ele>
        <time>2024-11-12T07:56:03Z</time>
      </trkpt>
      <trkpt lat="45.84833" lon="1.22191">
        <ele>293.2</ele>
        <time>2024-11-12T07:56:04Z</time>
      </trkpt>
      <trkpt lat="45.84833" lon="1.2219">
        <ele>293.3</ele>
        <time>2024-11-12T07:56:05Z</time>
      </trkpt>
      <trkpt lat="45.84833" lon="1.2219">
        <ele>293.3</ele>
        <time>2024-11-12T07:56:06Z</time>
      </trkpt>
      <trkpt lat="45.84833" lon="1.2219">
        <ele>293.3</ele>
        <time>2024-11-12T07:56:07Z</time>
      </trkpt>
      <trkpt lat="45.84833" lon="1.2219">
        <ele>293.3</ele>
        <time>2024-11-12T07:56:08Z</time>
      </trkpt>
      <trkpt lat="45.84832" lon="1.22189">
        <ele>293.3</ele>
        <time>2024-11-12T07:56:09Z</time>
      </trkpt>
      <trkpt lat="45.84832" lon="1.22188">
        <ele>293.3</ele>
        <time>2024-11-12T07:56:10Z</time>
      </trkpt>
      <trkpt lat="45.84832" lon="1.22187">
        <ele>293.4</ele>
        <time>2024-11-12T07:56:11Z</time>
      </trkpt>
      <trkpt lat="45.84832" lon="1.22186">
        <ele>293.4</ele>
        <time>2024-11-12T07:56:12Z</time>
      </trkpt>
      <trkpt lat="45.84832" lon="1.22185">
        <ele>293.4</ele>
        <time>2024-11-12T07:56:13Z</time>
      </trkpt>
      <trkpt lat="45.84832" lon="1.22184">
        <ele>293.4</ele>
        <time>2024-11-12T07:56:14Z</time>
      </trkpt>
      <trkpt lat="45.84832" lon="1.22183">
        <ele>293.5</ele>
        <time>2024-11-12T07:56:15Z</time>
      </trkpt>
      <trkpt lat="45.84831" lon="1.22179">
        <ele>293.6</ele>
        <time>2024-11-12T07:56:16Z</time>
      </trkpt>
      <trkpt lat="45.8483" lon="1.22178">
        <ele>293.6</ele>
        <time>2024-11-12T07:56:17Z</time>
      </trkpt>
      <trkpt lat="45.84829" lon="1.22174">
        <ele>293.7</ele>
        <time>2024-11-12T07:56:18Z</time>
      </trkpt>
      <trkpt lat="45.84829" lon="1.22173">
        <ele>293.7</ele>
        <time>2024-11-12T07:56:19Z</time>
      </trkpt>
      <trkpt lat="45.84827" lon="1.2217">
        <ele>293.8</ele>
        <time>2024-11-12T07:56:20Z</time>
      </trkpt>
      <trkpt lat="45.84827" lon="1.22169">
        <ele>293.8</ele>
        <time>2024-11-12T07:56:21Z</time>
      </trkpt>
      <trkpt lat="45.84826" lon="1.22166">
        <ele>293.9</ele>
        <time>2024-11-12T07:56:22Z</time>
      </trkpt>
      <trkpt lat="45.84826" lon="1.22164">
        <ele>293.9</ele>
        <time>2024-11-12T07:56:23Z</time>
      </trkpt>
      <trkpt lat="45.84826" lon="1.22161">
        <ele>294</ele>
        <time>2024-11-12T07:56:24Z</time>
      </trkpt>
      <trkpt lat="45.84826" lon="1.22159">
        <ele>294</ele>
        <time>2024-11-12T07:56:25Z</time>
      </trkpt>
      <trkpt lat="45.84827" lon="1.22157">
        <ele>294.1</ele>
        <time>2024-11-12T07:56:26Z</time>
      </trkpt>
      <trkpt lat="45.84827" lon="1.22154">
        <ele>294.1</ele>
        <time>2024-11-12T07:56:27Z</time>
      </trkpt>
      <trkpt lat="45.84828" lon="1.22152">
        <ele>294.2</ele>
        <time>2024-11-12T07:56:28Z</time>
      </trkpt>
      <trkpt lat="45.84829" lon="1.2215">
        <ele>294.2</ele>
        <time>2024-11-12T07:56:29Z</time>
      </trkpt>
      <trkpt lat="45.8483" lon="1.22149">
        <ele>294.3</ele>
        <time>2024-11-12T07:56:30Z</time>
      </trkpt>
      <trkpt lat="45.8483" lon="1.22147">
        <ele>294.3</ele>
        <time>2024-11-12T07:56:31Z</time>
      </trkpt>
      <trkpt lat="45.84831" lon="1.22145">
        <ele>294.4</ele>
        <time>2024-11-12T07:56:32Z</time>
      </trkpt>
      <trkpt lat="45.84832" lon="1.22144">
        <ele>294.5</ele>
        <time>2024-11-12T07:56:33Z</time>
      </trkpt>
      <trkpt lat="45.84833" lon="1.22143">
        <ele>294.5</ele>
        <time>2024-11-12T07:56:34Z</time>
      </trkpt>
      <trkpt lat="45.84834" lon="1.22141">
        <ele>294.6</ele>
        <time>2024-11-12T07:56:35Z</time>
      </trkpt>
      <trkpt lat="45.84836" lon="1.22139">
        <ele>294.7</ele>
        <time>2024-11-12T07:56:36Z</time>
      </trkpt>
      <trkpt lat="45.84837" lon="1.22138">
        <ele>294.8</ele>
        <time>2024-11-12T07:56:37Z</time>
      </trkpt>
      <trkpt lat="45.84837" lon="1.22138">
        <ele>294.8</ele>
        <time>2024-11-12T07:56:38Z</time>
      </trkpt>
      <trkpt lat="45.84839" lon="1.22138">
        <ele>294.9</ele>
        <time>2024-11-12T07:56:39Z</time>
      </trkpt>
      <trkpt lat="45.84839" lon="1.22139">
        <ele>295</ele>
        <time>2024-11-12T07:56:40Z</time>
      </trkpt>
      <trkpt lat="45.84838" lon="1.2214">
        <ele>295</ele>
        <time>2024-11-12T07:56:41Z</time>
      </trkpt>
      <trkpt lat="45.84837" lon="1.22141">
        <ele>295.1</ele>
        <time>2024-11-12T07:56:42Z</time>
      </trkpt>
      <trkpt lat="45.84837" lon="1.22141">
        <ele>295.2</ele>
        <time>2024-11-12T07:56:43Z</time>
      </trkpt>
      <trkpt lat="45.84837" lon="1.22141">
        <ele>295.2</ele>
        <time>2024-11-12T07:56:44Z</time>
      </trkpt>
      <trkpt lat="45.84837" lon="1.22141">
        <ele>295.2</ele>
        <time>2024-11-12T07:56:45Z</time>
      </trkpt>
      <trkpt lat="45.84837" lon="1.22141">
        <ele>295.2</ele>
        <time>2024-11-12T07:56:46Z</time>
      </trkpt>
      <trkpt lat="45.84838" lon="1.22141">
        <ele>295.2</ele>
        <time>2024-11-12T07:56:47Z</time>
      </trkpt>
      <trkpt lat="45.84838" lon="1.22141">
        <ele>295.3</ele>
        <time>2024-11-12T07:56:48Z</time>
      </trkpt>
      <trkpt lat="45.84839" lon="1.2214">
        <ele>295.3</ele>
        <time>2024-11-12T07:56:49Z</time>
      </trkpt>
      <trkpt lat="45.8484" lon="1.22139">
        <ele>295.4</ele>
        <time>2024-11-12T07:56:50Z</time>
      </trkpt>
      <trkpt lat="45.8484" lon="1.22139">
        <ele>295.4</ele>
        <time>2024-11-12T07:56:51Z</time>
      </trkpt>
      <trkpt lat="45.8484" lon="1.22139">
        <ele>295.5</ele>
        <time>2024-11-12T07:56:52Z</time>
      </trkpt>
      <trkpt lat="45.84841" lon="1.22136">
        <ele>295.6</ele>
        <time>2024-11-12T07:56:53Z</time>
      </trkpt>
      <trkpt lat="45.84841" lon="1.22133">
        <ele>295.8</ele>
        <time>2024-11-12T07:56:54Z</time>
      </trkpt>
      <trkpt lat="45.84842" lon="1.22131">
        <ele>295.9</ele>
        <time>2024-11-12T07:56:55Z</time>
      </trkpt>
      <trkpt lat="45.84842" lon="1.22129">
        <ele>296</ele>
        <time>2024-11-12T07:56:56Z</time>
      </trkpt>
      <trkpt lat="45.84842" lon="1.22126">
        <ele>296.2</ele>
        <time>2024-11-12T07:56:57Z</time>
      </trkpt>
      <trkpt lat="45.84843" lon="1.22123">
        <ele>296.4</ele>
        <time>2024-11-12T07:56:58Z</time>
      </trkpt>
      <trkpt lat="45.84843" lon="1.22122">
        <ele>296.5</ele>
        <time>2024-11-12T07:56:59Z</time>
      </trkpt>
      <trkpt lat="45.84843" lon="1.22121">
        <ele>296.6</ele>
        <time>2024-11-12T07:57:00Z</time>
      </trkpt>
      <trkpt lat="45.84845" lon="1.22118">
        <ele>296.8</ele>
        <time>2024-11-12T07:57:01Z</time>
      </trkpt>
      <trkpt lat="45.84845" lon="1.22117">
        <ele>296.9</ele>
        <time>2024-11-12T07:57:02Z</time>
      </trkpt>
      <trkpt lat="45.84846" lon="1.22116">
        <ele>297</ele>
        <time>2024-11-12T07:57:03Z</time>
      </trkpt>
      <trkpt lat="45.84847" lon="1.22112">
        <ele>297.2</ele>
        <time>2024-11-12T07:57:04Z</time>
      </trkpt>
      <trkpt lat="45.84848" lon="1.22111">
        <ele>297.3</ele>
        <time>2024-11-12T07:57:05Z</time>
      </trkpt>
      <trkpt lat="45.84848" lon="1.22108">
        <ele>297.5</ele>
        <time>2024-11-12T07:57:06Z</time>
      </trkpt>
      <trkpt lat="45.84849" lon="1.22107">
        <ele>297.6</ele>
        <time>2024-11-12T07:57:07Z</time>
      </trkpt>
      <trkpt lat="45.84849" lon="1.22106">
        <ele>297.7</ele>
        <time>2024-11-12T07:57:08Z</time>
      </trkpt>
      <trkpt lat="45.8485" lon="1.22102">
        <ele>297.9</ele>
        <time>2024-11-12T07:57:09Z</time>
      </trkpt>
      <trkpt lat="45.8485" lon="1.221">
        <ele>298.1</ele>
        <time>2024-11-12T07:57:10Z</time>
      </trkpt>
      <trkpt lat="45.84851" lon="1.22097">
        <ele>298.3</ele>
        <time>2024-11-12T07:57:11Z</time>
      </trkpt>
      <trkpt lat="45.84852" lon="1.22096">
        <ele>298.3</ele>
        <time>2024-11-12T07:57:12Z</time>
      </trkpt>
      <trkpt lat="45.84852" lon="1.22095">
        <ele>298.4</ele>
        <time>2024-11-12T07:57:13Z</time>
      </trkpt>
      <trkpt lat="45.84853" lon="1.22094">
        <ele>298.6</ele>
        <time>2024-11-12T07:57:14Z</time>
      </trkpt>
      <trkpt lat="45.84854" lon="1.22091">
        <ele>298.7</ele>
        <time>2024-11-12T07:57:15Z</time>
      </trkpt>
      <trkpt lat="45.84855" lon="1.22089">
        <ele>298.9</ele>
        <time>2024-11-12T07:57:16Z</time>
      </trkpt>
      <trkpt lat="45.84855" lon="1.22088">
        <ele>299</ele>
        <time>2024-11-12T07:57:17Z</time>
      </trkpt>
      <trkpt lat="45.84856" lon="1.22087">
        <ele>299.1</ele>
        <time>2024-11-12T07:57:18Z</time>
      </trkpt>
      <trkpt lat="45.84857" lon="1.22084">
        <ele>299.3</ele>
        <time>2024-11-12T07:57:19Z</time>
      </trkpt>
      <trkpt lat="45.84858" lon="1.22082">
        <ele>299.4</ele>
        <time>2024-11-12T07:57:20Z</time>
      </trkpt>
      <trkpt lat="45.84859" lon="1.22079">
        <ele>299.6</ele>
        <time>2024-11-12T07:57:21Z</time>
      </trkpt>
      <trkpt lat="45.84859" lon="1.22078">
        <ele>299.6</ele>
        <time>2024-11-12T07:57:22Z</time>
      </trkpt>
      <trkpt lat="45.8486" lon="1.22077">
        <ele>299.7</ele>
        <time>2024-11-12T07:57:23Z</time>
      </trkpt>
      <trkpt lat="45.84861" lon="1.22074">
        <ele>299.9</ele>
        <time>2024-11-12T07:57:24Z</time>
      </trkpt>
      <trkpt lat="45.84861" lon="1.22072">
        <ele>300.1</ele>
        <time>2024-11-12T07:57:25Z</time>
      </trkpt>
      <trkpt lat="45.84862" lon="1.22071">
        <ele>300.2</ele>
        <time>2024-11-12T07:57:26Z</time>
      </trkpt>
      <trkpt lat="45.84862" lon="1.22069">
        <ele>300.3</ele>
        <time>2024-11-12T07:57:27Z</time>
      </trkpt>
      <trkpt lat="45.84863" lon="1.22068">
        <ele>300.4</ele>
        <time>2024-11-12T07:57:28Z</time>
      </trkpt>
      <trkpt lat="45.84863" lon="1.22066">
        <ele>300.5</ele>
        <time>2024-11-12T07:57:29Z</time>
      </trkpt>
      <trkpt lat="45.84865" lon="1.22063">
        <ele>300.7</ele>
        <time>2024-11-12T07:57:30Z</time>
      </trkpt>
      <trkpt lat="45.84865" lon="1.22061">
        <ele>300.9</ele>
        <time>2024-11-12T07:57:31Z</time>
      </trkpt>
      <trkpt lat="45.84866" lon="1.2206">
        <ele>301</ele>
        <time>2024-11-12T07:57:32Z</time>
      </trkpt>
      <trkpt lat="45.84866" lon="1.22059">
        <ele>301</ele>
        <time>2024-11-12T07:57:33Z</time>
      </trkpt>
      <trkpt lat="45.84866" lon="1.22058">
        <ele>301.1</ele>
        <time>2024-11-12T07:57:34Z</time>
      </trkpt>
      <trkpt lat="45.84866" lon="1.22055">
        <ele>301.3</ele>
        <time>2024-11-12T07:57:35Z</time>
      </trkpt>
      <trkpt lat="45.84866" lon="1.22054">
        <ele>301.5</ele>
        <time>2024-11-12T07:57:36Z</time>
      </trkpt>
      <trkpt lat="45.84867" lon="1.22053">
        <ele>301.6</ele>
        <time>2024-11-12T07:57:37Z</time>
      </trkpt>
      <trkpt lat="45.84867" lon="1.22051">
        <ele>301.7</ele>
        <time>2024-11-12T07:57:38Z</time>
      </trkpt>
      <trkpt lat="45.84867" lon="1.2205">
        <ele>301.8</ele>
        <time>2024-11-12T07:57:39Z</time>
      </trkpt>
      <trkpt lat="45.84867" lon="1.22048">
        <ele>301.8</ele>
        <time>2024-11-12T07:57:40Z</time>
      </trkpt>
      <trkpt lat="45.84867" lon="1.22047">
        <ele>301.9</ele>
        <time>2024-11-12T07:57:41Z</time>
      </trkpt>
      <trkpt lat="45.84867" lon="1.22046">
        <ele>301.9</ele>
        <time>2024-11-12T07:57:42Z</time>
      </trkpt>
      <trkpt lat="45.84866" lon="1.22047">
        <ele>302</ele>
        <time>2024-11-12T07:57:43Z</time>
      </trkpt>
      <trkpt lat="45.84865" lon="1.22046">
        <ele>302.1</ele>
        <time>2024-11-12T07:57:44Z</time>
      </trkpt>
      <trkpt lat="45.84864" lon="1.22045">
        <ele>302.2</ele>
        <time>2024-11-12T07:57:45Z</time>
      </trkpt>
      <trkpt lat="45.84863" lon="1.22044">
        <ele>302.3</ele>
        <time>2024-11-12T07:57:46Z</time>
      </trkpt>
      <trkpt lat="45.84862" lon="1.22043">
        <ele>302.3</ele>
        <time>2024-11-12T07:57:47Z</time>
      </trkpt>
      <trkpt lat="45.84861" lon="1.22043">
        <ele>302.4</ele>
        <time>2024-11-12T07:57:48Z</time>
      </trkpt>
      <trkpt lat="45.8486" lon="1.22042">
        <ele>302.5</ele>
        <time>2024-11-12T07:57:49Z</time>
      </trkpt>
      <trkpt lat="45.84859" lon="1.2204">
        <ele>302.7</ele>
        <time>2024-11-12T07:57:50Z</time>
      </trkpt>
      <trkpt lat="45.84858" lon="1.22039">
        <ele>302.8</ele>
        <time>2024-11-12T07:57:51Z</time>
      </trkpt>
      <trkpt lat="45.84857" lon="1.22038">
        <ele>302.9</ele>
        <time>2024-11-12T07:57:52Z</time>
      </trkpt>
      <trkpt lat="45.84856" lon="1.22036">
        <ele>303</ele>
        <time>2024-11-12T07:57:53Z</time>
      </trkpt>
      <trkpt lat="45.84855" lon="1.22035">
        <ele>303.1</ele>
        <time>2024-11-12T07:57:54Z</time>
      </trkpt>
      <trkpt lat="45.84855" lon="1.22034">
        <ele>303.2</ele>
        <time>2024-11-12T07:57:55Z</time>
      </trkpt>
      <trkpt lat="45.84855" lon="1.22033">
        <ele>303.2</ele>
        <time>2024-11-12T07:57:56Z</time>
      </trkpt>
      <trkpt lat="45.84854" lon="1.22031">
        <ele>303.3</ele>
        <time>2024-11-12T07:57:57Z</time>
      </trkpt>
      <trkpt lat="45.84853" lon="1.22028">
        <ele>303.5</ele>
        <time>2024-11-12T07:57:58Z</time>
      </trkpt>
      <trkpt lat="45.84853" lon="1.22027">
        <ele>303.6</ele>
        <time>2024-11-12T07:57:59Z</time>
      </trkpt>
      <trkpt lat="45.84853" lon="1.22026">
        <ele>303.7</ele>
        <time>2024-11-12T07:58:00Z</time>
      </trkpt>
      <trkpt lat="45.84852" lon="1.22023">
        <ele>303.9</ele>
        <time>2024-11-12T07:58:01Z</time>
      </trkpt>
      <trkpt lat="45.84852" lon="1.22022">
        <ele>304</ele>
        <time>2024-11-12T07:58:02Z</time>
      </trkpt>
      <trkpt lat="45.84851" lon="1.22019">
        <ele>304.2</ele>
        <time>2024-11-12T07:58:03Z</time>
      </trkpt>
      <trkpt lat="45.84851" lon="1.22017">
        <ele>304.4</ele>
        <time>2024-11-12T07:58:04Z</time>
      </trkpt>
      <trkpt lat="45.84851" lon="1.22015">
        <ele>304.5</ele>
        <time>2024-11-12T07:58:05Z</time>
      </trkpt>
      <trkpt lat="45.84851" lon="1.22014">
        <ele>304.6</ele>
        <time>2024-11-12T07:58:06Z</time>
      </trkpt>
      <trkpt lat="45.8485" lon="1.22012">
        <ele>304.7</ele>
        <time>2024-11-12T07:58:07Z</time>
      </trkpt>
      <trkpt lat="45.8485" lon="1.22011">
        <ele>304.9</ele>
        <time>2024-11-12T07:58:08Z</time>
      </trkpt>
      <trkpt lat="45.8485" lon="1.2201">
        <ele>305</ele>
        <time>2024-11-12T07:58:09Z</time>
      </trkpt>
      <trkpt lat="45.8485" lon="1.22007">
        <ele>305.2</ele>
        <time>2024-11-12T07:58:10Z</time>
      </trkpt>
      <trkpt lat="45.8485" lon="1.22006">
        <ele>305.3</ele>
        <time>2024-11-12T07:58:11Z</time>
      </trkpt>
      <trkpt lat="45.84849" lon="1.22004">
        <ele>305.4</ele>
        <time>2024-11-12T07:58:12Z</time>
      </trkpt>
      <trkpt lat="45.84849" lon="1.22003">
        <ele>305.5</ele>
        <time>2024-11-12T07:58:13Z</time>
      </trkpt>
      <trkpt lat="45.84849" lon="1.22002">
        <ele>305.7</ele>
        <time>2024-11-12T07:58:14Z</time>
      </trkpt>
      <trkpt lat="45.84849" lon="1.22">
        <ele>305.9</ele>
        <time>2024-11-12T07:58:15Z</time>
      </trkpt>
      <trkpt lat="45.84848" lon="1.21999">
        <ele>306</ele>
        <time>2024-11-12T07:58:16Z</time>
      </trkpt>
      <trkpt lat="45.84848" lon="1.21997">
        <ele>306.2</ele>
        <time>2024-11-12T07:58:17Z</time>
      </trkpt>
      <trkpt lat="45.84848" lon="1.21994">
        <ele>306.5</ele>
        <time>2024-11-12T07:58:18Z</time>
      </trkpt>
      <trkpt lat="45.84848" lon="1.21993">
        <ele>306.6</ele>
        <time>2024-11-12T07:58:19Z</time>
      </trkpt>
      <trkpt lat="45.84848" lon="1.21992">
        <ele>306.7</ele>
        <time>2024-11-12T07:58:20Z</time>
      </trkpt>
      <trkpt lat="45.84848" lon="1.21991">
        <ele>306.8</ele>
        <time>2024-11-12T07:58:21Z</time>
      </trkpt>
      <trkpt lat="45.84848" lon="1.21989">
        <ele>307</ele>
        <time>2024-11-12T07:58:22Z</time>
      </trkpt>
      <trkpt lat="45.84848" lon="1.21987">
        <ele>307.2</ele>
        <time>2024-11-12T07:58:23Z</time>
      </trkpt>
      <trkpt lat="45.84848" lon="1.21985">
        <ele>307.4</ele>
        <time>2024-11-12T07:58:24Z</time>
      </trkpt>
      <trkpt lat="45.84848" lon="1.21983">
        <ele>307.6</ele>
        <time>2024-11-12T07:58:25Z</time>
      </trkpt>
      <trkpt lat="45.84848" lon="1.21982">
        <ele>307.8</ele>
        <time>2024-11-12T07:58:26Z</time>
      </trkpt>
      <trkpt lat="45.84848" lon="1.2198">
        <ele>308</ele>
        <time>2024-11-12T07:58:27Z</time>
      </trkpt>
      <trkpt lat="45.84848" lon="1.21978">
        <ele>308.2</ele>
        <time>2024-11-12T07:58:28Z</time>
      </trkpt>
      <trkpt lat="45.84849" lon="1.21977">
        <ele>308.3</ele>
        <time>2024-11-12T07:58:29Z</time>
      </trkpt>
      <trkpt lat="45.84849" lon="1.21975">
        <ele>308.5</ele>
        <time>2024-11-12T07:58:30Z</time>
      </trkpt>
      <trkpt lat="45.84849" lon="1.21974">
        <ele>308.6</ele>
        <time>2024-11-12T07:58:31Z</time>
      </trkpt>
      <trkpt lat="45.84849" lon="1.21972">
        <ele>308.8</ele>
        <time>2024-11-12T07:58:32Z</time>
      </trkpt>
      <trkpt lat="45.84849" lon="1.2197">
        <ele>308.9</ele>
        <time>2024-11-12T07:58:33Z</time>
      </trkpt>
      <trkpt lat="45.8485" lon="1.21969">
        <ele>309.1</ele>
        <time>2024-11-12T07:58:34Z</time>
      </trkpt>
      <trkpt lat="45.84849" lon="1.21966">
        <ele>309.3</ele>
        <time>2024-11-12T07:58:35Z</time>
      </trkpt>
      <trkpt lat="45.84849" lon="1.21965">
        <ele>309.5</ele>
        <time>2024-11-12T07:58:36Z</time>
      </trkpt>
      <trkpt lat="45.84849" lon="1.21963">
        <ele>309.6</ele>
        <time>2024-11-12T07:58:37Z</time>
      </trkpt>
      <trkpt lat="45.8485" lon="1.21962">
        <ele>309.8</ele>
        <time>2024-11-12T07:58:38Z</time>
      </trkpt>
      <trkpt lat="45.8485" lon="1.2196">
        <ele>310</ele>
        <time>2024-11-12T07:58:39Z</time>
      </trkpt>
      <trkpt lat="45.8485" lon="1.21958">
        <ele>310.2</ele>
        <time>2024-11-12T07:58:40Z</time>
      </trkpt>
      <trkpt lat="45.8485" lon="1.21957">
        <ele>310.4</ele>
        <time>2024-11-12T07:58:41Z</time>
      </trkpt>
      <trkpt lat="45.8485" lon="1.21955">
        <ele>310.6</ele>
        <time>2024-11-12T07:58:42Z</time>
      </trkpt>
      <trkpt lat="45.8485" lon="1.21952">
        <ele>310.9</ele>
        <time>2024-11-12T07:58:43Z</time>
      </trkpt>
      <trkpt lat="45.8485" lon="1.21951">
        <ele>311</ele>
        <time>2024-11-12T07:58:44Z</time>
      </trkpt>
      <trkpt lat="45.84849" lon="1.2195">
        <ele>311.2</ele>
        <time>2024-11-12T07:58:45Z</time>
      </trkpt>
      <trkpt lat="45.84849" lon="1.21949">
        <ele>311.3</ele>
        <time>2024-11-12T07:58:46Z</time>
      </trkpt>
      <trkpt lat="45.8485" lon="1.21948">
        <ele>311.5</ele>
        <time>2024-11-12T07:58:47Z</time>
      </trkpt>
      <trkpt lat="45.8485" lon="1.21946">
        <ele>311.7</ele>
        <time>2024-11-12T07:58:48Z</time>
      </trkpt>
      <trkpt lat="45.84851" lon="1.21945">
        <ele>311.9</ele>
        <time>2024-11-12T07:58:49Z</time>
      </trkpt>
      <trkpt lat="45.84849" lon="1.21944">
        <ele>312.2</ele>
        <time>2024-11-12T07:58:50Z</time>
      </trkpt>
      <trkpt lat="45.84849" lon="1.21942">
        <ele>312.4</ele>
        <time>2024-11-12T07:58:51Z</time>
      </trkpt>
      <trkpt lat="45.8485" lon="1.2194">
        <ele>312.5</ele>
        <time>2024-11-12T07:58:52Z</time>
      </trkpt>
      <trkpt lat="45.84851" lon="1.21939">
        <ele>312.7</ele>
        <time>2024-11-12T07:58:53Z</time>
      </trkpt>
      <trkpt lat="45.84852" lon="1.21937">
        <ele>312.9</ele>
        <time>2024-11-12T07:58:54Z</time>
      </trkpt>
      <trkpt lat="45.84851" lon="1.21936">
        <ele>313</ele>
        <time>2024-11-12T07:58:55Z</time>
      </trkpt>
      <trkpt lat="45.84852" lon="1.21935">
        <ele>313.1</ele>
        <time>2024-11-12T07:58:56Z</time>
      </trkpt>
      <trkpt lat="45.84852" lon="1.21933">
        <ele>313.3</ele>
        <time>2024-11-12T07:58:57Z</time>
      </trkpt>
      <trkpt lat="45.84853" lon="1.21931">
        <ele>313.4</ele>
        <time>2024-11-12T07:58:58Z</time>
      </trkpt>
      <trkpt lat="45.84854" lon="1.2193">
        <ele>313.6</ele>
        <time>2024-11-12T07:58:59Z</time>
      </trkpt>
      <trkpt lat="45.84855" lon="1.21928">
        <ele>313.8</ele>
        <time>2024-11-12T07:59:00Z</time>
      </trkpt>
      <trkpt lat="45.84856" lon="1.21925">
        <ele>314</ele>
        <time>2024-11-12T07:59:01Z</time>
      </trkpt>
      <trkpt lat="45.84856" lon="1.21924">
        <ele>314.1</ele>
        <time>2024-11-12T07:59:02Z</time>
      </trkpt>
      <trkpt lat="45.84857" lon="1.21923">
        <ele>314.2</ele>
        <time>2024-11-12T07:59:03Z</time>
      </trkpt>
      <trkpt lat="45.84857" lon="1.21922">
        <ele>314.3</ele>
        <time>2024-11-12T07:59:04Z</time>
      </trkpt>
      <trkpt lat="45.84858" lon="1.2192">
        <ele>314.4</ele>
        <time>2024-11-12T07:59:05Z</time>
      </trkpt>
      <trkpt lat="45.84859" lon="1.21919">
        <ele>314.5</ele>
        <time>2024-11-12T07:59:06Z</time>
      </trkpt>
      <trkpt lat="45.84859" lon="1.21918">
        <ele>314.6</ele>
        <time>2024-11-12T07:59:07Z</time>
      </trkpt>
      <trkpt lat="45.8486" lon="1.21916">
        <ele>314.8</ele>
        <time>2024-11-12T07:59:08Z</time>
      </trkpt>
      <trkpt lat="45.8486" lon="1.21915">
        <ele>314.9</ele>
        <time>2024-11-12T07:59:09Z</time>
      </trkpt>
      <trkpt lat="45.84861" lon="1.21913">
        <ele>315</ele>
        <time>2024-11-12T07:59:10Z</time>
      </trkpt>
      <trkpt lat="45.84862" lon="1.21912">
        <ele>315.1</ele>
        <time>2024-11-12T07:59:11Z</time>
      </trkpt>
      <trkpt lat="45.84863" lon="1.21911">
        <ele>315.3</ele>
        <time>2024-11-12T07:59:12Z</time>
      </trkpt>
      <trkpt lat="45.84864" lon="1.21909">
        <ele>315.5</ele>
        <time>2024-11-12T07:59:13Z</time>
      </trkpt>
      <trkpt lat="45.84865" lon="1.21908">
        <ele>315.6</ele>
        <time>2024-11-12T07:59:14Z</time>
      </trkpt>
      <trkpt lat="45.84865" lon="1.21907">
        <ele>315.7</ele>
        <time>2024-11-12T07:59:15Z</time>
      </trkpt>
      <trkpt lat="45.84866" lon="1.21906">
        <ele>315.8</ele>
        <time>2024-11-12T07:59:16Z</time>
      </trkpt>
      <trkpt lat="45.84867" lon="1.21905">
        <ele>316</ele>
        <time>2024-11-12T07:59:17Z</time>
      </trkpt>
      <trkpt lat="45.84867" lon="1.21903">
        <ele>316.1</ele>
        <time>2024-11-12T07:59:18Z</time>
      </trkpt>
      <trkpt lat="45.84868" lon="1.21902">
        <ele>316.2</ele>
        <time>2024-11-12T07:59:19Z</time>
      </trkpt>
      <trkpt lat="45.84869" lon="1.219">
        <ele>316.4</ele>
        <time>2024-11-12T07:59:20Z</time>
      </trkpt>
      <trkpt lat="45.84869" lon="1.21899">
        <ele>316.5</ele>
        <time>2024-11-12T07:59:21Z</time>
      </trkpt>
      <trkpt lat="45.8487" lon="1.21898">
        <ele>316.6</ele>
        <time>2024-11-12T07:59:22Z</time>
      </trkpt>
      <trkpt lat="45.84871" lon="1.21897">
        <ele>316.7</ele>
        <time>2024-11-12T07:59:23Z</time>
      </trkpt>
      <trkpt lat="45.84871" lon="1.21896">
        <ele>316.8</ele>
        <time>2024-11-12T07:59:24Z</time>
      </trkpt>
      <trkpt lat="45.84872" lon="1.21894">
        <ele>317</ele>
        <time>2024-11-12T07:59:25Z</time>
      </trkpt>
      <trkpt lat="45.84873" lon="1.21893">
        <ele>317.1</ele>
        <time>2024-11-12T07:59:26Z</time>
      </trkpt>
      <trkpt lat="45.84873" lon="1.21892">
        <ele>317.2</ele>
        <time>2024-11-12T07:59:27Z</time>
      </trkpt>
      <trkpt lat="45.84874" lon="1.2189">
        <ele>317.3</ele>
        <time>2024-11-12T07:59:28Z</time>
      </trkpt>
      <trkpt lat="45.84874" lon="1.21889">
        <ele>317.4</ele>
        <time>2024-11-12T07:59:29Z</time>
      </trkpt>
      <trkpt lat="45.84875" lon="1.21888">
        <ele>317.4</ele>
        <time>2024-11-12T07:59:30Z</time>
      </trkpt>
      <trkpt lat="45.84875" lon="1.21887">
        <ele>317.6</ele>
        <time>2024-11-12T07:59:31Z</time>
      </trkpt>
      <trkpt lat="45.84876" lon="1.21885">
        <ele>317.7</ele>
        <time>2024-11-12T07:59:32Z</time>
      </trkpt>
      <trkpt lat="45.84877" lon="1.21884">
        <ele>317.8</ele>
        <time>2024-11-12T07:59:33Z</time>
      </trkpt>
      <trkpt lat="45.84877" lon="1.21882">
        <ele>317.9</ele>
        <time>2024-11-12T07:59:34Z</time>
      </trkpt>
      <trkpt lat="45.84878" lon="1.21881">
        <ele>318</ele>
        <time>2024-11-12T07:59:35Z</time>
      </trkpt>
      <trkpt lat="45.84878" lon="1.21879">
        <ele>318.1</ele>
        <time>2024-11-12T07:59:36Z</time>
      </trkpt>
      <trkpt lat="45.84879" lon="1.21878">
        <ele>318.2</ele>
        <time>2024-11-12T07:59:37Z</time>
      </trkpt>
      <trkpt lat="45.84879" lon="1.21876">
        <ele>318.3</ele>
        <time>2024-11-12T07:59:38Z</time>
      </trkpt>
      <trkpt lat="45.8488" lon="1.21875">
        <ele>318.5</ele>
        <time>2024-11-12T07:59:39Z</time>
      </trkpt>
      <trkpt lat="45.8488" lon="1.21874">
        <ele>318.5</ele>
        <time>2024-11-12T07:59:40Z</time>
      </trkpt>
      <trkpt lat="45.8488" lon="1.21873">
        <ele>318.6</ele>
        <time>2024-11-12T07:59:41Z</time>
      </trkpt>
      <trkpt lat="45.8488" lon="1.21871">
        <ele>318.7</ele>
        <time>2024-11-12T07:59:42Z</time>
      </trkpt>
      <trkpt lat="45.84881" lon="1.2187">
        <ele>318.8</ele>
        <time>2024-11-12T07:59:43Z</time>
      </trkpt>
      <trkpt lat="45.84881" lon="1.21868">
        <ele>318.9</ele>
        <time>2024-11-12T07:59:44Z</time>
      </trkpt>
      <trkpt lat="45.84881" lon="1.21866">
        <ele>319.1</ele>
        <time>2024-11-12T07:59:45Z</time>
      </trkpt>
      <trkpt lat="45.84882" lon="1.21865">
        <ele>319.2</ele>
        <time>2024-11-12T07:59:46Z</time>
      </trkpt>
      <trkpt lat="45.84882" lon="1.21863">
        <ele>319.3</ele>
        <time>2024-11-12T07:59:47Z</time>
      </trkpt>
      <trkpt lat="45.84883" lon="1.21862">
        <ele>319.4</ele>
        <time>2024-11-12T07:59:48Z</time>
      </trkpt>
      <trkpt lat="45.84883" lon="1.2186">
        <ele>319.5</ele>
        <time>2024-11-12T07:59:49Z</time>
      </trkpt>
      <trkpt lat="45.84884" lon="1.21858">
        <ele>319.6</ele>
        <time>2024-11-12T07:59:50Z</time>
      </trkpt>
      <trkpt lat="45.84884" lon="1.21857">
        <ele>319.7</ele>
        <time>2024-11-12T07:59:51Z</time>
      </trkpt>
      <trkpt lat="45.84884" lon="1.21855">
        <ele>319.8</ele>
        <time>2024-11-12T07:59:52Z</time>
      </trkpt>
      <trkpt lat="45.84885" lon="1.21854">
        <ele>319.9</ele>
        <time>2024-11-12T07:59:53Z</time>
      </trkpt>
      <trkpt lat="45.84885" lon="1.21852">
        <ele>320.1</ele>
        <time>2024-11-12T07:59:54Z</time>
      </trkpt>
      <trkpt lat="45.84886" lon="1.21851">
        <ele>320.2</ele>
        <time>2024-11-12T07:59:55Z</time>
      </trkpt>
      <trkpt lat="45.84886" lon="1.21849">
        <ele>320.3</ele>
        <time>2024-11-12T07:59:56Z</time>
      </trkpt>
      <trkpt lat="45.84888" lon="1.21847">
        <ele>320.4</ele>
        <time>2024-11-12T07:59:57Z</time>
      </trkpt>
      <trkpt lat="45.84888" lon="1.21846">
        <ele>320.5</ele>
        <time>2024-11-12T07:59:58Z</time>
      </trkpt>
      <trkpt lat="45.84889" lon="1.21845">
        <ele>320.7</ele>
        <time>2024-11-12T07:59:59Z</time>
      </trkpt>
      <trkpt lat="45.8489" lon="1.21843">
        <ele>320.8</ele>
        <time>2024-11-12T08:00:00Z</time>
      </trkpt>
      <trkpt lat="45.84891" lon="1.21842">
        <ele>320.9</ele>
        <time>2024-11-12T08:00:01Z</time>
      </trkpt>
      <trkpt lat="45.84892" lon="1.21842">
        <ele>321</ele>
        <time>2024-11-12T08:00:02Z</time>
      </trkpt>
      <trkpt lat="45.84893" lon="1.21841">
        <ele>321</ele>
        <time>2024-11-12T08:00:03Z</time>
      </trkpt>
      <trkpt lat="45.84894" lon="1.21841">
        <ele>321.1</ele>
        <time>2024-11-12T08:00:04Z</time>
      </trkpt>
      <trkpt lat="45.84896" lon="1.21841">
        <ele>321.2</ele>
        <time>2024-11-12T08:00:05Z</time>
      </trkpt>
      <trkpt lat="45.84897" lon="1.21841">
        <ele>321.3</ele>
        <time>2024-11-12T08:00:06Z</time>
      </trkpt>
      <trkpt lat="45.84898" lon="1.21841">
        <ele>321.3</ele>
        <time>2024-11-12T08:00:07Z</time>
      </trkpt>
      <trkpt lat="45.849" lon="1.21842">
        <ele>321.5</ele>
        <time>2024-11-12T08:00:08Z</time>
      </trkpt>
      <trkpt lat="45.84901" lon="1.21842">
        <ele>321.6</ele>
        <time>2024-11-12T08:00:09Z</time>
      </trkpt>
      <trkpt lat="45.84902" lon="1.21842">
        <ele>321.6</ele>
        <time>2024-11-12T08:00:10Z</time>
      </trkpt>
      <trkpt lat="45.84903" lon="1.21843">
        <ele>321.7</ele>
        <time>2024-11-12T08:00:11Z</time>
      </trkpt>
      <trkpt lat="45.84904" lon="1.21843">
        <ele>321.8</ele>
        <time>2024-11-12T08:00:12Z</time>
      </trkpt>
      <trkpt lat="45.84904" lon="1.21843">
        <ele>321.8</ele>
        <time>2024-11-12T08:00:13Z</time>
      </trkpt>
      <trkpt lat="45.84905" lon="1.21844">
        <ele>321.9</ele>
        <time>2024-11-12T08:00:14Z</time>
      </trkpt>
      <trkpt lat="45.84907" lon="1.21845">
        <ele>322</ele>
        <time>2024-11-12T08:00:15Z</time>
      </trkpt>
      <trkpt lat="45.84907" lon="1.21846">
        <ele>322.1</ele>
        <time>2024-11-12T08:00:16Z</time>
      </trkpt>
      <trkpt lat="45.84908" lon="1.21847">
        <ele>322.2</ele>
        <time>2024-11-12T08:00:17Z</time>
      </trkpt>
      <trkpt lat="45.84909" lon="1.21849">
        <ele>322.3</ele>
        <time>2024-11-12T08:00:18Z</time>
      </trkpt>
      <trkpt lat="45.8491" lon="1.2185">
        <ele>322.4</ele>
        <time>2024-11-12T08:00:19Z</time>
      </trkpt>
      <trkpt lat="45.84911" lon="1.21851">
        <ele>322.5</ele>
        <time>2024-11-12T08:00:20Z</time>
      </trkpt>
      <trkpt lat="45.84911" lon="1.21852">
        <ele>322.5</ele>
        <time>2024-11-12T08:00:21Z</time>
      </trkpt>
      <trkpt lat="45.84912" lon="1.21853">
        <ele>322.6</ele>
        <time>2024-11-12T08:00:22Z</time>
      </trkpt>
      <trkpt lat="45.84912" lon="1.21854">
        <ele>322.6</ele>
        <time>2024-11-12T08:00:23Z</time>
      </trkpt>
      <trkpt lat="45.84913" lon="1.21855">
        <ele>322.7</ele>
        <time>2024-11-12T08:00:24Z</time>
      </trkpt>
      <trkpt lat="45.84914" lon="1.21857">
        <ele>322.8</ele>
        <time>2024-11-12T08:00:25Z</time>
      </trkpt>
      <trkpt lat="45.84914" lon="1.21858">
        <ele>322.8</ele>
        <time>2024-11-12T08:00:26Z</time>
      </trkpt>
      <trkpt lat="45.84915" lon="1.21859">
        <ele>322.9</ele>
        <time>2024-11-12T08:00:27Z</time>
      </trkpt>
      <trkpt lat="45.84916" lon="1.2186">
        <ele>322.9</ele>
        <time>2024-11-12T08:00:28Z</time>
      </trkpt>
      <trkpt lat="45.84916" lon="1.21862">
        <ele>323</ele>
        <time>2024-11-12T08:00:29Z</time>
      </trkpt>
      <trkpt lat="45.84917" lon="1.21863">
        <ele>323</ele>
        <time>2024-11-12T08:00:30Z</time>
      </trkpt>
      <trkpt lat="45.84917" lon="1.21864">
        <ele>323.1</ele>
        <time>2024-11-12T08:00:31Z</time>
      </trkpt>
      <trkpt lat="45.84918" lon="1.21865">
        <ele>323.2</ele>
        <time>2024-11-12T08:00:32Z</time>
      </trkpt>
      <trkpt lat="45.84919" lon="1.21866">
        <ele>323.2</ele>
        <time>2024-11-12T08:00:33Z</time>
      </trkpt>
      <trkpt lat="45.84919" lon="1.21867">
        <ele>323.2</ele>
        <time>2024-11-12T08:00:34Z</time>
      </trkpt>
      <trkpt lat="45.8492" lon="1.21869">
        <ele>323.3</ele>
        <time>2024-11-12T08:00:35Z</time>
      </trkpt>
      <trkpt lat="45.84921" lon="1.21869">
        <ele>323.4</ele>
        <time>2024-11-12T08:00:36Z</time>
      </trkpt>
      <trkpt lat="45.84922" lon="1.21871">
        <ele>323.4</ele>
        <time>2024-11-12T08:00:37Z</time>
      </trkpt>
      <trkpt lat="45.84923" lon="1.21871">
        <ele>323.5</ele>
        <time>2024-11-12T08:00:38Z</time>
      </trkpt>
      <trkpt lat="45.84923" lon="1.21872">
        <ele>323.5</ele>
        <time>2024-11-12T08:00:39Z</time>
      </trkpt>
      <trkpt lat="45.84924" lon="1.21873">
        <ele>323.5</ele>
        <time>2024-11-12T08:00:40Z</time>
      </trkpt>
      <trkpt lat="45.84925" lon="1.21875">
        <ele>323.6</ele>
        <time>2024-11-12T08:00:41Z</time>
      </trkpt>
      <trkpt lat="45.84926" lon="1.21875">
        <ele>323.6</ele>
        <time>2024-11-12T08:00:42Z</time>
      </trkpt>
      <trkpt lat="45.84927" lon="1.21876">
        <ele>323.7</ele>
        <time>2024-11-12T08:00:43Z</time>
      </trkpt>
      <trkpt lat="45.84928" lon="1.21878">
        <ele>323.7</ele>
        <time>2024-11-12T08:00:44Z</time>
      </trkpt>
      <trkpt lat="45.84928" lon="1.21879">
        <ele>323.8</ele>
        <time>2024-11-12T08:00:45Z</time>
      </trkpt>
      <trkpt lat="45.8493" lon="1.2188">
        <ele>323.9</ele>
        <time>2024-11-12T08:00:46Z</time>
      </trkpt>
      <trkpt lat="45.8493" lon="1.21881">
        <ele>323.9</ele>
        <time>2024-11-12T08:00:47Z</time>
      </trkpt>
      <trkpt lat="45.84931" lon="1.21882">
        <ele>323.9</ele>
        <time>2024-11-12T08:00:48Z</time>
      </trkpt>
      <trkpt lat="45.84932" lon="1.21884">
        <ele>324</ele>
        <time>2024-11-12T08:00:49Z</time>
      </trkpt>
      <trkpt lat="45.84933" lon="1.21886">
        <ele>324</ele>
        <time>2024-11-12T08:00:50Z</time>
      </trkpt>
      <trkpt lat="45.84934" lon="1.21887">
        <ele>324.1</ele>
        <time>2024-11-12T08:00:51Z</time>
      </trkpt>
      <trkpt lat="45.84934" lon="1.21888">
        <ele>324.1</ele>
        <time>2024-11-12T08:00:52Z</time>
      </trkpt>
      <trkpt lat="45.84936" lon="1.21891">
        <ele>324.1</ele>
        <time>2024-11-12T08:00:53Z</time>
      </trkpt>
      <trkpt lat="45.84937" lon="1.21892">
        <ele>324.1</ele>
        <time>2024-11-12T08:00:54Z</time>
      </trkpt>
      <trkpt lat="45.84937" lon="1.21893">
        <ele>324.1</ele>
        <time>2024-11-12T08:00:55Z</time>
      </trkpt>
      <trkpt lat="45.84938" lon="1.21895">
        <ele>324.1</ele>
        <time>2024-11-12T08:00:56Z</time>
      </trkpt>
      <trkpt lat="45.84939" lon="1.21896">
        <ele>324.1</ele>
        <time>2024-11-12T08:00:57Z</time>
      </trkpt>
      <trkpt lat="45.84941" lon="1.21898">
        <ele>324.1</ele>
        <time>2024-11-12T08:00:58Z</time>
      </trkpt>
      <trkpt lat="45.84942" lon="1.21899">
        <ele>324.1</ele>
        <time>2024-11-12T08:00:59Z</time>
      </trkpt>
      <trkpt lat="45.84943" lon="1.219">
        <ele>324.1</ele>
        <time>2024-11-12T08:01:00Z</time>
      </trkpt>
      <trkpt lat="45.84944" lon="1.21904">
        <ele>324.1</ele>
        <time>2024-11-12T08:01:01Z</time>
      </trkpt>
      <trkpt lat="45.84945" lon="1.21905">
        <ele>324</ele>
        <time>2024-11-12T08:01:02Z</time>
      </trkpt>
      <trkpt lat="45.84946" lon="1.21905">
        <ele>324</ele>
        <time>2024-11-12T08:01:03Z</time>
      </trkpt>
      <trkpt lat="45.84947" lon="1.21906">
        <ele>324</ele>
        <time>2024-11-12T08:01:04Z</time>
      </trkpt>
      <trkpt lat="45.84949" lon="1.21907">
        <ele>324</ele>
        <time>2024-11-12T08:01:05Z</time>
      </trkpt>
      <trkpt lat="45.8495" lon="1.21907">
        <ele>323.9</ele>
        <time>2024-11-12T08:01:06Z</time>
      </trkpt>
      <trkpt lat="45.8495" lon="1.21908">
        <ele>323.9</ele>
        <time>2024-11-12T08:01:07Z</time>
      </trkpt>
      <trkpt lat="45.84951" lon="1.21909">
        <ele>323.9</ele>
        <time>2024-11-12T08:01:08Z</time>
      </trkpt>
      <trkpt lat="45.84952" lon="1.2191">
        <ele>323.9</ele>
        <time>2024-11-12T08:01:09Z</time>
      </trkpt>
      <trkpt lat="45.84953" lon="1.21911">
        <ele>323.9</ele>
        <time>2024-11-12T08:01:10Z</time>
      </trkpt>
      <trkpt lat="45.84953" lon="1.21912">
        <ele>323.9</ele>
        <time>2024-11-12T08:01:11Z</time>
      </trkpt>
      <trkpt lat="45.84953" lon="1.21912">
        <ele>323.8</ele>
        <time>2024-11-12T08:01:12Z</time>
      </trkpt>
      <trkpt lat="45.84954" lon="1.21913">
        <ele>323.8</ele>
        <time>2024-11-12T08:01:13Z</time>
      </trkpt>
      <trkpt lat="45.84954" lon="1.21915">
        <ele>323.8</ele>
        <time>2024-11-12T08:01:14Z</time>
      </trkpt>
      <trkpt lat="45.84955" lon="1.21917">
        <ele>323.8</ele>
        <time>2024-11-12T08:01:15Z</time>
      </trkpt>
      <trkpt lat="45.84955" lon="1.21918">
        <ele>323.8</ele>
        <time>2024-11-12T08:01:16Z</time>
      </trkpt>
      <trkpt lat="45.84955" lon="1.2192">
        <ele>323.8</ele>
        <time>2024-11-12T08:01:17Z</time>
      </trkpt>
      <trkpt lat="45.84956" lon="1.21922">
        <ele>323.7</ele>
        <time>2024-11-12T08:01:18Z</time>
      </trkpt>
      <trkpt lat="45.84957" lon="1.21924">
        <ele>323.7</ele>
        <time>2024-11-12T08:01:19Z</time>
      </trkpt>
      <trkpt lat="45.84957" lon="1.21925">
        <ele>323.7</ele>
        <time>2024-11-12T08:01:20Z</time>
      </trkpt>
      <trkpt lat="45.84957" lon="1.21928">
        <ele>323.7</ele>
        <time>2024-11-12T08:01:21Z</time>
      </trkpt>
      <trkpt lat="45.84957" lon="1.2193">
        <ele>323.7</ele>
        <time>2024-11-12T08:01:22Z</time>
      </trkpt>
      <trkpt lat="45.84958" lon="1.21932">
        <ele>323.7</ele>
        <time>2024-11-12T08:01:23Z</time>
      </trkpt>
      <trkpt lat="45.84959" lon="1.21934">
        <ele>323.7</ele>
        <time>2024-11-12T08:01:24Z</time>
      </trkpt>
      <trkpt lat="45.84959" lon="1.21935">
        <ele>323.7</ele>
        <time>2024-11-12T08:01:25Z</time>
      </trkpt>
      <trkpt lat="45.84958" lon="1.21938">
        <ele>323.7</ele>
        <time>2024-11-12T08:01:26Z</time>
      </trkpt>
      <trkpt lat="45.84959" lon="1.2194">
        <ele>323.7</ele>
        <time>2024-11-12T08:01:27Z</time>
      </trkpt>
      <trkpt lat="45.8496" lon="1.21942">
        <ele>323.8</ele>
        <time>2024-11-12T08:01:28Z</time>
      </trkpt>
      <trkpt lat="45.84961" lon="1.21942">
        <ele>323.9</ele>
        <time>2024-11-12T08:01:29Z</time>
      </trkpt>
      <trkpt lat="45.84962" lon="1.21943">
        <ele>323.9</ele>
        <time>2024-11-12T08:01:30Z</time>
      </trkpt>
      <trkpt lat="45.84964" lon="1.21943">
        <ele>324</ele>
        <time>2024-11-12T08:01:31Z</time>
      </trkpt>
      <trkpt lat="45.84965" lon="1.21944">
        <ele>324.1</ele>
        <time>2024-11-12T08:01:32Z</time>
      </trkpt>
      <trkpt lat="45.84967" lon="1.21944">
        <ele>324.2</ele>
        <time>2024-11-12T08:01:33Z</time>
      </trkpt>
      <trkpt lat="45.84968" lon="1.21944">
        <ele>324.3</ele>
        <time>2024-11-12T08:01:34Z</time>
      </trkpt>
      <trkpt lat="45.84969" lon="1.21944">
        <ele>324.3</ele>
        <time>2024-11-12T08:01:35Z</time>
      </trkpt>
      <trkpt lat="45.84971" lon="1.21944">
        <ele>324.4</ele>
        <time>2024-11-12T08:01:36Z</time>
      </trkpt>
      <trkpt lat="45.84972" lon="1.21943">
        <ele>324.4</ele>
        <time>2024-11-12T08:01:37Z</time>
      </trkpt>
      <trkpt lat="45.84973" lon="1.21943">
        <ele>324.5</ele>
        <time>2024-11-12T08:01:38Z</time>
      </trkpt>
      <trkpt lat="45.84974" lon="1.21943">
        <ele>324.5</ele>
        <time>2024-11-12T08:01:39Z</time>
      </trkpt>
      <trkpt lat="45.84975" lon="1.21943">
        <ele>324.5</ele>
        <time>2024-11-12T08:01:40Z</time>
      </trkpt>
      <trkpt lat="45.84976" lon="1.21943">
        <ele>324.6</ele>
        <time>2024-11-12T08:01:41Z</time>
      </trkpt>
      <trkpt lat="45.84977" lon="1.21943">
        <ele>324.6</ele>
        <time>2024-11-12T08:01:42Z</time>
      </trkpt>
      <trkpt lat="45.84978" lon="1.21943">
        <ele>324.7</ele>
        <time>2024-11-12T08:01:43Z</time>
      </trkpt>
      <trkpt lat="45.84979" lon="1.21943">
        <ele>324.7</ele>
        <time>2024-11-12T08:01:44Z</time>
      </trkpt>
      <trkpt lat="45.84981" lon="1.21944">
        <ele>324.7</ele>
        <time>2024-11-12T08:01:45Z</time>
      </trkpt>
      <trkpt lat="45.84982" lon="1.21944">
        <ele>324.8</ele>
        <time>2024-11-12T08:01:46Z</time>
      </trkpt>
      <trkpt lat="45.84982" lon="1.21945">
        <ele>324.8</ele>
        <time>2024-11-12T08:01:47Z</time>
      </trkpt>
      <trkpt lat="45.84983" lon="1.21945">
        <ele>324.8</ele>
        <time>2024-11-12T08:01:48Z</time>
      </trkpt>
      <trkpt lat="45.84984" lon="1.21946">
        <ele>324.8</ele>
        <time>2024-11-12T08:01:49Z</time>
      </trkpt>
      <trkpt lat="45.84986" lon="1.21947">
        <ele>324.9</ele>
        <time>2024-11-12T08:01:50Z</time>
      </trkpt>
      <trkpt lat="45.84987" lon="1.21947">
        <ele>324.9</ele>
        <time>2024-11-12T08:01:51Z</time>
      </trkpt>
      <trkpt lat="45.84988" lon="1.21948">
        <ele>325</ele>
        <time>2024-11-12T08:01:52Z</time>
      </trkpt>
      <trkpt lat="45.84988" lon="1.21949">
        <ele>325</ele>
        <time>2024-11-12T08:01:53Z</time>
      </trkpt>
      <trkpt lat="45.84989" lon="1.2195">
        <ele>325</ele>
        <time>2024-11-12T08:01:54Z</time>
      </trkpt>
      <trkpt lat="45.8499" lon="1.2195">
        <ele>325.1</ele>
        <time>2024-11-12T08:01:55Z</time>
      </trkpt>
      <trkpt lat="45.84992" lon="1.21951">
        <ele>325.1</ele>
        <time>2024-11-12T08:01:56Z</time>
      </trkpt>
      <trkpt lat="45.84992" lon="1.21952">
        <ele>325.2</ele>
        <time>2024-11-12T08:01:57Z</time>
      </trkpt>
      <trkpt lat="45.84994" lon="1.21952">
        <ele>325.2</ele>
        <time>2024-11-12T08:01:58Z</time>
      </trkpt>
      <trkpt lat="45.84995" lon="1.21953">
        <ele>325.3</ele>
        <time>2024-11-12T08:01:59Z</time>
      </trkpt>
      <trkpt lat="45.84996" lon="1.21954">
        <ele>325.3</ele>
        <time>2024-11-12T08:02:00Z</time>
      </trkpt>
      <trkpt lat="45.84997" lon="1.21954">
        <ele>325.3</ele>
        <time>2024-11-12T08:02:01Z</time>
      </trkpt>
      <trkpt lat="45.84999" lon="1.21956">
        <ele>325.4</ele>
        <time>2024-11-12T08:02:02Z</time>
      </trkpt>
      <trkpt lat="45.84999" lon="1.21957">
        <ele>325.4</ele>
        <time>2024-11-12T08:02:03Z</time>
      </trkpt>
      <trkpt lat="45.85" lon="1.21958">
        <ele>325.4</ele>
        <time>2024-11-12T08:02:04Z</time>
      </trkpt>
      <trkpt lat="45.85001" lon="1.21959">
        <ele>325.5</ele>
        <time>2024-11-12T08:02:05Z</time>
      </trkpt>
      <trkpt lat="45.85002" lon="1.21961">
        <ele>325.5</ele>
        <time>2024-11-12T08:02:06Z</time>
      </trkpt>
      <trkpt lat="45.85003" lon="1.21962">
        <ele>325.5</ele>
        <time>2024-11-12T08:02:07Z</time>
      </trkpt>
      <trkpt lat="45.85004" lon="1.21963">
        <ele>325.5</ele>
        <time>2024-11-12T08:02:08Z</time>
      </trkpt>
      <trkpt lat="45.85004" lon="1.21964">
        <ele>325.5</ele>
        <time>2024-11-12T08:02:09Z</time>
      </trkpt>
      <trkpt lat="45.85005" lon="1.21966">
        <ele>325.5</ele>
        <time>2024-11-12T08:02:10Z</time>
      </trkpt>
      <trkpt lat="45.85006" lon="1.21967">
        <ele>325.5</ele>
        <time>2024-11-12T08:02:11Z</time>
      </trkpt>
      <trkpt lat="45.85007" lon="1.21968">
        <ele>325.5</ele>
        <time>2024-11-12T08:02:12Z</time>
      </trkpt>
      <trkpt lat="45.85008" lon="1.21968">
        <ele>325.5</ele>
        <time>2024-11-12T08:02:13Z</time>
      </trkpt>
      <trkpt lat="45.85009" lon="1.21969">
        <ele>325.5</ele>
        <time>2024-11-12T08:02:14Z</time>
      </trkpt>
      <trkpt lat="45.8501" lon="1.2197">
        <ele>325.5</ele>
        <time>2024-11-12T08:02:15Z</time>
      </trkpt>
      <trkpt lat="45.85011" lon="1.21971">
        <ele>325.5</ele>
        <time>2024-11-12T08:02:16Z</time>
      </trkpt>
      <trkpt lat="45.85012" lon="1.21972">
        <ele>325.4</ele>
        <time>2024-11-12T08:02:17Z</time>
      </trkpt>
      <trkpt lat="45.85012" lon="1.21974">
        <ele>325.4</ele>
        <time>2024-11-12T08:02:18Z</time>
      </trkpt>
      <trkpt lat="45.85013" lon="1.21975">
        <ele>325.4</ele>
        <time>2024-11-12T08:02:19Z</time>
      </trkpt>
      <trkpt lat="45.85014" lon="1.21976">
        <ele>325.4</ele>
        <time>2024-11-12T08:02:20Z</time>
      </trkpt>
      <trkpt lat="45.85014" lon="1.21978">
        <ele>325.3</ele>
        <time>2024-11-12T08:02:21Z</time>
      </trkpt>
      <trkpt lat="45.85015" lon="1.21979">
        <ele>325.3</ele>
        <time>2024-11-12T08:02:22Z</time>
      </trkpt>
      <trkpt lat="45.85015" lon="1.21981">
        <ele>325.3</ele>
        <time>2024-11-12T08:02:23Z</time>
      </trkpt>
      <trkpt lat="45.85016" lon="1.21982">
        <ele>325.3</ele>
        <time>2024-11-12T08:02:24Z</time>
      </trkpt>
      <trkpt lat="45.85017" lon="1.21983">
        <ele>325.2</ele>
        <time>2024-11-12T08:02:25Z</time>
      </trkpt>
      <trkpt lat="45.85018" lon="1.21985">
        <ele>325.2</ele>
        <time>2024-11-12T08:02:26Z</time>
      </trkpt>
      <trkpt lat="45.85019" lon="1.21985">
        <ele>325.2</ele>
        <time>2024-11-12T08:02:27Z</time>
      </trkpt>
      <trkpt lat="45.8502" lon="1.21985">
        <ele>325.1</ele>
        <time>2024-11-12T08:02:28Z</time>
      </trkpt>
      <trkpt lat="45.85021" lon="1.21986">
        <ele>325.1</ele>
        <time>2024-11-12T08:02:29Z</time>
      </trkpt>
      <trkpt lat="45.85022" lon="1.21988">
        <ele>325.1</ele>
        <time>2024-11-12T08:02:30Z</time>
      </trkpt>
      <trkpt lat="45.85023" lon="1.21989">
        <ele>325</ele>
        <time>2024-11-12T08:02:31Z</time>
      </trkpt>
      <trkpt lat="45.85024" lon="1.21991">
        <ele>325</ele>
        <time>2024-11-12T08:02:32Z</time>
      </trkpt>
      <trkpt lat="45.85025" lon="1.21993">
        <ele>324.9</ele>
        <time>2024-11-12T08:02:33Z</time>
      </trkpt>
      <trkpt lat="45.85026" lon="1.21994">
        <ele>324.9</ele>
        <time>2024-11-12T08:02:34Z</time>
      </trkpt>
      <trkpt lat="45.85027" lon="1.21994">
        <ele>324.8</ele>
        <time>2024-11-12T08:02:35Z</time>
      </trkpt>
      <trkpt lat="45.85028" lon="1.21996">
        <ele>324.8</ele>
        <time>2024-11-12T08:02:36Z</time>
      </trkpt>
      <trkpt lat="45.85029" lon="1.21997">
        <ele>324.7</ele>
        <time>2024-11-12T08:02:37Z</time>
      </trkpt>
      <trkpt lat="45.8503" lon="1.21998">
        <ele>324.7</ele>
        <time>2024-11-12T08:02:38Z</time>
      </trkpt>
      <trkpt lat="45.85031" lon="1.21999">
        <ele>324.7</ele>
        <time>2024-11-12T08:02:39Z</time>
      </trkpt>
      <trkpt lat="45.85032" lon="1.22">
        <ele>324.6</ele>
        <time>2024-11-12T08:02:40Z</time>
      </trkpt>
      <trkpt lat="45.85034" lon="1.22001">
        <ele>324.6</ele>
        <time>2024-11-12T08:02:41Z</time>
      </trkpt>
      <trkpt lat="45.85035" lon="1.22002">
        <ele>324.5</ele>
        <time>2024-11-12T08:02:42Z</time>
      </trkpt>
      <trkpt lat="45.85036" lon="1.22003">
        <ele>324.5</ele>
        <time>2024-11-12T08:02:43Z</time>
      </trkpt>
      <trkpt lat="45.85037" lon="1.22004">
        <ele>324.4</ele>
        <time>2024-11-12T08:02:44Z</time>
      </trkpt>
      <trkpt lat="45.85039" lon="1.22005">
        <ele>324.4</ele>
        <time>2024-11-12T08:02:45Z</time>
      </trkpt>
      <trkpt lat="45.8504" lon="1.22006">
        <ele>324.3</ele>
        <time>2024-11-12T08:02:46Z</time>
      </trkpt>
      <trkpt lat="45.85041" lon="1.22007">
        <ele>324.3</ele>
        <time>2024-11-12T08:02:47Z</time>
      </trkpt>
      <trkpt lat="45.85043" lon="1.22008">
        <ele>324.2</ele>
        <time>2024-11-12T08:02:48Z</time>
      </trkpt>
      <trkpt lat="45.85044" lon="1.22009">
        <ele>324.2</ele>
        <time>2024-11-12T08:02:49Z</time>
      </trkpt>
      <trkpt lat="45.85045" lon="1.22011">
        <ele>324.1</ele>
        <time>2024-11-12T08:02:50Z</time>
      </trkpt>
      <trkpt lat="45.85046" lon="1.22012">
        <ele>324.1</ele>
        <time>2024-11-12T08:02:51Z</time>
      </trkpt>
      <trkpt lat="45.85048" lon="1.22014">
        <ele>324</ele>
        <time>2024-11-12T08:02:52Z</time>
      </trkpt>
      <trkpt lat="45.85048" lon="1.22015">
        <ele>324</ele>
        <time>2024-11-12T08:02:53Z</time>
      </trkpt>
      <trkpt lat="45.85049" lon="1.22016">
        <ele>323.9</ele>
        <time>2024-11-12T08:02:54Z</time>
      </trkpt>
      <trkpt lat="45.8505" lon="1.22017">
        <ele>323.9</ele>
        <time>2024-11-12T08:02:55Z</time>
      </trkpt>
      <trkpt lat="45.85051" lon="1.22019">
        <ele>323.8</ele>
        <time>2024-11-12T08:02:56Z</time>
      </trkpt>
      <trkpt lat="45.85053" lon="1.22021">
        <ele>323.8</ele>
        <time>2024-11-12T08:02:57Z</time>
      </trkpt>
      <trkpt lat="45.85053" lon="1.22022">
        <ele>323.7</ele>
        <time>2024-11-12T08:02:58Z</time>
      </trkpt>
      <trkpt lat="45.85054" lon="1.22023">
        <ele>323.7</ele>
        <time>2024-11-12T08:02:59Z</time>
      </trkpt>
      <trkpt lat="45.85054" lon="1.22025">
        <ele>323.6</ele>
        <time>2024-11-12T08:03:00Z</time>
      </trkpt>
      <trkpt lat="45.85055" lon="1.22028">
        <ele>323.6</ele>
        <time>2024-11-12T08:03:01Z</time>
      </trkpt>
      <trkpt lat="45.85055" lon="1.22031">
        <ele>323.5</ele>
        <time>2024-11-12T08:03:02Z</time>
      </trkpt>
      <trkpt lat="45.85055" lon="1.22032">
        <ele>323.4</ele>
        <time>2024-11-12T08:03:03Z</time>
      </trkpt>
      <trkpt lat="45.85056" lon="1.22033">
        <ele>323.4</ele>
        <time>2024-11-12T08:03:04Z</time>
      </trkpt>
      <trkpt lat="45.85056" lon="1.22035">
        <ele>323.3</ele>
        <time>2024-11-12T08:03:05Z</time>
      </trkpt>
      <trkpt lat="45.85055" lon="1.22037">
        <ele>323.2</ele>
        <time>2024-11-12T08:03:06Z</time>
      </trkpt>
      <trkpt lat="45.85055" lon="1.22037">
        <ele>323.2</ele>
        <time>2024-11-12T08:03:07Z</time>
      </trkpt>
      <trkpt lat="45.85054" lon="1.22035">
        <ele>323.1</ele>
        <time>2024-11-12T08:03:08Z</time>
      </trkpt>
      <trkpt lat="45.85054" lon="1.22034">
        <ele>323</ele>
        <time>2024-11-12T08:03:09Z</time>
      </trkpt>
      <trkpt lat="45.85054" lon="1.22034">
        <ele>323</ele>
        <time>2024-11-12T08:03:10Z</time>
      </trkpt>
      <trkpt lat="45.85054" lon="1.22034">
        <ele>323</ele>
        <time>2024-11-12T08:03:11Z</time>
      </trkpt>
      <trkpt lat="45.85055" lon="1.22035">
        <ele>322.9</ele>
        <time>2024-11-12T08:03:12Z</time>
      </trkpt>
      <trkpt lat="45.85055" lon="1.22036">
        <ele>322.9</ele>
        <time>2024-11-12T08:03:13Z</time>
      </trkpt>
      <trkpt lat="45.85055" lon="1.22036">
        <ele>322.9</ele>
        <time>2024-11-12T08:03:14Z</time>
      </trkpt>
      <trkpt lat="45.85056" lon="1.22037">
        <ele>322.8</ele>
        <time>2024-11-12T08:03:15Z</time>
      </trkpt>
      <trkpt lat="45.85056" lon="1.22037">
        <ele>322.8</ele>
        <time>2024-11-12T08:03:16Z</time>
      </trkpt>
      <trkpt lat="45.85056" lon="1.22038">
        <ele>322.8</ele>
        <time>2024-11-12T08:03:17Z</time>
      </trkpt>
      <trkpt lat="45.85057" lon="1.22038">
        <ele>322.8</ele>
        <time>2024-11-12T08:03:18Z</time>
      </trkpt>
      <trkpt lat="45.85057" lon="1.22039">
        <ele>322.7</ele>
        <time>2024-11-12T08:03:19Z</time>
      </trkpt>
      <trkpt lat="45.8506" lon="1.22041">
        <ele>322.5</ele>
        <time>2024-11-12T08:03:20Z</time>
      </trkpt>
      <trkpt lat="45.8506" lon="1.22041">
        <ele>322.5</ele>
        <time>2024-11-12T08:03:21Z</time>
      </trkpt>
      <trkpt lat="45.85062" lon="1.22041">
        <ele>322.5</ele>
        <time>2024-11-12T08:03:22Z</time>
      </trkpt>
      <trkpt lat="45.85063" lon="1.2204">
        <ele>322.5</ele>
        <time>2024-11-12T08:03:23Z</time>
      </trkpt>
      <trkpt lat="45.85064" lon="1.22039">
        <ele>322.4</ele>
        <time>2024-11-12T08:03:24Z</time>
      </trkpt>
      <trkpt lat="45.85064" lon="1.22037">
        <ele>322.4</ele>
        <time>2024-11-12T08:03:25Z</time>
      </trkpt>
      <trkpt lat="45.85064" lon="1.22037">
        <ele>322.4</ele>
        <time>2024-11-12T08:03:26Z</time>
      </trkpt>
      <trkpt lat="45.85064" lon="1.22038">
        <ele>322.4</ele>
        <time>2024-11-12T08:03:27Z</time>
      </trkpt>
      <trkpt lat="45.85064" lon="1.22038">
        <ele>322.4</ele>
        <time>2024-11-12T08:03:28Z</time>
      </trkpt>
      <trkpt lat="45.85064" lon="1.22038">
        <ele>322.4</ele>
        <time>2024-11-12T08:03:29Z</time>
      </trkpt>
      <trkpt lat="45.85064" lon="1.22037">
        <ele>322.4</ele>
        <time>2024-11-12T08:03:30Z</time>
      </trkpt>
      <trkpt lat="45.85065" lon="1.22035">
        <ele>322.4</ele>
        <time>2024-11-12T08:03:31Z</time>
      </trkpt>
      <trkpt lat="45.85066" lon="1.22031">
        <ele>322.4</ele>
        <time>2024-11-12T08:03:32Z</time>
      </trkpt>
      <trkpt lat="45.85067" lon="1.22026">
        <ele>322.4</ele>
        <time>2024-11-12T08:03:33Z</time>
      </trkpt>
      <trkpt lat="45.85068" lon="1.22024">
        <ele>322.5</ele>
        <time>2024-11-12T08:03:34Z</time>
      </trkpt>
      <trkpt lat="45.85069" lon="1.22022">
        <ele>322.5</ele>
        <time>2024-11-12T08:03:35Z</time>
      </trkpt>
      <trkpt lat="45.85069" lon="1.2202">
        <ele>322.5</ele>
        <time>2024-11-12T08:03:36Z</time>
      </trkpt>
      <trkpt lat="45.8507" lon="1.22019">
        <ele>322.5</ele>
        <time>2024-11-12T08:03:37Z</time>
      </trkpt>
      <trkpt lat="45.85072" lon="1.22017">
        <ele>322.6</ele>
        <time>2024-11-12T08:03:38Z</time>
      </trkpt>
      <trkpt lat="45.85072" lon="1.22016">
        <ele>322.6</ele>
        <time>2024-11-12T08:03:39Z</time>
      </trkpt>
      <trkpt lat="45.85073" lon="1.22015">
        <ele>322.6</ele>
        <time>2024-11-12T08:03:40Z</time>
      </trkpt>
      <trkpt lat="45.85075" lon="1.22014">
        <ele>322.7</ele>
        <time>2024-11-12T08:03:41Z</time>
      </trkpt>
      <trkpt lat="45.85076" lon="1.22013">
        <ele>322.7</ele>
        <time>2024-11-12T08:03:42Z</time>
      </trkpt>
      <trkpt lat="45.85077" lon="1.22012">
        <ele>322.8</ele>
        <time>2024-11-12T08:03:43Z</time>
      </trkpt>
      <trkpt lat="45.85078" lon="1.22011">
        <ele>322.9</ele>
        <time>2024-11-12T08:03:44Z</time>
      </trkpt>
      <trkpt lat="45.85079" lon="1.22011">
        <ele>322.9</ele>
        <time>2024-11-12T08:03:45Z</time>
      </trkpt>
      <trkpt lat="45.8508" lon="1.2201">
        <ele>323</ele>
        <time>2024-11-12T08:03:46Z</time>
      </trkpt>
      <trkpt lat="45.85081" lon="1.22009">
        <ele>323</ele>
        <time>2024-11-12T08:03:47Z</time>
      </trkpt>
      <trkpt lat="45.85083" lon="1.22008">
        <ele>323.1</ele>
        <time>2024-11-12T08:03:48Z</time>
      </trkpt>
      <trkpt lat="45.85084" lon="1.22007">
        <ele>323.2</ele>
        <time>2024-11-12T08:03:49Z</time>
      </trkpt>
      <trkpt lat="45.85085" lon="1.22006">
        <ele>323.2</ele>
        <time>2024-11-12T08:03:50Z</time>
      </trkpt>
      <trkpt lat="45.85086" lon="1.22004">
        <ele>323.3</ele>
        <time>2024-11-12T08:03:51Z</time>
      </trkpt>
      <trkpt lat="45.85087" lon="1.22004">
        <ele>323.4</ele>
        <time>2024-11-12T08:03:52Z</time>
      </trkpt>
      <trkpt lat="45.85088" lon="1.22003">
        <ele>323.4</ele>
        <time>2024-11-12T08:03:53Z</time>
      </trkpt>
      <trkpt lat="45.85089" lon="1.22003">
        <ele>323.5</ele>
        <time>2024-11-12T08:03:54Z</time>
      </trkpt>
      <trkpt lat="45.8509" lon="1.22001">
        <ele>323.6</ele>
        <time>2024-11-12T08:03:55Z</time>
      </trkpt>
      <trkpt lat="45.85091" lon="1.22">
        <ele>323.7</ele>
        <time>2024-11-12T08:03:56Z</time>
      </trkpt>
      <trkpt lat="45.85092" lon="1.21999">
        <ele>323.8</ele>
        <time>2024-11-12T08:03:57Z</time>
      </trkpt>
      <trkpt lat="45.85093" lon="1.21998">
        <ele>323.8</ele>
        <time>2024-11-12T08:03:58Z</time>
      </trkpt>
      <trkpt lat="45.85093" lon="1.21997">
        <ele>323.9</ele>
        <time>2024-11-12T08:03:59Z</time>
      </trkpt>
      <trkpt lat="45.85094" lon="1.21995">
        <ele>324</ele>
        <time>2024-11-12T08:04:00Z</time>
      </trkpt>
      <trkpt lat="45.85094" lon="1.21993">
        <ele>324</ele>
        <time>2024-11-12T08:04:01Z</time>
      </trkpt>
      <trkpt lat="45.85094" lon="1.21992">
        <ele>324</ele>
        <time>2024-11-12T08:04:02Z</time>
      </trkpt>
      <trkpt lat="45.85094" lon="1.21991">
        <ele>324</ele>
        <time>2024-11-12T08:04:03Z</time>
      </trkpt>
      <trkpt lat="45.85093" lon="1.21989">
        <ele>324</ele>
        <time>2024-11-12T08:04:04Z</time>
      </trkpt>
      <trkpt lat="45.85092" lon="1.21988">
        <ele>324</ele>
        <time>2024-11-12T08:04:05Z</time>
      </trkpt>
      <trkpt lat="45.8509" lon="1.21987">
        <ele>324</ele>
        <time>2024-11-12T08:04:06Z</time>
      </trkpt>
      <trkpt lat="45.85089" lon="1.21987">
        <ele>324</ele>
        <time>2024-11-12T08:04:07Z</time>
      </trkpt>
      <trkpt lat="45.85088" lon="1.21986">
        <ele>324</ele>
        <time>2024-11-12T08:04:08Z</time>
      </trkpt>
      <trkpt lat="45.85086" lon="1.21985">
        <ele>324.1</ele>
        <time>2024-11-12T08:04:09Z</time>
      </trkpt>
      <trkpt lat="45.85085" lon="1.21984">
        <ele>324.1</ele>
        <time>2024-11-12T08:04:10Z</time>
      </trkpt>
      <trkpt lat="45.85084" lon="1.21983">
        <ele>324.1</ele>
        <time>2024-11-12T08:04:11Z</time>
      </trkpt>
      <trkpt lat="45.85083" lon="1.21982">
        <ele>324.2</ele>
        <time>2024-11-12T08:04:12Z</time>
      </trkpt>
      <trkpt lat="45.85082" lon="1.21981">
        <ele>324.2</ele>
        <time>2024-11-12T08:04:13Z</time>
      </trkpt>
      <trkpt lat="45.85081" lon="1.21981">
        <ele>324.2</ele>
        <time>2024-11-12T08:04:14Z</time>
      </trkpt>
      <trkpt lat="45.8508" lon="1.2198">
        <ele>324.3</ele>
        <time>2024-11-12T08:04:15Z</time>
      </trkpt>
      <trkpt lat="45.85078" lon="1.21978">
        <ele>324.4</ele>
        <time>2024-11-12T08:04:16Z</time>
      </trkpt>
      <trkpt lat="45.85078" lon="1.21978">
        <ele>324.4</ele>
        <time>2024-11-12T08:04:17Z</time>
      </trkpt>
      <trkpt lat="45.85077" lon="1.21977">
        <ele>324.5</ele>
        <time>2024-11-12T08:04:18Z</time>
      </trkpt>
      <trkpt lat="45.85075" lon="1.21976">
        <ele>324.5</ele>
        <time>2024-11-12T08:04:19Z</time>
      </trkpt>
      <trkpt lat="45.85074" lon="1.21975">
        <ele>324.6</ele>
        <time>2024-11-12T08:04:20Z</time>
      </trkpt>
      <trkpt lat="45.85073" lon="1.21974">
        <ele>324.7</ele>
        <time>2024-11-12T08:04:21Z</time>
      </trkpt>
      <trkpt lat="45.85072" lon="1.21973">
        <ele>324.7</ele>
        <time>2024-11-12T08:04:22Z</time>
      </trkpt>
      <trkpt lat="45.85072" lon="1.21972">
        <ele>324.7</ele>
        <time>2024-11-12T08:04:23Z</time>
      </trkpt>
      <trkpt lat="45.8507" lon="1.21972">
        <ele>324.8</ele>
        <time>2024-11-12T08:04:24Z</time>
      </trkpt>
      <trkpt lat="45.85069" lon="1.21971">
        <ele>324.8</ele>
        <time>2024-11-12T08:04:25Z</time>
      </trkpt>
      <trkpt lat="45.85068" lon="1.2197">
        <ele>324.9</ele>
        <time>2024-11-12T08:04:26Z</time>
      </trkpt>
      <trkpt lat="45.85067" lon="1.2197">
        <ele>325</ele>
        <time>2024-11-12T08:04:27Z</time>
      </trkpt>
      <trkpt lat="45.85066" lon="1.2197">
        <ele>325</ele>
        <time>2024-11-12T08:04:28Z</time>
      </trkpt>
      <trkpt lat="45.85066" lon="1.2197">
        <ele>325</ele>
        <time>2024-11-12T08:04:29Z</time>
      </trkpt>
      <trkpt lat="45.85065" lon="1.21971">
        <ele>325</ele>
        <time>2024-11-12T08:04:30Z</time>
      </trkpt>
      <trkpt lat="45.85064" lon="1.21971">
        <ele>325</ele>
        <time>2024-11-12T08:04:31Z</time>
      </trkpt>
      <trkpt lat="45.85064" lon="1.21971">
        <ele>325.1</ele>
        <time>2024-11-12T08:04:32Z</time>
      </trkpt>
      <trkpt lat="45.85063" lon="1.21972">
        <ele>325.1</ele>
        <time>2024-11-12T08:04:33Z</time>
      </trkpt>
      <trkpt lat="45.85062" lon="1.21973">
        <ele>325.1</ele>
        <time>2024-11-12T08:04:34Z</time>
      </trkpt>
      <trkpt lat="45.85062" lon="1.21974">
        <ele>325.1</ele>
        <time>2024-11-12T08:04:35Z</time>
      </trkpt>
      <trkpt lat="45.85061" lon="1.21975">
        <ele>325.2</ele>
        <time>2024-11-12T08:04:36Z</time>
      </trkpt>
      <trkpt lat="45.85061" lon="1.21976">
        <ele>325.2</ele>
        <time>2024-11-12T08:04:37Z</time>
      </trkpt>
      <trkpt lat="45.85061" lon="1.21976">
        <ele>325.2</ele>
        <time>2024-11-12T08:04:38Z</time>
      </trkpt>
      <trkpt lat="45.85061" lon="1.21976">
        <ele>325.2</ele>
        <time>2024-11-12T08:04:39Z</time>
      </trkpt>
      <trkpt lat="45.85061" lon="1.21975">
        <ele>325.2</ele>
        <time>2024-11-12T08:04:40Z</time>
      </trkpt>
      <trkpt lat="45.85061" lon="1.21975">
        <ele>325.2</ele>
        <time>2024-11-12T08:04:41Z</time>
      </trkpt>
      <trkpt lat="45.85061" lon="1.21975">
        <ele>325.3</ele>
        <time>2024-11-12T08:04:42Z</time>
      </trkpt>
      <trkpt lat="45.85061" lon="1.21974">
        <ele>325.3</ele>
        <time>2024-11-12T08:04:43Z</time>
      </trkpt>
      <trkpt lat="45.85061" lon="1.21974">
        <ele>325.3</ele>
        <time>2024-11-12T08:04:44Z</time>
      </trkpt>
      <trkpt lat="45.85061" lon="1.21973">
        <ele>325.4</ele>
        <time>2024-11-12T08:04:45Z</time>
      </trkpt>
      <trkpt lat="45.85061" lon="1.21971">
        <ele>325.5</ele>
        <time>2024-11-12T08:04:46Z</time>
      </trkpt>
      <trkpt lat="45.85061" lon="1.2197">
        <ele>325.5</ele>
        <time>2024-11-12T08:04:47Z</time>
      </trkpt>
      <trkpt lat="45.85061" lon="1.21969">
        <ele>325.6</ele>
        <time>2024-11-12T08:04:48Z</time>
      </trkpt>
      <trkpt lat="45.85062" lon="1.21966">
        <ele>325.8</ele>
        <time>2024-11-12T08:04:49Z</time>
      </trkpt>
      <trkpt lat="45.85063" lon="1.21965">
        <ele>325.9</ele>
        <time>2024-11-12T08:04:50Z</time>
      </trkpt>
      <trkpt lat="45.85063" lon="1.21964">
        <ele>325.9</ele>
        <time>2024-11-12T08:04:51Z</time>
      </trkpt>
      <trkpt lat="45.85065" lon="1.21962">
        <ele>326.1</ele>
        <time>2024-11-12T08:04:52Z</time>
      </trkpt>
      <trkpt lat="45.85065" lon="1.21961">
        <ele>326.2</ele>
        <time>2024-11-12T08:04:53Z</time>
      </trkpt>
      <trkpt lat="45.85066" lon="1.2196">
        <ele>326.3</ele>
        <time>2024-11-12T08:04:54Z</time>
      </trkpt>
      <trkpt lat="45.85067" lon="1.21958">
        <ele>326.4</ele>
        <time>2024-11-12T08:04:55Z</time>
      </trkpt>
      <trkpt lat="45.85068" lon="1.21956">
        <ele>326.5</ele>
        <time>2024-11-12T08:04:56Z</time>
      </trkpt>
      <trkpt lat="45.85069" lon="1.21955">
        <ele>326.6</ele>
        <time>2024-11-12T08:04:57Z</time>
      </trkpt>
      <trkpt lat="45.8507" lon="1.21954">
        <ele>326.7</ele>
        <time>2024-11-12T08:04:58Z</time>
      </trkpt>
      <trkpt lat="45.8507" lon="1.21952">
        <ele>326.8</ele>
        <time>2024-11-12T08:04:59Z</time>
      </trkpt>
      <trkpt lat="45.85071" lon="1.21951">
        <ele>326.9</ele>
        <time>2024-11-12T08:05:00Z</time>
      </trkpt>
      <trkpt lat="45.85072" lon="1.21948">
        <ele>327.1</ele>
        <time>2024-11-12T08:05:01Z</time>
      </trkpt>
      <trkpt lat="45.85072" lon="1.21947">
        <ele>327.2</ele>
        <time>2024-11-12T08:05:02Z</time>
      </trkpt>
      <trkpt lat="45.85073" lon="1.21945">
        <ele>327.3</ele>
        <time>2024-11-12T08:05:03Z</time>
      </trkpt>
      <trkpt lat="45.85073" lon="1.21944">
        <ele>327.4</ele>
        <time>2024-11-12T08:05:04Z</time>
      </trkpt>
      <trkpt lat="45.85074" lon="1.21942">
        <ele>327.5</ele>
        <time>2024-11-12T08:05:05Z</time>
      </trkpt>
      <trkpt lat="45.85074" lon="1.2194">
        <ele>327.6</ele>
        <time>2024-11-12T08:05:06Z</time>
      </trkpt>
      <trkpt lat="45.85075" lon="1.21937">
        <ele>327.8</ele>
        <time>2024-11-12T08:05:07Z</time>
      </trkpt>
      <trkpt lat="45.85076" lon="1.21936">
        <ele>327.8</ele>
        <time>2024-11-12T08:05:08Z</time>
      </trkpt>
      <trkpt lat="45.85076" lon="1.21935">
        <ele>327.9</ele>
        <time>2024-11-12T08:05:09Z</time>
      </trkpt>
      <trkpt lat="45.85077" lon="1.21933">
        <ele>328</ele>
        <time>2024-11-12T08:05:10Z</time>
      </trkpt>
      <trkpt lat="45.85078" lon="1.21931">
        <ele>328.2</ele>
        <time>2024-11-12T08:05:11Z</time>
      </trkpt>
      <trkpt lat="45.85078" lon="1.2193">
        <ele>328.2</ele>
        <time>2024-11-12T08:05:12Z</time>
      </trkpt>
      <trkpt lat="45.85079" lon="1.21928">
        <ele>328.3</ele>
        <time>2024-11-12T08:05:13Z</time>
      </trkpt>
      <trkpt lat="45.85079" lon="1.21927">
        <ele>328.4</ele>
        <time>2024-11-12T08:05:14Z</time>
      </trkpt>
      <trkpt lat="45.85081" lon="1.21925">
        <ele>328.6</ele>
        <time>2024-11-12T08:05:15Z</time>
      </trkpt>
      <trkpt lat="45.85082" lon="1.21925">
        <ele>328.7</ele>
        <time>2024-11-12T08:05:16Z</time>
      </trkpt>
      <trkpt lat="45.85083" lon="1.21924">
        <ele>328.7</ele>
        <time>2024-11-12T08:05:17Z</time>
      </trkpt>
      <trkpt lat="45.85084" lon="1.21923">
        <ele>328.8</ele>
        <time>2024-11-12T08:05:18Z</time>
      </trkpt>
      <trkpt lat="45.85085" lon="1.21922">
        <ele>328.9</ele>
        <time>2024-11-12T08:05:19Z</time>
      </trkpt>
      <trkpt lat="45.85085" lon="1.21921">
        <ele>329</ele>
        <time>2024-11-12T08:05:20Z</time>
      </trkpt>
      <trkpt lat="45.85085" lon="1.21918">
        <ele>329.2</ele>
        <time>2024-11-12T08:05:21Z</time>
      </trkpt>
      <trkpt lat="45.85085" lon="1.21916">
        <ele>329.3</ele>
        <time>2024-11-12T08:05:22Z</time>
      </trkpt>
      <trkpt lat="45.85085" lon="1.21914">
        <ele>329.4</ele>
        <time>2024-11-12T08:05:23Z</time>
      </trkpt>
      <trkpt lat="45.85086" lon="1.21912">
        <ele>329.5</ele>
        <time>2024-11-12T08:05:24Z</time>
      </trkpt>
      <trkpt lat="45.85087" lon="1.21911">
        <ele>329.6</ele>
        <time>2024-11-12T08:05:25Z</time>
      </trkpt>
      <trkpt lat="45.85087" lon="1.21909">
        <ele>329.7</ele>
        <time>2024-11-12T08:05:26Z</time>
      </trkpt>
      <trkpt lat="45.85088" lon="1.21906">
        <ele>329.9</ele>
        <time>2024-11-12T08:05:27Z</time>
      </trkpt>
      <trkpt lat="45.85088" lon="1.21905">
        <ele>330</ele>
        <time>2024-11-12T08:05:28Z</time>
      </trkpt>
      <trkpt lat="45.85088" lon="1.21904">
        <ele>330.1</ele>
        <time>2024-11-12T08:05:29Z</time>
      </trkpt>
      <trkpt lat="45.85089" lon="1.21902">
        <ele>330.2</ele>
        <time>2024-11-12T08:05:30Z</time>
      </trkpt>
      <trkpt lat="45.8509" lon="1.21901">
        <ele>330.3</ele>
        <time>2024-11-12T08:05:31Z</time>
      </trkpt>
      <trkpt lat="45.8509" lon="1.21899">
        <ele>330.4</ele>
        <time>2024-11-12T08:05:32Z</time>
      </trkpt>
      <trkpt lat="45.85091" lon="1.21898">
        <ele>330.5</ele>
        <time>2024-11-12T08:05:33Z</time>
      </trkpt>
      <trkpt lat="45.85092" lon="1.21897">
        <ele>330.6</ele>
        <time>2024-11-12T08:05:34Z</time>
      </trkpt>
      <trkpt lat="45.85092" lon="1.21895">
        <ele>330.7</ele>
        <time>2024-11-12T08:05:35Z</time>
      </trkpt>
      <trkpt lat="45.85093" lon="1.21893">
        <ele>330.8</ele>
        <time>2024-11-12T08:05:36Z</time>
      </trkpt>
      <trkpt lat="45.85093" lon="1.21891">
        <ele>330.9</ele>
        <time>2024-11-12T08:05:37Z</time>
      </trkpt>
      <trkpt lat="45.85093" lon="1.2189">
        <ele>331</ele>
        <time>2024-11-12T08:05:38Z</time>
      </trkpt>
      <trkpt lat="45.85094" lon="1.21887">
        <ele>331.2</ele>
        <time>2024-11-12T08:05:39Z</time>
      </trkpt>
      <trkpt lat="45.85094" lon="1.21886">
        <ele>331.2</ele>
        <time>2024-11-12T08:05:40Z</time>
      </trkpt>
      <trkpt lat="45.85094" lon="1.21885">
        <ele>331.3</ele>
        <time>2024-11-12T08:05:41Z</time>
      </trkpt>
      <trkpt lat="45.85095" lon="1.21882">
        <ele>331.5</ele>
        <time>2024-11-12T08:05:42Z</time>
      </trkpt>
      <trkpt lat="45.85095" lon="1.21881">
        <ele>331.6</ele>
        <time>2024-11-12T08:05:43Z</time>
      </trkpt>
      <trkpt lat="45.85095" lon="1.2188">
        <ele>331.6</ele>
        <time>2024-11-12T08:05:44Z</time>
      </trkpt>
      <trkpt lat="45.85096" lon="1.21877">
        <ele>331.8</ele>
        <time>2024-11-12T08:05:45Z</time>
      </trkpt>
      <trkpt lat="45.85096" lon="1.21876">
        <ele>331.9</ele>
        <time>2024-11-12T08:05:46Z</time>
      </trkpt>
      <trkpt lat="45.85096" lon="1.21875">
        <ele>332</ele>
        <time>2024-11-12T08:05:47Z</time>
      </trkpt>
      <trkpt lat="45.85097" lon="1.21872">
        <ele>332.1</ele>
        <time>2024-11-12T08:05:48Z</time>
      </trkpt>
      <trkpt lat="45.85097" lon="1.21871">
        <ele>332.2</ele>
        <time>2024-11-12T08:05:49Z</time>
      </trkpt>
      <trkpt lat="45.85097" lon="1.2187">
        <ele>332.3</ele>
        <time>2024-11-12T08:05:50Z</time>
      </trkpt>
      <trkpt lat="45.85098" lon="1.21868">
        <ele>332.4</ele>
        <time>2024-11-12T08:05:51Z</time>
      </trkpt>
      <trkpt lat="45.85099" lon="1.21867">
        <ele>332.5</ele>
        <time>2024-11-12T08:05:52Z</time>
      </trkpt>
      <trkpt lat="45.85099" lon="1.21865">
        <ele>332.6</ele>
        <time>2024-11-12T08:05:53Z</time>
      </trkpt>
      <trkpt lat="45.851" lon="1.21864">
        <ele>332.7</ele>
        <time>2024-11-12T08:05:54Z</time>
      </trkpt>
      <trkpt lat="45.85101" lon="1.21863">
        <ele>332.6</ele>
        <time>2024-11-12T08:05:55Z</time>
      </trkpt>
      <trkpt lat="45.85102" lon="1.21862">
        <ele>332.7</ele>
        <time>2024-11-12T08:05:56Z</time>
      </trkpt>
      <trkpt lat="45.85103" lon="1.21861">
        <ele>332.7</ele>
        <time>2024-11-12T08:05:57Z</time>
      </trkpt>
      <trkpt lat="45.85104" lon="1.21861">
        <ele>332.6</ele>
        <time>2024-11-12T08:05:58Z</time>
      </trkpt>
      <trkpt lat="45.85105" lon="1.2186">
        <ele>332.6</ele>
        <time>2024-11-12T08:05:59Z</time>
      </trkpt>
      <trkpt lat="45.85107" lon="1.2186">
        <ele>332.5</ele>
        <time>2024-11-12T08:06:00Z</time>
      </trkpt>
      <trkpt lat="45.85107" lon="1.2186">
        <ele>332.5</ele>
        <time>2024-11-12T08:06:01Z</time>
      </trkpt>
      <trkpt lat="45.85108" lon="1.2186">
        <ele>332.4</ele>
        <time>2024-11-12T08:06:02Z</time>
      </trkpt>
      <trkpt lat="45.85109" lon="1.21859">
        <ele>332.4</ele>
        <time>2024-11-12T08:06:03Z</time>
      </trkpt>
      <trkpt lat="45.8511" lon="1.21859">
        <ele>332.3</ele>
        <time>2024-11-12T08:06:04Z</time>
      </trkpt>
      <trkpt lat="45.85111" lon="1.21858">
        <ele>332.4</ele>
        <time>2024-11-12T08:06:05Z</time>
      </trkpt>
      <trkpt lat="45.85112" lon="1.21857">
        <ele>332.4</ele>
        <time>2024-11-12T08:06:06Z</time>
      </trkpt>
      <trkpt lat="45.85113" lon="1.21856">
        <ele>332.3</ele>
        <time>2024-11-12T08:06:07Z</time>
      </trkpt>
      <trkpt lat="45.85114" lon="1.21855">
        <ele>332.3</ele>
        <time>2024-11-12T08:06:08Z</time>
      </trkpt>
      <trkpt lat="45.85115" lon="1.21854">
        <ele>332.2</ele>
        <time>2024-11-12T08:06:09Z</time>
      </trkpt>
      <trkpt lat="45.85116" lon="1.21853">
        <ele>332.3</ele>
        <time>2024-11-12T08:06:10Z</time>
      </trkpt>
      <trkpt lat="45.85116" lon="1.21852">
        <ele>332.3</ele>
        <time>2024-11-12T08:06:11Z</time>
      </trkpt>
      <trkpt lat="45.85118" lon="1.21851">
        <ele>332.2</ele>
        <time>2024-11-12T08:06:12Z</time>
      </trkpt>
      <trkpt lat="45.85119" lon="1.2185">
        <ele>332.2</ele>
        <time>2024-11-12T08:06:13Z</time>
      </trkpt>
      <trkpt lat="45.85119" lon="1.2185">
        <ele>332.3</ele>
        <time>2024-11-12T08:06:14Z</time>
      </trkpt>
      <trkpt lat="45.85121" lon="1.21848">
        <ele>332.2</ele>
        <time>2024-11-12T08:06:15Z</time>
      </trkpt>
      <trkpt lat="45.85122" lon="1.21847">
        <ele>332.2</ele>
        <time>2024-11-12T08:06:16Z</time>
      </trkpt>
      <trkpt lat="45.85122" lon="1.21846">
        <ele>332.1</ele>
        <time>2024-11-12T08:06:17Z</time>
      </trkpt>
      <trkpt lat="45.85123" lon="1.21846">
        <ele>332</ele>
        <time>2024-11-12T08:06:18Z</time>
      </trkpt>
      <trkpt lat="45.85124" lon="1.21845">
        <ele>332.2</ele>
        <time>2024-11-12T08:06:19Z</time>
      </trkpt>
      <trkpt lat="45.85125" lon="1.21845">
        <ele>332.1</ele>
        <time>2024-11-12T08:06:20Z</time>
      </trkpt>
      <trkpt lat="45.85126" lon="1.21844">
        <ele>332</ele>
        <time>2024-11-12T08:06:21Z</time>
      </trkpt>
      <trkpt lat="45.85128" lon="1.21842">
        <ele>332</ele>
        <time>2024-11-12T08:06:22Z</time>
      </trkpt>
      <trkpt lat="45.85128" lon="1.21841">
        <ele>332.1</ele>
        <time>2024-11-12T08:06:23Z</time>
      </trkpt>
      <trkpt lat="45.85129" lon="1.2184">
        <ele>332</ele>
        <time>2024-11-12T08:06:24Z</time>
      </trkpt>
      <trkpt lat="45.8513" lon="1.21838">
        <ele>332</ele>
        <time>2024-11-12T08:06:25Z</time>
      </trkpt>
      <trkpt lat="45.85131" lon="1.21837">
        <ele>331.9</ele>
        <time>2024-11-12T08:06:26Z</time>
      </trkpt>
      <trkpt lat="45.85131" lon="1.21835">
        <ele>332</ele>
        <time>2024-11-12T08:06:27Z</time>
      </trkpt>
      <trkpt lat="45.85132" lon="1.21834">
        <ele>332</ele>
        <time>2024-11-12T08:06:28Z</time>
      </trkpt>
      <trkpt lat="45.85133" lon="1.21833">
        <ele>331.9</ele>
        <time>2024-11-12T08:06:29Z</time>
      </trkpt>
      <trkpt lat="45.85134" lon="1.21832">
        <ele>332</ele>
        <time>2024-11-12T08:06:30Z</time>
      </trkpt>
      <trkpt lat="45.85135" lon="1.2183">
        <ele>332</ele>
        <time>2024-11-12T08:06:31Z</time>
      </trkpt>
      <trkpt lat="45.85136" lon="1.21829">
        <ele>331.9</ele>
        <time>2024-11-12T08:06:32Z</time>
      </trkpt>
      <trkpt lat="45.85137" lon="1.21828">
        <ele>332</ele>
        <time>2024-11-12T08:06:33Z</time>
      </trkpt>
      <trkpt lat="45.85138" lon="1.21826">
        <ele>332</ele>
        <time>2024-11-12T08:06:34Z</time>
      </trkpt>
      <trkpt lat="45.85138" lon="1.21825">
        <ele>331.9</ele>
        <time>2024-11-12T08:06:35Z</time>
      </trkpt>
      <trkpt lat="45.85139" lon="1.21824">
        <ele>332</ele>
        <time>2024-11-12T08:06:36Z</time>
      </trkpt>
      <trkpt lat="45.85141" lon="1.21822">
        <ele>331.9</ele>
        <time>2024-11-12T08:06:37Z</time>
      </trkpt>
      <trkpt lat="45.85141" lon="1.21821">
        <ele>331.9</ele>
        <time>2024-11-12T08:06:38Z</time>
      </trkpt>
      <trkpt lat="45.85142" lon="1.2182">
        <ele>331.8</ele>
        <time>2024-11-12T08:06:39Z</time>
      </trkpt>
      <trkpt lat="45.85144" lon="1.21819">
        <ele>331.9</ele>
        <time>2024-11-12T08:06:40Z</time>
      </trkpt>
      <trkpt lat="45.85145" lon="1.21818">
        <ele>331.9</ele>
        <time>2024-11-12T08:06:41Z</time>
      </trkpt>
      <trkpt lat="45.85145" lon="1.21818">
        <ele>331.8</ele>
        <time>2024-11-12T08:06:42Z</time>
      </trkpt>
      <trkpt lat="45.85146" lon="1.21818">
        <ele>331.8</ele>
        <time>2024-11-12T08:06:43Z</time>
      </trkpt>
      <trkpt lat="45.85147" lon="1.21817">
        <ele>331.7</ele>
        <time>2024-11-12T08:06:44Z</time>
      </trkpt>
      <trkpt lat="45.85148" lon="1.21816">
        <ele>331.7</ele>
        <time>2024-11-12T08:06:45Z</time>
      </trkpt>
      <trkpt lat="45.85149" lon="1.21815">
        <ele>331.8</ele>
        <time>2024-11-12T08:06:46Z</time>
      </trkpt>
      <trkpt lat="45.8515" lon="1.21813">
        <ele>331.8</ele>
        <time>2024-11-12T08:06:47Z</time>
      </trkpt>
      <trkpt lat="45.85151" lon="1.21813">
        <ele>331.9</ele>
        <time>2024-11-12T08:06:48Z</time>
      </trkpt>
      <trkpt lat="45.85152" lon="1.21811">
        <ele>331.9</ele>
        <time>2024-11-12T08:06:49Z</time>
      </trkpt>
      <trkpt lat="45.85152" lon="1.2181">
        <ele>332</ele>
        <time>2024-11-12T08:06:50Z</time>
      </trkpt>
      <trkpt lat="45.85153" lon="1.21809">
        <ele>332</ele>
        <time>2024-11-12T08:06:51Z</time>
      </trkpt>
      <trkpt lat="45.85154" lon="1.21807">
        <ele>332.1</ele>
        <time>2024-11-12T08:06:52Z</time>
      </trkpt>
      <trkpt lat="45.85155" lon="1.21806">
        <ele>332.2</ele>
        <time>2024-11-12T08:06:53Z</time>
      </trkpt>
      <trkpt lat="45.85156" lon="1.21805">
        <ele>332.2</ele>
        <time>2024-11-12T08:06:54Z</time>
      </trkpt>
      <trkpt lat="45.85157" lon="1.21803">
        <ele>332.3</ele>
        <time>2024-11-12T08:06:55Z</time>
      </trkpt>
      <trkpt lat="45.85158" lon="1.21802">
        <ele>332.3</ele>
        <time>2024-11-12T08:06:56Z</time>
      </trkpt>
      <trkpt lat="45.85158" lon="1.21801">
        <ele>332.4</ele>
        <time>2024-11-12T08:06:57Z</time>
      </trkpt>
      <trkpt lat="45.85159" lon="1.218">
        <ele>332.4</ele>
        <time>2024-11-12T08:06:58Z</time>
      </trkpt>
      <trkpt lat="45.8516" lon="1.21798">
        <ele>332.5</ele>
        <time>2024-11-12T08:06:59Z</time>
      </trkpt>
      <trkpt lat="45.85161" lon="1.21797">
        <ele>332.6</ele>
        <time>2024-11-12T08:07:00Z</time>
      </trkpt>
      <trkpt lat="45.85162" lon="1.21795">
        <ele>332.6</ele>
        <time>2024-11-12T08:07:01Z</time>
      </trkpt>
      <trkpt lat="45.85164" lon="1.21793">
        <ele>332.7</ele>
        <time>2024-11-12T08:07:02Z</time>
      </trkpt>
      <trkpt lat="45.85164" lon="1.21792">
        <ele>332.8</ele>
        <time>2024-11-12T08:07:03Z</time>
      </trkpt>
      <trkpt lat="45.85165" lon="1.21791">
        <ele>332.8</ele>
        <time>2024-11-12T08:07:04Z</time>
      </trkpt>
      <trkpt lat="45.85166" lon="1.21789">
        <ele>332.9</ele>
        <time>2024-11-12T08:07:05Z</time>
      </trkpt>
      <trkpt lat="45.85167" lon="1.21788">
        <ele>333</ele>
        <time>2024-11-12T08:07:06Z</time>
      </trkpt>
      <trkpt lat="45.85167" lon="1.21787">
        <ele>333</ele>
        <time>2024-11-12T08:07:07Z</time>
      </trkpt>
      <trkpt lat="45.85168" lon="1.21786">
        <ele>333</ele>
        <time>2024-11-12T08:07:08Z</time>
      </trkpt>
      <trkpt lat="45.85169" lon="1.21785">
        <ele>333.1</ele>
        <time>2024-11-12T08:07:09Z</time>
      </trkpt>
      <trkpt lat="45.85169" lon="1.21784">
        <ele>333.2</ele>
        <time>2024-11-12T08:07:10Z</time>
      </trkpt>
      <trkpt lat="45.8517" lon="1.21783">
        <ele>333.2</ele>
        <time>2024-11-12T08:07:11Z</time>
      </trkpt>
      <trkpt lat="45.85172" lon="1.21781">
        <ele>333.3</ele>
        <time>2024-11-12T08:07:12Z</time>
      </trkpt>
      <trkpt lat="45.85172" lon="1.2178">
        <ele>333.3</ele>
        <time>2024-11-12T08:07:13Z</time>
      </trkpt>
      <trkpt lat="45.85173" lon="1.21779">
        <ele>333.4</ele>
        <time>2024-11-12T08:07:14Z</time>
      </trkpt>
      <trkpt lat="45.85174" lon="1.21778">
        <ele>333.5</ele>
        <time>2024-11-12T08:07:15Z</time>
      </trkpt>
      <trkpt lat="45.85175" lon="1.21776">
        <ele>333.5</ele>
        <time>2024-11-12T08:07:16Z</time>
      </trkpt>
      <trkpt lat="45.85176" lon="1.21774">
        <ele>333.6</ele>
        <time>2024-11-12T08:07:17Z</time>
      </trkpt>
      <trkpt lat="45.85177" lon="1.21774">
        <ele>333.7</ele>
        <time>2024-11-12T08:07:18Z</time>
      </trkpt>
      <trkpt lat="45.85178" lon="1.21773">
        <ele>333.7</ele>
        <time>2024-11-12T08:07:19Z</time>
      </trkpt>
      <trkpt lat="45.85178" lon="1.21771">
        <ele>333.8</ele>
        <time>2024-11-12T08:07:20Z</time>
      </trkpt>
      <trkpt lat="45.85179" lon="1.2177">
        <ele>333.9</ele>
        <time>2024-11-12T08:07:21Z</time>
      </trkpt>
      <trkpt lat="45.8518" lon="1.21769">
        <ele>333.9</ele>
        <time>2024-11-12T08:07:22Z</time>
      </trkpt>
      <trkpt lat="45.85181" lon="1.21768">
        <ele>334</ele>
        <time>2024-11-12T08:07:23Z</time>
      </trkpt>
      <trkpt lat="45.85182" lon="1.21765">
        <ele>334.1</ele>
        <time>2024-11-12T08:07:24Z</time>
      </trkpt>
      <trkpt lat="45.85183" lon="1.21764">
        <ele>334.1</ele>
        <time>2024-11-12T08:07:25Z</time>
      </trkpt>
      <trkpt lat="45.85183" lon="1.21764">
        <ele>334.2</ele>
        <time>2024-11-12T08:07:26Z</time>
      </trkpt>
      <trkpt lat="45.85185" lon="1.21761">
        <ele>334.3</ele>
        <time>2024-11-12T08:07:27Z</time>
      </trkpt>
      <trkpt lat="45.85186" lon="1.21761">
        <ele>334.3</ele>
        <time>2024-11-12T08:07:28Z</time>
      </trkpt>
      <trkpt lat="45.85187" lon="1.2176">
        <ele>334.4</ele>
        <time>2024-11-12T08:07:29Z</time>
      </trkpt>
      <trkpt lat="45.85188" lon="1.21759">
        <ele>334.5</ele>
        <time>2024-11-12T08:07:30Z</time>
      </trkpt>
      <trkpt lat="45.85189" lon="1.21758">
        <ele>334.5</ele>
        <time>2024-11-12T08:07:31Z</time>
      </trkpt>
      <trkpt lat="45.85189" lon="1.21757">
        <ele>334.6</ele>
        <time>2024-11-12T08:07:32Z</time>
      </trkpt>
      <trkpt lat="45.8519" lon="1.21756">
        <ele>334.6</ele>
        <time>2024-11-12T08:07:33Z</time>
      </trkpt>
      <trkpt lat="45.85191" lon="1.21755">
        <ele>334.7</ele>
        <time>2024-11-12T08:07:34Z</time>
      </trkpt>
      <trkpt lat="45.85192" lon="1.21754">
        <ele>334.8</ele>
        <time>2024-11-12T08:07:35Z</time>
      </trkpt>
      <trkpt lat="45.85193" lon="1.21752">
        <ele>334.8</ele>
        <time>2024-11-12T08:07:36Z</time>
      </trkpt>
      <trkpt lat="45.85194" lon="1.21751">
        <ele>334.9</ele>
        <time>2024-11-12T08:07:37Z</time>
      </trkpt>
      <trkpt lat="45.85195" lon="1.2175">
        <ele>335</ele>
        <time>2024-11-12T08:07:38Z</time>
      </trkpt>
      <trkpt lat="45.85196" lon="1.21749">
        <ele>335</ele>
        <time>2024-11-12T08:07:39Z</time>
      </trkpt>
      <trkpt lat="45.85197" lon="1.21748">
        <ele>335.1</ele>
        <time>2024-11-12T08:07:40Z</time>
      </trkpt>
      <trkpt lat="45.85197" lon="1.21747">
        <ele>335.2</ele>
        <time>2024-11-12T08:07:41Z</time>
      </trkpt>
      <trkpt lat="45.85199" lon="1.21745">
        <ele>335.2</ele>
        <time>2024-11-12T08:07:42Z</time>
      </trkpt>
      <trkpt lat="45.85199" lon="1.21745">
        <ele>335.3</ele>
        <time>2024-11-12T08:07:43Z</time>
      </trkpt>
      <trkpt lat="45.852" lon="1.21743">
        <ele>335.3</ele>
        <time>2024-11-12T08:07:44Z</time>
      </trkpt>
      <trkpt lat="45.852" lon="1.21742">
        <ele>335.4</ele>
        <time>2024-11-12T08:07:45Z</time>
      </trkpt>
      <trkpt lat="45.85201" lon="1.21741">
        <ele>335.5</ele>
        <time>2024-11-12T08:07:46Z</time>
      </trkpt>
      <trkpt lat="45.85202" lon="1.21738">
        <ele>335.5</ele>
        <time>2024-11-12T08:07:47Z</time>
      </trkpt>
      <trkpt lat="45.85202" lon="1.21738">
        <ele>335.6</ele>
        <time>2024-11-12T08:07:48Z</time>
      </trkpt>
      <trkpt lat="45.85203" lon="1.21736">
        <ele>335.6</ele>
        <time>2024-11-12T08:07:49Z</time>
      </trkpt>
      <trkpt lat="45.85204" lon="1.21735">
        <ele>335.7</ele>
        <time>2024-11-12T08:07:50Z</time>
      </trkpt>
      <trkpt lat="45.85205" lon="1.21734">
        <ele>335.8</ele>
        <time>2024-11-12T08:07:51Z</time>
      </trkpt>
      <trkpt lat="45.85206" lon="1.21732">
        <ele>335.9</ele>
        <time>2024-11-12T08:07:52Z</time>
      </trkpt>
      <trkpt lat="45.85207" lon="1.21732">
        <ele>335.9</ele>
        <time>2024-11-12T08:07:53Z</time>
      </trkpt>
      <trkpt lat="45.85208" lon="1.21731">
        <ele>336</ele>
        <time>2024-11-12T08:07:54Z</time>
      </trkpt>
      <trkpt lat="45.85209" lon="1.2173">
        <ele>336</ele>
        <time>2024-11-12T08:07:55Z</time>
      </trkpt>
      <trkpt lat="45.8521" lon="1.21729">
        <ele>336.1</ele>
        <time>2024-11-12T08:07:56Z</time>
      </trkpt>
      <trkpt lat="45.85212" lon="1.21727">
        <ele>336.2</ele>
        <time>2024-11-12T08:07:57Z</time>
      </trkpt>
      <trkpt lat="45.85212" lon="1.21726">
        <ele>336.2</ele>
        <time>2024-11-12T08:07:58Z</time>
      </trkpt>
      <trkpt lat="45.85213" lon="1.21725">
        <ele>336.3</ele>
        <time>2024-11-12T08:07:59Z</time>
      </trkpt>
      <trkpt lat="45.85214" lon="1.21724">
        <ele>336.4</ele>
        <time>2024-11-12T08:08:00Z</time>
      </trkpt>
      <trkpt lat="45.85215" lon="1.21723">
        <ele>336.4</ele>
        <time>2024-11-12T08:08:01Z</time>
      </trkpt>
      <trkpt lat="45.85217" lon="1.21721">
        <ele>336.5</ele>
        <time>2024-11-12T08:08:02Z</time>
      </trkpt>
      <trkpt lat="45.85217" lon="1.2172">
        <ele>336.6</ele>
        <time>2024-11-12T08:08:03Z</time>
      </trkpt>
      <trkpt lat="45.85218" lon="1.21718">
        <ele>336.6</ele>
        <time>2024-11-12T08:08:04Z</time>
      </trkpt>
      <trkpt lat="45.85218" lon="1.21717">
        <ele>336.7</ele>
        <time>2024-11-12T08:08:05Z</time>
      </trkpt>
      <trkpt lat="45.85219" lon="1.21716">
        <ele>336.8</ele>
        <time>2024-11-12T08:08:06Z</time>
      </trkpt>
      <trkpt lat="45.8522" lon="1.21714">
        <ele>336.8</ele>
        <time>2024-11-12T08:08:07Z</time>
      </trkpt>
      <trkpt lat="45.85221" lon="1.21713">
        <ele>336.9</ele>
        <time>2024-11-12T08:08:08Z</time>
      </trkpt>
      <trkpt lat="45.85222" lon="1.21712">
        <ele>336.9</ele>
        <time>2024-11-12T08:08:09Z</time>
      </trkpt>
      <trkpt lat="45.85223" lon="1.21711">
        <ele>337</ele>
        <time>2024-11-12T08:08:10Z</time>
      </trkpt>
      <trkpt lat="45.85224" lon="1.2171">
        <ele>337.1</ele>
        <time>2024-11-12T08:08:11Z</time>
      </trkpt>
      <trkpt lat="45.85226" lon="1.21709">
        <ele>337.2</ele>
        <time>2024-11-12T08:08:12Z</time>
      </trkpt>
      <trkpt lat="45.85227" lon="1.21709">
        <ele>337.2</ele>
        <time>2024-11-12T08:08:13Z</time>
      </trkpt>
      <trkpt lat="45.85228" lon="1.21709">
        <ele>337.3</ele>
        <time>2024-11-12T08:08:14Z</time>
      </trkpt>
      <trkpt lat="45.85229" lon="1.21709">
        <ele>337.3</ele>
        <time>2024-11-12T08:08:15Z</time>
      </trkpt>
      <trkpt lat="45.8523" lon="1.21708">
        <ele>337.4</ele>
        <time>2024-11-12T08:08:16Z</time>
      </trkpt>
      <trkpt lat="45.85232" lon="1.21708">
        <ele>337.4</ele>
        <time>2024-11-12T08:08:17Z</time>
      </trkpt>
      <trkpt lat="45.85233" lon="1.21708">
        <ele>337.5</ele>
        <time>2024-11-12T08:08:18Z</time>
      </trkpt>
      <trkpt lat="45.85234" lon="1.21708">
        <ele>337.5</ele>
        <time>2024-11-12T08:08:19Z</time>
      </trkpt>
      <trkpt lat="45.85235" lon="1.21708">
        <ele>337.6</ele>
        <time>2024-11-12T08:08:20Z</time>
      </trkpt>
      <trkpt lat="45.85236" lon="1.21708">
        <ele>337.7</ele>
        <time>2024-11-12T08:08:21Z</time>
      </trkpt>
      <trkpt lat="45.85238" lon="1.21709">
        <ele>337.8</ele>
        <time>2024-11-12T08:08:22Z</time>
      </trkpt>
      <trkpt lat="45.85239" lon="1.21709">
        <ele>337.8</ele>
        <time>2024-11-12T08:08:23Z</time>
      </trkpt>
      <trkpt lat="45.8524" lon="1.2171">
        <ele>337.9</ele>
        <time>2024-11-12T08:08:24Z</time>
      </trkpt>
      <trkpt lat="45.85242" lon="1.21709">
        <ele>338</ele>
        <time>2024-11-12T08:08:25Z</time>
      </trkpt>
      <trkpt lat="45.85243" lon="1.21709">
        <ele>338</ele>
        <time>2024-11-12T08:08:26Z</time>
      </trkpt>
      <trkpt lat="45.85243" lon="1.21709">
        <ele>338</ele>
        <time>2024-11-12T08:08:27Z</time>
      </trkpt>
      <trkpt lat="45.85244" lon="1.21708">
        <ele>338.1</ele>
        <time>2024-11-12T08:08:28Z</time>
      </trkpt>
      <trkpt lat="45.85245" lon="1.21708">
        <ele>338.1</ele>
        <time>2024-11-12T08:08:29Z</time>
      </trkpt>
      <trkpt lat="45.85246" lon="1.21706">
        <ele>338.2</ele>
        <time>2024-11-12T08:08:30Z</time>
      </trkpt>
      <trkpt lat="45.85247" lon="1.21705">
        <ele>338.3</ele>
        <time>2024-11-12T08:08:31Z</time>
      </trkpt>
      <trkpt lat="45.85248" lon="1.21703">
        <ele>338.4</ele>
        <time>2024-11-12T08:08:32Z</time>
      </trkpt>
      <trkpt lat="45.85249" lon="1.21702">
        <ele>338.4</ele>
        <time>2024-11-12T08:08:33Z</time>
      </trkpt>
      <trkpt lat="45.8525" lon="1.21701">
        <ele>338.5</ele>
        <time>2024-11-12T08:08:34Z</time>
      </trkpt>
      <trkpt lat="45.85251" lon="1.217">
        <ele>338.5</ele>
        <time>2024-11-12T08:08:35Z</time>
      </trkpt>
      <trkpt lat="45.85252" lon="1.21699">
        <ele>338.6</ele>
        <time>2024-11-12T08:08:36Z</time>
      </trkpt>
      <trkpt lat="45.85253" lon="1.21698">
        <ele>338.7</ele>
        <time>2024-11-12T08:08:37Z</time>
      </trkpt>
      <trkpt lat="45.85254" lon="1.21697">
        <ele>338.7</ele>
        <time>2024-11-12T08:08:38Z</time>
      </trkpt>
      <trkpt lat="45.85255" lon="1.21696">
        <ele>338.8</ele>
        <time>2024-11-12T08:08:39Z</time>
      </trkpt>
      <trkpt lat="45.85256" lon="1.21695">
        <ele>338.8</ele>
        <time>2024-11-12T08:08:40Z</time>
      </trkpt>
      <trkpt lat="45.85257" lon="1.21694">
        <ele>338.9</ele>
        <time>2024-11-12T08:08:41Z</time>
      </trkpt>
      <trkpt lat="45.85259" lon="1.21693">
        <ele>339</ele>
        <time>2024-11-12T08:08:42Z</time>
      </trkpt>
      <trkpt lat="45.8526" lon="1.21693">
        <ele>339</ele>
        <time>2024-11-12T08:08:43Z</time>
      </trkpt>
      <trkpt lat="45.85261" lon="1.21692">
        <ele>339.1</ele>
        <time>2024-11-12T08:08:44Z</time>
      </trkpt>
      <trkpt lat="45.85262" lon="1.21691">
        <ele>339.1</ele>
        <time>2024-11-12T08:08:45Z</time>
      </trkpt>
      <trkpt lat="45.85264" lon="1.2169">
        <ele>339.2</ele>
        <time>2024-11-12T08:08:46Z</time>
      </trkpt>
      <trkpt lat="45.85265" lon="1.2169">
        <ele>339.3</ele>
        <time>2024-11-12T08:08:47Z</time>
      </trkpt>
      <trkpt lat="45.85266" lon="1.21689">
        <ele>339.3</ele>
        <time>2024-11-12T08:08:48Z</time>
      </trkpt>
      <trkpt lat="45.85267" lon="1.21687">
        <ele>339.4</ele>
        <time>2024-11-12T08:08:49Z</time>
      </trkpt>
      <trkpt lat="45.85268" lon="1.21687">
        <ele>339.5</ele>
        <time>2024-11-12T08:08:50Z</time>
      </trkpt>
      <trkpt lat="45.85269" lon="1.21686">
        <ele>339.5</ele>
        <time>2024-11-12T08:08:51Z</time>
      </trkpt>
      <trkpt lat="45.8527" lon="1.21685">
        <ele>339.6</ele>
        <time>2024-11-12T08:08:52Z</time>
      </trkpt>
      <trkpt lat="45.85271" lon="1.21683">
        <ele>339.7</ele>
        <time>2024-11-12T08:08:53Z</time>
      </trkpt>
      <trkpt lat="45.85272" lon="1.21682">
        <ele>339.7</ele>
        <time>2024-11-12T08:08:54Z</time>
      </trkpt>
      <trkpt lat="45.85273" lon="1.21681">
        <ele>339.8</ele>
        <time>2024-11-12T08:08:55Z</time>
      </trkpt>
      <trkpt lat="45.85275" lon="1.21678">
        <ele>339.9</ele>
        <time>2024-11-12T08:08:56Z</time>
      </trkpt>
      <trkpt lat="45.85276" lon="1.21677">
        <ele>340</ele>
        <time>2024-11-12T08:08:58Z</time>
      </trkpt>
      <trkpt lat="45.85278" lon="1.21674">
        <ele>340.1</ele>
        <time>2024-11-12T08:08:59Z</time>
      </trkpt>
      <trkpt lat="45.85278" lon="1.21673">
        <ele>340.2</ele>
        <time>2024-11-12T08:09:00Z</time>
      </trkpt>
      <trkpt lat="45.85279" lon="1.21672">
        <ele>340.3</ele>
        <time>2024-11-12T08:09:01Z</time>
      </trkpt>
      <trkpt lat="45.8528" lon="1.21671">
        <ele>340.3</ele>
        <time>2024-11-12T08:09:02Z</time>
      </trkpt>
      <trkpt lat="45.85281" lon="1.2167">
        <ele>340.4</ele>
        <time>2024-11-12T08:09:03Z</time>
      </trkpt>
      <trkpt lat="45.85282" lon="1.21669">
        <ele>340.5</ele>
        <time>2024-11-12T08:09:04Z</time>
      </trkpt>
      <trkpt lat="45.85283" lon="1.21668">
        <ele>340.6</ele>
        <time>2024-11-12T08:09:05Z</time>
      </trkpt>
      <trkpt lat="45.85284" lon="1.21667">
        <ele>340.6</ele>
        <time>2024-11-12T08:09:06Z</time>
      </trkpt>
      <trkpt lat="45.85286" lon="1.21666">
        <ele>340.8</ele>
        <time>2024-11-12T08:09:07Z</time>
      </trkpt>
      <trkpt lat="45.85287" lon="1.21665">
        <ele>340.8</ele>
        <time>2024-11-12T08:09:08Z</time>
      </trkpt>
      <trkpt lat="45.85287" lon="1.21664">
        <ele>340.9</ele>
        <time>2024-11-12T08:09:09Z</time>
      </trkpt>
      <trkpt lat="45.85289" lon="1.21663">
        <ele>341</ele>
        <time>2024-11-12T08:09:10Z</time>
      </trkpt>
      <trkpt lat="45.8529" lon="1.21662">
        <ele>341.1</ele>
        <time>2024-11-12T08:09:11Z</time>
      </trkpt>
      <trkpt lat="45.85291" lon="1.21662">
        <ele>341.1</ele>
        <time>2024-11-12T08:09:12Z</time>
      </trkpt>
      <trkpt lat="45.85292" lon="1.21661">
        <ele>341.2</ele>
        <time>2024-11-12T08:09:13Z</time>
      </trkpt>
      <trkpt lat="45.85293" lon="1.21661">
        <ele>341.3</ele>
        <time>2024-11-12T08:09:14Z</time>
      </trkpt>
      <trkpt lat="45.85295" lon="1.2166">
        <ele>341.4</ele>
        <time>2024-11-12T08:09:15Z</time>
      </trkpt>
      <trkpt lat="45.85296" lon="1.21659">
        <ele>341.5</ele>
        <time>2024-11-12T08:09:16Z</time>
      </trkpt>
      <trkpt lat="45.85297" lon="1.21659">
        <ele>341.5</ele>
        <time>2024-11-12T08:09:17Z</time>
      </trkpt>
      <trkpt lat="45.85298" lon="1.21658">
        <ele>341.6</ele>
        <time>2024-11-12T08:09:18Z</time>
      </trkpt>
      <trkpt lat="45.85299" lon="1.21658">
        <ele>341.6</ele>
        <time>2024-11-12T08:09:19Z</time>
      </trkpt>
      <trkpt lat="45.853" lon="1.21658">
        <ele>341.7</ele>
        <time>2024-11-12T08:09:20Z</time>
      </trkpt>
      <trkpt lat="45.85302" lon="1.21658">
        <ele>341.8</ele>
        <time>2024-11-12T08:09:21Z</time>
      </trkpt>
      <trkpt lat="45.85303" lon="1.21658">
        <ele>341.8</ele>
        <time>2024-11-12T08:09:22Z</time>
      </trkpt>
      <trkpt lat="45.85304" lon="1.21657">
        <ele>341.9</ele>
        <time>2024-11-12T08:09:23Z</time>
      </trkpt>
      <trkpt lat="45.85305" lon="1.21656">
        <ele>341.9</ele>
        <time>2024-11-12T08:09:24Z</time>
      </trkpt>
      <trkpt lat="45.85306" lon="1.21656">
        <ele>341.9</ele>
        <time>2024-11-12T08:09:25Z</time>
      </trkpt>
      <trkpt lat="45.85307" lon="1.21655">
        <ele>342</ele>
        <time>2024-11-12T08:09:26Z</time>
      </trkpt>
      <trkpt lat="45.85308" lon="1.21653">
        <ele>342.1</ele>
        <time>2024-11-12T08:09:27Z</time>
      </trkpt>
      <trkpt lat="45.85309" lon="1.21652">
        <ele>342.1</ele>
        <time>2024-11-12T08:09:28Z</time>
      </trkpt>
      <trkpt lat="45.85311" lon="1.21649">
        <ele>342.2</ele>
        <time>2024-11-12T08:09:29Z</time>
      </trkpt>
      <trkpt lat="45.85311" lon="1.21649">
        <ele>342.3</ele>
        <time>2024-11-12T08:09:30Z</time>
      </trkpt>
      <trkpt lat="45.85312" lon="1.21648">
        <ele>342.3</ele>
        <time>2024-11-12T08:09:31Z</time>
      </trkpt>
      <trkpt lat="45.85313" lon="1.21647">
        <ele>342.4</ele>
        <time>2024-11-12T08:09:32Z</time>
      </trkpt>
      <trkpt lat="45.85314" lon="1.21646">
        <ele>342.4</ele>
        <time>2024-11-12T08:09:33Z</time>
      </trkpt>
      <trkpt lat="45.85315" lon="1.21646">
        <ele>342.5</ele>
        <time>2024-11-12T08:09:34Z</time>
      </trkpt>
      <trkpt lat="45.85316" lon="1.21645">
        <ele>342.6</ele>
        <time>2024-11-12T08:09:35Z</time>
      </trkpt>
      <trkpt lat="45.85317" lon="1.21645">
        <ele>342.6</ele>
        <time>2024-11-12T08:09:36Z</time>
      </trkpt>
      <trkpt lat="45.85319" lon="1.21644">
        <ele>342.6</ele>
        <time>2024-11-12T08:09:37Z</time>
      </trkpt>
      <trkpt lat="45.8532" lon="1.21644">
        <ele>342.7</ele>
        <time>2024-11-12T08:09:38Z</time>
      </trkpt>
      <trkpt lat="45.85321" lon="1.21644">
        <ele>342.7</ele>
        <time>2024-11-12T08:09:39Z</time>
      </trkpt>
      <trkpt lat="45.85322" lon="1.21644">
        <ele>342.7</ele>
        <time>2024-11-12T08:09:40Z</time>
      </trkpt>
      <trkpt lat="45.85323" lon="1.21644">
        <ele>342.7</ele>
        <time>2024-11-12T08:09:41Z</time>
      </trkpt>
      <trkpt lat="45.85324" lon="1.21644">
        <ele>342.8</ele>
        <time>2024-11-12T08:09:42Z</time>
      </trkpt>
      <trkpt lat="45.85326" lon="1.21644">
        <ele>342.8</ele>
        <time>2024-11-12T08:09:43Z</time>
      </trkpt>
      <trkpt lat="45.85326" lon="1.21643">
        <ele>342.8</ele>
        <time>2024-11-12T08:09:44Z</time>
      </trkpt>
      <trkpt lat="45.85327" lon="1.21643">
        <ele>342.8</ele>
        <time>2024-11-12T08:09:45Z</time>
      </trkpt>
      <trkpt lat="45.85328" lon="1.21642">
        <ele>342.9</ele>
        <time>2024-11-12T08:09:46Z</time>
      </trkpt>
      <trkpt lat="45.85329" lon="1.21642">
        <ele>342.9</ele>
        <time>2024-11-12T08:09:47Z</time>
      </trkpt>
      <trkpt lat="45.8533" lon="1.2164">
        <ele>342.9</ele>
        <time>2024-11-12T08:09:48Z</time>
      </trkpt>
      <trkpt lat="45.85331" lon="1.21639">
        <ele>343</ele>
        <time>2024-11-12T08:09:49Z</time>
      </trkpt>
      <trkpt lat="45.85332" lon="1.21637">
        <ele>343</ele>
        <time>2024-11-12T08:09:50Z</time>
      </trkpt>
      <trkpt lat="45.85333" lon="1.21636">
        <ele>343</ele>
        <time>2024-11-12T08:09:51Z</time>
      </trkpt>
      <trkpt lat="45.85333" lon="1.21635">
        <ele>343</ele>
        <time>2024-11-12T08:09:52Z</time>
      </trkpt>
      <trkpt lat="45.85334" lon="1.21632">
        <ele>343.1</ele>
        <time>2024-11-12T08:09:53Z</time>
      </trkpt>
      <trkpt lat="45.85334" lon="1.21631">
        <ele>343.1</ele>
        <time>2024-11-12T08:09:54Z</time>
      </trkpt>
      <trkpt lat="45.85335" lon="1.21629">
        <ele>343.1</ele>
        <time>2024-11-12T08:09:55Z</time>
      </trkpt>
      <trkpt lat="45.85336" lon="1.21627">
        <ele>343.2</ele>
        <time>2024-11-12T08:09:56Z</time>
      </trkpt>
      <trkpt lat="45.85336" lon="1.21625">
        <ele>343.2</ele>
        <time>2024-11-12T08:09:57Z</time>
      </trkpt>
      <trkpt lat="45.85337" lon="1.21622">
        <ele>343.2</ele>
        <time>2024-11-12T08:09:58Z</time>
      </trkpt>
      <trkpt lat="45.85338" lon="1.2162">
        <ele>343.3</ele>
        <time>2024-11-12T08:09:59Z</time>
      </trkpt>
      <trkpt lat="45.85338" lon="1.21618">
        <ele>343.3</ele>
        <time>2024-11-12T08:10:00Z</time>
      </trkpt>
      <trkpt lat="45.85339" lon="1.21617">
        <ele>343.3</ele>
        <time>2024-11-12T08:10:01Z</time>
      </trkpt>
      <trkpt lat="45.8534" lon="1.21616">
        <ele>343.3</ele>
        <time>2024-11-12T08:10:02Z</time>
      </trkpt>
      <trkpt lat="45.85341" lon="1.21614">
        <ele>343.4</ele>
        <time>2024-11-12T08:10:03Z</time>
      </trkpt>
      <trkpt lat="45.85343" lon="1.21613">
        <ele>343.4</ele>
        <time>2024-11-12T08:10:04Z</time>
      </trkpt>
      <trkpt lat="45.85344" lon="1.21612">
        <ele>343.4</ele>
        <time>2024-11-12T08:10:05Z</time>
      </trkpt>
      <trkpt lat="45.85345" lon="1.21611">
        <ele>343.5</ele>
        <time>2024-11-12T08:10:06Z</time>
      </trkpt>
      <trkpt lat="45.85346" lon="1.2161">
        <ele>343.5</ele>
        <time>2024-11-12T08:10:07Z</time>
      </trkpt>
      <trkpt lat="45.85347" lon="1.21609">
        <ele>343.5</ele>
        <time>2024-11-12T08:10:08Z</time>
      </trkpt>
      <trkpt lat="45.85348" lon="1.21609">
        <ele>343.5</ele>
        <time>2024-11-12T08:10:09Z</time>
      </trkpt>
      <trkpt lat="45.8535" lon="1.21608">
        <ele>343.6</ele>
        <time>2024-11-12T08:10:10Z</time>
      </trkpt>
      <trkpt lat="45.85351" lon="1.21608">
        <ele>343.6</ele>
        <time>2024-11-12T08:10:11Z</time>
      </trkpt>
      <trkpt lat="45.85352" lon="1.21607">
        <ele>343.6</ele>
        <time>2024-11-12T08:10:12Z</time>
      </trkpt>
      <trkpt lat="45.85354" lon="1.21607">
        <ele>343.6</ele>
        <time>2024-11-12T08:10:13Z</time>
      </trkpt>
      <trkpt lat="45.85355" lon="1.21607">
        <ele>343.6</ele>
        <time>2024-11-12T08:10:14Z</time>
      </trkpt>
      <trkpt lat="45.85355" lon="1.21608">
        <ele>343.7</ele>
        <time>2024-11-12T08:10:15Z</time>
      </trkpt>
      <trkpt lat="45.85358" lon="1.2161">
        <ele>343.3</ele>
        <time>2024-11-12T08:10:16Z</time>
      </trkpt>
      <trkpt lat="45.85359" lon="1.21611">
        <ele>343.2</ele>
        <time>2024-11-12T08:10:17Z</time>
      </trkpt>
      <trkpt lat="45.85359" lon="1.21611">
        <ele>343.2</ele>
        <time>2024-11-12T08:10:18Z</time>
      </trkpt>
      <trkpt lat="45.8536" lon="1.21613">
        <ele>343.1</ele>
        <time>2024-11-12T08:10:19Z</time>
      </trkpt>
      <trkpt lat="45.8536" lon="1.21615">
        <ele>343</ele>
        <time>2024-11-12T08:10:20Z</time>
      </trkpt>
      <trkpt lat="45.8536" lon="1.21618">
        <ele>342.9</ele>
        <time>2024-11-12T08:10:21Z</time>
      </trkpt>
      <trkpt lat="45.85361" lon="1.2162">
        <ele>342.8</ele>
        <time>2024-11-12T08:10:22Z</time>
      </trkpt>
      <trkpt lat="45.85361" lon="1.21622">
        <ele>342.7</ele>
        <time>2024-11-12T08:10:23Z</time>
      </trkpt>
      <trkpt lat="45.85362" lon="1.21623">
        <ele>342.6</ele>
        <time>2024-11-12T08:10:24Z</time>
      </trkpt>
      <trkpt lat="45.85362" lon="1.21625">
        <ele>342.6</ele>
        <time>2024-11-12T08:10:25Z</time>
      </trkpt>
      <trkpt lat="45.85363" lon="1.21627">
        <ele>342.5</ele>
        <time>2024-11-12T08:10:26Z</time>
      </trkpt>
      <trkpt lat="45.85364" lon="1.21627">
        <ele>342.4</ele>
        <time>2024-11-12T08:10:27Z</time>
      </trkpt>
      <trkpt lat="45.85365" lon="1.21629">
        <ele>342.3</ele>
        <time>2024-11-12T08:10:28Z</time>
      </trkpt>
      <trkpt lat="45.85366" lon="1.2163">
        <ele>342.2</ele>
        <time>2024-11-12T08:10:29Z</time>
      </trkpt>
      <trkpt lat="45.85367" lon="1.21631">
        <ele>342.2</ele>
        <time>2024-11-12T08:10:30Z</time>
      </trkpt>
      <trkpt lat="45.85369" lon="1.21632">
        <ele>342.1</ele>
        <time>2024-11-12T08:10:31Z</time>
      </trkpt>
      <trkpt lat="45.8537" lon="1.21633">
        <ele>342</ele>
        <time>2024-11-12T08:10:32Z</time>
      </trkpt>
      <trkpt lat="45.85371" lon="1.21634">
        <ele>341.9</ele>
        <time>2024-11-12T08:10:33Z</time>
      </trkpt>
      <trkpt lat="45.85372" lon="1.21635">
        <ele>341.8</ele>
        <time>2024-11-12T08:10:34Z</time>
      </trkpt>
      <trkpt lat="45.85373" lon="1.21636">
        <ele>341.7</ele>
        <time>2024-11-12T08:10:35Z</time>
      </trkpt>
      <trkpt lat="45.85375" lon="1.21639">
        <ele>341.6</ele>
        <time>2024-11-12T08:10:36Z</time>
      </trkpt>
      <trkpt lat="45.85376" lon="1.2164">
        <ele>341.5</ele>
        <time>2024-11-12T08:10:37Z</time>
      </trkpt>
      <trkpt lat="45.85376" lon="1.21641">
        <ele>341.5</ele>
        <time>2024-11-12T08:10:38Z</time>
      </trkpt>
      <trkpt lat="45.85377" lon="1.21642">
        <ele>341.4</ele>
        <time>2024-11-12T08:10:39Z</time>
      </trkpt>
      <trkpt lat="45.85378" lon="1.21643">
        <ele>341.3</ele>
        <time>2024-11-12T08:10:40Z</time>
      </trkpt>
      <trkpt lat="45.85378" lon="1.21645">
        <ele>341.3</ele>
        <time>2024-11-12T08:10:41Z</time>
      </trkpt>
      <trkpt lat="45.85378" lon="1.21647">
        <ele>341.2</ele>
        <time>2024-11-12T08:10:42Z</time>
      </trkpt>
      <trkpt lat="45.85378" lon="1.2165">
        <ele>341.1</ele>
        <time>2024-11-12T08:10:43Z</time>
      </trkpt>
      <trkpt lat="45.85378" lon="1.21651">
        <ele>341</ele>
        <time>2024-11-12T08:10:44Z</time>
      </trkpt>
      <trkpt lat="45.85379" lon="1.21652">
        <ele>341</ele>
        <time>2024-11-12T08:10:45Z</time>
      </trkpt>
      <trkpt lat="45.85379" lon="1.21654">
        <ele>340.9</ele>
        <time>2024-11-12T08:10:46Z</time>
      </trkpt>
      <trkpt lat="45.8538" lon="1.21656">
        <ele>340.8</ele>
        <time>2024-11-12T08:10:47Z</time>
      </trkpt>
      <trkpt lat="45.85381" lon="1.21657">
        <ele>340.7</ele>
        <time>2024-11-12T08:10:48Z</time>
      </trkpt>
      <trkpt lat="45.85381" lon="1.21659">
        <ele>340.7</ele>
        <time>2024-11-12T08:10:49Z</time>
      </trkpt>
      <trkpt lat="45.85382" lon="1.2166">
        <ele>340.6</ele>
        <time>2024-11-12T08:10:50Z</time>
      </trkpt>
      <trkpt lat="45.85382" lon="1.21662">
        <ele>340.5</ele>
        <time>2024-11-12T08:10:51Z</time>
      </trkpt>
      <trkpt lat="45.85383" lon="1.21663">
        <ele>340.5</ele>
        <time>2024-11-12T08:10:52Z</time>
      </trkpt>
      <trkpt lat="45.85384" lon="1.21665">
        <ele>340.4</ele>
        <time>2024-11-12T08:10:53Z</time>
      </trkpt>
      <trkpt lat="45.85384" lon="1.21666">
        <ele>340.3</ele>
        <time>2024-11-12T08:10:54Z</time>
      </trkpt>
      <trkpt lat="45.85385" lon="1.21668">
        <ele>340.3</ele>
        <time>2024-11-12T08:10:55Z</time>
      </trkpt>
      <trkpt lat="45.85386" lon="1.21669">
        <ele>340.2</ele>
        <time>2024-11-12T08:10:56Z</time>
      </trkpt>
      <trkpt lat="45.85387" lon="1.21671">
        <ele>340.1</ele>
        <time>2024-11-12T08:10:57Z</time>
      </trkpt>
      <trkpt lat="45.85388" lon="1.21672">
        <ele>340</ele>
        <time>2024-11-12T08:10:58Z</time>
      </trkpt>
      <trkpt lat="45.85388" lon="1.21673">
        <ele>340</ele>
        <time>2024-11-12T08:10:59Z</time>
      </trkpt>
      <trkpt lat="45.85389" lon="1.21676">
        <ele>339.8</ele>
        <time>2024-11-12T08:11:00Z</time>
      </trkpt>
      <trkpt lat="45.8539" lon="1.21678">
        <ele>339.7</ele>
        <time>2024-11-12T08:11:02Z</time>
      </trkpt>
      <trkpt lat="45.85391" lon="1.21681">
        <ele>339.6</ele>
        <time>2024-11-12T08:11:03Z</time>
      </trkpt>
      <trkpt lat="45.85391" lon="1.21682">
        <ele>339.6</ele>
        <time>2024-11-12T08:11:04Z</time>
      </trkpt>
      <trkpt lat="45.85391" lon="1.21683">
        <ele>339.5</ele>
        <time>2024-11-12T08:11:05Z</time>
      </trkpt>
      <trkpt lat="45.85392" lon="1.21686">
        <ele>339.4</ele>
        <time>2024-11-12T08:11:06Z</time>
      </trkpt>
      <trkpt lat="45.85392" lon="1.21687">
        <ele>339.4</ele>
        <time>2024-11-12T08:11:07Z</time>
      </trkpt>
      <trkpt lat="45.85393" lon="1.21688">
        <ele>339.3</ele>
        <time>2024-11-12T08:11:08Z</time>
      </trkpt>
      <trkpt lat="45.85393" lon="1.2169">
        <ele>339.2</ele>
        <time>2024-11-12T08:11:09Z</time>
      </trkpt>
      <trkpt lat="45.85394" lon="1.21692">
        <ele>339.1</ele>
        <time>2024-11-12T08:11:10Z</time>
      </trkpt>
      <trkpt lat="45.85394" lon="1.21694">
        <ele>339.1</ele>
        <time>2024-11-12T08:11:11Z</time>
      </trkpt>
      <trkpt lat="45.85395" lon="1.21695">
        <ele>339</ele>
        <time>2024-11-12T08:11:12Z</time>
      </trkpt>
      <trkpt lat="45.85395" lon="1.21697">
        <ele>338.9</ele>
        <time>2024-11-12T08:11:13Z</time>
      </trkpt>
      <trkpt lat="45.85396" lon="1.21699">
        <ele>338.8</ele>
        <time>2024-11-12T08:11:14Z</time>
      </trkpt>
      <trkpt lat="45.85396" lon="1.21702">
        <ele>338.7</ele>
        <time>2024-11-12T08:11:15Z</time>
      </trkpt>
      <trkpt lat="45.85397" lon="1.21703">
        <ele>338.6</ele>
        <time>2024-11-12T08:11:16Z</time>
      </trkpt>
      <trkpt lat="45.85397" lon="1.21704">
        <ele>338.6</ele>
        <time>2024-11-12T08:11:17Z</time>
      </trkpt>
      <trkpt lat="45.85398" lon="1.21707">
        <ele>338.4</ele>
        <time>2024-11-12T08:11:18Z</time>
      </trkpt>
      <trkpt lat="45.85398" lon="1.21708">
        <ele>338.4</ele>
        <time>2024-11-12T08:11:19Z</time>
      </trkpt>
      <trkpt lat="45.85399" lon="1.2171">
        <ele>338.3</ele>
        <time>2024-11-12T08:11:20Z</time>
      </trkpt>
      <trkpt lat="45.85399" lon="1.21712">
        <ele>338.2</ele>
        <time>2024-11-12T08:11:21Z</time>
      </trkpt>
      <trkpt lat="45.854" lon="1.21713">
        <ele>338.1</ele>
        <time>2024-11-12T08:11:22Z</time>
      </trkpt>
      <trkpt lat="45.854" lon="1.21714">
        <ele>338.1</ele>
        <time>2024-11-12T08:11:23Z</time>
      </trkpt>
      <trkpt lat="45.85401" lon="1.21717">
        <ele>338</ele>
        <time>2024-11-12T08:11:24Z</time>
      </trkpt>
      <trkpt lat="45.85402" lon="1.21718">
        <ele>337.9</ele>
        <time>2024-11-12T08:11:25Z</time>
      </trkpt>
      <trkpt lat="45.85402" lon="1.21719">
        <ele>337.8</ele>
        <time>2024-11-12T08:11:26Z</time>
      </trkpt>
      <trkpt lat="45.85403" lon="1.21721">
        <ele>337.7</ele>
        <time>2024-11-12T08:11:27Z</time>
      </trkpt>
      <trkpt lat="45.85404" lon="1.21723">
        <ele>337.6</ele>
        <time>2024-11-12T08:11:28Z</time>
      </trkpt>
      <trkpt lat="45.85405" lon="1.21725">
        <ele>337.5</ele>
        <time>2024-11-12T08:11:29Z</time>
      </trkpt>
      <trkpt lat="45.85406" lon="1.21726">
        <ele>337.5</ele>
        <time>2024-11-12T08:11:30Z</time>
      </trkpt>
      <trkpt lat="45.85406" lon="1.21727">
        <ele>337.4</ele>
        <time>2024-11-12T08:11:31Z</time>
      </trkpt>
      <trkpt lat="45.85407" lon="1.21729">
        <ele>337.3</ele>
        <time>2024-11-12T08:11:32Z</time>
      </trkpt>
      <trkpt lat="45.85407" lon="1.2173">
        <ele>337.3</ele>
        <time>2024-11-12T08:11:33Z</time>
      </trkpt>
      <trkpt lat="45.85408" lon="1.21731">
        <ele>337.2</ele>
        <time>2024-11-12T08:11:34Z</time>
      </trkpt>
      <trkpt lat="45.85409" lon="1.21734">
        <ele>337.1</ele>
        <time>2024-11-12T08:11:35Z</time>
      </trkpt>
      <trkpt lat="45.85409" lon="1.21735">
        <ele>337</ele>
        <time>2024-11-12T08:11:36Z</time>
      </trkpt>
      <trkpt lat="45.8541" lon="1.21736">
        <ele>337</ele>
        <time>2024-11-12T08:11:37Z</time>
      </trkpt>
      <trkpt lat="45.85411" lon="1.21738">
        <ele>336.8</ele>
        <time>2024-11-12T08:11:38Z</time>
      </trkpt>
      <trkpt lat="45.85411" lon="1.21739">
        <ele>336.8</ele>
        <time>2024-11-12T08:11:39Z</time>
      </trkpt>
      <trkpt lat="45.85412" lon="1.2174">
        <ele>336.7</ele>
        <time>2024-11-12T08:11:40Z</time>
      </trkpt>
      <trkpt lat="45.85412" lon="1.21742">
        <ele>336.7</ele>
        <time>2024-11-12T08:11:41Z</time>
      </trkpt>
      <trkpt lat="45.85413" lon="1.21744">
        <ele>336.6</ele>
        <time>2024-11-12T08:11:42Z</time>
      </trkpt>
      <trkpt lat="45.85414" lon="1.21747">
        <ele>336.4</ele>
        <time>2024-11-12T08:11:43Z</time>
      </trkpt>
      <trkpt lat="45.85415" lon="1.21748">
        <ele>336.4</ele>
        <time>2024-11-12T08:11:44Z</time>
      </trkpt>
      <trkpt lat="45.85415" lon="1.21749">
        <ele>336.3</ele>
        <time>2024-11-12T08:11:45Z</time>
      </trkpt>
      <trkpt lat="45.85417" lon="1.21751">
        <ele>336.2</ele>
        <time>2024-11-12T08:11:46Z</time>
      </trkpt>
      <trkpt lat="45.85417" lon="1.21752">
        <ele>336.1</ele>
        <time>2024-11-12T08:11:47Z</time>
      </trkpt>
      <trkpt lat="45.85418" lon="1.21753">
        <ele>336.1</ele>
        <time>2024-11-12T08:11:48Z</time>
      </trkpt>
      <trkpt lat="45.85419" lon="1.21755">
        <ele>336</ele>
        <time>2024-11-12T08:11:49Z</time>
      </trkpt>
      <trkpt lat="45.8542" lon="1.21756">
        <ele>335.9</ele>
        <time>2024-11-12T08:11:50Z</time>
      </trkpt>
      <trkpt lat="45.8542" lon="1.21757">
        <ele>335.9</ele>
        <time>2024-11-12T08:11:51Z</time>
      </trkpt>
      <trkpt lat="45.85422" lon="1.2176">
        <ele>335.7</ele>
        <time>2024-11-12T08:11:52Z</time>
      </trkpt>
      <trkpt lat="45.85422" lon="1.21761">
        <ele>335.7</ele>
        <time>2024-11-12T08:11:53Z</time>
      </trkpt>
      <trkpt lat="45.85423" lon="1.21762">
        <ele>335.6</ele>
        <time>2024-11-12T08:11:54Z</time>
      </trkpt>
      <trkpt lat="45.85423" lon="1.21764">
        <ele>335.5</ele>
        <time>2024-11-12T08:11:55Z</time>
      </trkpt>
      <trkpt lat="45.85424" lon="1.21766">
        <ele>335.4</ele>
        <time>2024-11-12T08:11:56Z</time>
      </trkpt>
      <trkpt lat="45.85424" lon="1.21768">
        <ele>335.4</ele>
        <time>2024-11-12T08:11:57Z</time>
      </trkpt>
      <trkpt lat="45.85425" lon="1.2177">
        <ele>335.2</ele>
        <time>2024-11-12T08:11:58Z</time>
      </trkpt>
      <trkpt lat="45.85426" lon="1.21771">
        <ele>335.2</ele>
        <time>2024-11-12T08:11:59Z</time>
      </trkpt>
      <trkpt lat="45.85426" lon="1.21773">
        <ele>335.1</ele>
        <time>2024-11-12T08:12:00Z</time>
      </trkpt>
      <trkpt lat="45.85427" lon="1.21774">
        <ele>335</ele>
        <time>2024-11-12T08:12:01Z</time>
      </trkpt>
      <trkpt lat="45.85428" lon="1.21776">
        <ele>334.9</ele>
        <time>2024-11-12T08:12:02Z</time>
      </trkpt>
      <trkpt lat="45.85429" lon="1.21778">
        <ele>334.9</ele>
        <time>2024-11-12T08:12:03Z</time>
      </trkpt>
      <trkpt lat="45.85429" lon="1.21779">
        <ele>334.8</ele>
        <time>2024-11-12T08:12:04Z</time>
      </trkpt>
      <trkpt lat="45.8543" lon="1.21781">
        <ele>334.7</ele>
        <time>2024-11-12T08:12:05Z</time>
      </trkpt>
      <trkpt lat="45.85431" lon="1.21782">
        <ele>334.6</ele>
        <time>2024-11-12T08:12:06Z</time>
      </trkpt>
      <trkpt lat="45.85432" lon="1.21783">
        <ele>334.6</ele>
        <time>2024-11-12T08:12:07Z</time>
      </trkpt>
      <trkpt lat="45.85433" lon="1.21786">
        <ele>334.4</ele>
        <time>2024-11-12T08:12:08Z</time>
      </trkpt>
      <trkpt lat="45.85433" lon="1.21787">
        <ele>334.4</ele>
        <time>2024-11-12T08:12:09Z</time>
      </trkpt>
      <trkpt lat="45.85434" lon="1.21788">
        <ele>334.3</ele>
        <time>2024-11-12T08:12:10Z</time>
      </trkpt>
      <trkpt lat="45.85435" lon="1.21789">
        <ele>334.2</ele>
        <time>2024-11-12T08:12:11Z</time>
      </trkpt>
      <trkpt lat="45.85435" lon="1.2179">
        <ele>334.2</ele>
        <time>2024-11-12T08:12:12Z</time>
      </trkpt>
      <trkpt lat="45.85436" lon="1.21791">
        <ele>334.1</ele>
        <time>2024-11-12T08:12:13Z</time>
      </trkpt>
      <trkpt lat="45.85437" lon="1.21793">
        <ele>334</ele>
        <time>2024-11-12T08:12:14Z</time>
      </trkpt>
      <trkpt lat="45.85437" lon="1.21794">
        <ele>334</ele>
        <time>2024-11-12T08:12:15Z</time>
      </trkpt>
      <trkpt lat="45.85438" lon="1.21797">
        <ele>333.8</ele>
        <time>2024-11-12T08:12:16Z</time>
      </trkpt>
      <trkpt lat="45.85439" lon="1.21798">
        <ele>333.7</ele>
        <time>2024-11-12T08:12:17Z</time>
      </trkpt>
      <trkpt lat="45.85439" lon="1.218">
        <ele>333.7</ele>
        <time>2024-11-12T08:12:18Z</time>
      </trkpt>
      <trkpt lat="45.85439" lon="1.21801">
        <ele>333.6</ele>
        <time>2024-11-12T08:12:19Z</time>
      </trkpt>
      <trkpt lat="45.8544" lon="1.21802">
        <ele>333.5</ele>
        <time>2024-11-12T08:12:20Z</time>
      </trkpt>
      <trkpt lat="45.8544" lon="1.21804">
        <ele>333.5</ele>
        <time>2024-11-12T08:12:21Z</time>
      </trkpt>
      <trkpt lat="45.85441" lon="1.21806">
        <ele>333.4</ele>
        <time>2024-11-12T08:12:22Z</time>
      </trkpt>
      <trkpt lat="45.85441" lon="1.21808">
        <ele>333.3</ele>
        <time>2024-11-12T08:12:23Z</time>
      </trkpt>
      <trkpt lat="45.85442" lon="1.21809">
        <ele>333.2</ele>
        <time>2024-11-12T08:12:24Z</time>
      </trkpt>
      <trkpt lat="45.85442" lon="1.21811">
        <ele>333.1</ele>
        <time>2024-11-12T08:12:25Z</time>
      </trkpt>
      <trkpt lat="45.85443" lon="1.21812">
        <ele>333</ele>
        <time>2024-11-12T08:12:26Z</time>
      </trkpt>
      <trkpt lat="45.85443" lon="1.21814">
        <ele>332.9</ele>
        <time>2024-11-12T08:12:27Z</time>
      </trkpt>
      <trkpt lat="45.85444" lon="1.21816">
        <ele>332.8</ele>
        <time>2024-11-12T08:12:28Z</time>
      </trkpt>
      <trkpt lat="45.85444" lon="1.21817">
        <ele>332.8</ele>
        <time>2024-11-12T08:12:29Z</time>
      </trkpt>
      <trkpt lat="45.85445" lon="1.21818">
        <ele>332.7</ele>
        <time>2024-11-12T08:12:30Z</time>
      </trkpt>
      <trkpt lat="45.85446" lon="1.2182">
        <ele>332.6</ele>
        <time>2024-11-12T08:12:31Z</time>
      </trkpt>
      <trkpt lat="45.85447" lon="1.21822">
        <ele>332.5</ele>
        <time>2024-11-12T08:12:32Z</time>
      </trkpt>
      <trkpt lat="45.85447" lon="1.21823">
        <ele>332.4</ele>
        <time>2024-11-12T08:12:33Z</time>
      </trkpt>
      <trkpt lat="45.85448" lon="1.21825">
        <ele>332.3</ele>
        <time>2024-11-12T08:12:34Z</time>
      </trkpt>
      <trkpt lat="45.85449" lon="1.21827">
        <ele>332.2</ele>
        <time>2024-11-12T08:12:35Z</time>
      </trkpt>
      <trkpt lat="45.85449" lon="1.21828">
        <ele>332.1</ele>
        <time>2024-11-12T08:12:36Z</time>
      </trkpt>
      <trkpt lat="45.8545" lon="1.21829">
        <ele>332</ele>
        <time>2024-11-12T08:12:37Z</time>
      </trkpt>
      <trkpt lat="45.85451" lon="1.21831">
        <ele>331.9</ele>
        <time>2024-11-12T08:12:38Z</time>
      </trkpt>
      <trkpt lat="45.85451" lon="1.21832">
        <ele>331.8</ele>
        <time>2024-11-12T08:12:39Z</time>
      </trkpt>
      <trkpt lat="45.85452" lon="1.21833">
        <ele>331.7</ele>
        <time>2024-11-12T08:12:40Z</time>
      </trkpt>
      <trkpt lat="45.85453" lon="1.21835">
        <ele>331.5</ele>
        <time>2024-11-12T08:12:41Z</time>
      </trkpt>
      <trkpt lat="45.85454" lon="1.21836">
        <ele>331.5</ele>
        <time>2024-11-12T08:12:42Z</time>
      </trkpt>
      <trkpt lat="45.85455" lon="1.21837">
        <ele>331.4</ele>
        <time>2024-11-12T08:12:43Z</time>
      </trkpt>
      <trkpt lat="45.85456" lon="1.21838">
        <ele>331.3</ele>
        <time>2024-11-12T08:12:44Z</time>
      </trkpt>
      <trkpt lat="45.85457" lon="1.2184">
        <ele>331.1</ele>
        <time>2024-11-12T08:12:45Z</time>
      </trkpt>
      <trkpt lat="45.85458" lon="1.21842">
        <ele>331</ele>
        <time>2024-11-12T08:12:46Z</time>
      </trkpt>
      <trkpt lat="45.85458" lon="1.21843">
        <ele>330.9</ele>
        <time>2024-11-12T08:12:47Z</time>
      </trkpt>
      <trkpt lat="45.85459" lon="1.21846">
        <ele>330.7</ele>
        <time>2024-11-12T08:12:48Z</time>
      </trkpt>
      <trkpt lat="45.8546" lon="1.21847">
        <ele>330.6</ele>
        <time>2024-11-12T08:12:49Z</time>
      </trkpt>
      <trkpt lat="45.85461" lon="1.21849">
        <ele>330.5</ele>
        <time>2024-11-12T08:12:50Z</time>
      </trkpt>
      <trkpt lat="45.85461" lon="1.2185">
        <ele>330.4</ele>
        <time>2024-11-12T08:12:51Z</time>
      </trkpt>
      <trkpt lat="45.85462" lon="1.21851">
        <ele>330.3</ele>
        <time>2024-11-12T08:12:52Z</time>
      </trkpt>
      <trkpt lat="45.85463" lon="1.21854">
        <ele>330.1</ele>
        <time>2024-11-12T08:12:53Z</time>
      </trkpt>
      <trkpt lat="45.85463" lon="1.21855">
        <ele>330</ele>
        <time>2024-11-12T08:12:54Z</time>
      </trkpt>
      <trkpt lat="45.85464" lon="1.21856">
        <ele>329.9</ele>
        <time>2024-11-12T08:12:55Z</time>
      </trkpt>
      <trkpt lat="45.85465" lon="1.21859">
        <ele>329.7</ele>
        <time>2024-11-12T08:12:56Z</time>
      </trkpt>
      <trkpt lat="45.85466" lon="1.2186">
        <ele>329.6</ele>
        <time>2024-11-12T08:12:57Z</time>
      </trkpt>
      <trkpt lat="45.85466" lon="1.21861">
        <ele>329.5</ele>
        <time>2024-11-12T08:12:58Z</time>
      </trkpt>
      <trkpt lat="45.85467" lon="1.21863">
        <ele>329.3</ele>
        <time>2024-11-12T08:12:59Z</time>
      </trkpt>
      <trkpt lat="45.85468" lon="1.21864">
        <ele>329.2</ele>
        <time>2024-11-12T08:13:00Z</time>
      </trkpt>
      <trkpt lat="45.85468" lon="1.21865">
        <ele>329.1</ele>
        <time>2024-11-12T08:13:01Z</time>
      </trkpt>
      <trkpt lat="45.85469" lon="1.21868">
        <ele>328.9</ele>
        <time>2024-11-12T08:13:02Z</time>
      </trkpt>
      <trkpt lat="45.8547" lon="1.21869">
        <ele>328.8</ele>
        <time>2024-11-12T08:13:03Z</time>
      </trkpt>
      <trkpt lat="45.8547" lon="1.2187">
        <ele>328.7</ele>
        <time>2024-11-12T08:13:04Z</time>
      </trkpt>
      <trkpt lat="45.85471" lon="1.21873">
        <ele>328.5</ele>
        <time>2024-11-12T08:13:05Z</time>
      </trkpt>
      <trkpt lat="45.85471" lon="1.21874">
        <ele>328.4</ele>
        <time>2024-11-12T08:13:06Z</time>
      </trkpt>
      <trkpt lat="45.85472" lon="1.21875">
        <ele>328.3</ele>
        <time>2024-11-12T08:13:07Z</time>
      </trkpt>
      <trkpt lat="45.85473" lon="1.21876">
        <ele>328.1</ele>
        <time>2024-11-12T08:13:08Z</time>
      </trkpt>
      <trkpt lat="45.85474" lon="1.21878">
        <ele>328</ele>
        <time>2024-11-12T08:13:09Z</time>
      </trkpt>
      <trkpt lat="45.85475" lon="1.2188">
        <ele>328</ele>
        <time>2024-11-12T08:13:10Z</time>
      </trkpt>
      <trkpt lat="45.85476" lon="1.21881">
        <ele>328.2</ele>
        <time>2024-11-12T08:13:11Z</time>
      </trkpt>
      <trkpt lat="45.85477" lon="1.21881">
        <ele>328.3</ele>
        <time>2024-11-12T08:13:12Z</time>
      </trkpt>
      <trkpt lat="45.85478" lon="1.21882">
        <ele>328.5</ele>
        <time>2024-11-12T08:13:13Z</time>
      </trkpt>
      <trkpt lat="45.8548" lon="1.21883">
        <ele>328.8</ele>
        <time>2024-11-12T08:13:14Z</time>
      </trkpt>
      <trkpt lat="45.85481" lon="1.21884">
        <ele>329</ele>
        <time>2024-11-12T08:13:15Z</time>
      </trkpt>
      <trkpt lat="45.85482" lon="1.21886">
        <ele>329.2</ele>
        <time>2024-11-12T08:13:16Z</time>
      </trkpt>
      <trkpt lat="45.85484" lon="1.21887">
        <ele>329.5</ele>
        <time>2024-11-12T08:13:17Z</time>
      </trkpt>
      <trkpt lat="45.85485" lon="1.21888">
        <ele>329.7</ele>
        <time>2024-11-12T08:13:18Z</time>
      </trkpt>
      <trkpt lat="45.85486" lon="1.21889">
        <ele>330</ele>
        <time>2024-11-12T08:13:19Z</time>
      </trkpt>
      <trkpt lat="45.85487" lon="1.2189">
        <ele>330.1</ele>
        <time>2024-11-12T08:13:20Z</time>
      </trkpt>
      <trkpt lat="45.85489" lon="1.21892">
        <ele>330.5</ele>
        <time>2024-11-12T08:13:21Z</time>
      </trkpt>
      <trkpt lat="45.8549" lon="1.21892">
        <ele>330.6</ele>
        <time>2024-11-12T08:13:22Z</time>
      </trkpt>
      <trkpt lat="45.85491" lon="1.21893">
        <ele>330.6</ele>
        <time>2024-11-12T08:13:23Z</time>
      </trkpt>
      <trkpt lat="45.85493" lon="1.21895">
        <ele>330.6</ele>
        <time>2024-11-12T08:13:24Z</time>
      </trkpt>
      <trkpt lat="45.85494" lon="1.21896">
        <ele>330.6</ele>
        <time>2024-11-12T08:13:25Z</time>
      </trkpt>
      <trkpt lat="45.85494" lon="1.21898">
        <ele>330.6</ele>
        <time>2024-11-12T08:13:26Z</time>
      </trkpt>
      <trkpt lat="45.85495" lon="1.219">
        <ele>330.6</ele>
        <time>2024-11-12T08:13:28Z</time>
      </trkpt>
      <trkpt lat="45.85496" lon="1.21901">
        <ele>330.6</ele>
        <time>2024-11-12T08:13:29Z</time>
      </trkpt>
      <trkpt lat="45.85497" lon="1.21904">
        <ele>330.6</ele>
        <time>2024-11-12T08:13:30Z</time>
      </trkpt>
      <trkpt lat="45.85497" lon="1.21905">
        <ele>330.5</ele>
        <time>2024-11-12T08:13:31Z</time>
      </trkpt>
      <trkpt lat="45.85498" lon="1.21906">
        <ele>330.5</ele>
        <time>2024-11-12T08:13:32Z</time>
      </trkpt>
      <trkpt lat="45.85499" lon="1.21907">
        <ele>330.5</ele>
        <time>2024-11-12T08:13:33Z</time>
      </trkpt>
      <trkpt lat="45.855" lon="1.21909">
        <ele>330.5</ele>
        <time>2024-11-12T08:13:34Z</time>
      </trkpt>
      <trkpt lat="45.85501" lon="1.21912">
        <ele>330.5</ele>
        <time>2024-11-12T08:13:35Z</time>
      </trkpt>
      <trkpt lat="45.85502" lon="1.21912">
        <ele>330.5</ele>
        <time>2024-11-12T08:13:36Z</time>
      </trkpt>
      <trkpt lat="45.85502" lon="1.21913">
        <ele>330.5</ele>
        <time>2024-11-12T08:13:37Z</time>
      </trkpt>
      <trkpt lat="45.85503" lon="1.21915">
        <ele>330.5</ele>
        <time>2024-11-12T08:13:38Z</time>
      </trkpt>
      <trkpt lat="45.85505" lon="1.21916">
        <ele>330.5</ele>
        <time>2024-11-12T08:13:39Z</time>
      </trkpt>
      <trkpt lat="45.85506" lon="1.21918">
        <ele>330.4</ele>
        <time>2024-11-12T08:13:40Z</time>
      </trkpt>
      <trkpt lat="45.85507" lon="1.21919">
        <ele>330.4</ele>
        <time>2024-11-12T08:13:41Z</time>
      </trkpt>
      <trkpt lat="45.85507" lon="1.2192">
        <ele>330.4</ele>
        <time>2024-11-12T08:13:42Z</time>
      </trkpt>
      <trkpt lat="45.85508" lon="1.21921">
        <ele>330.4</ele>
        <time>2024-11-12T08:13:43Z</time>
      </trkpt>
      <trkpt lat="45.85509" lon="1.21923">
        <ele>330.4</ele>
        <time>2024-11-12T08:13:44Z</time>
      </trkpt>
      <trkpt lat="45.8551" lon="1.21926">
        <ele>330.3</ele>
        <time>2024-11-12T08:13:45Z</time>
      </trkpt>
      <trkpt lat="45.85511" lon="1.21927">
        <ele>330.3</ele>
        <time>2024-11-12T08:13:46Z</time>
      </trkpt>
      <trkpt lat="45.85511" lon="1.21928">
        <ele>330.3</ele>
        <time>2024-11-12T08:13:47Z</time>
      </trkpt>
      <trkpt lat="45.85512" lon="1.21929">
        <ele>330.3</ele>
        <time>2024-11-12T08:13:48Z</time>
      </trkpt>
      <trkpt lat="45.85513" lon="1.21931">
        <ele>330.3</ele>
        <time>2024-11-12T08:13:49Z</time>
      </trkpt>
      <trkpt lat="45.85514" lon="1.21932">
        <ele>330.2</ele>
        <time>2024-11-12T08:13:50Z</time>
      </trkpt>
      <trkpt lat="45.85515" lon="1.21933">
        <ele>330.2</ele>
        <time>2024-11-12T08:13:51Z</time>
      </trkpt>
      <trkpt lat="45.85516" lon="1.21934">
        <ele>330.2</ele>
        <time>2024-11-12T08:13:52Z</time>
      </trkpt>
      <trkpt lat="45.85516" lon="1.21936">
        <ele>330.1</ele>
        <time>2024-11-12T08:13:53Z</time>
      </trkpt>
      <trkpt lat="45.85518" lon="1.21937">
        <ele>330.1</ele>
        <time>2024-11-12T08:13:54Z</time>
      </trkpt>
      <trkpt lat="45.85519" lon="1.21939">
        <ele>330.1</ele>
        <time>2024-11-12T08:13:55Z</time>
      </trkpt>
      <trkpt lat="45.8552" lon="1.2194">
        <ele>330</ele>
        <time>2024-11-12T08:13:56Z</time>
      </trkpt>
      <trkpt lat="45.8552" lon="1.21941">
        <ele>330</ele>
        <time>2024-11-12T08:13:57Z</time>
      </trkpt>
      <trkpt lat="45.85521" lon="1.21942">
        <ele>330</ele>
        <time>2024-11-12T08:13:58Z</time>
      </trkpt>
      <trkpt lat="45.85522" lon="1.21944">
        <ele>329.9</ele>
        <time>2024-11-12T08:13:59Z</time>
      </trkpt>
      <trkpt lat="45.85523" lon="1.21946">
        <ele>329.7</ele>
        <time>2024-11-12T08:14:00Z</time>
      </trkpt>
      <trkpt lat="45.85524" lon="1.21947">
        <ele>329.6</ele>
        <time>2024-11-12T08:14:01Z</time>
      </trkpt>
      <trkpt lat="45.85524" lon="1.21948">
        <ele>329.4</ele>
        <time>2024-11-12T08:14:02Z</time>
      </trkpt>
      <trkpt lat="45.85525" lon="1.21951">
        <ele>328.9</ele>
        <time>2024-11-12T08:14:03Z</time>
      </trkpt>
      <trkpt lat="45.85526" lon="1.21952">
        <ele>328.7</ele>
        <time>2024-11-12T08:14:04Z</time>
      </trkpt>
      <trkpt lat="45.85526" lon="1.21953">
        <ele>328.5</ele>
        <time>2024-11-12T08:14:05Z</time>
      </trkpt>
      <trkpt lat="45.85527" lon="1.21956">
        <ele>328</ele>
        <time>2024-11-12T08:14:06Z</time>
      </trkpt>
      <trkpt lat="45.85527" lon="1.21957">
        <ele>327.9</ele>
        <time>2024-11-12T08:14:07Z</time>
      </trkpt>
      <trkpt lat="45.85527" lon="1.21958">
        <ele>327.7</ele>
        <time>2024-11-12T08:14:08Z</time>
      </trkpt>
      <trkpt lat="45.85528" lon="1.21961">
        <ele>327.2</ele>
        <time>2024-11-12T08:14:09Z</time>
      </trkpt>
      <trkpt lat="45.85528" lon="1.21962">
        <ele>327</ele>
        <time>2024-11-12T08:14:10Z</time>
      </trkpt>
      <trkpt lat="45.85528" lon="1.21963">
        <ele>326.8</ele>
        <time>2024-11-12T08:14:11Z</time>
      </trkpt>
      <trkpt lat="45.85528" lon="1.21965">
        <ele>326.5</ele>
        <time>2024-11-12T08:14:12Z</time>
      </trkpt>
      <trkpt lat="45.85528" lon="1.21967">
        <ele>326.2</ele>
        <time>2024-11-12T08:14:13Z</time>
      </trkpt>
      <trkpt lat="45.85528" lon="1.2197">
        <ele>325.7</ele>
        <time>2024-11-12T08:14:14Z</time>
      </trkpt>
      <trkpt lat="45.85528" lon="1.21972">
        <ele>325.6</ele>
        <time>2024-11-12T08:14:15Z</time>
      </trkpt>
      <trkpt lat="45.85528" lon="1.21973">
        <ele>325.4</ele>
        <time>2024-11-12T08:14:16Z</time>
      </trkpt>
      <trkpt lat="45.85527" lon="1.21976">
        <ele>324.9</ele>
        <time>2024-11-12T08:14:17Z</time>
      </trkpt>
      <trkpt lat="45.85527" lon="1.21977">
        <ele>324.7</ele>
        <time>2024-11-12T08:14:18Z</time>
      </trkpt>
      <trkpt lat="45.85527" lon="1.21978">
        <ele>324.5</ele>
        <time>2024-11-12T08:14:19Z</time>
      </trkpt>
      <trkpt lat="45.85526" lon="1.21981">
        <ele>324</ele>
        <time>2024-11-12T08:14:20Z</time>
      </trkpt>
      <trkpt lat="45.85526" lon="1.21983">
        <ele>323.8</ele>
        <time>2024-11-12T08:14:21Z</time>
      </trkpt>
      <trkpt lat="45.85526" lon="1.21984">
        <ele>323.7</ele>
        <time>2024-11-12T08:14:22Z</time>
      </trkpt>
      <trkpt lat="45.85525" lon="1.21985">
        <ele>323.4</ele>
        <time>2024-11-12T08:14:23Z</time>
      </trkpt>
      <trkpt lat="45.85525" lon="1.21987">
        <ele>323.2</ele>
        <time>2024-11-12T08:14:24Z</time>
      </trkpt>
      <trkpt lat="45.85524" lon="1.21988">
        <ele>322.9</ele>
        <time>2024-11-12T08:14:25Z</time>
      </trkpt>
      <trkpt lat="45.85524" lon="1.21989">
        <ele>322.7</ele>
        <time>2024-11-12T08:14:26Z</time>
      </trkpt>
      <trkpt lat="45.85524" lon="1.2199">
        <ele>322.5</ele>
        <time>2024-11-12T08:14:27Z</time>
      </trkpt>
      <trkpt lat="45.85525" lon="1.21991">
        <ele>322.4</ele>
        <time>2024-11-12T08:14:28Z</time>
      </trkpt>
      <trkpt lat="45.85525" lon="1.21993">
        <ele>322.1</ele>
        <time>2024-11-12T08:14:29Z</time>
      </trkpt>
      <trkpt lat="45.85525" lon="1.21995">
        <ele>321.8</ele>
        <time>2024-11-12T08:14:30Z</time>
      </trkpt>
      <trkpt lat="45.85525" lon="1.21998">
        <ele>321.4</ele>
        <time>2024-11-12T08:14:31Z</time>
      </trkpt>
      <trkpt lat="45.85526" lon="1.22001">
        <ele>320.9</ele>
        <time>2024-11-12T08:14:32Z</time>
      </trkpt>
      <trkpt lat="45.85526" lon="1.22002">
        <ele>320.7</ele>
        <time>2024-11-12T08:14:33Z</time>
      </trkpt>
      <trkpt lat="45.85526" lon="1.22003">
        <ele>320.6</ele>
        <time>2024-11-12T08:14:34Z</time>
      </trkpt>
      <trkpt lat="45.85525" lon="1.22005">
        <ele>320.3</ele>
        <time>2024-11-12T08:14:35Z</time>
      </trkpt>
      <trkpt lat="45.85525" lon="1.22007">
        <ele>319.9</ele>
        <time>2024-11-12T08:14:36Z</time>
      </trkpt>
      <trkpt lat="45.85525" lon="1.22009">
        <ele>319.6</ele>
        <time>2024-11-12T08:14:37Z</time>
      </trkpt>
      <trkpt lat="45.85525" lon="1.22011">
        <ele>319.4</ele>
        <time>2024-11-12T08:14:38Z</time>
      </trkpt>
      <trkpt lat="45.85524" lon="1.22013">
        <ele>319.1</ele>
        <time>2024-11-12T08:14:39Z</time>
      </trkpt>
      <trkpt lat="45.85524" lon="1.22015">
        <ele>318.8</ele>
        <time>2024-11-12T08:14:40Z</time>
      </trkpt>
      <trkpt lat="45.85524" lon="1.22018">
        <ele>318.4</ele>
        <time>2024-11-12T08:14:41Z</time>
      </trkpt>
      <trkpt lat="45.85524" lon="1.22019">
        <ele>318.2</ele>
        <time>2024-11-12T08:14:42Z</time>
      </trkpt>
      <trkpt lat="45.85524" lon="1.22021">
        <ele>318</ele>
        <time>2024-11-12T08:14:43Z</time>
      </trkpt>
      <trkpt lat="45.85525" lon="1.22022">
        <ele>317.8</ele>
        <time>2024-11-12T08:14:44Z</time>
      </trkpt>
      <trkpt lat="45.85525" lon="1.22024">
        <ele>317.5</ele>
        <time>2024-11-12T08:14:45Z</time>
      </trkpt>
      <trkpt lat="45.85526" lon="1.22026">
        <ele>317.2</ele>
        <time>2024-11-12T08:14:46Z</time>
      </trkpt>
      <trkpt lat="45.85526" lon="1.22027">
        <ele>317</ele>
        <time>2024-11-12T08:14:47Z</time>
      </trkpt>
      <trkpt lat="45.85526" lon="1.22029">
        <ele>316.8</ele>
        <time>2024-11-12T08:14:48Z</time>
      </trkpt>
      <trkpt lat="45.85525" lon="1.22032">
        <ele>316.3</ele>
        <time>2024-11-12T08:14:49Z</time>
      </trkpt>
      <trkpt lat="45.85525" lon="1.22033">
        <ele>316.2</ele>
        <time>2024-11-12T08:14:50Z</time>
      </trkpt>
      <trkpt lat="45.85525" lon="1.22035">
        <ele>316</ele>
        <time>2024-11-12T08:14:51Z</time>
      </trkpt>
      <trkpt lat="45.85524" lon="1.22038">
        <ele>315.6</ele>
        <time>2024-11-12T08:14:52Z</time>
      </trkpt>
      <trkpt lat="45.85525" lon="1.22039">
        <ele>315.4</ele>
        <time>2024-11-12T08:14:53Z</time>
      </trkpt>
      <trkpt lat="45.85525" lon="1.2204">
        <ele>315.2</ele>
        <time>2024-11-12T08:14:54Z</time>
      </trkpt>
      <trkpt lat="45.85524" lon="1.22043">
        <ele>314.9</ele>
        <time>2024-11-12T08:14:55Z</time>
      </trkpt>
      <trkpt lat="45.85524" lon="1.22044">
        <ele>314.9</ele>
        <time>2024-11-12T08:14:56Z</time>
      </trkpt>
      <trkpt lat="45.85524" lon="1.22045">
        <ele>314.9</ele>
        <time>2024-11-12T08:14:57Z</time>
      </trkpt>
      <trkpt lat="45.85523" lon="1.22047">
        <ele>314.9</ele>
        <time>2024-11-12T08:14:58Z</time>
      </trkpt>
      <trkpt lat="45.85524" lon="1.22048">
        <ele>314.8</ele>
        <time>2024-11-12T08:14:59Z</time>
      </trkpt>
      <trkpt lat="45.85524" lon="1.2205">
        <ele>314.8</ele>
        <time>2024-11-12T08:15:00Z</time>
      </trkpt>
      <trkpt lat="45.85524" lon="1.22052">
        <ele>314.8</ele>
        <time>2024-11-12T08:15:01Z</time>
      </trkpt>
      <trkpt lat="45.85523" lon="1.22054">
        <ele>314.8</ele>
        <time>2024-11-12T08:15:02Z</time>
      </trkpt>
      <trkpt lat="45.85522" lon="1.22056">
        <ele>314.7</ele>
        <time>2024-11-12T08:15:03Z</time>
      </trkpt>
      <trkpt lat="45.85521" lon="1.22057">
        <ele>314.7</ele>
        <time>2024-11-12T08:15:04Z</time>
      </trkpt>
      <trkpt lat="45.85521" lon="1.22058">
        <ele>314.7</ele>
        <time>2024-11-12T08:15:05Z</time>
      </trkpt>
      <trkpt lat="45.85519" lon="1.22061">
        <ele>314.7</ele>
        <time>2024-11-12T08:15:06Z</time>
      </trkpt>
      <trkpt lat="45.85519" lon="1.22061">
        <ele>314.7</ele>
        <time>2024-11-12T08:15:07Z</time>
      </trkpt>
      <trkpt lat="45.85518" lon="1.22063">
        <ele>314.6</ele>
        <time>2024-11-12T08:15:08Z</time>
      </trkpt>
      <trkpt lat="45.85517" lon="1.22065">
        <ele>314.6</ele>
        <time>2024-11-12T08:15:09Z</time>
      </trkpt>
      <trkpt lat="45.85517" lon="1.22067">
        <ele>314.6</ele>
        <time>2024-11-12T08:15:10Z</time>
      </trkpt>
      <trkpt lat="45.85516" lon="1.22068">
        <ele>314.6</ele>
        <time>2024-11-12T08:15:11Z</time>
      </trkpt>
      <trkpt lat="45.85516" lon="1.22069">
        <ele>314.6</ele>
        <time>2024-11-12T08:15:12Z</time>
      </trkpt>
      <trkpt lat="45.85515" lon="1.2207">
        <ele>314.6</ele>
        <time>2024-11-12T08:15:13Z</time>
      </trkpt>
      <trkpt lat="45.85515" lon="1.22072">
        <ele>314.6</ele>
        <time>2024-11-12T08:15:14Z</time>
      </trkpt>
      <trkpt lat="45.85514" lon="1.22073">
        <ele>314.6</ele>
        <time>2024-11-12T08:15:15Z</time>
      </trkpt>
      <trkpt lat="45.85513" lon="1.22075">
        <ele>314.5</ele>
        <time>2024-11-12T08:15:16Z</time>
      </trkpt>
      <trkpt lat="45.85513" lon="1.22077">
        <ele>314.5</ele>
        <time>2024-11-12T08:15:17Z</time>
      </trkpt>
      <trkpt lat="45.85513" lon="1.22078">
        <ele>314.5</ele>
        <time>2024-11-12T08:15:18Z</time>
      </trkpt>
      <trkpt lat="45.85512" lon="1.22079">
        <ele>314.5</ele>
        <time>2024-11-12T08:15:19Z</time>
      </trkpt>
      <trkpt lat="45.85511" lon="1.22081">
        <ele>314.5</ele>
        <time>2024-11-12T08:15:20Z</time>
      </trkpt>
      <trkpt lat="45.8551" lon="1.22082">
        <ele>314.5</ele>
        <time>2024-11-12T08:15:21Z</time>
      </trkpt>
      <trkpt lat="45.85509" lon="1.22083">
        <ele>314.5</ele>
        <time>2024-11-12T08:15:22Z</time>
      </trkpt>
      <trkpt lat="45.85508" lon="1.22084">
        <ele>314.5</ele>
        <time>2024-11-12T08:15:23Z</time>
      </trkpt>
      <trkpt lat="45.85507" lon="1.22085">
        <ele>314.5</ele>
        <time>2024-11-12T08:15:24Z</time>
      </trkpt>
      <trkpt lat="45.85506" lon="1.22087">
        <ele>314.5</ele>
        <time>2024-11-12T08:15:25Z</time>
      </trkpt>
      <trkpt lat="45.85506" lon="1.22089">
        <ele>314.5</ele>
        <time>2024-11-12T08:15:26Z</time>
      </trkpt>
      <trkpt lat="45.85505" lon="1.2209">
        <ele>314.5</ele>
        <time>2024-11-12T08:15:27Z</time>
      </trkpt>
      <trkpt lat="45.85504" lon="1.22091">
        <ele>314.5</ele>
        <time>2024-11-12T08:15:28Z</time>
      </trkpt>
      <trkpt lat="45.85504" lon="1.22093">
        <ele>314.5</ele>
        <time>2024-11-12T08:15:29Z</time>
      </trkpt>
      <trkpt lat="45.85503" lon="1.22094">
        <ele>314.5</ele>
        <time>2024-11-12T08:15:30Z</time>
      </trkpt>
      <trkpt lat="45.85502" lon="1.22096">
        <ele>314.5</ele>
        <time>2024-11-12T08:15:31Z</time>
      </trkpt>
      <trkpt lat="45.85501" lon="1.22097">
        <ele>314.5</ele>
        <time>2024-11-12T08:15:32Z</time>
      </trkpt>
      <trkpt lat="45.85501" lon="1.22098">
        <ele>314.5</ele>
        <time>2024-11-12T08:15:33Z</time>
      </trkpt>
      <trkpt lat="45.855" lon="1.22099">
        <ele>314.5</ele>
        <time>2024-11-12T08:15:34Z</time>
      </trkpt>
      <trkpt lat="45.85499" lon="1.221">
        <ele>314.6</ele>
        <time>2024-11-12T08:15:35Z</time>
      </trkpt>
      <trkpt lat="45.85498" lon="1.22102">
        <ele>314.6</ele>
        <time>2024-11-12T08:15:36Z</time>
      </trkpt>
      <trkpt lat="45.85497" lon="1.22103">
        <ele>314.6</ele>
        <time>2024-11-12T08:15:37Z</time>
      </trkpt>
      <trkpt lat="45.85496" lon="1.22105">
        <ele>314.6</ele>
        <time>2024-11-12T08:15:38Z</time>
      </trkpt>
      <trkpt lat="45.85495" lon="1.22106">
        <ele>314.6</ele>
        <time>2024-11-12T08:15:39Z</time>
      </trkpt>
      <trkpt lat="45.85495" lon="1.22107">
        <ele>314.6</ele>
        <time>2024-11-12T08:15:40Z</time>
      </trkpt>
      <trkpt lat="45.85493" lon="1.22109">
        <ele>314.6</ele>
        <time>2024-11-12T08:15:41Z</time>
      </trkpt>
      <trkpt lat="45.85492" lon="1.22109">
        <ele>314.6</ele>
        <time>2024-11-12T08:15:42Z</time>
      </trkpt>
      <trkpt lat="45.85492" lon="1.2211">
        <ele>314.6</ele>
        <time>2024-11-12T08:15:43Z</time>
      </trkpt>
      <trkpt lat="45.8549" lon="1.22112">
        <ele>314.6</ele>
        <time>2024-11-12T08:15:44Z</time>
      </trkpt>
      <trkpt lat="45.85489" lon="1.22113">
        <ele>314.6</ele>
        <time>2024-11-12T08:15:45Z</time>
      </trkpt>
      <trkpt lat="45.85488" lon="1.22114">
        <ele>314.6</ele>
        <time>2024-11-12T08:15:46Z</time>
      </trkpt>
      <trkpt lat="45.85488" lon="1.22115">
        <ele>314.6</ele>
        <time>2024-11-12T08:15:47Z</time>
      </trkpt>
      <trkpt lat="45.85487" lon="1.22116">
        <ele>314.6</ele>
        <time>2024-11-12T08:15:48Z</time>
      </trkpt>
      <trkpt lat="45.85486" lon="1.22117">
        <ele>314.5</ele>
        <time>2024-11-12T08:15:49Z</time>
      </trkpt>
      <trkpt lat="45.85485" lon="1.22117">
        <ele>314.4</ele>
        <time>2024-11-12T08:15:50Z</time>
      </trkpt>
      <trkpt lat="45.85483" lon="1.22119">
        <ele>314.3</ele>
        <time>2024-11-12T08:15:51Z</time>
      </trkpt>
      <trkpt lat="45.85482" lon="1.2212">
        <ele>314.2</ele>
        <time>2024-11-12T08:15:52Z</time>
      </trkpt>
      <trkpt lat="45.85481" lon="1.22121">
        <ele>314.1</ele>
        <time>2024-11-12T08:15:53Z</time>
      </trkpt>
      <trkpt lat="45.8548" lon="1.22122">
        <ele>314</ele>
        <time>2024-11-12T08:15:54Z</time>
      </trkpt>
      <trkpt lat="45.85479" lon="1.22123">
        <ele>313.9</ele>
        <time>2024-11-12T08:15:55Z</time>
      </trkpt>
      <trkpt lat="45.85478" lon="1.22124">
        <ele>313.8</ele>
        <time>2024-11-12T08:15:56Z</time>
      </trkpt>
      <trkpt lat="45.85476" lon="1.22125">
        <ele>313.7</ele>
        <time>2024-11-12T08:15:57Z</time>
      </trkpt>
      <trkpt lat="45.85475" lon="1.22126">
        <ele>313.6</ele>
        <time>2024-11-12T08:15:58Z</time>
      </trkpt>
      <trkpt lat="45.85474" lon="1.22127">
        <ele>313.5</ele>
        <time>2024-11-12T08:15:59Z</time>
      </trkpt>
      <trkpt lat="45.85473" lon="1.22127">
        <ele>313.4</ele>
        <time>2024-11-12T08:16:00Z</time>
      </trkpt>
      <trkpt lat="45.85472" lon="1.22128">
        <ele>313.3</ele>
        <time>2024-11-12T08:16:01Z</time>
      </trkpt>
      <trkpt lat="45.8547" lon="1.2213">
        <ele>313.1</ele>
        <time>2024-11-12T08:16:02Z</time>
      </trkpt>
      <trkpt lat="45.85469" lon="1.2213">
        <ele>313</ele>
        <time>2024-11-12T08:16:03Z</time>
      </trkpt>
      <trkpt lat="45.85469" lon="1.22131">
        <ele>313</ele>
        <time>2024-11-12T08:16:04Z</time>
      </trkpt>
      <trkpt lat="45.85468" lon="1.22132">
        <ele>312.9</ele>
        <time>2024-11-12T08:16:05Z</time>
      </trkpt>
      <trkpt lat="45.85467" lon="1.22134">
        <ele>312.7</ele>
        <time>2024-11-12T08:16:06Z</time>
      </trkpt>
      <trkpt lat="45.85466" lon="1.22135">
        <ele>312.6</ele>
        <time>2024-11-12T08:16:07Z</time>
      </trkpt>
      <trkpt lat="45.85465" lon="1.22136">
        <ele>312.5</ele>
        <time>2024-11-12T08:16:08Z</time>
      </trkpt>
      <trkpt lat="45.85465" lon="1.22138">
        <ele>312.5</ele>
        <time>2024-11-12T08:16:09Z</time>
      </trkpt>
      <trkpt lat="45.85463" lon="1.2214">
        <ele>312.5</ele>
        <time>2024-11-12T08:16:10Z</time>
      </trkpt>
      <trkpt lat="45.85462" lon="1.22141">
        <ele>312.6</ele>
        <time>2024-11-12T08:16:12Z</time>
      </trkpt>
      <trkpt lat="45.85461" lon="1.22142">
        <ele>312.6</ele>
        <time>2024-11-12T08:16:13Z</time>
      </trkpt>
      <trkpt lat="45.8546" lon="1.22143">
        <ele>312.6</ele>
        <time>2024-11-12T08:16:14Z</time>
      </trkpt>
      <trkpt lat="45.85459" lon="1.22144">
        <ele>312.6</ele>
        <time>2024-11-12T08:16:15Z</time>
      </trkpt>
      <trkpt lat="45.85457" lon="1.22145">
        <ele>312.6</ele>
        <time>2024-11-12T08:16:16Z</time>
      </trkpt>
      <trkpt lat="45.85456" lon="1.22145">
        <ele>312.6</ele>
        <time>2024-11-12T08:16:17Z</time>
      </trkpt>
      <trkpt lat="45.85455" lon="1.22146">
        <ele>312.7</ele>
        <time>2024-11-12T08:16:18Z</time>
      </trkpt>
      <trkpt lat="45.85454" lon="1.22147">
        <ele>312.7</ele>
        <time>2024-11-12T08:16:19Z</time>
      </trkpt>
      <trkpt lat="45.85453" lon="1.22147">
        <ele>312.7</ele>
        <time>2024-11-12T08:16:20Z</time>
      </trkpt>
      <trkpt lat="45.85451" lon="1.22148">
        <ele>312.8</ele>
        <time>2024-11-12T08:16:21Z</time>
      </trkpt>
      <trkpt lat="45.8545" lon="1.22149">
        <ele>312.8</ele>
        <time>2024-11-12T08:16:22Z</time>
      </trkpt>
      <trkpt lat="45.85449" lon="1.22149">
        <ele>312.9</ele>
        <time>2024-11-12T08:16:23Z</time>
      </trkpt>
      <trkpt lat="45.85447" lon="1.22148">
        <ele>312.9</ele>
        <time>2024-11-12T08:16:24Z</time>
      </trkpt>
      <trkpt lat="45.85446" lon="1.22148">
        <ele>313</ele>
        <time>2024-11-12T08:16:25Z</time>
      </trkpt>
      <trkpt lat="45.85445" lon="1.22148">
        <ele>313</ele>
        <time>2024-11-12T08:16:26Z</time>
      </trkpt>
      <trkpt lat="45.85444" lon="1.22148">
        <ele>313</ele>
        <time>2024-11-12T08:16:27Z</time>
      </trkpt>
      <trkpt lat="45.85443" lon="1.22148">
        <ele>313</ele>
        <time>2024-11-12T08:16:28Z</time>
      </trkpt>
      <trkpt lat="45.85442" lon="1.22148">
        <ele>313</ele>
        <time>2024-11-12T08:16:29Z</time>
      </trkpt>
      <trkpt lat="45.85441" lon="1.22147">
        <ele>313</ele>
        <time>2024-11-12T08:16:30Z</time>
      </trkpt>
      <trkpt lat="45.8544" lon="1.22146">
        <ele>313.1</ele>
        <time>2024-11-12T08:16:31Z</time>
      </trkpt>
      <trkpt lat="45.85439" lon="1.22145">
        <ele>313.1</ele>
        <time>2024-11-12T08:16:32Z</time>
      </trkpt>
      <trkpt lat="45.85439" lon="1.22144">
        <ele>313.1</ele>
        <time>2024-11-12T08:16:33Z</time>
      </trkpt>
      <trkpt lat="45.85438" lon="1.22143">
        <ele>313.1</ele>
        <time>2024-11-12T08:16:34Z</time>
      </trkpt>
      <trkpt lat="45.85437" lon="1.22142">
        <ele>313.1</ele>
        <time>2024-11-12T08:16:35Z</time>
      </trkpt>
      <trkpt lat="45.85436" lon="1.22141">
        <ele>313.2</ele>
        <time>2024-11-12T08:16:36Z</time>
      </trkpt>
      <trkpt lat="45.85436" lon="1.22139">
        <ele>313.2</ele>
        <time>2024-11-12T08:16:37Z</time>
      </trkpt>
      <trkpt lat="45.85435" lon="1.22136">
        <ele>313.3</ele>
        <time>2024-11-12T08:16:38Z</time>
      </trkpt>
      <trkpt lat="45.85434" lon="1.22135">
        <ele>313.3</ele>
        <time>2024-11-12T08:16:39Z</time>
      </trkpt>
      <trkpt lat="45.85433" lon="1.22135">
        <ele>313.3</ele>
        <time>2024-11-12T08:16:40Z</time>
      </trkpt>
      <trkpt lat="45.85432" lon="1.22133">
        <ele>313.4</ele>
        <time>2024-11-12T08:16:41Z</time>
      </trkpt>
      <trkpt lat="45.85431" lon="1.22132">
        <ele>313.4</ele>
        <time>2024-11-12T08:16:42Z</time>
      </trkpt>
      <trkpt lat="45.8543" lon="1.22132">
        <ele>313.4</ele>
        <time>2024-11-12T08:16:43Z</time>
      </trkpt>
      <trkpt lat="45.85429" lon="1.2213">
        <ele>313.5</ele>
        <time>2024-11-12T08:16:44Z</time>
      </trkpt>
      <trkpt lat="45.85428" lon="1.22129">
        <ele>313.5</ele>
        <time>2024-11-12T08:16:45Z</time>
      </trkpt>
      <trkpt lat="45.85427" lon="1.22129">
        <ele>313.5</ele>
        <time>2024-11-12T08:16:46Z</time>
      </trkpt>
      <trkpt lat="45.85425" lon="1.22128">
        <ele>313.6</ele>
        <time>2024-11-12T08:16:47Z</time>
      </trkpt>
      <trkpt lat="45.85424" lon="1.22128">
        <ele>313.6</ele>
        <time>2024-11-12T08:16:48Z</time>
      </trkpt>
      <trkpt lat="45.85423" lon="1.22128">
        <ele>313.7</ele>
        <time>2024-11-12T08:16:49Z</time>
      </trkpt>
      <trkpt lat="45.85421" lon="1.22129">
        <ele>313.7</ele>
        <time>2024-11-12T08:16:50Z</time>
      </trkpt>
      <trkpt lat="45.8542" lon="1.22129">
        <ele>313.8</ele>
        <time>2024-11-12T08:16:51Z</time>
      </trkpt>
      <trkpt lat="45.85419" lon="1.22129">
        <ele>313.8</ele>
        <time>2024-11-12T08:16:52Z</time>
      </trkpt>
      <trkpt lat="45.85418" lon="1.22131">
        <ele>313.9</ele>
        <time>2024-11-12T08:16:53Z</time>
      </trkpt>
      <trkpt lat="45.85417" lon="1.22132">
        <ele>313.9</ele>
        <time>2024-11-12T08:16:54Z</time>
      </trkpt>
      <trkpt lat="45.85416" lon="1.22132">
        <ele>314</ele>
        <time>2024-11-12T08:16:55Z</time>
      </trkpt>
      <trkpt lat="45.85415" lon="1.22134">
        <ele>314</ele>
        <time>2024-11-12T08:16:56Z</time>
      </trkpt>
      <trkpt lat="45.85414" lon="1.22135">
        <ele>314.1</ele>
        <time>2024-11-12T08:16:57Z</time>
      </trkpt>
      <trkpt lat="45.85414" lon="1.22136">
        <ele>314.1</ele>
        <time>2024-11-12T08:16:58Z</time>
      </trkpt>
      <trkpt lat="45.85412" lon="1.22137">
        <ele>314.2</ele>
        <time>2024-11-12T08:16:59Z</time>
      </trkpt>
      <trkpt lat="45.85412" lon="1.22137">
        <ele>314.2</ele>
        <time>2024-11-12T08:17:00Z</time>
      </trkpt>
      <trkpt lat="45.8541" lon="1.22138">
        <ele>314.2</ele>
        <time>2024-11-12T08:17:01Z</time>
      </trkpt>
      <trkpt lat="45.85409" lon="1.22139">
        <ele>314.3</ele>
        <time>2024-11-12T08:17:02Z</time>
      </trkpt>
      <trkpt lat="45.85408" lon="1.22139">
        <ele>314.3</ele>
        <time>2024-11-12T08:17:03Z</time>
      </trkpt>
      <trkpt lat="45.85407" lon="1.2214">
        <ele>314.4</ele>
        <time>2024-11-12T08:17:04Z</time>
      </trkpt>
      <trkpt lat="45.85407" lon="1.22141">
        <ele>314.4</ele>
        <time>2024-11-12T08:17:05Z</time>
      </trkpt>
      <trkpt lat="45.85406" lon="1.22142">
        <ele>314.5</ele>
        <time>2024-11-12T08:17:06Z</time>
      </trkpt>
      <trkpt lat="45.85404" lon="1.22143">
        <ele>314.5</ele>
        <time>2024-11-12T08:17:07Z</time>
      </trkpt>
      <trkpt lat="45.85404" lon="1.22143">
        <ele>314.6</ele>
        <time>2024-11-12T08:17:08Z</time>
      </trkpt>
      <trkpt lat="45.85402" lon="1.22144">
        <ele>314.6</ele>
        <time>2024-11-12T08:17:09Z</time>
      </trkpt>
      <trkpt lat="45.85401" lon="1.22145">
        <ele>314.7</ele>
        <time>2024-11-12T08:17:10Z</time>
      </trkpt>
      <trkpt lat="45.854" lon="1.22146">
        <ele>314.8</ele>
        <time>2024-11-12T08:17:11Z</time>
      </trkpt>
      <trkpt lat="45.85399" lon="1.22148">
        <ele>314.8</ele>
        <time>2024-11-12T08:17:12Z</time>
      </trkpt>
      <trkpt lat="45.85398" lon="1.22148">
        <ele>314.9</ele>
        <time>2024-11-12T08:17:13Z</time>
      </trkpt>
      <trkpt lat="45.85397" lon="1.22149">
        <ele>314.9</ele>
        <time>2024-11-12T08:17:14Z</time>
      </trkpt>
      <trkpt lat="45.85396" lon="1.2215">
        <ele>315</ele>
        <time>2024-11-12T08:17:15Z</time>
      </trkpt>
      <trkpt lat="45.85396" lon="1.22151">
        <ele>315</ele>
        <time>2024-11-12T08:17:16Z</time>
      </trkpt>
      <trkpt lat="45.85395" lon="1.22152">
        <ele>315.1</ele>
        <time>2024-11-12T08:17:17Z</time>
      </trkpt>
      <trkpt lat="45.85394" lon="1.22152">
        <ele>315.1</ele>
        <time>2024-11-12T08:17:18Z</time>
      </trkpt>
      <trkpt lat="45.85393" lon="1.22153">
        <ele>315.2</ele>
        <time>2024-11-12T08:17:19Z</time>
      </trkpt>
      <trkpt lat="45.85392" lon="1.22154">
        <ele>315.2</ele>
        <time>2024-11-12T08:17:20Z</time>
      </trkpt>
      <trkpt lat="45.85391" lon="1.22154">
        <ele>315.3</ele>
        <time>2024-11-12T08:17:21Z</time>
      </trkpt>
      <trkpt lat="45.85388" lon="1.22155">
        <ele>315.4</ele>
        <time>2024-11-12T08:17:22Z</time>
      </trkpt>
      <trkpt lat="45.85388" lon="1.22155">
        <ele>315.4</ele>
        <time>2024-11-12T08:17:23Z</time>
      </trkpt>
      <trkpt lat="45.85387" lon="1.22155">
        <ele>315.5</ele>
        <time>2024-11-12T08:17:24Z</time>
      </trkpt>
      <trkpt lat="45.85385" lon="1.22156">
        <ele>315.6</ele>
        <time>2024-11-12T08:17:25Z</time>
      </trkpt>
      <trkpt lat="45.85384" lon="1.22157">
        <ele>315.6</ele>
        <time>2024-11-12T08:17:26Z</time>
      </trkpt>
      <trkpt lat="45.85383" lon="1.22157">
        <ele>315.7</ele>
        <time>2024-11-12T08:17:27Z</time>
      </trkpt>
      <trkpt lat="45.85382" lon="1.22158">
        <ele>315.7</ele>
        <time>2024-11-12T08:17:28Z</time>
      </trkpt>
      <trkpt lat="45.85381" lon="1.22158">
        <ele>315.8</ele>
        <time>2024-11-12T08:17:29Z</time>
      </trkpt>
      <trkpt lat="45.85379" lon="1.22158">
        <ele>315.8</ele>
        <time>2024-11-12T08:17:30Z</time>
      </trkpt>
      <trkpt lat="45.85378" lon="1.22158">
        <ele>315.9</ele>
        <time>2024-11-12T08:17:31Z</time>
      </trkpt>
      <trkpt lat="45.85377" lon="1.22159">
        <ele>315.9</ele>
        <time>2024-11-12T08:17:32Z</time>
      </trkpt>
      <trkpt lat="45.85376" lon="1.22159">
        <ele>316</ele>
        <time>2024-11-12T08:17:33Z</time>
      </trkpt>
      <trkpt lat="45.85375" lon="1.22159">
        <ele>316</ele>
        <time>2024-11-12T08:17:34Z</time>
      </trkpt>
      <trkpt lat="45.85374" lon="1.22159">
        <ele>316.1</ele>
        <time>2024-11-12T08:17:35Z</time>
      </trkpt>
      <trkpt lat="45.85372" lon="1.2216">
        <ele>316.2</ele>
        <time>2024-11-12T08:17:36Z</time>
      </trkpt>
      <trkpt lat="45.85371" lon="1.22161">
        <ele>316.2</ele>
        <time>2024-11-12T08:17:37Z</time>
      </trkpt>
      <trkpt lat="45.85371" lon="1.22162">
        <ele>316.3</ele>
        <time>2024-11-12T08:17:38Z</time>
      </trkpt>
      <trkpt lat="45.85369" lon="1.22162">
        <ele>316.3</ele>
        <time>2024-11-12T08:17:39Z</time>
      </trkpt>
      <trkpt lat="45.85367" lon="1.22162">
        <ele>316.4</ele>
        <time>2024-11-12T08:17:40Z</time>
      </trkpt>
      <trkpt lat="45.85367" lon="1.22162">
        <ele>316.5</ele>
        <time>2024-11-12T08:17:41Z</time>
      </trkpt>
      <trkpt lat="45.85366" lon="1.22162">
        <ele>316.5</ele>
        <time>2024-11-12T08:17:42Z</time>
      </trkpt>
      <trkpt lat="45.85365" lon="1.22162">
        <ele>316.5</ele>
        <time>2024-11-12T08:17:43Z</time>
      </trkpt>
      <trkpt lat="45.85364" lon="1.22162">
        <ele>316.6</ele>
        <time>2024-11-12T08:17:44Z</time>
      </trkpt>
      <trkpt lat="45.85362" lon="1.22162">
        <ele>316.6</ele>
        <time>2024-11-12T08:17:45Z</time>
      </trkpt>
      <trkpt lat="45.85361" lon="1.22161">
        <ele>316.7</ele>
        <time>2024-11-12T08:17:46Z</time>
      </trkpt>
      <trkpt lat="45.8536" lon="1.22161">
        <ele>316.8</ele>
        <time>2024-11-12T08:17:47Z</time>
      </trkpt>
      <trkpt lat="45.85359" lon="1.2216">
        <ele>316.8</ele>
        <time>2024-11-12T08:17:48Z</time>
      </trkpt>
      <trkpt lat="45.85357" lon="1.22161">
        <ele>316.9</ele>
        <time>2024-11-12T08:17:49Z</time>
      </trkpt>
      <trkpt lat="45.85356" lon="1.22161">
        <ele>316.9</ele>
        <time>2024-11-12T08:17:50Z</time>
      </trkpt>
      <trkpt lat="45.85355" lon="1.22161">
        <ele>317</ele>
        <time>2024-11-12T08:17:51Z</time>
      </trkpt>
      <trkpt lat="45.85353" lon="1.22161">
        <ele>317</ele>
        <time>2024-11-12T08:17:52Z</time>
      </trkpt>
      <trkpt lat="45.85352" lon="1.22161">
        <ele>317.1</ele>
        <time>2024-11-12T08:17:53Z</time>
      </trkpt>
      <trkpt lat="45.85351" lon="1.22162">
        <ele>317.1</ele>
        <time>2024-11-12T08:17:54Z</time>
      </trkpt>
      <trkpt lat="45.8535" lon="1.22162">
        <ele>317.2</ele>
        <time>2024-11-12T08:17:55Z</time>
      </trkpt>
      <trkpt lat="45.85349" lon="1.22162">
        <ele>317.2</ele>
        <time>2024-11-12T08:17:56Z</time>
      </trkpt>
      <trkpt lat="45.85347" lon="1.22162">
        <ele>317.3</ele>
        <time>2024-11-12T08:17:57Z</time>
      </trkpt>
      <trkpt lat="45.85346" lon="1.22162">
        <ele>317.3</ele>
        <time>2024-11-12T08:17:58Z</time>
      </trkpt>
      <trkpt lat="45.85344" lon="1.22162">
        <ele>317.4</ele>
        <time>2024-11-12T08:17:59Z</time>
      </trkpt>
      <trkpt lat="45.85343" lon="1.22162">
        <ele>317.4</ele>
        <time>2024-11-12T08:18:00Z</time>
      </trkpt>
      <trkpt lat="45.85343" lon="1.22162">
        <ele>317.5</ele>
        <time>2024-11-12T08:18:01Z</time>
      </trkpt>
      <trkpt lat="45.85341" lon="1.22162">
        <ele>317.5</ele>
        <time>2024-11-12T08:18:02Z</time>
      </trkpt>
      <trkpt lat="45.8534" lon="1.22162">
        <ele>317.6</ele>
        <time>2024-11-12T08:18:03Z</time>
      </trkpt>
      <trkpt lat="45.85339" lon="1.22162">
        <ele>317.6</ele>
        <time>2024-11-12T08:18:04Z</time>
      </trkpt>
      <trkpt lat="45.85338" lon="1.22163">
        <ele>317.7</ele>
        <time>2024-11-12T08:18:05Z</time>
      </trkpt>
      <trkpt lat="45.85337" lon="1.22163">
        <ele>317.7</ele>
        <time>2024-11-12T08:18:06Z</time>
      </trkpt>
      <trkpt lat="45.85336" lon="1.22164">
        <ele>317.7</ele>
        <time>2024-11-12T08:18:07Z</time>
      </trkpt>
      <trkpt lat="45.85334" lon="1.22164">
        <ele>317.8</ele>
        <time>2024-11-12T08:18:08Z</time>
      </trkpt>
      <trkpt lat="45.85333" lon="1.22165">
        <ele>317.8</ele>
        <time>2024-11-12T08:18:09Z</time>
      </trkpt>
      <trkpt lat="45.85332" lon="1.22165">
        <ele>317.8</ele>
        <time>2024-11-12T08:18:10Z</time>
      </trkpt>
      <trkpt lat="45.85331" lon="1.22165">
        <ele>317.9</ele>
        <time>2024-11-12T08:18:11Z</time>
      </trkpt>
      <trkpt lat="45.85329" lon="1.22165">
        <ele>317.9</ele>
        <time>2024-11-12T08:18:12Z</time>
      </trkpt>
      <trkpt lat="45.85329" lon="1.22166">
        <ele>317.9</ele>
        <time>2024-11-12T08:18:13Z</time>
      </trkpt>
      <trkpt lat="45.85328" lon="1.22166">
        <ele>317.9</ele>
        <time>2024-11-12T08:18:14Z</time>
      </trkpt>
      <trkpt lat="45.85326" lon="1.22166">
        <ele>317.9</ele>
        <time>2024-11-12T08:18:15Z</time>
      </trkpt>
      <trkpt lat="45.85325" lon="1.22166">
        <ele>318</ele>
        <time>2024-11-12T08:18:16Z</time>
      </trkpt>
      <trkpt lat="45.85324" lon="1.22166">
        <ele>318</ele>
        <time>2024-11-12T08:18:17Z</time>
      </trkpt>
      <trkpt lat="45.85323" lon="1.22166">
        <ele>318</ele>
        <time>2024-11-12T08:18:18Z</time>
      </trkpt>
      <trkpt lat="45.85321" lon="1.22166">
        <ele>318</ele>
        <time>2024-11-12T08:18:19Z</time>
      </trkpt>
      <trkpt lat="45.8532" lon="1.22166">
        <ele>318</ele>
        <time>2024-11-12T08:18:20Z</time>
      </trkpt>
      <trkpt lat="45.85319" lon="1.22166">
        <ele>318</ele>
        <time>2024-11-12T08:18:21Z</time>
      </trkpt>
      <trkpt lat="45.85318" lon="1.22166">
        <ele>318</ele>
        <time>2024-11-12T08:18:22Z</time>
      </trkpt>
      <trkpt lat="45.85317" lon="1.22166">
        <ele>318</ele>
        <time>2024-11-12T08:18:23Z</time>
      </trkpt>
      <trkpt lat="45.85316" lon="1.22165">
        <ele>318</ele>
        <time>2024-11-12T08:18:24Z</time>
      </trkpt>
      <trkpt lat="45.85315" lon="1.22166">
        <ele>318</ele>
        <time>2024-11-12T08:18:25Z</time>
      </trkpt>
      <trkpt lat="45.85313" lon="1.22166">
        <ele>318</ele>
        <time>2024-11-12T08:18:26Z</time>
      </trkpt>
      <trkpt lat="45.85312" lon="1.22166">
        <ele>318</ele>
        <time>2024-11-12T08:18:27Z</time>
      </trkpt>
      <trkpt lat="45.8531" lon="1.22166">
        <ele>318</ele>
        <time>2024-11-12T08:18:28Z</time>
      </trkpt>
      <trkpt lat="45.85309" lon="1.22167">
        <ele>317.9</ele>
        <time>2024-11-12T08:18:29Z</time>
      </trkpt>
      <trkpt lat="45.85308" lon="1.22167">
        <ele>317.9</ele>
        <time>2024-11-12T08:18:30Z</time>
      </trkpt>
      <trkpt lat="45.85307" lon="1.22167">
        <ele>317.9</ele>
        <time>2024-11-12T08:18:31Z</time>
      </trkpt>
      <trkpt lat="45.85305" lon="1.22168">
        <ele>317.9</ele>
        <time>2024-11-12T08:18:32Z</time>
      </trkpt>
      <trkpt lat="45.85304" lon="1.22168">
        <ele>317.9</ele>
        <time>2024-11-12T08:18:33Z</time>
      </trkpt>
      <trkpt lat="45.85303" lon="1.22168">
        <ele>317.9</ele>
        <time>2024-11-12T08:18:34Z</time>
      </trkpt>
      <trkpt lat="45.85302" lon="1.22169">
        <ele>317.8</ele>
        <time>2024-11-12T08:18:35Z</time>
      </trkpt>
      <trkpt lat="45.85301" lon="1.22169">
        <ele>317.8</ele>
        <time>2024-11-12T08:18:36Z</time>
      </trkpt>
      <trkpt lat="45.853" lon="1.22168">
        <ele>317.8</ele>
        <time>2024-11-12T08:18:37Z</time>
      </trkpt>
      <trkpt lat="45.85299" lon="1.22168">
        <ele>317.7</ele>
        <time>2024-11-12T08:18:38Z</time>
      </trkpt>
      <trkpt lat="45.85297" lon="1.22168">
        <ele>317.7</ele>
        <time>2024-11-12T08:18:39Z</time>
      </trkpt>
      <trkpt lat="45.85296" lon="1.22168">
        <ele>317.7</ele>
        <time>2024-11-12T08:18:40Z</time>
      </trkpt>
      <trkpt lat="45.85295" lon="1.22168">
        <ele>317.6</ele>
        <time>2024-11-12T08:18:41Z</time>
      </trkpt>
      <trkpt lat="45.85293" lon="1.22169">
        <ele>317.6</ele>
        <time>2024-11-12T08:18:42Z</time>
      </trkpt>
      <trkpt lat="45.85293" lon="1.2217">
        <ele>317.4</ele>
        <time>2024-11-12T08:18:43Z</time>
      </trkpt>
      <trkpt lat="45.85292" lon="1.22171">
        <ele>317.3</ele>
        <time>2024-11-12T08:18:44Z</time>
      </trkpt>
      <trkpt lat="45.85291" lon="1.22172">
        <ele>317.2</ele>
        <time>2024-11-12T08:18:45Z</time>
      </trkpt>
      <trkpt lat="45.8529" lon="1.22174">
        <ele>317</ele>
        <time>2024-11-12T08:18:46Z</time>
      </trkpt>
      <trkpt lat="45.8529" lon="1.22176">
        <ele>316.9</ele>
        <time>2024-11-12T08:18:47Z</time>
      </trkpt>
      <trkpt lat="45.85291" lon="1.22178">
        <ele>316.7</ele>
        <time>2024-11-12T08:18:48Z</time>
      </trkpt>
      <trkpt lat="45.85292" lon="1.2218">
        <ele>316.6</ele>
        <time>2024-11-12T08:18:49Z</time>
      </trkpt>
      <trkpt lat="45.85293" lon="1.22181">
        <ele>316.4</ele>
        <time>2024-11-12T08:18:50Z</time>
      </trkpt>
      <trkpt lat="45.85293" lon="1.22182">
        <ele>316.3</ele>
        <time>2024-11-12T08:18:51Z</time>
      </trkpt>
      <trkpt lat="45.85294" lon="1.22184">
        <ele>316.1</ele>
        <time>2024-11-12T08:18:52Z</time>
      </trkpt>
      <trkpt lat="45.85296" lon="1.22186">
        <ele>315.9</ele>
        <time>2024-11-12T08:18:53Z</time>
      </trkpt>
      <trkpt lat="45.85296" lon="1.22187">
        <ele>315.8</ele>
        <time>2024-11-12T08:18:54Z</time>
      </trkpt>
      <trkpt lat="45.85297" lon="1.22188">
        <ele>315.7</ele>
        <time>2024-11-12T08:18:55Z</time>
      </trkpt>
      <trkpt lat="45.85298" lon="1.2219">
        <ele>315.6</ele>
        <time>2024-11-12T08:18:56Z</time>
      </trkpt>
      <trkpt lat="45.85299" lon="1.22192">
        <ele>315.4</ele>
        <time>2024-11-12T08:18:57Z</time>
      </trkpt>
      <trkpt lat="45.853" lon="1.22193">
        <ele>315.3</ele>
        <time>2024-11-12T08:18:58Z</time>
      </trkpt>
      <trkpt lat="45.85301" lon="1.22194">
        <ele>315.2</ele>
        <time>2024-11-12T08:18:59Z</time>
      </trkpt>
      <trkpt lat="45.85301" lon="1.22196">
        <ele>315</ele>
        <time>2024-11-12T08:19:00Z</time>
      </trkpt>
      <trkpt lat="45.85303" lon="1.22197">
        <ele>314.8</ele>
        <time>2024-11-12T08:19:01Z</time>
      </trkpt>
      <trkpt lat="45.85304" lon="1.22199">
        <ele>314.7</ele>
        <time>2024-11-12T08:19:02Z</time>
      </trkpt>
      <trkpt lat="45.85305" lon="1.22201">
        <ele>314.4</ele>
        <time>2024-11-12T08:19:03Z</time>
      </trkpt>
      <trkpt lat="45.85306" lon="1.22202">
        <ele>314.4</ele>
        <time>2024-11-12T08:19:04Z</time>
      </trkpt>
      <trkpt lat="45.85306" lon="1.22203">
        <ele>314.3</ele>
        <time>2024-11-12T08:19:05Z</time>
      </trkpt>
      <trkpt lat="45.85307" lon="1.22204">
        <ele>314.1</ele>
        <time>2024-11-12T08:19:06Z</time>
      </trkpt>
      <trkpt lat="45.85308" lon="1.22206">
        <ele>313.9</ele>
        <time>2024-11-12T08:19:07Z</time>
      </trkpt>
      <trkpt lat="45.85309" lon="1.22209">
        <ele>313.7</ele>
        <time>2024-11-12T08:19:08Z</time>
      </trkpt>
      <trkpt lat="45.85309" lon="1.2221">
        <ele>313.6</ele>
        <time>2024-11-12T08:19:09Z</time>
      </trkpt>
      <trkpt lat="45.8531" lon="1.22211">
        <ele>313.5</ele>
        <time>2024-11-12T08:19:10Z</time>
      </trkpt>
      <trkpt lat="45.8531" lon="1.22213">
        <ele>313.3</ele>
        <time>2024-11-12T08:19:11Z</time>
      </trkpt>
      <trkpt lat="45.85311" lon="1.22214">
        <ele>313.1</ele>
        <time>2024-11-12T08:19:12Z</time>
      </trkpt>
      <trkpt lat="45.85312" lon="1.22215">
        <ele>313</ele>
        <time>2024-11-12T08:19:13Z</time>
      </trkpt>
      <trkpt lat="45.85312" lon="1.22217">
        <ele>312.9</ele>
        <time>2024-11-12T08:19:14Z</time>
      </trkpt>
      <trkpt lat="45.85313" lon="1.22218">
        <ele>312.8</ele>
        <time>2024-11-12T08:19:15Z</time>
      </trkpt>
      <trkpt lat="45.85313" lon="1.2222">
        <ele>312.6</ele>
        <time>2024-11-12T08:19:16Z</time>
      </trkpt>
      <trkpt lat="45.85314" lon="1.22221">
        <ele>312.4</ele>
        <time>2024-11-12T08:19:17Z</time>
      </trkpt>
      <trkpt lat="45.85315" lon="1.22222">
        <ele>312.3</ele>
        <time>2024-11-12T08:19:18Z</time>
      </trkpt>
      <trkpt lat="45.85317" lon="1.22224">
        <ele>312.1</ele>
        <time>2024-11-12T08:19:19Z</time>
      </trkpt>
      <trkpt lat="45.85317" lon="1.22224">
        <ele>312</ele>
        <time>2024-11-12T08:19:20Z</time>
      </trkpt>
      <trkpt lat="45.85318" lon="1.22225">
        <ele>311.8</ele>
        <time>2024-11-12T08:19:21Z</time>
      </trkpt>
      <trkpt lat="45.85319" lon="1.22226">
        <ele>311.7</ele>
        <time>2024-11-12T08:19:22Z</time>
      </trkpt>
      <trkpt lat="45.8532" lon="1.22227">
        <ele>311.6</ele>
        <time>2024-11-12T08:19:23Z</time>
      </trkpt>
      <trkpt lat="45.85321" lon="1.22228">
        <ele>311.4</ele>
        <time>2024-11-12T08:19:24Z</time>
      </trkpt>
      <trkpt lat="45.85323" lon="1.2223">
        <ele>311.1</ele>
        <time>2024-11-12T08:19:25Z</time>
      </trkpt>
      <trkpt lat="45.85324" lon="1.22231">
        <ele>311</ele>
        <time>2024-11-12T08:19:26Z</time>
      </trkpt>
      <trkpt lat="45.85324" lon="1.22232">
        <ele>310.8</ele>
        <time>2024-11-12T08:19:27Z</time>
      </trkpt>
      <trkpt lat="45.85325" lon="1.22232">
        <ele>310.7</ele>
        <time>2024-11-12T08:19:28Z</time>
      </trkpt>
      <trkpt lat="45.85326" lon="1.22233">
        <ele>310.6</ele>
        <time>2024-11-12T08:19:29Z</time>
      </trkpt>
      <trkpt lat="45.85327" lon="1.22234">
        <ele>310.4</ele>
        <time>2024-11-12T08:19:30Z</time>
      </trkpt>
      <trkpt lat="45.85328" lon="1.22234">
        <ele>310.3</ele>
        <time>2024-11-12T08:19:31Z</time>
      </trkpt>
      <trkpt lat="45.85329" lon="1.22236">
        <ele>310.1</ele>
        <time>2024-11-12T08:19:32Z</time>
      </trkpt>
      <trkpt lat="45.8533" lon="1.22236">
        <ele>309.9</ele>
        <time>2024-11-12T08:19:33Z</time>
      </trkpt>
      <trkpt lat="45.85331" lon="1.22237">
        <ele>309.8</ele>
        <time>2024-11-12T08:19:34Z</time>
      </trkpt>
      <trkpt lat="45.85332" lon="1.22238">
        <ele>309.6</ele>
        <time>2024-11-12T08:19:35Z</time>
      </trkpt>
      <trkpt lat="45.85334" lon="1.22239">
        <ele>309.4</ele>
        <time>2024-11-12T08:19:36Z</time>
      </trkpt>
      <trkpt lat="45.85335" lon="1.2224">
        <ele>309.2</ele>
        <time>2024-11-12T08:19:37Z</time>
      </trkpt>
      <trkpt lat="45.85336" lon="1.22241">
        <ele>309.1</ele>
        <time>2024-11-12T08:19:38Z</time>
      </trkpt>
      <trkpt lat="45.85337" lon="1.22242">
        <ele>308.9</ele>
        <time>2024-11-12T08:19:39Z</time>
      </trkpt>
      <trkpt lat="45.85338" lon="1.22243">
        <ele>308.7</ele>
        <time>2024-11-12T08:19:40Z</time>
      </trkpt>
      <trkpt lat="45.85339" lon="1.22244">
        <ele>308.5</ele>
        <time>2024-11-12T08:19:41Z</time>
      </trkpt>
      <trkpt lat="45.85341" lon="1.22245">
        <ele>308.3</ele>
        <time>2024-11-12T08:19:42Z</time>
      </trkpt>
      <trkpt lat="45.85341" lon="1.22246">
        <ele>308.2</ele>
        <time>2024-11-12T08:19:43Z</time>
      </trkpt>
      <trkpt lat="45.85342" lon="1.22247">
        <ele>308</ele>
        <time>2024-11-12T08:19:44Z</time>
      </trkpt>
      <trkpt lat="45.85343" lon="1.22247">
        <ele>307.9</ele>
        <time>2024-11-12T08:19:45Z</time>
      </trkpt>
      <trkpt lat="45.85344" lon="1.22247">
        <ele>307.7</ele>
        <time>2024-11-12T08:19:46Z</time>
      </trkpt>
      <trkpt lat="45.85346" lon="1.22248">
        <ele>307.5</ele>
        <time>2024-11-12T08:19:47Z</time>
      </trkpt>
      <trkpt lat="45.85347" lon="1.22248">
        <ele>307.4</ele>
        <time>2024-11-12T08:19:48Z</time>
      </trkpt>
      <trkpt lat="45.85348" lon="1.22249">
        <ele>307.3</ele>
        <time>2024-11-12T08:19:49Z</time>
      </trkpt>
      <trkpt lat="45.85349" lon="1.22249">
        <ele>307.1</ele>
        <time>2024-11-12T08:19:50Z</time>
      </trkpt>
      <trkpt lat="45.8535" lon="1.22248">
        <ele>307</ele>
        <time>2024-11-12T08:19:51Z</time>
      </trkpt>
      <trkpt lat="45.85351" lon="1.22248">
        <ele>306.8</ele>
        <time>2024-11-12T08:19:52Z</time>
      </trkpt>
      <trkpt lat="45.85351" lon="1.22248">
        <ele>306.8</ele>
        <time>2024-11-12T08:19:53Z</time>
      </trkpt>
      <trkpt lat="45.85351" lon="1.22248">
        <ele>306.8</ele>
        <time>2024-11-12T08:19:54Z</time>
      </trkpt>
      <trkpt lat="45.85351" lon="1.22247">
        <ele>306.7</ele>
        <time>2024-11-12T08:19:55Z</time>
      </trkpt>
      <trkpt lat="45.85351" lon="1.22247">
        <ele>306.7</ele>
        <time>2024-11-12T08:19:56Z</time>
      </trkpt>
      <trkpt lat="45.85351" lon="1.22247">
        <ele>306.6</ele>
        <time>2024-11-12T08:19:57Z</time>
      </trkpt>
      <trkpt lat="45.85351" lon="1.22247">
        <ele>306.6</ele>
        <time>2024-11-12T08:19:58Z</time>
      </trkpt>
      <trkpt lat="45.85351" lon="1.22248">
        <ele>306.5</ele>
        <time>2024-11-12T08:19:59Z</time>
      </trkpt>
      <trkpt lat="45.85351" lon="1.22248">
        <ele>306.5</ele>
        <time>2024-11-12T08:20:00Z</time>
      </trkpt>
      <trkpt lat="45.85352" lon="1.22249">
        <ele>306.3</ele>
        <time>2024-11-12T08:20:01Z</time>
      </trkpt>
      <trkpt lat="45.85356" lon="1.22252">
        <ele>305.7</ele>
        <time>2024-11-12T08:20:02Z</time>
      </trkpt>
      <trkpt lat="45.85358" lon="1.22253">
        <ele>305.5</ele>
        <time>2024-11-12T08:20:03Z</time>
      </trkpt>
      <trkpt lat="45.85358" lon="1.22255">
        <ele>305.4</ele>
        <time>2024-11-12T08:20:04Z</time>
      </trkpt>
      <trkpt lat="45.85359" lon="1.22256">
        <ele>305.2</ele>
        <time>2024-11-12T08:20:05Z</time>
      </trkpt>
      <trkpt lat="45.8536" lon="1.22258">
        <ele>305</ele>
        <time>2024-11-12T08:20:06Z</time>
      </trkpt>
      <trkpt lat="45.85361" lon="1.2226">
        <ele>304.7</ele>
        <time>2024-11-12T08:20:07Z</time>
      </trkpt>
      <trkpt lat="45.85362" lon="1.2226">
        <ele>304.6</ele>
        <time>2024-11-12T08:20:08Z</time>
      </trkpt>
      <trkpt lat="45.85363" lon="1.22261">
        <ele>304.5</ele>
        <time>2024-11-12T08:20:09Z</time>
      </trkpt>
      <trkpt lat="45.85364" lon="1.22263">
        <ele>304.2</ele>
        <time>2024-11-12T08:20:10Z</time>
      </trkpt>
      <trkpt lat="45.85365" lon="1.22264">
        <ele>304.1</ele>
        <time>2024-11-12T08:20:11Z</time>
      </trkpt>
      <trkpt lat="45.85365" lon="1.22266">
        <ele>304</ele>
        <time>2024-11-12T08:20:12Z</time>
      </trkpt>
      <trkpt lat="45.85366" lon="1.22266">
        <ele>303.9</ele>
        <time>2024-11-12T08:20:13Z</time>
      </trkpt>
      <trkpt lat="45.85367" lon="1.22267">
        <ele>303.7</ele>
        <time>2024-11-12T08:20:14Z</time>
      </trkpt>
      <trkpt lat="45.85368" lon="1.22268">
        <ele>303.5</ele>
        <time>2024-11-12T08:20:15Z</time>
      </trkpt>
      <trkpt lat="45.85369" lon="1.22268">
        <ele>303.4</ele>
        <time>2024-11-12T08:20:16Z</time>
      </trkpt>
      <trkpt lat="45.8537" lon="1.22269">
        <ele>303.3</ele>
        <time>2024-11-12T08:20:17Z</time>
      </trkpt>
      <trkpt lat="45.85371" lon="1.22269">
        <ele>303.1</ele>
        <time>2024-11-12T08:20:18Z</time>
      </trkpt>
      <trkpt lat="45.85372" lon="1.2227">
        <ele>303</ele>
        <time>2024-11-12T08:20:19Z</time>
      </trkpt>
      <trkpt lat="45.85373" lon="1.22271">
        <ele>302.8</ele>
        <time>2024-11-12T08:20:20Z</time>
      </trkpt>
      <trkpt lat="45.85374" lon="1.22271">
        <ele>302.7</ele>
        <time>2024-11-12T08:20:21Z</time>
      </trkpt>
      <trkpt lat="45.85376" lon="1.22272">
        <ele>302.5</ele>
        <time>2024-11-12T08:20:22Z</time>
      </trkpt>
      <trkpt lat="45.85376" lon="1.22273">
        <ele>302.4</ele>
        <time>2024-11-12T08:20:23Z</time>
      </trkpt>
      <trkpt lat="45.85377" lon="1.22273">
        <ele>302.3</ele>
        <time>2024-11-12T08:20:24Z</time>
      </trkpt>
      <trkpt lat="45.85378" lon="1.22275">
        <ele>302.2</ele>
        <time>2024-11-12T08:20:25Z</time>
      </trkpt>
      <trkpt lat="45.85378" lon="1.22276">
        <ele>302</ele>
        <time>2024-11-12T08:20:26Z</time>
      </trkpt>
      <trkpt lat="45.85379" lon="1.22278">
        <ele>301.9</ele>
        <time>2024-11-12T08:20:27Z</time>
      </trkpt>
      <trkpt lat="45.85379" lon="1.22277">
        <ele>301.8</ele>
        <time>2024-11-12T08:20:28Z</time>
      </trkpt>
      <trkpt lat="45.8538" lon="1.22278">
        <ele>301.7</ele>
        <time>2024-11-12T08:20:29Z</time>
      </trkpt>
      <trkpt lat="45.85381" lon="1.22277">
        <ele>301.5</ele>
        <time>2024-11-12T08:20:30Z</time>
      </trkpt>
      <trkpt lat="45.85382" lon="1.22278">
        <ele>301.4</ele>
        <time>2024-11-12T08:20:31Z</time>
      </trkpt>
      <trkpt lat="45.85384" lon="1.22279">
        <ele>301.2</ele>
        <time>2024-11-12T08:20:32Z</time>
      </trkpt>
      <trkpt lat="45.85385" lon="1.22279">
        <ele>301.1</ele>
        <time>2024-11-12T08:20:33Z</time>
      </trkpt>
      <trkpt lat="45.85386" lon="1.2228">
        <ele>301</ele>
        <time>2024-11-12T08:20:34Z</time>
      </trkpt>
      <trkpt lat="45.85387" lon="1.22281">
        <ele>300.8</ele>
        <time>2024-11-12T08:20:35Z</time>
      </trkpt>
      <trkpt lat="45.85388" lon="1.22282">
        <ele>300.7</ele>
        <time>2024-11-12T08:20:36Z</time>
      </trkpt>
      <trkpt lat="45.85389" lon="1.22283">
        <ele>300.6</ele>
        <time>2024-11-12T08:20:37Z</time>
      </trkpt>
      <trkpt lat="45.8539" lon="1.22284">
        <ele>300.4</ele>
        <time>2024-11-12T08:20:38Z</time>
      </trkpt>
      <trkpt lat="45.85391" lon="1.22284">
        <ele>300.3</ele>
        <time>2024-11-12T08:20:39Z</time>
      </trkpt>
      <trkpt lat="45.85392" lon="1.22285">
        <ele>300.1</ele>
        <time>2024-11-12T08:20:40Z</time>
      </trkpt>
      <trkpt lat="45.85393" lon="1.22286">
        <ele>299.9</ele>
        <time>2024-11-12T08:20:41Z</time>
      </trkpt>
      <trkpt lat="45.85394" lon="1.22287">
        <ele>299.8</ele>
        <time>2024-11-12T08:20:42Z</time>
      </trkpt>
      <trkpt lat="45.85395" lon="1.22287">
        <ele>299.7</ele>
        <time>2024-11-12T08:20:43Z</time>
      </trkpt>
      <trkpt lat="45.85396" lon="1.22288">
        <ele>299.6</ele>
        <time>2024-11-12T08:20:44Z</time>
      </trkpt>
      <trkpt lat="45.85397" lon="1.22288">
        <ele>299.5</ele>
        <time>2024-11-12T08:20:45Z</time>
      </trkpt>
      <trkpt lat="45.85398" lon="1.22288">
        <ele>299.3</ele>
        <time>2024-11-12T08:20:46Z</time>
      </trkpt>
      <trkpt lat="45.854" lon="1.22289">
        <ele>299.1</ele>
        <time>2024-11-12T08:20:47Z</time>
      </trkpt>
      <trkpt lat="45.854" lon="1.22289">
        <ele>299</ele>
        <time>2024-11-12T08:20:48Z</time>
      </trkpt>
      <trkpt lat="45.85401" lon="1.2229">
        <ele>298.9</ele>
        <time>2024-11-12T08:20:49Z</time>
      </trkpt>
      <trkpt lat="45.85402" lon="1.2229">
        <ele>298.8</ele>
        <time>2024-11-12T08:20:50Z</time>
      </trkpt>
      <trkpt lat="45.85403" lon="1.22291">
        <ele>298.6</ele>
        <time>2024-11-12T08:20:51Z</time>
      </trkpt>
      <trkpt lat="45.85404" lon="1.22291">
        <ele>298.5</ele>
        <time>2024-11-12T08:20:52Z</time>
      </trkpt>
      <trkpt lat="45.85405" lon="1.22291">
        <ele>298.4</ele>
        <time>2024-11-12T08:20:53Z</time>
      </trkpt>
      <trkpt lat="45.85406" lon="1.22292">
        <ele>298.2</ele>
        <time>2024-11-12T08:20:54Z</time>
      </trkpt>
      <trkpt lat="45.85407" lon="1.22293">
        <ele>298.1</ele>
        <time>2024-11-12T08:20:55Z</time>
      </trkpt>
      <trkpt lat="45.85408" lon="1.22293">
        <ele>297.9</ele>
        <time>2024-11-12T08:20:56Z</time>
      </trkpt>
      <trkpt lat="45.85409" lon="1.22294">
        <ele>297.8</ele>
        <time>2024-11-12T08:20:57Z</time>
      </trkpt>
      <trkpt lat="45.8541" lon="1.22295">
        <ele>297.6</ele>
        <time>2024-11-12T08:20:58Z</time>
      </trkpt>
      <trkpt lat="45.85411" lon="1.22295">
        <ele>297.5</ele>
        <time>2024-11-12T08:20:59Z</time>
      </trkpt>
      <trkpt lat="45.85412" lon="1.22296">
        <ele>297.4</ele>
        <time>2024-11-12T08:21:00Z</time>
      </trkpt>
      <trkpt lat="45.85413" lon="1.22296">
        <ele>297.2</ele>
        <time>2024-11-12T08:21:01Z</time>
      </trkpt>
      <trkpt lat="45.85414" lon="1.22297">
        <ele>297</ele>
        <time>2024-11-12T08:21:02Z</time>
      </trkpt>
      <trkpt lat="45.85415" lon="1.22298">
        <ele>296.9</ele>
        <time>2024-11-12T08:21:03Z</time>
      </trkpt>
      <trkpt lat="45.85416" lon="1.22298">
        <ele>296.7</ele>
        <time>2024-11-12T08:21:04Z</time>
      </trkpt>
      <trkpt lat="45.85417" lon="1.22299">
        <ele>296.6</ele>
        <time>2024-11-12T08:21:05Z</time>
      </trkpt>
      <trkpt lat="45.85418" lon="1.223">
        <ele>296.4</ele>
        <time>2024-11-12T08:21:06Z</time>
      </trkpt>
      <trkpt lat="45.85419" lon="1.22301">
        <ele>296.2</ele>
        <time>2024-11-12T08:21:07Z</time>
      </trkpt>
      <trkpt lat="45.8542" lon="1.22301">
        <ele>296.1</ele>
        <time>2024-11-12T08:21:08Z</time>
      </trkpt>
      <trkpt lat="45.85421" lon="1.22302">
        <ele>296</ele>
        <time>2024-11-12T08:21:09Z</time>
      </trkpt>
      <trkpt lat="45.85422" lon="1.22303">
        <ele>295.8</ele>
        <time>2024-11-12T08:21:10Z</time>
      </trkpt>
      <trkpt lat="45.85423" lon="1.22304">
        <ele>295.6</ele>
        <time>2024-11-12T08:21:11Z</time>
      </trkpt>
      <trkpt lat="45.85424" lon="1.22304">
        <ele>295.5</ele>
        <time>2024-11-12T08:21:12Z</time>
      </trkpt>
      <trkpt lat="45.85426" lon="1.22305">
        <ele>295.3</ele>
        <time>2024-11-12T08:21:13Z</time>
      </trkpt>
      <trkpt lat="45.85427" lon="1.22306">
        <ele>295.1</ele>
        <time>2024-11-12T08:21:14Z</time>
      </trkpt>
      <trkpt lat="45.85427" lon="1.22307">
        <ele>295</ele>
        <time>2024-11-12T08:21:15Z</time>
      </trkpt>
      <trkpt lat="45.85429" lon="1.22308">
        <ele>294.7</ele>
        <time>2024-11-12T08:21:16Z</time>
      </trkpt>
      <trkpt lat="45.8543" lon="1.22308">
        <ele>294.6</ele>
        <time>2024-11-12T08:21:17Z</time>
      </trkpt>
      <trkpt lat="45.85431" lon="1.22308">
        <ele>294.5</ele>
        <time>2024-11-12T08:21:18Z</time>
      </trkpt>
      <trkpt lat="45.85433" lon="1.22309">
        <ele>294.2</ele>
        <time>2024-11-12T08:21:19Z</time>
      </trkpt>
      <trkpt lat="45.85434" lon="1.2231">
        <ele>294.1</ele>
        <time>2024-11-12T08:21:20Z</time>
      </trkpt>
      <trkpt lat="45.85435" lon="1.2231">
        <ele>294</ele>
        <time>2024-11-12T08:21:21Z</time>
      </trkpt>
      <trkpt lat="45.85436" lon="1.2231">
        <ele>293.9</ele>
        <time>2024-11-12T08:21:22Z</time>
      </trkpt>
      <trkpt lat="45.85437" lon="1.22311">
        <ele>293.6</ele>
        <time>2024-11-12T08:21:23Z</time>
      </trkpt>
      <trkpt lat="45.85439" lon="1.22311">
        <ele>293.5</ele>
        <time>2024-11-12T08:21:24Z</time>
      </trkpt>
      <trkpt lat="45.8544" lon="1.22312">
        <ele>293.3</ele>
        <time>2024-11-12T08:21:25Z</time>
      </trkpt>
      <trkpt lat="45.85441" lon="1.22312">
        <ele>293.2</ele>
        <time>2024-11-12T08:21:26Z</time>
      </trkpt>
      <trkpt lat="45.85442" lon="1.22312">
        <ele>293</ele>
        <time>2024-11-12T08:21:27Z</time>
      </trkpt>
      <trkpt lat="45.85444" lon="1.22313">
        <ele>292.8</ele>
        <time>2024-11-12T08:21:28Z</time>
      </trkpt>
      <trkpt lat="45.85445" lon="1.22313">
        <ele>292.7</ele>
        <time>2024-11-12T08:21:29Z</time>
      </trkpt>
      <trkpt lat="45.85446" lon="1.22313">
        <ele>292.6</ele>
        <time>2024-11-12T08:21:30Z</time>
      </trkpt>
      <trkpt lat="45.85447" lon="1.22313">
        <ele>292.4</ele>
        <time>2024-11-12T08:21:31Z</time>
      </trkpt>
      <trkpt lat="45.85449" lon="1.22314">
        <ele>292.2</ele>
        <time>2024-11-12T08:21:32Z</time>
      </trkpt>
      <trkpt lat="45.8545" lon="1.22314">
        <ele>292.1</ele>
        <time>2024-11-12T08:21:33Z</time>
      </trkpt>
      <trkpt lat="45.85451" lon="1.22314">
        <ele>292</ele>
        <time>2024-11-12T08:21:34Z</time>
      </trkpt>
      <trkpt lat="45.85453" lon="1.22315">
        <ele>291.8</ele>
        <time>2024-11-12T08:21:35Z</time>
      </trkpt>
      <trkpt lat="45.85454" lon="1.22315">
        <ele>291.7</ele>
        <time>2024-11-12T08:21:36Z</time>
      </trkpt>
      <trkpt lat="45.85455" lon="1.22315">
        <ele>291.6</ele>
        <time>2024-11-12T08:21:37Z</time>
      </trkpt>
      <trkpt lat="45.85456" lon="1.22316">
        <ele>291.5</ele>
        <time>2024-11-12T08:21:38Z</time>
      </trkpt>
      <trkpt lat="45.85457" lon="1.22316">
        <ele>291.4</ele>
        <time>2024-11-12T08:21:39Z</time>
      </trkpt>
      <trkpt lat="45.85458" lon="1.22317">
        <ele>291.3</ele>
        <time>2024-11-12T08:21:40Z</time>
      </trkpt>
      <trkpt lat="45.8546" lon="1.22318">
        <ele>291.1</ele>
        <time>2024-11-12T08:21:41Z</time>
      </trkpt>
      <trkpt lat="45.8546" lon="1.22319">
        <ele>291</ele>
        <time>2024-11-12T08:21:42Z</time>
      </trkpt>
      <trkpt lat="45.85461" lon="1.2232">
        <ele>291</ele>
        <time>2024-11-12T08:21:43Z</time>
      </trkpt>
      <trkpt lat="45.85462" lon="1.2232">
        <ele>290.9</ele>
        <time>2024-11-12T08:21:44Z</time>
      </trkpt>
      <trkpt lat="45.85463" lon="1.22321">
        <ele>290.8</ele>
        <time>2024-11-12T08:21:45Z</time>
      </trkpt>
      <trkpt lat="45.85464" lon="1.22322">
        <ele>290.7</ele>
        <time>2024-11-12T08:21:46Z</time>
      </trkpt>
      <trkpt lat="45.85466" lon="1.22323">
        <ele>290.6</ele>
        <time>2024-11-12T08:21:47Z</time>
      </trkpt>
      <trkpt lat="45.85467" lon="1.22323">
        <ele>290.5</ele>
        <time>2024-11-12T08:21:48Z</time>
      </trkpt>
      <trkpt lat="45.85468" lon="1.22324">
        <ele>290.4</ele>
        <time>2024-11-12T08:21:49Z</time>
      </trkpt>
      <trkpt lat="45.85469" lon="1.22324">
        <ele>290.3</ele>
        <time>2024-11-12T08:21:50Z</time>
      </trkpt>
      <trkpt lat="45.8547" lon="1.22325">
        <ele>290.3</ele>
        <time>2024-11-12T08:21:51Z</time>
      </trkpt>
      <trkpt lat="45.85471" lon="1.22326">
        <ele>290.2</ele>
        <time>2024-11-12T08:21:52Z</time>
      </trkpt>
      <trkpt lat="45.85473" lon="1.22328">
        <ele>290.1</ele>
        <time>2024-11-12T08:21:53Z</time>
      </trkpt>
      <trkpt lat="45.85473" lon="1.22329">
        <ele>290</ele>
        <time>2024-11-12T08:21:54Z</time>
      </trkpt>
      <trkpt lat="45.85474" lon="1.22331">
        <ele>290</ele>
        <time>2024-11-12T08:21:55Z</time>
      </trkpt>
      <trkpt lat="45.85474" lon="1.22332">
        <ele>289.9</ele>
        <time>2024-11-12T08:21:56Z</time>
      </trkpt>
      <trkpt lat="45.85474" lon="1.22334">
        <ele>289.9</ele>
        <time>2024-11-12T08:21:57Z</time>
      </trkpt>
      <trkpt lat="45.85475" lon="1.22336">
        <ele>289.8</ele>
        <time>2024-11-12T08:21:58Z</time>
      </trkpt>
      <trkpt lat="45.85475" lon="1.22339">
        <ele>289.7</ele>
        <time>2024-11-12T08:21:59Z</time>
      </trkpt>
      <trkpt lat="45.85475" lon="1.2234">
        <ele>289.7</ele>
        <time>2024-11-12T08:22:00Z</time>
      </trkpt>
      <trkpt lat="45.85476" lon="1.22341">
        <ele>289.6</ele>
        <time>2024-11-12T08:22:01Z</time>
      </trkpt>
      <trkpt lat="45.85476" lon="1.22343">
        <ele>289.6</ele>
        <time>2024-11-12T08:22:02Z</time>
      </trkpt>
      <trkpt lat="45.85476" lon="1.22346">
        <ele>289.5</ele>
        <time>2024-11-12T08:22:03Z</time>
      </trkpt>
      <trkpt lat="45.85475" lon="1.22349">
        <ele>289.4</ele>
        <time>2024-11-12T08:22:04Z</time>
      </trkpt>
      <trkpt lat="45.85475" lon="1.2235">
        <ele>289.4</ele>
        <time>2024-11-12T08:22:05Z</time>
      </trkpt>
      <trkpt lat="45.85475" lon="1.22351">
        <ele>289.4</ele>
        <time>2024-11-12T08:22:06Z</time>
      </trkpt>
      <trkpt lat="45.85474" lon="1.22353">
        <ele>289.3</ele>
        <time>2024-11-12T08:22:07Z</time>
      </trkpt>
      <trkpt lat="45.85474" lon="1.22355">
        <ele>289.3</ele>
        <time>2024-11-12T08:22:08Z</time>
      </trkpt>
      <trkpt lat="45.85473" lon="1.22358">
        <ele>289.2</ele>
        <time>2024-11-12T08:22:09Z</time>
      </trkpt>
      <trkpt lat="45.85472" lon="1.22359">
        <ele>289.2</ele>
        <time>2024-11-12T08:22:10Z</time>
      </trkpt>
      <trkpt lat="45.85472" lon="1.2236">
        <ele>289.2</ele>
        <time>2024-11-12T08:22:11Z</time>
      </trkpt>
      <trkpt lat="45.85471" lon="1.22361">
        <ele>289.2</ele>
        <time>2024-11-12T08:22:12Z</time>
      </trkpt>
      <trkpt lat="45.85471" lon="1.22363">
        <ele>289.1</ele>
        <time>2024-11-12T08:22:13Z</time>
      </trkpt>
      <trkpt lat="45.8547" lon="1.22366">
        <ele>289.1</ele>
        <time>2024-11-12T08:22:14Z</time>
      </trkpt>
      <trkpt lat="45.8547" lon="1.22367">
        <ele>289.1</ele>
        <time>2024-11-12T08:22:15Z</time>
      </trkpt>
      <trkpt lat="45.85469" lon="1.22368">
        <ele>289.1</ele>
        <time>2024-11-12T08:22:16Z</time>
      </trkpt>
      <trkpt lat="45.85469" lon="1.22371">
        <ele>289</ele>
        <time>2024-11-12T08:22:17Z</time>
      </trkpt>
      <trkpt lat="45.85468" lon="1.22372">
        <ele>289</ele>
        <time>2024-11-12T08:22:18Z</time>
      </trkpt>
      <trkpt lat="45.85468" lon="1.22373">
        <ele>289</ele>
        <time>2024-11-12T08:22:19Z</time>
      </trkpt>
      <trkpt lat="45.85467" lon="1.22375">
        <ele>289</ele>
        <time>2024-11-12T08:22:20Z</time>
      </trkpt>
      <trkpt lat="45.85467" lon="1.22376">
        <ele>288.9</ele>
        <time>2024-11-12T08:22:21Z</time>
      </trkpt>
      <trkpt lat="45.85466" lon="1.22378">
        <ele>288.9</ele>
        <time>2024-11-12T08:22:22Z</time>
      </trkpt>
      <trkpt lat="45.85466" lon="1.22379">
        <ele>288.9</ele>
        <time>2024-11-12T08:22:23Z</time>
      </trkpt>
      <trkpt lat="45.85466" lon="1.22381">
        <ele>288.9</ele>
        <time>2024-11-12T08:22:24Z</time>
      </trkpt>
      <trkpt lat="45.85465" lon="1.22382">
        <ele>288.9</ele>
        <time>2024-11-12T08:22:25Z</time>
      </trkpt>
      <trkpt lat="45.85465" lon="1.22385">
        <ele>288.8</ele>
        <time>2024-11-12T08:22:26Z</time>
      </trkpt>
      <trkpt lat="45.85464" lon="1.22387">
        <ele>288.8</ele>
        <time>2024-11-12T08:22:27Z</time>
      </trkpt>
      <trkpt lat="45.85464" lon="1.22388">
        <ele>288.8</ele>
        <time>2024-11-12T08:22:28Z</time>
      </trkpt>
      <trkpt lat="45.85464" lon="1.22389">
        <ele>288.8</ele>
        <time>2024-11-12T08:22:29Z</time>
      </trkpt>
      <trkpt lat="45.85463" lon="1.22391">
        <ele>288.7</ele>
        <time>2024-11-12T08:22:30Z</time>
      </trkpt>
      <trkpt lat="45.85463" lon="1.22392">
        <ele>288.7</ele>
        <time>2024-11-12T08:22:31Z</time>
      </trkpt>
      <trkpt lat="45.85462" lon="1.22394">
        <ele>288.7</ele>
        <time>2024-11-12T08:22:32Z</time>
      </trkpt>
      <trkpt lat="45.85462" lon="1.22396">
        <ele>288.6</ele>
        <time>2024-11-12T08:22:33Z</time>
      </trkpt>
      <trkpt lat="45.85461" lon="1.22398">
        <ele>288.6</ele>
        <time>2024-11-12T08:22:34Z</time>
      </trkpt>
      <trkpt lat="45.85461" lon="1.22398">
        <ele>288.6</ele>
        <time>2024-11-12T08:22:35Z</time>
      </trkpt>
      <trkpt lat="45.85461" lon="1.224">
        <ele>288.6</ele>
        <time>2024-11-12T08:22:36Z</time>
      </trkpt>
      <trkpt lat="45.85461" lon="1.224">
        <ele>288.6</ele>
        <time>2024-11-12T08:22:37Z</time>
      </trkpt>
      <trkpt lat="45.85461" lon="1.22401">
        <ele>288.5</ele>
        <time>2024-11-12T08:22:38Z</time>
      </trkpt>
      <trkpt lat="45.85461" lon="1.22402">
        <ele>288.5</ele>
        <time>2024-11-12T08:22:39Z</time>
      </trkpt>
      <trkpt lat="45.85461" lon="1.22403">
        <ele>288.5</ele>
        <time>2024-11-12T08:22:40Z</time>
      </trkpt>
      <trkpt lat="45.85461" lon="1.22402">
        <ele>288.5</ele>
        <time>2024-11-12T08:22:41Z</time>
      </trkpt>
      <trkpt lat="45.85461" lon="1.22402">
        <ele>288.5</ele>
        <time>2024-11-12T08:22:42Z</time>
      </trkpt>
      <trkpt lat="45.85462" lon="1.224">
        <ele>288.4</ele>
        <time>2024-11-12T08:22:43Z</time>
      </trkpt>
      <trkpt lat="45.85462" lon="1.224">
        <ele>288.4</ele>
        <time>2024-11-12T08:22:44Z</time>
      </trkpt>
      <trkpt lat="45.85462" lon="1.22401">
        <ele>288.4</ele>
        <time>2024-11-12T08:22:45Z</time>
      </trkpt>
      <trkpt lat="45.85462" lon="1.22402">
        <ele>288.4</ele>
        <time>2024-11-12T08:22:46Z</time>
      </trkpt>
      <trkpt lat="45.85462" lon="1.22402">
        <ele>288.4</ele>
        <time>2024-11-12T08:22:47Z</time>
      </trkpt>
      <trkpt lat="45.85462" lon="1.22403">
        <ele>288.4</ele>
        <time>2024-11-12T08:22:48Z</time>
      </trkpt>
      <trkpt lat="45.85461" lon="1.22403">
        <ele>288.4</ele>
        <time>2024-11-12T08:22:49Z</time>
      </trkpt>
      <trkpt lat="45.85461" lon="1.22405">
        <ele>288.3</ele>
        <time>2024-11-12T08:22:50Z</time>
      </trkpt>
      <trkpt lat="45.85461" lon="1.22406">
        <ele>288.3</ele>
        <time>2024-11-12T08:22:51Z</time>
      </trkpt>
      <trkpt lat="45.8546" lon="1.22409">
        <ele>288.2</ele>
        <time>2024-11-12T08:22:52Z</time>
      </trkpt>
      <trkpt lat="45.85459" lon="1.22413">
        <ele>288.1</ele>
        <time>2024-11-12T08:22:53Z</time>
      </trkpt>
      <trkpt lat="45.85459" lon="1.22415">
        <ele>288.1</ele>
        <time>2024-11-12T08:22:54Z</time>
      </trkpt>
      <trkpt lat="45.85458" lon="1.22418">
        <ele>288</ele>
        <time>2024-11-12T08:22:55Z</time>
      </trkpt>
      <trkpt lat="45.85458" lon="1.2242">
        <ele>287.9</ele>
        <time>2024-11-12T08:22:56Z</time>
      </trkpt>
      <trkpt lat="45.85458" lon="1.22423">
        <ele>287.9</ele>
        <time>2024-11-12T08:22:57Z</time>
      </trkpt>
      <trkpt lat="45.85458" lon="1.22425">
        <ele>287.8</ele>
        <time>2024-11-12T08:22:58Z</time>
      </trkpt>
      <trkpt lat="45.85457" lon="1.22427">
        <ele>287.7</ele>
        <time>2024-11-12T08:22:59Z</time>
      </trkpt>
      <trkpt lat="45.85457" lon="1.2243">
        <ele>287.6</ele>
        <time>2024-11-12T08:23:00Z</time>
      </trkpt>
      <trkpt lat="45.85457" lon="1.22432">
        <ele>287.5</ele>
        <time>2024-11-12T08:23:01Z</time>
      </trkpt>
      <trkpt lat="45.85456" lon="1.22436">
        <ele>287.4</ele>
        <time>2024-11-12T08:23:02Z</time>
      </trkpt>
      <trkpt lat="45.85456" lon="1.22438">
        <ele>287.3</ele>
        <time>2024-11-12T08:23:03Z</time>
      </trkpt>
      <trkpt lat="45.85455" lon="1.2244">
        <ele>287.2</ele>
        <time>2024-11-12T08:23:04Z</time>
      </trkpt>
      <trkpt lat="45.85454" lon="1.22443">
        <ele>287.1</ele>
        <time>2024-11-12T08:23:05Z</time>
      </trkpt>
      <trkpt lat="45.85453" lon="1.22447">
        <ele>286.9</ele>
        <time>2024-11-12T08:23:06Z</time>
      </trkpt>
      <trkpt lat="45.85452" lon="1.22449">
        <ele>286.8</ele>
        <time>2024-11-12T08:23:07Z</time>
      </trkpt>
      <trkpt lat="45.8545" lon="1.22452">
        <ele>286.6</ele>
        <time>2024-11-12T08:23:08Z</time>
      </trkpt>
      <trkpt lat="45.85449" lon="1.22456">
        <ele>286.5</ele>
        <time>2024-11-12T08:23:09Z</time>
      </trkpt>
      <trkpt lat="45.85449" lon="1.22457">
        <ele>286.4</ele>
        <time>2024-11-12T08:23:10Z</time>
      </trkpt>
      <trkpt lat="45.85447" lon="1.22461">
        <ele>286.2</ele>
        <time>2024-11-12T08:23:11Z</time>
      </trkpt>
      <trkpt lat="45.85447" lon="1.22462">
        <ele>286.1</ele>
        <time>2024-11-12T08:23:12Z</time>
      </trkpt>
      <trkpt lat="45.85446" lon="1.22465">
        <ele>286</ele>
        <time>2024-11-12T08:23:13Z</time>
      </trkpt>
      <trkpt lat="45.85445" lon="1.22467">
        <ele>285.9</ele>
        <time>2024-11-12T08:23:14Z</time>
      </trkpt>
      <trkpt lat="45.85445" lon="1.22469">
        <ele>285.8</ele>
        <time>2024-11-12T08:23:15Z</time>
      </trkpt>
      <trkpt lat="45.85444" lon="1.22471">
        <ele>285.7</ele>
        <time>2024-11-12T08:23:16Z</time>
      </trkpt>
      <trkpt lat="45.85443" lon="1.22475">
        <ele>285.5</ele>
        <time>2024-11-12T08:23:17Z</time>
      </trkpt>
      <trkpt lat="45.85442" lon="1.22476">
        <ele>285.4</ele>
        <time>2024-11-12T08:23:18Z</time>
      </trkpt>
      <trkpt lat="45.85442" lon="1.22479">
        <ele>285.3</ele>
        <time>2024-11-12T08:23:19Z</time>
      </trkpt>
      <trkpt lat="45.85441" lon="1.22481">
        <ele>285.2</ele>
        <time>2024-11-12T08:23:20Z</time>
      </trkpt>
      <trkpt lat="45.85441" lon="1.22482">
        <ele>285.1</ele>
        <time>2024-11-12T08:23:21Z</time>
      </trkpt>
      <trkpt lat="45.8544" lon="1.22486">
        <ele>284.9</ele>
        <time>2024-11-12T08:23:22Z</time>
      </trkpt>
      <trkpt lat="45.85439" lon="1.22487">
        <ele>284.8</ele>
        <time>2024-11-12T08:23:23Z</time>
      </trkpt>
      <trkpt lat="45.85438" lon="1.2249">
        <ele>284.7</ele>
        <time>2024-11-12T08:23:24Z</time>
      </trkpt>
      <trkpt lat="45.85438" lon="1.22491">
        <ele>284.6</ele>
        <time>2024-11-12T08:23:25Z</time>
      </trkpt>
      <trkpt lat="45.85438" lon="1.22492">
        <ele>284.5</ele>
        <time>2024-11-12T08:23:26Z</time>
      </trkpt>
      <trkpt lat="45.85437" lon="1.22494">
        <ele>284.4</ele>
        <time>2024-11-12T08:23:27Z</time>
      </trkpt>
      <trkpt lat="45.85436" lon="1.22496">
        <ele>284.2</ele>
        <time>2024-11-12T08:23:28Z</time>
      </trkpt>
      <trkpt lat="45.85435" lon="1.22498">
        <ele>284.1</ele>
        <time>2024-11-12T08:23:29Z</time>
      </trkpt>
      <trkpt lat="45.85434" lon="1.22499">
        <ele>283.9</ele>
        <time>2024-11-12T08:23:30Z</time>
      </trkpt>
      <trkpt lat="45.85432" lon="1.22501">
        <ele>283.7</ele>
        <time>2024-11-12T08:23:31Z</time>
      </trkpt>
      <trkpt lat="45.85431" lon="1.22502">
        <ele>283.4</ele>
        <time>2024-11-12T08:23:32Z</time>
      </trkpt>
      <trkpt lat="45.85429" lon="1.22503">
        <ele>283.1</ele>
        <time>2024-11-12T08:23:33Z</time>
      </trkpt>
      <trkpt lat="45.85428" lon="1.22503">
        <ele>283</ele>
        <time>2024-11-12T08:23:34Z</time>
      </trkpt>
      <trkpt lat="45.85427" lon="1.22503">
        <ele>282.8</ele>
        <time>2024-11-12T08:23:35Z</time>
      </trkpt>
      <trkpt lat="45.85425" lon="1.22503">
        <ele>282.6</ele>
        <time>2024-11-12T08:23:36Z</time>
      </trkpt>
      <trkpt lat="45.85424" lon="1.22503">
        <ele>282.3</ele>
        <time>2024-11-12T08:23:37Z</time>
      </trkpt>
      <trkpt lat="45.85422" lon="1.22503">
        <ele>282.1</ele>
        <time>2024-11-12T08:23:38Z</time>
      </trkpt>
      <trkpt lat="45.8542" lon="1.22503">
        <ele>281.8</ele>
        <time>2024-11-12T08:23:39Z</time>
      </trkpt>
      <trkpt lat="45.85419" lon="1.22503">
        <ele>281.7</ele>
        <time>2024-11-12T08:23:40Z</time>
      </trkpt>
      <trkpt lat="45.85418" lon="1.22504">
        <ele>281.5</ele>
        <time>2024-11-12T08:23:41Z</time>
      </trkpt>
      <trkpt lat="45.85417" lon="1.22504">
        <ele>281.4</ele>
        <time>2024-11-12T08:23:42Z</time>
      </trkpt>
      <trkpt lat="45.85415" lon="1.22504">
        <ele>281.1</ele>
        <time>2024-11-12T08:23:43Z</time>
      </trkpt>
      <trkpt lat="45.85414" lon="1.22504">
        <ele>281</ele>
        <time>2024-11-12T08:23:44Z</time>
      </trkpt>
      <trkpt lat="45.85413" lon="1.22503">
        <ele>280.8</ele>
        <time>2024-11-12T08:23:45Z</time>
      </trkpt>
      <trkpt lat="45.85411" lon="1.22503">
        <ele>280.7</ele>
        <time>2024-11-12T08:23:46Z</time>
      </trkpt>
      <trkpt lat="45.85409" lon="1.22503">
        <ele>280.4</ele>
        <time>2024-11-12T08:23:47Z</time>
      </trkpt>
      <trkpt lat="45.85409" lon="1.22503">
        <ele>280.3</ele>
        <time>2024-11-12T08:23:48Z</time>
      </trkpt>
      <trkpt lat="45.85408" lon="1.22504">
        <ele>280.2</ele>
        <time>2024-11-12T08:23:49Z</time>
      </trkpt>
      <trkpt lat="45.85406" lon="1.22505">
        <ele>280</ele>
        <time>2024-11-12T08:23:50Z</time>
      </trkpt>
      <trkpt lat="45.85405" lon="1.22505">
        <ele>279.9</ele>
        <time>2024-11-12T08:23:51Z</time>
      </trkpt>
      <trkpt lat="45.85404" lon="1.22506">
        <ele>279.8</ele>
        <time>2024-11-12T08:23:52Z</time>
      </trkpt>
      <trkpt lat="45.85402" lon="1.22508">
        <ele>279.5</ele>
        <time>2024-11-12T08:23:53Z</time>
      </trkpt>
      <trkpt lat="45.85402" lon="1.22508">
        <ele>279.5</ele>
        <time>2024-11-12T08:23:54Z</time>
      </trkpt>
      <trkpt lat="45.85401" lon="1.22509">
        <ele>279.4</ele>
        <time>2024-11-12T08:23:55Z</time>
      </trkpt>
      <trkpt lat="45.854" lon="1.22511">
        <ele>279.2</ele>
        <time>2024-11-12T08:23:56Z</time>
      </trkpt>
      <trkpt lat="45.85399" lon="1.22512">
        <ele>279.1</ele>
        <time>2024-11-12T08:23:57Z</time>
      </trkpt>
      <trkpt lat="45.85399" lon="1.22513">
        <ele>279</ele>
        <time>2024-11-12T08:23:58Z</time>
      </trkpt>
      <trkpt lat="45.85399" lon="1.22515">
        <ele>278.9</ele>
        <time>2024-11-12T08:23:59Z</time>
      </trkpt>
      <trkpt lat="45.85398" lon="1.22516">
        <ele>278.8</ele>
        <time>2024-11-12T08:24:00Z</time>
      </trkpt>
      <trkpt lat="45.85397" lon="1.22518">
        <ele>278.7</ele>
        <time>2024-11-12T08:24:01Z</time>
      </trkpt>
      <trkpt lat="45.85397" lon="1.2252">
        <ele>278.6</ele>
        <time>2024-11-12T08:24:02Z</time>
      </trkpt>
      <trkpt lat="45.85396" lon="1.22522">
        <ele>278.5</ele>
        <time>2024-11-12T08:24:03Z</time>
      </trkpt>
      <trkpt lat="45.85396" lon="1.22524">
        <ele>278.3</ele>
        <time>2024-11-12T08:24:04Z</time>
      </trkpt>
      <trkpt lat="45.85395" lon="1.22526">
        <ele>278.3</ele>
        <time>2024-11-12T08:24:05Z</time>
      </trkpt>
      <trkpt lat="45.85395" lon="1.22527">
        <ele>278.1</ele>
        <time>2024-11-12T08:24:06Z</time>
      </trkpt>
      <trkpt lat="45.85394" lon="1.22529">
        <ele>278.1</ele>
        <time>2024-11-12T08:24:07Z</time>
      </trkpt>
      <trkpt lat="45.85394" lon="1.22532">
        <ele>277.9</ele>
        <time>2024-11-12T08:24:08Z</time>
      </trkpt>
      <trkpt lat="45.85393" lon="1.22533">
        <ele>277.9</ele>
        <time>2024-11-12T08:24:09Z</time>
      </trkpt>
      <trkpt lat="45.85393" lon="1.22535">
        <ele>277.8</ele>
        <time>2024-11-12T08:24:10Z</time>
      </trkpt>
      <trkpt lat="45.85392" lon="1.22537">
        <ele>277.7</ele>
        <time>2024-11-12T08:24:11Z</time>
      </trkpt>
      <trkpt lat="45.85392" lon="1.22539">
        <ele>277.6</ele>
        <time>2024-11-12T08:24:12Z</time>
      </trkpt>
      <trkpt lat="45.85391" lon="1.22541">
        <ele>277.5</ele>
        <time>2024-11-12T08:24:13Z</time>
      </trkpt>
      <trkpt lat="45.85391" lon="1.22542">
        <ele>277.4</ele>
        <time>2024-11-12T08:24:14Z</time>
      </trkpt>
      <trkpt lat="45.8539" lon="1.22544">
        <ele>277.3</ele>
        <time>2024-11-12T08:24:15Z</time>
      </trkpt>
      <trkpt lat="45.85389" lon="1.22546">
        <ele>277.3</ele>
        <time>2024-11-12T08:24:16Z</time>
      </trkpt>
      <trkpt lat="45.85389" lon="1.22548">
        <ele>277.2</ele>
        <time>2024-11-12T08:24:17Z</time>
      </trkpt>
      <trkpt lat="45.85388" lon="1.2255">
        <ele>277.1</ele>
        <time>2024-11-12T08:24:18Z</time>
      </trkpt>
      <trkpt lat="45.85388" lon="1.22552">
        <ele>277</ele>
        <time>2024-11-12T08:24:19Z</time>
      </trkpt>
      <trkpt lat="45.85387" lon="1.22554">
        <ele>277</ele>
        <time>2024-11-12T08:24:20Z</time>
      </trkpt>
      <trkpt lat="45.85387" lon="1.22555">
        <ele>276.9</ele>
        <time>2024-11-12T08:24:21Z</time>
      </trkpt>
      <trkpt lat="45.85386" lon="1.22556">
        <ele>276.8</ele>
        <time>2024-11-12T08:24:22Z</time>
      </trkpt>
      <trkpt lat="45.85385" lon="1.22559">
        <ele>276.7</ele>
        <time>2024-11-12T08:24:23Z</time>
      </trkpt>
      <trkpt lat="45.85385" lon="1.22559">
        <ele>276.7</ele>
        <time>2024-11-12T08:24:24Z</time>
      </trkpt>
      <trkpt lat="45.85384" lon="1.22561">
        <ele>276.6</ele>
        <time>2024-11-12T08:24:25Z</time>
      </trkpt>
      <trkpt lat="45.85384" lon="1.22562">
        <ele>276.6</ele>
        <time>2024-11-12T08:24:26Z</time>
      </trkpt>
      <trkpt lat="45.85382" lon="1.22565">
        <ele>276.5</ele>
        <time>2024-11-12T08:24:27Z</time>
      </trkpt>
      <trkpt lat="45.85382" lon="1.22566">
        <ele>276.4</ele>
        <time>2024-11-12T08:24:28Z</time>
      </trkpt>
      <trkpt lat="45.85382" lon="1.22567">
        <ele>276.4</ele>
        <time>2024-11-12T08:24:29Z</time>
      </trkpt>
      <trkpt lat="45.85381" lon="1.22569">
        <ele>276.3</ele>
        <time>2024-11-12T08:24:30Z</time>
      </trkpt>
      <trkpt lat="45.8538" lon="1.22571">
        <ele>276.2</ele>
        <time>2024-11-12T08:24:31Z</time>
      </trkpt>
      <trkpt lat="45.85379" lon="1.22573">
        <ele>276.2</ele>
        <time>2024-11-12T08:24:32Z</time>
      </trkpt>
      <trkpt lat="45.85378" lon="1.22575">
        <ele>276.1</ele>
        <time>2024-11-12T08:24:33Z</time>
      </trkpt>
      <trkpt lat="45.85378" lon="1.22576">
        <ele>276</ele>
        <time>2024-11-12T08:24:34Z</time>
      </trkpt>
      <trkpt lat="45.85377" lon="1.22577">
        <ele>276</ele>
        <time>2024-11-12T08:24:35Z</time>
      </trkpt>
      <trkpt lat="45.85376" lon="1.22578">
        <ele>276</ele>
        <time>2024-11-12T08:24:36Z</time>
      </trkpt>
      <trkpt lat="45.85374" lon="1.2258">
        <ele>276</ele>
        <time>2024-11-12T08:24:37Z</time>
      </trkpt>
      <trkpt lat="45.85373" lon="1.2258">
        <ele>276</ele>
        <time>2024-11-12T08:24:38Z</time>
      </trkpt>
      <trkpt lat="45.85371" lon="1.22581">
        <ele>275.9</ele>
        <time>2024-11-12T08:24:39Z</time>
      </trkpt>
      <trkpt lat="45.8537" lon="1.22581">
        <ele>275.9</ele>
        <time>2024-11-12T08:24:40Z</time>
      </trkpt>
      <trkpt lat="45.85369" lon="1.22581">
        <ele>275.9</ele>
        <time>2024-11-12T08:24:41Z</time>
      </trkpt>
      <trkpt lat="45.85368" lon="1.22582">
        <ele>275.9</ele>
        <time>2024-11-12T08:24:42Z</time>
      </trkpt>
      <trkpt lat="45.85366" lon="1.22582">
        <ele>275.9</ele>
        <time>2024-11-12T08:24:43Z</time>
      </trkpt>
      <trkpt lat="45.85365" lon="1.22583">
        <ele>275.9</ele>
        <time>2024-11-12T08:24:44Z</time>
      </trkpt>
      <trkpt lat="45.85364" lon="1.22584">
        <ele>275.9</ele>
        <time>2024-11-12T08:24:45Z</time>
      </trkpt>
      <trkpt lat="45.85362" lon="1.22585">
        <ele>275.9</ele>
        <time>2024-11-12T08:24:46Z</time>
      </trkpt>
      <trkpt lat="45.85361" lon="1.22585">
        <ele>275.8</ele>
        <time>2024-11-12T08:24:47Z</time>
      </trkpt>
      <trkpt lat="45.8536" lon="1.22585">
        <ele>275.8</ele>
        <time>2024-11-12T08:24:48Z</time>
      </trkpt>
      <trkpt lat="45.85358" lon="1.22586">
        <ele>275.8</ele>
        <time>2024-11-12T08:24:49Z</time>
      </trkpt>
      <trkpt lat="45.85357" lon="1.22586">
        <ele>275.8</ele>
        <time>2024-11-12T08:24:50Z</time>
      </trkpt>
      <trkpt lat="45.85356" lon="1.22586">
        <ele>275.8</ele>
        <time>2024-11-12T08:24:51Z</time>
      </trkpt>
      <trkpt lat="45.85354" lon="1.22588">
        <ele>275.8</ele>
        <time>2024-11-12T08:24:52Z</time>
      </trkpt>
      <trkpt lat="45.85354" lon="1.22589">
        <ele>275.8</ele>
        <time>2024-11-12T08:24:53Z</time>
      </trkpt>
      <trkpt lat="45.85353" lon="1.2259">
        <ele>275.8</ele>
        <time>2024-11-12T08:24:54Z</time>
      </trkpt>
      <trkpt lat="45.85352" lon="1.22592">
        <ele>275.8</ele>
        <time>2024-11-12T08:24:55Z</time>
      </trkpt>
      <trkpt lat="45.85351" lon="1.22593">
        <ele>275.8</ele>
        <time>2024-11-12T08:24:56Z</time>
      </trkpt>
      <trkpt lat="45.85351" lon="1.22594">
        <ele>275.8</ele>
        <time>2024-11-12T08:24:57Z</time>
      </trkpt>
      <trkpt lat="45.8535" lon="1.22596">
        <ele>275.8</ele>
        <time>2024-11-12T08:24:58Z</time>
      </trkpt>
      <trkpt lat="45.8535" lon="1.22597">
        <ele>275.8</ele>
        <time>2024-11-12T08:24:59Z</time>
      </trkpt>
      <trkpt lat="45.8535" lon="1.22599">
        <ele>275.8</ele>
        <time>2024-11-12T08:25:00Z</time>
      </trkpt>
      <trkpt lat="45.8535" lon="1.226">
        <ele>275.7</ele>
        <time>2024-11-12T08:25:01Z</time>
      </trkpt>
      <trkpt lat="45.8535" lon="1.22601">
        <ele>275.7</ele>
        <time>2024-11-12T08:25:02Z</time>
      </trkpt>
      <trkpt lat="45.85351" lon="1.22601">
        <ele>275.7</ele>
        <time>2024-11-12T08:25:03Z</time>
      </trkpt>
      <trkpt lat="45.85351" lon="1.22602">
        <ele>275.7</ele>
        <time>2024-11-12T08:25:04Z</time>
      </trkpt>
      <trkpt lat="45.85352" lon="1.22602">
        <ele>275.7</ele>
        <time>2024-11-12T08:25:05Z</time>
      </trkpt>
      <trkpt lat="45.85352" lon="1.22602">
        <ele>275.7</ele>
        <time>2024-11-12T08:25:06Z</time>
      </trkpt>
      <trkpt lat="45.85352" lon="1.22603">
        <ele>275.7</ele>
        <time>2024-11-12T08:25:07Z</time>
      </trkpt>
      <trkpt lat="45.85352" lon="1.22603">
        <ele>275.7</ele>
        <time>2024-11-12T08:25:08Z</time>
      </trkpt>
      <trkpt lat="45.85352" lon="1.22604">
        <ele>275.7</ele>
        <time>2024-11-12T08:25:09Z</time>
      </trkpt>
      <trkpt lat="45.85351" lon="1.22607">
        <ele>275.7</ele>
        <time>2024-11-12T08:25:10Z</time>
      </trkpt>
      <trkpt lat="45.85349" lon="1.2261">
        <ele>275.7</ele>
        <time>2024-11-12T08:25:11Z</time>
      </trkpt>
      <trkpt lat="45.85347" lon="1.22612">
        <ele>275.7</ele>
        <time>2024-11-12T08:25:12Z</time>
      </trkpt>
      <trkpt lat="45.85347" lon="1.22613">
        <ele>275.7</ele>
        <time>2024-11-12T08:25:13Z</time>
      </trkpt>
      <trkpt lat="45.85345" lon="1.22614">
        <ele>275.7</ele>
        <time>2024-11-12T08:25:14Z</time>
      </trkpt>
      <trkpt lat="45.85344" lon="1.22614">
        <ele>275.7</ele>
        <time>2024-11-12T08:25:15Z</time>
      </trkpt>
      <trkpt lat="45.85343" lon="1.22614">
        <ele>275.7</ele>
        <time>2024-11-12T08:25:16Z</time>
      </trkpt>
      <trkpt lat="45.85342" lon="1.22615">
        <ele>275.7</ele>
        <time>2024-11-12T08:25:17Z</time>
      </trkpt>
      <trkpt lat="45.85341" lon="1.22615">
        <ele>275.7</ele>
        <time>2024-11-12T08:25:18Z</time>
      </trkpt>
      <trkpt lat="45.8534" lon="1.22616">
        <ele>275.7</ele>
        <time>2024-11-12T08:25:19Z</time>
      </trkpt>
      <trkpt lat="45.85339" lon="1.22617">
        <ele>275.7</ele>
        <time>2024-11-12T08:25:20Z</time>
      </trkpt>
      <trkpt lat="45.85339" lon="1.22618">
        <ele>275.7</ele>
        <time>2024-11-12T08:25:21Z</time>
      </trkpt>
      <trkpt lat="45.8534" lon="1.22618">
        <ele>275.8</ele>
        <time>2024-11-12T08:25:22Z</time>
      </trkpt>
      <trkpt lat="45.8534" lon="1.22618">
        <ele>275.8</ele>
        <time>2024-11-12T08:25:23Z</time>
      </trkpt>
      <trkpt lat="45.8534" lon="1.22618">
        <ele>275.8</ele>
        <time>2024-11-12T08:25:24Z</time>
      </trkpt>
      <trkpt lat="45.8534" lon="1.22618">
        <ele>275.8</ele>
        <time>2024-11-12T08:25:25Z</time>
      </trkpt>
      <trkpt lat="45.85341" lon="1.22618">
        <ele>275.8</ele>
        <time>2024-11-12T08:25:26Z</time>
      </trkpt>
      <trkpt lat="45.85341" lon="1.22617">
        <ele>275.8</ele>
        <time>2024-11-12T08:25:27Z</time>
      </trkpt>
      <trkpt lat="45.85343" lon="1.22617">
        <ele>275.9</ele>
        <time>2024-11-12T08:25:28Z</time>
      </trkpt>
      <trkpt lat="45.85345" lon="1.22617">
        <ele>275.9</ele>
        <time>2024-11-12T08:25:29Z</time>
      </trkpt>
      <trkpt lat="45.85346" lon="1.22618">
        <ele>276</ele>
        <time>2024-11-12T08:25:30Z</time>
      </trkpt>
      <trkpt lat="45.85346" lon="1.22619">
        <ele>276</ele>
        <time>2024-11-12T08:25:31Z</time>
      </trkpt>
      <trkpt lat="45.85347" lon="1.22619">
        <ele>276</ele>
        <time>2024-11-12T08:25:32Z</time>
      </trkpt>
      <trkpt lat="45.85348" lon="1.2262">
        <ele>276</ele>
        <time>2024-11-12T08:25:33Z</time>
      </trkpt>
      <trkpt lat="45.8535" lon="1.2262">
        <ele>276.1</ele>
        <time>2024-11-12T08:25:34Z</time>
      </trkpt>
      <trkpt lat="45.85351" lon="1.22621">
        <ele>276.1</ele>
        <time>2024-11-12T08:25:35Z</time>
      </trkpt>
      <trkpt lat="45.85352" lon="1.22621">
        <ele>276.2</ele>
        <time>2024-11-12T08:25:36Z</time>
      </trkpt>
      <trkpt lat="45.85354" lon="1.22622">
        <ele>276.2</ele>
        <time>2024-11-12T08:25:37Z</time>
      </trkpt>
      <trkpt lat="45.85355" lon="1.22622">
        <ele>276.3</ele>
        <time>2024-11-12T08:25:38Z</time>
      </trkpt>
      <trkpt lat="45.85356" lon="1.22622">
        <ele>276.3</ele>
        <time>2024-11-12T08:25:39Z</time>
      </trkpt>
      <trkpt lat="45.85357" lon="1.22623">
        <ele>276.4</ele>
        <time>2024-11-12T08:25:40Z</time>
      </trkpt>
      <trkpt lat="45.85359" lon="1.22623">
        <ele>276.4</ele>
        <time>2024-11-12T08:25:41Z</time>
      </trkpt>
      <trkpt lat="45.8536" lon="1.22624">
        <ele>276.4</ele>
        <time>2024-11-12T08:25:42Z</time>
      </trkpt>
      <trkpt lat="45.85361" lon="1.22623">
        <ele>276.5</ele>
        <time>2024-11-12T08:25:43Z</time>
      </trkpt>
      <trkpt lat="45.85362" lon="1.22624">
        <ele>276.5</ele>
        <time>2024-11-12T08:25:44Z</time>
      </trkpt>
      <trkpt lat="45.85363" lon="1.22624">
        <ele>276.6</ele>
        <time>2024-11-12T08:25:45Z</time>
      </trkpt>
      <trkpt lat="45.85363" lon="1.22624">
        <ele>276.6</ele>
        <time>2024-11-12T08:25:46Z</time>
      </trkpt>
      <trkpt lat="45.85364" lon="1.22624">
        <ele>276.6</ele>
        <time>2024-11-12T08:25:47Z</time>
      </trkpt>
      <trkpt lat="45.85365" lon="1.22625">
        <ele>276.6</ele>
        <time>2024-11-12T08:25:48Z</time>
      </trkpt>
      <trkpt lat="45.85366" lon="1.22626">
        <ele>276.7</ele>
        <time>2024-11-12T08:25:49Z</time>
      </trkpt>
      <trkpt lat="45.85367" lon="1.22627">
        <ele>276.7</ele>
        <time>2024-11-12T08:25:50Z</time>
      </trkpt>
      <trkpt lat="45.85367" lon="1.22627">
        <ele>276.8</ele>
        <time>2024-11-12T08:25:51Z</time>
      </trkpt>
      <trkpt lat="45.85368" lon="1.22628">
        <ele>276.8</ele>
        <time>2024-11-12T08:25:52Z</time>
      </trkpt>
      <trkpt lat="45.85369" lon="1.22629">
        <ele>276.8</ele>
        <time>2024-11-12T08:25:53Z</time>
      </trkpt>
      <trkpt lat="45.85369" lon="1.22629">
        <ele>276.9</ele>
        <time>2024-11-12T08:25:54Z</time>
      </trkpt>
      <trkpt lat="45.8537" lon="1.2263">
        <ele>276.9</ele>
        <time>2024-11-12T08:25:55Z</time>
      </trkpt>
      <trkpt lat="45.85371" lon="1.2263">
        <ele>276.9</ele>
        <time>2024-11-12T08:25:56Z</time>
      </trkpt>
      <trkpt lat="45.85372" lon="1.2263">
        <ele>277</ele>
        <time>2024-11-12T08:25:57Z</time>
      </trkpt>
      <trkpt lat="45.85374" lon="1.2263">
        <ele>277.1</ele>
        <time>2024-11-12T08:25:58Z</time>
      </trkpt>
      <trkpt lat="45.85376" lon="1.22629">
        <ele>277.1</ele>
        <time>2024-11-12T08:25:59Z</time>
      </trkpt>
      <trkpt lat="45.85377" lon="1.22628">
        <ele>277.2</ele>
        <time>2024-11-12T08:26:00Z</time>
      </trkpt>
      <trkpt lat="45.85378" lon="1.22628">
        <ele>277.2</ele>
        <time>2024-11-12T08:26:01Z</time>
      </trkpt>
      <trkpt lat="45.85379" lon="1.22628">
        <ele>277.3</ele>
        <time>2024-11-12T08:26:02Z</time>
      </trkpt>
      <trkpt lat="45.8538" lon="1.22627">
        <ele>277.3</ele>
        <time>2024-11-12T08:26:03Z</time>
      </trkpt>
      <trkpt lat="45.85381" lon="1.22627">
        <ele>277.4</ele>
        <time>2024-11-12T08:26:04Z</time>
      </trkpt>
      <trkpt lat="45.85382" lon="1.22627">
        <ele>277.4</ele>
        <time>2024-11-12T08:26:05Z</time>
      </trkpt>
      <trkpt lat="45.85383" lon="1.22627">
        <ele>277.4</ele>
        <time>2024-11-12T08:26:06Z</time>
      </trkpt>
      <trkpt lat="45.85384" lon="1.22627">
        <ele>277.5</ele>
        <time>2024-11-12T08:26:07Z</time>
      </trkpt>
      <trkpt lat="45.85385" lon="1.22627">
        <ele>277.5</ele>
        <time>2024-11-12T08:26:08Z</time>
      </trkpt>
      <trkpt lat="45.85386" lon="1.22627">
        <ele>277.6</ele>
        <time>2024-11-12T08:26:09Z</time>
      </trkpt>
      <trkpt lat="45.85387" lon="1.22627">
        <ele>277.6</ele>
        <time>2024-11-12T08:26:10Z</time>
      </trkpt>
      <trkpt lat="45.85388" lon="1.22627">
        <ele>277.6</ele>
        <time>2024-11-12T08:26:11Z</time>
      </trkpt>
      <trkpt lat="45.85389" lon="1.22627">
        <ele>277.6</ele>
        <time>2024-11-12T08:26:12Z</time>
      </trkpt>
      <trkpt lat="45.8539" lon="1.22627">
        <ele>277.7</ele>
        <time>2024-11-12T08:26:13Z</time>
      </trkpt>
      <trkpt lat="45.85392" lon="1.22627">
        <ele>277.7</ele>
        <time>2024-11-12T08:26:14Z</time>
      </trkpt>
      <trkpt lat="45.85393" lon="1.22627">
        <ele>277.7</ele>
        <time>2024-11-12T08:26:15Z</time>
      </trkpt>
      <trkpt lat="45.85394" lon="1.22627">
        <ele>277.8</ele>
        <time>2024-11-12T08:26:16Z</time>
      </trkpt>
      <trkpt lat="45.85395" lon="1.22627">
        <ele>277.8</ele>
        <time>2024-11-12T08:26:17Z</time>
      </trkpt>
      <trkpt lat="45.85396" lon="1.22626">
        <ele>277.8</ele>
        <time>2024-11-12T08:26:18Z</time>
      </trkpt>
      <trkpt lat="45.85396" lon="1.22625">
        <ele>277.8</ele>
        <time>2024-11-12T08:26:19Z</time>
      </trkpt>
      <trkpt lat="45.85397" lon="1.22624">
        <ele>277.8</ele>
        <time>2024-11-12T08:26:20Z</time>
      </trkpt>
      <trkpt lat="45.85398" lon="1.22622">
        <ele>277.9</ele>
        <time>2024-11-12T08:26:21Z</time>
      </trkpt>
      <trkpt lat="45.85399" lon="1.22622">
        <ele>277.9</ele>
        <time>2024-11-12T08:26:22Z</time>
      </trkpt>
      <trkpt lat="45.854" lon="1.22621">
        <ele>277.9</ele>
        <time>2024-11-12T08:26:23Z</time>
      </trkpt>
      <trkpt lat="45.85401" lon="1.2262">
        <ele>277.9</ele>
        <time>2024-11-12T08:26:24Z</time>
      </trkpt>
      <trkpt lat="45.85402" lon="1.22619">
        <ele>277.9</ele>
        <time>2024-11-12T08:26:25Z</time>
      </trkpt>
      <trkpt lat="45.85402" lon="1.22618">
        <ele>278</ele>
        <time>2024-11-12T08:26:26Z</time>
      </trkpt>
      <trkpt lat="45.85403" lon="1.22616">
        <ele>278</ele>
        <time>2024-11-12T08:26:27Z</time>
      </trkpt>
      <trkpt lat="45.85404" lon="1.22616">
        <ele>278</ele>
        <time>2024-11-12T08:26:28Z</time>
      </trkpt>
      <trkpt lat="45.85405" lon="1.22615">
        <ele>278</ele>
        <time>2024-11-12T08:26:29Z</time>
      </trkpt>
      <trkpt lat="45.85407" lon="1.22614">
        <ele>278</ele>
        <time>2024-11-12T08:26:30Z</time>
      </trkpt>
      <trkpt lat="45.85409" lon="1.22613">
        <ele>278.1</ele>
        <time>2024-11-12T08:26:31Z</time>
      </trkpt>
      <trkpt lat="45.85409" lon="1.22612">
        <ele>278.1</ele>
        <time>2024-11-12T08:26:32Z</time>
      </trkpt>
      <trkpt lat="45.8541" lon="1.22611">
        <ele>278.1</ele>
        <time>2024-11-12T08:26:33Z</time>
      </trkpt>
      <trkpt lat="45.85411" lon="1.2261">
        <ele>278.1</ele>
        <time>2024-11-12T08:26:34Z</time>
      </trkpt>
      <trkpt lat="45.85411" lon="1.22609">
        <ele>278.1</ele>
        <time>2024-11-12T08:26:35Z</time>
      </trkpt>
      <trkpt lat="45.85412" lon="1.22608">
        <ele>278.1</ele>
        <time>2024-11-12T08:26:36Z</time>
      </trkpt>
      <trkpt lat="45.85413" lon="1.22608">
        <ele>278.2</ele>
        <time>2024-11-12T08:26:37Z</time>
      </trkpt>
      <trkpt lat="45.85414" lon="1.22608">
        <ele>278.2</ele>
        <time>2024-11-12T08:26:38Z</time>
      </trkpt>
      <trkpt lat="45.85415" lon="1.22608">
        <ele>278.2</ele>
        <time>2024-11-12T08:26:39Z</time>
      </trkpt>
      <trkpt lat="45.85417" lon="1.22608">
        <ele>278.2</ele>
        <time>2024-11-12T08:26:40Z</time>
      </trkpt>
      <trkpt lat="45.85418" lon="1.22608">
        <ele>278.2</ele>
        <time>2024-11-12T08:26:41Z</time>
      </trkpt>
      <trkpt lat="45.85419" lon="1.22608">
        <ele>278.2</ele>
        <time>2024-11-12T08:26:42Z</time>
      </trkpt>
      <trkpt lat="45.85419" lon="1.22608">
        <ele>278.2</ele>
        <time>2024-11-12T08:26:43Z</time>
      </trkpt>
      <trkpt lat="45.85421" lon="1.22607">
        <ele>278.2</ele>
        <time>2024-11-12T08:26:44Z</time>
      </trkpt>
      <trkpt lat="45.85422" lon="1.22607">
        <ele>278.3</ele>
        <time>2024-11-12T08:26:45Z</time>
      </trkpt>
      <trkpt lat="45.85423" lon="1.22607">
        <ele>278.3</ele>
        <time>2024-11-12T08:26:46Z</time>
      </trkpt>
      <trkpt lat="45.85425" lon="1.22607">
        <ele>278.3</ele>
        <time>2024-11-12T08:26:47Z</time>
      </trkpt>
      <trkpt lat="45.85427" lon="1.22606">
        <ele>278.3</ele>
        <time>2024-11-12T08:26:48Z</time>
      </trkpt>
      <trkpt lat="45.85428" lon="1.22605">
        <ele>278.3</ele>
        <time>2024-11-12T08:26:49Z</time>
      </trkpt>
      <trkpt lat="45.85429" lon="1.22604">
        <ele>278.3</ele>
        <time>2024-11-12T08:26:50Z</time>
      </trkpt>
      <trkpt lat="45.8543" lon="1.22604">
        <ele>278.3</ele>
        <time>2024-11-12T08:26:51Z</time>
      </trkpt>
      <trkpt lat="45.85432" lon="1.22604">
        <ele>278.3</ele>
        <time>2024-11-12T08:26:52Z</time>
      </trkpt>
      <trkpt lat="45.85433" lon="1.22603">
        <ele>278.2</ele>
        <time>2024-11-12T08:26:53Z</time>
      </trkpt>
      <trkpt lat="45.85434" lon="1.22603">
        <ele>278.2</ele>
        <time>2024-11-12T08:26:54Z</time>
      </trkpt>
      <trkpt lat="45.85435" lon="1.22602">
        <ele>278.2</ele>
        <time>2024-11-12T08:26:55Z</time>
      </trkpt>
      <trkpt lat="45.85435" lon="1.22602">
        <ele>278.2</ele>
        <time>2024-11-12T08:26:56Z</time>
      </trkpt>
      <trkpt lat="45.85438" lon="1.22604">
        <ele>278.2</ele>
        <time>2024-11-12T08:26:57Z</time>
      </trkpt>
      <trkpt lat="45.85438" lon="1.22604">
        <ele>278.2</ele>
        <time>2024-11-12T08:26:58Z</time>
      </trkpt>
      <trkpt lat="45.85439" lon="1.22605">
        <ele>278.1</ele>
        <time>2024-11-12T08:26:59Z</time>
      </trkpt>
      <trkpt lat="45.85441" lon="1.22605">
        <ele>278.1</ele>
        <time>2024-11-12T08:27:00Z</time>
      </trkpt>
      <trkpt lat="45.85442" lon="1.22604">
        <ele>278.1</ele>
        <time>2024-11-12T08:27:01Z</time>
      </trkpt>
      <trkpt lat="45.85443" lon="1.22603">
        <ele>278.1</ele>
        <time>2024-11-12T08:27:02Z</time>
      </trkpt>
      <trkpt lat="45.85444" lon="1.22603">
        <ele>278.1</ele>
        <time>2024-11-12T08:27:03Z</time>
      </trkpt>
      <trkpt lat="45.85445" lon="1.22601">
        <ele>278.1</ele>
        <time>2024-11-12T08:27:04Z</time>
      </trkpt>
      <trkpt lat="45.85446" lon="1.226">
        <ele>278</ele>
        <time>2024-11-12T08:27:05Z</time>
      </trkpt>
      <trkpt lat="45.85446" lon="1.22598">
        <ele>278</ele>
        <time>2024-11-12T08:27:06Z</time>
      </trkpt>
      <trkpt lat="45.85447" lon="1.22596">
        <ele>278</ele>
        <time>2024-11-12T08:27:07Z</time>
      </trkpt>
      <trkpt lat="45.85448" lon="1.22595">
        <ele>278</ele>
        <time>2024-11-12T08:27:08Z</time>
      </trkpt>
      <trkpt lat="45.85449" lon="1.22594">
        <ele>278</ele>
        <time>2024-11-12T08:27:09Z</time>
      </trkpt>
      <trkpt lat="45.85449" lon="1.22592">
        <ele>277.9</ele>
        <time>2024-11-12T08:27:10Z</time>
      </trkpt>
      <trkpt lat="45.8545" lon="1.22591">
        <ele>277.9</ele>
        <time>2024-11-12T08:27:11Z</time>
      </trkpt>
      <trkpt lat="45.85451" lon="1.22589">
        <ele>277.9</ele>
        <time>2024-11-12T08:27:12Z</time>
      </trkpt>
      <trkpt lat="45.85452" lon="1.22588">
        <ele>277.9</ele>
        <time>2024-11-12T08:27:13Z</time>
      </trkpt>
      <trkpt lat="45.85452" lon="1.22587">
        <ele>277.9</ele>
        <time>2024-11-12T08:27:14Z</time>
      </trkpt>
      <trkpt lat="45.85453" lon="1.22585">
        <ele>277.9</ele>
        <time>2024-11-12T08:27:15Z</time>
      </trkpt>
      <trkpt lat="45.85454" lon="1.22585">
        <ele>277.9</ele>
        <time>2024-11-12T08:27:16Z</time>
      </trkpt>
      <trkpt lat="45.85456" lon="1.22584">
        <ele>277.9</ele>
        <time>2024-11-12T08:27:17Z</time>
      </trkpt>
      <trkpt lat="45.85457" lon="1.22584">
        <ele>277.9</ele>
        <time>2024-11-12T08:27:18Z</time>
      </trkpt>
      <trkpt lat="45.85458" lon="1.22583">
        <ele>277.9</ele>
        <time>2024-11-12T08:27:19Z</time>
      </trkpt>
      <trkpt lat="45.85459" lon="1.22582">
        <ele>277.9</ele>
        <time>2024-11-12T08:27:20Z</time>
      </trkpt>
      <trkpt lat="45.8546" lon="1.22581">
        <ele>278</ele>
        <time>2024-11-12T08:27:21Z</time>
      </trkpt>
      <trkpt lat="45.85462" lon="1.22581">
        <ele>278</ele>
        <time>2024-11-12T08:27:22Z</time>
      </trkpt>
      <trkpt lat="45.85464" lon="1.2258">
        <ele>278</ele>
        <time>2024-11-12T08:27:23Z</time>
      </trkpt>
      <trkpt lat="45.85464" lon="1.2258">
        <ele>278</ele>
        <time>2024-11-12T08:27:24Z</time>
      </trkpt>
      <trkpt lat="45.85465" lon="1.2258">
        <ele>278</ele>
        <time>2024-11-12T08:27:25Z</time>
      </trkpt>
      <trkpt lat="45.85466" lon="1.22579">
        <ele>278</ele>
        <time>2024-11-12T08:27:26Z</time>
      </trkpt>
      <trkpt lat="45.85468" lon="1.22579">
        <ele>278</ele>
        <time>2024-11-12T08:27:27Z</time>
      </trkpt>
      <trkpt lat="45.85469" lon="1.22578">
        <ele>278</ele>
        <time>2024-11-12T08:27:28Z</time>
      </trkpt>
      <trkpt lat="45.85471" lon="1.22577">
        <ele>278.1</ele>
        <time>2024-11-12T08:27:29Z</time>
      </trkpt>
      <trkpt lat="45.85471" lon="1.22577">
        <ele>278.1</ele>
        <time>2024-11-12T08:27:30Z</time>
      </trkpt>
      <trkpt lat="45.85472" lon="1.22577">
        <ele>278.1</ele>
        <time>2024-11-12T08:27:31Z</time>
      </trkpt>
      <trkpt lat="45.85474" lon="1.22577">
        <ele>278.1</ele>
        <time>2024-11-12T08:27:32Z</time>
      </trkpt>
      <trkpt lat="45.85475" lon="1.22576">
        <ele>278.1</ele>
        <time>2024-11-12T08:27:33Z</time>
      </trkpt>
      <trkpt lat="45.85477" lon="1.22576">
        <ele>278.2</ele>
        <time>2024-11-12T08:27:34Z</time>
      </trkpt>
      <trkpt lat="45.85478" lon="1.22576">
        <ele>278.2</ele>
        <time>2024-11-12T08:27:35Z</time>
      </trkpt>
      <trkpt lat="45.85479" lon="1.22575">
        <ele>278.2</ele>
        <time>2024-11-12T08:27:36Z</time>
      </trkpt>
      <trkpt lat="45.8548" lon="1.22574">
        <ele>278.2</ele>
        <time>2024-11-12T08:27:37Z</time>
      </trkpt>
      <trkpt lat="45.85481" lon="1.22574">
        <ele>278.2</ele>
        <time>2024-11-12T08:27:38Z</time>
      </trkpt>
      <trkpt lat="45.85483" lon="1.22572">
        <ele>278.3</ele>
        <time>2024-11-12T08:27:39Z</time>
      </trkpt>
      <trkpt lat="45.85483" lon="1.22571">
        <ele>278.3</ele>
        <time>2024-11-12T08:27:40Z</time>
      </trkpt>
      <trkpt lat="45.85484" lon="1.2257">
        <ele>278.3</ele>
        <time>2024-11-12T08:27:41Z</time>
      </trkpt>
      <trkpt lat="45.85485" lon="1.22567">
        <ele>278.3</ele>
        <time>2024-11-12T08:27:42Z</time>
      </trkpt>
      <trkpt lat="45.85486" lon="1.22566">
        <ele>278.4</ele>
        <time>2024-11-12T08:27:43Z</time>
      </trkpt>
      <trkpt lat="45.85487" lon="1.22564">
        <ele>278.4</ele>
        <time>2024-11-12T08:27:44Z</time>
      </trkpt>
      <trkpt lat="45.85488" lon="1.22563">
        <ele>278.4</ele>
        <time>2024-11-12T08:27:45Z</time>
      </trkpt>
      <trkpt lat="45.85488" lon="1.22562">
        <ele>278.5</ele>
        <time>2024-11-12T08:27:46Z</time>
      </trkpt>
      <trkpt lat="45.85489" lon="1.2256">
        <ele>278.5</ele>
        <time>2024-11-12T08:27:47Z</time>
      </trkpt>
      <trkpt lat="45.8549" lon="1.22559">
        <ele>278.5</ele>
        <time>2024-11-12T08:27:48Z</time>
      </trkpt>
      <trkpt lat="45.85491" lon="1.22556">
        <ele>278.6</ele>
        <time>2024-11-12T08:27:49Z</time>
      </trkpt>
      <trkpt lat="45.85492" lon="1.22555">
        <ele>278.6</ele>
        <time>2024-11-12T08:27:50Z</time>
      </trkpt>
      <trkpt lat="45.85492" lon="1.22554">
        <ele>278.6</ele>
        <time>2024-11-12T08:27:51Z</time>
      </trkpt>
      <trkpt lat="45.85493" lon="1.22552">
        <ele>278.7</ele>
        <time>2024-11-12T08:27:52Z</time>
      </trkpt>
      <trkpt lat="45.85493" lon="1.22551">
        <ele>278.7</ele>
        <time>2024-11-12T08:27:53Z</time>
      </trkpt>
      <trkpt lat="45.85494" lon="1.2255">
        <ele>278.8</ele>
        <time>2024-11-12T08:27:54Z</time>
      </trkpt>
      <trkpt lat="45.85495" lon="1.22548">
        <ele>278.8</ele>
        <time>2024-11-12T08:27:55Z</time>
      </trkpt>
      <trkpt lat="45.85495" lon="1.22547">
        <ele>278.8</ele>
        <time>2024-11-12T08:27:56Z</time>
      </trkpt>
      <trkpt lat="45.85496" lon="1.22546">
        <ele>278.9</ele>
        <time>2024-11-12T08:27:57Z</time>
      </trkpt>
      <trkpt lat="45.85496" lon="1.22545">
        <ele>278.9</ele>
        <time>2024-11-12T08:27:58Z</time>
      </trkpt>
      <trkpt lat="45.85497" lon="1.22544">
        <ele>278.9</ele>
        <time>2024-11-12T08:27:59Z</time>
      </trkpt>
      <trkpt lat="45.85498" lon="1.22543">
        <ele>279</ele>
        <time>2024-11-12T08:28:00Z</time>
      </trkpt>
      <trkpt lat="45.85499" lon="1.22541">
        <ele>279</ele>
        <time>2024-11-12T08:28:01Z</time>
      </trkpt>
      <trkpt lat="45.855" lon="1.2254">
        <ele>279.1</ele>
        <time>2024-11-12T08:28:02Z</time>
      </trkpt>
      <trkpt lat="45.85501" lon="1.2254">
        <ele>279.1</ele>
        <time>2024-11-12T08:28:03Z</time>
      </trkpt>
      <trkpt lat="45.85503" lon="1.22539">
        <ele>279.1</ele>
        <time>2024-11-12T08:28:04Z</time>
      </trkpt>
      <trkpt lat="45.85504" lon="1.22538">
        <ele>279.2</ele>
        <time>2024-11-12T08:28:05Z</time>
      </trkpt>
      <trkpt lat="45.85505" lon="1.22538">
        <ele>279.2</ele>
        <time>2024-11-12T08:28:06Z</time>
      </trkpt>
      <trkpt lat="45.85507" lon="1.22538">
        <ele>279.2</ele>
        <time>2024-11-12T08:28:07Z</time>
      </trkpt>
      <trkpt lat="45.85508" lon="1.22537">
        <ele>279.3</ele>
        <time>2024-11-12T08:28:08Z</time>
      </trkpt>
      <trkpt lat="45.85508" lon="1.22537">
        <ele>279.3</ele>
        <time>2024-11-12T08:28:09Z</time>
      </trkpt>
      <trkpt lat="45.8551" lon="1.22537">
        <ele>279.3</ele>
        <time>2024-11-12T08:28:10Z</time>
      </trkpt>
      <trkpt lat="45.85511" lon="1.22537">
        <ele>279.4</ele>
        <time>2024-11-12T08:28:11Z</time>
      </trkpt>
      <trkpt lat="45.85512" lon="1.22537">
        <ele>279.4</ele>
        <time>2024-11-12T08:28:12Z</time>
      </trkpt>
      <trkpt lat="45.85513" lon="1.22537">
        <ele>279.4</ele>
        <time>2024-11-12T08:28:13Z</time>
      </trkpt>
      <trkpt lat="45.85514" lon="1.22537">
        <ele>279.4</ele>
        <time>2024-11-12T08:28:14Z</time>
      </trkpt>
      <trkpt lat="45.85515" lon="1.22538">
        <ele>279.5</ele>
        <time>2024-11-12T08:28:15Z</time>
      </trkpt>
      <trkpt lat="45.85518" lon="1.22538">
        <ele>279.5</ele>
        <time>2024-11-12T08:28:16Z</time>
      </trkpt>
      <trkpt lat="45.85518" lon="1.22539">
        <ele>279.5</ele>
        <time>2024-11-12T08:28:17Z</time>
      </trkpt>
      <trkpt lat="45.85519" lon="1.22539">
        <ele>279.5</ele>
        <time>2024-11-12T08:28:18Z</time>
      </trkpt>
      <trkpt lat="45.85521" lon="1.22539">
        <ele>279.6</ele>
        <time>2024-11-12T08:28:19Z</time>
      </trkpt>
      <trkpt lat="45.85522" lon="1.22539">
        <ele>279.6</ele>
        <time>2024-11-12T08:28:20Z</time>
      </trkpt>
      <trkpt lat="45.85523" lon="1.22539">
        <ele>279.6</ele>
        <time>2024-11-12T08:28:21Z</time>
      </trkpt>
      <trkpt lat="45.85524" lon="1.22539">
        <ele>279.6</ele>
        <time>2024-11-12T08:28:22Z</time>
      </trkpt>
      <trkpt lat="45.85525" lon="1.22538">
        <ele>279.6</ele>
        <time>2024-11-12T08:28:23Z</time>
      </trkpt>
      <trkpt lat="45.85526" lon="1.22538">
        <ele>279.6</ele>
        <time>2024-11-12T08:28:24Z</time>
      </trkpt>
      <trkpt lat="45.85526" lon="1.22537">
        <ele>279.7</ele>
        <time>2024-11-12T08:28:25Z</time>
      </trkpt>
      <trkpt lat="45.85527" lon="1.22536">
        <ele>279.7</ele>
        <time>2024-11-12T08:28:26Z</time>
      </trkpt>
      <trkpt lat="45.85528" lon="1.22535">
        <ele>279.7</ele>
        <time>2024-11-12T08:28:27Z</time>
      </trkpt>
      <trkpt lat="45.85529" lon="1.22534">
        <ele>279.7</ele>
        <time>2024-11-12T08:28:28Z</time>
      </trkpt>
      <trkpt lat="45.8553" lon="1.22533">
        <ele>279.7</ele>
        <time>2024-11-12T08:28:29Z</time>
      </trkpt>
      <trkpt lat="45.85531" lon="1.22532">
        <ele>279.7</ele>
        <time>2024-11-12T08:28:30Z</time>
      </trkpt>
      <trkpt lat="45.85532" lon="1.22531">
        <ele>279.8</ele>
        <time>2024-11-12T08:28:31Z</time>
      </trkpt>
      <trkpt lat="45.85532" lon="1.22531">
        <ele>279.8</ele>
        <time>2024-11-12T08:28:32Z</time>
      </trkpt>
      <trkpt lat="45.85533" lon="1.2253">
        <ele>279.8</ele>
        <time>2024-11-12T08:28:33Z</time>
      </trkpt>
      <trkpt lat="45.85534" lon="1.22529">
        <ele>279.8</ele>
        <time>2024-11-12T08:28:34Z</time>
      </trkpt>
      <trkpt lat="45.85535" lon="1.22528">
        <ele>279.8</ele>
        <time>2024-11-12T08:28:35Z</time>
      </trkpt>
      <trkpt lat="45.85537" lon="1.22528">
        <ele>279.8</ele>
        <time>2024-11-12T08:28:36Z</time>
      </trkpt>
      <trkpt lat="45.85537" lon="1.22527">
        <ele>279.8</ele>
        <time>2024-11-12T08:28:37Z</time>
      </trkpt>
      <trkpt lat="45.85539" lon="1.22526">
        <ele>279.8</ele>
        <time>2024-11-12T08:28:38Z</time>
      </trkpt>
      <trkpt lat="45.8554" lon="1.22525">
        <ele>279.8</ele>
        <time>2024-11-12T08:28:39Z</time>
      </trkpt>
      <trkpt lat="45.85541" lon="1.22525">
        <ele>279.9</ele>
        <time>2024-11-12T08:28:40Z</time>
      </trkpt>
      <trkpt lat="45.85542" lon="1.22524">
        <ele>279.9</ele>
        <time>2024-11-12T08:28:41Z</time>
      </trkpt>
      <trkpt lat="45.85543" lon="1.22524">
        <ele>279.9</ele>
        <time>2024-11-12T08:28:42Z</time>
      </trkpt>
      <trkpt lat="45.85544" lon="1.22523">
        <ele>279.9</ele>
        <time>2024-11-12T08:28:43Z</time>
      </trkpt>
      <trkpt lat="45.85545" lon="1.22523">
        <ele>279.9</ele>
        <time>2024-11-12T08:28:44Z</time>
      </trkpt>
      <trkpt lat="45.85546" lon="1.22523">
        <ele>279.9</ele>
        <time>2024-11-12T08:28:45Z</time>
      </trkpt>
      <trkpt lat="45.85548" lon="1.22523">
        <ele>279.9</ele>
        <time>2024-11-12T08:28:46Z</time>
      </trkpt>
      <trkpt lat="45.85549" lon="1.22524">
        <ele>279.9</ele>
        <time>2024-11-12T08:28:47Z</time>
      </trkpt>
      <trkpt lat="45.8555" lon="1.22524">
        <ele>279.9</ele>
        <time>2024-11-12T08:28:48Z</time>
      </trkpt>
      <trkpt lat="45.85551" lon="1.22526">
        <ele>279.9</ele>
        <time>2024-11-12T08:28:49Z</time>
      </trkpt>
      <trkpt lat="45.85552" lon="1.22527">
        <ele>280</ele>
        <time>2024-11-12T08:28:50Z</time>
      </trkpt>
      <trkpt lat="45.85553" lon="1.22528">
        <ele>280</ele>
        <time>2024-11-12T08:28:51Z</time>
      </trkpt>
      <trkpt lat="45.85554" lon="1.22529">
        <ele>280</ele>
        <time>2024-11-12T08:28:52Z</time>
      </trkpt>
      <trkpt lat="45.85554" lon="1.2253">
        <ele>280</ele>
        <time>2024-11-12T08:28:53Z</time>
      </trkpt>
      <trkpt lat="45.85555" lon="1.22532">
        <ele>280</ele>
        <time>2024-11-12T08:28:54Z</time>
      </trkpt>
      <trkpt lat="45.85556" lon="1.22533">
        <ele>280</ele>
        <time>2024-11-12T08:28:55Z</time>
      </trkpt>
      <trkpt lat="45.85556" lon="1.22535">
        <ele>280</ele>
        <time>2024-11-12T08:28:56Z</time>
      </trkpt>
      <trkpt lat="45.85557" lon="1.22536">
        <ele>280</ele>
        <time>2024-11-12T08:28:57Z</time>
      </trkpt>
      <trkpt lat="45.85558" lon="1.22537">
        <ele>280</ele>
        <time>2024-11-12T08:28:58Z</time>
      </trkpt>
      <trkpt lat="45.85559" lon="1.22538">
        <ele>280</ele>
        <time>2024-11-12T08:28:59Z</time>
      </trkpt>
      <trkpt lat="45.8556" lon="1.22539">
        <ele>280</ele>
        <time>2024-11-12T08:29:00Z</time>
      </trkpt>
      <trkpt lat="45.85561" lon="1.22538">
        <ele>280.1</ele>
        <time>2024-11-12T08:29:01Z</time>
      </trkpt>
      <trkpt lat="45.85562" lon="1.22538">
        <ele>280.1</ele>
        <time>2024-11-12T08:29:02Z</time>
      </trkpt>
      <trkpt lat="45.85564" lon="1.22536">
        <ele>280.1</ele>
        <time>2024-11-12T08:29:03Z</time>
      </trkpt>
      <trkpt lat="45.85565" lon="1.22536">
        <ele>280.1</ele>
        <time>2024-11-12T08:29:04Z</time>
      </trkpt>
      <trkpt lat="45.85566" lon="1.22535">
        <ele>280.1</ele>
        <time>2024-11-12T08:29:05Z</time>
      </trkpt>
      <trkpt lat="45.85568" lon="1.22534">
        <ele>280.1</ele>
        <time>2024-11-12T08:29:06Z</time>
      </trkpt>
      <trkpt lat="45.85568" lon="1.22534">
        <ele>280.1</ele>
        <time>2024-11-12T08:29:07Z</time>
      </trkpt>
      <trkpt lat="45.85569" lon="1.22533">
        <ele>280.1</ele>
        <time>2024-11-12T08:29:08Z</time>
      </trkpt>
      <trkpt lat="45.8557" lon="1.22533">
        <ele>280.1</ele>
        <time>2024-11-12T08:29:09Z</time>
      </trkpt>
      <trkpt lat="45.85571" lon="1.22532">
        <ele>280.1</ele>
        <time>2024-11-12T08:29:10Z</time>
      </trkpt>
      <trkpt lat="45.85572" lon="1.22531">
        <ele>280.1</ele>
        <time>2024-11-12T08:29:11Z</time>
      </trkpt>
      <trkpt lat="45.85573" lon="1.22531">
        <ele>280.1</ele>
        <time>2024-11-12T08:29:12Z</time>
      </trkpt>
      <trkpt lat="45.85575" lon="1.2253">
        <ele>280.1</ele>
        <time>2024-11-12T08:29:13Z</time>
      </trkpt>
      <trkpt lat="45.85576" lon="1.2253">
        <ele>280.1</ele>
        <time>2024-11-12T08:29:14Z</time>
      </trkpt>
      <trkpt lat="45.85577" lon="1.22529">
        <ele>280.2</ele>
        <time>2024-11-12T08:29:15Z</time>
      </trkpt>
      <trkpt lat="45.85578" lon="1.22529">
        <ele>280.2</ele>
        <time>2024-11-12T08:29:16Z</time>
      </trkpt>
      <trkpt lat="45.85579" lon="1.22528">
        <ele>280.2</ele>
        <time>2024-11-12T08:29:17Z</time>
      </trkpt>
      <trkpt lat="45.85581" lon="1.22527">
        <ele>280.2</ele>
        <time>2024-11-12T08:29:18Z</time>
      </trkpt>
      <trkpt lat="45.85582" lon="1.22525">
        <ele>280.2</ele>
        <time>2024-11-12T08:29:19Z</time>
      </trkpt>
      <trkpt lat="45.85583" lon="1.22524">
        <ele>280.2</ele>
        <time>2024-11-12T08:29:20Z</time>
      </trkpt>
      <trkpt lat="45.85583" lon="1.22524">
        <ele>280.2</ele>
        <time>2024-11-12T08:29:21Z</time>
      </trkpt>
      <trkpt lat="45.85585" lon="1.22522">
        <ele>280.2</ele>
        <time>2024-11-12T08:29:22Z</time>
      </trkpt>
      <trkpt lat="45.85586" lon="1.22521">
        <ele>280.2</ele>
        <time>2024-11-12T08:29:23Z</time>
      </trkpt>
      <trkpt lat="45.85587" lon="1.22519">
        <ele>280.3</ele>
        <time>2024-11-12T08:29:24Z</time>
      </trkpt>
      <trkpt lat="45.85588" lon="1.22519">
        <ele>280.3</ele>
        <time>2024-11-12T08:29:25Z</time>
      </trkpt>
      <trkpt lat="45.85589" lon="1.22518">
        <ele>280.3</ele>
        <time>2024-11-12T08:29:26Z</time>
      </trkpt>
      <trkpt lat="45.85591" lon="1.22518">
        <ele>280.3</ele>
        <time>2024-11-12T08:29:27Z</time>
      </trkpt>
      <trkpt lat="45.85592" lon="1.22519">
        <ele>280.3</ele>
        <time>2024-11-12T08:29:28Z</time>
      </trkpt>
      <trkpt lat="45.85593" lon="1.22519">
        <ele>280.3</ele>
        <time>2024-11-12T08:29:29Z</time>
      </trkpt>
      <trkpt lat="45.85595" lon="1.22521">
        <ele>280.3</ele>
        <time>2024-11-12T08:29:30Z</time>
      </trkpt>
      <trkpt lat="45.85596" lon="1.22522">
        <ele>280.3</ele>
        <time>2024-11-12T08:29:31Z</time>
      </trkpt>
      <trkpt lat="45.85596" lon="1.22522">
        <ele>280.3</ele>
        <time>2024-11-12T08:29:32Z</time>
      </trkpt>
      <trkpt lat="45.85598" lon="1.22523">
        <ele>280.4</ele>
        <time>2024-11-12T08:29:33Z</time>
      </trkpt>
      <trkpt lat="45.85599" lon="1.22524">
        <ele>280.4</ele>
        <time>2024-11-12T08:29:34Z</time>
      </trkpt>
      <trkpt lat="45.856" lon="1.22525">
        <ele>280.4</ele>
        <time>2024-11-12T08:29:35Z</time>
      </trkpt>
      <trkpt lat="45.85601" lon="1.22526">
        <ele>280.4</ele>
        <time>2024-11-12T08:29:36Z</time>
      </trkpt>
      <trkpt lat="45.85602" lon="1.22526">
        <ele>280.4</ele>
        <time>2024-11-12T08:29:37Z</time>
      </trkpt>
      <trkpt lat="45.85603" lon="1.22526">
        <ele>280.4</ele>
        <time>2024-11-12T08:29:38Z</time>
      </trkpt>
      <trkpt lat="45.85604" lon="1.22526">
        <ele>280.4</ele>
        <time>2024-11-12T08:29:39Z</time>
      </trkpt>
      <trkpt lat="45.85605" lon="1.22526">
        <ele>280.4</ele>
        <time>2024-11-12T08:29:40Z</time>
      </trkpt>
      <trkpt lat="45.85606" lon="1.22526">
        <ele>280.4</ele>
        <time>2024-11-12T08:29:41Z</time>
      </trkpt>
      <trkpt lat="45.85607" lon="1.22525">
        <ele>280.4</ele>
        <time>2024-11-12T08:29:42Z</time>
      </trkpt>
      <trkpt lat="45.85609" lon="1.22525">
        <ele>280.4</ele>
        <time>2024-11-12T08:29:43Z</time>
      </trkpt>
      <trkpt lat="45.8561" lon="1.22524">
        <ele>280.5</ele>
        <time>2024-11-12T08:29:44Z</time>
      </trkpt>
      <trkpt lat="45.85612" lon="1.22523">
        <ele>280.5</ele>
        <time>2024-11-12T08:29:45Z</time>
      </trkpt>
      <trkpt lat="45.85613" lon="1.22522">
        <ele>280.5</ele>
        <time>2024-11-12T08:29:46Z</time>
      </trkpt>
      <trkpt lat="45.85613" lon="1.22522">
        <ele>280.5</ele>
        <time>2024-11-12T08:29:47Z</time>
      </trkpt>
      <trkpt lat="45.85615" lon="1.2252">
        <ele>280.5</ele>
        <time>2024-11-12T08:29:48Z</time>
      </trkpt>
      <trkpt lat="45.85616" lon="1.2252">
        <ele>280.5</ele>
        <time>2024-11-12T08:29:49Z</time>
      </trkpt>
      <trkpt lat="45.85617" lon="1.22518">
        <ele>280.5</ele>
        <time>2024-11-12T08:29:50Z</time>
      </trkpt>
      <trkpt lat="45.85618" lon="1.22517">
        <ele>280.5</ele>
        <time>2024-11-12T08:29:51Z</time>
      </trkpt>
      <trkpt lat="45.85619" lon="1.22517">
        <ele>280.5</ele>
        <time>2024-11-12T08:29:52Z</time>
      </trkpt>
      <trkpt lat="45.85621" lon="1.22516">
        <ele>280.5</ele>
        <time>2024-11-12T08:29:53Z</time>
      </trkpt>
      <trkpt lat="45.85623" lon="1.22516">
        <ele>280.5</ele>
        <time>2024-11-12T08:29:54Z</time>
      </trkpt>
      <trkpt lat="45.85624" lon="1.22516">
        <ele>280.5</ele>
        <time>2024-11-12T08:29:55Z</time>
      </trkpt>
      <trkpt lat="45.85625" lon="1.22517">
        <ele>280.5</ele>
        <time>2024-11-12T08:29:56Z</time>
      </trkpt>
      <trkpt lat="45.85626" lon="1.22517">
        <ele>280.6</ele>
        <time>2024-11-12T08:29:57Z</time>
      </trkpt>
      <trkpt lat="45.85627" lon="1.22517">
        <ele>280.6</ele>
        <time>2024-11-12T08:29:58Z</time>
      </trkpt>
      <trkpt lat="45.85628" lon="1.22517">
        <ele>280.6</ele>
        <time>2024-11-12T08:29:59Z</time>
      </trkpt>
      <trkpt lat="45.85629" lon="1.22518">
        <ele>280.6</ele>
        <time>2024-11-12T08:30:00Z</time>
      </trkpt>
      <trkpt lat="45.85631" lon="1.22518">
        <ele>280.6</ele>
        <time>2024-11-12T08:30:01Z</time>
      </trkpt>
      <trkpt lat="45.85633" lon="1.22518">
        <ele>280.6</ele>
        <time>2024-11-12T08:30:02Z</time>
      </trkpt>
      <trkpt lat="45.85633" lon="1.22518">
        <ele>280.6</ele>
        <time>2024-11-12T08:30:03Z</time>
      </trkpt>
      <trkpt lat="45.85634" lon="1.22518">
        <ele>280.6</ele>
        <time>2024-11-12T08:30:04Z</time>
      </trkpt>
      <trkpt lat="45.85636" lon="1.22518">
        <ele>280.6</ele>
        <time>2024-11-12T08:30:05Z</time>
      </trkpt>
      <trkpt lat="45.85637" lon="1.22517">
        <ele>280.7</ele>
        <time>2024-11-12T08:30:06Z</time>
      </trkpt>
      <trkpt lat="45.85638" lon="1.22517">
        <ele>280.7</ele>
        <time>2024-11-12T08:30:07Z</time>
      </trkpt>
      <trkpt lat="45.8564" lon="1.22517">
        <ele>280.7</ele>
        <time>2024-11-12T08:30:08Z</time>
      </trkpt>
      <trkpt lat="45.85641" lon="1.22517">
        <ele>280.7</ele>
        <time>2024-11-12T08:30:09Z</time>
      </trkpt>
      <trkpt lat="45.85642" lon="1.22517">
        <ele>280.7</ele>
        <time>2024-11-12T08:30:10Z</time>
      </trkpt>
      <trkpt lat="45.85644" lon="1.22516">
        <ele>280.7</ele>
        <time>2024-11-12T08:30:11Z</time>
      </trkpt>
      <trkpt lat="45.85644" lon="1.22516">
        <ele>280.8</ele>
        <time>2024-11-12T08:30:12Z</time>
      </trkpt>
      <trkpt lat="45.85645" lon="1.22515">
        <ele>280.8</ele>
        <time>2024-11-12T08:30:13Z</time>
      </trkpt>
      <trkpt lat="45.85647" lon="1.22514">
        <ele>280.8</ele>
        <time>2024-11-12T08:30:14Z</time>
      </trkpt>
      <trkpt lat="45.85648" lon="1.22514">
        <ele>280.8</ele>
        <time>2024-11-12T08:30:15Z</time>
      </trkpt>
      <trkpt lat="45.85649" lon="1.22514">
        <ele>280.8</ele>
        <time>2024-11-12T08:30:16Z</time>
      </trkpt>
      <trkpt lat="45.8565" lon="1.22514">
        <ele>280.9</ele>
        <time>2024-11-12T08:30:17Z</time>
      </trkpt>
      <trkpt lat="45.85651" lon="1.22514">
        <ele>280.9</ele>
        <time>2024-11-12T08:30:18Z</time>
      </trkpt>
      <trkpt lat="45.85652" lon="1.22513">
        <ele>280.9</ele>
        <time>2024-11-12T08:30:19Z</time>
      </trkpt>
      <trkpt lat="45.85653" lon="1.22513">
        <ele>280.9</ele>
        <time>2024-11-12T08:30:20Z</time>
      </trkpt>
      <trkpt lat="45.85654" lon="1.22513">
        <ele>280.9</ele>
        <time>2024-11-12T08:30:21Z</time>
      </trkpt>
      <trkpt lat="45.85655" lon="1.22513">
        <ele>281</ele>
        <time>2024-11-12T08:30:22Z</time>
      </trkpt>
      <trkpt lat="45.85655" lon="1.22512">
        <ele>281</ele>
        <time>2024-11-12T08:30:23Z</time>
      </trkpt>
      <trkpt lat="45.85655" lon="1.22512">
        <ele>281</ele>
        <time>2024-11-12T08:30:24Z</time>
      </trkpt>
      <trkpt lat="45.85655" lon="1.22512">
        <ele>281</ele>
        <time>2024-11-12T08:30:25Z</time>
      </trkpt>
      <trkpt lat="45.85655" lon="1.22513">
        <ele>281</ele>
        <time>2024-11-12T08:30:26Z</time>
      </trkpt>
      <trkpt lat="45.85656" lon="1.22513">
        <ele>281</ele>
        <time>2024-11-12T08:30:27Z</time>
      </trkpt>
      <trkpt lat="45.85657" lon="1.22513">
        <ele>281</ele>
        <time>2024-11-12T08:30:28Z</time>
      </trkpt>
      <trkpt lat="45.85657" lon="1.22514">
        <ele>281.1</ele>
        <time>2024-11-12T08:30:29Z</time>
      </trkpt>
      <trkpt lat="45.85658" lon="1.22515">
        <ele>281.1</ele>
        <time>2024-11-12T08:30:30Z</time>
      </trkpt>
      <trkpt lat="45.85659" lon="1.22515">
        <ele>281.1</ele>
        <time>2024-11-12T08:30:31Z</time>
      </trkpt>
      <trkpt lat="45.8566" lon="1.22517">
        <ele>281.1</ele>
        <time>2024-11-12T08:30:32Z</time>
      </trkpt>
      <trkpt lat="45.85661" lon="1.22518">
        <ele>281.2</ele>
        <time>2024-11-12T08:30:33Z</time>
      </trkpt>
      <trkpt lat="45.85662" lon="1.22519">
        <ele>281.2</ele>
        <time>2024-11-12T08:30:34Z</time>
      </trkpt>
      <trkpt lat="45.85663" lon="1.2252">
        <ele>281.2</ele>
        <time>2024-11-12T08:30:35Z</time>
      </trkpt>
      <trkpt lat="45.85664" lon="1.22521">
        <ele>281.3</ele>
        <time>2024-11-12T08:30:36Z</time>
      </trkpt>
      <trkpt lat="45.85666" lon="1.22522">
        <ele>281.3</ele>
        <time>2024-11-12T08:30:37Z</time>
      </trkpt>
      <trkpt lat="45.85667" lon="1.22523">
        <ele>281.4</ele>
        <time>2024-11-12T08:30:38Z</time>
      </trkpt>
      <trkpt lat="45.85669" lon="1.22524">
        <ele>281.4</ele>
        <time>2024-11-12T08:30:39Z</time>
      </trkpt>
      <trkpt lat="45.8567" lon="1.22525">
        <ele>281.5</ele>
        <time>2024-11-12T08:30:40Z</time>
      </trkpt>
      <trkpt lat="45.85671" lon="1.22526">
        <ele>281.5</ele>
        <time>2024-11-12T08:30:41Z</time>
      </trkpt>
      <trkpt lat="45.85673" lon="1.22527">
        <ele>281.6</ele>
        <time>2024-11-12T08:30:42Z</time>
      </trkpt>
      <trkpt lat="45.85674" lon="1.22529">
        <ele>281.6</ele>
        <time>2024-11-12T08:30:43Z</time>
      </trkpt>
      <trkpt lat="45.85675" lon="1.2253">
        <ele>281.7</ele>
        <time>2024-11-12T08:30:44Z</time>
      </trkpt>
      <trkpt lat="45.85676" lon="1.22531">
        <ele>281.8</ele>
        <time>2024-11-12T08:30:45Z</time>
      </trkpt>
      <trkpt lat="45.85677" lon="1.22532">
        <ele>281.8</ele>
        <time>2024-11-12T08:30:46Z</time>
      </trkpt>
      <trkpt lat="45.85678" lon="1.22534">
        <ele>281.9</ele>
        <time>2024-11-12T08:30:47Z</time>
      </trkpt>
      <trkpt lat="45.85679" lon="1.22536">
        <ele>282</ele>
        <time>2024-11-12T08:30:48Z</time>
      </trkpt>
      <trkpt lat="45.8568" lon="1.22539">
        <ele>282.1</ele>
        <time>2024-11-12T08:30:49Z</time>
      </trkpt>
      <trkpt lat="45.85681" lon="1.2254">
        <ele>282.1</ele>
        <time>2024-11-12T08:30:50Z</time>
      </trkpt>
      <trkpt lat="45.85681" lon="1.22541">
        <ele>282.2</ele>
        <time>2024-11-12T08:30:51Z</time>
      </trkpt>
      <trkpt lat="45.85681" lon="1.22543">
        <ele>282.2</ele>
        <time>2024-11-12T08:30:52Z</time>
      </trkpt>
      <trkpt lat="45.85682" lon="1.22545">
        <ele>282.3</ele>
        <time>2024-11-12T08:30:53Z</time>
      </trkpt>
      <trkpt lat="45.85682" lon="1.22547">
        <ele>282.4</ele>
        <time>2024-11-12T08:30:54Z</time>
      </trkpt>
      <trkpt lat="45.85682" lon="1.22548">
        <ele>282.4</ele>
        <time>2024-11-12T08:30:55Z</time>
      </trkpt>
      <trkpt lat="45.85682" lon="1.2255">
        <ele>282.5</ele>
        <time>2024-11-12T08:30:56Z</time>
      </trkpt>
      <trkpt lat="45.85682" lon="1.22552">
        <ele>282.6</ele>
        <time>2024-11-12T08:30:57Z</time>
      </trkpt>
      <trkpt lat="45.85682" lon="1.22554">
        <ele>282.7</ele>
        <time>2024-11-12T08:30:58Z</time>
      </trkpt>
      <trkpt lat="45.85682" lon="1.22555">
        <ele>282.7</ele>
        <time>2024-11-12T08:30:59Z</time>
      </trkpt>
      <trkpt lat="45.85682" lon="1.22557">
        <ele>282.8</ele>
        <time>2024-11-12T08:31:00Z</time>
      </trkpt>
      <trkpt lat="45.85682" lon="1.22558">
        <ele>282.8</ele>
        <time>2024-11-12T08:31:01Z</time>
      </trkpt>
      <trkpt lat="45.85682" lon="1.2256">
        <ele>282.9</ele>
        <time>2024-11-12T08:31:02Z</time>
      </trkpt>
      <trkpt lat="45.85683" lon="1.22562">
        <ele>283</ele>
        <time>2024-11-12T08:31:03Z</time>
      </trkpt>
      <trkpt lat="45.85683" lon="1.22563">
        <ele>283</ele>
        <time>2024-11-12T08:31:04Z</time>
      </trkpt>
      <trkpt lat="45.85683" lon="1.22565">
        <ele>283.1</ele>
        <time>2024-11-12T08:31:05Z</time>
      </trkpt>
      <trkpt lat="45.85683" lon="1.22568">
        <ele>283.2</ele>
        <time>2024-11-12T08:31:06Z</time>
      </trkpt>
      <trkpt lat="45.85682" lon="1.22569">
        <ele>283.2</ele>
        <time>2024-11-12T08:31:07Z</time>
      </trkpt>
      <trkpt lat="45.85682" lon="1.2257">
        <ele>283.3</ele>
        <time>2024-11-12T08:31:08Z</time>
      </trkpt>
      <trkpt lat="45.85682" lon="1.22571">
        <ele>283.3</ele>
        <time>2024-11-12T08:31:09Z</time>
      </trkpt>
      <trkpt lat="45.85682" lon="1.22573">
        <ele>283.3</ele>
        <time>2024-11-12T08:31:10Z</time>
      </trkpt>
      <trkpt lat="45.85682" lon="1.22574">
        <ele>283.4</ele>
        <time>2024-11-12T08:31:11Z</time>
      </trkpt>
      <trkpt lat="45.85682" lon="1.22576">
        <ele>283.4</ele>
        <time>2024-11-12T08:31:12Z</time>
      </trkpt>
      <trkpt lat="45.85682" lon="1.22578">
        <ele>283.5</ele>
        <time>2024-11-12T08:31:13Z</time>
      </trkpt>
      <trkpt lat="45.85682" lon="1.22579">
        <ele>283.6</ele>
        <time>2024-11-12T08:31:14Z</time>
      </trkpt>
      <trkpt lat="45.85682" lon="1.2258">
        <ele>283.6</ele>
        <time>2024-11-12T08:31:15Z</time>
      </trkpt>
      <trkpt lat="45.85682" lon="1.22583">
        <ele>283.7</ele>
        <time>2024-11-12T08:31:16Z</time>
      </trkpt>
      <trkpt lat="45.85682" lon="1.22584">
        <ele>283.7</ele>
        <time>2024-11-12T08:31:17Z</time>
      </trkpt>
      <trkpt lat="45.85681" lon="1.22585">
        <ele>283.8</ele>
        <time>2024-11-12T08:31:18Z</time>
      </trkpt>
      <trkpt lat="45.85681" lon="1.22586">
        <ele>283.8</ele>
        <time>2024-11-12T08:31:19Z</time>
      </trkpt>
      <trkpt lat="45.85681" lon="1.22588">
        <ele>283.8</ele>
        <time>2024-11-12T08:31:20Z</time>
      </trkpt>
      <trkpt lat="45.8568" lon="1.2259">
        <ele>283.9</ele>
        <time>2024-11-12T08:31:21Z</time>
      </trkpt>
      <trkpt lat="45.8568" lon="1.22591">
        <ele>284</ele>
        <time>2024-11-12T08:31:22Z</time>
      </trkpt>
      <trkpt lat="45.85679" lon="1.22594">
        <ele>284</ele>
        <time>2024-11-12T08:31:23Z</time>
      </trkpt>
      <trkpt lat="45.85679" lon="1.22595">
        <ele>284.1</ele>
        <time>2024-11-12T08:31:24Z</time>
      </trkpt>
      <trkpt lat="45.85678" lon="1.22596">
        <ele>284.1</ele>
        <time>2024-11-12T08:31:25Z</time>
      </trkpt>
      <trkpt lat="45.85678" lon="1.22598">
        <ele>284.1</ele>
        <time>2024-11-12T08:31:26Z</time>
      </trkpt>
      <trkpt lat="45.85678" lon="1.226">
        <ele>284.2</ele>
        <time>2024-11-12T08:31:27Z</time>
      </trkpt>
      <trkpt lat="45.85677" lon="1.22602">
        <ele>284.3</ele>
        <time>2024-11-12T08:31:28Z</time>
      </trkpt>
      <trkpt lat="45.85677" lon="1.22603">
        <ele>284.3</ele>
        <time>2024-11-12T08:31:29Z</time>
      </trkpt>
      <trkpt lat="45.85677" lon="1.22605">
        <ele>284.3</ele>
        <time>2024-11-12T08:31:30Z</time>
      </trkpt>
      <trkpt lat="45.85676" lon="1.22607">
        <ele>284.3</ele>
        <time>2024-11-12T08:31:31Z</time>
      </trkpt>
      <trkpt lat="45.85676" lon="1.22609">
        <ele>284.4</ele>
        <time>2024-11-12T08:31:32Z</time>
      </trkpt>
      <trkpt lat="45.85676" lon="1.22611">
        <ele>284.4</ele>
        <time>2024-11-12T08:31:33Z</time>
      </trkpt>
      <trkpt lat="45.85675" lon="1.22613">
        <ele>284.4</ele>
        <time>2024-11-12T08:31:34Z</time>
      </trkpt>
      <trkpt lat="45.85675" lon="1.22614">
        <ele>284.4</ele>
        <time>2024-11-12T08:31:35Z</time>
      </trkpt>
      <trkpt lat="45.85674" lon="1.22616">
        <ele>284.5</ele>
        <time>2024-11-12T08:31:36Z</time>
      </trkpt>
      <trkpt lat="45.85674" lon="1.22617">
        <ele>284.5</ele>
        <time>2024-11-12T08:31:37Z</time>
      </trkpt>
      <trkpt lat="45.85673" lon="1.2262">
        <ele>284.5</ele>
        <time>2024-11-12T08:31:38Z</time>
      </trkpt>
      <trkpt lat="45.85672" lon="1.22621">
        <ele>284.5</ele>
        <time>2024-11-12T08:31:39Z</time>
      </trkpt>
      <trkpt lat="45.85671" lon="1.22622">
        <ele>284.5</ele>
        <time>2024-11-12T08:31:40Z</time>
      </trkpt>
      <trkpt lat="45.85671" lon="1.22623">
        <ele>284.6</ele>
        <time>2024-11-12T08:31:41Z</time>
      </trkpt>
      <trkpt lat="45.8567" lon="1.22624">
        <ele>284.6</ele>
        <time>2024-11-12T08:31:42Z</time>
      </trkpt>
      <trkpt lat="45.8567" lon="1.22626">
        <ele>284.6</ele>
        <time>2024-11-12T08:31:43Z</time>
      </trkpt>
      <trkpt lat="45.85669" lon="1.22627">
        <ele>284.6</ele>
        <time>2024-11-12T08:31:44Z</time>
      </trkpt>
      <trkpt lat="45.85669" lon="1.22629">
        <ele>284.6</ele>
        <time>2024-11-12T08:31:45Z</time>
      </trkpt>
      <trkpt lat="45.85669" lon="1.22631">
        <ele>284.7</ele>
        <time>2024-11-12T08:31:46Z</time>
      </trkpt>
      <trkpt lat="45.85669" lon="1.22632">
        <ele>284.7</ele>
        <time>2024-11-12T08:31:47Z</time>
      </trkpt>
      <trkpt lat="45.85668" lon="1.22635">
        <ele>284.7</ele>
        <time>2024-11-12T08:31:48Z</time>
      </trkpt>
      <trkpt lat="45.85668" lon="1.22636">
        <ele>284.7</ele>
        <time>2024-11-12T08:31:49Z</time>
      </trkpt>
      <trkpt lat="45.85668" lon="1.22638">
        <ele>284.8</ele>
        <time>2024-11-12T08:31:50Z</time>
      </trkpt>
      <trkpt lat="45.85668" lon="1.2264">
        <ele>284.8</ele>
        <time>2024-11-12T08:31:51Z</time>
      </trkpt>
      <trkpt lat="45.85669" lon="1.22642">
        <ele>284.8</ele>
        <time>2024-11-12T08:31:52Z</time>
      </trkpt>
      <trkpt lat="45.8567" lon="1.22644">
        <ele>284.9</ele>
        <time>2024-11-12T08:31:53Z</time>
      </trkpt>
      <trkpt lat="45.85671" lon="1.22646">
        <ele>284.9</ele>
        <time>2024-11-12T08:31:54Z</time>
      </trkpt>
      <trkpt lat="45.85672" lon="1.22646">
        <ele>284.9</ele>
        <time>2024-11-12T08:31:55Z</time>
      </trkpt>
      <trkpt lat="45.85673" lon="1.22647">
        <ele>285</ele>
        <time>2024-11-12T08:31:56Z</time>
      </trkpt>
      <trkpt lat="45.85674" lon="1.22648">
        <ele>285</ele>
        <time>2024-11-12T08:31:57Z</time>
      </trkpt>
      <trkpt lat="45.85674" lon="1.22651">
        <ele>285</ele>
        <time>2024-11-12T08:31:58Z</time>
      </trkpt>
      <trkpt lat="45.85675" lon="1.22652">
        <ele>285.1</ele>
        <time>2024-11-12T08:31:59Z</time>
      </trkpt>
      <trkpt lat="45.85675" lon="1.22654">
        <ele>285.1</ele>
        <time>2024-11-12T08:32:00Z</time>
      </trkpt>
      <trkpt lat="45.85676" lon="1.22655">
        <ele>285.1</ele>
        <time>2024-11-12T08:32:01Z</time>
      </trkpt>
      <trkpt lat="45.85677" lon="1.22657">
        <ele>285.2</ele>
        <time>2024-11-12T08:32:02Z</time>
      </trkpt>
      <trkpt lat="45.85678" lon="1.22659">
        <ele>285.2</ele>
        <time>2024-11-12T08:32:03Z</time>
      </trkpt>
      <trkpt lat="45.85678" lon="1.2266">
        <ele>285.2</ele>
        <time>2024-11-12T08:32:04Z</time>
      </trkpt>
      <trkpt lat="45.85679" lon="1.22661">
        <ele>285.3</ele>
        <time>2024-11-12T08:32:05Z</time>
      </trkpt>
      <trkpt lat="45.8568" lon="1.22662">
        <ele>285.3</ele>
        <time>2024-11-12T08:32:06Z</time>
      </trkpt>
      <trkpt lat="45.85681" lon="1.22663">
        <ele>285.3</ele>
        <time>2024-11-12T08:32:07Z</time>
      </trkpt>
      <trkpt lat="45.85682" lon="1.22665">
        <ele>285.4</ele>
        <time>2024-11-12T08:32:08Z</time>
      </trkpt>
      <trkpt lat="45.85683" lon="1.22665">
        <ele>285.4</ele>
        <time>2024-11-12T08:32:09Z</time>
      </trkpt>
      <trkpt lat="45.85684" lon="1.22666">
        <ele>285.4</ele>
        <time>2024-11-12T08:32:10Z</time>
      </trkpt>
      <trkpt lat="45.85685" lon="1.22667">
        <ele>285.4</ele>
        <time>2024-11-12T08:32:11Z</time>
      </trkpt>
      <trkpt lat="45.85686" lon="1.22668">
        <ele>285.5</ele>
        <time>2024-11-12T08:32:12Z</time>
      </trkpt>
      <trkpt lat="45.85688" lon="1.22669">
        <ele>285.5</ele>
        <time>2024-11-12T08:32:13Z</time>
      </trkpt>
      <trkpt lat="45.85689" lon="1.2267">
        <ele>285.5</ele>
        <time>2024-11-12T08:32:14Z</time>
      </trkpt>
      <trkpt lat="45.85689" lon="1.2267">
        <ele>285.6</ele>
        <time>2024-11-12T08:32:15Z</time>
      </trkpt>
      <trkpt lat="45.8569" lon="1.22671">
        <ele>285.6</ele>
        <time>2024-11-12T08:32:16Z</time>
      </trkpt>
      <trkpt lat="45.85691" lon="1.22671">
        <ele>285.6</ele>
        <time>2024-11-12T08:32:17Z</time>
      </trkpt>
      <trkpt lat="45.85692" lon="1.22672">
        <ele>285.6</ele>
        <time>2024-11-12T08:32:18Z</time>
      </trkpt>
      <trkpt lat="45.85693" lon="1.22674">
        <ele>285.7</ele>
        <time>2024-11-12T08:32:19Z</time>
      </trkpt>
      <trkpt lat="45.85693" lon="1.22675">
        <ele>285.7</ele>
        <time>2024-11-12T08:32:20Z</time>
      </trkpt>
      <trkpt lat="45.85695" lon="1.22677">
        <ele>285.7</ele>
        <time>2024-11-12T08:32:21Z</time>
      </trkpt>
      <trkpt lat="45.85696" lon="1.22677">
        <ele>285.8</ele>
        <time>2024-11-12T08:32:22Z</time>
      </trkpt>
      <trkpt lat="45.85697" lon="1.22678">
        <ele>285.8</ele>
        <time>2024-11-12T08:32:23Z</time>
      </trkpt>
      <trkpt lat="45.85698" lon="1.22679">
        <ele>285.8</ele>
        <time>2024-11-12T08:32:24Z</time>
      </trkpt>
      <trkpt lat="45.85699" lon="1.2268">
        <ele>285.9</ele>
        <time>2024-11-12T08:32:25Z</time>
      </trkpt>
      <trkpt lat="45.85699" lon="1.2268">
        <ele>285.9</ele>
        <time>2024-11-12T08:32:26Z</time>
      </trkpt>
      <trkpt lat="45.857" lon="1.22681">
        <ele>285.9</ele>
        <time>2024-11-12T08:32:27Z</time>
      </trkpt>
      <trkpt lat="45.85701" lon="1.22683">
        <ele>286</ele>
        <time>2024-11-12T08:32:28Z</time>
      </trkpt>
      <trkpt lat="45.85701" lon="1.22684">
        <ele>286</ele>
        <time>2024-11-12T08:32:29Z</time>
      </trkpt>
      <trkpt lat="45.85702" lon="1.22685">
        <ele>286</ele>
        <time>2024-11-12T08:32:30Z</time>
      </trkpt>
      <trkpt lat="45.85702" lon="1.22688">
        <ele>286.1</ele>
        <time>2024-11-12T08:32:31Z</time>
      </trkpt>
      <trkpt lat="45.85703" lon="1.2269">
        <ele>286.1</ele>
        <time>2024-11-12T08:32:32Z</time>
      </trkpt>
      <trkpt lat="45.85703" lon="1.22691">
        <ele>286.2</ele>
        <time>2024-11-12T08:32:33Z</time>
      </trkpt>
      <trkpt lat="45.85703" lon="1.22692">
        <ele>286.2</ele>
        <time>2024-11-12T08:32:34Z</time>
      </trkpt>
      <trkpt lat="45.85703" lon="1.22694">
        <ele>286.3</ele>
        <time>2024-11-12T08:32:35Z</time>
      </trkpt>
      <trkpt lat="45.85703" lon="1.22695">
        <ele>286.3</ele>
        <time>2024-11-12T08:32:36Z</time>
      </trkpt>
      <trkpt lat="45.85704" lon="1.22698">
        <ele>286.4</ele>
        <time>2024-11-12T08:32:37Z</time>
      </trkpt>
      <trkpt lat="45.85705" lon="1.22699">
        <ele>286.4</ele>
        <time>2024-11-12T08:32:38Z</time>
      </trkpt>
      <trkpt lat="45.85705" lon="1.227">
        <ele>286.4</ele>
        <time>2024-11-12T08:32:39Z</time>
      </trkpt>
      <trkpt lat="45.85705" lon="1.22701">
        <ele>286.5</ele>
        <time>2024-11-12T08:32:40Z</time>
      </trkpt>
      <trkpt lat="45.85706" lon="1.22703">
        <ele>286.5</ele>
        <time>2024-11-12T08:32:41Z</time>
      </trkpt>
      <trkpt lat="45.85706" lon="1.22704">
        <ele>286.6</ele>
        <time>2024-11-12T08:32:42Z</time>
      </trkpt>
      <trkpt lat="45.85706" lon="1.22706">
        <ele>286.6</ele>
        <time>2024-11-12T08:32:43Z</time>
      </trkpt>
      <trkpt lat="45.85707" lon="1.22707">
        <ele>286.6</ele>
        <time>2024-11-12T08:32:44Z</time>
      </trkpt>
      <trkpt lat="45.85707" lon="1.22709">
        <ele>286.7</ele>
        <time>2024-11-12T08:32:45Z</time>
      </trkpt>
      <trkpt lat="45.85707" lon="1.2271">
        <ele>286.7</ele>
        <time>2024-11-12T08:32:46Z</time>
      </trkpt>
      <trkpt lat="45.85707" lon="1.22711">
        <ele>286.7</ele>
        <time>2024-11-12T08:32:47Z</time>
      </trkpt>
      <trkpt lat="45.85708" lon="1.22713">
        <ele>286.8</ele>
        <time>2024-11-12T08:32:48Z</time>
      </trkpt>
      <trkpt lat="45.85709" lon="1.22714">
        <ele>286.8</ele>
        <time>2024-11-12T08:32:49Z</time>
      </trkpt>
      <trkpt lat="45.85709" lon="1.22715">
        <ele>286.8</ele>
        <time>2024-11-12T08:32:50Z</time>
      </trkpt>
      <trkpt lat="45.8571" lon="1.22716">
        <ele>286.9</ele>
        <time>2024-11-12T08:32:51Z</time>
      </trkpt>
      <trkpt lat="45.8571" lon="1.22718">
        <ele>286.9</ele>
        <time>2024-11-12T08:32:52Z</time>
      </trkpt>
      <trkpt lat="45.85711" lon="1.22719">
        <ele>286.9</ele>
        <time>2024-11-12T08:32:53Z</time>
      </trkpt>
      <trkpt lat="45.85712" lon="1.2272">
        <ele>287</ele>
        <time>2024-11-12T08:32:54Z</time>
      </trkpt>
      <trkpt lat="45.85712" lon="1.22722">
        <ele>287</ele>
        <time>2024-11-12T08:32:55Z</time>
      </trkpt>
      <trkpt lat="45.85713" lon="1.22724">
        <ele>287.1</ele>
        <time>2024-11-12T08:32:56Z</time>
      </trkpt>
      <trkpt lat="45.85714" lon="1.22725">
        <ele>287.1</ele>
        <time>2024-11-12T08:32:57Z</time>
      </trkpt>
      <trkpt lat="45.85714" lon="1.22726">
        <ele>287.1</ele>
        <time>2024-11-12T08:32:58Z</time>
      </trkpt>
      <trkpt lat="45.85715" lon="1.22727">
        <ele>287.2</ele>
        <time>2024-11-12T08:32:59Z</time>
      </trkpt>
      <trkpt lat="45.85716" lon="1.22728">
        <ele>287.2</ele>
        <time>2024-11-12T08:33:00Z</time>
      </trkpt>
      <trkpt lat="45.85717" lon="1.22729">
        <ele>287.2</ele>
        <time>2024-11-12T08:33:01Z</time>
      </trkpt>
      <trkpt lat="45.85719" lon="1.2273">
        <ele>287.3</ele>
        <time>2024-11-12T08:33:02Z</time>
      </trkpt>
      <trkpt lat="45.8572" lon="1.2273">
        <ele>287.3</ele>
        <time>2024-11-12T08:33:03Z</time>
      </trkpt>
      <trkpt lat="45.85721" lon="1.2273">
        <ele>287.4</ele>
        <time>2024-11-12T08:33:04Z</time>
      </trkpt>
      <trkpt lat="45.85723" lon="1.22731">
        <ele>287.4</ele>
        <time>2024-11-12T08:33:05Z</time>
      </trkpt>
      <trkpt lat="45.85724" lon="1.22731">
        <ele>287.5</ele>
        <time>2024-11-12T08:33:06Z</time>
      </trkpt>
      <trkpt lat="45.85725" lon="1.22731">
        <ele>287.5</ele>
        <time>2024-11-12T08:33:07Z</time>
      </trkpt>
      <trkpt lat="45.85726" lon="1.22732">
        <ele>287.5</ele>
        <time>2024-11-12T08:33:08Z</time>
      </trkpt>
      <trkpt lat="45.85727" lon="1.22733">
        <ele>287.6</ele>
        <time>2024-11-12T08:33:09Z</time>
      </trkpt>
      <trkpt lat="45.85728" lon="1.22733">
        <ele>287.6</ele>
        <time>2024-11-12T08:33:10Z</time>
      </trkpt>
      <trkpt lat="45.85729" lon="1.22734">
        <ele>287.6</ele>
        <time>2024-11-12T08:33:11Z</time>
      </trkpt>
      <trkpt lat="45.8573" lon="1.22735">
        <ele>287.7</ele>
        <time>2024-11-12T08:33:12Z</time>
      </trkpt>
      <trkpt lat="45.85731" lon="1.22735">
        <ele>287.7</ele>
        <time>2024-11-12T08:33:13Z</time>
      </trkpt>
      <trkpt lat="45.85733" lon="1.22736">
        <ele>287.8</ele>
        <time>2024-11-12T08:33:14Z</time>
      </trkpt>
      <trkpt lat="45.85734" lon="1.22736">
        <ele>287.8</ele>
        <time>2024-11-12T08:33:15Z</time>
      </trkpt>
      <trkpt lat="45.85735" lon="1.22736">
        <ele>287.8</ele>
        <time>2024-11-12T08:33:16Z</time>
      </trkpt>
      <trkpt lat="45.85736" lon="1.22736">
        <ele>287.9</ele>
        <time>2024-11-12T08:33:17Z</time>
      </trkpt>
      <trkpt lat="45.85737" lon="1.22736">
        <ele>287.9</ele>
        <time>2024-11-12T08:33:18Z</time>
      </trkpt>
      <trkpt lat="45.8574" lon="1.22736">
        <ele>288</ele>
        <time>2024-11-12T08:33:19Z</time>
      </trkpt>
      <trkpt lat="45.8574" lon="1.22736">
        <ele>288</ele>
        <time>2024-11-12T08:33:20Z</time>
      </trkpt>
      <trkpt lat="45.85741" lon="1.22736">
        <ele>288.1</ele>
        <time>2024-11-12T08:33:21Z</time>
      </trkpt>
      <trkpt lat="45.85743" lon="1.22735">
        <ele>288.1</ele>
        <time>2024-11-12T08:33:22Z</time>
      </trkpt>
      <trkpt lat="45.85744" lon="1.22735">
        <ele>288.2</ele>
        <time>2024-11-12T08:33:23Z</time>
      </trkpt>
      <trkpt lat="45.85745" lon="1.22735">
        <ele>288.2</ele>
        <time>2024-11-12T08:33:24Z</time>
      </trkpt>
      <trkpt lat="45.85746" lon="1.22735">
        <ele>288.2</ele>
        <time>2024-11-12T08:33:25Z</time>
      </trkpt>
      <trkpt lat="45.85748" lon="1.22735">
        <ele>288.3</ele>
        <time>2024-11-12T08:33:26Z</time>
      </trkpt>
      <trkpt lat="45.85749" lon="1.22735">
        <ele>288.3</ele>
        <time>2024-11-12T08:33:27Z</time>
      </trkpt>
      <trkpt lat="45.8575" lon="1.22734">
        <ele>288.4</ele>
        <time>2024-11-12T08:33:28Z</time>
      </trkpt>
      <trkpt lat="45.85751" lon="1.22734">
        <ele>288.4</ele>
        <time>2024-11-12T08:33:29Z</time>
      </trkpt>
      <trkpt lat="45.85752" lon="1.22733">
        <ele>288.4</ele>
        <time>2024-11-12T08:33:30Z</time>
      </trkpt>
      <trkpt lat="45.85754" lon="1.22733">
        <ele>288.5</ele>
        <time>2024-11-12T08:33:31Z</time>
      </trkpt>
      <trkpt lat="45.85755" lon="1.22733">
        <ele>288.5</ele>
        <time>2024-11-12T08:33:32Z</time>
      </trkpt>
      <trkpt lat="45.85756" lon="1.22732">
        <ele>288.6</ele>
        <time>2024-11-12T08:33:33Z</time>
      </trkpt>
      <trkpt lat="45.85757" lon="1.22732">
        <ele>288.6</ele>
        <time>2024-11-12T08:33:34Z</time>
      </trkpt>
      <trkpt lat="45.85758" lon="1.22731">
        <ele>288.7</ele>
        <time>2024-11-12T08:33:35Z</time>
      </trkpt>
      <trkpt lat="45.8576" lon="1.22731">
        <ele>288.8</ele>
        <time>2024-11-12T08:33:36Z</time>
      </trkpt>
      <trkpt lat="45.85761" lon="1.2273">
        <ele>288.8</ele>
        <time>2024-11-12T08:33:37Z</time>
      </trkpt>
      <trkpt lat="45.85762" lon="1.2273">
        <ele>288.8</ele>
        <time>2024-11-12T08:33:38Z</time>
      </trkpt>
      <trkpt lat="45.85764" lon="1.22729">
        <ele>288.9</ele>
        <time>2024-11-12T08:33:39Z</time>
      </trkpt>
      <trkpt lat="45.85765" lon="1.22728">
        <ele>288.9</ele>
        <time>2024-11-12T08:33:40Z</time>
      </trkpt>
      <trkpt lat="45.85767" lon="1.22728">
        <ele>289</ele>
        <time>2024-11-12T08:33:41Z</time>
      </trkpt>
      <trkpt lat="45.85767" lon="1.22727">
        <ele>289</ele>
        <time>2024-11-12T08:33:42Z</time>
      </trkpt>
      <trkpt lat="45.85768" lon="1.22727">
        <ele>289</ele>
        <time>2024-11-12T08:33:43Z</time>
      </trkpt>
      <trkpt lat="45.8577" lon="1.22726">
        <ele>289.1</ele>
        <time>2024-11-12T08:33:44Z</time>
      </trkpt>
      <trkpt lat="45.85771" lon="1.22726">
        <ele>289.2</ele>
        <time>2024-11-12T08:33:45Z</time>
      </trkpt>
      <trkpt lat="45.85772" lon="1.22726">
        <ele>289.2</ele>
        <time>2024-11-12T08:33:46Z</time>
      </trkpt>
      <trkpt lat="45.85774" lon="1.22726">
        <ele>289.3</ele>
        <time>2024-11-12T08:33:47Z</time>
      </trkpt>
      <trkpt lat="45.85775" lon="1.22725">
        <ele>289.3</ele>
        <time>2024-11-12T08:33:48Z</time>
      </trkpt>
      <trkpt lat="45.85776" lon="1.22725">
        <ele>289.3</ele>
        <time>2024-11-12T08:33:49Z</time>
      </trkpt>
      <trkpt lat="45.85777" lon="1.22725">
        <ele>289.4</ele>
        <time>2024-11-12T08:33:50Z</time>
      </trkpt>
      <trkpt lat="45.85778" lon="1.22725">
        <ele>289.4</ele>
        <time>2024-11-12T08:33:51Z</time>
      </trkpt>
      <trkpt lat="45.85779" lon="1.22725">
        <ele>289.4</ele>
        <time>2024-11-12T08:33:52Z</time>
      </trkpt>
      <trkpt lat="45.85781" lon="1.22725">
        <ele>289.5</ele>
        <time>2024-11-12T08:33:53Z</time>
      </trkpt>
      <trkpt lat="45.85782" lon="1.22725">
        <ele>289.5</ele>
        <time>2024-11-12T08:33:54Z</time>
      </trkpt>
      <trkpt lat="45.85783" lon="1.22725">
        <ele>289.6</ele>
        <time>2024-11-12T08:33:55Z</time>
      </trkpt>
      <trkpt lat="45.85784" lon="1.22725">
        <ele>289.6</ele>
        <time>2024-11-12T08:33:56Z</time>
      </trkpt>
      <trkpt lat="45.85785" lon="1.22725">
        <ele>289.7</ele>
        <time>2024-11-12T08:33:57Z</time>
      </trkpt>
      <trkpt lat="45.85787" lon="1.22725">
        <ele>289.7</ele>
        <time>2024-11-12T08:33:58Z</time>
      </trkpt>
      <trkpt lat="45.85788" lon="1.22725">
        <ele>289.7</ele>
        <time>2024-11-12T08:33:59Z</time>
      </trkpt>
      <trkpt lat="45.85789" lon="1.22725">
        <ele>289.8</ele>
        <time>2024-11-12T08:34:00Z</time>
      </trkpt>
      <trkpt lat="45.8579" lon="1.22725">
        <ele>289.8</ele>
        <time>2024-11-12T08:34:01Z</time>
      </trkpt>
      <trkpt lat="45.85792" lon="1.22726">
        <ele>289.9</ele>
        <time>2024-11-12T08:34:02Z</time>
      </trkpt>
      <trkpt lat="45.85793" lon="1.22726">
        <ele>289.9</ele>
        <time>2024-11-12T08:34:03Z</time>
      </trkpt>
      <trkpt lat="45.85794" lon="1.22726">
        <ele>290</ele>
        <time>2024-11-12T08:34:04Z</time>
      </trkpt>
      <trkpt lat="45.85795" lon="1.22726">
        <ele>290</ele>
        <time>2024-11-12T08:34:05Z</time>
      </trkpt>
      <trkpt lat="45.85796" lon="1.22726">
        <ele>290.1</ele>
        <time>2024-11-12T08:34:06Z</time>
      </trkpt>
      <trkpt lat="45.85797" lon="1.22726">
        <ele>290.1</ele>
        <time>2024-11-12T08:34:07Z</time>
      </trkpt>
      <trkpt lat="45.85799" lon="1.22727">
        <ele>290.2</ele>
        <time>2024-11-12T08:34:08Z</time>
      </trkpt>
      <trkpt lat="45.858" lon="1.22728">
        <ele>290.2</ele>
        <time>2024-11-12T08:34:09Z</time>
      </trkpt>
      <trkpt lat="45.85801" lon="1.22728">
        <ele>290.3</ele>
        <time>2024-11-12T08:34:10Z</time>
      </trkpt>
      <trkpt lat="45.85803" lon="1.2273">
        <ele>290.4</ele>
        <time>2024-11-12T08:34:11Z</time>
      </trkpt>
      <trkpt lat="45.85803" lon="1.22731">
        <ele>290.4</ele>
        <time>2024-11-12T08:34:12Z</time>
      </trkpt>
      <trkpt lat="45.85804" lon="1.22731">
        <ele>290.5</ele>
        <time>2024-11-12T08:34:13Z</time>
      </trkpt>
      <trkpt lat="45.85806" lon="1.22732">
        <ele>290.5</ele>
        <time>2024-11-12T08:34:14Z</time>
      </trkpt>
      <trkpt lat="45.85806" lon="1.22733">
        <ele>290.6</ele>
        <time>2024-11-12T08:34:15Z</time>
      </trkpt>
      <trkpt lat="45.85808" lon="1.22735">
        <ele>290.7</ele>
        <time>2024-11-12T08:34:16Z</time>
      </trkpt>
      <trkpt lat="45.85809" lon="1.22736">
        <ele>290.7</ele>
        <time>2024-11-12T08:34:17Z</time>
      </trkpt>
      <trkpt lat="45.85809" lon="1.22737">
        <ele>290.8</ele>
        <time>2024-11-12T08:34:18Z</time>
      </trkpt>
      <trkpt lat="45.85811" lon="1.22738">
        <ele>290.9</ele>
        <time>2024-11-12T08:34:19Z</time>
      </trkpt>
      <trkpt lat="45.85811" lon="1.2274">
        <ele>290.9</ele>
        <time>2024-11-12T08:34:20Z</time>
      </trkpt>
      <trkpt lat="45.85813" lon="1.22742">
        <ele>291</ele>
        <time>2024-11-12T08:34:21Z</time>
      </trkpt>
      <trkpt lat="45.85814" lon="1.22742">
        <ele>291.1</ele>
        <time>2024-11-12T08:34:22Z</time>
      </trkpt>
      <trkpt lat="45.85815" lon="1.22743">
        <ele>291.1</ele>
        <time>2024-11-12T08:34:23Z</time>
      </trkpt>
      <trkpt lat="45.85816" lon="1.22745">
        <ele>291.2</ele>
        <time>2024-11-12T08:34:24Z</time>
      </trkpt>
      <trkpt lat="45.85816" lon="1.22745">
        <ele>291.2</ele>
        <time>2024-11-12T08:34:25Z</time>
      </trkpt>
      <trkpt lat="45.85817" lon="1.22746">
        <ele>291.3</ele>
        <time>2024-11-12T08:34:26Z</time>
      </trkpt>
      <trkpt lat="45.85819" lon="1.22748">
        <ele>291.4</ele>
        <time>2024-11-12T08:34:27Z</time>
      </trkpt>
      <trkpt lat="45.8582" lon="1.22749">
        <ele>291.4</ele>
        <time>2024-11-12T08:34:28Z</time>
      </trkpt>
      <trkpt lat="45.85821" lon="1.2275">
        <ele>291.5</ele>
        <time>2024-11-12T08:34:29Z</time>
      </trkpt>
      <trkpt lat="45.85822" lon="1.22751">
        <ele>291.5</ele>
        <time>2024-11-12T08:34:30Z</time>
      </trkpt>
      <trkpt lat="45.85822" lon="1.22752">
        <ele>291.6</ele>
        <time>2024-11-12T08:34:31Z</time>
      </trkpt>
      <trkpt lat="45.85823" lon="1.22754">
        <ele>291.6</ele>
        <time>2024-11-12T08:34:32Z</time>
      </trkpt>
      <trkpt lat="45.85824" lon="1.22755">
        <ele>291.7</ele>
        <time>2024-11-12T08:34:33Z</time>
      </trkpt>
      <trkpt lat="45.85825" lon="1.22757">
        <ele>291.7</ele>
        <time>2024-11-12T08:34:34Z</time>
      </trkpt>
      <trkpt lat="45.85826" lon="1.22758">
        <ele>291.7</ele>
        <time>2024-11-12T08:34:35Z</time>
      </trkpt>
      <trkpt lat="45.85826" lon="1.22759">
        <ele>291.8</ele>
        <time>2024-11-12T08:34:36Z</time>
      </trkpt>
      <trkpt lat="45.85827" lon="1.22761">
        <ele>291.8</ele>
        <time>2024-11-12T08:34:37Z</time>
      </trkpt>
      <trkpt lat="45.85828" lon="1.22762">
        <ele>291.9</ele>
        <time>2024-11-12T08:34:38Z</time>
      </trkpt>
      <trkpt lat="45.85829" lon="1.22765">
        <ele>291.9</ele>
        <time>2024-11-12T08:34:39Z</time>
      </trkpt>
      <trkpt lat="45.85829" lon="1.22765">
        <ele>292</ele>
        <time>2024-11-12T08:34:40Z</time>
      </trkpt>
      <trkpt lat="45.8583" lon="1.22767">
        <ele>292</ele>
        <time>2024-11-12T08:34:41Z</time>
      </trkpt>
      <trkpt lat="45.8583" lon="1.22768">
        <ele>292</ele>
        <time>2024-11-12T08:34:42Z</time>
      </trkpt>
      <trkpt lat="45.85832" lon="1.22771">
        <ele>292.1</ele>
        <time>2024-11-12T08:34:43Z</time>
      </trkpt>
      <trkpt lat="45.85832" lon="1.22772">
        <ele>292.1</ele>
        <time>2024-11-12T08:34:44Z</time>
      </trkpt>
      <trkpt lat="45.85832" lon="1.22773">
        <ele>292.1</ele>
        <time>2024-11-12T08:34:45Z</time>
      </trkpt>
      <trkpt lat="45.85833" lon="1.22774">
        <ele>292.1</ele>
        <time>2024-11-12T08:34:46Z</time>
      </trkpt>
      <trkpt lat="45.85834" lon="1.22775">
        <ele>292.2</ele>
        <time>2024-11-12T08:34:47Z</time>
      </trkpt>
      <trkpt lat="45.85835" lon="1.22776">
        <ele>292.2</ele>
        <time>2024-11-12T08:34:48Z</time>
      </trkpt>
      <trkpt lat="45.85837" lon="1.22777">
        <ele>292.2</ele>
        <time>2024-11-12T08:34:49Z</time>
      </trkpt>
      <trkpt lat="45.85838" lon="1.22777">
        <ele>292.2</ele>
        <time>2024-11-12T08:34:50Z</time>
      </trkpt>
      <trkpt lat="45.85838" lon="1.22777">
        <ele>292.2</ele>
        <time>2024-11-12T08:34:51Z</time>
      </trkpt>
      <trkpt lat="45.8584" lon="1.22777">
        <ele>292.2</ele>
        <time>2024-11-12T08:34:52Z</time>
      </trkpt>
      <trkpt lat="45.85841" lon="1.22777">
        <ele>292.2</ele>
        <time>2024-11-12T08:34:53Z</time>
      </trkpt>
      <trkpt lat="45.85842" lon="1.22777">
        <ele>292.2</ele>
        <time>2024-11-12T08:34:54Z</time>
      </trkpt>
      <trkpt lat="45.85843" lon="1.22777">
        <ele>292.2</ele>
        <time>2024-11-12T08:34:55Z</time>
      </trkpt>
      <trkpt lat="45.85844" lon="1.22777">
        <ele>292.2</ele>
        <time>2024-11-12T08:34:56Z</time>
      </trkpt>
      <trkpt lat="45.85846" lon="1.22777">
        <ele>292.1</ele>
        <time>2024-11-12T08:34:57Z</time>
      </trkpt>
      <trkpt lat="45.85847" lon="1.22777">
        <ele>292.1</ele>
        <time>2024-11-12T08:34:58Z</time>
      </trkpt>
      <trkpt lat="45.85848" lon="1.22778">
        <ele>292.1</ele>
        <time>2024-11-12T08:34:59Z</time>
      </trkpt>
      <trkpt lat="45.85849" lon="1.22778">
        <ele>292.1</ele>
        <time>2024-11-12T08:35:00Z</time>
      </trkpt>
      <trkpt lat="45.85849" lon="1.22777">
        <ele>292.1</ele>
        <time>2024-11-12T08:35:01Z</time>
      </trkpt>
      <trkpt lat="45.85849" lon="1.22777">
        <ele>292.1</ele>
        <time>2024-11-12T08:35:02Z</time>
      </trkpt>
      <trkpt lat="45.85849" lon="1.22777">
        <ele>292.1</ele>
        <time>2024-11-12T08:35:03Z</time>
      </trkpt>
      <trkpt lat="45.85848" lon="1.22776">
        <ele>292.1</ele>
        <time>2024-11-12T08:35:04Z</time>
      </trkpt>
      <trkpt lat="45.85848" lon="1.22776">
        <ele>292.1</ele>
        <time>2024-11-12T08:35:05Z</time>
      </trkpt>
      <trkpt lat="45.85848" lon="1.22776">
        <ele>292.1</ele>
        <time>2024-11-12T08:35:06Z</time>
      </trkpt>
      <trkpt lat="45.85848" lon="1.22777">
        <ele>292.1</ele>
        <time>2024-11-12T08:35:07Z</time>
      </trkpt>
      <trkpt lat="45.85847" lon="1.22777">
        <ele>292.1</ele>
        <time>2024-11-12T08:35:08Z</time>
      </trkpt>
      <trkpt lat="45.85848" lon="1.22777">
        <ele>292.1</ele>
        <time>2024-11-12T08:35:09Z</time>
      </trkpt>
      <trkpt lat="45.85847" lon="1.22777">
        <ele>292.1</ele>
        <time>2024-11-12T08:35:10Z</time>
      </trkpt>
      <trkpt lat="45.85847" lon="1.22777">
        <ele>292.1</ele>
        <time>2024-11-12T08:35:11Z</time>
      </trkpt>
      <trkpt lat="45.85847" lon="1.22777">
        <ele>292.1</ele>
        <time>2024-11-12T08:35:12Z</time>
      </trkpt>
      <trkpt lat="45.85847" lon="1.22777">
        <ele>292.1</ele>
        <time>2024-11-12T08:35:13Z</time>
      </trkpt>
      <trkpt lat="45.85847" lon="1.22777">
        <ele>292.1</ele>
        <time>2024-11-12T08:35:14Z</time>
      </trkpt>
      <trkpt lat="45.85847" lon="1.22777">
        <ele>292.1</ele>
        <time>2024-11-12T08:35:15Z</time>
      </trkpt>
      <trkpt lat="45.85847" lon="1.22777">
        <ele>292.1</ele>
        <time>2024-11-12T08:35:16Z</time>
      </trkpt>
      <trkpt lat="45.85847" lon="1.22777">
        <ele>292.1</ele>
        <time>2024-11-12T08:35:17Z</time>
      </trkpt>
      <trkpt lat="45.85847" lon="1.22777">
        <ele>292.1</ele>
        <time>2024-11-12T08:35:18Z</time>
      </trkpt>
      <trkpt lat="45.85847" lon="1.22778">
        <ele>292.1</ele>
        <time>2024-11-12T08:35:19Z</time>
      </trkpt>
      <trkpt lat="45.85847" lon="1.22778">
        <ele>292.1</ele>
        <time>2024-11-12T08:35:20Z</time>
      </trkpt>
      <trkpt lat="45.85847" lon="1.22779">
        <ele>292.1</ele>
        <time>2024-11-12T08:35:21Z</time>
      </trkpt>
      <trkpt lat="45.85848" lon="1.22778">
        <ele>292</ele>
        <time>2024-11-12T08:35:22Z</time>
      </trkpt>
      <trkpt lat="45.85849" lon="1.22778">
        <ele>292</ele>
        <time>2024-11-12T08:35:23Z</time>
      </trkpt>
      <trkpt lat="45.85852" lon="1.22779">
        <ele>292</ele>
        <time>2024-11-12T08:35:24Z</time>
      </trkpt>
      <trkpt lat="45.85853" lon="1.2278">
        <ele>292</ele>
        <time>2024-11-12T08:35:25Z</time>
      </trkpt>
      <trkpt lat="45.85855" lon="1.2278">
        <ele>292</ele>
        <time>2024-11-12T08:35:26Z</time>
      </trkpt>
      <trkpt lat="45.85856" lon="1.2278">
        <ele>292</ele>
        <time>2024-11-12T08:35:27Z</time>
      </trkpt>
      <trkpt lat="45.85856" lon="1.22781">
        <ele>292</ele>
        <time>2024-11-12T08:35:28Z</time>
      </trkpt>
      <trkpt lat="45.85857" lon="1.22781">
        <ele>292</ele>
        <time>2024-11-12T08:35:29Z</time>
      </trkpt>
      <trkpt lat="45.85856" lon="1.22781">
        <ele>292</ele>
        <time>2024-11-12T08:35:30Z</time>
      </trkpt>
      <trkpt lat="45.85856" lon="1.22781">
        <ele>292</ele>
        <time>2024-11-12T08:35:31Z</time>
      </trkpt>
      <trkpt lat="45.85856" lon="1.22781">
        <ele>292</ele>
        <time>2024-11-12T08:35:32Z</time>
      </trkpt>
      <trkpt lat="45.85855" lon="1.22781">
        <ele>292</ele>
        <time>2024-11-12T08:35:33Z</time>
      </trkpt>
      <trkpt lat="45.85855" lon="1.22781">
        <ele>292</ele>
        <time>2024-11-12T08:35:34Z</time>
      </trkpt>
      <trkpt lat="45.85855" lon="1.22782">
        <ele>292</ele>
        <time>2024-11-12T08:35:35Z</time>
      </trkpt>
      <trkpt lat="45.85855" lon="1.22782">
        <ele>292</ele>
        <time>2024-11-12T08:35:36Z</time>
      </trkpt>
      <trkpt lat="45.85855" lon="1.22782">
        <ele>292</ele>
        <time>2024-11-12T08:35:37Z</time>
      </trkpt>
      <trkpt lat="45.85856" lon="1.22782">
        <ele>292</ele>
        <time>2024-11-12T08:35:38Z</time>
      </trkpt>
      <trkpt lat="45.85856" lon="1.22782">
        <ele>292</ele>
        <time>2024-11-12T08:35:39Z</time>
      </trkpt>
      <trkpt lat="45.85856" lon="1.22782">
        <ele>292</ele>
        <time>2024-11-12T08:35:40Z</time>
      </trkpt>
      <trkpt lat="45.85856" lon="1.22782">
        <ele>292</ele>
        <time>2024-11-12T08:35:41Z</time>
      </trkpt>
      <trkpt lat="45.85856" lon="1.22782">
        <ele>292</ele>
        <time>2024-11-12T08:35:42Z</time>
      </trkpt>
      <trkpt lat="45.85856" lon="1.22782">
        <ele>292</ele>
        <time>2024-11-12T08:35:43Z</time>
      </trkpt>
      <trkpt lat="45.85856" lon="1.22782">
        <ele>292</ele>
        <time>2024-11-12T08:35:44Z</time>
      </trkpt>
      <trkpt lat="45.85856" lon="1.22782">
        <ele>292</ele>
        <time>2024-11-12T08:35:45Z</time>
      </trkpt>
      <trkpt lat="45.85857" lon="1.22783">
        <ele>292</ele>
        <time>2024-11-12T08:35:46Z</time>
      </trkpt>
      <trkpt lat="45.8586" lon="1.22784">
        <ele>292</ele>
        <time>2024-11-12T08:35:47Z</time>
      </trkpt>
      <trkpt lat="45.85861" lon="1.22784">
        <ele>292</ele>
        <time>2024-11-12T08:35:48Z</time>
      </trkpt>
      <trkpt lat="45.85863" lon="1.22785">
        <ele>292</ele>
        <time>2024-11-12T08:35:49Z</time>
      </trkpt>
      <trkpt lat="45.85863" lon="1.22786">
        <ele>292</ele>
        <time>2024-11-12T08:35:50Z</time>
      </trkpt>
      <trkpt lat="45.85864" lon="1.22786">
        <ele>292</ele>
        <time>2024-11-12T08:35:51Z</time>
      </trkpt>
      <trkpt lat="45.85864" lon="1.22786">
        <ele>292</ele>
        <time>2024-11-12T08:35:52Z</time>
      </trkpt>
      <trkpt lat="45.85863" lon="1.22786">
        <ele>292</ele>
        <time>2024-11-12T08:35:53Z</time>
      </trkpt>
      <trkpt lat="45.85863" lon="1.22786">
        <ele>292</ele>
        <time>2024-11-12T08:35:54Z</time>
      </trkpt>
      <trkpt lat="45.85863" lon="1.22786">
        <ele>292</ele>
        <time>2024-11-12T08:35:55Z</time>
      </trkpt>
      <trkpt lat="45.85864" lon="1.22787">
        <ele>292</ele>
        <time>2024-11-12T08:35:56Z</time>
      </trkpt>
      <trkpt lat="45.85864" lon="1.22787">
        <ele>292</ele>
        <time>2024-11-12T08:35:57Z</time>
      </trkpt>
      <trkpt lat="45.85864" lon="1.22787">
        <ele>292</ele>
        <time>2024-11-12T08:35:58Z</time>
      </trkpt>
      <trkpt lat="45.85864" lon="1.22787">
        <ele>292</ele>
        <time>2024-11-12T08:35:59Z</time>
      </trkpt>
      <trkpt lat="45.85864" lon="1.22787">
        <ele>292</ele>
        <time>2024-11-12T08:36:00Z</time>
      </trkpt>
      <trkpt lat="45.85865" lon="1.22787">
        <ele>292</ele>
        <time>2024-11-12T08:36:01Z</time>
      </trkpt>
      <trkpt lat="45.85865" lon="1.22787">
        <ele>292</ele>
        <time>2024-11-12T08:36:02Z</time>
      </trkpt>
      <trkpt lat="45.85865" lon="1.22788">
        <ele>292</ele>
        <time>2024-11-12T08:36:03Z</time>
      </trkpt>
      <trkpt lat="45.85865" lon="1.22788">
        <ele>292</ele>
        <time>2024-11-12T08:36:04Z</time>
      </trkpt>
      <trkpt lat="45.85865" lon="1.22788">
        <ele>292</ele>
        <time>2024-11-12T08:36:05Z</time>
      </trkpt>
      <trkpt lat="45.85865" lon="1.22788">
        <ele>292</ele>
        <time>2024-11-12T08:36:06Z</time>
      </trkpt>
      <trkpt lat="45.85865" lon="1.22788">
        <ele>292</ele>
        <time>2024-11-12T08:36:07Z</time>
      </trkpt>
      <trkpt lat="45.85865" lon="1.22788">
        <ele>292</ele>
        <time>2024-11-12T08:36:08Z</time>
      </trkpt>
      <trkpt lat="45.85866" lon="1.22789">
        <ele>292</ele>
        <time>2024-11-12T08:36:09Z</time>
      </trkpt>
      <trkpt lat="45.85867" lon="1.2279">
        <ele>292</ele>
        <time>2024-11-12T08:36:10Z</time>
      </trkpt>
      <trkpt lat="45.85867" lon="1.2279">
        <ele>292</ele>
        <time>2024-11-12T08:36:11Z</time>
      </trkpt>
      <trkpt lat="45.85867" lon="1.22791">
        <ele>292</ele>
        <time>2024-11-12T08:36:12Z</time>
      </trkpt>
      <trkpt lat="45.85868" lon="1.22791">
        <ele>292</ele>
        <time>2024-11-12T08:36:13Z</time>
      </trkpt>
      <trkpt lat="45.85868" lon="1.22791">
        <ele>292</ele>
        <time>2024-11-12T08:36:14Z</time>
      </trkpt>
      <trkpt lat="45.85868" lon="1.22791">
        <ele>292</ele>
        <time>2024-11-12T08:36:15Z</time>
      </trkpt>
      <trkpt lat="45.85868" lon="1.22791">
        <ele>292</ele>
        <time>2024-11-12T08:36:16Z</time>
      </trkpt>
      <trkpt lat="45.85868" lon="1.22791">
        <ele>292</ele>
        <time>2024-11-12T08:36:17Z</time>
      </trkpt>
      <trkpt lat="45.85868" lon="1.22791">
        <ele>292</ele>
        <time>2024-11-12T08:36:18Z</time>
      </trkpt>
      <trkpt lat="45.85868" lon="1.22791">
        <ele>292</ele>
        <time>2024-11-12T08:36:19Z</time>
      </trkpt>
      <trkpt lat="45.85868" lon="1.22791">
        <ele>292</ele>
        <time>2024-11-12T08:36:20Z</time>
      </trkpt>
      <trkpt lat="45.85868" lon="1.22791">
        <ele>292</ele>
        <time>2024-11-12T08:36:21Z</time>
      </trkpt>
      <trkpt lat="45.85868" lon="1.22791">
        <ele>292</ele>
        <time>2024-11-12T08:36:22Z</time>
      </trkpt>
      <trkpt lat="45.85868" lon="1.22791">
        <ele>292</ele>
        <time>2024-11-12T08:36:23Z</time>
      </trkpt>
      <trkpt lat="45.85868" lon="1.22791">
        <ele>292</ele>
        <time>2024-11-12T08:36:24Z</time>
      </trkpt>
      <trkpt lat="45.8587" lon="1.2279">
        <ele>292</ele>
        <time>2024-11-12T08:36:25Z</time>
      </trkpt>
      <trkpt lat="45.8587" lon="1.2279">
        <ele>292</ele>
        <time>2024-11-12T08:36:26Z</time>
      </trkpt>
      <trkpt lat="45.85871" lon="1.22789">
        <ele>292</ele>
        <time>2024-11-12T08:36:27Z</time>
      </trkpt>
      <trkpt lat="45.85871" lon="1.22789">
        <ele>292</ele>
        <time>2024-11-12T08:36:28Z</time>
      </trkpt>
      <trkpt lat="45.85872" lon="1.22789">
        <ele>292</ele>
        <time>2024-11-12T08:36:29Z</time>
      </trkpt>
      <trkpt lat="45.85872" lon="1.22789">
        <ele>292</ele>
        <time>2024-11-12T08:36:30Z</time>
      </trkpt>
      <trkpt lat="45.85872" lon="1.22789">
        <ele>292</ele>
        <time>2024-11-12T08:36:31Z</time>
      </trkpt>
      <trkpt lat="45.85872" lon="1.22789">
        <ele>292</ele>
        <time>2024-11-12T08:36:32Z</time>
      </trkpt>
      <trkpt lat="45.85871" lon="1.2279">
        <ele>292</ele>
        <time>2024-11-12T08:36:33Z</time>
      </trkpt>
      <trkpt lat="45.85872" lon="1.22789">
        <ele>292</ele>
        <time>2024-11-12T08:36:34Z</time>
      </trkpt>
      <trkpt lat="45.85873" lon="1.22789">
        <ele>292</ele>
        <time>2024-11-12T08:36:35Z</time>
      </trkpt>
      <trkpt lat="45.85874" lon="1.22789">
        <ele>292</ele>
        <time>2024-11-12T08:36:36Z</time>
      </trkpt>
      <trkpt lat="45.85875" lon="1.22789">
        <ele>292</ele>
        <time>2024-11-12T08:36:37Z</time>
      </trkpt>
      <trkpt lat="45.85876" lon="1.22789">
        <ele>292</ele>
        <time>2024-11-12T08:36:38Z</time>
      </trkpt>
      <trkpt lat="45.85878" lon="1.22789">
        <ele>292</ele>
        <time>2024-11-12T08:36:39Z</time>
      </trkpt>
      <trkpt lat="45.85878" lon="1.22789">
        <ele>292</ele>
        <time>2024-11-12T08:36:40Z</time>
      </trkpt>
      <trkpt lat="45.85879" lon="1.22789">
        <ele>292</ele>
        <time>2024-11-12T08:36:41Z</time>
      </trkpt>
      <trkpt lat="45.8588" lon="1.22789">
        <ele>292</ele>
        <time>2024-11-12T08:36:42Z</time>
      </trkpt>
      <trkpt lat="45.85881" lon="1.22789">
        <ele>292</ele>
        <time>2024-11-12T08:36:43Z</time>
      </trkpt>
      <trkpt lat="45.85882" lon="1.22789">
        <ele>292.1</ele>
        <time>2024-11-12T08:36:44Z</time>
      </trkpt>
      <trkpt lat="45.85883" lon="1.2279">
        <ele>292.1</ele>
        <time>2024-11-12T08:36:45Z</time>
      </trkpt>
      <trkpt lat="45.85884" lon="1.22791">
        <ele>292.1</ele>
        <time>2024-11-12T08:36:46Z</time>
      </trkpt>
      <trkpt lat="45.85885" lon="1.22793">
        <ele>292.1</ele>
        <time>2024-11-12T08:36:47Z</time>
      </trkpt>
      <trkpt lat="45.85886" lon="1.22795">
        <ele>292.1</ele>
        <time>2024-11-12T08:36:48Z</time>
      </trkpt>
      <trkpt lat="45.85888" lon="1.22796">
        <ele>292.1</ele>
        <time>2024-11-12T08:36:49Z</time>
      </trkpt>
      <trkpt lat="45.85888" lon="1.22797">
        <ele>292.1</ele>
        <time>2024-11-12T08:36:50Z</time>
      </trkpt>
      <trkpt lat="45.8589" lon="1.22799">
        <ele>292.1</ele>
        <time>2024-11-12T08:36:51Z</time>
      </trkpt>
      <trkpt lat="45.85891" lon="1.228">
        <ele>292.1</ele>
        <time>2024-11-12T08:36:52Z</time>
      </trkpt>
      <trkpt lat="45.85891" lon="1.228">
        <ele>292.1</ele>
        <time>2024-11-12T08:36:53Z</time>
      </trkpt>
      <trkpt lat="45.85893" lon="1.22802">
        <ele>292.1</ele>
        <time>2024-11-12T08:36:54Z</time>
      </trkpt>
      <trkpt lat="45.85894" lon="1.22802">
        <ele>292.1</ele>
        <time>2024-11-12T08:36:55Z</time>
      </trkpt>
      <trkpt lat="45.85895" lon="1.22803">
        <ele>292.1</ele>
        <time>2024-11-12T08:36:56Z</time>
      </trkpt>
      <trkpt lat="45.85896" lon="1.22805">
        <ele>292.1</ele>
        <time>2024-11-12T08:36:57Z</time>
      </trkpt>
      <trkpt lat="45.85897" lon="1.22805">
        <ele>292.1</ele>
        <time>2024-11-12T08:36:58Z</time>
      </trkpt>
      <trkpt lat="45.85898" lon="1.22806">
        <ele>292.1</ele>
        <time>2024-11-12T08:36:59Z</time>
      </trkpt>
      <trkpt lat="45.85899" lon="1.22806">
        <ele>292.1</ele>
        <time>2024-11-12T08:37:00Z</time>
      </trkpt>
      <trkpt lat="45.859" lon="1.22807">
        <ele>292.2</ele>
        <time>2024-11-12T08:37:01Z</time>
      </trkpt>
      <trkpt lat="45.85901" lon="1.22807">
        <ele>292.2</ele>
        <time>2024-11-12T08:37:02Z</time>
      </trkpt>
      <trkpt lat="45.85902" lon="1.22808">
        <ele>292.2</ele>
        <time>2024-11-12T08:37:03Z</time>
      </trkpt>
      <trkpt lat="45.85904" lon="1.22808">
        <ele>292.2</ele>
        <time>2024-11-12T08:37:04Z</time>
      </trkpt>
      <trkpt lat="45.85905" lon="1.22808">
        <ele>292.2</ele>
        <time>2024-11-12T08:37:05Z</time>
      </trkpt>
      <trkpt lat="45.85906" lon="1.22809">
        <ele>292.2</ele>
        <time>2024-11-12T08:37:06Z</time>
      </trkpt>
      <trkpt lat="45.85907" lon="1.22809">
        <ele>292.2</ele>
        <time>2024-11-12T08:37:07Z</time>
      </trkpt>
      <trkpt lat="45.85909" lon="1.22809">
        <ele>292.2</ele>
        <time>2024-11-12T08:37:08Z</time>
      </trkpt>
      <trkpt lat="45.8591" lon="1.22809">
        <ele>292.2</ele>
        <time>2024-11-12T08:37:09Z</time>
      </trkpt>
      <trkpt lat="45.85911" lon="1.22809">
        <ele>292.2</ele>
        <time>2024-11-12T08:37:10Z</time>
      </trkpt>
      <trkpt lat="45.85913" lon="1.22809">
        <ele>292.2</ele>
        <time>2024-11-12T08:37:11Z</time>
      </trkpt>
      <trkpt lat="45.85914" lon="1.22809">
        <ele>292.2</ele>
        <time>2024-11-12T08:37:12Z</time>
      </trkpt>
      <trkpt lat="45.85915" lon="1.22809">
        <ele>292.2</ele>
        <time>2024-11-12T08:37:13Z</time>
      </trkpt>
      <trkpt lat="45.85917" lon="1.22809">
        <ele>292.3</ele>
        <time>2024-11-12T08:37:14Z</time>
      </trkpt>
      <trkpt lat="45.85918" lon="1.22809">
        <ele>292.3</ele>
        <time>2024-11-12T08:37:15Z</time>
      </trkpt>
      <trkpt lat="45.8592" lon="1.22808">
        <ele>292.3</ele>
        <time>2024-11-12T08:37:16Z</time>
      </trkpt>
      <trkpt lat="45.8592" lon="1.22808">
        <ele>292.3</ele>
        <time>2024-11-12T08:37:17Z</time>
      </trkpt>
      <trkpt lat="45.85921" lon="1.22807">
        <ele>292.3</ele>
        <time>2024-11-12T08:37:18Z</time>
      </trkpt>
      <trkpt lat="45.85923" lon="1.22807">
        <ele>292.3</ele>
        <time>2024-11-12T08:37:19Z</time>
      </trkpt>
      <trkpt lat="45.85924" lon="1.22806">
        <ele>292.3</ele>
        <time>2024-11-12T08:37:20Z</time>
      </trkpt>
      <trkpt lat="45.85925" lon="1.22806">
        <ele>292.3</ele>
        <time>2024-11-12T08:37:21Z</time>
      </trkpt>
      <trkpt lat="45.85926" lon="1.22806">
        <ele>292.3</ele>
        <time>2024-11-12T08:37:22Z</time>
      </trkpt>
      <trkpt lat="45.85928" lon="1.22806">
        <ele>292.3</ele>
        <time>2024-11-12T08:37:23Z</time>
      </trkpt>
      <trkpt lat="45.85929" lon="1.22805">
        <ele>292.4</ele>
        <time>2024-11-12T08:37:24Z</time>
      </trkpt>
      <trkpt lat="45.8593" lon="1.22805">
        <ele>292.4</ele>
        <time>2024-11-12T08:37:25Z</time>
      </trkpt>
      <trkpt lat="45.85931" lon="1.22805">
        <ele>292.4</ele>
        <time>2024-11-12T08:37:26Z</time>
      </trkpt>
      <trkpt lat="45.85932" lon="1.22805">
        <ele>292.4</ele>
        <time>2024-11-12T08:37:27Z</time>
      </trkpt>
      <trkpt lat="45.85933" lon="1.22805">
        <ele>292.4</ele>
        <time>2024-11-12T08:37:28Z</time>
      </trkpt>
      <trkpt lat="45.85934" lon="1.22804">
        <ele>292.4</ele>
        <time>2024-11-12T08:37:29Z</time>
      </trkpt>
      <trkpt lat="45.85935" lon="1.22805">
        <ele>292.4</ele>
        <time>2024-11-12T08:37:30Z</time>
      </trkpt>
      <trkpt lat="45.85936" lon="1.22805">
        <ele>292.5</ele>
        <time>2024-11-12T08:37:31Z</time>
      </trkpt>
      <trkpt lat="45.85938" lon="1.22805">
        <ele>292.5</ele>
        <time>2024-11-12T08:37:32Z</time>
      </trkpt>
      <trkpt lat="45.85938" lon="1.22805">
        <ele>292.5</ele>
        <time>2024-11-12T08:37:33Z</time>
      </trkpt>
      <trkpt lat="45.8594" lon="1.22805">
        <ele>292.5</ele>
        <time>2024-11-12T08:37:34Z</time>
      </trkpt>
      <trkpt lat="45.85941" lon="1.22806">
        <ele>292.5</ele>
        <time>2024-11-12T08:37:35Z</time>
      </trkpt>
      <trkpt lat="45.85942" lon="1.22806">
        <ele>292.6</ele>
        <time>2024-11-12T08:37:36Z</time>
      </trkpt>
      <trkpt lat="45.85943" lon="1.22806">
        <ele>292.6</ele>
        <time>2024-11-12T08:37:37Z</time>
      </trkpt>
      <trkpt lat="45.85944" lon="1.22807">
        <ele>292.6</ele>
        <time>2024-11-12T08:37:38Z</time>
      </trkpt>
      <trkpt lat="45.85945" lon="1.22808">
        <ele>292.6</ele>
        <time>2024-11-12T08:37:39Z</time>
      </trkpt>
      <trkpt lat="45.85947" lon="1.22809">
        <ele>292.7</ele>
        <time>2024-11-12T08:37:40Z</time>
      </trkpt>
      <trkpt lat="45.85948" lon="1.22809">
        <ele>292.7</ele>
        <time>2024-11-12T08:37:41Z</time>
      </trkpt>
      <trkpt lat="45.85949" lon="1.2281">
        <ele>292.7</ele>
        <time>2024-11-12T08:37:42Z</time>
      </trkpt>
      <trkpt lat="45.8595" lon="1.22811">
        <ele>292.7</ele>
        <time>2024-11-12T08:37:43Z</time>
      </trkpt>
      <trkpt lat="45.85951" lon="1.22811">
        <ele>292.7</ele>
        <time>2024-11-12T08:37:44Z</time>
      </trkpt>
      <trkpt lat="45.85953" lon="1.22812">
        <ele>292.8</ele>
        <time>2024-11-12T08:37:45Z</time>
      </trkpt>
      <trkpt lat="45.85953" lon="1.22813">
        <ele>292.8</ele>
        <time>2024-11-12T08:37:46Z</time>
      </trkpt>
      <trkpt lat="45.85954" lon="1.22813">
        <ele>292.8</ele>
        <time>2024-11-12T08:37:47Z</time>
      </trkpt>
      <trkpt lat="45.85956" lon="1.22814">
        <ele>292.9</ele>
        <time>2024-11-12T08:37:48Z</time>
      </trkpt>
      <trkpt lat="45.85957" lon="1.22815">
        <ele>292.9</ele>
        <time>2024-11-12T08:37:49Z</time>
      </trkpt>
      <trkpt lat="45.85958" lon="1.22815">
        <ele>292.9</ele>
        <time>2024-11-12T08:37:50Z</time>
      </trkpt>
      <trkpt lat="45.85959" lon="1.22816">
        <ele>293</ele>
        <time>2024-11-12T08:37:51Z</time>
      </trkpt>
      <trkpt lat="45.8596" lon="1.22817">
        <ele>293</ele>
        <time>2024-11-12T08:37:52Z</time>
      </trkpt>
      <trkpt lat="45.85962" lon="1.22818">
        <ele>293</ele>
        <time>2024-11-12T08:37:53Z</time>
      </trkpt>
      <trkpt lat="45.85963" lon="1.22819">
        <ele>293.1</ele>
        <time>2024-11-12T08:37:54Z</time>
      </trkpt>
      <trkpt lat="45.85964" lon="1.2282">
        <ele>293.1</ele>
        <time>2024-11-12T08:37:55Z</time>
      </trkpt>
      <trkpt lat="45.85965" lon="1.22821">
        <ele>293.1</ele>
        <time>2024-11-12T08:37:56Z</time>
      </trkpt>
      <trkpt lat="45.85966" lon="1.22822">
        <ele>293.2</ele>
        <time>2024-11-12T08:37:57Z</time>
      </trkpt>
      <trkpt lat="45.85968" lon="1.22822">
        <ele>293.2</ele>
        <time>2024-11-12T08:37:58Z</time>
      </trkpt>
      <trkpt lat="45.8597" lon="1.22825">
        <ele>293.3</ele>
        <time>2024-11-12T08:37:59Z</time>
      </trkpt>
      <trkpt lat="45.85971" lon="1.22826">
        <ele>293.3</ele>
        <time>2024-11-12T08:38:01Z</time>
      </trkpt>
      <trkpt lat="45.85971" lon="1.22827">
        <ele>293.3</ele>
        <time>2024-11-12T08:38:02Z</time>
      </trkpt>
      <trkpt lat="45.85972" lon="1.22829">
        <ele>293.4</ele>
        <time>2024-11-12T08:38:03Z</time>
      </trkpt>
      <trkpt lat="45.85971" lon="1.22829">
        <ele>293.4</ele>
        <time>2024-11-12T08:38:04Z</time>
      </trkpt>
      <trkpt lat="45.8597" lon="1.22829">
        <ele>293.4</ele>
        <time>2024-11-12T08:38:05Z</time>
      </trkpt>
      <trkpt lat="45.8597" lon="1.22829">
        <ele>293.4</ele>
        <time>2024-11-12T08:38:06Z</time>
      </trkpt>
      <trkpt lat="45.8597" lon="1.22829">
        <ele>293.4</ele>
        <time>2024-11-12T08:38:07Z</time>
      </trkpt>
      <trkpt lat="45.8597" lon="1.22829">
        <ele>293.4</ele>
        <time>2024-11-12T08:38:08Z</time>
      </trkpt>
      <trkpt lat="45.85969" lon="1.22829">
        <ele>293.4</ele>
        <time>2024-11-12T08:38:09Z</time>
      </trkpt>
      <trkpt lat="45.85969" lon="1.22829">
        <ele>293.4</ele>
        <time>2024-11-12T08:38:10Z</time>
      </trkpt>
      <trkpt lat="45.85969" lon="1.22829">
        <ele>293.5</ele>
        <time>2024-11-12T08:38:11Z</time>
      </trkpt>
      <trkpt lat="45.85968" lon="1.22829">
        <ele>293.5</ele>
        <time>2024-11-12T08:38:12Z</time>
      </trkpt>
      <trkpt lat="45.85968" lon="1.22829">
        <ele>293.5</ele>
        <time>2024-11-12T08:38:13Z</time>
      </trkpt>
      <trkpt lat="45.85968" lon="1.22829">
        <ele>293.5</ele>
        <time>2024-11-12T08:38:14Z</time>
      </trkpt>
      <trkpt lat="45.85968" lon="1.2283">
        <ele>293.5</ele>
        <time>2024-11-12T08:38:15Z</time>
      </trkpt>
      <trkpt lat="45.85967" lon="1.22832">
        <ele>293.5</ele>
        <time>2024-11-12T08:38:16Z</time>
      </trkpt>
      <trkpt lat="45.85968" lon="1.22833">
        <ele>293.6</ele>
        <time>2024-11-12T08:38:17Z</time>
      </trkpt>
      <trkpt lat="45.85968" lon="1.22834">
        <ele>293.6</ele>
        <time>2024-11-12T08:38:18Z</time>
      </trkpt>
      <trkpt lat="45.85967" lon="1.22837">
        <ele>293.6</ele>
        <time>2024-11-12T08:38:19Z</time>
      </trkpt>
      <trkpt lat="45.85967" lon="1.22841">
        <ele>293.7</ele>
        <time>2024-11-12T08:38:20Z</time>
      </trkpt>
      <trkpt lat="45.85967" lon="1.22842">
        <ele>293.7</ele>
        <time>2024-11-12T08:38:21Z</time>
      </trkpt>
      <trkpt lat="45.85967" lon="1.22844">
        <ele>293.8</ele>
        <time>2024-11-12T08:38:22Z</time>
      </trkpt>
      <trkpt lat="45.85967" lon="1.22846">
        <ele>293.8</ele>
        <time>2024-11-12T08:38:23Z</time>
      </trkpt>
      <trkpt lat="45.85967" lon="1.22848">
        <ele>293.9</ele>
        <time>2024-11-12T08:38:24Z</time>
      </trkpt>
      <trkpt lat="45.85967" lon="1.22851">
        <ele>293.9</ele>
        <time>2024-11-12T08:38:25Z</time>
      </trkpt>
      <trkpt lat="45.85967" lon="1.22852">
        <ele>294</ele>
        <time>2024-11-12T08:38:26Z</time>
      </trkpt>
      <trkpt lat="45.85967" lon="1.22855">
        <ele>294</ele>
        <time>2024-11-12T08:38:27Z</time>
      </trkpt>
      <trkpt lat="45.85967" lon="1.22856">
        <ele>294.1</ele>
        <time>2024-11-12T08:38:28Z</time>
      </trkpt>
      <trkpt lat="45.85968" lon="1.22858">
        <ele>294.1</ele>
        <time>2024-11-12T08:38:29Z</time>
      </trkpt>
      <trkpt lat="45.85968" lon="1.22859">
        <ele>294.1</ele>
        <time>2024-11-12T08:38:30Z</time>
      </trkpt>
      <trkpt lat="45.85968" lon="1.22859">
        <ele>294.1</ele>
        <time>2024-11-12T08:38:31Z</time>
      </trkpt>
      <trkpt lat="45.85968" lon="1.22857">
        <ele>294.2</ele>
        <time>2024-11-12T08:38:32Z</time>
      </trkpt>
      <trkpt lat="45.85968" lon="1.22857">
        <ele>294.2</ele>
        <time>2024-11-12T08:38:33Z</time>
      </trkpt>
      <trkpt lat="45.85968" lon="1.22857">
        <ele>294.2</ele>
        <time>2024-11-12T08:38:34Z</time>
      </trkpt>
      <trkpt lat="45.85967" lon="1.22856">
        <ele>294.2</ele>
        <time>2024-11-12T08:38:35Z</time>
      </trkpt>
      <trkpt lat="45.85968" lon="1.22857">
        <ele>294.2</ele>
        <time>2024-11-12T08:38:36Z</time>
      </trkpt>
      <trkpt lat="45.85968" lon="1.22857">
        <ele>294.2</ele>
        <time>2024-11-12T08:38:37Z</time>
      </trkpt>
      <trkpt lat="45.85968" lon="1.22857">
        <ele>294.2</ele>
        <time>2024-11-12T08:38:38Z</time>
      </trkpt>
      <trkpt lat="45.85968" lon="1.22858">
        <ele>294.3</ele>
        <time>2024-11-12T08:38:39Z</time>
      </trkpt>
      <trkpt lat="45.85968" lon="1.22859">
        <ele>294.3</ele>
        <time>2024-11-12T08:38:40Z</time>
      </trkpt>
      <trkpt lat="45.85969" lon="1.22861">
        <ele>294.3</ele>
        <time>2024-11-12T08:38:41Z</time>
      </trkpt>
      <trkpt lat="45.85969" lon="1.22863">
        <ele>294.4</ele>
        <time>2024-11-12T08:38:42Z</time>
      </trkpt>
      <trkpt lat="45.85969" lon="1.22868">
        <ele>294.5</ele>
        <time>2024-11-12T08:38:43Z</time>
      </trkpt>
      <trkpt lat="45.85969" lon="1.2287">
        <ele>294.6</ele>
        <time>2024-11-12T08:38:44Z</time>
      </trkpt>
      <trkpt lat="45.85969" lon="1.22872">
        <ele>294.6</ele>
        <time>2024-11-12T08:38:45Z</time>
      </trkpt>
      <trkpt lat="45.8597" lon="1.22874">
        <ele>294.7</ele>
        <time>2024-11-12T08:38:46Z</time>
      </trkpt>
      <trkpt lat="45.8597" lon="1.22877">
        <ele>294.8</ele>
        <time>2024-11-12T08:38:47Z</time>
      </trkpt>
      <trkpt lat="45.8597" lon="1.22878">
        <ele>294.9</ele>
        <time>2024-11-12T08:38:48Z</time>
      </trkpt>
      <trkpt lat="45.8597" lon="1.2288">
        <ele>294.9</ele>
        <time>2024-11-12T08:38:49Z</time>
      </trkpt>
      <trkpt lat="45.85971" lon="1.22882">
        <ele>295</ele>
        <time>2024-11-12T08:38:50Z</time>
      </trkpt>
      <trkpt lat="45.85972" lon="1.22883">
        <ele>295.1</ele>
        <time>2024-11-12T08:38:51Z</time>
      </trkpt>
      <trkpt lat="45.85973" lon="1.22886">
        <ele>295.2</ele>
        <time>2024-11-12T08:38:52Z</time>
      </trkpt>
      <trkpt lat="45.85973" lon="1.22887">
        <ele>295.2</ele>
        <time>2024-11-12T08:38:53Z</time>
      </trkpt>
      <trkpt lat="45.85973" lon="1.22888">
        <ele>295.3</ele>
        <time>2024-11-12T08:38:54Z</time>
      </trkpt>
      <trkpt lat="45.85974" lon="1.22891">
        <ele>295.4</ele>
        <time>2024-11-12T08:38:55Z</time>
      </trkpt>
      <trkpt lat="45.85974" lon="1.22892">
        <ele>295.4</ele>
        <time>2024-11-12T08:38:56Z</time>
      </trkpt>
      <trkpt lat="45.85975" lon="1.22893">
        <ele>295.5</ele>
        <time>2024-11-12T08:38:57Z</time>
      </trkpt>
      <trkpt lat="45.85975" lon="1.22896">
        <ele>295.6</ele>
        <time>2024-11-12T08:38:58Z</time>
      </trkpt>
      <trkpt lat="45.85975" lon="1.22898">
        <ele>295.7</ele>
        <time>2024-11-12T08:38:59Z</time>
      </trkpt>
      <trkpt lat="45.85975" lon="1.22899">
        <ele>295.8</ele>
        <time>2024-11-12T08:39:00Z</time>
      </trkpt>
      <trkpt lat="45.85976" lon="1.229">
        <ele>295.8</ele>
        <time>2024-11-12T08:39:01Z</time>
      </trkpt>
      <trkpt lat="45.85976" lon="1.22902">
        <ele>295.9</ele>
        <time>2024-11-12T08:39:02Z</time>
      </trkpt>
      <trkpt lat="45.85976" lon="1.22904">
        <ele>296</ele>
        <time>2024-11-12T08:39:03Z</time>
      </trkpt>
      <trkpt lat="45.85976" lon="1.22906">
        <ele>296.1</ele>
        <time>2024-11-12T08:39:04Z</time>
      </trkpt>
      <trkpt lat="45.85976" lon="1.22908">
        <ele>296.2</ele>
        <time>2024-11-12T08:39:05Z</time>
      </trkpt>
      <trkpt lat="45.85977" lon="1.22911">
        <ele>296.4</ele>
        <time>2024-11-12T08:39:06Z</time>
      </trkpt>
      <trkpt lat="45.85977" lon="1.22912">
        <ele>296.4</ele>
        <time>2024-11-12T08:39:07Z</time>
      </trkpt>
      <trkpt lat="45.85978" lon="1.22913">
        <ele>296.5</ele>
        <time>2024-11-12T08:39:08Z</time>
      </trkpt>
      <trkpt lat="45.85978" lon="1.22914">
        <ele>296.6</ele>
        <time>2024-11-12T08:39:09Z</time>
      </trkpt>
      <trkpt lat="45.85979" lon="1.22916">
        <ele>296.7</ele>
        <time>2024-11-12T08:39:10Z</time>
      </trkpt>
      <trkpt lat="45.8598" lon="1.22917">
        <ele>296.7</ele>
        <time>2024-11-12T08:39:11Z</time>
      </trkpt>
      <trkpt lat="45.8598" lon="1.22918">
        <ele>296.8</ele>
        <time>2024-11-12T08:39:12Z</time>
      </trkpt>
      <trkpt lat="45.85981" lon="1.22919">
        <ele>296.9</ele>
        <time>2024-11-12T08:39:13Z</time>
      </trkpt>
      <trkpt lat="45.85982" lon="1.2292">
        <ele>297</ele>
        <time>2024-11-12T08:39:14Z</time>
      </trkpt>
      <trkpt lat="45.85984" lon="1.2292">
        <ele>297.1</ele>
        <time>2024-11-12T08:39:15Z</time>
      </trkpt>
      <trkpt lat="45.85984" lon="1.2292">
        <ele>297.1</ele>
        <time>2024-11-12T08:39:16Z</time>
      </trkpt>
      <trkpt lat="45.85985" lon="1.2292">
        <ele>297.2</ele>
        <time>2024-11-12T08:39:17Z</time>
      </trkpt>
      <trkpt lat="45.85986" lon="1.2292">
        <ele>297.3</ele>
        <time>2024-11-12T08:39:18Z</time>
      </trkpt>
      <trkpt lat="45.85987" lon="1.22919">
        <ele>297.4</ele>
        <time>2024-11-12T08:39:19Z</time>
      </trkpt>
      <trkpt lat="45.85987" lon="1.22917">
        <ele>297.4</ele>
        <time>2024-11-12T08:39:20Z</time>
      </trkpt>
      <trkpt lat="45.85987" lon="1.22917">
        <ele>297.5</ele>
        <time>2024-11-12T08:39:21Z</time>
      </trkpt>
      <trkpt lat="45.85987" lon="1.22917">
        <ele>297.5</ele>
        <time>2024-11-12T08:39:22Z</time>
      </trkpt>
      <trkpt lat="45.85987" lon="1.22918">
        <ele>297.6</ele>
        <time>2024-11-12T08:39:23Z</time>
      </trkpt>
      <trkpt lat="45.85986" lon="1.22919">
        <ele>297.6</ele>
        <time>2024-11-12T08:39:24Z</time>
      </trkpt>
      <trkpt lat="45.85985" lon="1.2292">
        <ele>297.7</ele>
        <time>2024-11-12T08:39:25Z</time>
      </trkpt>
      <trkpt lat="45.85984" lon="1.2292">
        <ele>297.7</ele>
        <time>2024-11-12T08:39:26Z</time>
      </trkpt>
      <trkpt lat="45.85983" lon="1.2292">
        <ele>297.8</ele>
        <time>2024-11-12T08:39:27Z</time>
      </trkpt>
      <trkpt lat="45.85983" lon="1.22919">
        <ele>297.8</ele>
        <time>2024-11-12T08:39:28Z</time>
      </trkpt>
      <trkpt lat="45.85983" lon="1.22919">
        <ele>297.8</ele>
        <time>2024-11-12T08:39:29Z</time>
      </trkpt>
      <trkpt lat="45.85982" lon="1.22919">
        <ele>297.9</ele>
        <time>2024-11-12T08:39:30Z</time>
      </trkpt>
      <trkpt lat="45.85982" lon="1.2292">
        <ele>297.9</ele>
        <time>2024-11-12T08:39:31Z</time>
      </trkpt>
      <trkpt lat="45.85982" lon="1.2292">
        <ele>298</ele>
        <time>2024-11-12T08:39:32Z</time>
      </trkpt>
      <trkpt lat="45.85981" lon="1.22921">
        <ele>298</ele>
        <time>2024-11-12T08:39:33Z</time>
      </trkpt>
      <trkpt lat="45.85981" lon="1.22922">
        <ele>298</ele>
        <time>2024-11-12T08:39:34Z</time>
      </trkpt>
      <trkpt lat="45.85981" lon="1.22923">
        <ele>298.1</ele>
        <time>2024-11-12T08:39:35Z</time>
      </trkpt>
      <trkpt lat="45.85981" lon="1.22923">
        <ele>298.1</ele>
        <time>2024-11-12T08:39:36Z</time>
      </trkpt>
      <trkpt lat="45.85981" lon="1.22924">
        <ele>298.1</ele>
        <time>2024-11-12T08:39:37Z</time>
      </trkpt>
      <trkpt lat="45.85981" lon="1.22928">
        <ele>298.3</ele>
        <time>2024-11-12T08:39:38Z</time>
      </trkpt>
      <trkpt lat="45.85982" lon="1.22931">
        <ele>298.4</ele>
        <time>2024-11-12T08:39:39Z</time>
      </trkpt>
      <trkpt lat="45.85983" lon="1.22932">
        <ele>298.5</ele>
        <time>2024-11-12T08:39:40Z</time>
      </trkpt>
      <trkpt lat="45.85984" lon="1.22934">
        <ele>298.6</ele>
        <time>2024-11-12T08:39:41Z</time>
      </trkpt>
      <trkpt lat="45.85985" lon="1.22936">
        <ele>298.7</ele>
        <time>2024-11-12T08:39:42Z</time>
      </trkpt>
      <trkpt lat="45.85986" lon="1.22937">
        <ele>298.8</ele>
        <time>2024-11-12T08:39:43Z</time>
      </trkpt>
      <trkpt lat="45.85987" lon="1.22939">
        <ele>298.9</ele>
        <time>2024-11-12T08:39:44Z</time>
      </trkpt>
      <trkpt lat="45.85987" lon="1.22941">
        <ele>299</ele>
        <time>2024-11-12T08:39:45Z</time>
      </trkpt>
      <trkpt lat="45.85988" lon="1.22943">
        <ele>299.1</ele>
        <time>2024-11-12T08:39:46Z</time>
      </trkpt>
      <trkpt lat="45.8599" lon="1.22944">
        <ele>299.2</ele>
        <time>2024-11-12T08:39:47Z</time>
      </trkpt>
      <trkpt lat="45.85991" lon="1.22946">
        <ele>299.3</ele>
        <time>2024-11-12T08:39:48Z</time>
      </trkpt>
      <trkpt lat="45.85992" lon="1.22947">
        <ele>299.4</ele>
        <time>2024-11-12T08:39:49Z</time>
      </trkpt>
      <trkpt lat="45.85993" lon="1.2295">
        <ele>299.5</ele>
        <time>2024-11-12T08:39:50Z</time>
      </trkpt>
      <trkpt lat="45.85994" lon="1.22951">
        <ele>299.6</ele>
        <time>2024-11-12T08:39:51Z</time>
      </trkpt>
      <trkpt lat="45.85995" lon="1.22953">
        <ele>299.7</ele>
        <time>2024-11-12T08:39:52Z</time>
      </trkpt>
      <trkpt lat="45.85996" lon="1.22954">
        <ele>299.8</ele>
        <time>2024-11-12T08:39:53Z</time>
      </trkpt>
      <trkpt lat="45.85998" lon="1.22956">
        <ele>299.9</ele>
        <time>2024-11-12T08:39:54Z</time>
      </trkpt>
      <trkpt lat="45.85999" lon="1.22957">
        <ele>300</ele>
        <time>2024-11-12T08:39:55Z</time>
      </trkpt>
      <trkpt lat="45.86" lon="1.22959">
        <ele>300.1</ele>
        <time>2024-11-12T08:39:56Z</time>
      </trkpt>
      <trkpt lat="45.86001" lon="1.22961">
        <ele>300.2</ele>
        <time>2024-11-12T08:39:57Z</time>
      </trkpt>
      <trkpt lat="45.86002" lon="1.22963">
        <ele>300.3</ele>
        <time>2024-11-12T08:39:58Z</time>
      </trkpt>
      <trkpt lat="45.86003" lon="1.22965">
        <ele>300.4</ele>
        <time>2024-11-12T08:39:59Z</time>
      </trkpt>
      <trkpt lat="45.86004" lon="1.22966">
        <ele>300.5</ele>
        <time>2024-11-12T08:40:00Z</time>
      </trkpt>
      <trkpt lat="45.86005" lon="1.22968">
        <ele>300.6</ele>
        <time>2024-11-12T08:40:01Z</time>
      </trkpt>
      <trkpt lat="45.86005" lon="1.22969">
        <ele>300.7</ele>
        <time>2024-11-12T08:40:02Z</time>
      </trkpt>
      <trkpt lat="45.86006" lon="1.22971">
        <ele>300.8</ele>
        <time>2024-11-12T08:40:03Z</time>
      </trkpt>
      <trkpt lat="45.86007" lon="1.22973">
        <ele>300.9</ele>
        <time>2024-11-12T08:40:04Z</time>
      </trkpt>
      <trkpt lat="45.86007" lon="1.22976">
        <ele>301</ele>
        <time>2024-11-12T08:40:05Z</time>
      </trkpt>
      <trkpt lat="45.86008" lon="1.22977">
        <ele>301.1</ele>
        <time>2024-11-12T08:40:06Z</time>
      </trkpt>
      <trkpt lat="45.86008" lon="1.22979">
        <ele>301.2</ele>
        <time>2024-11-12T08:40:07Z</time>
      </trkpt>
      <trkpt lat="45.86008" lon="1.22981">
        <ele>301.3</ele>
        <time>2024-11-12T08:40:08Z</time>
      </trkpt>
      <trkpt lat="45.86009" lon="1.22982">
        <ele>301.4</ele>
        <time>2024-11-12T08:40:09Z</time>
      </trkpt>
      <trkpt lat="45.86009" lon="1.22983">
        <ele>301.4</ele>
        <time>2024-11-12T08:40:10Z</time>
      </trkpt>
      <trkpt lat="45.86011" lon="1.22986">
        <ele>301.6</ele>
        <time>2024-11-12T08:40:11Z</time>
      </trkpt>
      <trkpt lat="45.86011" lon="1.22986">
        <ele>301.6</ele>
        <time>2024-11-12T08:40:12Z</time>
      </trkpt>
      <trkpt lat="45.86012" lon="1.22987">
        <ele>301.7</ele>
        <time>2024-11-12T08:40:13Z</time>
      </trkpt>
      <trkpt lat="45.86013" lon="1.2299">
        <ele>301.8</ele>
        <time>2024-11-12T08:40:14Z</time>
      </trkpt>
      <trkpt lat="45.86013" lon="1.22991">
        <ele>301.9</ele>
        <time>2024-11-12T08:40:15Z</time>
      </trkpt>
      <trkpt lat="45.86013" lon="1.22993">
        <ele>302</ele>
        <time>2024-11-12T08:40:16Z</time>
      </trkpt>
      <trkpt lat="45.86012" lon="1.22996">
        <ele>302.1</ele>
        <time>2024-11-12T08:40:17Z</time>
      </trkpt>
      <trkpt lat="45.86012" lon="1.22997">
        <ele>302.2</ele>
        <time>2024-11-12T08:40:18Z</time>
      </trkpt>
      <trkpt lat="45.86011" lon="1.22998">
        <ele>302.3</ele>
        <time>2024-11-12T08:40:19Z</time>
      </trkpt>
      <trkpt lat="45.8601" lon="1.23001">
        <ele>302.4</ele>
        <time>2024-11-12T08:40:20Z</time>
      </trkpt>
      <trkpt lat="45.8601" lon="1.23002">
        <ele>302.5</ele>
        <time>2024-11-12T08:40:21Z</time>
      </trkpt>
      <trkpt lat="45.8601" lon="1.23003">
        <ele>302.6</ele>
        <time>2024-11-12T08:40:22Z</time>
      </trkpt>
      <trkpt lat="45.86009" lon="1.23005">
        <ele>302.7</ele>
        <time>2024-11-12T08:40:23Z</time>
      </trkpt>
      <trkpt lat="45.86008" lon="1.23007">
        <ele>302.8</ele>
        <time>2024-11-12T08:40:24Z</time>
      </trkpt>
      <trkpt lat="45.86007" lon="1.23009">
        <ele>303</ele>
        <time>2024-11-12T08:40:25Z</time>
      </trkpt>
      <trkpt lat="45.86007" lon="1.23011">
        <ele>303</ele>
        <time>2024-11-12T08:40:26Z</time>
      </trkpt>
      <trkpt lat="45.86006" lon="1.23012">
        <ele>303.1</ele>
        <time>2024-11-12T08:40:27Z</time>
      </trkpt>
      <trkpt lat="45.86005" lon="1.23013">
        <ele>303.2</ele>
        <time>2024-11-12T08:40:28Z</time>
      </trkpt>
      <trkpt lat="45.86005" lon="1.23016">
        <ele>303.3</ele>
        <time>2024-11-12T08:40:29Z</time>
      </trkpt>
      <trkpt lat="45.86004" lon="1.23016">
        <ele>303.4</ele>
        <time>2024-11-12T08:40:30Z</time>
      </trkpt>
      <trkpt lat="45.86003" lon="1.23018">
        <ele>303.5</ele>
        <time>2024-11-12T08:40:31Z</time>
      </trkpt>
      <trkpt lat="45.86003" lon="1.2302">
        <ele>303.5</ele>
        <time>2024-11-12T08:40:32Z</time>
      </trkpt>
      <trkpt lat="45.86002" lon="1.23022">
        <ele>303.7</ele>
        <time>2024-11-12T08:40:33Z</time>
      </trkpt>
      <trkpt lat="45.86001" lon="1.23023">
        <ele>303.7</ele>
        <time>2024-11-12T08:40:34Z</time>
      </trkpt>
      <trkpt lat="45.86" lon="1.23026">
        <ele>303.9</ele>
        <time>2024-11-12T08:40:35Z</time>
      </trkpt>
      <trkpt lat="45.86" lon="1.23027">
        <ele>304</ele>
        <time>2024-11-12T08:40:36Z</time>
      </trkpt>
      <trkpt lat="45.85999" lon="1.23028">
        <ele>304</ele>
        <time>2024-11-12T08:40:37Z</time>
      </trkpt>
      <trkpt lat="45.85999" lon="1.2303">
        <ele>304.1</ele>
        <time>2024-11-12T08:40:38Z</time>
      </trkpt>
      <trkpt lat="45.85997" lon="1.23031">
        <ele>304.2</ele>
        <time>2024-11-12T08:40:39Z</time>
      </trkpt>
      <trkpt lat="45.85997" lon="1.23032">
        <ele>304.3</ele>
        <time>2024-11-12T08:40:40Z</time>
      </trkpt>
      <trkpt lat="45.85996" lon="1.23033">
        <ele>304.3</ele>
        <time>2024-11-12T08:40:41Z</time>
      </trkpt>
      <trkpt lat="45.85996" lon="1.23032">
        <ele>304.4</ele>
        <time>2024-11-12T08:40:42Z</time>
      </trkpt>
      <trkpt lat="45.85996" lon="1.23031">
        <ele>304.4</ele>
        <time>2024-11-12T08:40:43Z</time>
      </trkpt>
      <trkpt lat="45.85996" lon="1.23031">
        <ele>304.4</ele>
        <time>2024-11-12T08:40:44Z</time>
      </trkpt>
      <trkpt lat="45.85996" lon="1.23031">
        <ele>304.4</ele>
        <time>2024-11-12T08:40:45Z</time>
      </trkpt>
      <trkpt lat="45.85995" lon="1.23031">
        <ele>304.5</ele>
        <time>2024-11-12T08:40:46Z</time>
      </trkpt>
      <trkpt lat="45.85995" lon="1.23031">
        <ele>304.5</ele>
        <time>2024-11-12T08:40:47Z</time>
      </trkpt>
      <trkpt lat="45.85995" lon="1.23031">
        <ele>304.5</ele>
        <time>2024-11-12T08:40:48Z</time>
      </trkpt>
      <trkpt lat="45.85995" lon="1.23031">
        <ele>304.5</ele>
        <time>2024-11-12T08:40:49Z</time>
      </trkpt>
      <trkpt lat="45.85995" lon="1.23031">
        <ele>304.5</ele>
        <time>2024-11-12T08:40:50Z</time>
      </trkpt>
      <trkpt lat="45.85995" lon="1.23031">
        <ele>304.5</ele>
        <time>2024-11-12T08:40:51Z</time>
      </trkpt>
      <trkpt lat="45.85995" lon="1.23031">
        <ele>304.5</ele>
        <time>2024-11-12T08:40:52Z</time>
      </trkpt>
      <trkpt lat="45.85995" lon="1.23032">
        <ele>304.5</ele>
        <time>2024-11-12T08:40:53Z</time>
      </trkpt>
      <trkpt lat="45.85995" lon="1.23032">
        <ele>304.5</ele>
        <time>2024-11-12T08:40:54Z</time>
      </trkpt>
      <trkpt lat="45.85995" lon="1.23032">
        <ele>304.5</ele>
        <time>2024-11-12T08:40:55Z</time>
      </trkpt>
      <trkpt lat="45.85995" lon="1.23032">
        <ele>304.5</ele>
        <time>2024-11-12T08:40:56Z</time>
      </trkpt>
      <trkpt lat="45.85994" lon="1.23033">
        <ele>304.6</ele>
        <time>2024-11-12T08:40:57Z</time>
      </trkpt>
      <trkpt lat="45.85993" lon="1.23034">
        <ele>304.7</ele>
        <time>2024-11-12T08:40:58Z</time>
      </trkpt>
      <trkpt lat="45.85992" lon="1.23036">
        <ele>304.8</ele>
        <time>2024-11-12T08:40:59Z</time>
      </trkpt>
      <trkpt lat="45.8599" lon="1.23038">
        <ele>304.9</ele>
        <time>2024-11-12T08:41:00Z</time>
      </trkpt>
      <trkpt lat="45.8599" lon="1.23039">
        <ele>305</ele>
        <time>2024-11-12T08:41:01Z</time>
      </trkpt>
      <trkpt lat="45.85989" lon="1.2304">
        <ele>305.1</ele>
        <time>2024-11-12T08:41:02Z</time>
      </trkpt>
      <trkpt lat="45.85988" lon="1.23041">
        <ele>305.1</ele>
        <time>2024-11-12T08:41:03Z</time>
      </trkpt>
      <trkpt lat="45.85987" lon="1.23042">
        <ele>305.2</ele>
        <time>2024-11-12T08:41:04Z</time>
      </trkpt>
      <trkpt lat="45.85986" lon="1.23042">
        <ele>305.3</ele>
        <time>2024-11-12T08:41:05Z</time>
      </trkpt>
      <trkpt lat="45.85985" lon="1.23043">
        <ele>305.4</ele>
        <time>2024-11-12T08:41:06Z</time>
      </trkpt>
      <trkpt lat="45.85984" lon="1.23044">
        <ele>305.5</ele>
        <time>2024-11-12T08:41:07Z</time>
      </trkpt>
      <trkpt lat="45.85983" lon="1.23045">
        <ele>305.5</ele>
        <time>2024-11-12T08:41:08Z</time>
      </trkpt>
      <trkpt lat="45.85982" lon="1.23046">
        <ele>305.6</ele>
        <time>2024-11-12T08:41:09Z</time>
      </trkpt>
      <trkpt lat="45.85981" lon="1.23046">
        <ele>305.7</ele>
        <time>2024-11-12T08:41:10Z</time>
      </trkpt>
      <trkpt lat="45.8598" lon="1.23047">
        <ele>305.7</ele>
        <time>2024-11-12T08:41:11Z</time>
      </trkpt>
      <trkpt lat="45.85978" lon="1.23048">
        <ele>305.7</ele>
        <time>2024-11-12T08:41:12Z</time>
      </trkpt>
      <trkpt lat="45.85977" lon="1.23048">
        <ele>305.7</ele>
        <time>2024-11-12T08:41:13Z</time>
      </trkpt>
      <trkpt lat="45.85976" lon="1.23048">
        <ele>305.7</ele>
        <time>2024-11-12T08:41:14Z</time>
      </trkpt>
      <trkpt lat="45.85975" lon="1.23048">
        <ele>305.8</ele>
        <time>2024-11-12T08:41:15Z</time>
      </trkpt>
      <trkpt lat="45.85974" lon="1.23049">
        <ele>305.8</ele>
        <time>2024-11-12T08:41:16Z</time>
      </trkpt>
      <trkpt lat="45.85973" lon="1.2305">
        <ele>305.8</ele>
        <time>2024-11-12T08:41:17Z</time>
      </trkpt>
      <trkpt lat="45.85971" lon="1.23052">
        <ele>305.8</ele>
        <time>2024-11-12T08:41:18Z</time>
      </trkpt>
      <trkpt lat="45.8597" lon="1.23053">
        <ele>305.8</ele>
        <time>2024-11-12T08:41:19Z</time>
      </trkpt>
      <trkpt lat="45.8597" lon="1.23054">
        <ele>305.9</ele>
        <time>2024-11-12T08:41:20Z</time>
      </trkpt>
      <trkpt lat="45.85969" lon="1.23054">
        <ele>305.9</ele>
        <time>2024-11-12T08:41:21Z</time>
      </trkpt>
      <trkpt lat="45.85968" lon="1.23054">
        <ele>305.9</ele>
        <time>2024-11-12T08:41:22Z</time>
      </trkpt>
      <trkpt lat="45.85967" lon="1.23054">
        <ele>305.9</ele>
        <time>2024-11-12T08:41:23Z</time>
      </trkpt>
      <trkpt lat="45.85965" lon="1.23054">
        <ele>305.9</ele>
        <time>2024-11-12T08:41:24Z</time>
      </trkpt>
      <trkpt lat="45.85964" lon="1.23054">
        <ele>305.9</ele>
        <time>2024-11-12T08:41:25Z</time>
      </trkpt>
      <trkpt lat="45.85963" lon="1.23054">
        <ele>305.9</ele>
        <time>2024-11-12T08:41:26Z</time>
      </trkpt>
      <trkpt lat="45.85961" lon="1.23054">
        <ele>305.9</ele>
        <time>2024-11-12T08:41:27Z</time>
      </trkpt>
      <trkpt lat="45.8596" lon="1.23054">
        <ele>305.9</ele>
        <time>2024-11-12T08:41:28Z</time>
      </trkpt>
      <trkpt lat="45.85959" lon="1.23053">
        <ele>305.8</ele>
        <time>2024-11-12T08:41:29Z</time>
      </trkpt>
      <trkpt lat="45.85956" lon="1.23053">
        <ele>305.7</ele>
        <time>2024-11-12T08:41:30Z</time>
      </trkpt>
      <trkpt lat="45.85955" lon="1.23052">
        <ele>305.6</ele>
        <time>2024-11-12T08:41:31Z</time>
      </trkpt>
      <trkpt lat="45.85952" lon="1.23052">
        <ele>305.5</ele>
        <time>2024-11-12T08:41:33Z</time>
      </trkpt>
      <trkpt lat="45.85951" lon="1.23052">
        <ele>305.4</ele>
        <time>2024-11-12T08:41:34Z</time>
      </trkpt>
      <trkpt lat="45.85949" lon="1.23051">
        <ele>305.4</ele>
        <time>2024-11-12T08:41:35Z</time>
      </trkpt>
      <trkpt lat="45.85948" lon="1.23051">
        <ele>305.3</ele>
        <time>2024-11-12T08:41:36Z</time>
      </trkpt>
      <trkpt lat="45.85947" lon="1.23051">
        <ele>305.3</ele>
        <time>2024-11-12T08:41:37Z</time>
      </trkpt>
      <trkpt lat="45.85945" lon="1.2305">
        <ele>305.1</ele>
        <time>2024-11-12T08:41:38Z</time>
      </trkpt>
      <trkpt lat="45.85944" lon="1.2305">
        <ele>305.1</ele>
        <time>2024-11-12T08:41:39Z</time>
      </trkpt>
      <trkpt lat="45.85943" lon="1.2305">
        <ele>305</ele>
        <time>2024-11-12T08:41:40Z</time>
      </trkpt>
      <trkpt lat="45.85941" lon="1.2305">
        <ele>305</ele>
        <time>2024-11-12T08:41:41Z</time>
      </trkpt>
      <trkpt lat="45.8594" lon="1.2305">
        <ele>304.9</ele>
        <time>2024-11-12T08:41:42Z</time>
      </trkpt>
      <trkpt lat="45.85939" lon="1.2305">
        <ele>304.9</ele>
        <time>2024-11-12T08:41:43Z</time>
      </trkpt>
      <trkpt lat="45.85937" lon="1.2305">
        <ele>304.8</ele>
        <time>2024-11-12T08:41:44Z</time>
      </trkpt>
      <trkpt lat="45.85936" lon="1.2305">
        <ele>304.8</ele>
        <time>2024-11-12T08:41:45Z</time>
      </trkpt>
      <trkpt lat="45.85935" lon="1.23049">
        <ele>304.7</ele>
        <time>2024-11-12T08:41:46Z</time>
      </trkpt>
      <trkpt lat="45.85934" lon="1.23049">
        <ele>304.7</ele>
        <time>2024-11-12T08:41:47Z</time>
      </trkpt>
      <trkpt lat="45.85933" lon="1.23049">
        <ele>304.6</ele>
        <time>2024-11-12T08:41:48Z</time>
      </trkpt>
      <trkpt lat="45.85931" lon="1.23048">
        <ele>304.6</ele>
        <time>2024-11-12T08:41:49Z</time>
      </trkpt>
      <trkpt lat="45.85931" lon="1.23049">
        <ele>304.5</ele>
        <time>2024-11-12T08:41:50Z</time>
      </trkpt>
      <trkpt lat="45.8593" lon="1.23049">
        <ele>304.5</ele>
        <time>2024-11-12T08:41:51Z</time>
      </trkpt>
      <trkpt lat="45.85929" lon="1.23049">
        <ele>304.4</ele>
        <time>2024-11-12T08:41:52Z</time>
      </trkpt>
      <trkpt lat="45.85928" lon="1.23049">
        <ele>304.4</ele>
        <time>2024-11-12T08:41:53Z</time>
      </trkpt>
      <trkpt lat="45.85926" lon="1.23049">
        <ele>304.3</ele>
        <time>2024-11-12T08:41:54Z</time>
      </trkpt>
      <trkpt lat="45.85925" lon="1.23049">
        <ele>304.3</ele>
        <time>2024-11-12T08:41:55Z</time>
      </trkpt>
      <trkpt lat="45.85923" lon="1.23049">
        <ele>304.2</ele>
        <time>2024-11-12T08:41:56Z</time>
      </trkpt>
      <trkpt lat="45.85922" lon="1.23049">
        <ele>304.2</ele>
        <time>2024-11-12T08:41:57Z</time>
      </trkpt>
      <trkpt lat="45.8592" lon="1.23049">
        <ele>304.1</ele>
        <time>2024-11-12T08:41:58Z</time>
      </trkpt>
      <trkpt lat="45.85919" lon="1.23049">
        <ele>304.1</ele>
        <time>2024-11-12T08:41:59Z</time>
      </trkpt>
      <trkpt lat="45.85917" lon="1.23049">
        <ele>304</ele>
        <time>2024-11-12T08:42:00Z</time>
      </trkpt>
      <trkpt lat="45.85915" lon="1.23049">
        <ele>304</ele>
        <time>2024-11-12T08:42:01Z</time>
      </trkpt>
      <trkpt lat="45.85913" lon="1.23049">
        <ele>303.9</ele>
        <time>2024-11-12T08:42:02Z</time>
      </trkpt>
      <trkpt lat="45.85913" lon="1.23049">
        <ele>303.9</ele>
        <time>2024-11-12T08:42:03Z</time>
      </trkpt>
      <trkpt lat="45.85912" lon="1.23049">
        <ele>303.9</ele>
        <time>2024-11-12T08:42:04Z</time>
      </trkpt>
      <trkpt lat="45.8591" lon="1.23048">
        <ele>303.8</ele>
        <time>2024-11-12T08:42:05Z</time>
      </trkpt>
      <trkpt lat="45.85909" lon="1.23047">
        <ele>303.8</ele>
        <time>2024-11-12T08:42:06Z</time>
      </trkpt>
      <trkpt lat="45.85908" lon="1.23047">
        <ele>303.8</ele>
        <time>2024-11-12T08:42:07Z</time>
      </trkpt>
      <trkpt lat="45.85907" lon="1.23047">
        <ele>303.7</ele>
        <time>2024-11-12T08:42:08Z</time>
      </trkpt>
      <trkpt lat="45.85906" lon="1.23045">
        <ele>303.7</ele>
        <time>2024-11-12T08:42:09Z</time>
      </trkpt>
      <trkpt lat="45.85905" lon="1.23044">
        <ele>303.6</ele>
        <time>2024-11-12T08:42:10Z</time>
      </trkpt>
      <trkpt lat="45.85904" lon="1.23043">
        <ele>303.6</ele>
        <time>2024-11-12T08:42:11Z</time>
      </trkpt>
      <trkpt lat="45.85902" lon="1.23042">
        <ele>303.5</ele>
        <time>2024-11-12T08:42:12Z</time>
      </trkpt>
      <trkpt lat="45.85901" lon="1.23041">
        <ele>303.5</ele>
        <time>2024-11-12T08:42:13Z</time>
      </trkpt>
      <trkpt lat="45.859" lon="1.23039">
        <ele>303.4</ele>
        <time>2024-11-12T08:42:14Z</time>
      </trkpt>
      <trkpt lat="45.85899" lon="1.23038">
        <ele>303.4</ele>
        <time>2024-11-12T08:42:15Z</time>
      </trkpt>
      <trkpt lat="45.85899" lon="1.23037">
        <ele>303.3</ele>
        <time>2024-11-12T08:42:16Z</time>
      </trkpt>
      <trkpt lat="45.85898" lon="1.23035">
        <ele>303.3</ele>
        <time>2024-11-12T08:42:17Z</time>
      </trkpt>
      <trkpt lat="45.85897" lon="1.23033">
        <ele>303.2</ele>
        <time>2024-11-12T08:42:18Z</time>
      </trkpt>
      <trkpt lat="45.85896" lon="1.23031">
        <ele>303.2</ele>
        <time>2024-11-12T08:42:19Z</time>
      </trkpt>
      <trkpt lat="45.85895" lon="1.2303">
        <ele>303.1</ele>
        <time>2024-11-12T08:42:20Z</time>
      </trkpt>
      <trkpt lat="45.85894" lon="1.23028">
        <ele>303.1</ele>
        <time>2024-11-12T08:42:21Z</time>
      </trkpt>
      <trkpt lat="45.85893" lon="1.23027">
        <ele>303</ele>
        <time>2024-11-12T08:42:22Z</time>
      </trkpt>
      <trkpt lat="45.85892" lon="1.23026">
        <ele>303</ele>
        <time>2024-11-12T08:42:23Z</time>
      </trkpt>
      <trkpt lat="45.85892" lon="1.23025">
        <ele>303</ele>
        <time>2024-11-12T08:42:24Z</time>
      </trkpt>
      <trkpt lat="45.85891" lon="1.23024">
        <ele>303</ele>
        <time>2024-11-12T08:42:25Z</time>
      </trkpt>
      <trkpt lat="45.8589" lon="1.23023">
        <ele>302.9</ele>
        <time>2024-11-12T08:42:26Z</time>
      </trkpt>
      <trkpt lat="45.85889" lon="1.23022">
        <ele>302.9</ele>
        <time>2024-11-12T08:42:27Z</time>
      </trkpt>
      <trkpt lat="45.85888" lon="1.2302">
        <ele>302.9</ele>
        <time>2024-11-12T08:42:28Z</time>
      </trkpt>
      <trkpt lat="45.85887" lon="1.2302">
        <ele>302.8</ele>
        <time>2024-11-12T08:42:29Z</time>
      </trkpt>
      <trkpt lat="45.85886" lon="1.23018">
        <ele>302.8</ele>
        <time>2024-11-12T08:42:30Z</time>
      </trkpt>
      <trkpt lat="45.85885" lon="1.23017">
        <ele>302.8</ele>
        <time>2024-11-12T08:42:31Z</time>
      </trkpt>
      <trkpt lat="45.85884" lon="1.23016">
        <ele>302.8</ele>
        <time>2024-11-12T08:42:32Z</time>
      </trkpt>
      <trkpt lat="45.85883" lon="1.23014">
        <ele>302.7</ele>
        <time>2024-11-12T08:42:33Z</time>
      </trkpt>
      <trkpt lat="45.85883" lon="1.23013">
        <ele>302.7</ele>
        <time>2024-11-12T08:42:34Z</time>
      </trkpt>
      <trkpt lat="45.85881" lon="1.23011">
        <ele>302.7</ele>
        <time>2024-11-12T08:42:35Z</time>
      </trkpt>
      <trkpt lat="45.85881" lon="1.2301">
        <ele>302.7</ele>
        <time>2024-11-12T08:42:36Z</time>
      </trkpt>
      <trkpt lat="45.8588" lon="1.23009">
        <ele>302.6</ele>
        <time>2024-11-12T08:42:37Z</time>
      </trkpt>
      <trkpt lat="45.85878" lon="1.23007">
        <ele>302.6</ele>
        <time>2024-11-12T08:42:38Z</time>
      </trkpt>
      <trkpt lat="45.85878" lon="1.23006">
        <ele>302.6</ele>
        <time>2024-11-12T08:42:39Z</time>
      </trkpt>
      <trkpt lat="45.85877" lon="1.23005">
        <ele>302.6</ele>
        <time>2024-11-12T08:42:40Z</time>
      </trkpt>
      <trkpt lat="45.85876" lon="1.23004">
        <ele>302.6</ele>
        <time>2024-11-12T08:42:41Z</time>
      </trkpt>
      <trkpt lat="45.85875" lon="1.23002">
        <ele>302.6</ele>
        <time>2024-11-12T08:42:42Z</time>
      </trkpt>
      <trkpt lat="45.85873" lon="1.23">
        <ele>302.6</ele>
        <time>2024-11-12T08:42:43Z</time>
      </trkpt>
      <trkpt lat="45.85873" lon="1.23">
        <ele>302.6</ele>
        <time>2024-11-12T08:42:44Z</time>
      </trkpt>
      <trkpt lat="45.85872" lon="1.22999">
        <ele>302.6</ele>
        <time>2024-11-12T08:42:45Z</time>
      </trkpt>
      <trkpt lat="45.8587" lon="1.22998">
        <ele>302.6</ele>
        <time>2024-11-12T08:42:46Z</time>
      </trkpt>
      <trkpt lat="45.8587" lon="1.22997">
        <ele>302.6</ele>
        <time>2024-11-12T08:42:47Z</time>
      </trkpt>
      <trkpt lat="45.85869" lon="1.22996">
        <ele>302.6</ele>
        <time>2024-11-12T08:42:48Z</time>
      </trkpt>
      <trkpt lat="45.85868" lon="1.22995">
        <ele>302.6</ele>
        <time>2024-11-12T08:42:49Z</time>
      </trkpt>
      <trkpt lat="45.85867" lon="1.22994">
        <ele>302.6</ele>
        <time>2024-11-12T08:42:50Z</time>
      </trkpt>
      <trkpt lat="45.85867" lon="1.22993">
        <ele>302.6</ele>
        <time>2024-11-12T08:42:51Z</time>
      </trkpt>
      <trkpt lat="45.85865" lon="1.22991">
        <ele>302.7</ele>
        <time>2024-11-12T08:42:52Z</time>
      </trkpt>
      <trkpt lat="45.85864" lon="1.2299">
        <ele>302.7</ele>
        <time>2024-11-12T08:42:53Z</time>
      </trkpt>
      <trkpt lat="45.85864" lon="1.22989">
        <ele>302.7</ele>
        <time>2024-11-12T08:42:54Z</time>
      </trkpt>
      <trkpt lat="45.85863" lon="1.22987">
        <ele>302.7</ele>
        <time>2024-11-12T08:42:55Z</time>
      </trkpt>
      <trkpt lat="45.85862" lon="1.22986">
        <ele>302.7</ele>
        <time>2024-11-12T08:42:56Z</time>
      </trkpt>
      <trkpt lat="45.8586" lon="1.22984">
        <ele>302.8</ele>
        <time>2024-11-12T08:42:57Z</time>
      </trkpt>
      <trkpt lat="45.85859" lon="1.22983">
        <ele>302.8</ele>
        <time>2024-11-12T08:42:58Z</time>
      </trkpt>
      <trkpt lat="45.85857" lon="1.22982">
        <ele>302.9</ele>
        <time>2024-11-12T08:42:59Z</time>
      </trkpt>
      <trkpt lat="45.85856" lon="1.22981">
        <ele>302.9</ele>
        <time>2024-11-12T08:43:00Z</time>
      </trkpt>
      <trkpt lat="45.85855" lon="1.22981">
        <ele>302.9</ele>
        <time>2024-11-12T08:43:01Z</time>
      </trkpt>
      <trkpt lat="45.85853" lon="1.22981">
        <ele>303</ele>
        <time>2024-11-12T08:43:02Z</time>
      </trkpt>
      <trkpt lat="45.85852" lon="1.22981">
        <ele>303</ele>
        <time>2024-11-12T08:43:03Z</time>
      </trkpt>
      <trkpt lat="45.8585" lon="1.22981">
        <ele>303.1</ele>
        <time>2024-11-12T08:43:04Z</time>
      </trkpt>
      <trkpt lat="45.85849" lon="1.22981">
        <ele>303.1</ele>
        <time>2024-11-12T08:43:05Z</time>
      </trkpt>
      <trkpt lat="45.85848" lon="1.22982">
        <ele>303.2</ele>
        <time>2024-11-12T08:43:06Z</time>
      </trkpt>
      <trkpt lat="45.85847" lon="1.22983">
        <ele>303.2</ele>
        <time>2024-11-12T08:43:07Z</time>
      </trkpt>
      <trkpt lat="45.85845" lon="1.22984">
        <ele>303.3</ele>
        <time>2024-11-12T08:43:08Z</time>
      </trkpt>
      <trkpt lat="45.85844" lon="1.22985">
        <ele>303.3</ele>
        <time>2024-11-12T08:43:09Z</time>
      </trkpt>
      <trkpt lat="45.85843" lon="1.22985">
        <ele>303.4</ele>
        <time>2024-11-12T08:43:10Z</time>
      </trkpt>
      <trkpt lat="45.85842" lon="1.22986">
        <ele>303.4</ele>
        <time>2024-11-12T08:43:11Z</time>
      </trkpt>
      <trkpt lat="45.8584" lon="1.22988">
        <ele>303.5</ele>
        <time>2024-11-12T08:43:12Z</time>
      </trkpt>
      <trkpt lat="45.85839" lon="1.22989">
        <ele>303.5</ele>
        <time>2024-11-12T08:43:13Z</time>
      </trkpt>
      <trkpt lat="45.85838" lon="1.2299">
        <ele>303.5</ele>
        <time>2024-11-12T08:43:14Z</time>
      </trkpt>
      <trkpt lat="45.85836" lon="1.22992">
        <ele>303.6</ele>
        <time>2024-11-12T08:43:15Z</time>
      </trkpt>
      <trkpt lat="45.85836" lon="1.22992">
        <ele>303.6</ele>
        <time>2024-11-12T08:43:16Z</time>
      </trkpt>
      <trkpt lat="45.85835" lon="1.22993">
        <ele>303.7</ele>
        <time>2024-11-12T08:43:17Z</time>
      </trkpt>
      <trkpt lat="45.85834" lon="1.22993">
        <ele>303.7</ele>
        <time>2024-11-12T08:43:18Z</time>
      </trkpt>
      <trkpt lat="45.85833" lon="1.22993">
        <ele>303.7</ele>
        <time>2024-11-12T08:43:19Z</time>
      </trkpt>
      <trkpt lat="45.85832" lon="1.22994">
        <ele>303.7</ele>
        <time>2024-11-12T08:43:20Z</time>
      </trkpt>
      <trkpt lat="45.8583" lon="1.22993">
        <ele>303.8</ele>
        <time>2024-11-12T08:43:21Z</time>
      </trkpt>
      <trkpt lat="45.85829" lon="1.22993">
        <ele>303.8</ele>
        <time>2024-11-12T08:43:22Z</time>
      </trkpt>
      <trkpt lat="45.85828" lon="1.22992">
        <ele>303.9</ele>
        <time>2024-11-12T08:43:23Z</time>
      </trkpt>
      <trkpt lat="45.85826" lon="1.22993">
        <ele>303.9</ele>
        <time>2024-11-12T08:43:24Z</time>
      </trkpt>
      <trkpt lat="45.85825" lon="1.22993">
        <ele>304</ele>
        <time>2024-11-12T08:43:25Z</time>
      </trkpt>
      <trkpt lat="45.85824" lon="1.22993">
        <ele>304</ele>
        <time>2024-11-12T08:43:26Z</time>
      </trkpt>
      <trkpt lat="45.85823" lon="1.22993">
        <ele>304</ele>
        <time>2024-11-12T08:43:27Z</time>
      </trkpt>
      <trkpt lat="45.85821" lon="1.22992">
        <ele>304.1</ele>
        <time>2024-11-12T08:43:28Z</time>
      </trkpt>
      <trkpt lat="45.85819" lon="1.22992">
        <ele>304.1</ele>
        <time>2024-11-12T08:43:29Z</time>
      </trkpt>
      <trkpt lat="45.85818" lon="1.22992">
        <ele>304.2</ele>
        <time>2024-11-12T08:43:30Z</time>
      </trkpt>
      <trkpt lat="45.85817" lon="1.22991">
        <ele>304.2</ele>
        <time>2024-11-12T08:43:31Z</time>
      </trkpt>
      <trkpt lat="45.85816" lon="1.22991">
        <ele>304.2</ele>
        <time>2024-11-12T08:43:32Z</time>
      </trkpt>
      <trkpt lat="45.85815" lon="1.22989">
        <ele>304.3</ele>
        <time>2024-11-12T08:43:33Z</time>
      </trkpt>
      <trkpt lat="45.85814" lon="1.22988">
        <ele>304.3</ele>
        <time>2024-11-12T08:43:34Z</time>
      </trkpt>
      <trkpt lat="45.85813" lon="1.22988">
        <ele>304.3</ele>
        <time>2024-11-12T08:43:35Z</time>
      </trkpt>
      <trkpt lat="45.85811" lon="1.22988">
        <ele>304.4</ele>
        <time>2024-11-12T08:43:36Z</time>
      </trkpt>
      <trkpt lat="45.8581" lon="1.22987">
        <ele>304.4</ele>
        <time>2024-11-12T08:43:37Z</time>
      </trkpt>
      <trkpt lat="45.85808" lon="1.22986">
        <ele>304.5</ele>
        <time>2024-11-12T08:43:38Z</time>
      </trkpt>
      <trkpt lat="45.85808" lon="1.22985">
        <ele>304.5</ele>
        <time>2024-11-12T08:43:39Z</time>
      </trkpt>
      <trkpt lat="45.85806" lon="1.22984">
        <ele>304.5</ele>
        <time>2024-11-12T08:43:40Z</time>
      </trkpt>
      <trkpt lat="45.85805" lon="1.22984">
        <ele>304.6</ele>
        <time>2024-11-12T08:43:41Z</time>
      </trkpt>
      <trkpt lat="45.85804" lon="1.22983">
        <ele>304.6</ele>
        <time>2024-11-12T08:43:42Z</time>
      </trkpt>
      <trkpt lat="45.85802" lon="1.22982">
        <ele>304.7</ele>
        <time>2024-11-12T08:43:43Z</time>
      </trkpt>
      <trkpt lat="45.85801" lon="1.22982">
        <ele>304.7</ele>
        <time>2024-11-12T08:43:44Z</time>
      </trkpt>
      <trkpt lat="45.85801" lon="1.22981">
        <ele>304.7</ele>
        <time>2024-11-12T08:43:45Z</time>
      </trkpt>
      <trkpt lat="45.858" lon="1.2298">
        <ele>304.7</ele>
        <time>2024-11-12T08:43:46Z</time>
      </trkpt>
      <trkpt lat="45.85798" lon="1.22979">
        <ele>304.8</ele>
        <time>2024-11-12T08:43:47Z</time>
      </trkpt>
      <trkpt lat="45.85797" lon="1.22979">
        <ele>304.8</ele>
        <time>2024-11-12T08:43:48Z</time>
      </trkpt>
      <trkpt lat="45.85795" lon="1.22978">
        <ele>304.9</ele>
        <time>2024-11-12T08:43:49Z</time>
      </trkpt>
      <trkpt lat="45.85794" lon="1.22978">
        <ele>304.9</ele>
        <time>2024-11-12T08:43:50Z</time>
      </trkpt>
      <trkpt lat="45.85793" lon="1.22978">
        <ele>304.9</ele>
        <time>2024-11-12T08:43:51Z</time>
      </trkpt>
      <trkpt lat="45.85792" lon="1.22978">
        <ele>305</ele>
        <time>2024-11-12T08:43:52Z</time>
      </trkpt>
      <trkpt lat="45.8579" lon="1.22977">
        <ele>305</ele>
        <time>2024-11-12T08:43:53Z</time>
      </trkpt>
      <trkpt lat="45.85789" lon="1.22977">
        <ele>305.1</ele>
        <time>2024-11-12T08:43:54Z</time>
      </trkpt>
      <trkpt lat="45.85788" lon="1.22976">
        <ele>305.1</ele>
        <time>2024-11-12T08:43:55Z</time>
      </trkpt>
      <trkpt lat="45.85787" lon="1.22976">
        <ele>305.1</ele>
        <time>2024-11-12T08:43:56Z</time>
      </trkpt>
      <trkpt lat="45.85786" lon="1.22976">
        <ele>305.2</ele>
        <time>2024-11-12T08:43:57Z</time>
      </trkpt>
      <trkpt lat="45.85785" lon="1.22977">
        <ele>305.2</ele>
        <time>2024-11-12T08:43:58Z</time>
      </trkpt>
      <trkpt lat="45.85784" lon="1.22976">
        <ele>305.2</ele>
        <time>2024-11-12T08:43:59Z</time>
      </trkpt>
      <trkpt lat="45.85782" lon="1.22976">
        <ele>305.3</ele>
        <time>2024-11-12T08:44:00Z</time>
      </trkpt>
      <trkpt lat="45.85781" lon="1.22975">
        <ele>305.4</ele>
        <time>2024-11-12T08:44:01Z</time>
      </trkpt>
      <trkpt lat="45.8578" lon="1.22975">
        <ele>305.4</ele>
        <time>2024-11-12T08:44:02Z</time>
      </trkpt>
      <trkpt lat="45.85777" lon="1.22975">
        <ele>305.5</ele>
        <time>2024-11-12T08:44:03Z</time>
      </trkpt>
      <trkpt lat="45.85777" lon="1.22974">
        <ele>305.5</ele>
        <time>2024-11-12T08:44:04Z</time>
      </trkpt>
      <trkpt lat="45.85776" lon="1.22974">
        <ele>305.6</ele>
        <time>2024-11-12T08:44:05Z</time>
      </trkpt>
      <trkpt lat="45.85774" lon="1.22974">
        <ele>305.7</ele>
        <time>2024-11-12T08:44:06Z</time>
      </trkpt>
      <trkpt lat="45.85773" lon="1.22974">
        <ele>305.7</ele>
        <time>2024-11-12T08:44:07Z</time>
      </trkpt>
      <trkpt lat="45.85771" lon="1.22974">
        <ele>305.8</ele>
        <time>2024-11-12T08:44:08Z</time>
      </trkpt>
      <trkpt lat="45.85771" lon="1.22974">
        <ele>305.8</ele>
        <time>2024-11-12T08:44:09Z</time>
      </trkpt>
      <trkpt lat="45.8577" lon="1.22974">
        <ele>305.8</ele>
        <time>2024-11-12T08:44:10Z</time>
      </trkpt>
      <trkpt lat="45.85768" lon="1.22973">
        <ele>305.9</ele>
        <time>2024-11-12T08:44:11Z</time>
      </trkpt>
      <trkpt lat="45.85767" lon="1.22973">
        <ele>305.9</ele>
        <time>2024-11-12T08:44:12Z</time>
      </trkpt>
      <trkpt lat="45.85766" lon="1.22973">
        <ele>306</ele>
        <time>2024-11-12T08:44:13Z</time>
      </trkpt>
      <trkpt lat="45.85764" lon="1.22973">
        <ele>306.1</ele>
        <time>2024-11-12T08:44:14Z</time>
      </trkpt>
      <trkpt lat="45.85763" lon="1.22972">
        <ele>306.1</ele>
        <time>2024-11-12T08:44:15Z</time>
      </trkpt>
      <trkpt lat="45.85762" lon="1.22971">
        <ele>306.1</ele>
        <time>2024-11-12T08:44:16Z</time>
      </trkpt>
      <trkpt lat="45.85761" lon="1.2297">
        <ele>306.2</ele>
        <time>2024-11-12T08:44:17Z</time>
      </trkpt>
      <trkpt lat="45.8576" lon="1.2297">
        <ele>306.2</ele>
        <time>2024-11-12T08:44:18Z</time>
      </trkpt>
      <trkpt lat="45.85759" lon="1.22969">
        <ele>306.3</ele>
        <time>2024-11-12T08:44:19Z</time>
      </trkpt>
      <trkpt lat="45.85758" lon="1.22968">
        <ele>306.3</ele>
        <time>2024-11-12T08:44:20Z</time>
      </trkpt>
      <trkpt lat="45.85758" lon="1.22967">
        <ele>306.3</ele>
        <time>2024-11-12T08:44:21Z</time>
      </trkpt>
      <trkpt lat="45.85757" lon="1.22965">
        <ele>306.4</ele>
        <time>2024-11-12T08:44:22Z</time>
      </trkpt>
      <trkpt lat="45.85757" lon="1.22964">
        <ele>306.4</ele>
        <time>2024-11-12T08:44:23Z</time>
      </trkpt>
      <trkpt lat="45.85757" lon="1.22963">
        <ele>306.5</ele>
        <time>2024-11-12T08:44:24Z</time>
      </trkpt>
      <trkpt lat="45.85757" lon="1.22962">
        <ele>306.5</ele>
        <time>2024-11-12T08:44:25Z</time>
      </trkpt>
      <trkpt lat="45.85757" lon="1.22961">
        <ele>306.5</ele>
        <time>2024-11-12T08:44:26Z</time>
      </trkpt>
      <trkpt lat="45.85758" lon="1.22962">
        <ele>306.5</ele>
        <time>2024-11-12T08:44:27Z</time>
      </trkpt>
      <trkpt lat="45.85758" lon="1.22962">
        <ele>306.5</ele>
        <time>2024-11-12T08:44:28Z</time>
      </trkpt>
      <trkpt lat="45.85758" lon="1.22962">
        <ele>306.6</ele>
        <time>2024-11-12T08:44:29Z</time>
      </trkpt>
      <trkpt lat="45.85758" lon="1.22962">
        <ele>306.6</ele>
        <time>2024-11-12T08:44:30Z</time>
      </trkpt>
      <trkpt lat="45.85758" lon="1.22962">
        <ele>306.6</ele>
        <time>2024-11-12T08:44:31Z</time>
      </trkpt>
      <trkpt lat="45.85758" lon="1.22961">
        <ele>306.6</ele>
        <time>2024-11-12T08:44:32Z</time>
      </trkpt>
      <trkpt lat="45.85758" lon="1.22961">
        <ele>306.6</ele>
        <time>2024-11-12T08:44:33Z</time>
      </trkpt>
      <trkpt lat="45.85758" lon="1.22961">
        <ele>306.6</ele>
        <time>2024-11-12T08:44:34Z</time>
      </trkpt>
      <trkpt lat="45.85758" lon="1.22961">
        <ele>306.6</ele>
        <time>2024-11-12T08:44:35Z</time>
      </trkpt>
      <trkpt lat="45.85758" lon="1.22961">
        <ele>306.6</ele>
        <time>2024-11-12T08:44:36Z</time>
      </trkpt>
      <trkpt lat="45.85758" lon="1.22961">
        <ele>306.6</ele>
        <time>2024-11-12T08:44:37Z</time>
      </trkpt>
      <trkpt lat="45.85758" lon="1.22961">
        <ele>306.6</ele>
        <time>2024-11-12T08:44:38Z</time>
      </trkpt>
      <trkpt lat="45.85758" lon="1.22961">
        <ele>306.6</ele>
        <time>2024-11-12T08:44:39Z</time>
      </trkpt>
      <trkpt lat="45.85758" lon="1.22961">
        <ele>306.6</ele>
        <time>2024-11-12T08:44:40Z</time>
      </trkpt>
      <trkpt lat="45.85758" lon="1.22961">
        <ele>306.6</ele>
        <time>2024-11-12T08:44:41Z</time>
      </trkpt>
      <trkpt lat="45.85756" lon="1.22961">
        <ele>306.7</ele>
        <time>2024-11-12T08:44:42Z</time>
      </trkpt>
      <trkpt lat="45.85754" lon="1.2296">
        <ele>306.8</ele>
        <time>2024-11-12T08:44:43Z</time>
      </trkpt>
      <trkpt lat="45.85754" lon="1.2296">
        <ele>306.8</ele>
        <time>2024-11-12T08:44:44Z</time>
      </trkpt>
      <trkpt lat="45.85753" lon="1.22961">
        <ele>306.8</ele>
        <time>2024-11-12T08:44:45Z</time>
      </trkpt>
      <trkpt lat="45.85752" lon="1.22961">
        <ele>306.9</ele>
        <time>2024-11-12T08:44:46Z</time>
      </trkpt>
      <trkpt lat="45.85751" lon="1.22962">
        <ele>306.9</ele>
        <time>2024-11-12T08:44:47Z</time>
      </trkpt>
      <trkpt lat="45.85751" lon="1.22963">
        <ele>306.9</ele>
        <time>2024-11-12T08:44:48Z</time>
      </trkpt>
      <trkpt lat="45.8575" lon="1.22965">
        <ele>307</ele>
        <time>2024-11-12T08:44:49Z</time>
      </trkpt>
      <trkpt lat="45.85749" lon="1.22967">
        <ele>307.1</ele>
        <time>2024-11-12T08:44:50Z</time>
      </trkpt>
      <trkpt lat="45.85748" lon="1.22968">
        <ele>307.1</ele>
        <time>2024-11-12T08:44:51Z</time>
      </trkpt>
      <trkpt lat="45.85747" lon="1.22969">
        <ele>307.1</ele>
        <time>2024-11-12T08:44:52Z</time>
      </trkpt>
      <trkpt lat="45.85746" lon="1.22968">
        <ele>307.2</ele>
        <time>2024-11-12T08:44:53Z</time>
      </trkpt>
      <trkpt lat="45.85746" lon="1.22967">
        <ele>307.2</ele>
        <time>2024-11-12T08:44:54Z</time>
      </trkpt>
      <trkpt lat="45.85746" lon="1.22966">
        <ele>307.3</ele>
        <time>2024-11-12T08:44:55Z</time>
      </trkpt>
      <trkpt lat="45.85746" lon="1.22965">
        <ele>307.3</ele>
        <time>2024-11-12T08:44:56Z</time>
      </trkpt>
      <trkpt lat="45.85746" lon="1.22964">
        <ele>307.3</ele>
        <time>2024-11-12T08:44:57Z</time>
      </trkpt>
      <trkpt lat="45.85746" lon="1.22963">
        <ele>307.4</ele>
        <time>2024-11-12T08:44:58Z</time>
      </trkpt>
      <trkpt lat="45.85745" lon="1.22962">
        <ele>307.4</ele>
        <time>2024-11-12T08:44:59Z</time>
      </trkpt>
      <trkpt lat="45.85745" lon="1.22961">
        <ele>307.4</ele>
        <time>2024-11-12T08:45:00Z</time>
      </trkpt>
      <trkpt lat="45.85745" lon="1.2296">
        <ele>307.5</ele>
        <time>2024-11-12T08:45:01Z</time>
      </trkpt>
      <trkpt lat="45.85745" lon="1.22959">
        <ele>307.5</ele>
        <time>2024-11-12T08:45:02Z</time>
      </trkpt>
      <trkpt lat="45.85745" lon="1.22958">
        <ele>307.5</ele>
        <time>2024-11-12T08:45:03Z</time>
      </trkpt>
      <trkpt lat="45.85747" lon="1.22958">
        <ele>307.6</ele>
        <time>2024-11-12T08:45:04Z</time>
      </trkpt>
      <trkpt lat="45.85748" lon="1.22959">
        <ele>307.7</ele>
        <time>2024-11-12T08:45:05Z</time>
      </trkpt>
      <trkpt lat="45.85747" lon="1.2296">
        <ele>307.7</ele>
        <time>2024-11-12T08:45:06Z</time>
      </trkpt>
      <trkpt lat="45.85747" lon="1.2296">
        <ele>307.7</ele>
        <time>2024-11-12T08:45:07Z</time>
      </trkpt>
      <trkpt lat="45.85747" lon="1.2296">
        <ele>307.7</ele>
        <time>2024-11-12T08:45:08Z</time>
      </trkpt>
      <trkpt lat="45.85746" lon="1.2296">
        <ele>307.7</ele>
        <time>2024-11-12T08:45:09Z</time>
      </trkpt>
      <trkpt lat="45.85746" lon="1.22961">
        <ele>307.7</ele>
        <time>2024-11-12T08:45:10Z</time>
      </trkpt>
      <trkpt lat="45.85746" lon="1.22961">
        <ele>307.7</ele>
        <time>2024-11-12T08:45:11Z</time>
      </trkpt>
      <trkpt lat="45.85745" lon="1.22961">
        <ele>307.8</ele>
        <time>2024-11-12T08:45:12Z</time>
      </trkpt>
      <trkpt lat="45.85745" lon="1.22961">
        <ele>307.8</ele>
        <time>2024-11-12T08:45:13Z</time>
      </trkpt>
      <trkpt lat="45.85745" lon="1.22961">
        <ele>307.8</ele>
        <time>2024-11-12T08:45:14Z</time>
      </trkpt>
      <trkpt lat="45.85744" lon="1.22961">
        <ele>307.8</ele>
        <time>2024-11-12T08:45:15Z</time>
      </trkpt>
      <trkpt lat="45.85744" lon="1.22962">
        <ele>307.8</ele>
        <time>2024-11-12T08:45:16Z</time>
      </trkpt>
      <trkpt lat="45.85744" lon="1.22962">
        <ele>307.8</ele>
        <time>2024-11-12T08:45:17Z</time>
      </trkpt>
      <trkpt lat="45.85743" lon="1.22962">
        <ele>307.9</ele>
        <time>2024-11-12T08:45:18Z</time>
      </trkpt>
      <trkpt lat="45.85742" lon="1.22965">
        <ele>308</ele>
        <time>2024-11-12T08:45:19Z</time>
      </trkpt>
      <trkpt lat="45.85741" lon="1.22967">
        <ele>308</ele>
        <time>2024-11-12T08:45:20Z</time>
      </trkpt>
      <trkpt lat="45.8574" lon="1.22971">
        <ele>308.2</ele>
        <time>2024-11-12T08:45:21Z</time>
      </trkpt>
      <trkpt lat="45.85739" lon="1.22974">
        <ele>308.3</ele>
        <time>2024-11-12T08:45:22Z</time>
      </trkpt>
      <trkpt lat="45.85737" lon="1.22979">
        <ele>308.5</ele>
        <time>2024-11-12T08:45:23Z</time>
      </trkpt>
      <trkpt lat="45.85737" lon="1.2298">
        <ele>308.5</ele>
        <time>2024-11-12T08:45:24Z</time>
      </trkpt>
      <trkpt lat="45.85736" lon="1.22983">
        <ele>308.6</ele>
        <time>2024-11-12T08:45:25Z</time>
      </trkpt>
      <trkpt lat="45.85735" lon="1.22984">
        <ele>308.7</ele>
        <time>2024-11-12T08:45:26Z</time>
      </trkpt>
      <trkpt lat="45.85734" lon="1.22986">
        <ele>308.7</ele>
        <time>2024-11-12T08:45:27Z</time>
      </trkpt>
      <trkpt lat="45.85733" lon="1.22988">
        <ele>308.8</ele>
        <time>2024-11-12T08:45:28Z</time>
      </trkpt>
      <trkpt lat="45.85732" lon="1.22989">
        <ele>308.9</ele>
        <time>2024-11-12T08:45:29Z</time>
      </trkpt>
      <trkpt lat="45.85731" lon="1.2299">
        <ele>309</ele>
        <time>2024-11-12T08:45:30Z</time>
      </trkpt>
      <trkpt lat="45.85729" lon="1.22991">
        <ele>309</ele>
        <time>2024-11-12T08:45:31Z</time>
      </trkpt>
      <trkpt lat="45.85728" lon="1.22992">
        <ele>309.1</ele>
        <time>2024-11-12T08:45:32Z</time>
      </trkpt>
      <trkpt lat="45.85727" lon="1.22993">
        <ele>309.1</ele>
        <time>2024-11-12T08:45:33Z</time>
      </trkpt>
      <trkpt lat="45.85726" lon="1.22994">
        <ele>309.2</ele>
        <time>2024-11-12T08:45:34Z</time>
      </trkpt>
      <trkpt lat="45.85725" lon="1.22995">
        <ele>309.3</ele>
        <time>2024-11-12T08:45:35Z</time>
      </trkpt>
      <trkpt lat="45.85725" lon="1.22998">
        <ele>309.4</ele>
        <time>2024-11-12T08:45:36Z</time>
      </trkpt>
      <trkpt lat="45.85724" lon="1.22999">
        <ele>309.4</ele>
        <time>2024-11-12T08:45:37Z</time>
      </trkpt>
      <trkpt lat="45.85723" lon="1.23001">
        <ele>309.5</ele>
        <time>2024-11-12T08:45:38Z</time>
      </trkpt>
      <trkpt lat="45.85722" lon="1.23003">
        <ele>309.5</ele>
        <time>2024-11-12T08:45:39Z</time>
      </trkpt>
      <trkpt lat="45.85721" lon="1.23005">
        <ele>309.5</ele>
        <time>2024-11-12T08:45:40Z</time>
      </trkpt>
      <trkpt lat="45.85721" lon="1.23007">
        <ele>309.6</ele>
        <time>2024-11-12T08:45:41Z</time>
      </trkpt>
      <trkpt lat="45.8572" lon="1.23008">
        <ele>309.6</ele>
        <time>2024-11-12T08:45:42Z</time>
      </trkpt>
      <trkpt lat="45.85719" lon="1.2301">
        <ele>309.6</ele>
        <time>2024-11-12T08:45:43Z</time>
      </trkpt>
      <trkpt lat="45.85718" lon="1.23011">
        <ele>309.6</ele>
        <time>2024-11-12T08:45:44Z</time>
      </trkpt>
      <trkpt lat="45.85717" lon="1.23012">
        <ele>309.7</ele>
        <time>2024-11-12T08:45:45Z</time>
      </trkpt>
      <trkpt lat="45.85715" lon="1.23014">
        <ele>309.7</ele>
        <time>2024-11-12T08:45:46Z</time>
      </trkpt>
      <trkpt lat="45.85714" lon="1.23016">
        <ele>309.8</ele>
        <time>2024-11-12T08:45:47Z</time>
      </trkpt>
      <trkpt lat="45.85713" lon="1.23017">
        <ele>309.8</ele>
        <time>2024-11-12T08:45:48Z</time>
      </trkpt>
      <trkpt lat="45.85713" lon="1.23018">
        <ele>309.8</ele>
        <time>2024-11-12T08:45:49Z</time>
      </trkpt>
      <trkpt lat="45.85712" lon="1.23019">
        <ele>309.9</ele>
        <time>2024-11-12T08:45:50Z</time>
      </trkpt>
      <trkpt lat="45.85711" lon="1.23021">
        <ele>310</ele>
        <time>2024-11-12T08:45:51Z</time>
      </trkpt>
      <trkpt lat="45.85709" lon="1.23023">
        <ele>310.1</ele>
        <time>2024-11-12T08:45:52Z</time>
      </trkpt>
      <trkpt lat="45.85708" lon="1.23023">
        <ele>310.1</ele>
        <time>2024-11-12T08:45:53Z</time>
      </trkpt>
      <trkpt lat="45.85708" lon="1.23024">
        <ele>310.1</ele>
        <time>2024-11-12T08:45:54Z</time>
      </trkpt>
      <trkpt lat="45.85706" lon="1.23026">
        <ele>310.2</ele>
        <time>2024-11-12T08:45:55Z</time>
      </trkpt>
      <trkpt lat="45.85705" lon="1.23027">
        <ele>310.3</ele>
        <time>2024-11-12T08:45:56Z</time>
      </trkpt>
      <trkpt lat="45.85704" lon="1.23029">
        <ele>310.4</ele>
        <time>2024-11-12T08:45:57Z</time>
      </trkpt>
      <trkpt lat="45.85703" lon="1.2303">
        <ele>310.4</ele>
        <time>2024-11-12T08:45:58Z</time>
      </trkpt>
      <trkpt lat="45.85703" lon="1.23031">
        <ele>310.4</ele>
        <time>2024-11-12T08:45:59Z</time>
      </trkpt>
      <trkpt lat="45.85701" lon="1.23032">
        <ele>310.5</ele>
        <time>2024-11-12T08:46:00Z</time>
      </trkpt>
      <trkpt lat="45.857" lon="1.23033">
        <ele>310.5</ele>
        <time>2024-11-12T08:46:01Z</time>
      </trkpt>
      <trkpt lat="45.857" lon="1.23034">
        <ele>310.6</ele>
        <time>2024-11-12T08:46:02Z</time>
      </trkpt>
      <trkpt lat="45.85699" lon="1.23035">
        <ele>310.6</ele>
        <time>2024-11-12T08:46:03Z</time>
      </trkpt>
      <trkpt lat="45.85698" lon="1.23035">
        <ele>310.7</ele>
        <time>2024-11-12T08:46:04Z</time>
      </trkpt>
      <trkpt lat="45.85697" lon="1.23034">
        <ele>310.7</ele>
        <time>2024-11-12T08:46:05Z</time>
      </trkpt>
      <trkpt lat="45.85695" lon="1.23033">
        <ele>310.8</ele>
        <time>2024-11-12T08:46:06Z</time>
      </trkpt>
      <trkpt lat="45.85695" lon="1.23033">
        <ele>310.8</ele>
        <time>2024-11-12T08:46:07Z</time>
      </trkpt>
      <trkpt lat="45.85695" lon="1.23034">
        <ele>310.8</ele>
        <time>2024-11-12T08:46:08Z</time>
      </trkpt>
      <trkpt lat="45.85695" lon="1.23034">
        <ele>310.8</ele>
        <time>2024-11-12T08:46:09Z</time>
      </trkpt>
      <trkpt lat="45.85695" lon="1.23035">
        <ele>310.8</ele>
        <time>2024-11-12T08:46:10Z</time>
      </trkpt>
      <trkpt lat="45.85694" lon="1.23035">
        <ele>310.9</ele>
        <time>2024-11-12T08:46:11Z</time>
      </trkpt>
      <trkpt lat="45.85694" lon="1.23036">
        <ele>310.9</ele>
        <time>2024-11-12T08:46:12Z</time>
      </trkpt>
      <trkpt lat="45.85694" lon="1.23036">
        <ele>310.9</ele>
        <time>2024-11-12T08:46:13Z</time>
      </trkpt>
      <trkpt lat="45.85694" lon="1.23037">
        <ele>310.9</ele>
        <time>2024-11-12T08:46:14Z</time>
      </trkpt>
      <trkpt lat="45.85693" lon="1.23037">
        <ele>310.9</ele>
        <time>2024-11-12T08:46:15Z</time>
      </trkpt>
      <trkpt lat="45.85693" lon="1.23037">
        <ele>310.9</ele>
        <time>2024-11-12T08:46:16Z</time>
      </trkpt>
      <trkpt lat="45.85693" lon="1.23038">
        <ele>311</ele>
        <time>2024-11-12T08:46:17Z</time>
      </trkpt>
      <trkpt lat="45.85693" lon="1.23038">
        <ele>311</ele>
        <time>2024-11-12T08:46:18Z</time>
      </trkpt>
      <trkpt lat="45.85692" lon="1.2304">
        <ele>311</ele>
        <time>2024-11-12T08:46:19Z</time>
      </trkpt>
      <trkpt lat="45.85691" lon="1.23042">
        <ele>311.1</ele>
        <time>2024-11-12T08:46:20Z</time>
      </trkpt>
      <trkpt lat="45.8569" lon="1.23044">
        <ele>311.1</ele>
        <time>2024-11-12T08:46:21Z</time>
      </trkpt>
      <trkpt lat="45.8569" lon="1.23045">
        <ele>311.2</ele>
        <time>2024-11-12T08:46:22Z</time>
      </trkpt>
      <trkpt lat="45.85689" lon="1.23047">
        <ele>311.2</ele>
        <time>2024-11-12T08:46:23Z</time>
      </trkpt>
      <trkpt lat="45.85688" lon="1.23047">
        <ele>311.3</ele>
        <time>2024-11-12T08:46:24Z</time>
      </trkpt>
      <trkpt lat="45.85688" lon="1.23047">
        <ele>311.3</ele>
        <time>2024-11-12T08:46:25Z</time>
      </trkpt>
      <trkpt lat="45.85687" lon="1.23048">
        <ele>311.3</ele>
        <time>2024-11-12T08:46:26Z</time>
      </trkpt>
      <trkpt lat="45.85687" lon="1.2305">
        <ele>311.4</ele>
        <time>2024-11-12T08:46:27Z</time>
      </trkpt>
      <trkpt lat="45.85686" lon="1.23052">
        <ele>311.4</ele>
        <time>2024-11-12T08:46:28Z</time>
      </trkpt>
      <trkpt lat="45.85686" lon="1.23054">
        <ele>311.5</ele>
        <time>2024-11-12T08:46:29Z</time>
      </trkpt>
      <trkpt lat="45.85686" lon="1.23056">
        <ele>311.5</ele>
        <time>2024-11-12T08:46:30Z</time>
      </trkpt>
      <trkpt lat="45.85686" lon="1.23058">
        <ele>311.6</ele>
        <time>2024-11-12T08:46:31Z</time>
      </trkpt>
      <trkpt lat="45.85687" lon="1.23061">
        <ele>311.6</ele>
        <time>2024-11-12T08:46:32Z</time>
      </trkpt>
      <trkpt lat="45.85688" lon="1.23063">
        <ele>311.7</ele>
        <time>2024-11-12T08:46:33Z</time>
      </trkpt>
      <trkpt lat="45.85688" lon="1.23064">
        <ele>311.7</ele>
        <time>2024-11-12T08:46:34Z</time>
      </trkpt>
      <trkpt lat="45.85689" lon="1.23066">
        <ele>311.7</ele>
        <time>2024-11-12T08:46:35Z</time>
      </trkpt>
      <trkpt lat="45.8569" lon="1.23068">
        <ele>311.8</ele>
        <time>2024-11-12T08:46:36Z</time>
      </trkpt>
      <trkpt lat="45.85691" lon="1.23071">
        <ele>311.8</ele>
        <time>2024-11-12T08:46:37Z</time>
      </trkpt>
      <trkpt lat="45.85691" lon="1.23072">
        <ele>311.8</ele>
        <time>2024-11-12T08:46:38Z</time>
      </trkpt>
      <trkpt lat="45.85692" lon="1.23073">
        <ele>311.9</ele>
        <time>2024-11-12T08:46:39Z</time>
      </trkpt>
      <trkpt lat="45.85694" lon="1.23076">
        <ele>311.9</ele>
        <time>2024-11-12T08:46:40Z</time>
      </trkpt>
      <trkpt lat="45.85695" lon="1.23077">
        <ele>311.9</ele>
        <time>2024-11-12T08:46:41Z</time>
      </trkpt>
      <trkpt lat="45.85695" lon="1.23079">
        <ele>311.9</ele>
        <time>2024-11-12T08:46:42Z</time>
      </trkpt>
      <trkpt lat="45.85694" lon="1.2308">
        <ele>312</ele>
        <time>2024-11-12T08:46:43Z</time>
      </trkpt>
      <trkpt lat="45.85693" lon="1.23081">
        <ele>312</ele>
        <time>2024-11-12T08:46:44Z</time>
      </trkpt>
      <trkpt lat="45.85693" lon="1.23081">
        <ele>312</ele>
        <time>2024-11-12T08:46:45Z</time>
      </trkpt>
      <trkpt lat="45.85693" lon="1.23084">
        <ele>312</ele>
        <time>2024-11-12T08:46:46Z</time>
      </trkpt>
      <trkpt lat="45.85694" lon="1.23085">
        <ele>312.1</ele>
        <time>2024-11-12T08:46:47Z</time>
      </trkpt>
      <trkpt lat="45.85694" lon="1.23086">
        <ele>312.1</ele>
        <time>2024-11-12T08:46:48Z</time>
      </trkpt>
      <trkpt lat="45.85697" lon="1.23088">
        <ele>312.1</ele>
        <time>2024-11-12T08:46:49Z</time>
      </trkpt>
      <trkpt lat="45.85698" lon="1.23089">
        <ele>312.1</ele>
        <time>2024-11-12T08:46:50Z</time>
      </trkpt>
      <trkpt lat="45.85699" lon="1.2309">
        <ele>312.2</ele>
        <time>2024-11-12T08:46:51Z</time>
      </trkpt>
      <trkpt lat="45.85701" lon="1.23091">
        <ele>312.2</ele>
        <time>2024-11-12T08:46:52Z</time>
      </trkpt>
      <trkpt lat="45.85701" lon="1.23092">
        <ele>312.2</ele>
        <time>2024-11-12T08:46:53Z</time>
      </trkpt>
      <trkpt lat="45.85702" lon="1.23092">
        <ele>312.2</ele>
        <time>2024-11-12T08:46:54Z</time>
      </trkpt>
      <trkpt lat="45.85704" lon="1.23094">
        <ele>312.2</ele>
        <time>2024-11-12T08:46:55Z</time>
      </trkpt>
      <trkpt lat="45.85705" lon="1.23096">
        <ele>312.3</ele>
        <time>2024-11-12T08:46:56Z</time>
      </trkpt>
      <trkpt lat="45.85706" lon="1.23096">
        <ele>312.3</ele>
        <time>2024-11-12T08:46:57Z</time>
      </trkpt>
      <trkpt lat="45.85707" lon="1.23097">
        <ele>312.3</ele>
        <time>2024-11-12T08:46:58Z</time>
      </trkpt>
      <trkpt lat="45.85709" lon="1.23098">
        <ele>312.3</ele>
        <time>2024-11-12T08:46:59Z</time>
      </trkpt>
      <trkpt lat="45.8571" lon="1.23098">
        <ele>312.3</ele>
        <time>2024-11-12T08:47:00Z</time>
      </trkpt>
      <trkpt lat="45.85711" lon="1.23099">
        <ele>312.4</ele>
        <time>2024-11-12T08:47:01Z</time>
      </trkpt>
      <trkpt lat="45.85712" lon="1.231">
        <ele>312.4</ele>
        <time>2024-11-12T08:47:02Z</time>
      </trkpt>
      <trkpt lat="45.85713" lon="1.23101">
        <ele>312.4</ele>
        <time>2024-11-12T08:47:03Z</time>
      </trkpt>
      <trkpt lat="45.85714" lon="1.23101">
        <ele>312.4</ele>
        <time>2024-11-12T08:47:04Z</time>
      </trkpt>
      <trkpt lat="45.85716" lon="1.23102">
        <ele>312.4</ele>
        <time>2024-11-12T08:47:05Z</time>
      </trkpt>
      <trkpt lat="45.85717" lon="1.23104">
        <ele>312.5</ele>
        <time>2024-11-12T08:47:06Z</time>
      </trkpt>
      <trkpt lat="45.85718" lon="1.23105">
        <ele>312.5</ele>
        <time>2024-11-12T08:47:07Z</time>
      </trkpt>
      <trkpt lat="45.85719" lon="1.23106">
        <ele>312.5</ele>
        <time>2024-11-12T08:47:08Z</time>
      </trkpt>
      <trkpt lat="45.85721" lon="1.23107">
        <ele>312.5</ele>
        <time>2024-11-12T08:47:09Z</time>
      </trkpt>
      <trkpt lat="45.85722" lon="1.23108">
        <ele>312.6</ele>
        <time>2024-11-12T08:47:10Z</time>
      </trkpt>
      <trkpt lat="45.85723" lon="1.2311">
        <ele>312.6</ele>
        <time>2024-11-12T08:47:11Z</time>
      </trkpt>
      <trkpt lat="45.85724" lon="1.23111">
        <ele>312.6</ele>
        <time>2024-11-12T08:47:12Z</time>
      </trkpt>
      <trkpt lat="45.85725" lon="1.23112">
        <ele>312.6</ele>
        <time>2024-11-12T08:47:13Z</time>
      </trkpt>
      <trkpt lat="45.85727" lon="1.23113">
        <ele>312.6</ele>
        <time>2024-11-12T08:47:14Z</time>
      </trkpt>
      <trkpt lat="45.85728" lon="1.23114">
        <ele>312.7</ele>
        <time>2024-11-12T08:47:15Z</time>
      </trkpt>
      <trkpt lat="45.85729" lon="1.23115">
        <ele>312.7</ele>
        <time>2024-11-12T08:47:16Z</time>
      </trkpt>
      <trkpt lat="45.85731" lon="1.23116">
        <ele>312.7</ele>
        <time>2024-11-12T08:47:17Z</time>
      </trkpt>
      <trkpt lat="45.85732" lon="1.23116">
        <ele>312.7</ele>
        <time>2024-11-12T08:47:18Z</time>
      </trkpt>
      <trkpt lat="45.85733" lon="1.23117">
        <ele>312.7</ele>
        <time>2024-11-12T08:47:19Z</time>
      </trkpt>
      <trkpt lat="45.85735" lon="1.23119">
        <ele>312.8</ele>
        <time>2024-11-12T08:47:20Z</time>
      </trkpt>
      <trkpt lat="45.85736" lon="1.23119">
        <ele>312.8</ele>
        <time>2024-11-12T08:47:21Z</time>
      </trkpt>
      <trkpt lat="45.85738" lon="1.2312">
        <ele>312.8</ele>
        <time>2024-11-12T08:47:22Z</time>
      </trkpt>
      <trkpt lat="45.85739" lon="1.23121">
        <ele>312.8</ele>
        <time>2024-11-12T08:47:23Z</time>
      </trkpt>
      <trkpt lat="45.8574" lon="1.23122">
        <ele>312.9</ele>
        <time>2024-11-12T08:47:24Z</time>
      </trkpt>
      <trkpt lat="45.85741" lon="1.23122">
        <ele>312.9</ele>
        <time>2024-11-12T08:47:25Z</time>
      </trkpt>
      <trkpt lat="45.85742" lon="1.23125">
        <ele>312.9</ele>
        <time>2024-11-12T08:47:26Z</time>
      </trkpt>
      <trkpt lat="45.85743" lon="1.23125">
        <ele>312.9</ele>
        <time>2024-11-12T08:47:27Z</time>
      </trkpt>
      <trkpt lat="45.85744" lon="1.23126">
        <ele>312.9</ele>
        <time>2024-11-12T08:47:28Z</time>
      </trkpt>
      <trkpt lat="45.85745" lon="1.23127">
        <ele>312.9</ele>
        <time>2024-11-12T08:47:29Z</time>
      </trkpt>
      <trkpt lat="45.85746" lon="1.23129">
        <ele>313</ele>
        <time>2024-11-12T08:47:30Z</time>
      </trkpt>
      <trkpt lat="45.85748" lon="1.2313">
        <ele>313</ele>
        <time>2024-11-12T08:47:31Z</time>
      </trkpt>
      <trkpt lat="45.85748" lon="1.23132">
        <ele>313</ele>
        <time>2024-11-12T08:47:32Z</time>
      </trkpt>
      <trkpt lat="45.85749" lon="1.23133">
        <ele>313</ele>
        <time>2024-11-12T08:47:33Z</time>
      </trkpt>
      <trkpt lat="45.85749" lon="1.23134">
        <ele>313</ele>
        <time>2024-11-12T08:47:34Z</time>
      </trkpt>
      <trkpt lat="45.85749" lon="1.23135">
        <ele>313</ele>
        <time>2024-11-12T08:47:35Z</time>
      </trkpt>
      <trkpt lat="45.8575" lon="1.23136">
        <ele>313.1</ele>
        <time>2024-11-12T08:47:36Z</time>
      </trkpt>
      <trkpt lat="45.85751" lon="1.23138">
        <ele>313.1</ele>
        <time>2024-11-12T08:47:37Z</time>
      </trkpt>
      <trkpt lat="45.85751" lon="1.23139">
        <ele>313.1</ele>
        <time>2024-11-12T08:47:38Z</time>
      </trkpt>
      <trkpt lat="45.85751" lon="1.2314">
        <ele>313.1</ele>
        <time>2024-11-12T08:47:39Z</time>
      </trkpt>
      <trkpt lat="45.85752" lon="1.23141">
        <ele>313.1</ele>
        <time>2024-11-12T08:47:40Z</time>
      </trkpt>
      <trkpt lat="45.85752" lon="1.23142">
        <ele>313.1</ele>
        <time>2024-11-12T08:47:41Z</time>
      </trkpt>
      <trkpt lat="45.85753" lon="1.23144">
        <ele>313.2</ele>
        <time>2024-11-12T08:47:42Z</time>
      </trkpt>
      <trkpt lat="45.85754" lon="1.23145">
        <ele>313.2</ele>
        <time>2024-11-12T08:47:43Z</time>
      </trkpt>
      <trkpt lat="45.85754" lon="1.23146">
        <ele>313.2</ele>
        <time>2024-11-12T08:47:44Z</time>
      </trkpt>
      <trkpt lat="45.85755" lon="1.23148">
        <ele>313.2</ele>
        <time>2024-11-12T08:47:45Z</time>
      </trkpt>
      <trkpt lat="45.85757" lon="1.23149">
        <ele>313.2</ele>
        <time>2024-11-12T08:47:46Z</time>
      </trkpt>
      <trkpt lat="45.85758" lon="1.23151">
        <ele>313.3</ele>
        <time>2024-11-12T08:47:47Z</time>
      </trkpt>
      <trkpt lat="45.85759" lon="1.23152">
        <ele>313.3</ele>
        <time>2024-11-12T08:47:48Z</time>
      </trkpt>
      <trkpt lat="45.85759" lon="1.23153">
        <ele>313.3</ele>
        <time>2024-11-12T08:47:49Z</time>
      </trkpt>
      <trkpt lat="45.8576" lon="1.23154">
        <ele>313.3</ele>
        <time>2024-11-12T08:47:50Z</time>
      </trkpt>
      <trkpt lat="45.85762" lon="1.23155">
        <ele>313.3</ele>
        <time>2024-11-12T08:47:51Z</time>
      </trkpt>
      <trkpt lat="45.85764" lon="1.23157">
        <ele>313.4</ele>
        <time>2024-11-12T08:47:52Z</time>
      </trkpt>
      <trkpt lat="45.85764" lon="1.23157">
        <ele>313.4</ele>
        <time>2024-11-12T08:47:53Z</time>
      </trkpt>
      <trkpt lat="45.85765" lon="1.23158">
        <ele>313.4</ele>
        <time>2024-11-12T08:47:54Z</time>
      </trkpt>
      <trkpt lat="45.85766" lon="1.23159">
        <ele>313.4</ele>
        <time>2024-11-12T08:47:55Z</time>
      </trkpt>
      <trkpt lat="45.85768" lon="1.23159">
        <ele>313.4</ele>
        <time>2024-11-12T08:47:56Z</time>
      </trkpt>
      <trkpt lat="45.85769" lon="1.2316">
        <ele>313.4</ele>
        <time>2024-11-12T08:47:57Z</time>
      </trkpt>
      <trkpt lat="45.8577" lon="1.23161">
        <ele>313.5</ele>
        <time>2024-11-12T08:47:58Z</time>
      </trkpt>
      <trkpt lat="45.85771" lon="1.23162">
        <ele>313.5</ele>
        <time>2024-11-12T08:47:59Z</time>
      </trkpt>
      <trkpt lat="45.85772" lon="1.23163">
        <ele>313.5</ele>
        <time>2024-11-12T08:48:00Z</time>
      </trkpt>
      <trkpt lat="45.85773" lon="1.23165">
        <ele>313.5</ele>
        <time>2024-11-12T08:48:01Z</time>
      </trkpt>
      <trkpt lat="45.85773" lon="1.23166">
        <ele>313.5</ele>
        <time>2024-11-12T08:48:02Z</time>
      </trkpt>
      <trkpt lat="45.85774" lon="1.23167">
        <ele>313.6</ele>
        <time>2024-11-12T08:48:03Z</time>
      </trkpt>
      <trkpt lat="45.85775" lon="1.23169">
        <ele>313.6</ele>
        <time>2024-11-12T08:48:04Z</time>
      </trkpt>
      <trkpt lat="45.85775" lon="1.23171">
        <ele>313.6</ele>
        <time>2024-11-12T08:48:05Z</time>
      </trkpt>
      <trkpt lat="45.85776" lon="1.23174">
        <ele>313.7</ele>
        <time>2024-11-12T08:48:06Z</time>
      </trkpt>
      <trkpt lat="45.85777" lon="1.23175">
        <ele>313.7</ele>
        <time>2024-11-12T08:48:07Z</time>
      </trkpt>
      <trkpt lat="45.85777" lon="1.23177">
        <ele>313.7</ele>
        <time>2024-11-12T08:48:08Z</time>
      </trkpt>
      <trkpt lat="45.85778" lon="1.23179">
        <ele>313.7</ele>
        <time>2024-11-12T08:48:09Z</time>
      </trkpt>
      <trkpt lat="45.85778" lon="1.2318">
        <ele>313.8</ele>
        <time>2024-11-12T08:48:10Z</time>
      </trkpt>
      <trkpt lat="45.85778" lon="1.23184">
        <ele>313.8</ele>
        <time>2024-11-12T08:48:11Z</time>
      </trkpt>
      <trkpt lat="45.85779" lon="1.23185">
        <ele>313.9</ele>
        <time>2024-11-12T08:48:12Z</time>
      </trkpt>
      <trkpt lat="45.85779" lon="1.23187">
        <ele>313.9</ele>
        <time>2024-11-12T08:48:13Z</time>
      </trkpt>
      <trkpt lat="45.85779" lon="1.23188">
        <ele>313.9</ele>
        <time>2024-11-12T08:48:14Z</time>
      </trkpt>
      <trkpt lat="45.8578" lon="1.2319">
        <ele>313.9</ele>
        <time>2024-11-12T08:48:15Z</time>
      </trkpt>
      <trkpt lat="45.8578" lon="1.23192">
        <ele>314</ele>
        <time>2024-11-12T08:48:16Z</time>
      </trkpt>
      <trkpt lat="45.85781" lon="1.23195">
        <ele>314</ele>
        <time>2024-11-12T08:48:17Z</time>
      </trkpt>
      <trkpt lat="45.85781" lon="1.23196">
        <ele>314.1</ele>
        <time>2024-11-12T08:48:18Z</time>
      </trkpt>
      <trkpt lat="45.85781" lon="1.23197">
        <ele>314.1</ele>
        <time>2024-11-12T08:48:19Z</time>
      </trkpt>
      <trkpt lat="45.85781" lon="1.23199">
        <ele>314.1</ele>
        <time>2024-11-12T08:48:20Z</time>
      </trkpt>
      <trkpt lat="45.85782" lon="1.23201">
        <ele>314.2</ele>
        <time>2024-11-12T08:48:21Z</time>
      </trkpt>
      <trkpt lat="45.85782" lon="1.23205">
        <ele>314.2</ele>
        <time>2024-11-12T08:48:22Z</time>
      </trkpt>
      <trkpt lat="45.85782" lon="1.23206">
        <ele>314.2</ele>
        <time>2024-11-12T08:48:23Z</time>
      </trkpt>
      <trkpt lat="45.85782" lon="1.23207">
        <ele>314.3</ele>
        <time>2024-11-12T08:48:24Z</time>
      </trkpt>
      <trkpt lat="45.85782" lon="1.23209">
        <ele>314.3</ele>
        <time>2024-11-12T08:48:25Z</time>
      </trkpt>
      <trkpt lat="45.85783" lon="1.23211">
        <ele>314.4</ele>
        <time>2024-11-12T08:48:26Z</time>
      </trkpt>
      <trkpt lat="45.85784" lon="1.23212">
        <ele>314.4</ele>
        <time>2024-11-12T08:48:27Z</time>
      </trkpt>
      <trkpt lat="45.85784" lon="1.23213">
        <ele>314.4</ele>
        <time>2024-11-12T08:48:28Z</time>
      </trkpt>
      <trkpt lat="45.85785" lon="1.23215">
        <ele>314.5</ele>
        <time>2024-11-12T08:48:29Z</time>
      </trkpt>
      <trkpt lat="45.85786" lon="1.23216">
        <ele>314.5</ele>
        <time>2024-11-12T08:48:30Z</time>
      </trkpt>
      <trkpt lat="45.85787" lon="1.23218">
        <ele>314.6</ele>
        <time>2024-11-12T08:48:31Z</time>
      </trkpt>
      <trkpt lat="45.85788" lon="1.23219">
        <ele>314.6</ele>
        <time>2024-11-12T08:48:32Z</time>
      </trkpt>
      <trkpt lat="45.85788" lon="1.23221">
        <ele>314.6</ele>
        <time>2024-11-12T08:48:33Z</time>
      </trkpt>
      <trkpt lat="45.85789" lon="1.23222">
        <ele>314.7</ele>
        <time>2024-11-12T08:48:34Z</time>
      </trkpt>
      <trkpt lat="45.85789" lon="1.23224">
        <ele>314.7</ele>
        <time>2024-11-12T08:48:35Z</time>
      </trkpt>
      <trkpt lat="45.8579" lon="1.23226">
        <ele>314.8</ele>
        <time>2024-11-12T08:48:36Z</time>
      </trkpt>
      <trkpt lat="45.8579" lon="1.23227">
        <ele>314.8</ele>
        <time>2024-11-12T08:48:37Z</time>
      </trkpt>
      <trkpt lat="45.8579" lon="1.23229">
        <ele>314.9</ele>
        <time>2024-11-12T08:48:38Z</time>
      </trkpt>
      <trkpt lat="45.85791" lon="1.23231">
        <ele>314.9</ele>
        <time>2024-11-12T08:48:39Z</time>
      </trkpt>
      <trkpt lat="45.85791" lon="1.23233">
        <ele>314.9</ele>
        <time>2024-11-12T08:48:40Z</time>
      </trkpt>
      <trkpt lat="45.8579" lon="1.23235">
        <ele>315</ele>
        <time>2024-11-12T08:48:41Z</time>
      </trkpt>
      <trkpt lat="45.85791" lon="1.23236">
        <ele>315</ele>
        <time>2024-11-12T08:48:42Z</time>
      </trkpt>
      <trkpt lat="45.85791" lon="1.23238">
        <ele>315.1</ele>
        <time>2024-11-12T08:48:43Z</time>
      </trkpt>
      <trkpt lat="45.85791" lon="1.2324">
        <ele>315.1</ele>
        <time>2024-11-12T08:48:44Z</time>
      </trkpt>
      <trkpt lat="45.8579" lon="1.23242">
        <ele>315.2</ele>
        <time>2024-11-12T08:48:45Z</time>
      </trkpt>
      <trkpt lat="45.8579" lon="1.23243">
        <ele>315.2</ele>
        <time>2024-11-12T08:48:46Z</time>
      </trkpt>
      <trkpt lat="45.8579" lon="1.23245">
        <ele>315.3</ele>
        <time>2024-11-12T08:48:47Z</time>
      </trkpt>
      <trkpt lat="45.85791" lon="1.23248">
        <ele>315.4</ele>
        <time>2024-11-12T08:48:48Z</time>
      </trkpt>
      <trkpt lat="45.85791" lon="1.23249">
        <ele>315.4</ele>
        <time>2024-11-12T08:48:49Z</time>
      </trkpt>
      <trkpt lat="45.85791" lon="1.2325">
        <ele>315.4</ele>
        <time>2024-11-12T08:48:50Z</time>
      </trkpt>
      <trkpt lat="45.85792" lon="1.23253">
        <ele>315.5</ele>
        <time>2024-11-12T08:48:51Z</time>
      </trkpt>
      <trkpt lat="45.85792" lon="1.23254">
        <ele>315.5</ele>
        <time>2024-11-12T08:48:52Z</time>
      </trkpt>
      <trkpt lat="45.85793" lon="1.23255">
        <ele>315.6</ele>
        <time>2024-11-12T08:48:53Z</time>
      </trkpt>
      <trkpt lat="45.85793" lon="1.23257">
        <ele>315.7</ele>
        <time>2024-11-12T08:48:54Z</time>
      </trkpt>
      <trkpt lat="45.85793" lon="1.23259">
        <ele>315.7</ele>
        <time>2024-11-12T08:48:55Z</time>
      </trkpt>
      <trkpt lat="45.85794" lon="1.23262">
        <ele>315.8</ele>
        <time>2024-11-12T08:48:56Z</time>
      </trkpt>
      <trkpt lat="45.85795" lon="1.23263">
        <ele>315.9</ele>
        <time>2024-11-12T08:48:57Z</time>
      </trkpt>
      <trkpt lat="45.85795" lon="1.23264">
        <ele>315.9</ele>
        <time>2024-11-12T08:48:58Z</time>
      </trkpt>
      <trkpt lat="45.85795" lon="1.23266">
        <ele>316</ele>
        <time>2024-11-12T08:48:59Z</time>
      </trkpt>
      <trkpt lat="45.85796" lon="1.23268">
        <ele>316.1</ele>
        <time>2024-11-12T08:49:00Z</time>
      </trkpt>
      <trkpt lat="45.85797" lon="1.23271">
        <ele>316.2</ele>
        <time>2024-11-12T08:49:01Z</time>
      </trkpt>
      <trkpt lat="45.85797" lon="1.23272">
        <ele>316.2</ele>
        <time>2024-11-12T08:49:02Z</time>
      </trkpt>
      <trkpt lat="45.85797" lon="1.23273">
        <ele>316.3</ele>
        <time>2024-11-12T08:49:03Z</time>
      </trkpt>
      <trkpt lat="45.85798" lon="1.23276">
        <ele>316.4</ele>
        <time>2024-11-12T08:49:04Z</time>
      </trkpt>
      <trkpt lat="45.85798" lon="1.23278">
        <ele>316.4</ele>
        <time>2024-11-12T08:49:05Z</time>
      </trkpt>
      <trkpt lat="45.85798" lon="1.23279">
        <ele>316.5</ele>
        <time>2024-11-12T08:49:06Z</time>
      </trkpt>
      <trkpt lat="45.85799" lon="1.23282">
        <ele>316.6</ele>
        <time>2024-11-12T08:49:07Z</time>
      </trkpt>
      <trkpt lat="45.85799" lon="1.23283">
        <ele>316.7</ele>
        <time>2024-11-12T08:49:08Z</time>
      </trkpt>
      <trkpt lat="45.85799" lon="1.23284">
        <ele>316.7</ele>
        <time>2024-11-12T08:49:09Z</time>
      </trkpt>
      <trkpt lat="45.858" lon="1.23287">
        <ele>316.8</ele>
        <time>2024-11-12T08:49:10Z</time>
      </trkpt>
      <trkpt lat="45.858" lon="1.23288">
        <ele>316.9</ele>
        <time>2024-11-12T08:49:11Z</time>
      </trkpt>
      <trkpt lat="45.858" lon="1.23289">
        <ele>316.9</ele>
        <time>2024-11-12T08:49:12Z</time>
      </trkpt>
      <trkpt lat="45.85801" lon="1.2329">
        <ele>317</ele>
        <time>2024-11-12T08:49:13Z</time>
      </trkpt>
      <trkpt lat="45.85801" lon="1.23291">
        <ele>317</ele>
        <time>2024-11-12T08:49:14Z</time>
      </trkpt>
      <trkpt lat="45.85801" lon="1.23293">
        <ele>317.1</ele>
        <time>2024-11-12T08:49:15Z</time>
      </trkpt>
      <trkpt lat="45.85801" lon="1.23295">
        <ele>317.2</ele>
        <time>2024-11-12T08:49:16Z</time>
      </trkpt>
      <trkpt lat="45.85802" lon="1.23297">
        <ele>317.3</ele>
        <time>2024-11-12T08:49:17Z</time>
      </trkpt>
      <trkpt lat="45.85802" lon="1.23299">
        <ele>317.4</ele>
        <time>2024-11-12T08:49:18Z</time>
      </trkpt>
      <trkpt lat="45.85802" lon="1.233">
        <ele>317.4</ele>
        <time>2024-11-12T08:49:19Z</time>
      </trkpt>
      <trkpt lat="45.85803" lon="1.23302">
        <ele>317.5</ele>
        <time>2024-11-12T08:49:20Z</time>
      </trkpt>
      <trkpt lat="45.85803" lon="1.23304">
        <ele>317.6</ele>
        <time>2024-11-12T08:49:21Z</time>
      </trkpt>
      <trkpt lat="45.85804" lon="1.23306">
        <ele>317.7</ele>
        <time>2024-11-12T08:49:22Z</time>
      </trkpt>
      <trkpt lat="45.85804" lon="1.23307">
        <ele>317.8</ele>
        <time>2024-11-12T08:49:23Z</time>
      </trkpt>
      <trkpt lat="45.85805" lon="1.23309">
        <ele>317.9</ele>
        <time>2024-11-12T08:49:24Z</time>
      </trkpt>
      <trkpt lat="45.85805" lon="1.2331">
        <ele>317.9</ele>
        <time>2024-11-12T08:49:25Z</time>
      </trkpt>
      <trkpt lat="45.85806" lon="1.23312">
        <ele>318</ele>
        <time>2024-11-12T08:49:26Z</time>
      </trkpt>
      <trkpt lat="45.85807" lon="1.23314">
        <ele>318.1</ele>
        <time>2024-11-12T08:49:27Z</time>
      </trkpt>
      <trkpt lat="45.85807" lon="1.23315">
        <ele>318.2</ele>
        <time>2024-11-12T08:49:28Z</time>
      </trkpt>
      <trkpt lat="45.85807" lon="1.23317">
        <ele>318.3</ele>
        <time>2024-11-12T08:49:29Z</time>
      </trkpt>
      <trkpt lat="45.85807" lon="1.23319">
        <ele>318.4</ele>
        <time>2024-11-12T08:49:30Z</time>
      </trkpt>
      <trkpt lat="45.85807" lon="1.23321">
        <ele>318.4</ele>
        <time>2024-11-12T08:49:31Z</time>
      </trkpt>
      <trkpt lat="45.85807" lon="1.23323">
        <ele>318.6</ele>
        <time>2024-11-12T08:49:32Z</time>
      </trkpt>
      <trkpt lat="45.85807" lon="1.23324">
        <ele>318.6</ele>
        <time>2024-11-12T08:49:33Z</time>
      </trkpt>
      <trkpt lat="45.85806" lon="1.23326">
        <ele>318.7</ele>
        <time>2024-11-12T08:49:34Z</time>
      </trkpt>
      <trkpt lat="45.85806" lon="1.23327">
        <ele>318.8</ele>
        <time>2024-11-12T08:49:35Z</time>
      </trkpt>
      <trkpt lat="45.85805" lon="1.2333">
        <ele>318.9</ele>
        <time>2024-11-12T08:49:36Z</time>
      </trkpt>
      <trkpt lat="45.85805" lon="1.23331">
        <ele>319</ele>
        <time>2024-11-12T08:49:37Z</time>
      </trkpt>
      <trkpt lat="45.85805" lon="1.23332">
        <ele>319</ele>
        <time>2024-11-12T08:49:38Z</time>
      </trkpt>
      <trkpt lat="45.85807" lon="1.23335">
        <ele>319.2</ele>
        <time>2024-11-12T08:49:39Z</time>
      </trkpt>
      <trkpt lat="45.85807" lon="1.23336">
        <ele>319.2</ele>
        <time>2024-11-12T08:49:40Z</time>
      </trkpt>
      <trkpt lat="45.85808" lon="1.23337">
        <ele>319.3</ele>
        <time>2024-11-12T08:49:41Z</time>
      </trkpt>
      <trkpt lat="45.85808" lon="1.23341">
        <ele>319.5</ele>
        <time>2024-11-12T08:49:42Z</time>
      </trkpt>
      <trkpt lat="45.85808" lon="1.23342">
        <ele>319.5</ele>
        <time>2024-11-12T08:49:43Z</time>
      </trkpt>
      <trkpt lat="45.85808" lon="1.23343">
        <ele>319.6</ele>
        <time>2024-11-12T08:49:44Z</time>
      </trkpt>
      <trkpt lat="45.85808" lon="1.23343">
        <ele>319.6</ele>
        <time>2024-11-12T08:49:45Z</time>
      </trkpt>
      <trkpt lat="45.85808" lon="1.23342">
        <ele>319.7</ele>
        <time>2024-11-12T08:49:46Z</time>
      </trkpt>
      <trkpt lat="45.85809" lon="1.23341">
        <ele>319.7</ele>
        <time>2024-11-12T08:49:47Z</time>
      </trkpt>
      <trkpt lat="45.85809" lon="1.23341">
        <ele>319.7</ele>
        <time>2024-11-12T08:49:48Z</time>
      </trkpt>
      <trkpt lat="45.85809" lon="1.23341">
        <ele>319.7</ele>
        <time>2024-11-12T08:49:49Z</time>
      </trkpt>
      <trkpt lat="45.85809" lon="1.2334">
        <ele>319.7</ele>
        <time>2024-11-12T08:49:50Z</time>
      </trkpt>
      <trkpt lat="45.85809" lon="1.2334">
        <ele>319.7</ele>
        <time>2024-11-12T08:49:51Z</time>
      </trkpt>
      <trkpt lat="45.85809" lon="1.2334">
        <ele>319.8</ele>
        <time>2024-11-12T08:49:52Z</time>
      </trkpt>
      <trkpt lat="45.85809" lon="1.23341">
        <ele>319.8</ele>
        <time>2024-11-12T08:49:53Z</time>
      </trkpt>
      <trkpt lat="45.85809" lon="1.23344">
        <ele>319.9</ele>
        <time>2024-11-12T08:49:54Z</time>
      </trkpt>
      <trkpt lat="45.8581" lon="1.23346">
        <ele>320</ele>
        <time>2024-11-12T08:49:55Z</time>
      </trkpt>
      <trkpt lat="45.8581" lon="1.23348">
        <ele>320.1</ele>
        <time>2024-11-12T08:49:56Z</time>
      </trkpt>
      <trkpt lat="45.85811" lon="1.2335">
        <ele>320.2</ele>
        <time>2024-11-12T08:49:57Z</time>
      </trkpt>
      <trkpt lat="45.85811" lon="1.23352">
        <ele>320.3</ele>
        <time>2024-11-12T08:49:58Z</time>
      </trkpt>
      <trkpt lat="45.85812" lon="1.23354">
        <ele>320.3</ele>
        <time>2024-11-12T08:49:59Z</time>
      </trkpt>
      <trkpt lat="45.85812" lon="1.23355">
        <ele>320.4</ele>
        <time>2024-11-12T08:50:00Z</time>
      </trkpt>
      <trkpt lat="45.85812" lon="1.23357">
        <ele>320.5</ele>
        <time>2024-11-12T08:50:01Z</time>
      </trkpt>
      <trkpt lat="45.85812" lon="1.23359">
        <ele>320.6</ele>
        <time>2024-11-12T08:50:02Z</time>
      </trkpt>
      <trkpt lat="45.85813" lon="1.2336">
        <ele>320.7</ele>
        <time>2024-11-12T08:50:03Z</time>
      </trkpt>
      <trkpt lat="45.85813" lon="1.23362">
        <ele>320.7</ele>
        <time>2024-11-12T08:50:04Z</time>
      </trkpt>
      <trkpt lat="45.85813" lon="1.23364">
        <ele>320.8</ele>
        <time>2024-11-12T08:50:05Z</time>
      </trkpt>
      <trkpt lat="45.85814" lon="1.23365">
        <ele>320.9</ele>
        <time>2024-11-12T08:50:06Z</time>
      </trkpt>
      <trkpt lat="45.85815" lon="1.23366">
        <ele>320.9</ele>
        <time>2024-11-12T08:50:07Z</time>
      </trkpt>
      <trkpt lat="45.85816" lon="1.23366">
        <ele>321</ele>
        <time>2024-11-12T08:50:08Z</time>
      </trkpt>
      <trkpt lat="45.85816" lon="1.23367">
        <ele>321</ele>
        <time>2024-11-12T08:50:09Z</time>
      </trkpt>
      <trkpt lat="45.85818" lon="1.23367">
        <ele>320.9</ele>
        <time>2024-11-12T08:50:10Z</time>
      </trkpt>
      <trkpt lat="45.8582" lon="1.23367">
        <ele>320.9</ele>
        <time>2024-11-12T08:50:11Z</time>
      </trkpt>
      <trkpt lat="45.85821" lon="1.23367">
        <ele>320.9</ele>
        <time>2024-11-12T08:50:12Z</time>
      </trkpt>
      <trkpt lat="45.85822" lon="1.23367">
        <ele>320.9</ele>
        <time>2024-11-12T08:50:13Z</time>
      </trkpt>
      <trkpt lat="45.85823" lon="1.23367">
        <ele>320.9</ele>
        <time>2024-11-12T08:50:14Z</time>
      </trkpt>
      <trkpt lat="45.85824" lon="1.23367">
        <ele>320.8</ele>
        <time>2024-11-12T08:50:15Z</time>
      </trkpt>
      <trkpt lat="45.85826" lon="1.23366">
        <ele>320.8</ele>
        <time>2024-11-12T08:50:16Z</time>
      </trkpt>
      <trkpt lat="45.85827" lon="1.23365">
        <ele>320.8</ele>
        <time>2024-11-12T08:50:17Z</time>
      </trkpt>
      <trkpt lat="45.85827" lon="1.23365">
        <ele>320.7</ele>
        <time>2024-11-12T08:50:18Z</time>
      </trkpt>
      <trkpt lat="45.85828" lon="1.23364">
        <ele>320.7</ele>
        <time>2024-11-12T08:50:19Z</time>
      </trkpt>
      <trkpt lat="45.85829" lon="1.23364">
        <ele>320.7</ele>
        <time>2024-11-12T08:50:20Z</time>
      </trkpt>
      <trkpt lat="45.8583" lon="1.23363">
        <ele>320.7</ele>
        <time>2024-11-12T08:50:21Z</time>
      </trkpt>
      <trkpt lat="45.85831" lon="1.23361">
        <ele>320.6</ele>
        <time>2024-11-12T08:50:22Z</time>
      </trkpt>
      <trkpt lat="45.85833" lon="1.23361">
        <ele>320.6</ele>
        <time>2024-11-12T08:50:23Z</time>
      </trkpt>
      <trkpt lat="45.85833" lon="1.23361">
        <ele>320.5</ele>
        <time>2024-11-12T08:50:24Z</time>
      </trkpt>
      <trkpt lat="45.85834" lon="1.23361">
        <ele>320.5</ele>
        <time>2024-11-12T08:50:25Z</time>
      </trkpt>
      <trkpt lat="45.85835" lon="1.2336">
        <ele>320.5</ele>
        <time>2024-11-12T08:50:26Z</time>
      </trkpt>
      <trkpt lat="45.85837" lon="1.23359">
        <ele>320.4</ele>
        <time>2024-11-12T08:50:27Z</time>
      </trkpt>
      <trkpt lat="45.85838" lon="1.23359">
        <ele>320.3</ele>
        <time>2024-11-12T08:50:28Z</time>
      </trkpt>
      <trkpt lat="45.85839" lon="1.2336">
        <ele>320.3</ele>
        <time>2024-11-12T08:50:29Z</time>
      </trkpt>
      <trkpt lat="45.8584" lon="1.23359">
        <ele>320.3</ele>
        <time>2024-11-12T08:50:30Z</time>
      </trkpt>
      <trkpt lat="45.85841" lon="1.23359">
        <ele>320.2</ele>
        <time>2024-11-12T08:50:31Z</time>
      </trkpt>
      <trkpt lat="45.85842" lon="1.23358">
        <ele>320.2</ele>
        <time>2024-11-12T08:50:32Z</time>
      </trkpt>
      <trkpt lat="45.85843" lon="1.23358">
        <ele>320.1</ele>
        <time>2024-11-12T08:50:33Z</time>
      </trkpt>
      <trkpt lat="45.85844" lon="1.23358">
        <ele>320.1</ele>
        <time>2024-11-12T08:50:34Z</time>
      </trkpt>
      <trkpt lat="45.85846" lon="1.23357">
        <ele>320</ele>
        <time>2024-11-12T08:50:35Z</time>
      </trkpt>
      <trkpt lat="45.85847" lon="1.23356">
        <ele>320</ele>
        <time>2024-11-12T08:50:36Z</time>
      </trkpt>
      <trkpt lat="45.85847" lon="1.23355">
        <ele>320</ele>
        <time>2024-11-12T08:50:37Z</time>
      </trkpt>
      <trkpt lat="45.85848" lon="1.23355">
        <ele>319.9</ele>
        <time>2024-11-12T08:50:38Z</time>
      </trkpt>
      <trkpt lat="45.8585" lon="1.23356">
        <ele>319.9</ele>
        <time>2024-11-12T08:50:39Z</time>
      </trkpt>
      <trkpt lat="45.85851" lon="1.23357">
        <ele>319.8</ele>
        <time>2024-11-12T08:50:40Z</time>
      </trkpt>
      <trkpt lat="45.85852" lon="1.23357">
        <ele>319.8</ele>
        <time>2024-11-12T08:50:41Z</time>
      </trkpt>
      <trkpt lat="45.85854" lon="1.23357">
        <ele>319.7</ele>
        <time>2024-11-12T08:50:42Z</time>
      </trkpt>
      <trkpt lat="45.85856" lon="1.23358">
        <ele>319.6</ele>
        <time>2024-11-12T08:50:43Z</time>
      </trkpt>
      <trkpt lat="45.85857" lon="1.23358">
        <ele>319.6</ele>
        <time>2024-11-12T08:50:44Z</time>
      </trkpt>
      <trkpt lat="45.85857" lon="1.23358">
        <ele>319.5</ele>
        <time>2024-11-12T08:50:45Z</time>
      </trkpt>
      <trkpt lat="45.85859" lon="1.23358">
        <ele>319.5</ele>
        <time>2024-11-12T08:50:46Z</time>
      </trkpt>
      <trkpt lat="45.8586" lon="1.23356">
        <ele>319.4</ele>
        <time>2024-11-12T08:50:47Z</time>
      </trkpt>
      <trkpt lat="45.85861" lon="1.23355">
        <ele>319.4</ele>
        <time>2024-11-12T08:50:48Z</time>
      </trkpt>
      <trkpt lat="45.85862" lon="1.23355">
        <ele>319.3</ele>
        <time>2024-11-12T08:50:49Z</time>
      </trkpt>
      <trkpt lat="45.85863" lon="1.23355">
        <ele>319.3</ele>
        <time>2024-11-12T08:50:50Z</time>
      </trkpt>
      <trkpt lat="45.85864" lon="1.23355">
        <ele>319.2</ele>
        <time>2024-11-12T08:50:51Z</time>
      </trkpt>
      <trkpt lat="45.85865" lon="1.23353">
        <ele>319.2</ele>
        <time>2024-11-12T08:50:52Z</time>
      </trkpt>
      <trkpt lat="45.85866" lon="1.23352">
        <ele>319.1</ele>
        <time>2024-11-12T08:50:53Z</time>
      </trkpt>
      <trkpt lat="45.85867" lon="1.23352">
        <ele>319.1</ele>
        <time>2024-11-12T08:50:54Z</time>
      </trkpt>
      <trkpt lat="45.85868" lon="1.23352">
        <ele>319.1</ele>
        <time>2024-11-12T08:50:55Z</time>
      </trkpt>
      <trkpt lat="45.85869" lon="1.23351">
        <ele>319</ele>
        <time>2024-11-12T08:50:56Z</time>
      </trkpt>
      <trkpt lat="45.8587" lon="1.2335">
        <ele>319</ele>
        <time>2024-11-12T08:50:57Z</time>
      </trkpt>
      <trkpt lat="45.85871" lon="1.2335">
        <ele>318.9</ele>
        <time>2024-11-12T08:50:58Z</time>
      </trkpt>
      <trkpt lat="45.85872" lon="1.23349">
        <ele>318.9</ele>
        <time>2024-11-12T08:50:59Z</time>
      </trkpt>
      <trkpt lat="45.85873" lon="1.23349">
        <ele>318.8</ele>
        <time>2024-11-12T08:51:00Z</time>
      </trkpt>
      <trkpt lat="45.85875" lon="1.23349">
        <ele>318.8</ele>
        <time>2024-11-12T08:51:01Z</time>
      </trkpt>
      <trkpt lat="45.85876" lon="1.23348">
        <ele>318.8</ele>
        <time>2024-11-12T08:51:02Z</time>
      </trkpt>
      <trkpt lat="45.85877" lon="1.23348">
        <ele>318.8</ele>
        <time>2024-11-12T08:51:03Z</time>
      </trkpt>
      <trkpt lat="45.85878" lon="1.23347">
        <ele>318.7</ele>
        <time>2024-11-12T08:51:04Z</time>
      </trkpt>
      <trkpt lat="45.85879" lon="1.23347">
        <ele>318.7</ele>
        <time>2024-11-12T08:51:05Z</time>
      </trkpt>
      <trkpt lat="45.85881" lon="1.23347">
        <ele>318.7</ele>
        <time>2024-11-12T08:51:06Z</time>
      </trkpt>
      <trkpt lat="45.85882" lon="1.23346">
        <ele>318.7</ele>
        <time>2024-11-12T08:51:07Z</time>
      </trkpt>
      <trkpt lat="45.85884" lon="1.23347">
        <ele>318.7</ele>
        <time>2024-11-12T08:51:08Z</time>
      </trkpt>
      <trkpt lat="45.85885" lon="1.23348">
        <ele>318.7</ele>
        <time>2024-11-12T08:51:09Z</time>
      </trkpt>
      <trkpt lat="45.85886" lon="1.23348">
        <ele>318.8</ele>
        <time>2024-11-12T08:51:10Z</time>
      </trkpt>
      <trkpt lat="45.85887" lon="1.23349">
        <ele>318.8</ele>
        <time>2024-11-12T08:51:11Z</time>
      </trkpt>
      <trkpt lat="45.85888" lon="1.2335">
        <ele>318.9</ele>
        <time>2024-11-12T08:51:12Z</time>
      </trkpt>
      <trkpt lat="45.85889" lon="1.23353">
        <ele>319</ele>
        <time>2024-11-12T08:51:13Z</time>
      </trkpt>
      <trkpt lat="45.85889" lon="1.23354">
        <ele>319.1</ele>
        <time>2024-11-12T08:51:14Z</time>
      </trkpt>
      <trkpt lat="45.85889" lon="1.23356">
        <ele>319.1</ele>
        <time>2024-11-12T08:51:15Z</time>
      </trkpt>
      <trkpt lat="45.85888" lon="1.23359">
        <ele>319.3</ele>
        <time>2024-11-12T08:51:16Z</time>
      </trkpt>
      <trkpt lat="45.85887" lon="1.23363">
        <ele>319.4</ele>
        <time>2024-11-12T08:51:17Z</time>
      </trkpt>
      <trkpt lat="45.85887" lon="1.23366">
        <ele>319.5</ele>
        <time>2024-11-12T08:51:18Z</time>
      </trkpt>
      <trkpt lat="45.85887" lon="1.23368">
        <ele>319.6</ele>
        <time>2024-11-12T08:51:19Z</time>
      </trkpt>
      <trkpt lat="45.85887" lon="1.23369">
        <ele>319.6</ele>
        <time>2024-11-12T08:51:20Z</time>
      </trkpt>
      <trkpt lat="45.85886" lon="1.23373">
        <ele>319.8</ele>
        <time>2024-11-12T08:51:21Z</time>
      </trkpt>
      <trkpt lat="45.85886" lon="1.23375">
        <ele>319.8</ele>
        <time>2024-11-12T08:51:22Z</time>
      </trkpt>
      <trkpt lat="45.85886" lon="1.23377">
        <ele>319.9</ele>
        <time>2024-11-12T08:51:23Z</time>
      </trkpt>
      <trkpt lat="45.85886" lon="1.23379">
        <ele>320</ele>
        <time>2024-11-12T08:51:24Z</time>
      </trkpt>
      <trkpt lat="45.85886" lon="1.2338">
        <ele>320</ele>
        <time>2024-11-12T08:51:25Z</time>
      </trkpt>
      <trkpt lat="45.85886" lon="1.23382">
        <ele>320.1</ele>
        <time>2024-11-12T08:51:26Z</time>
      </trkpt>
      <trkpt lat="45.85886" lon="1.23385">
        <ele>320.2</ele>
        <time>2024-11-12T08:51:27Z</time>
      </trkpt>
      <trkpt lat="45.85886" lon="1.23386">
        <ele>320.3</ele>
        <time>2024-11-12T08:51:28Z</time>
      </trkpt>
      <trkpt lat="45.85886" lon="1.23388">
        <ele>320.3</ele>
        <time>2024-11-12T08:51:29Z</time>
      </trkpt>
      <trkpt lat="45.85887" lon="1.2339">
        <ele>320.4</ele>
        <time>2024-11-12T08:51:30Z</time>
      </trkpt>
      <trkpt lat="45.85886" lon="1.23392">
        <ele>320.5</ele>
        <time>2024-11-12T08:51:31Z</time>
      </trkpt>
      <trkpt lat="45.85887" lon="1.23394">
        <ele>320.6</ele>
        <time>2024-11-12T08:51:32Z</time>
      </trkpt>
      <trkpt lat="45.85888" lon="1.23395">
        <ele>320.6</ele>
        <time>2024-11-12T08:51:33Z</time>
      </trkpt>
      <trkpt lat="45.85888" lon="1.23397">
        <ele>320.7</ele>
        <time>2024-11-12T08:51:34Z</time>
      </trkpt>
      <trkpt lat="45.85888" lon="1.23398">
        <ele>320.8</ele>
        <time>2024-11-12T08:51:35Z</time>
      </trkpt>
      <trkpt lat="45.85889" lon="1.23399">
        <ele>320.8</ele>
        <time>2024-11-12T08:51:36Z</time>
      </trkpt>
      <trkpt lat="45.85889" lon="1.234">
        <ele>320.8</ele>
        <time>2024-11-12T08:51:37Z</time>
      </trkpt>
      <trkpt lat="45.8589" lon="1.23401">
        <ele>320.9</ele>
        <time>2024-11-12T08:51:38Z</time>
      </trkpt>
      <trkpt lat="45.8589" lon="1.23402">
        <ele>320.9</ele>
        <time>2024-11-12T08:51:39Z</time>
      </trkpt>
      <trkpt lat="45.8589" lon="1.23402">
        <ele>320.9</ele>
        <time>2024-11-12T08:51:40Z</time>
      </trkpt>
      <trkpt lat="45.8589" lon="1.23403">
        <ele>321</ele>
        <time>2024-11-12T08:51:41Z</time>
      </trkpt>
      <trkpt lat="45.85891" lon="1.23406">
        <ele>321.1</ele>
        <time>2024-11-12T08:51:42Z</time>
      </trkpt>
      <trkpt lat="45.85891" lon="1.23408">
        <ele>321.1</ele>
        <time>2024-11-12T08:51:43Z</time>
      </trkpt>
      <trkpt lat="45.85891" lon="1.2341">
        <ele>321.2</ele>
        <time>2024-11-12T08:51:44Z</time>
      </trkpt>
      <trkpt lat="45.8589" lon="1.23411">
        <ele>321.3</ele>
        <time>2024-11-12T08:51:45Z</time>
      </trkpt>
      <trkpt lat="45.8589" lon="1.23412">
        <ele>321.3</ele>
        <time>2024-11-12T08:51:46Z</time>
      </trkpt>
      <trkpt lat="45.8589" lon="1.23412">
        <ele>321.3</ele>
        <time>2024-11-12T08:51:47Z</time>
      </trkpt>
      <trkpt lat="45.8589" lon="1.23414">
        <ele>321.4</ele>
        <time>2024-11-12T08:51:48Z</time>
      </trkpt>
      <trkpt lat="45.8589" lon="1.23416">
        <ele>321.5</ele>
        <time>2024-11-12T08:51:49Z</time>
      </trkpt>
      <trkpt lat="45.8589" lon="1.23419">
        <ele>321.6</ele>
        <time>2024-11-12T08:51:50Z</time>
      </trkpt>
      <trkpt lat="45.8589" lon="1.2342">
        <ele>321.6</ele>
        <time>2024-11-12T08:51:51Z</time>
      </trkpt>
      <trkpt lat="45.85891" lon="1.23421">
        <ele>321.7</ele>
        <time>2024-11-12T08:51:52Z</time>
      </trkpt>
      <trkpt lat="45.85891" lon="1.23423">
        <ele>321.7</ele>
        <time>2024-11-12T08:51:53Z</time>
      </trkpt>
      <trkpt lat="45.8589" lon="1.23423">
        <ele>321.7</ele>
        <time>2024-11-12T08:51:54Z</time>
      </trkpt>
      <trkpt lat="45.8589" lon="1.23424">
        <ele>321.8</ele>
        <time>2024-11-12T08:51:55Z</time>
      </trkpt>
      <trkpt lat="45.8589" lon="1.23423">
        <ele>321.8</ele>
        <time>2024-11-12T08:51:56Z</time>
      </trkpt>
      <trkpt lat="45.85891" lon="1.23423">
        <ele>321.8</ele>
        <time>2024-11-12T08:51:57Z</time>
      </trkpt>
      <trkpt lat="45.85891" lon="1.23423">
        <ele>321.8</ele>
        <time>2024-11-12T08:51:58Z</time>
      </trkpt>
      <trkpt lat="45.8589" lon="1.23423">
        <ele>321.8</ele>
        <time>2024-11-12T08:51:59Z</time>
      </trkpt>
      <trkpt lat="45.8589" lon="1.23423">
        <ele>321.9</ele>
        <time>2024-11-12T08:52:00Z</time>
      </trkpt>
      <trkpt lat="45.8589" lon="1.23424">
        <ele>321.9</ele>
        <time>2024-11-12T08:52:01Z</time>
      </trkpt>
      <trkpt lat="45.8589" lon="1.23426">
        <ele>322</ele>
        <time>2024-11-12T08:52:02Z</time>
      </trkpt>
      <trkpt lat="45.85889" lon="1.23426">
        <ele>322</ele>
        <time>2024-11-12T08:52:03Z</time>
      </trkpt>
      <trkpt lat="45.85889" lon="1.23428">
        <ele>322.1</ele>
        <time>2024-11-12T08:52:04Z</time>
      </trkpt>
      <trkpt lat="45.85888" lon="1.2343">
        <ele>322.1</ele>
        <time>2024-11-12T08:52:05Z</time>
      </trkpt>
      <trkpt lat="45.85888" lon="1.23431">
        <ele>322.2</ele>
        <time>2024-11-12T08:52:06Z</time>
      </trkpt>
      <trkpt lat="45.85888" lon="1.23431">
        <ele>322.2</ele>
        <time>2024-11-12T08:52:07Z</time>
      </trkpt>
      <trkpt lat="45.85889" lon="1.23432">
        <ele>322.2</ele>
        <time>2024-11-12T08:52:08Z</time>
      </trkpt>
      <trkpt lat="45.85889" lon="1.23432">
        <ele>322.2</ele>
        <time>2024-11-12T08:52:09Z</time>
      </trkpt>
      <trkpt lat="45.85889" lon="1.23432">
        <ele>322.2</ele>
        <time>2024-11-12T08:52:10Z</time>
      </trkpt>
      <trkpt lat="45.85889" lon="1.23432">
        <ele>322.2</ele>
        <time>2024-11-12T08:52:11Z</time>
      </trkpt>
      <trkpt lat="45.85889" lon="1.23432">
        <ele>322.3</ele>
        <time>2024-11-12T08:52:12Z</time>
      </trkpt>
      <trkpt lat="45.85889" lon="1.23433">
        <ele>322.3</ele>
        <time>2024-11-12T08:52:13Z</time>
      </trkpt>
      <trkpt lat="45.8589" lon="1.23433">
        <ele>322.3</ele>
        <time>2024-11-12T08:52:14Z</time>
      </trkpt>
      <trkpt lat="45.8589" lon="1.23434">
        <ele>322.3</ele>
        <time>2024-11-12T08:52:15Z</time>
      </trkpt>
      <trkpt lat="45.85891" lon="1.23439">
        <ele>322.5</ele>
        <time>2024-11-12T08:52:16Z</time>
      </trkpt>
      <trkpt lat="45.85891" lon="1.2344">
        <ele>322.5</ele>
        <time>2024-11-12T08:52:17Z</time>
      </trkpt>
      <trkpt lat="45.85892" lon="1.23442">
        <ele>322.6</ele>
        <time>2024-11-12T08:52:18Z</time>
      </trkpt>
      <trkpt lat="45.85892" lon="1.23444">
        <ele>322.6</ele>
        <time>2024-11-12T08:52:19Z</time>
      </trkpt>
      <trkpt lat="45.85894" lon="1.23447">
        <ele>322.7</ele>
        <time>2024-11-12T08:52:20Z</time>
      </trkpt>
      <trkpt lat="45.85894" lon="1.23448">
        <ele>322.8</ele>
        <time>2024-11-12T08:52:21Z</time>
      </trkpt>
      <trkpt lat="45.85895" lon="1.23449">
        <ele>322.8</ele>
        <time>2024-11-12T08:52:22Z</time>
      </trkpt>
      <trkpt lat="45.85896" lon="1.23451">
        <ele>322.9</ele>
        <time>2024-11-12T08:52:23Z</time>
      </trkpt>
      <trkpt lat="45.85897" lon="1.23452">
        <ele>323</ele>
        <time>2024-11-12T08:52:24Z</time>
      </trkpt>
      <trkpt lat="45.85897" lon="1.23453">
        <ele>323</ele>
        <time>2024-11-12T08:52:25Z</time>
      </trkpt>
      <trkpt lat="45.85898" lon="1.23456">
        <ele>323.1</ele>
        <time>2024-11-12T08:52:26Z</time>
      </trkpt>
      <trkpt lat="45.85899" lon="1.23457">
        <ele>323.1</ele>
        <time>2024-11-12T08:52:27Z</time>
      </trkpt>
      <trkpt lat="45.85899" lon="1.23458">
        <ele>323.2</ele>
        <time>2024-11-12T08:52:28Z</time>
      </trkpt>
      <trkpt lat="45.859" lon="1.2346">
        <ele>323.2</ele>
        <time>2024-11-12T08:52:29Z</time>
      </trkpt>
      <trkpt lat="45.859" lon="1.23461">
        <ele>323.3</ele>
        <time>2024-11-12T08:52:30Z</time>
      </trkpt>
      <trkpt lat="45.85901" lon="1.23463">
        <ele>323.3</ele>
        <time>2024-11-12T08:52:31Z</time>
      </trkpt>
      <trkpt lat="45.859" lon="1.23465">
        <ele>323.4</ele>
        <time>2024-11-12T08:52:32Z</time>
      </trkpt>
      <trkpt lat="45.85901" lon="1.23466">
        <ele>323.4</ele>
        <time>2024-11-12T08:52:33Z</time>
      </trkpt>
      <trkpt lat="45.85901" lon="1.23467">
        <ele>323.5</ele>
        <time>2024-11-12T08:52:34Z</time>
      </trkpt>
      <trkpt lat="45.85901" lon="1.23468">
        <ele>323.5</ele>
        <time>2024-11-12T08:52:35Z</time>
      </trkpt>
      <trkpt lat="45.85901" lon="1.2347">
        <ele>323.5</ele>
        <time>2024-11-12T08:52:36Z</time>
      </trkpt>
      <trkpt lat="45.859" lon="1.23471">
        <ele>323.6</ele>
        <time>2024-11-12T08:52:37Z</time>
      </trkpt>
      <trkpt lat="45.859" lon="1.23472">
        <ele>323.6</ele>
        <time>2024-11-12T08:52:38Z</time>
      </trkpt>
      <trkpt lat="45.85899" lon="1.23473">
        <ele>323.7</ele>
        <time>2024-11-12T08:52:39Z</time>
      </trkpt>
      <trkpt lat="45.85899" lon="1.23474">
        <ele>323.7</ele>
        <time>2024-11-12T08:52:40Z</time>
      </trkpt>
      <trkpt lat="45.85899" lon="1.23474">
        <ele>323.7</ele>
        <time>2024-11-12T08:52:41Z</time>
      </trkpt>
      <trkpt lat="45.85899" lon="1.23475">
        <ele>323.7</ele>
        <time>2024-11-12T08:52:42Z</time>
      </trkpt>
      <trkpt lat="45.859" lon="1.23476">
        <ele>323.7</ele>
        <time>2024-11-12T08:52:43Z</time>
      </trkpt>
      <trkpt lat="45.859" lon="1.23476">
        <ele>323.8</ele>
        <time>2024-11-12T08:52:44Z</time>
      </trkpt>
      <trkpt lat="45.859" lon="1.23477">
        <ele>323.8</ele>
        <time>2024-11-12T08:52:45Z</time>
      </trkpt>
      <trkpt lat="45.859" lon="1.23478">
        <ele>323.8</ele>
        <time>2024-11-12T08:52:46Z</time>
      </trkpt>
      <trkpt lat="45.859" lon="1.23478">
        <ele>323.8</ele>
        <time>2024-11-12T08:52:47Z</time>
      </trkpt>
      <trkpt lat="45.85899" lon="1.2348">
        <ele>323.9</ele>
        <time>2024-11-12T08:52:48Z</time>
      </trkpt>
      <trkpt lat="45.85898" lon="1.23482">
        <ele>323.9</ele>
        <time>2024-11-12T08:52:49Z</time>
      </trkpt>
      <trkpt lat="45.85897" lon="1.23483">
        <ele>324</ele>
        <time>2024-11-12T08:52:50Z</time>
      </trkpt>
      <trkpt lat="45.85896" lon="1.23483">
        <ele>324</ele>
        <time>2024-11-12T08:52:51Z</time>
      </trkpt>
      <trkpt lat="45.85896" lon="1.23484">
        <ele>324.1</ele>
        <time>2024-11-12T08:52:52Z</time>
      </trkpt>
      <trkpt lat="45.85896" lon="1.23486">
        <ele>324.1</ele>
        <time>2024-11-12T08:52:53Z</time>
      </trkpt>
      <trkpt lat="45.85896" lon="1.23488">
        <ele>324.2</ele>
        <time>2024-11-12T08:52:54Z</time>
      </trkpt>
      <trkpt lat="45.85897" lon="1.23491">
        <ele>324.2</ele>
        <time>2024-11-12T08:52:55Z</time>
      </trkpt>
      <trkpt lat="45.85898" lon="1.23493">
        <ele>324.3</ele>
        <time>2024-11-12T08:52:56Z</time>
      </trkpt>
      <trkpt lat="45.85899" lon="1.23495">
        <ele>324.4</ele>
        <time>2024-11-12T08:52:57Z</time>
      </trkpt>
      <trkpt lat="45.85899" lon="1.23497">
        <ele>324.5</ele>
        <time>2024-11-12T08:52:58Z</time>
      </trkpt>
      <trkpt lat="45.859" lon="1.23498">
        <ele>324.5</ele>
        <time>2024-11-12T08:52:59Z</time>
      </trkpt>
      <trkpt lat="45.859" lon="1.235">
        <ele>324.6</ele>
        <time>2024-11-12T08:53:00Z</time>
      </trkpt>
      <trkpt lat="45.85899" lon="1.23502">
        <ele>324.6</ele>
        <time>2024-11-12T08:53:01Z</time>
      </trkpt>
      <trkpt lat="45.85899" lon="1.23503">
        <ele>324.7</ele>
        <time>2024-11-12T08:53:02Z</time>
      </trkpt>
      <trkpt lat="45.85899" lon="1.23505">
        <ele>324.8</ele>
        <time>2024-11-12T08:53:03Z</time>
      </trkpt>
      <trkpt lat="45.859" lon="1.23506">
        <ele>324.8</ele>
        <time>2024-11-12T08:53:04Z</time>
      </trkpt>
      <trkpt lat="45.859" lon="1.23509">
        <ele>324.9</ele>
        <time>2024-11-12T08:53:05Z</time>
      </trkpt>
      <trkpt lat="45.85899" lon="1.23511">
        <ele>324.9</ele>
        <time>2024-11-12T08:53:06Z</time>
      </trkpt>
      <trkpt lat="45.85899" lon="1.23512">
        <ele>325</ele>
        <time>2024-11-12T08:53:07Z</time>
      </trkpt>
      <trkpt lat="45.85899" lon="1.23514">
        <ele>325</ele>
        <time>2024-11-12T08:53:08Z</time>
      </trkpt>
      <trkpt lat="45.85898" lon="1.23515">
        <ele>325.1</ele>
        <time>2024-11-12T08:53:09Z</time>
      </trkpt>
      <trkpt lat="45.85897" lon="1.23517">
        <ele>325.1</ele>
        <time>2024-11-12T08:53:10Z</time>
      </trkpt>
      <trkpt lat="45.85897" lon="1.23518">
        <ele>325.2</ele>
        <time>2024-11-12T08:53:11Z</time>
      </trkpt>
      <trkpt lat="45.85896" lon="1.2352">
        <ele>325.2</ele>
        <time>2024-11-12T08:53:12Z</time>
      </trkpt>
      <trkpt lat="45.85896" lon="1.23521">
        <ele>325.2</ele>
        <time>2024-11-12T08:53:13Z</time>
      </trkpt>
      <trkpt lat="45.85895" lon="1.23523">
        <ele>325.3</ele>
        <time>2024-11-12T08:53:14Z</time>
      </trkpt>
      <trkpt lat="45.85894" lon="1.23524">
        <ele>325.3</ele>
        <time>2024-11-12T08:53:15Z</time>
      </trkpt>
      <trkpt lat="45.85893" lon="1.23525">
        <ele>325.3</ele>
        <time>2024-11-12T08:53:16Z</time>
      </trkpt>
      <trkpt lat="45.85893" lon="1.23528">
        <ele>325.3</ele>
        <time>2024-11-12T08:53:17Z</time>
      </trkpt>
      <trkpt lat="45.85892" lon="1.23529">
        <ele>325.4</ele>
        <time>2024-11-12T08:53:18Z</time>
      </trkpt>
      <trkpt lat="45.85892" lon="1.2353">
        <ele>325.4</ele>
        <time>2024-11-12T08:53:19Z</time>
      </trkpt>
      <trkpt lat="45.85891" lon="1.23531">
        <ele>325.4</ele>
        <time>2024-11-12T08:53:20Z</time>
      </trkpt>
      <trkpt lat="45.8589" lon="1.23532">
        <ele>325.4</ele>
        <time>2024-11-12T08:53:21Z</time>
      </trkpt>
      <trkpt lat="45.8589" lon="1.23534">
        <ele>325.4</ele>
        <time>2024-11-12T08:53:22Z</time>
      </trkpt>
      <trkpt lat="45.8589" lon="1.23535">
        <ele>325.4</ele>
        <time>2024-11-12T08:53:23Z</time>
      </trkpt>
      <trkpt lat="45.85889" lon="1.23536">
        <ele>325.4</ele>
        <time>2024-11-12T08:53:24Z</time>
      </trkpt>
      <trkpt lat="45.85889" lon="1.23537">
        <ele>325.4</ele>
        <time>2024-11-12T08:53:25Z</time>
      </trkpt>
      <trkpt lat="45.85888" lon="1.23538">
        <ele>325.4</ele>
        <time>2024-11-12T08:53:26Z</time>
      </trkpt>
      <trkpt lat="45.85887" lon="1.2354">
        <ele>325.4</ele>
        <time>2024-11-12T08:53:27Z</time>
      </trkpt>
      <trkpt lat="45.85886" lon="1.23541">
        <ele>325.4</ele>
        <time>2024-11-12T08:53:28Z</time>
      </trkpt>
      <trkpt lat="45.85886" lon="1.23542">
        <ele>325.4</ele>
        <time>2024-11-12T08:53:29Z</time>
      </trkpt>
      <trkpt lat="45.85884" lon="1.23544">
        <ele>325.4</ele>
        <time>2024-11-12T08:53:30Z</time>
      </trkpt>
      <trkpt lat="45.85883" lon="1.23545">
        <ele>325.4</ele>
        <time>2024-11-12T08:53:31Z</time>
      </trkpt>
      <trkpt lat="45.85882" lon="1.23546">
        <ele>325.3</ele>
        <time>2024-11-12T08:53:32Z</time>
      </trkpt>
      <trkpt lat="45.85882" lon="1.23547">
        <ele>325.3</ele>
        <time>2024-11-12T08:53:33Z</time>
      </trkpt>
      <trkpt lat="45.85881" lon="1.23548">
        <ele>325.3</ele>
        <time>2024-11-12T08:53:34Z</time>
      </trkpt>
      <trkpt lat="45.85881" lon="1.23549">
        <ele>325.3</ele>
        <time>2024-11-12T08:53:35Z</time>
      </trkpt>
      <trkpt lat="45.8588" lon="1.2355">
        <ele>325.2</ele>
        <time>2024-11-12T08:53:36Z</time>
      </trkpt>
      <trkpt lat="45.85878" lon="1.23551">
        <ele>325.2</ele>
        <time>2024-11-12T08:53:37Z</time>
      </trkpt>
      <trkpt lat="45.85878" lon="1.23552">
        <ele>325.1</ele>
        <time>2024-11-12T08:53:38Z</time>
      </trkpt>
      <trkpt lat="45.85876" lon="1.23554">
        <ele>325.1</ele>
        <time>2024-11-12T08:53:39Z</time>
      </trkpt>
      <trkpt lat="45.85875" lon="1.23554">
        <ele>325</ele>
        <time>2024-11-12T08:53:40Z</time>
      </trkpt>
      <trkpt lat="45.85874" lon="1.23554">
        <ele>325</ele>
        <time>2024-11-12T08:53:41Z</time>
      </trkpt>
      <trkpt lat="45.85873" lon="1.23556">
        <ele>324.9</ele>
        <time>2024-11-12T08:53:42Z</time>
      </trkpt>
      <trkpt lat="45.85872" lon="1.23557">
        <ele>324.9</ele>
        <time>2024-11-12T08:53:43Z</time>
      </trkpt>
      <trkpt lat="45.85872" lon="1.23558">
        <ele>324.8</ele>
        <time>2024-11-12T08:53:44Z</time>
      </trkpt>
      <trkpt lat="45.85871" lon="1.23559">
        <ele>324.8</ele>
        <time>2024-11-12T08:53:45Z</time>
      </trkpt>
      <trkpt lat="45.8587" lon="1.2356">
        <ele>324.7</ele>
        <time>2024-11-12T08:53:46Z</time>
      </trkpt>
      <trkpt lat="45.85868" lon="1.23561">
        <ele>324.6</ele>
        <time>2024-11-12T08:53:47Z</time>
      </trkpt>
      <trkpt lat="45.85867" lon="1.23561">
        <ele>324.6</ele>
        <time>2024-11-12T08:53:48Z</time>
      </trkpt>
      <trkpt lat="45.85865" lon="1.23562">
        <ele>324.5</ele>
        <time>2024-11-12T08:53:49Z</time>
      </trkpt>
      <trkpt lat="45.85864" lon="1.23562">
        <ele>324.5</ele>
        <time>2024-11-12T08:53:50Z</time>
      </trkpt>
      <trkpt lat="45.85863" lon="1.23562">
        <ele>324.4</ele>
        <time>2024-11-12T08:53:51Z</time>
      </trkpt>
      <trkpt lat="45.85861" lon="1.23564">
        <ele>324.3</ele>
        <time>2024-11-12T08:53:52Z</time>
      </trkpt>
      <trkpt lat="45.8586" lon="1.23564">
        <ele>324.3</ele>
        <time>2024-11-12T08:53:53Z</time>
      </trkpt>
      <trkpt lat="45.8586" lon="1.23564">
        <ele>324.2</ele>
        <time>2024-11-12T08:53:54Z</time>
      </trkpt>
      <trkpt lat="45.85858" lon="1.23566">
        <ele>324.1</ele>
        <time>2024-11-12T08:53:55Z</time>
      </trkpt>
      <trkpt lat="45.85857" lon="1.23566">
        <ele>324</ele>
        <time>2024-11-12T08:53:56Z</time>
      </trkpt>
      <trkpt lat="45.85855" lon="1.23567">
        <ele>324</ele>
        <time>2024-11-12T08:53:57Z</time>
      </trkpt>
      <trkpt lat="45.85855" lon="1.23567">
        <ele>323.9</ele>
        <time>2024-11-12T08:53:58Z</time>
      </trkpt>
      <trkpt lat="45.85854" lon="1.23568">
        <ele>323.9</ele>
        <time>2024-11-12T08:53:59Z</time>
      </trkpt>
      <trkpt lat="45.85853" lon="1.23569">
        <ele>323.8</ele>
        <time>2024-11-12T08:54:00Z</time>
      </trkpt>
      <trkpt lat="45.85852" lon="1.23569">
        <ele>323.7</ele>
        <time>2024-11-12T08:54:01Z</time>
      </trkpt>
      <trkpt lat="45.8585" lon="1.2357">
        <ele>323.6</ele>
        <time>2024-11-12T08:54:02Z</time>
      </trkpt>
      <trkpt lat="45.85849" lon="1.2357">
        <ele>323.6</ele>
        <time>2024-11-12T08:54:03Z</time>
      </trkpt>
      <trkpt lat="45.85848" lon="1.23571">
        <ele>323.5</ele>
        <time>2024-11-12T08:54:04Z</time>
      </trkpt>
      <trkpt lat="45.85847" lon="1.23572">
        <ele>323.4</ele>
        <time>2024-11-12T08:54:05Z</time>
      </trkpt>
      <trkpt lat="45.85846" lon="1.23572">
        <ele>323.4</ele>
        <time>2024-11-12T08:54:06Z</time>
      </trkpt>
      <trkpt lat="45.85844" lon="1.23573">
        <ele>323.3</ele>
        <time>2024-11-12T08:54:07Z</time>
      </trkpt>
      <trkpt lat="45.85843" lon="1.23573">
        <ele>323.2</ele>
        <time>2024-11-12T08:54:08Z</time>
      </trkpt>
      <trkpt lat="45.85841" lon="1.23574">
        <ele>323.1</ele>
        <time>2024-11-12T08:54:09Z</time>
      </trkpt>
      <trkpt lat="45.85839" lon="1.23575">
        <ele>323</ele>
        <time>2024-11-12T08:54:10Z</time>
      </trkpt>
      <trkpt lat="45.85838" lon="1.23576">
        <ele>322.9</ele>
        <time>2024-11-12T08:54:11Z</time>
      </trkpt>
      <trkpt lat="45.85837" lon="1.23576">
        <ele>322.9</ele>
        <time>2024-11-12T08:54:12Z</time>
      </trkpt>
      <trkpt lat="45.85837" lon="1.23577">
        <ele>322.8</ele>
        <time>2024-11-12T08:54:13Z</time>
      </trkpt>
      <trkpt lat="45.85835" lon="1.23577">
        <ele>322.8</ele>
        <time>2024-11-12T08:54:14Z</time>
      </trkpt>
      <trkpt lat="45.85834" lon="1.23578">
        <ele>322.7</ele>
        <time>2024-11-12T08:54:15Z</time>
      </trkpt>
      <trkpt lat="45.85832" lon="1.2358">
        <ele>322.6</ele>
        <time>2024-11-12T08:54:16Z</time>
      </trkpt>
      <trkpt lat="45.85831" lon="1.23581">
        <ele>322.5</ele>
        <time>2024-11-12T08:54:17Z</time>
      </trkpt>
      <trkpt lat="45.85831" lon="1.23582">
        <ele>322.4</ele>
        <time>2024-11-12T08:54:18Z</time>
      </trkpt>
      <trkpt lat="45.85829" lon="1.23583">
        <ele>322.4</ele>
        <time>2024-11-12T08:54:19Z</time>
      </trkpt>
      <trkpt lat="45.85828" lon="1.23584">
        <ele>322.3</ele>
        <time>2024-11-12T08:54:20Z</time>
      </trkpt>
      <trkpt lat="45.85827" lon="1.23584">
        <ele>322.2</ele>
        <time>2024-11-12T08:54:21Z</time>
      </trkpt>
      <trkpt lat="45.85825" lon="1.23585">
        <ele>322.1</ele>
        <time>2024-11-12T08:54:22Z</time>
      </trkpt>
      <trkpt lat="45.85824" lon="1.23585">
        <ele>322.1</ele>
        <time>2024-11-12T08:54:23Z</time>
      </trkpt>
      <trkpt lat="45.85823" lon="1.23586">
        <ele>322</ele>
        <time>2024-11-12T08:54:24Z</time>
      </trkpt>
      <trkpt lat="45.85822" lon="1.23587">
        <ele>321.9</ele>
        <time>2024-11-12T08:54:25Z</time>
      </trkpt>
      <trkpt lat="45.85821" lon="1.23589">
        <ele>321.8</ele>
        <time>2024-11-12T08:54:26Z</time>
      </trkpt>
      <trkpt lat="45.8582" lon="1.2359">
        <ele>321.8</ele>
        <time>2024-11-12T08:54:27Z</time>
      </trkpt>
      <trkpt lat="45.8582" lon="1.2359">
        <ele>321.7</ele>
        <time>2024-11-12T08:54:28Z</time>
      </trkpt>
      <trkpt lat="45.85818" lon="1.23592">
        <ele>321.6</ele>
        <time>2024-11-12T08:54:29Z</time>
      </trkpt>
      <trkpt lat="45.85818" lon="1.23592">
        <ele>321.6</ele>
        <time>2024-11-12T08:54:30Z</time>
      </trkpt>
      <trkpt lat="45.85817" lon="1.23593">
        <ele>321.5</ele>
        <time>2024-11-12T08:54:31Z</time>
      </trkpt>
      <trkpt lat="45.85815" lon="1.23595">
        <ele>321.4</ele>
        <time>2024-11-12T08:54:32Z</time>
      </trkpt>
      <trkpt lat="45.85815" lon="1.23596">
        <ele>321.4</ele>
        <time>2024-11-12T08:54:33Z</time>
      </trkpt>
      <trkpt lat="45.85814" lon="1.23596">
        <ele>321.3</ele>
        <time>2024-11-12T08:54:34Z</time>
      </trkpt>
      <trkpt lat="45.85813" lon="1.23597">
        <ele>321.2</ele>
        <time>2024-11-12T08:54:35Z</time>
      </trkpt>
      <trkpt lat="45.85812" lon="1.23598">
        <ele>321.2</ele>
        <time>2024-11-12T08:54:36Z</time>
      </trkpt>
      <trkpt lat="45.8581" lon="1.23598">
        <ele>321.1</ele>
        <time>2024-11-12T08:54:37Z</time>
      </trkpt>
      <trkpt lat="45.8581" lon="1.23598">
        <ele>321.1</ele>
        <time>2024-11-12T08:54:38Z</time>
      </trkpt>
      <trkpt lat="45.85808" lon="1.23599">
        <ele>321</ele>
        <time>2024-11-12T08:54:39Z</time>
      </trkpt>
      <trkpt lat="45.85807" lon="1.236">
        <ele>320.9</ele>
        <time>2024-11-12T08:54:40Z</time>
      </trkpt>
      <trkpt lat="45.85806" lon="1.23601">
        <ele>320.8</ele>
        <time>2024-11-12T08:54:41Z</time>
      </trkpt>
      <trkpt lat="45.85805" lon="1.23601">
        <ele>320.8</ele>
        <time>2024-11-12T08:54:42Z</time>
      </trkpt>
      <trkpt lat="45.85804" lon="1.23604">
        <ele>320.6</ele>
        <time>2024-11-12T08:54:43Z</time>
      </trkpt>
      <trkpt lat="45.85803" lon="1.23605">
        <ele>320.6</ele>
        <time>2024-11-12T08:54:44Z</time>
      </trkpt>
      <trkpt lat="45.85802" lon="1.23606">
        <ele>320.5</ele>
        <time>2024-11-12T08:54:45Z</time>
      </trkpt>
      <trkpt lat="45.858" lon="1.23608">
        <ele>320.4</ele>
        <time>2024-11-12T08:54:46Z</time>
      </trkpt>
      <trkpt lat="45.85799" lon="1.23609">
        <ele>320.3</ele>
        <time>2024-11-12T08:54:47Z</time>
      </trkpt>
      <trkpt lat="45.85799" lon="1.23609">
        <ele>320.3</ele>
        <time>2024-11-12T08:54:48Z</time>
      </trkpt>
      <trkpt lat="45.85797" lon="1.2361">
        <ele>320.2</ele>
        <time>2024-11-12T08:54:49Z</time>
      </trkpt>
      <trkpt lat="45.85796" lon="1.23611">
        <ele>320.1</ele>
        <time>2024-11-12T08:54:50Z</time>
      </trkpt>
      <trkpt lat="45.85795" lon="1.23612">
        <ele>320</ele>
        <time>2024-11-12T08:54:51Z</time>
      </trkpt>
      <trkpt lat="45.85794" lon="1.23613">
        <ele>319.9</ele>
        <time>2024-11-12T08:54:52Z</time>
      </trkpt>
      <trkpt lat="45.85792" lon="1.23613">
        <ele>319.9</ele>
        <time>2024-11-12T08:54:53Z</time>
      </trkpt>
      <trkpt lat="45.85791" lon="1.23613">
        <ele>319.8</ele>
        <time>2024-11-12T08:54:54Z</time>
      </trkpt>
      <trkpt lat="45.8579" lon="1.23613">
        <ele>319.8</ele>
        <time>2024-11-12T08:54:55Z</time>
      </trkpt>
      <trkpt lat="45.85789" lon="1.23614">
        <ele>319.7</ele>
        <time>2024-11-12T08:54:56Z</time>
      </trkpt>
      <trkpt lat="45.85788" lon="1.23614">
        <ele>319.6</ele>
        <time>2024-11-12T08:54:57Z</time>
      </trkpt>
      <trkpt lat="45.85787" lon="1.23615">
        <ele>319.6</ele>
        <time>2024-11-12T08:54:58Z</time>
      </trkpt>
      <trkpt lat="45.85786" lon="1.23616">
        <ele>319.5</ele>
        <time>2024-11-12T08:54:59Z</time>
      </trkpt>
      <trkpt lat="45.85785" lon="1.23616">
        <ele>319.4</ele>
        <time>2024-11-12T08:55:00Z</time>
      </trkpt>
      <trkpt lat="45.85784" lon="1.23616">
        <ele>319.4</ele>
        <time>2024-11-12T08:55:01Z</time>
      </trkpt>
      <trkpt lat="45.85783" lon="1.23616">
        <ele>319.3</ele>
        <time>2024-11-12T08:55:02Z</time>
      </trkpt>
      <trkpt lat="45.85782" lon="1.23617">
        <ele>319.2</ele>
        <time>2024-11-12T08:55:03Z</time>
      </trkpt>
      <trkpt lat="45.8578" lon="1.23618">
        <ele>319.2</ele>
        <time>2024-11-12T08:55:04Z</time>
      </trkpt>
      <trkpt lat="45.85779" lon="1.2362">
        <ele>319</ele>
        <time>2024-11-12T08:55:05Z</time>
      </trkpt>
      <trkpt lat="45.85778" lon="1.2362">
        <ele>319</ele>
        <time>2024-11-12T08:55:06Z</time>
      </trkpt>
      <trkpt lat="45.85777" lon="1.23621">
        <ele>318.9</ele>
        <time>2024-11-12T08:55:07Z</time>
      </trkpt>
      <trkpt lat="45.85776" lon="1.23622">
        <ele>318.9</ele>
        <time>2024-11-12T08:55:08Z</time>
      </trkpt>
      <trkpt lat="45.85775" lon="1.23623">
        <ele>318.8</ele>
        <time>2024-11-12T08:55:09Z</time>
      </trkpt>
      <trkpt lat="45.85773" lon="1.23625">
        <ele>318.7</ele>
        <time>2024-11-12T08:55:10Z</time>
      </trkpt>
      <trkpt lat="45.85772" lon="1.23626">
        <ele>318.6</ele>
        <time>2024-11-12T08:55:11Z</time>
      </trkpt>
      <trkpt lat="45.85772" lon="1.23626">
        <ele>318.6</ele>
        <time>2024-11-12T08:55:12Z</time>
      </trkpt>
      <trkpt lat="45.8577" lon="1.23627">
        <ele>318.5</ele>
        <time>2024-11-12T08:55:13Z</time>
      </trkpt>
      <trkpt lat="45.85769" lon="1.23628">
        <ele>318.4</ele>
        <time>2024-11-12T08:55:14Z</time>
      </trkpt>
      <trkpt lat="45.85768" lon="1.23628">
        <ele>318.4</ele>
        <time>2024-11-12T08:55:15Z</time>
      </trkpt>
      <trkpt lat="45.85767" lon="1.23629">
        <ele>318.3</ele>
        <time>2024-11-12T08:55:16Z</time>
      </trkpt>
      <trkpt lat="45.85766" lon="1.23629">
        <ele>318.2</ele>
        <time>2024-11-12T08:55:17Z</time>
      </trkpt>
      <trkpt lat="45.85765" lon="1.2363">
        <ele>318.2</ele>
        <time>2024-11-12T08:55:18Z</time>
      </trkpt>
      <trkpt lat="45.85764" lon="1.23631">
        <ele>318.1</ele>
        <time>2024-11-12T08:55:19Z</time>
      </trkpt>
      <trkpt lat="45.85763" lon="1.23631">
        <ele>318</ele>
        <time>2024-11-12T08:55:20Z</time>
      </trkpt>
      <trkpt lat="45.85762" lon="1.23631">
        <ele>318</ele>
        <time>2024-11-12T08:55:21Z</time>
      </trkpt>
      <trkpt lat="45.85761" lon="1.23632">
        <ele>318</ele>
        <time>2024-11-12T08:55:22Z</time>
      </trkpt>
      <trkpt lat="45.8576" lon="1.23633">
        <ele>317.9</ele>
        <time>2024-11-12T08:55:23Z</time>
      </trkpt>
      <trkpt lat="45.8576" lon="1.23634">
        <ele>317.8</ele>
        <time>2024-11-12T08:55:24Z</time>
      </trkpt>
      <trkpt lat="45.85761" lon="1.23636">
        <ele>317.8</ele>
        <time>2024-11-12T08:55:25Z</time>
      </trkpt>
      <trkpt lat="45.85761" lon="1.23638">
        <ele>317.9</ele>
        <time>2024-11-12T08:55:26Z</time>
      </trkpt>
      <trkpt lat="45.85762" lon="1.2364">
        <ele>317.9</ele>
        <time>2024-11-12T08:55:27Z</time>
      </trkpt>
      <trkpt lat="45.85762" lon="1.23642">
        <ele>317.9</ele>
        <time>2024-11-12T08:55:28Z</time>
      </trkpt>
      <trkpt lat="45.85763" lon="1.23645">
        <ele>317.9</ele>
        <time>2024-11-12T08:55:29Z</time>
      </trkpt>
      <trkpt lat="45.85764" lon="1.23647">
        <ele>317.9</ele>
        <time>2024-11-12T08:55:30Z</time>
      </trkpt>
      <trkpt lat="45.85765" lon="1.23648">
        <ele>317.9</ele>
        <time>2024-11-12T08:55:31Z</time>
      </trkpt>
      <trkpt lat="45.85766" lon="1.2365">
        <ele>317.9</ele>
        <time>2024-11-12T08:55:32Z</time>
      </trkpt>
      <trkpt lat="45.85767" lon="1.23652">
        <ele>317.9</ele>
        <time>2024-11-12T08:55:33Z</time>
      </trkpt>
      <trkpt lat="45.85768" lon="1.23654">
        <ele>317.9</ele>
        <time>2024-11-12T08:55:34Z</time>
      </trkpt>
      <trkpt lat="45.85769" lon="1.23655">
        <ele>317.9</ele>
        <time>2024-11-12T08:55:35Z</time>
      </trkpt>
      <trkpt lat="45.8577" lon="1.23657">
        <ele>317.9</ele>
        <time>2024-11-12T08:55:36Z</time>
      </trkpt>
      <trkpt lat="45.85772" lon="1.23657">
        <ele>317.9</ele>
        <time>2024-11-12T08:55:37Z</time>
      </trkpt>
      <trkpt lat="45.85773" lon="1.23657">
        <ele>317.9</ele>
        <time>2024-11-12T08:55:38Z</time>
      </trkpt>
      <trkpt lat="45.85774" lon="1.23657">
        <ele>317.9</ele>
        <time>2024-11-12T08:55:39Z</time>
      </trkpt>
      <trkpt lat="45.85774" lon="1.23656">
        <ele>317.9</ele>
        <time>2024-11-12T08:55:40Z</time>
      </trkpt>
      <trkpt lat="45.85773" lon="1.23657">
        <ele>317.9</ele>
        <time>2024-11-12T08:55:41Z</time>
      </trkpt>
      <trkpt lat="45.85773" lon="1.23657">
        <ele>317.9</ele>
        <time>2024-11-12T08:55:42Z</time>
      </trkpt>
      <trkpt lat="45.85773" lon="1.23658">
        <ele>317.9</ele>
        <time>2024-11-12T08:55:43Z</time>
      </trkpt>
      <trkpt lat="45.85774" lon="1.23659">
        <ele>317.9</ele>
        <time>2024-11-12T08:55:44Z</time>
      </trkpt>
      <trkpt lat="45.85775" lon="1.23661">
        <ele>317.9</ele>
        <time>2024-11-12T08:55:45Z</time>
      </trkpt>
      <trkpt lat="45.85777" lon="1.23665">
        <ele>317.9</ele>
        <time>2024-11-12T08:55:46Z</time>
      </trkpt>
      <trkpt lat="45.85778" lon="1.23666">
        <ele>317.9</ele>
        <time>2024-11-12T08:55:47Z</time>
      </trkpt>
      <trkpt lat="45.85778" lon="1.2367">
        <ele>317.9</ele>
        <time>2024-11-12T08:55:48Z</time>
      </trkpt>
      <trkpt lat="45.85779" lon="1.23671">
        <ele>317.9</ele>
        <time>2024-11-12T08:55:49Z</time>
      </trkpt>
      <trkpt lat="45.8578" lon="1.23673">
        <ele>317.9</ele>
        <time>2024-11-12T08:55:50Z</time>
      </trkpt>
      <trkpt lat="45.8578" lon="1.23675">
        <ele>317.9</ele>
        <time>2024-11-12T08:55:51Z</time>
      </trkpt>
      <trkpt lat="45.85781" lon="1.23677">
        <ele>317.9</ele>
        <time>2024-11-12T08:55:52Z</time>
      </trkpt>
      <trkpt lat="45.85781" lon="1.2368">
        <ele>317.9</ele>
        <time>2024-11-12T08:55:53Z</time>
      </trkpt>
      <trkpt lat="45.85782" lon="1.23682">
        <ele>317.9</ele>
        <time>2024-11-12T08:55:54Z</time>
      </trkpt>
      <trkpt lat="45.85783" lon="1.23683">
        <ele>317.9</ele>
        <time>2024-11-12T08:55:55Z</time>
      </trkpt>
      <trkpt lat="45.85783" lon="1.23685">
        <ele>317.9</ele>
        <time>2024-11-12T08:55:56Z</time>
      </trkpt>
      <trkpt lat="45.85784" lon="1.23687">
        <ele>317.9</ele>
        <time>2024-11-12T08:55:57Z</time>
      </trkpt>
      <trkpt lat="45.85784" lon="1.2369">
        <ele>317.9</ele>
        <time>2024-11-12T08:55:58Z</time>
      </trkpt>
      <trkpt lat="45.85785" lon="1.23691">
        <ele>317.9</ele>
        <time>2024-11-12T08:55:59Z</time>
      </trkpt>
      <trkpt lat="45.85786" lon="1.23693">
        <ele>317.9</ele>
        <time>2024-11-12T08:56:00Z</time>
      </trkpt>
      <trkpt lat="45.85787" lon="1.23694">
        <ele>317.9</ele>
        <time>2024-11-12T08:56:01Z</time>
      </trkpt>
      <trkpt lat="45.85788" lon="1.23695">
        <ele>317.9</ele>
        <time>2024-11-12T08:56:02Z</time>
      </trkpt>
      <trkpt lat="45.85789" lon="1.23697">
        <ele>317.8</ele>
        <time>2024-11-12T08:56:03Z</time>
      </trkpt>
      <trkpt lat="45.8579" lon="1.23697">
        <ele>317.8</ele>
        <time>2024-11-12T08:56:04Z</time>
      </trkpt>
      <trkpt lat="45.85791" lon="1.23697">
        <ele>317.8</ele>
        <time>2024-11-12T08:56:05Z</time>
      </trkpt>
      <trkpt lat="45.85791" lon="1.23697">
        <ele>317.8</ele>
        <time>2024-11-12T08:56:06Z</time>
      </trkpt>
      <trkpt lat="45.85792" lon="1.23698">
        <ele>317.8</ele>
        <time>2024-11-12T08:56:07Z</time>
      </trkpt>
      <trkpt lat="45.85793" lon="1.23698">
        <ele>317.8</ele>
        <time>2024-11-12T08:56:08Z</time>
      </trkpt>
      <trkpt lat="45.85794" lon="1.23698">
        <ele>317.8</ele>
        <time>2024-11-12T08:56:09Z</time>
      </trkpt>
      <trkpt lat="45.85794" lon="1.23698">
        <ele>317.9</ele>
        <time>2024-11-12T08:56:10Z</time>
      </trkpt>
      <trkpt lat="45.85796" lon="1.23699">
        <ele>317.9</ele>
        <time>2024-11-12T08:56:11Z</time>
      </trkpt>
      <trkpt lat="45.85797" lon="1.237">
        <ele>318</ele>
        <time>2024-11-12T08:56:12Z</time>
      </trkpt>
      <trkpt lat="45.85798" lon="1.237">
        <ele>318.1</ele>
        <time>2024-11-12T08:56:13Z</time>
      </trkpt>
      <trkpt lat="45.858" lon="1.23701">
        <ele>318.2</ele>
        <time>2024-11-12T08:56:14Z</time>
      </trkpt>
      <trkpt lat="45.85801" lon="1.23701">
        <ele>318.2</ele>
        <time>2024-11-12T08:56:15Z</time>
      </trkpt>
      <trkpt lat="45.85802" lon="1.23701">
        <ele>318.3</ele>
        <time>2024-11-12T08:56:16Z</time>
      </trkpt>
      <trkpt lat="45.85803" lon="1.237">
        <ele>318.3</ele>
        <time>2024-11-12T08:56:17Z</time>
      </trkpt>
      <trkpt lat="45.85804" lon="1.237">
        <ele>318.4</ele>
        <time>2024-11-12T08:56:18Z</time>
      </trkpt>
      <trkpt lat="45.85805" lon="1.237">
        <ele>318.4</ele>
        <time>2024-11-12T08:56:19Z</time>
      </trkpt>
      <trkpt lat="45.85806" lon="1.237">
        <ele>318.5</ele>
        <time>2024-11-12T08:56:20Z</time>
      </trkpt>
      <trkpt lat="45.85808" lon="1.23699">
        <ele>318.5</ele>
        <time>2024-11-12T08:56:21Z</time>
      </trkpt>
      <trkpt lat="45.85809" lon="1.23698">
        <ele>318.6</ele>
        <time>2024-11-12T08:56:22Z</time>
      </trkpt>
      <trkpt lat="45.85811" lon="1.23695">
        <ele>318.8</ele>
        <time>2024-11-12T08:56:23Z</time>
      </trkpt>
      <trkpt lat="45.85812" lon="1.23695">
        <ele>318.8</ele>
        <time>2024-11-12T08:56:24Z</time>
      </trkpt>
      <trkpt lat="45.85813" lon="1.23694">
        <ele>318.9</ele>
        <time>2024-11-12T08:56:25Z</time>
      </trkpt>
      <trkpt lat="45.85814" lon="1.23693">
        <ele>319</ele>
        <time>2024-11-12T08:56:26Z</time>
      </trkpt>
      <trkpt lat="45.85817" lon="1.2369">
        <ele>319.2</ele>
        <time>2024-11-12T08:56:27Z</time>
      </trkpt>
      <trkpt lat="45.85818" lon="1.23688">
        <ele>319.3</ele>
        <time>2024-11-12T08:56:28Z</time>
      </trkpt>
      <trkpt lat="45.8582" lon="1.23686">
        <ele>319.5</ele>
        <time>2024-11-12T08:56:29Z</time>
      </trkpt>
      <trkpt lat="45.85821" lon="1.23685">
        <ele>319.5</ele>
        <time>2024-11-12T08:56:30Z</time>
      </trkpt>
      <trkpt lat="45.85822" lon="1.23685">
        <ele>319.6</ele>
        <time>2024-11-12T08:56:31Z</time>
      </trkpt>
      <trkpt lat="45.85824" lon="1.23683">
        <ele>319.8</ele>
        <time>2024-11-12T08:56:32Z</time>
      </trkpt>
      <trkpt lat="45.85825" lon="1.23682">
        <ele>319.8</ele>
        <time>2024-11-12T08:56:33Z</time>
      </trkpt>
      <trkpt lat="45.85826" lon="1.23682">
        <ele>319.9</ele>
        <time>2024-11-12T08:56:34Z</time>
      </trkpt>
      <trkpt lat="45.85827" lon="1.23681">
        <ele>320</ele>
        <time>2024-11-12T08:56:35Z</time>
      </trkpt>
      <trkpt lat="45.85828" lon="1.2368">
        <ele>320.1</ele>
        <time>2024-11-12T08:56:36Z</time>
      </trkpt>
      <trkpt lat="45.8583" lon="1.23679">
        <ele>320.2</ele>
        <time>2024-11-12T08:56:37Z</time>
      </trkpt>
      <trkpt lat="45.8583" lon="1.23678">
        <ele>320.3</ele>
        <time>2024-11-12T08:56:38Z</time>
      </trkpt>
      <trkpt lat="45.85831" lon="1.23677">
        <ele>320.3</ele>
        <time>2024-11-12T08:56:39Z</time>
      </trkpt>
      <trkpt lat="45.85833" lon="1.23676">
        <ele>320.5</ele>
        <time>2024-11-12T08:56:40Z</time>
      </trkpt>
      <trkpt lat="45.85834" lon="1.23675">
        <ele>320.5</ele>
        <time>2024-11-12T08:56:41Z</time>
      </trkpt>
      <trkpt lat="45.85835" lon="1.23675">
        <ele>320.6</ele>
        <time>2024-11-12T08:56:42Z</time>
      </trkpt>
      <trkpt lat="45.85836" lon="1.23673">
        <ele>320.7</ele>
        <time>2024-11-12T08:56:43Z</time>
      </trkpt>
      <trkpt lat="45.85836" lon="1.23673">
        <ele>320.7</ele>
        <time>2024-11-12T08:56:44Z</time>
      </trkpt>
      <trkpt lat="45.85837" lon="1.23673">
        <ele>320.8</ele>
        <time>2024-11-12T08:56:45Z</time>
      </trkpt>
      <trkpt lat="45.85838" lon="1.23672">
        <ele>320.8</ele>
        <time>2024-11-12T08:56:46Z</time>
      </trkpt>
      <trkpt lat="45.85839" lon="1.23671">
        <ele>320.9</ele>
        <time>2024-11-12T08:56:47Z</time>
      </trkpt>
      <trkpt lat="45.8584" lon="1.23672">
        <ele>321</ele>
        <time>2024-11-12T08:56:48Z</time>
      </trkpt>
      <trkpt lat="45.85842" lon="1.2367">
        <ele>321.2</ele>
        <time>2024-11-12T08:56:49Z</time>
      </trkpt>
      <trkpt lat="45.85843" lon="1.2367">
        <ele>321.2</ele>
        <time>2024-11-12T08:56:50Z</time>
      </trkpt>
      <trkpt lat="45.85844" lon="1.23669">
        <ele>321.3</ele>
        <time>2024-11-12T08:56:51Z</time>
      </trkpt>
      <trkpt lat="45.85845" lon="1.23668">
        <ele>321.4</ele>
        <time>2024-11-12T08:56:52Z</time>
      </trkpt>
      <trkpt lat="45.85846" lon="1.23667">
        <ele>321.5</ele>
        <time>2024-11-12T08:56:53Z</time>
      </trkpt>
      <trkpt lat="45.85848" lon="1.23666">
        <ele>321.7</ele>
        <time>2024-11-12T08:56:54Z</time>
      </trkpt>
      <trkpt lat="45.85848" lon="1.23665">
        <ele>321.7</ele>
        <time>2024-11-12T08:56:55Z</time>
      </trkpt>
      <trkpt lat="45.85849" lon="1.23664">
        <ele>321.8</ele>
        <time>2024-11-12T08:56:56Z</time>
      </trkpt>
      <trkpt lat="45.8585" lon="1.23664">
        <ele>321.9</ele>
        <time>2024-11-12T08:56:57Z</time>
      </trkpt>
      <trkpt lat="45.85852" lon="1.23662">
        <ele>322.1</ele>
        <time>2024-11-12T08:56:58Z</time>
      </trkpt>
      <trkpt lat="45.85853" lon="1.23661">
        <ele>322.1</ele>
        <time>2024-11-12T08:56:59Z</time>
      </trkpt>
      <trkpt lat="45.85854" lon="1.2366">
        <ele>322.2</ele>
        <time>2024-11-12T08:57:00Z</time>
      </trkpt>
      <trkpt lat="45.85855" lon="1.23659">
        <ele>322.3</ele>
        <time>2024-11-12T08:57:01Z</time>
      </trkpt>
      <trkpt lat="45.85855" lon="1.23659">
        <ele>322.3</ele>
        <time>2024-11-12T08:57:02Z</time>
      </trkpt>
      <trkpt lat="45.85857" lon="1.23659">
        <ele>322.5</ele>
        <time>2024-11-12T08:57:03Z</time>
      </trkpt>
      <trkpt lat="45.85857" lon="1.2366">
        <ele>322.5</ele>
        <time>2024-11-12T08:57:04Z</time>
      </trkpt>
      <trkpt lat="45.85858" lon="1.2366">
        <ele>322.5</ele>
        <time>2024-11-12T08:57:05Z</time>
      </trkpt>
      <trkpt lat="45.85859" lon="1.23659">
        <ele>322.6</ele>
        <time>2024-11-12T08:57:06Z</time>
      </trkpt>
      <trkpt lat="45.8586" lon="1.23659">
        <ele>322.7</ele>
        <time>2024-11-12T08:57:07Z</time>
      </trkpt>
      <trkpt lat="45.85861" lon="1.23658">
        <ele>322.8</ele>
        <time>2024-11-12T08:57:08Z</time>
      </trkpt>
      <trkpt lat="45.85862" lon="1.23658">
        <ele>322.9</ele>
        <time>2024-11-12T08:57:09Z</time>
      </trkpt>
      <trkpt lat="45.85863" lon="1.23658">
        <ele>322.9</ele>
        <time>2024-11-12T08:57:10Z</time>
      </trkpt>
      <trkpt lat="45.85864" lon="1.23658">
        <ele>323</ele>
        <time>2024-11-12T08:57:11Z</time>
      </trkpt>
      <trkpt lat="45.85865" lon="1.23657">
        <ele>323.1</ele>
        <time>2024-11-12T08:57:12Z</time>
      </trkpt>
      <trkpt lat="45.85867" lon="1.23656">
        <ele>323.2</ele>
        <time>2024-11-12T08:57:13Z</time>
      </trkpt>
      <trkpt lat="45.85867" lon="1.23655">
        <ele>323.3</ele>
        <time>2024-11-12T08:57:14Z</time>
      </trkpt>
      <trkpt lat="45.85867" lon="1.23654">
        <ele>323.3</ele>
        <time>2024-11-12T08:57:15Z</time>
      </trkpt>
      <trkpt lat="45.85867" lon="1.23653">
        <ele>323.3</ele>
        <time>2024-11-12T08:57:16Z</time>
      </trkpt>
      <trkpt lat="45.85868" lon="1.23654">
        <ele>323.4</ele>
        <time>2024-11-12T08:57:17Z</time>
      </trkpt>
      <trkpt lat="45.85868" lon="1.23656">
        <ele>323.5</ele>
        <time>2024-11-12T08:57:18Z</time>
      </trkpt>
      <trkpt lat="45.85868" lon="1.23655">
        <ele>323.5</ele>
        <time>2024-11-12T08:57:19Z</time>
      </trkpt>
      <trkpt lat="45.85868" lon="1.23655">
        <ele>323.5</ele>
        <time>2024-11-12T08:57:20Z</time>
      </trkpt>
      <trkpt lat="45.85868" lon="1.23654">
        <ele>323.5</ele>
        <time>2024-11-12T08:57:21Z</time>
      </trkpt>
      <trkpt lat="45.85869" lon="1.23652">
        <ele>323.6</ele>
        <time>2024-11-12T08:57:22Z</time>
      </trkpt>
      <trkpt lat="45.85871" lon="1.23651">
        <ele>323.8</ele>
        <time>2024-11-12T08:57:23Z</time>
      </trkpt>
      <trkpt lat="45.85872" lon="1.23652">
        <ele>323.7</ele>
        <time>2024-11-12T08:57:24Z</time>
      </trkpt>
      <trkpt lat="45.85873" lon="1.23654">
        <ele>323.6</ele>
        <time>2024-11-12T08:57:25Z</time>
      </trkpt>
      <trkpt lat="45.85875" lon="1.23655">
        <ele>323.5</ele>
        <time>2024-11-12T08:57:26Z</time>
      </trkpt>
      <trkpt lat="45.85877" lon="1.23657">
        <ele>323.3</ele>
        <time>2024-11-12T08:57:27Z</time>
      </trkpt>
      <trkpt lat="45.85877" lon="1.23659">
        <ele>323.2</ele>
        <time>2024-11-12T08:57:28Z</time>
      </trkpt>
      <trkpt lat="45.85878" lon="1.23661">
        <ele>323.1</ele>
        <time>2024-11-12T08:57:29Z</time>
      </trkpt>
      <trkpt lat="45.85879" lon="1.23663">
        <ele>323</ele>
        <time>2024-11-12T08:57:30Z</time>
      </trkpt>
      <trkpt lat="45.85879" lon="1.23665">
        <ele>322.9</ele>
        <time>2024-11-12T08:57:31Z</time>
      </trkpt>
      <trkpt lat="45.8588" lon="1.23667">
        <ele>322.8</ele>
        <time>2024-11-12T08:57:32Z</time>
      </trkpt>
      <trkpt lat="45.8588" lon="1.23669">
        <ele>322.7</ele>
        <time>2024-11-12T08:57:33Z</time>
      </trkpt>
      <trkpt lat="45.8588" lon="1.23671">
        <ele>322.6</ele>
        <time>2024-11-12T08:57:34Z</time>
      </trkpt>
      <trkpt lat="45.8588" lon="1.23673">
        <ele>322.6</ele>
        <time>2024-11-12T08:57:35Z</time>
      </trkpt>
      <trkpt lat="45.8588" lon="1.23675">
        <ele>322.5</ele>
        <time>2024-11-12T08:57:36Z</time>
      </trkpt>
      <trkpt lat="45.85879" lon="1.23677">
        <ele>322.4</ele>
        <time>2024-11-12T08:57:37Z</time>
      </trkpt>
      <trkpt lat="45.85878" lon="1.23678">
        <ele>322.4</ele>
        <time>2024-11-12T08:57:38Z</time>
      </trkpt>
      <trkpt lat="45.85878" lon="1.23678">
        <ele>322.3</ele>
        <time>2024-11-12T08:57:39Z</time>
      </trkpt>
      <trkpt lat="45.85878" lon="1.23681">
        <ele>322.2</ele>
        <time>2024-11-12T08:57:40Z</time>
      </trkpt>
      <trkpt lat="45.85878" lon="1.23683">
        <ele>322.2</ele>
        <time>2024-11-12T08:57:41Z</time>
      </trkpt>
      <trkpt lat="45.85879" lon="1.23684">
        <ele>322.1</ele>
        <time>2024-11-12T08:57:42Z</time>
      </trkpt>
      <trkpt lat="45.85881" lon="1.23688">
        <ele>321.9</ele>
        <time>2024-11-12T08:57:43Z</time>
      </trkpt>
      <trkpt lat="45.85881" lon="1.23688">
        <ele>321.9</ele>
        <time>2024-11-12T08:57:44Z</time>
      </trkpt>
      <trkpt lat="45.85882" lon="1.2369">
        <ele>321.8</ele>
        <time>2024-11-12T08:57:45Z</time>
      </trkpt>
      <trkpt lat="45.85883" lon="1.23692">
        <ele>321.7</ele>
        <time>2024-11-12T08:57:46Z</time>
      </trkpt>
      <trkpt lat="45.85883" lon="1.23694">
        <ele>321.7</ele>
        <time>2024-11-12T08:57:47Z</time>
      </trkpt>
      <trkpt lat="45.85884" lon="1.23696">
        <ele>321.6</ele>
        <time>2024-11-12T08:57:48Z</time>
      </trkpt>
      <trkpt lat="45.85885" lon="1.23698">
        <ele>321.5</ele>
        <time>2024-11-12T08:57:49Z</time>
      </trkpt>
      <trkpt lat="45.85885" lon="1.237">
        <ele>321.5</ele>
        <time>2024-11-12T08:57:50Z</time>
      </trkpt>
      <trkpt lat="45.85886" lon="1.23701">
        <ele>321.4</ele>
        <time>2024-11-12T08:57:51Z</time>
      </trkpt>
      <trkpt lat="45.85886" lon="1.23704">
        <ele>321.3</ele>
        <time>2024-11-12T08:57:52Z</time>
      </trkpt>
      <trkpt lat="45.85888" lon="1.23706">
        <ele>321.2</ele>
        <time>2024-11-12T08:57:53Z</time>
      </trkpt>
      <trkpt lat="45.85888" lon="1.23707">
        <ele>321.1</ele>
        <time>2024-11-12T08:57:54Z</time>
      </trkpt>
      <trkpt lat="45.85888" lon="1.23709">
        <ele>321.1</ele>
        <time>2024-11-12T08:57:55Z</time>
      </trkpt>
      <trkpt lat="45.85889" lon="1.23711">
        <ele>321</ele>
        <time>2024-11-12T08:57:56Z</time>
      </trkpt>
      <trkpt lat="45.85889" lon="1.23712">
        <ele>320.9</ele>
        <time>2024-11-12T08:57:57Z</time>
      </trkpt>
      <trkpt lat="45.8589" lon="1.23715">
        <ele>320.8</ele>
        <time>2024-11-12T08:57:58Z</time>
      </trkpt>
      <trkpt lat="45.85891" lon="1.23716">
        <ele>320.8</ele>
        <time>2024-11-12T08:57:59Z</time>
      </trkpt>
      <trkpt lat="45.85891" lon="1.23717">
        <ele>320.7</ele>
        <time>2024-11-12T08:58:00Z</time>
      </trkpt>
      <trkpt lat="45.85892" lon="1.23719">
        <ele>320.7</ele>
        <time>2024-11-12T08:58:01Z</time>
      </trkpt>
      <trkpt lat="45.85893" lon="1.23721">
        <ele>320.6</ele>
        <time>2024-11-12T08:58:02Z</time>
      </trkpt>
      <trkpt lat="45.85894" lon="1.23722">
        <ele>320.5</ele>
        <time>2024-11-12T08:58:03Z</time>
      </trkpt>
      <trkpt lat="45.85894" lon="1.23722">
        <ele>320.5</ele>
        <time>2024-11-12T08:58:04Z</time>
      </trkpt>
      <trkpt lat="45.85895" lon="1.23723">
        <ele>320.4</ele>
        <time>2024-11-12T08:58:05Z</time>
      </trkpt>
      <trkpt lat="45.85895" lon="1.23724">
        <ele>320.4</ele>
        <time>2024-11-12T08:58:06Z</time>
      </trkpt>
      <trkpt lat="45.85896" lon="1.23725">
        <ele>320.3</ele>
        <time>2024-11-12T08:58:07Z</time>
      </trkpt>
      <trkpt lat="45.85897" lon="1.23726">
        <ele>320.3</ele>
        <time>2024-11-12T08:58:08Z</time>
      </trkpt>
      <trkpt lat="45.85897" lon="1.23727">
        <ele>320.2</ele>
        <time>2024-11-12T08:58:09Z</time>
      </trkpt>
      <trkpt lat="45.85898" lon="1.23729">
        <ele>320.2</ele>
        <time>2024-11-12T08:58:10Z</time>
      </trkpt>
      <trkpt lat="45.85899" lon="1.23729">
        <ele>320.1</ele>
        <time>2024-11-12T08:58:11Z</time>
      </trkpt>
      <trkpt lat="45.85899" lon="1.23731">
        <ele>320.1</ele>
        <time>2024-11-12T08:58:12Z</time>
      </trkpt>
      <trkpt lat="45.859" lon="1.23731">
        <ele>320</ele>
        <time>2024-11-12T08:58:13Z</time>
      </trkpt>
      <trkpt lat="45.859" lon="1.23732">
        <ele>320</ele>
        <time>2024-11-12T08:58:14Z</time>
      </trkpt>
      <trkpt lat="45.85901" lon="1.23733">
        <ele>319.9</ele>
        <time>2024-11-12T08:58:15Z</time>
      </trkpt>
      <trkpt lat="45.85901" lon="1.23734">
        <ele>319.9</ele>
        <time>2024-11-12T08:58:16Z</time>
      </trkpt>
      <trkpt lat="45.85902" lon="1.23736">
        <ele>319.8</ele>
        <time>2024-11-12T08:58:17Z</time>
      </trkpt>
      <trkpt lat="45.85901" lon="1.23738">
        <ele>319.8</ele>
        <time>2024-11-12T08:58:18Z</time>
      </trkpt>
      <trkpt lat="45.85901" lon="1.23739">
        <ele>319.7</ele>
        <time>2024-11-12T08:58:19Z</time>
      </trkpt>
      <trkpt lat="45.85901" lon="1.23741">
        <ele>319.7</ele>
        <time>2024-11-12T08:58:20Z</time>
      </trkpt>
      <trkpt lat="45.85901" lon="1.23742">
        <ele>319.6</ele>
        <time>2024-11-12T08:58:21Z</time>
      </trkpt>
      <trkpt lat="45.85901" lon="1.23744">
        <ele>319.6</ele>
        <time>2024-11-12T08:58:22Z</time>
      </trkpt>
      <trkpt lat="45.85902" lon="1.23744">
        <ele>319.5</ele>
        <time>2024-11-12T08:58:23Z</time>
      </trkpt>
      <trkpt lat="45.85903" lon="1.23745">
        <ele>319.4</ele>
        <time>2024-11-12T08:58:24Z</time>
      </trkpt>
      <trkpt lat="45.85903" lon="1.23746">
        <ele>319.4</ele>
        <time>2024-11-12T08:58:25Z</time>
      </trkpt>
      <trkpt lat="45.85903" lon="1.23748">
        <ele>319.4</ele>
        <time>2024-11-12T08:58:26Z</time>
      </trkpt>
      <trkpt lat="45.85902" lon="1.23749">
        <ele>319.3</ele>
        <time>2024-11-12T08:58:27Z</time>
      </trkpt>
      <trkpt lat="45.85902" lon="1.2375">
        <ele>319.3</ele>
        <time>2024-11-12T08:58:28Z</time>
      </trkpt>
      <trkpt lat="45.85903" lon="1.23752">
        <ele>319.2</ele>
        <time>2024-11-12T08:58:29Z</time>
      </trkpt>
      <trkpt lat="45.85903" lon="1.23753">
        <ele>319.1</ele>
        <time>2024-11-12T08:58:30Z</time>
      </trkpt>
      <trkpt lat="45.85903" lon="1.23756">
        <ele>319</ele>
        <time>2024-11-12T08:58:31Z</time>
      </trkpt>
      <trkpt lat="45.85904" lon="1.23758">
        <ele>319</ele>
        <time>2024-11-12T08:58:32Z</time>
      </trkpt>
      <trkpt lat="45.85904" lon="1.23759">
        <ele>318.9</ele>
        <time>2024-11-12T08:58:33Z</time>
      </trkpt>
      <trkpt lat="45.85904" lon="1.2376">
        <ele>318.9</ele>
        <time>2024-11-12T08:58:34Z</time>
      </trkpt>
      <trkpt lat="45.85904" lon="1.23761">
        <ele>318.8</ele>
        <time>2024-11-12T08:58:35Z</time>
      </trkpt>
      <trkpt lat="45.85904" lon="1.23763">
        <ele>318.8</ele>
        <time>2024-11-12T08:58:36Z</time>
      </trkpt>
      <trkpt lat="45.85904" lon="1.23763">
        <ele>318.8</ele>
        <time>2024-11-12T08:58:37Z</time>
      </trkpt>
      <trkpt lat="45.85904" lon="1.2376">
        <ele>318.6</ele>
        <time>2024-11-12T08:58:38Z</time>
      </trkpt>
      <trkpt lat="45.85904" lon="1.2376">
        <ele>318.6</ele>
        <time>2024-11-12T08:58:39Z</time>
      </trkpt>
      <trkpt lat="45.85904" lon="1.2376">
        <ele>318.6</ele>
        <time>2024-11-12T08:58:40Z</time>
      </trkpt>
      <trkpt lat="45.85905" lon="1.23761">
        <ele>318.6</ele>
        <time>2024-11-12T08:58:41Z</time>
      </trkpt>
      <trkpt lat="45.85905" lon="1.23763">
        <ele>318.5</ele>
        <time>2024-11-12T08:58:42Z</time>
      </trkpt>
      <trkpt lat="45.85905" lon="1.23766">
        <ele>318.4</ele>
        <time>2024-11-12T08:58:43Z</time>
      </trkpt>
      <trkpt lat="45.85905" lon="1.23767">
        <ele>318.3</ele>
        <time>2024-11-12T08:58:44Z</time>
      </trkpt>
      <trkpt lat="45.85906" lon="1.23771">
        <ele>318.2</ele>
        <time>2024-11-12T08:58:45Z</time>
      </trkpt>
      <trkpt lat="45.85906" lon="1.23772">
        <ele>318.1</ele>
        <time>2024-11-12T08:58:46Z</time>
      </trkpt>
      <trkpt lat="45.85907" lon="1.23775">
        <ele>318.1</ele>
        <time>2024-11-12T08:58:47Z</time>
      </trkpt>
      <trkpt lat="45.85907" lon="1.23777">
        <ele>318</ele>
        <time>2024-11-12T08:58:48Z</time>
      </trkpt>
      <trkpt lat="45.85907" lon="1.2378">
        <ele>317.9</ele>
        <time>2024-11-12T08:58:49Z</time>
      </trkpt>
      <trkpt lat="45.85908" lon="1.23781">
        <ele>317.8</ele>
        <time>2024-11-12T08:58:50Z</time>
      </trkpt>
      <trkpt lat="45.85908" lon="1.23783">
        <ele>317.8</ele>
        <time>2024-11-12T08:58:51Z</time>
      </trkpt>
      <trkpt lat="45.85908" lon="1.23785">
        <ele>317.7</ele>
        <time>2024-11-12T08:58:52Z</time>
      </trkpt>
      <trkpt lat="45.85909" lon="1.23786">
        <ele>317.6</ele>
        <time>2024-11-12T08:58:53Z</time>
      </trkpt>
      <trkpt lat="45.85909" lon="1.23787">
        <ele>317.6</ele>
        <time>2024-11-12T08:58:54Z</time>
      </trkpt>
      <trkpt lat="45.85909" lon="1.23789">
        <ele>317.6</ele>
        <time>2024-11-12T08:58:55Z</time>
      </trkpt>
      <trkpt lat="45.85909" lon="1.2379">
        <ele>317.5</ele>
        <time>2024-11-12T08:58:56Z</time>
      </trkpt>
      <trkpt lat="45.8591" lon="1.23792">
        <ele>317.4</ele>
        <time>2024-11-12T08:58:57Z</time>
      </trkpt>
      <trkpt lat="45.8591" lon="1.23793">
        <ele>317.4</ele>
        <time>2024-11-12T08:58:58Z</time>
      </trkpt>
      <trkpt lat="45.8591" lon="1.23794">
        <ele>317.4</ele>
        <time>2024-11-12T08:58:59Z</time>
      </trkpt>
      <trkpt lat="45.85911" lon="1.23796">
        <ele>317.3</ele>
        <time>2024-11-12T08:59:00Z</time>
      </trkpt>
      <trkpt lat="45.85911" lon="1.23797">
        <ele>317.3</ele>
        <time>2024-11-12T08:59:01Z</time>
      </trkpt>
      <trkpt lat="45.85911" lon="1.23799">
        <ele>317.2</ele>
        <time>2024-11-12T08:59:02Z</time>
      </trkpt>
      <trkpt lat="45.85912" lon="1.23802">
        <ele>317.1</ele>
        <time>2024-11-12T08:59:03Z</time>
      </trkpt>
      <trkpt lat="45.85912" lon="1.23803">
        <ele>317</ele>
        <time>2024-11-12T08:59:04Z</time>
      </trkpt>
      <trkpt lat="45.85912" lon="1.23804">
        <ele>317</ele>
        <time>2024-11-12T08:59:05Z</time>
      </trkpt>
      <trkpt lat="45.85913" lon="1.23806">
        <ele>316.9</ele>
        <time>2024-11-12T08:59:06Z</time>
      </trkpt>
      <trkpt lat="45.85913" lon="1.23808">
        <ele>316.8</ele>
        <time>2024-11-12T08:59:07Z</time>
      </trkpt>
      <trkpt lat="45.85914" lon="1.23811">
        <ele>316.7</ele>
        <time>2024-11-12T08:59:08Z</time>
      </trkpt>
      <trkpt lat="45.85914" lon="1.23812">
        <ele>316.7</ele>
        <time>2024-11-12T08:59:09Z</time>
      </trkpt>
      <trkpt lat="45.85915" lon="1.23815">
        <ele>316.5</ele>
        <time>2024-11-12T08:59:10Z</time>
      </trkpt>
      <trkpt lat="45.85915" lon="1.23816">
        <ele>316.5</ele>
        <time>2024-11-12T08:59:11Z</time>
      </trkpt>
      <trkpt lat="45.85916" lon="1.23817">
        <ele>316.4</ele>
        <time>2024-11-12T08:59:12Z</time>
      </trkpt>
      <trkpt lat="45.85915" lon="1.2382">
        <ele>316.3</ele>
        <time>2024-11-12T08:59:13Z</time>
      </trkpt>
      <trkpt lat="45.85916" lon="1.23821">
        <ele>316.3</ele>
        <time>2024-11-12T08:59:14Z</time>
      </trkpt>
      <trkpt lat="45.85916" lon="1.23822">
        <ele>316.2</ele>
        <time>2024-11-12T08:59:15Z</time>
      </trkpt>
      <trkpt lat="45.85917" lon="1.23825">
        <ele>316.1</ele>
        <time>2024-11-12T08:59:16Z</time>
      </trkpt>
      <trkpt lat="45.85917" lon="1.23827">
        <ele>316.1</ele>
        <time>2024-11-12T08:59:17Z</time>
      </trkpt>
      <trkpt lat="45.85917" lon="1.23828">
        <ele>316</ele>
        <time>2024-11-12T08:59:18Z</time>
      </trkpt>
      <trkpt lat="45.85918" lon="1.23829">
        <ele>316</ele>
        <time>2024-11-12T08:59:19Z</time>
      </trkpt>
      <trkpt lat="45.85918" lon="1.23831">
        <ele>315.9</ele>
        <time>2024-11-12T08:59:20Z</time>
      </trkpt>
      <trkpt lat="45.85919" lon="1.23832">
        <ele>315.9</ele>
        <time>2024-11-12T08:59:21Z</time>
      </trkpt>
      <trkpt lat="45.85919" lon="1.23836">
        <ele>315.8</ele>
        <time>2024-11-12T08:59:22Z</time>
      </trkpt>
      <trkpt lat="45.85919" lon="1.23838">
        <ele>315.7</ele>
        <time>2024-11-12T08:59:23Z</time>
      </trkpt>
      <trkpt lat="45.85919" lon="1.23839">
        <ele>315.7</ele>
        <time>2024-11-12T08:59:24Z</time>
      </trkpt>
      <trkpt lat="45.85919" lon="1.23841">
        <ele>315.6</ele>
        <time>2024-11-12T08:59:25Z</time>
      </trkpt>
      <trkpt lat="45.85919" lon="1.23843">
        <ele>315.6</ele>
        <time>2024-11-12T08:59:26Z</time>
      </trkpt>
      <trkpt lat="45.8592" lon="1.23844">
        <ele>315.6</ele>
        <time>2024-11-12T08:59:27Z</time>
      </trkpt>
      <trkpt lat="45.8592" lon="1.23847">
        <ele>315.5</ele>
        <time>2024-11-12T08:59:28Z</time>
      </trkpt>
      <trkpt lat="45.8592" lon="1.23848">
        <ele>315.5</ele>
        <time>2024-11-12T08:59:29Z</time>
      </trkpt>
      <trkpt lat="45.8592" lon="1.2385">
        <ele>315.4</ele>
        <time>2024-11-12T08:59:30Z</time>
      </trkpt>
      <trkpt lat="45.85921" lon="1.23851">
        <ele>315.4</ele>
        <time>2024-11-12T08:59:31Z</time>
      </trkpt>
      <trkpt lat="45.85921" lon="1.23854">
        <ele>315.3</ele>
        <time>2024-11-12T08:59:32Z</time>
      </trkpt>
      <trkpt lat="45.85921" lon="1.23856">
        <ele>315.3</ele>
        <time>2024-11-12T08:59:33Z</time>
      </trkpt>
      <trkpt lat="45.85921" lon="1.23857">
        <ele>315.3</ele>
        <time>2024-11-12T08:59:34Z</time>
      </trkpt>
      <trkpt lat="45.8592" lon="1.23858">
        <ele>315.3</ele>
        <time>2024-11-12T08:59:35Z</time>
      </trkpt>
      <trkpt lat="45.8592" lon="1.23859">
        <ele>315.3</ele>
        <time>2024-11-12T08:59:36Z</time>
      </trkpt>
      <trkpt lat="45.85919" lon="1.23861">
        <ele>315.3</ele>
        <time>2024-11-12T08:59:37Z</time>
      </trkpt>
      <trkpt lat="45.85917" lon="1.23861">
        <ele>315.3</ele>
        <time>2024-11-12T08:59:38Z</time>
      </trkpt>
      <trkpt lat="45.85915" lon="1.23861">
        <ele>315.3</ele>
        <time>2024-11-12T08:59:39Z</time>
      </trkpt>
      <trkpt lat="45.85914" lon="1.23862">
        <ele>315.3</ele>
        <time>2024-11-12T08:59:40Z</time>
      </trkpt>
      <trkpt lat="45.85914" lon="1.23863">
        <ele>315.3</ele>
        <time>2024-11-12T08:59:41Z</time>
      </trkpt>
      <trkpt lat="45.85913" lon="1.23865">
        <ele>315.3</ele>
        <time>2024-11-12T08:59:42Z</time>
      </trkpt>
      <trkpt lat="45.85911" lon="1.23865">
        <ele>315.4</ele>
        <time>2024-11-12T08:59:43Z</time>
      </trkpt>
      <trkpt lat="45.8591" lon="1.23866">
        <ele>315.4</ele>
        <time>2024-11-12T08:59:44Z</time>
      </trkpt>
      <trkpt lat="45.85909" lon="1.23866">
        <ele>315.4</ele>
        <time>2024-11-12T08:59:45Z</time>
      </trkpt>
      <trkpt lat="45.85907" lon="1.23865">
        <ele>315.4</ele>
        <time>2024-11-12T08:59:46Z</time>
      </trkpt>
      <trkpt lat="45.85906" lon="1.23865">
        <ele>315.4</ele>
        <time>2024-11-12T08:59:47Z</time>
      </trkpt>
      <trkpt lat="45.85904" lon="1.23864">
        <ele>315.4</ele>
        <time>2024-11-12T08:59:48Z</time>
      </trkpt>
      <trkpt lat="45.85902" lon="1.23863">
        <ele>315.5</ele>
        <time>2024-11-12T08:59:49Z</time>
      </trkpt>
      <trkpt lat="45.85901" lon="1.23862">
        <ele>315.4</ele>
        <time>2024-11-12T08:59:50Z</time>
      </trkpt>
      <trkpt lat="45.85899" lon="1.23862">
        <ele>315.3</ele>
        <time>2024-11-12T08:59:51Z</time>
      </trkpt>
      <trkpt lat="45.85898" lon="1.23862">
        <ele>315.2</ele>
        <time>2024-11-12T08:59:52Z</time>
      </trkpt>
      <trkpt lat="45.85896" lon="1.23861">
        <ele>315.2</ele>
        <time>2024-11-12T08:59:53Z</time>
      </trkpt>
      <trkpt lat="45.85895" lon="1.2386">
        <ele>315.1</ele>
        <time>2024-11-12T08:59:54Z</time>
      </trkpt>
      <trkpt lat="45.85893" lon="1.23859">
        <ele>314.9</ele>
        <time>2024-11-12T08:59:55Z</time>
      </trkpt>
      <trkpt lat="45.85892" lon="1.23859">
        <ele>314.9</ele>
        <time>2024-11-12T08:59:56Z</time>
      </trkpt>
      <trkpt lat="45.85891" lon="1.23859">
        <ele>314.8</ele>
        <time>2024-11-12T08:59:57Z</time>
      </trkpt>
      <trkpt lat="45.8589" lon="1.23858">
        <ele>314.7</ele>
        <time>2024-11-12T08:59:58Z</time>
      </trkpt>
      <trkpt lat="45.85888" lon="1.23858">
        <ele>314.6</ele>
        <time>2024-11-12T08:59:59Z</time>
      </trkpt>
      <trkpt lat="45.85886" lon="1.23857">
        <ele>314.5</ele>
        <time>2024-11-12T09:00:00Z</time>
      </trkpt>
      <trkpt lat="45.85885" lon="1.23857">
        <ele>314.5</ele>
        <time>2024-11-12T09:00:01Z</time>
      </trkpt>
      <trkpt lat="45.85884" lon="1.23856">
        <ele>314.4</ele>
        <time>2024-11-12T09:00:02Z</time>
      </trkpt>
      <trkpt lat="45.85883" lon="1.23857">
        <ele>314.3</ele>
        <time>2024-11-12T09:00:03Z</time>
      </trkpt>
      <trkpt lat="45.85881" lon="1.23857">
        <ele>314.2</ele>
        <time>2024-11-12T09:00:04Z</time>
      </trkpt>
      <trkpt lat="45.8588" lon="1.23857">
        <ele>314.1</ele>
        <time>2024-11-12T09:00:05Z</time>
      </trkpt>
      <trkpt lat="45.85879" lon="1.23857">
        <ele>314.1</ele>
        <time>2024-11-12T09:00:06Z</time>
      </trkpt>
      <trkpt lat="45.85878" lon="1.23857">
        <ele>314</ele>
        <time>2024-11-12T09:00:07Z</time>
      </trkpt>
      <trkpt lat="45.85877" lon="1.23857">
        <ele>314</ele>
        <time>2024-11-12T09:00:08Z</time>
      </trkpt>
      <trkpt lat="45.85874" lon="1.23857">
        <ele>313.9</ele>
        <time>2024-11-12T09:00:09Z</time>
      </trkpt>
      <trkpt lat="45.85873" lon="1.23857">
        <ele>313.8</ele>
        <time>2024-11-12T09:00:10Z</time>
      </trkpt>
      <trkpt lat="45.85871" lon="1.23856">
        <ele>313.7</ele>
        <time>2024-11-12T09:00:11Z</time>
      </trkpt>
      <trkpt lat="45.85871" lon="1.23855">
        <ele>313.6</ele>
        <time>2024-11-12T09:00:12Z</time>
      </trkpt>
      <trkpt lat="45.8587" lon="1.23855">
        <ele>313.6</ele>
        <time>2024-11-12T09:00:13Z</time>
      </trkpt>
      <trkpt lat="45.85868" lon="1.23853">
        <ele>313.5</ele>
        <time>2024-11-12T09:00:14Z</time>
      </trkpt>
      <trkpt lat="45.85867" lon="1.23852">
        <ele>313.4</ele>
        <time>2024-11-12T09:00:15Z</time>
      </trkpt>
      <trkpt lat="45.85865" lon="1.23851">
        <ele>313.3</ele>
        <time>2024-11-12T09:00:16Z</time>
      </trkpt>
      <trkpt lat="45.85864" lon="1.23851">
        <ele>313.3</ele>
        <time>2024-11-12T09:00:17Z</time>
      </trkpt>
      <trkpt lat="45.85863" lon="1.23851">
        <ele>313.3</ele>
        <time>2024-11-12T09:00:18Z</time>
      </trkpt>
      <trkpt lat="45.85861" lon="1.23851">
        <ele>313.2</ele>
        <time>2024-11-12T09:00:19Z</time>
      </trkpt>
      <trkpt lat="45.8586" lon="1.23851">
        <ele>313.1</ele>
        <time>2024-11-12T09:00:20Z</time>
      </trkpt>
      <trkpt lat="45.85858" lon="1.23852">
        <ele>313.1</ele>
        <time>2024-11-12T09:00:21Z</time>
      </trkpt>
      <trkpt lat="45.85857" lon="1.23853">
        <ele>313</ele>
        <time>2024-11-12T09:00:22Z</time>
      </trkpt>
      <trkpt lat="45.85856" lon="1.23854">
        <ele>313</ele>
        <time>2024-11-12T09:00:23Z</time>
      </trkpt>
      <trkpt lat="45.85854" lon="1.23853">
        <ele>312.9</ele>
        <time>2024-11-12T09:00:24Z</time>
      </trkpt>
      <trkpt lat="45.85853" lon="1.23852">
        <ele>313</ele>
        <time>2024-11-12T09:00:25Z</time>
      </trkpt>
      <trkpt lat="45.85853" lon="1.2385">
        <ele>313</ele>
        <time>2024-11-12T09:00:26Z</time>
      </trkpt>
      <trkpt lat="45.85853" lon="1.23849">
        <ele>313</ele>
        <time>2024-11-12T09:00:27Z</time>
      </trkpt>
      <trkpt lat="45.85852" lon="1.23847">
        <ele>313.1</ele>
        <time>2024-11-12T09:00:28Z</time>
      </trkpt>
      <trkpt lat="45.85852" lon="1.23845">
        <ele>313.1</ele>
        <time>2024-11-12T09:00:29Z</time>
      </trkpt>
      <trkpt lat="45.85852" lon="1.23844">
        <ele>313.1</ele>
        <time>2024-11-12T09:00:30Z</time>
      </trkpt>
      <trkpt lat="45.85851" lon="1.23843">
        <ele>313.1</ele>
        <time>2024-11-12T09:00:31Z</time>
      </trkpt>
      <trkpt lat="45.8585" lon="1.23842">
        <ele>313.2</ele>
        <time>2024-11-12T09:00:32Z</time>
      </trkpt>
      <trkpt lat="45.85849" lon="1.23838">
        <ele>313.3</ele>
        <time>2024-11-12T09:00:33Z</time>
      </trkpt>
      <trkpt lat="45.85848" lon="1.23836">
        <ele>313.3</ele>
        <time>2024-11-12T09:00:34Z</time>
      </trkpt>
      <trkpt lat="45.85848" lon="1.23836">
        <ele>313.3</ele>
        <time>2024-11-12T09:00:35Z</time>
      </trkpt>
      <trkpt lat="45.85848" lon="1.23837">
        <ele>313.3</ele>
        <time>2024-11-12T09:00:36Z</time>
      </trkpt>
      <trkpt lat="45.85847" lon="1.23837">
        <ele>313.4</ele>
        <time>2024-11-12T09:00:37Z</time>
      </trkpt>
      <trkpt lat="45.85847" lon="1.23836">
        <ele>313.4</ele>
        <time>2024-11-12T09:00:38Z</time>
      </trkpt>
      <trkpt lat="45.85846" lon="1.23834">
        <ele>313.4</ele>
        <time>2024-11-12T09:00:39Z</time>
      </trkpt>
      <trkpt lat="45.85846" lon="1.23833">
        <ele>313.5</ele>
        <time>2024-11-12T09:00:40Z</time>
      </trkpt>
      <trkpt lat="45.85845" lon="1.23832">
        <ele>313.5</ele>
        <time>2024-11-12T09:00:41Z</time>
      </trkpt>
      <trkpt lat="45.85844" lon="1.23831">
        <ele>313.5</ele>
        <time>2024-11-12T09:00:42Z</time>
      </trkpt>
      <trkpt lat="45.85843" lon="1.2383">
        <ele>313.6</ele>
        <time>2024-11-12T09:00:43Z</time>
      </trkpt>
      <trkpt lat="45.85843" lon="1.23827">
        <ele>313.7</ele>
        <time>2024-11-12T09:00:44Z</time>
      </trkpt>
      <trkpt lat="45.85842" lon="1.23826">
        <ele>313.7</ele>
        <time>2024-11-12T09:00:45Z</time>
      </trkpt>
      <trkpt lat="45.85842" lon="1.23825">
        <ele>313.8</ele>
        <time>2024-11-12T09:00:46Z</time>
      </trkpt>
      <trkpt lat="45.85841" lon="1.23824">
        <ele>313.8</ele>
        <time>2024-11-12T09:00:47Z</time>
      </trkpt>
      <trkpt lat="45.8584" lon="1.23824">
        <ele>313.9</ele>
        <time>2024-11-12T09:00:48Z</time>
      </trkpt>
      <trkpt lat="45.85839" lon="1.23822">
        <ele>313.9</ele>
        <time>2024-11-12T09:00:49Z</time>
      </trkpt>
      <trkpt lat="45.85838" lon="1.23821">
        <ele>314</ele>
        <time>2024-11-12T09:00:50Z</time>
      </trkpt>
      <trkpt lat="45.85837" lon="1.2382">
        <ele>314.1</ele>
        <time>2024-11-12T09:00:51Z</time>
      </trkpt>
      <trkpt lat="45.85837" lon="1.23818">
        <ele>314.1</ele>
        <time>2024-11-12T09:00:52Z</time>
      </trkpt>
      <trkpt lat="45.85836" lon="1.23817">
        <ele>314.2</ele>
        <time>2024-11-12T09:00:53Z</time>
      </trkpt>
      <trkpt lat="45.85835" lon="1.23816">
        <ele>314.2</ele>
        <time>2024-11-12T09:00:54Z</time>
      </trkpt>
      <trkpt lat="45.85835" lon="1.23815">
        <ele>314.3</ele>
        <time>2024-11-12T09:00:55Z</time>
      </trkpt>
      <trkpt lat="45.85834" lon="1.23814">
        <ele>314.3</ele>
        <time>2024-11-12T09:00:56Z</time>
      </trkpt>
      <trkpt lat="45.85833" lon="1.23812">
        <ele>314.4</ele>
        <time>2024-11-12T09:00:57Z</time>
      </trkpt>
      <trkpt lat="45.85832" lon="1.23811">
        <ele>314.4</ele>
        <time>2024-11-12T09:00:58Z</time>
      </trkpt>
      <trkpt lat="45.85832" lon="1.2381">
        <ele>314.5</ele>
        <time>2024-11-12T09:00:59Z</time>
      </trkpt>
      <trkpt lat="45.85832" lon="1.23808">
        <ele>314.5</ele>
        <time>2024-11-12T09:01:00Z</time>
      </trkpt>
      <trkpt lat="45.85831" lon="1.23807">
        <ele>314.6</ele>
        <time>2024-11-12T09:01:01Z</time>
      </trkpt>
      <trkpt lat="45.85831" lon="1.23805">
        <ele>314.6</ele>
        <time>2024-11-12T09:01:02Z</time>
      </trkpt>
      <trkpt lat="45.85831" lon="1.23805">
        <ele>314.7</ele>
        <time>2024-11-12T09:01:03Z</time>
      </trkpt>
      <trkpt lat="45.85831" lon="1.23805">
        <ele>314.7</ele>
        <time>2024-11-12T09:01:04Z</time>
      </trkpt>
      <trkpt lat="45.85831" lon="1.23805">
        <ele>314.7</ele>
        <time>2024-11-12T09:01:05Z</time>
      </trkpt>
      <trkpt lat="45.85831" lon="1.23804">
        <ele>314.7</ele>
        <time>2024-11-12T09:01:06Z</time>
      </trkpt>
      <trkpt lat="45.85831" lon="1.23804">
        <ele>314.7</ele>
        <time>2024-11-12T09:01:07Z</time>
      </trkpt>
      <trkpt lat="45.85831" lon="1.23804">
        <ele>314.7</ele>
        <time>2024-11-12T09:01:08Z</time>
      </trkpt>
      <trkpt lat="45.85831" lon="1.23804">
        <ele>314.7</ele>
        <time>2024-11-12T09:01:09Z</time>
      </trkpt>
      <trkpt lat="45.85831" lon="1.23804">
        <ele>314.7</ele>
        <time>2024-11-12T09:01:10Z</time>
      </trkpt>
      <trkpt lat="45.85831" lon="1.23803">
        <ele>314.7</ele>
        <time>2024-11-12T09:01:11Z</time>
      </trkpt>
      <trkpt lat="45.85831" lon="1.23803">
        <ele>314.7</ele>
        <time>2024-11-12T09:01:12Z</time>
      </trkpt>
      <trkpt lat="45.85831" lon="1.23803">
        <ele>314.7</ele>
        <time>2024-11-12T09:01:13Z</time>
      </trkpt>
      <trkpt lat="45.8583" lon="1.23803">
        <ele>314.7</ele>
        <time>2024-11-12T09:01:14Z</time>
      </trkpt>
      <trkpt lat="45.8583" lon="1.23803">
        <ele>314.7</ele>
        <time>2024-11-12T09:01:15Z</time>
      </trkpt>
      <trkpt lat="45.8583" lon="1.23803">
        <ele>314.7</ele>
        <time>2024-11-12T09:01:16Z</time>
      </trkpt>
      <trkpt lat="45.8583" lon="1.23802">
        <ele>314.8</ele>
        <time>2024-11-12T09:01:17Z</time>
      </trkpt>
      <trkpt lat="45.8583" lon="1.23802">
        <ele>314.8</ele>
        <time>2024-11-12T09:01:18Z</time>
      </trkpt>
      <trkpt lat="45.8583" lon="1.23802">
        <ele>314.8</ele>
        <time>2024-11-12T09:01:19Z</time>
      </trkpt>
      <trkpt lat="45.8583" lon="1.23802">
        <ele>314.8</ele>
        <time>2024-11-12T09:01:20Z</time>
      </trkpt>
      <trkpt lat="45.8583" lon="1.238">
        <ele>314.8</ele>
        <time>2024-11-12T09:01:21Z</time>
      </trkpt>
      <trkpt lat="45.85829" lon="1.23798">
        <ele>314.9</ele>
        <time>2024-11-12T09:01:22Z</time>
      </trkpt>
      <trkpt lat="45.85829" lon="1.23796">
        <ele>315</ele>
        <time>2024-11-12T09:01:23Z</time>
      </trkpt>
      <trkpt lat="45.85827" lon="1.23794">
        <ele>315.1</ele>
        <time>2024-11-12T09:01:24Z</time>
      </trkpt>
      <trkpt lat="45.85826" lon="1.23792">
        <ele>315.2</ele>
        <time>2024-11-12T09:01:25Z</time>
      </trkpt>
      <trkpt lat="45.85825" lon="1.23791">
        <ele>315.3</ele>
        <time>2024-11-12T09:01:26Z</time>
      </trkpt>
      <trkpt lat="45.85825" lon="1.2379">
        <ele>315.3</ele>
        <time>2024-11-12T09:01:27Z</time>
      </trkpt>
      <trkpt lat="45.85824" lon="1.23788">
        <ele>315.4</ele>
        <time>2024-11-12T09:01:28Z</time>
      </trkpt>
      <trkpt lat="45.85822" lon="1.23786">
        <ele>315.5</ele>
        <time>2024-11-12T09:01:29Z</time>
      </trkpt>
      <trkpt lat="45.85821" lon="1.23785">
        <ele>315.5</ele>
        <time>2024-11-12T09:01:30Z</time>
      </trkpt>
      <trkpt lat="45.8582" lon="1.23784">
        <ele>315.6</ele>
        <time>2024-11-12T09:01:31Z</time>
      </trkpt>
      <trkpt lat="45.85819" lon="1.23784">
        <ele>315.6</ele>
        <time>2024-11-12T09:01:32Z</time>
      </trkpt>
      <trkpt lat="45.85818" lon="1.23784">
        <ele>315.7</ele>
        <time>2024-11-12T09:01:33Z</time>
      </trkpt>
      <trkpt lat="45.85817" lon="1.23783">
        <ele>315.7</ele>
        <time>2024-11-12T09:01:34Z</time>
      </trkpt>
      <trkpt lat="45.85817" lon="1.23782">
        <ele>315.8</ele>
        <time>2024-11-12T09:01:35Z</time>
      </trkpt>
      <trkpt lat="45.85816" lon="1.23779">
        <ele>315.9</ele>
        <time>2024-11-12T09:01:36Z</time>
      </trkpt>
      <trkpt lat="45.85815" lon="1.23778">
        <ele>315.9</ele>
        <time>2024-11-12T09:01:37Z</time>
      </trkpt>
      <trkpt lat="45.85815" lon="1.23777">
        <ele>316</ele>
        <time>2024-11-12T09:01:38Z</time>
      </trkpt>
      <trkpt lat="45.85814" lon="1.23776">
        <ele>316</ele>
        <time>2024-11-12T09:01:39Z</time>
      </trkpt>
      <trkpt lat="45.85814" lon="1.23774">
        <ele>316.1</ele>
        <time>2024-11-12T09:01:40Z</time>
      </trkpt>
      <trkpt lat="45.85813" lon="1.23773">
        <ele>316.1</ele>
        <time>2024-11-12T09:01:41Z</time>
      </trkpt>
      <trkpt lat="45.85812" lon="1.2377">
        <ele>316.2</ele>
        <time>2024-11-12T09:01:42Z</time>
      </trkpt>
      <trkpt lat="45.85812" lon="1.23769">
        <ele>316.2</ele>
        <time>2024-11-12T09:01:43Z</time>
      </trkpt>
      <trkpt lat="45.85811" lon="1.23767">
        <ele>316.3</ele>
        <time>2024-11-12T09:01:44Z</time>
      </trkpt>
      <trkpt lat="45.85811" lon="1.23766">
        <ele>316.3</ele>
        <time>2024-11-12T09:01:45Z</time>
      </trkpt>
      <trkpt lat="45.85811" lon="1.23764">
        <ele>316.3</ele>
        <time>2024-11-12T09:01:46Z</time>
      </trkpt>
      <trkpt lat="45.8581" lon="1.23763">
        <ele>316.4</ele>
        <time>2024-11-12T09:01:47Z</time>
      </trkpt>
      <trkpt lat="45.8581" lon="1.23761">
        <ele>316.4</ele>
        <time>2024-11-12T09:01:48Z</time>
      </trkpt>
      <trkpt lat="45.85809" lon="1.23758">
        <ele>316.5</ele>
        <time>2024-11-12T09:01:49Z</time>
      </trkpt>
      <trkpt lat="45.85809" lon="1.23757">
        <ele>316.5</ele>
        <time>2024-11-12T09:01:50Z</time>
      </trkpt>
      <trkpt lat="45.85808" lon="1.23756">
        <ele>316.5</ele>
        <time>2024-11-12T09:01:51Z</time>
      </trkpt>
      <trkpt lat="45.85808" lon="1.23755">
        <ele>316.6</ele>
        <time>2024-11-12T09:01:52Z</time>
      </trkpt>
      <trkpt lat="45.85807" lon="1.23753">
        <ele>316.6</ele>
        <time>2024-11-12T09:01:53Z</time>
      </trkpt>
      <trkpt lat="45.85806" lon="1.2375">
        <ele>316.7</ele>
        <time>2024-11-12T09:01:54Z</time>
      </trkpt>
      <trkpt lat="45.85806" lon="1.23749">
        <ele>316.7</ele>
        <time>2024-11-12T09:01:55Z</time>
      </trkpt>
      <trkpt lat="45.85805" lon="1.23748">
        <ele>316.7</ele>
        <time>2024-11-12T09:01:56Z</time>
      </trkpt>
      <trkpt lat="45.85805" lon="1.23747">
        <ele>316.8</ele>
        <time>2024-11-12T09:01:57Z</time>
      </trkpt>
      <trkpt lat="45.85804" lon="1.23745">
        <ele>316.8</ele>
        <time>2024-11-12T09:01:58Z</time>
      </trkpt>
      <trkpt lat="45.85803" lon="1.23742">
        <ele>316.9</ele>
        <time>2024-11-12T09:01:59Z</time>
      </trkpt>
      <trkpt lat="45.85803" lon="1.23741">
        <ele>316.9</ele>
        <time>2024-11-12T09:02:00Z</time>
      </trkpt>
      <trkpt lat="45.85802" lon="1.2374">
        <ele>316.9</ele>
        <time>2024-11-12T09:02:01Z</time>
      </trkpt>
      <trkpt lat="45.85801" lon="1.23739">
        <ele>317</ele>
        <time>2024-11-12T09:02:02Z</time>
      </trkpt>
      <trkpt lat="45.858" lon="1.23736">
        <ele>317.1</ele>
        <time>2024-11-12T09:02:03Z</time>
      </trkpt>
      <trkpt lat="45.85799" lon="1.23734">
        <ele>317.1</ele>
        <time>2024-11-12T09:02:04Z</time>
      </trkpt>
      <trkpt lat="45.85798" lon="1.23732">
        <ele>317.1</ele>
        <time>2024-11-12T09:02:05Z</time>
      </trkpt>
      <trkpt lat="45.85798" lon="1.23732">
        <ele>317.2</ele>
        <time>2024-11-12T09:02:06Z</time>
      </trkpt>
      <trkpt lat="45.85798" lon="1.23731">
        <ele>317.2</ele>
        <time>2024-11-12T09:02:07Z</time>
      </trkpt>
      <trkpt lat="45.85797" lon="1.2373">
        <ele>317.2</ele>
        <time>2024-11-12T09:02:08Z</time>
      </trkpt>
      <trkpt lat="45.85796" lon="1.23727">
        <ele>317.3</ele>
        <time>2024-11-12T09:02:09Z</time>
      </trkpt>
      <trkpt lat="45.85796" lon="1.23726">
        <ele>317.3</ele>
        <time>2024-11-12T09:02:10Z</time>
      </trkpt>
      <trkpt lat="45.85796" lon="1.23725">
        <ele>317.3</ele>
        <time>2024-11-12T09:02:11Z</time>
      </trkpt>
      <trkpt lat="45.85795" lon="1.23723">
        <ele>317.3</ele>
        <time>2024-11-12T09:02:12Z</time>
      </trkpt>
      <trkpt lat="45.85795" lon="1.23722">
        <ele>317.4</ele>
        <time>2024-11-12T09:02:13Z</time>
      </trkpt>
      <trkpt lat="45.85795" lon="1.2372">
        <ele>317.4</ele>
        <time>2024-11-12T09:02:14Z</time>
      </trkpt>
      <trkpt lat="45.85796" lon="1.23719">
        <ele>317.4</ele>
        <time>2024-11-12T09:02:15Z</time>
      </trkpt>
      <trkpt lat="45.85797" lon="1.23719">
        <ele>317.4</ele>
        <time>2024-11-12T09:02:16Z</time>
      </trkpt>
      <trkpt lat="45.85797" lon="1.23719">
        <ele>317.5</ele>
        <time>2024-11-12T09:02:17Z</time>
      </trkpt>
      <trkpt lat="45.85798" lon="1.23719">
        <ele>317.5</ele>
        <time>2024-11-12T09:02:18Z</time>
      </trkpt>
      <trkpt lat="45.85798" lon="1.23718">
        <ele>317.5</ele>
        <time>2024-11-12T09:02:19Z</time>
      </trkpt>
      <trkpt lat="45.85798" lon="1.23717">
        <ele>317.5</ele>
        <time>2024-11-12T09:02:20Z</time>
      </trkpt>
      <trkpt lat="45.85798" lon="1.23715">
        <ele>317.5</ele>
        <time>2024-11-12T09:02:21Z</time>
      </trkpt>
      <trkpt lat="45.85798" lon="1.23714">
        <ele>317.6</ele>
        <time>2024-11-12T09:02:22Z</time>
      </trkpt>
      <trkpt lat="45.85798" lon="1.23712">
        <ele>317.6</ele>
        <time>2024-11-12T09:02:23Z</time>
      </trkpt>
      <trkpt lat="45.85797" lon="1.2371">
        <ele>317.6</ele>
        <time>2024-11-12T09:02:24Z</time>
      </trkpt>
      <trkpt lat="45.85797" lon="1.23709">
        <ele>317.6</ele>
        <time>2024-11-12T09:02:25Z</time>
      </trkpt>
      <trkpt lat="45.85797" lon="1.23708">
        <ele>317.7</ele>
        <time>2024-11-12T09:02:26Z</time>
      </trkpt>
      <trkpt lat="45.85797" lon="1.23707">
        <ele>317.7</ele>
        <time>2024-11-12T09:02:27Z</time>
      </trkpt>
      <trkpt lat="45.85797" lon="1.23707">
        <ele>317.7</ele>
        <time>2024-11-12T09:02:28Z</time>
      </trkpt>
      <trkpt lat="45.85797" lon="1.23706">
        <ele>317.7</ele>
        <time>2024-11-12T09:02:29Z</time>
      </trkpt>
      <trkpt lat="45.85797" lon="1.23706">
        <ele>317.7</ele>
        <time>2024-11-12T09:02:30Z</time>
      </trkpt>
      <trkpt lat="45.85797" lon="1.23705">
        <ele>317.7</ele>
        <time>2024-11-12T09:02:31Z</time>
      </trkpt>
      <trkpt lat="45.85797" lon="1.23705">
        <ele>317.7</ele>
        <time>2024-11-12T09:02:32Z</time>
      </trkpt>
      <trkpt lat="45.85797" lon="1.23704">
        <ele>317.7</ele>
        <time>2024-11-12T09:02:33Z</time>
      </trkpt>
      <trkpt lat="45.85797" lon="1.23704">
        <ele>317.7</ele>
        <time>2024-11-12T09:02:34Z</time>
      </trkpt>
      <trkpt lat="45.85797" lon="1.23703">
        <ele>317.8</ele>
        <time>2024-11-12T09:02:35Z</time>
      </trkpt>
      <trkpt lat="45.85797" lon="1.23702">
        <ele>317.8</ele>
        <time>2024-11-12T09:02:36Z</time>
      </trkpt>
      <trkpt lat="45.85796" lon="1.23701">
        <ele>317.8</ele>
        <time>2024-11-12T09:02:37Z</time>
      </trkpt>
      <trkpt lat="45.85796" lon="1.23701">
        <ele>317.8</ele>
        <time>2024-11-12T09:02:38Z</time>
      </trkpt>
      <trkpt lat="45.85796" lon="1.237">
        <ele>317.8</ele>
        <time>2024-11-12T09:02:39Z</time>
      </trkpt>
      <trkpt lat="45.85796" lon="1.23699">
        <ele>317.8</ele>
        <time>2024-11-12T09:02:40Z</time>
      </trkpt>
      <trkpt lat="45.85796" lon="1.23699">
        <ele>317.8</ele>
        <time>2024-11-12T09:02:41Z</time>
      </trkpt>
      <trkpt lat="45.85796" lon="1.23698">
        <ele>317.8</ele>
        <time>2024-11-12T09:02:42Z</time>
      </trkpt>
      <trkpt lat="45.85796" lon="1.23697">
        <ele>317.8</ele>
        <time>2024-11-12T09:02:43Z</time>
      </trkpt>
      <trkpt lat="45.85796" lon="1.23696">
        <ele>317.8</ele>
        <time>2024-11-12T09:02:44Z</time>
      </trkpt>
      <trkpt lat="45.85795" lon="1.23693">
        <ele>317.8</ele>
        <time>2024-11-12T09:02:45Z</time>
      </trkpt>
      <trkpt lat="45.85795" lon="1.23691">
        <ele>317.9</ele>
        <time>2024-11-12T09:02:46Z</time>
      </trkpt>
      <trkpt lat="45.85795" lon="1.23689">
        <ele>317.9</ele>
        <time>2024-11-12T09:02:47Z</time>
      </trkpt>
      <trkpt lat="45.85794" lon="1.23687">
        <ele>317.9</ele>
        <time>2024-11-12T09:02:48Z</time>
      </trkpt>
      <trkpt lat="45.85793" lon="1.23684">
        <ele>317.9</ele>
        <time>2024-11-12T09:02:49Z</time>
      </trkpt>
      <trkpt lat="45.85793" lon="1.23683">
        <ele>317.9</ele>
        <time>2024-11-12T09:02:50Z</time>
      </trkpt>
      <trkpt lat="45.85793" lon="1.23683">
        <ele>317.9</ele>
        <time>2024-11-12T09:02:51Z</time>
      </trkpt>
      <trkpt lat="45.85792" lon="1.23682">
        <ele>317.9</ele>
        <time>2024-11-12T09:02:52Z</time>
      </trkpt>
      <trkpt lat="45.85792" lon="1.23682">
        <ele>317.9</ele>
        <time>2024-11-12T09:02:53Z</time>
      </trkpt>
      <trkpt lat="45.85792" lon="1.23682">
        <ele>317.9</ele>
        <time>2024-11-12T09:02:54Z</time>
      </trkpt>
      <trkpt lat="45.85791" lon="1.23682">
        <ele>317.9</ele>
        <time>2024-11-12T09:02:55Z</time>
      </trkpt>
      <trkpt lat="45.8579" lon="1.23681">
        <ele>317.9</ele>
        <time>2024-11-12T09:02:56Z</time>
      </trkpt>
      <trkpt lat="45.85789" lon="1.23679">
        <ele>317.9</ele>
        <time>2024-11-12T09:02:57Z</time>
      </trkpt>
      <trkpt lat="45.85788" lon="1.23678">
        <ele>317.9</ele>
        <time>2024-11-12T09:02:58Z</time>
      </trkpt>
      <trkpt lat="45.85786" lon="1.23677">
        <ele>317.9</ele>
        <time>2024-11-12T09:02:59Z</time>
      </trkpt>
      <trkpt lat="45.85784" lon="1.23675">
        <ele>317.9</ele>
        <time>2024-11-12T09:03:00Z</time>
      </trkpt>
      <trkpt lat="45.85783" lon="1.23674">
        <ele>317.9</ele>
        <time>2024-11-12T09:03:01Z</time>
      </trkpt>
      <trkpt lat="45.85782" lon="1.23673">
        <ele>317.9</ele>
        <time>2024-11-12T09:03:02Z</time>
      </trkpt>
      <trkpt lat="45.85781" lon="1.23672">
        <ele>317.9</ele>
        <time>2024-11-12T09:03:03Z</time>
      </trkpt>
      <trkpt lat="45.8578" lon="1.23671">
        <ele>317.9</ele>
        <time>2024-11-12T09:03:04Z</time>
      </trkpt>
      <trkpt lat="45.85778" lon="1.23669">
        <ele>317.9</ele>
        <time>2024-11-12T09:03:05Z</time>
      </trkpt>
      <trkpt lat="45.85777" lon="1.23668">
        <ele>317.9</ele>
        <time>2024-11-12T09:03:06Z</time>
      </trkpt>
      <trkpt lat="45.85777" lon="1.23667">
        <ele>317.9</ele>
        <time>2024-11-12T09:03:07Z</time>
      </trkpt>
      <trkpt lat="45.85775" lon="1.23666">
        <ele>317.9</ele>
        <time>2024-11-12T09:03:08Z</time>
      </trkpt>
      <trkpt lat="45.85774" lon="1.23665">
        <ele>317.9</ele>
        <time>2024-11-12T09:03:09Z</time>
      </trkpt>
      <trkpt lat="45.85773" lon="1.23664">
        <ele>317.9</ele>
        <time>2024-11-12T09:03:10Z</time>
      </trkpt>
      <trkpt lat="45.85772" lon="1.23662">
        <ele>317.9</ele>
        <time>2024-11-12T09:03:11Z</time>
      </trkpt>
      <trkpt lat="45.85771" lon="1.23661">
        <ele>317.9</ele>
        <time>2024-11-12T09:03:12Z</time>
      </trkpt>
      <trkpt lat="45.85771" lon="1.23661">
        <ele>317.9</ele>
        <time>2024-11-12T09:03:13Z</time>
      </trkpt>
      <trkpt lat="45.85769" lon="1.23658">
        <ele>317.9</ele>
        <time>2024-11-12T09:03:14Z</time>
      </trkpt>
      <trkpt lat="45.85768" lon="1.23658">
        <ele>317.9</ele>
        <time>2024-11-12T09:03:15Z</time>
      </trkpt>
      <trkpt lat="45.85768" lon="1.23657">
        <ele>317.9</ele>
        <time>2024-11-12T09:03:16Z</time>
      </trkpt>
      <trkpt lat="45.85767" lon="1.23656">
        <ele>317.9</ele>
        <time>2024-11-12T09:03:17Z</time>
      </trkpt>
      <trkpt lat="45.85766" lon="1.23654">
        <ele>317.9</ele>
        <time>2024-11-12T09:03:18Z</time>
      </trkpt>
      <trkpt lat="45.85766" lon="1.23653">
        <ele>317.9</ele>
        <time>2024-11-12T09:03:19Z</time>
      </trkpt>
      <trkpt lat="45.85765" lon="1.23651">
        <ele>317.9</ele>
        <time>2024-11-12T09:03:20Z</time>
      </trkpt>
      <trkpt lat="45.85764" lon="1.2365">
        <ele>317.9</ele>
        <time>2024-11-12T09:03:21Z</time>
      </trkpt>
      <trkpt lat="45.85764" lon="1.23649">
        <ele>317.9</ele>
        <time>2024-11-12T09:03:22Z</time>
      </trkpt>
      <trkpt lat="45.85763" lon="1.23647">
        <ele>317.9</ele>
        <time>2024-11-12T09:03:23Z</time>
      </trkpt>
      <trkpt lat="45.85762" lon="1.23646">
        <ele>317.9</ele>
        <time>2024-11-12T09:03:24Z</time>
      </trkpt>
      <trkpt lat="45.8576" lon="1.23644">
        <ele>317.9</ele>
        <time>2024-11-12T09:03:25Z</time>
      </trkpt>
      <trkpt lat="45.8576" lon="1.23643">
        <ele>317.9</ele>
        <time>2024-11-12T09:03:26Z</time>
      </trkpt>
      <trkpt lat="45.85759" lon="1.23643">
        <ele>317.9</ele>
        <time>2024-11-12T09:03:27Z</time>
      </trkpt>
      <trkpt lat="45.85758" lon="1.23642">
        <ele>317.9</ele>
        <time>2024-11-12T09:03:28Z</time>
      </trkpt>
      <trkpt lat="45.85757" lon="1.23641">
        <ele>317.9</ele>
        <time>2024-11-12T09:03:29Z</time>
      </trkpt>
      <trkpt lat="45.85756" lon="1.2364">
        <ele>317.9</ele>
        <time>2024-11-12T09:03:30Z</time>
      </trkpt>
      <trkpt lat="45.85755" lon="1.23639">
        <ele>317.9</ele>
        <time>2024-11-12T09:03:31Z</time>
      </trkpt>
      <trkpt lat="45.85754" lon="1.23639">
        <ele>317.9</ele>
        <time>2024-11-12T09:03:32Z</time>
      </trkpt>
      <trkpt lat="45.85754" lon="1.23638">
        <ele>317.9</ele>
        <time>2024-11-12T09:03:33Z</time>
      </trkpt>
      <trkpt lat="45.85754" lon="1.23641">
        <ele>317.9</ele>
        <time>2024-11-12T09:03:34Z</time>
      </trkpt>
      <trkpt lat="45.85755" lon="1.23643">
        <ele>317.9</ele>
        <time>2024-11-12T09:03:35Z</time>
      </trkpt>
      <trkpt lat="45.85755" lon="1.23643">
        <ele>317.9</ele>
        <time>2024-11-12T09:03:36Z</time>
      </trkpt>
      <trkpt lat="45.85755" lon="1.23644">
        <ele>317.9</ele>
        <time>2024-11-12T09:03:37Z</time>
      </trkpt>
      <trkpt lat="45.85755" lon="1.23644">
        <ele>317.9</ele>
        <time>2024-11-12T09:03:38Z</time>
      </trkpt>
      <trkpt lat="45.85756" lon="1.23643">
        <ele>317.9</ele>
        <time>2024-11-12T09:03:39Z</time>
      </trkpt>
      <trkpt lat="45.85756" lon="1.23643">
        <ele>317.9</ele>
        <time>2024-11-12T09:03:40Z</time>
      </trkpt>
      <trkpt lat="45.85755" lon="1.23642">
        <ele>317.9</ele>
        <time>2024-11-12T09:03:41Z</time>
      </trkpt>
      <trkpt lat="45.85755" lon="1.2364">
        <ele>317.9</ele>
        <time>2024-11-12T09:03:42Z</time>
      </trkpt>
      <trkpt lat="45.85754" lon="1.23639">
        <ele>317.9</ele>
        <time>2024-11-12T09:03:43Z</time>
      </trkpt>
      <trkpt lat="45.85754" lon="1.23638">
        <ele>317.8</ele>
        <time>2024-11-12T09:03:44Z</time>
      </trkpt>
      <trkpt lat="45.85754" lon="1.23637">
        <ele>317.8</ele>
        <time>2024-11-12T09:03:45Z</time>
      </trkpt>
      <trkpt lat="45.85754" lon="1.23637">
        <ele>317.8</ele>
        <time>2024-11-12T09:03:46Z</time>
      </trkpt>
      <trkpt lat="45.85754" lon="1.23637">
        <ele>317.8</ele>
        <time>2024-11-12T09:03:47Z</time>
      </trkpt>
      <trkpt lat="45.85755" lon="1.23638">
        <ele>317.8</ele>
        <time>2024-11-12T09:03:48Z</time>
      </trkpt>
      <trkpt lat="45.85755" lon="1.23638">
        <ele>317.8</ele>
        <time>2024-11-12T09:03:49Z</time>
      </trkpt>
      <trkpt lat="45.85754" lon="1.23638">
        <ele>317.8</ele>
        <time>2024-11-12T09:03:50Z</time>
      </trkpt>
      <trkpt lat="45.85754" lon="1.23638">
        <ele>317.8</ele>
        <time>2024-11-12T09:03:51Z</time>
      </trkpt>
      <trkpt lat="45.85754" lon="1.23638">
        <ele>317.8</ele>
        <time>2024-11-12T09:03:52Z</time>
      </trkpt>
      <trkpt lat="45.85752" lon="1.23639">
        <ele>317.7</ele>
        <time>2024-11-12T09:03:53Z</time>
      </trkpt>
      <trkpt lat="45.85751" lon="1.2364">
        <ele>317.7</ele>
        <time>2024-11-12T09:03:54Z</time>
      </trkpt>
      <trkpt lat="45.8575" lon="1.23641">
        <ele>317.6</ele>
        <time>2024-11-12T09:03:55Z</time>
      </trkpt>
      <trkpt lat="45.85749" lon="1.23641">
        <ele>317.6</ele>
        <time>2024-11-12T09:03:56Z</time>
      </trkpt>
      <trkpt lat="45.85748" lon="1.23641">
        <ele>317.6</ele>
        <time>2024-11-12T09:03:57Z</time>
      </trkpt>
      <trkpt lat="45.85747" lon="1.23642">
        <ele>317.6</ele>
        <time>2024-11-12T09:03:58Z</time>
      </trkpt>
      <trkpt lat="45.85746" lon="1.23642">
        <ele>317.5</ele>
        <time>2024-11-12T09:03:59Z</time>
      </trkpt>
      <trkpt lat="45.85745" lon="1.23643">
        <ele>317.5</ele>
        <time>2024-11-12T09:04:00Z</time>
      </trkpt>
      <trkpt lat="45.85744" lon="1.23644">
        <ele>317.4</ele>
        <time>2024-11-12T09:04:01Z</time>
      </trkpt>
      <trkpt lat="45.85743" lon="1.23645">
        <ele>317.4</ele>
        <time>2024-11-12T09:04:02Z</time>
      </trkpt>
      <trkpt lat="45.85742" lon="1.23645">
        <ele>317.3</ele>
        <time>2024-11-12T09:04:03Z</time>
      </trkpt>
      <trkpt lat="45.85741" lon="1.23646">
        <ele>317.3</ele>
        <time>2024-11-12T09:04:04Z</time>
      </trkpt>
      <trkpt lat="45.85743" lon="1.23644">
        <ele>317.2</ele>
        <time>2024-11-12T09:04:05Z</time>
      </trkpt>
      <trkpt lat="45.85743" lon="1.23644">
        <ele>317.2</ele>
        <time>2024-11-12T09:04:06Z</time>
      </trkpt>
      <trkpt lat="45.85743" lon="1.23644">
        <ele>317.2</ele>
        <time>2024-11-12T09:04:07Z</time>
      </trkpt>
      <trkpt lat="45.85742" lon="1.23644">
        <ele>317.1</ele>
        <time>2024-11-12T09:04:08Z</time>
      </trkpt>
      <trkpt lat="45.85742" lon="1.23644">
        <ele>317.1</ele>
        <time>2024-11-12T09:04:09Z</time>
      </trkpt>
      <trkpt lat="45.85742" lon="1.23645">
        <ele>317.1</ele>
        <time>2024-11-12T09:04:10Z</time>
      </trkpt>
      <trkpt lat="45.85742" lon="1.23644">
        <ele>317.1</ele>
        <time>2024-11-12T09:04:11Z</time>
      </trkpt>
      <trkpt lat="45.85742" lon="1.23644">
        <ele>317.1</ele>
        <time>2024-11-12T09:04:12Z</time>
      </trkpt>
      <trkpt lat="45.85742" lon="1.23644">
        <ele>317.1</ele>
        <time>2024-11-12T09:04:13Z</time>
      </trkpt>
      <trkpt lat="45.85742" lon="1.23644">
        <ele>317.1</ele>
        <time>2024-11-12T09:04:14Z</time>
      </trkpt>
      <trkpt lat="45.85741" lon="1.23644">
        <ele>317.1</ele>
        <time>2024-11-12T09:04:15Z</time>
      </trkpt>
      <trkpt lat="45.85739" lon="1.23645">
        <ele>317</ele>
        <time>2024-11-12T09:04:16Z</time>
      </trkpt>
      <trkpt lat="45.85738" lon="1.23645">
        <ele>316.9</ele>
        <time>2024-11-12T09:04:17Z</time>
      </trkpt>
      <trkpt lat="45.85737" lon="1.23646">
        <ele>316.8</ele>
        <time>2024-11-12T09:04:18Z</time>
      </trkpt>
      <trkpt lat="45.85735" lon="1.23646">
        <ele>316.8</ele>
        <time>2024-11-12T09:04:19Z</time>
      </trkpt>
      <trkpt lat="45.85734" lon="1.23646">
        <ele>316.7</ele>
        <time>2024-11-12T09:04:20Z</time>
      </trkpt>
      <trkpt lat="45.85733" lon="1.23647">
        <ele>316.7</ele>
        <time>2024-11-12T09:04:21Z</time>
      </trkpt>
      <trkpt lat="45.85732" lon="1.23647">
        <ele>316.6</ele>
        <time>2024-11-12T09:04:22Z</time>
      </trkpt>
      <trkpt lat="45.85731" lon="1.23647">
        <ele>316.5</ele>
        <time>2024-11-12T09:04:23Z</time>
      </trkpt>
      <trkpt lat="45.8573" lon="1.23648">
        <ele>316.5</ele>
        <time>2024-11-12T09:04:24Z</time>
      </trkpt>
      <trkpt lat="45.85729" lon="1.23648">
        <ele>316.4</ele>
        <time>2024-11-12T09:04:25Z</time>
      </trkpt>
      <trkpt lat="45.85728" lon="1.23648">
        <ele>316.3</ele>
        <time>2024-11-12T09:04:26Z</time>
      </trkpt>
      <trkpt lat="45.85727" lon="1.23648">
        <ele>316.3</ele>
        <time>2024-11-12T09:04:27Z</time>
      </trkpt>
      <trkpt lat="45.85727" lon="1.23649">
        <ele>316.2</ele>
        <time>2024-11-12T09:04:28Z</time>
      </trkpt>
      <trkpt lat="45.85726" lon="1.23649">
        <ele>316.1</ele>
        <time>2024-11-12T09:04:29Z</time>
      </trkpt>
      <trkpt lat="45.85725" lon="1.2365">
        <ele>316.1</ele>
        <time>2024-11-12T09:04:30Z</time>
      </trkpt>
      <trkpt lat="45.85724" lon="1.2365">
        <ele>316</ele>
        <time>2024-11-12T09:04:31Z</time>
      </trkpt>
      <trkpt lat="45.85724" lon="1.23651">
        <ele>316</ele>
        <time>2024-11-12T09:04:32Z</time>
      </trkpt>
      <trkpt lat="45.85723" lon="1.23651">
        <ele>315.9</ele>
        <time>2024-11-12T09:04:33Z</time>
      </trkpt>
      <trkpt lat="45.85722" lon="1.23651">
        <ele>315.8</ele>
        <time>2024-11-12T09:04:34Z</time>
      </trkpt>
      <trkpt lat="45.85721" lon="1.23652">
        <ele>315.8</ele>
        <time>2024-11-12T09:04:35Z</time>
      </trkpt>
      <trkpt lat="45.8572" lon="1.23652">
        <ele>315.7</ele>
        <time>2024-11-12T09:04:36Z</time>
      </trkpt>
      <trkpt lat="45.8572" lon="1.23653">
        <ele>315.6</ele>
        <time>2024-11-12T09:04:37Z</time>
      </trkpt>
      <trkpt lat="45.85719" lon="1.23653">
        <ele>315.6</ele>
        <time>2024-11-12T09:04:38Z</time>
      </trkpt>
      <trkpt lat="45.85718" lon="1.23654">
        <ele>315.5</ele>
        <time>2024-11-12T09:04:39Z</time>
      </trkpt>
      <trkpt lat="45.85717" lon="1.23655">
        <ele>315.4</ele>
        <time>2024-11-12T09:04:40Z</time>
      </trkpt>
      <trkpt lat="45.85717" lon="1.23655">
        <ele>315.4</ele>
        <time>2024-11-12T09:04:41Z</time>
      </trkpt>
      <trkpt lat="45.85716" lon="1.23655">
        <ele>315.4</ele>
        <time>2024-11-12T09:04:42Z</time>
      </trkpt>
      <trkpt lat="45.85716" lon="1.23655">
        <ele>315.4</ele>
        <time>2024-11-12T09:04:43Z</time>
      </trkpt>
      <trkpt lat="45.85716" lon="1.23655">
        <ele>315.3</ele>
        <time>2024-11-12T09:04:44Z</time>
      </trkpt>
      <trkpt lat="45.85716" lon="1.23655">
        <ele>315.3</ele>
        <time>2024-11-12T09:04:45Z</time>
      </trkpt>
      <trkpt lat="45.85715" lon="1.23655">
        <ele>315.3</ele>
        <time>2024-11-12T09:04:46Z</time>
      </trkpt>
      <trkpt lat="45.85715" lon="1.23655">
        <ele>315.3</ele>
        <time>2024-11-12T09:04:47Z</time>
      </trkpt>
      <trkpt lat="45.85715" lon="1.23655">
        <ele>315.3</ele>
        <time>2024-11-12T09:04:48Z</time>
      </trkpt>
      <trkpt lat="45.85715" lon="1.23656">
        <ele>315.2</ele>
        <time>2024-11-12T09:04:49Z</time>
      </trkpt>
      <trkpt lat="45.85714" lon="1.23656">
        <ele>315.2</ele>
        <time>2024-11-12T09:04:50Z</time>
      </trkpt>
      <trkpt lat="45.85714" lon="1.23656">
        <ele>315.2</ele>
        <time>2024-11-12T09:04:51Z</time>
      </trkpt>
      <trkpt lat="45.85714" lon="1.23656">
        <ele>315.2</ele>
        <time>2024-11-12T09:04:52Z</time>
      </trkpt>
      <trkpt lat="45.85714" lon="1.23656">
        <ele>315.2</ele>
        <time>2024-11-12T09:04:53Z</time>
      </trkpt>
      <trkpt lat="45.85713" lon="1.23656">
        <ele>315.1</ele>
        <time>2024-11-12T09:04:54Z</time>
      </trkpt>
      <trkpt lat="45.85713" lon="1.23656">
        <ele>315.1</ele>
        <time>2024-11-12T09:04:55Z</time>
      </trkpt>
      <trkpt lat="45.85713" lon="1.23656">
        <ele>315.1</ele>
        <time>2024-11-12T09:04:56Z</time>
      </trkpt>
      <trkpt lat="45.85713" lon="1.23657">
        <ele>315.1</ele>
        <time>2024-11-12T09:04:57Z</time>
      </trkpt>
      <trkpt lat="45.85712" lon="1.23657">
        <ele>315.1</ele>
        <time>2024-11-12T09:04:58Z</time>
      </trkpt>
      <trkpt lat="45.85712" lon="1.23657">
        <ele>315</ele>
        <time>2024-11-12T09:04:59Z</time>
      </trkpt>
      <trkpt lat="45.85709" lon="1.23658">
        <ele>314.8</ele>
        <time>2024-11-12T09:05:00Z</time>
      </trkpt>
      <trkpt lat="45.85707" lon="1.23659">
        <ele>314.7</ele>
        <time>2024-11-12T09:05:01Z</time>
      </trkpt>
      <trkpt lat="45.85706" lon="1.23659">
        <ele>314.6</ele>
        <time>2024-11-12T09:05:02Z</time>
      </trkpt>
      <trkpt lat="45.85705" lon="1.2366">
        <ele>314.5</ele>
        <time>2024-11-12T09:05:03Z</time>
      </trkpt>
      <trkpt lat="45.85703" lon="1.23661">
        <ele>314.4</ele>
        <time>2024-11-12T09:05:04Z</time>
      </trkpt>
      <trkpt lat="45.85701" lon="1.23664">
        <ele>314.2</ele>
        <time>2024-11-12T09:05:05Z</time>
      </trkpt>
      <trkpt lat="45.85701" lon="1.23665">
        <ele>314.1</ele>
        <time>2024-11-12T09:05:06Z</time>
      </trkpt>
      <trkpt lat="45.85698" lon="1.23667">
        <ele>313.9</ele>
        <time>2024-11-12T09:05:07Z</time>
      </trkpt>
      <trkpt lat="45.85697" lon="1.23667">
        <ele>313.9</ele>
        <time>2024-11-12T09:05:08Z</time>
      </trkpt>
      <trkpt lat="45.85695" lon="1.23668">
        <ele>313.8</ele>
        <time>2024-11-12T09:05:09Z</time>
      </trkpt>
      <trkpt lat="45.85694" lon="1.23669">
        <ele>313.7</ele>
        <time>2024-11-12T09:05:10Z</time>
      </trkpt>
      <trkpt lat="45.85693" lon="1.2367">
        <ele>313.6</ele>
        <time>2024-11-12T09:05:11Z</time>
      </trkpt>
      <trkpt lat="45.85692" lon="1.2367">
        <ele>313.6</ele>
        <time>2024-11-12T09:05:12Z</time>
      </trkpt>
      <trkpt lat="45.85691" lon="1.23671">
        <ele>313.5</ele>
        <time>2024-11-12T09:05:13Z</time>
      </trkpt>
      <trkpt lat="45.8569" lon="1.23671">
        <ele>313.4</ele>
        <time>2024-11-12T09:05:14Z</time>
      </trkpt>
      <trkpt lat="45.85688" lon="1.23672">
        <ele>313.3</ele>
        <time>2024-11-12T09:05:15Z</time>
      </trkpt>
      <trkpt lat="45.85687" lon="1.23673">
        <ele>313.2</ele>
        <time>2024-11-12T09:05:16Z</time>
      </trkpt>
      <trkpt lat="45.85685" lon="1.23673">
        <ele>313.2</ele>
        <time>2024-11-12T09:05:17Z</time>
      </trkpt>
      <trkpt lat="45.85684" lon="1.23675">
        <ele>313.1</ele>
        <time>2024-11-12T09:05:18Z</time>
      </trkpt>
      <trkpt lat="45.85683" lon="1.23676">
        <ele>313</ele>
        <time>2024-11-12T09:05:19Z</time>
      </trkpt>
      <trkpt lat="45.85682" lon="1.23677">
        <ele>313</ele>
        <time>2024-11-12T09:05:20Z</time>
      </trkpt>
      <trkpt lat="45.85681" lon="1.23678">
        <ele>312.9</ele>
        <time>2024-11-12T09:05:21Z</time>
      </trkpt>
      <trkpt lat="45.85679" lon="1.2368">
        <ele>312.8</ele>
        <time>2024-11-12T09:05:22Z</time>
      </trkpt>
      <trkpt lat="45.85678" lon="1.23681">
        <ele>312.7</ele>
        <time>2024-11-12T09:05:23Z</time>
      </trkpt>
      <trkpt lat="45.85677" lon="1.23681">
        <ele>312.7</ele>
        <time>2024-11-12T09:05:24Z</time>
      </trkpt>
      <trkpt lat="45.85675" lon="1.23682">
        <ele>312.6</ele>
        <time>2024-11-12T09:05:25Z</time>
      </trkpt>
      <trkpt lat="45.85674" lon="1.23684">
        <ele>312.5</ele>
        <time>2024-11-12T09:05:26Z</time>
      </trkpt>
      <trkpt lat="45.85672" lon="1.23685">
        <ele>312.5</ele>
        <time>2024-11-12T09:05:27Z</time>
      </trkpt>
      <trkpt lat="45.85671" lon="1.23685">
        <ele>312.4</ele>
        <time>2024-11-12T09:05:28Z</time>
      </trkpt>
      <trkpt lat="45.8567" lon="1.23686">
        <ele>312.4</ele>
        <time>2024-11-12T09:05:29Z</time>
      </trkpt>
      <trkpt lat="45.85669" lon="1.23687">
        <ele>312.3</ele>
        <time>2024-11-12T09:05:30Z</time>
      </trkpt>
      <trkpt lat="45.85667" lon="1.23687">
        <ele>312.3</ele>
        <time>2024-11-12T09:05:31Z</time>
      </trkpt>
      <trkpt lat="45.85666" lon="1.23688">
        <ele>312.2</ele>
        <time>2024-11-12T09:05:32Z</time>
      </trkpt>
      <trkpt lat="45.85665" lon="1.23689">
        <ele>312.2</ele>
        <time>2024-11-12T09:05:33Z</time>
      </trkpt>
      <trkpt lat="45.85664" lon="1.2369">
        <ele>312.1</ele>
        <time>2024-11-12T09:05:34Z</time>
      </trkpt>
      <trkpt lat="45.85663" lon="1.23691">
        <ele>312.1</ele>
        <time>2024-11-12T09:05:35Z</time>
      </trkpt>
      <trkpt lat="45.85662" lon="1.23692">
        <ele>312</ele>
        <time>2024-11-12T09:05:36Z</time>
      </trkpt>
      <trkpt lat="45.85661" lon="1.23692">
        <ele>312</ele>
        <time>2024-11-12T09:05:37Z</time>
      </trkpt>
      <trkpt lat="45.8566" lon="1.23693">
        <ele>312</ele>
        <time>2024-11-12T09:05:38Z</time>
      </trkpt>
      <trkpt lat="45.85658" lon="1.23694">
        <ele>311.9</ele>
        <time>2024-11-12T09:05:39Z</time>
      </trkpt>
      <trkpt lat="45.85657" lon="1.23694">
        <ele>311.9</ele>
        <time>2024-11-12T09:05:40Z</time>
      </trkpt>
      <trkpt lat="45.85656" lon="1.23695">
        <ele>311.8</ele>
        <time>2024-11-12T09:05:41Z</time>
      </trkpt>
      <trkpt lat="45.85655" lon="1.23695">
        <ele>311.8</ele>
        <time>2024-11-12T09:05:42Z</time>
      </trkpt>
      <trkpt lat="45.85654" lon="1.23696">
        <ele>311.8</ele>
        <time>2024-11-12T09:05:43Z</time>
      </trkpt>
      <trkpt lat="45.85653" lon="1.23696">
        <ele>311.7</ele>
        <time>2024-11-12T09:05:44Z</time>
      </trkpt>
      <trkpt lat="45.85652" lon="1.23697">
        <ele>311.7</ele>
        <time>2024-11-12T09:05:45Z</time>
      </trkpt>
      <trkpt lat="45.8565" lon="1.23698">
        <ele>311.6</ele>
        <time>2024-11-12T09:05:46Z</time>
      </trkpt>
      <trkpt lat="45.8565" lon="1.23698">
        <ele>311.6</ele>
        <time>2024-11-12T09:05:47Z</time>
      </trkpt>
      <trkpt lat="45.85649" lon="1.23699">
        <ele>311.6</ele>
        <time>2024-11-12T09:05:48Z</time>
      </trkpt>
      <trkpt lat="45.85648" lon="1.237">
        <ele>311.5</ele>
        <time>2024-11-12T09:05:49Z</time>
      </trkpt>
      <trkpt lat="45.85646" lon="1.23701">
        <ele>311.5</ele>
        <time>2024-11-12T09:05:50Z</time>
      </trkpt>
      <trkpt lat="45.85645" lon="1.23702">
        <ele>311.5</ele>
        <time>2024-11-12T09:05:51Z</time>
      </trkpt>
      <trkpt lat="45.85644" lon="1.23703">
        <ele>311.4</ele>
        <time>2024-11-12T09:05:52Z</time>
      </trkpt>
      <trkpt lat="45.85643" lon="1.23703">
        <ele>311.4</ele>
        <time>2024-11-12T09:05:53Z</time>
      </trkpt>
      <trkpt lat="45.85642" lon="1.23705">
        <ele>311.3</ele>
        <time>2024-11-12T09:05:54Z</time>
      </trkpt>
      <trkpt lat="45.85641" lon="1.23705">
        <ele>311.3</ele>
        <time>2024-11-12T09:05:55Z</time>
      </trkpt>
      <trkpt lat="45.8564" lon="1.23706">
        <ele>311.3</ele>
        <time>2024-11-12T09:05:56Z</time>
      </trkpt>
      <trkpt lat="45.85639" lon="1.23707">
        <ele>311.2</ele>
        <time>2024-11-12T09:05:57Z</time>
      </trkpt>
      <trkpt lat="45.85638" lon="1.23707">
        <ele>311.2</ele>
        <time>2024-11-12T09:05:58Z</time>
      </trkpt>
      <trkpt lat="45.85637" lon="1.23708">
        <ele>311.2</ele>
        <time>2024-11-12T09:05:59Z</time>
      </trkpt>
      <trkpt lat="45.85635" lon="1.23709">
        <ele>311.1</ele>
        <time>2024-11-12T09:06:00Z</time>
      </trkpt>
      <trkpt lat="45.85634" lon="1.2371">
        <ele>311.1</ele>
        <time>2024-11-12T09:06:01Z</time>
      </trkpt>
      <trkpt lat="45.85633" lon="1.2371">
        <ele>311</ele>
        <time>2024-11-12T09:06:02Z</time>
      </trkpt>
      <trkpt lat="45.85631" lon="1.23711">
        <ele>311</ele>
        <time>2024-11-12T09:06:03Z</time>
      </trkpt>
      <trkpt lat="45.85631" lon="1.23712">
        <ele>310.9</ele>
        <time>2024-11-12T09:06:04Z</time>
      </trkpt>
      <trkpt lat="45.8563" lon="1.23712">
        <ele>310.9</ele>
        <time>2024-11-12T09:06:05Z</time>
      </trkpt>
      <trkpt lat="45.85628" lon="1.23713">
        <ele>310.9</ele>
        <time>2024-11-12T09:06:06Z</time>
      </trkpt>
      <trkpt lat="45.85628" lon="1.23715">
        <ele>310.8</ele>
        <time>2024-11-12T09:06:07Z</time>
      </trkpt>
      <trkpt lat="45.85629" lon="1.23716">
        <ele>310.8</ele>
        <time>2024-11-12T09:06:08Z</time>
      </trkpt>
      <trkpt lat="45.8563" lon="1.23717">
        <ele>310.8</ele>
        <time>2024-11-12T09:06:09Z</time>
      </trkpt>
      <trkpt lat="45.85629" lon="1.23718">
        <ele>310.7</ele>
        <time>2024-11-12T09:06:10Z</time>
      </trkpt>
      <trkpt lat="45.85627" lon="1.2372">
        <ele>310.6</ele>
        <time>2024-11-12T09:06:11Z</time>
      </trkpt>
      <trkpt lat="45.85626" lon="1.23721">
        <ele>310.6</ele>
        <time>2024-11-12T09:06:12Z</time>
      </trkpt>
      <trkpt lat="45.85625" lon="1.23722">
        <ele>310.5</ele>
        <time>2024-11-12T09:06:13Z</time>
      </trkpt>
      <trkpt lat="45.85624" lon="1.23723">
        <ele>310.5</ele>
        <time>2024-11-12T09:06:14Z</time>
      </trkpt>
      <trkpt lat="45.85623" lon="1.23724">
        <ele>310.4</ele>
        <time>2024-11-12T09:06:15Z</time>
      </trkpt>
      <trkpt lat="45.85621" lon="1.23725">
        <ele>310.3</ele>
        <time>2024-11-12T09:06:16Z</time>
      </trkpt>
      <trkpt lat="45.8562" lon="1.23726">
        <ele>310.3</ele>
        <time>2024-11-12T09:06:17Z</time>
      </trkpt>
      <trkpt lat="45.85619" lon="1.23726">
        <ele>310.2</ele>
        <time>2024-11-12T09:06:18Z</time>
      </trkpt>
      <trkpt lat="45.85618" lon="1.23727">
        <ele>310.2</ele>
        <time>2024-11-12T09:06:19Z</time>
      </trkpt>
      <trkpt lat="45.85616" lon="1.23727">
        <ele>310.1</ele>
        <time>2024-11-12T09:06:20Z</time>
      </trkpt>
      <trkpt lat="45.85614" lon="1.23727">
        <ele>310</ele>
        <time>2024-11-12T09:06:21Z</time>
      </trkpt>
      <trkpt lat="45.85614" lon="1.23728">
        <ele>310</ele>
        <time>2024-11-12T09:06:22Z</time>
      </trkpt>
      <trkpt lat="45.85612" lon="1.23728">
        <ele>309.9</ele>
        <time>2024-11-12T09:06:23Z</time>
      </trkpt>
      <trkpt lat="45.85611" lon="1.23728">
        <ele>309.9</ele>
        <time>2024-11-12T09:06:24Z</time>
      </trkpt>
      <trkpt lat="45.85609" lon="1.23728">
        <ele>309.8</ele>
        <time>2024-11-12T09:06:25Z</time>
      </trkpt>
      <trkpt lat="45.85608" lon="1.23728">
        <ele>309.7</ele>
        <time>2024-11-12T09:06:26Z</time>
      </trkpt>
      <trkpt lat="45.85606" lon="1.23727">
        <ele>309.7</ele>
        <time>2024-11-12T09:06:27Z</time>
      </trkpt>
      <trkpt lat="45.85605" lon="1.23727">
        <ele>309.6</ele>
        <time>2024-11-12T09:06:28Z</time>
      </trkpt>
      <trkpt lat="45.85604" lon="1.23727">
        <ele>309.6</ele>
        <time>2024-11-12T09:06:29Z</time>
      </trkpt>
      <trkpt lat="45.85603" lon="1.23727">
        <ele>309.5</ele>
        <time>2024-11-12T09:06:30Z</time>
      </trkpt>
      <trkpt lat="45.85601" lon="1.23727">
        <ele>309.4</ele>
        <time>2024-11-12T09:06:31Z</time>
      </trkpt>
      <trkpt lat="45.856" lon="1.23727">
        <ele>309.4</ele>
        <time>2024-11-12T09:06:32Z</time>
      </trkpt>
      <trkpt lat="45.85599" lon="1.23727">
        <ele>309.3</ele>
        <time>2024-11-12T09:06:33Z</time>
      </trkpt>
      <trkpt lat="45.85598" lon="1.23727">
        <ele>309.3</ele>
        <time>2024-11-12T09:06:34Z</time>
      </trkpt>
      <trkpt lat="45.85596" lon="1.23727">
        <ele>309.2</ele>
        <time>2024-11-12T09:06:35Z</time>
      </trkpt>
      <trkpt lat="45.85595" lon="1.23728">
        <ele>309.2</ele>
        <time>2024-11-12T09:06:36Z</time>
      </trkpt>
      <trkpt lat="45.85594" lon="1.23728">
        <ele>309.1</ele>
        <time>2024-11-12T09:06:37Z</time>
      </trkpt>
      <trkpt lat="45.85593" lon="1.23729">
        <ele>309.1</ele>
        <time>2024-11-12T09:06:38Z</time>
      </trkpt>
      <trkpt lat="45.85592" lon="1.23729">
        <ele>309</ele>
        <time>2024-11-12T09:06:39Z</time>
      </trkpt>
      <trkpt lat="45.85591" lon="1.2373">
        <ele>308.9</ele>
        <time>2024-11-12T09:06:40Z</time>
      </trkpt>
      <trkpt lat="45.85588" lon="1.23731">
        <ele>308.8</ele>
        <time>2024-11-12T09:06:41Z</time>
      </trkpt>
      <trkpt lat="45.85588" lon="1.23731">
        <ele>308.8</ele>
        <time>2024-11-12T09:06:42Z</time>
      </trkpt>
      <trkpt lat="45.85587" lon="1.23732">
        <ele>308.8</ele>
        <time>2024-11-12T09:06:43Z</time>
      </trkpt>
      <trkpt lat="45.85585" lon="1.23733">
        <ele>308.7</ele>
        <time>2024-11-12T09:06:44Z</time>
      </trkpt>
      <trkpt lat="45.85584" lon="1.23733">
        <ele>308.6</ele>
        <time>2024-11-12T09:06:45Z</time>
      </trkpt>
      <trkpt lat="45.85583" lon="1.23734">
        <ele>308.6</ele>
        <time>2024-11-12T09:06:46Z</time>
      </trkpt>
      <trkpt lat="45.85582" lon="1.23734">
        <ele>308.5</ele>
        <time>2024-11-12T09:06:47Z</time>
      </trkpt>
      <trkpt lat="45.85581" lon="1.23735">
        <ele>308.5</ele>
        <time>2024-11-12T09:06:48Z</time>
      </trkpt>
      <trkpt lat="45.8558" lon="1.23735">
        <ele>308.4</ele>
        <time>2024-11-12T09:06:49Z</time>
      </trkpt>
      <trkpt lat="45.85579" lon="1.23735">
        <ele>308.4</ele>
        <time>2024-11-12T09:06:50Z</time>
      </trkpt>
      <trkpt lat="45.85577" lon="1.23735">
        <ele>308.3</ele>
        <time>2024-11-12T09:06:51Z</time>
      </trkpt>
      <trkpt lat="45.85576" lon="1.23735">
        <ele>308.3</ele>
        <time>2024-11-12T09:06:52Z</time>
      </trkpt>
      <trkpt lat="45.85575" lon="1.23735">
        <ele>308.2</ele>
        <time>2024-11-12T09:06:53Z</time>
      </trkpt>
      <trkpt lat="45.85574" lon="1.23735">
        <ele>308.2</ele>
        <time>2024-11-12T09:06:54Z</time>
      </trkpt>
      <trkpt lat="45.85572" lon="1.23736">
        <ele>308.1</ele>
        <time>2024-11-12T09:06:55Z</time>
      </trkpt>
      <trkpt lat="45.85571" lon="1.23736">
        <ele>308</ele>
        <time>2024-11-12T09:06:56Z</time>
      </trkpt>
      <trkpt lat="45.8557" lon="1.23737">
        <ele>308</ele>
        <time>2024-11-12T09:06:57Z</time>
      </trkpt>
      <trkpt lat="45.85569" lon="1.23737">
        <ele>307.9</ele>
        <time>2024-11-12T09:06:58Z</time>
      </trkpt>
      <trkpt lat="45.85568" lon="1.23738">
        <ele>307.9</ele>
        <time>2024-11-12T09:06:59Z</time>
      </trkpt>
      <trkpt lat="45.85567" lon="1.23738">
        <ele>307.8</ele>
        <time>2024-11-12T09:07:00Z</time>
      </trkpt>
      <trkpt lat="45.85565" lon="1.23739">
        <ele>307.8</ele>
        <time>2024-11-12T09:07:01Z</time>
      </trkpt>
      <trkpt lat="45.85564" lon="1.23741">
        <ele>307.7</ele>
        <time>2024-11-12T09:07:02Z</time>
      </trkpt>
      <trkpt lat="45.85563" lon="1.23741">
        <ele>307.7</ele>
        <time>2024-11-12T09:07:03Z</time>
      </trkpt>
      <trkpt lat="45.85563" lon="1.23742">
        <ele>307.7</ele>
        <time>2024-11-12T09:07:04Z</time>
      </trkpt>
      <trkpt lat="45.85562" lon="1.23743">
        <ele>307.6</ele>
        <time>2024-11-12T09:07:05Z</time>
      </trkpt>
      <trkpt lat="45.8556" lon="1.23744">
        <ele>307.5</ele>
        <time>2024-11-12T09:07:06Z</time>
      </trkpt>
      <trkpt lat="45.85559" lon="1.23744">
        <ele>307.5</ele>
        <time>2024-11-12T09:07:07Z</time>
      </trkpt>
      <trkpt lat="45.85559" lon="1.23745">
        <ele>307.5</ele>
        <time>2024-11-12T09:07:08Z</time>
      </trkpt>
      <trkpt lat="45.85556" lon="1.23746">
        <ele>307.4</ele>
        <time>2024-11-12T09:07:09Z</time>
      </trkpt>
      <trkpt lat="45.85555" lon="1.23747">
        <ele>307.3</ele>
        <time>2024-11-12T09:07:10Z</time>
      </trkpt>
      <trkpt lat="45.85555" lon="1.23747">
        <ele>307.3</ele>
        <time>2024-11-12T09:07:11Z</time>
      </trkpt>
      <trkpt lat="45.85554" lon="1.23748">
        <ele>307.3</ele>
        <time>2024-11-12T09:07:12Z</time>
      </trkpt>
      <trkpt lat="45.85553" lon="1.23749">
        <ele>307.2</ele>
        <time>2024-11-12T09:07:13Z</time>
      </trkpt>
      <trkpt lat="45.85552" lon="1.2375">
        <ele>307.2</ele>
        <time>2024-11-12T09:07:14Z</time>
      </trkpt>
      <trkpt lat="45.8555" lon="1.23752">
        <ele>307.1</ele>
        <time>2024-11-12T09:07:15Z</time>
      </trkpt>
      <trkpt lat="45.85549" lon="1.23752">
        <ele>307.1</ele>
        <time>2024-11-12T09:07:16Z</time>
      </trkpt>
      <trkpt lat="45.85549" lon="1.23753">
        <ele>307</ele>
        <time>2024-11-12T09:07:17Z</time>
      </trkpt>
      <trkpt lat="45.85547" lon="1.23755">
        <ele>307</ele>
        <time>2024-11-12T09:07:18Z</time>
      </trkpt>
      <trkpt lat="45.85546" lon="1.23755">
        <ele>306.9</ele>
        <time>2024-11-12T09:07:19Z</time>
      </trkpt>
      <trkpt lat="45.85545" lon="1.23756">
        <ele>306.9</ele>
        <time>2024-11-12T09:07:20Z</time>
      </trkpt>
      <trkpt lat="45.85543" lon="1.23758">
        <ele>306.8</ele>
        <time>2024-11-12T09:07:21Z</time>
      </trkpt>
      <trkpt lat="45.85543" lon="1.23759">
        <ele>306.8</ele>
        <time>2024-11-12T09:07:22Z</time>
      </trkpt>
      <trkpt lat="45.85542" lon="1.23759">
        <ele>306.8</ele>
        <time>2024-11-12T09:07:23Z</time>
      </trkpt>
      <trkpt lat="45.85541" lon="1.2376">
        <ele>306.7</ele>
        <time>2024-11-12T09:07:24Z</time>
      </trkpt>
      <trkpt lat="45.8554" lon="1.23762">
        <ele>306.7</ele>
        <time>2024-11-12T09:07:25Z</time>
      </trkpt>
      <trkpt lat="45.85539" lon="1.23763">
        <ele>306.6</ele>
        <time>2024-11-12T09:07:26Z</time>
      </trkpt>
      <trkpt lat="45.85538" lon="1.23764">
        <ele>306.6</ele>
        <time>2024-11-12T09:07:27Z</time>
      </trkpt>
      <trkpt lat="45.85537" lon="1.23765">
        <ele>306.5</ele>
        <time>2024-11-12T09:07:28Z</time>
      </trkpt>
      <trkpt lat="45.85535" lon="1.23766">
        <ele>306.4</ele>
        <time>2024-11-12T09:07:29Z</time>
      </trkpt>
      <trkpt lat="45.85534" lon="1.23767">
        <ele>306.4</ele>
        <time>2024-11-12T09:07:30Z</time>
      </trkpt>
      <trkpt lat="45.85534" lon="1.23767">
        <ele>306.3</ele>
        <time>2024-11-12T09:07:31Z</time>
      </trkpt>
      <trkpt lat="45.85533" lon="1.23768">
        <ele>306.3</ele>
        <time>2024-11-12T09:07:32Z</time>
      </trkpt>
      <trkpt lat="45.85532" lon="1.23769">
        <ele>306.3</ele>
        <time>2024-11-12T09:07:33Z</time>
      </trkpt>
      <trkpt lat="45.85531" lon="1.23769">
        <ele>306.2</ele>
        <time>2024-11-12T09:07:34Z</time>
      </trkpt>
      <trkpt lat="45.8553" lon="1.2377">
        <ele>306.2</ele>
        <time>2024-11-12T09:07:35Z</time>
      </trkpt>
      <trkpt lat="45.85528" lon="1.23772">
        <ele>306.1</ele>
        <time>2024-11-12T09:07:36Z</time>
      </trkpt>
      <trkpt lat="45.85527" lon="1.23772">
        <ele>306.1</ele>
        <time>2024-11-12T09:07:37Z</time>
      </trkpt>
      <trkpt lat="45.85527" lon="1.23773">
        <ele>306</ele>
        <time>2024-11-12T09:07:38Z</time>
      </trkpt>
      <trkpt lat="45.85525" lon="1.23774">
        <ele>306</ele>
        <time>2024-11-12T09:07:39Z</time>
      </trkpt>
      <trkpt lat="45.85524" lon="1.23775">
        <ele>305.9</ele>
        <time>2024-11-12T09:07:40Z</time>
      </trkpt>
      <trkpt lat="45.85523" lon="1.23776">
        <ele>305.8</ele>
        <time>2024-11-12T09:07:41Z</time>
      </trkpt>
      <trkpt lat="45.85522" lon="1.23777">
        <ele>305.8</ele>
        <time>2024-11-12T09:07:42Z</time>
      </trkpt>
      <trkpt lat="45.85521" lon="1.23777">
        <ele>305.7</ele>
        <time>2024-11-12T09:07:43Z</time>
      </trkpt>
      <trkpt lat="45.8552" lon="1.23778">
        <ele>305.7</ele>
        <time>2024-11-12T09:07:44Z</time>
      </trkpt>
      <trkpt lat="45.85518" lon="1.2378">
        <ele>305.6</ele>
        <time>2024-11-12T09:07:45Z</time>
      </trkpt>
      <trkpt lat="45.85517" lon="1.23781">
        <ele>305.5</ele>
        <time>2024-11-12T09:07:46Z</time>
      </trkpt>
      <trkpt lat="45.85516" lon="1.23781">
        <ele>305.5</ele>
        <time>2024-11-12T09:07:47Z</time>
      </trkpt>
      <trkpt lat="45.85515" lon="1.23783">
        <ele>305.4</ele>
        <time>2024-11-12T09:07:48Z</time>
      </trkpt>
      <trkpt lat="45.85514" lon="1.23784">
        <ele>305.3</ele>
        <time>2024-11-12T09:07:49Z</time>
      </trkpt>
      <trkpt lat="45.85513" lon="1.23785">
        <ele>305.3</ele>
        <time>2024-11-12T09:07:50Z</time>
      </trkpt>
      <trkpt lat="45.85511" lon="1.23786">
        <ele>305.1</ele>
        <time>2024-11-12T09:07:51Z</time>
      </trkpt>
      <trkpt lat="45.85511" lon="1.23787">
        <ele>305.1</ele>
        <time>2024-11-12T09:07:52Z</time>
      </trkpt>
      <trkpt lat="45.85509" lon="1.23787">
        <ele>305</ele>
        <time>2024-11-12T09:07:53Z</time>
      </trkpt>
      <trkpt lat="45.85508" lon="1.23788">
        <ele>305</ele>
        <time>2024-11-12T09:07:54Z</time>
      </trkpt>
      <trkpt lat="45.85506" lon="1.23788">
        <ele>304.8</ele>
        <time>2024-11-12T09:07:55Z</time>
      </trkpt>
      <trkpt lat="45.85505" lon="1.23789">
        <ele>304.8</ele>
        <time>2024-11-12T09:07:56Z</time>
      </trkpt>
      <trkpt lat="45.85504" lon="1.23789">
        <ele>304.7</ele>
        <time>2024-11-12T09:07:57Z</time>
      </trkpt>
      <trkpt lat="45.85503" lon="1.23789">
        <ele>304.7</ele>
        <time>2024-11-12T09:07:58Z</time>
      </trkpt>
      <trkpt lat="45.85502" lon="1.23789">
        <ele>304.6</ele>
        <time>2024-11-12T09:07:59Z</time>
      </trkpt>
      <trkpt lat="45.85502" lon="1.23789">
        <ele>304.6</ele>
        <time>2024-11-12T09:08:00Z</time>
      </trkpt>
      <trkpt lat="45.85503" lon="1.23789">
        <ele>304.6</ele>
        <time>2024-11-12T09:08:01Z</time>
      </trkpt>
      <trkpt lat="45.85503" lon="1.23789">
        <ele>304.6</ele>
        <time>2024-11-12T09:08:02Z</time>
      </trkpt>
      <trkpt lat="45.85503" lon="1.23788">
        <ele>304.5</ele>
        <time>2024-11-12T09:08:03Z</time>
      </trkpt>
      <trkpt lat="45.85503" lon="1.23788">
        <ele>304.5</ele>
        <time>2024-11-12T09:08:04Z</time>
      </trkpt>
      <trkpt lat="45.85503" lon="1.23787">
        <ele>304.5</ele>
        <time>2024-11-12T09:08:05Z</time>
      </trkpt>
      <trkpt lat="45.85503" lon="1.23787">
        <ele>304.5</ele>
        <time>2024-11-12T09:08:06Z</time>
      </trkpt>
      <trkpt lat="45.85503" lon="1.23787">
        <ele>304.5</ele>
        <time>2024-11-12T09:08:07Z</time>
      </trkpt>
      <trkpt lat="45.85503" lon="1.23787">
        <ele>304.5</ele>
        <time>2024-11-12T09:08:08Z</time>
      </trkpt>
      <trkpt lat="45.85503" lon="1.23786">
        <ele>304.4</ele>
        <time>2024-11-12T09:08:09Z</time>
      </trkpt>
      <trkpt lat="45.85503" lon="1.23786">
        <ele>304.4</ele>
        <time>2024-11-12T09:08:10Z</time>
      </trkpt>
      <trkpt lat="45.85503" lon="1.23786">
        <ele>304.4</ele>
        <time>2024-11-12T09:08:11Z</time>
      </trkpt>
      <trkpt lat="45.85502" lon="1.23786">
        <ele>304.4</ele>
        <time>2024-11-12T09:08:12Z</time>
      </trkpt>
      <trkpt lat="45.85502" lon="1.23786">
        <ele>304.4</ele>
        <time>2024-11-12T09:08:13Z</time>
      </trkpt>
      <trkpt lat="45.85502" lon="1.23786">
        <ele>304.4</ele>
        <time>2024-11-12T09:08:14Z</time>
      </trkpt>
      <trkpt lat="45.85502" lon="1.23786">
        <ele>304.4</ele>
        <time>2024-11-12T09:08:15Z</time>
      </trkpt>
      <trkpt lat="45.85502" lon="1.23787">
        <ele>304.4</ele>
        <time>2024-11-12T09:08:16Z</time>
      </trkpt>
      <trkpt lat="45.85502" lon="1.23787">
        <ele>304.4</ele>
        <time>2024-11-12T09:08:17Z</time>
      </trkpt>
      <trkpt lat="45.85501" lon="1.23787">
        <ele>304.3</ele>
        <time>2024-11-12T09:08:18Z</time>
      </trkpt>
      <trkpt lat="45.855" lon="1.23787">
        <ele>304.3</ele>
        <time>2024-11-12T09:08:19Z</time>
      </trkpt>
      <trkpt lat="45.855" lon="1.23788">
        <ele>304.3</ele>
        <time>2024-11-12T09:08:20Z</time>
      </trkpt>
      <trkpt lat="45.85499" lon="1.23788">
        <ele>304.2</ele>
        <time>2024-11-12T09:08:21Z</time>
      </trkpt>
      <trkpt lat="45.85499" lon="1.23788">
        <ele>304.2</ele>
        <time>2024-11-12T09:08:22Z</time>
      </trkpt>
      <trkpt lat="45.85498" lon="1.23788">
        <ele>304.2</ele>
        <time>2024-11-12T09:08:23Z</time>
      </trkpt>
      <trkpt lat="45.85498" lon="1.23789">
        <ele>304.1</ele>
        <time>2024-11-12T09:08:24Z</time>
      </trkpt>
      <trkpt lat="45.85495" lon="1.23788">
        <ele>304</ele>
        <time>2024-11-12T09:08:25Z</time>
      </trkpt>
      <trkpt lat="45.85492" lon="1.2379">
        <ele>303.8</ele>
        <time>2024-11-12T09:08:26Z</time>
      </trkpt>
      <trkpt lat="45.85491" lon="1.2379">
        <ele>303.8</ele>
        <time>2024-11-12T09:08:27Z</time>
      </trkpt>
      <trkpt lat="45.85489" lon="1.23791">
        <ele>303.7</ele>
        <time>2024-11-12T09:08:28Z</time>
      </trkpt>
      <trkpt lat="45.85488" lon="1.23793">
        <ele>303.6</ele>
        <time>2024-11-12T09:08:29Z</time>
      </trkpt>
      <trkpt lat="45.85486" lon="1.23794">
        <ele>303.5</ele>
        <time>2024-11-12T09:08:30Z</time>
      </trkpt>
      <trkpt lat="45.85484" lon="1.23794">
        <ele>303.5</ele>
        <time>2024-11-12T09:08:31Z</time>
      </trkpt>
      <trkpt lat="45.85483" lon="1.23795">
        <ele>303.4</ele>
        <time>2024-11-12T09:08:32Z</time>
      </trkpt>
      <trkpt lat="45.85481" lon="1.23795">
        <ele>303.3</ele>
        <time>2024-11-12T09:08:33Z</time>
      </trkpt>
      <trkpt lat="45.8548" lon="1.23795">
        <ele>303.2</ele>
        <time>2024-11-12T09:08:34Z</time>
      </trkpt>
      <trkpt lat="45.85479" lon="1.23795">
        <ele>303.2</ele>
        <time>2024-11-12T09:08:35Z</time>
      </trkpt>
      <trkpt lat="45.85477" lon="1.23795">
        <ele>303.1</ele>
        <time>2024-11-12T09:08:36Z</time>
      </trkpt>
      <trkpt lat="45.85476" lon="1.23795">
        <ele>303</ele>
        <time>2024-11-12T09:08:37Z</time>
      </trkpt>
      <trkpt lat="45.85474" lon="1.23795">
        <ele>303</ele>
        <time>2024-11-12T09:08:38Z</time>
      </trkpt>
      <trkpt lat="45.85473" lon="1.23795">
        <ele>302.9</ele>
        <time>2024-11-12T09:08:39Z</time>
      </trkpt>
      <trkpt lat="45.85472" lon="1.23795">
        <ele>302.8</ele>
        <time>2024-11-12T09:08:40Z</time>
      </trkpt>
      <trkpt lat="45.8547" lon="1.23795">
        <ele>302.7</ele>
        <time>2024-11-12T09:08:41Z</time>
      </trkpt>
      <trkpt lat="45.85468" lon="1.23796">
        <ele>302.6</ele>
        <time>2024-11-12T09:08:42Z</time>
      </trkpt>
      <trkpt lat="45.85467" lon="1.23796">
        <ele>302.6</ele>
        <time>2024-11-12T09:08:43Z</time>
      </trkpt>
      <trkpt lat="45.85467" lon="1.23796">
        <ele>302.5</ele>
        <time>2024-11-12T09:08:44Z</time>
      </trkpt>
      <trkpt lat="45.85465" lon="1.23796">
        <ele>302.4</ele>
        <time>2024-11-12T09:08:45Z</time>
      </trkpt>
      <trkpt lat="45.85464" lon="1.23796">
        <ele>302.4</ele>
        <time>2024-11-12T09:08:46Z</time>
      </trkpt>
      <trkpt lat="45.85463" lon="1.23797">
        <ele>302.3</ele>
        <time>2024-11-12T09:08:47Z</time>
      </trkpt>
      <trkpt lat="45.85461" lon="1.23797">
        <ele>302.2</ele>
        <time>2024-11-12T09:08:48Z</time>
      </trkpt>
      <trkpt lat="45.8546" lon="1.23797">
        <ele>302.2</ele>
        <time>2024-11-12T09:08:49Z</time>
      </trkpt>
      <trkpt lat="45.85459" lon="1.23797">
        <ele>302.2</ele>
        <time>2024-11-12T09:08:50Z</time>
      </trkpt>
      <trkpt lat="45.85457" lon="1.23796">
        <ele>302.1</ele>
        <time>2024-11-12T09:08:51Z</time>
      </trkpt>
      <trkpt lat="45.85456" lon="1.23796">
        <ele>302</ele>
        <time>2024-11-12T09:08:52Z</time>
      </trkpt>
      <trkpt lat="45.85455" lon="1.23796">
        <ele>302</ele>
        <time>2024-11-12T09:08:53Z</time>
      </trkpt>
      <trkpt lat="45.85453" lon="1.23797">
        <ele>301.9</ele>
        <time>2024-11-12T09:08:54Z</time>
      </trkpt>
      <trkpt lat="45.85453" lon="1.23797">
        <ele>301.9</ele>
        <time>2024-11-12T09:08:55Z</time>
      </trkpt>
      <trkpt lat="45.85452" lon="1.23797">
        <ele>301.8</ele>
        <time>2024-11-12T09:08:56Z</time>
      </trkpt>
      <trkpt lat="45.8545" lon="1.23797">
        <ele>301.8</ele>
        <time>2024-11-12T09:08:57Z</time>
      </trkpt>
      <trkpt lat="45.85449" lon="1.23797">
        <ele>301.7</ele>
        <time>2024-11-12T09:08:58Z</time>
      </trkpt>
      <trkpt lat="45.85448" lon="1.23798">
        <ele>301.7</ele>
        <time>2024-11-12T09:08:59Z</time>
      </trkpt>
      <trkpt lat="45.85447" lon="1.23798">
        <ele>301.6</ele>
        <time>2024-11-12T09:09:00Z</time>
      </trkpt>
      <trkpt lat="45.85446" lon="1.23798">
        <ele>301.6</ele>
        <time>2024-11-12T09:09:01Z</time>
      </trkpt>
      <trkpt lat="45.85445" lon="1.23799">
        <ele>301.5</ele>
        <time>2024-11-12T09:09:02Z</time>
      </trkpt>
      <trkpt lat="45.85444" lon="1.23799">
        <ele>301.5</ele>
        <time>2024-11-12T09:09:03Z</time>
      </trkpt>
      <trkpt lat="45.85442" lon="1.23799">
        <ele>301.4</ele>
        <time>2024-11-12T09:09:04Z</time>
      </trkpt>
      <trkpt lat="45.85441" lon="1.23799">
        <ele>301.4</ele>
        <time>2024-11-12T09:09:05Z</time>
      </trkpt>
      <trkpt lat="45.8544" lon="1.23799">
        <ele>301.4</ele>
        <time>2024-11-12T09:09:06Z</time>
      </trkpt>
      <trkpt lat="45.85439" lon="1.238">
        <ele>301.3</ele>
        <time>2024-11-12T09:09:07Z</time>
      </trkpt>
      <trkpt lat="45.85438" lon="1.23799">
        <ele>301.3</ele>
        <time>2024-11-12T09:09:08Z</time>
      </trkpt>
      <trkpt lat="45.85437" lon="1.23799">
        <ele>301.2</ele>
        <time>2024-11-12T09:09:09Z</time>
      </trkpt>
      <trkpt lat="45.85436" lon="1.23799">
        <ele>301.2</ele>
        <time>2024-11-12T09:09:10Z</time>
      </trkpt>
      <trkpt lat="45.85434" lon="1.23799">
        <ele>301.2</ele>
        <time>2024-11-12T09:09:11Z</time>
      </trkpt>
      <trkpt lat="45.85433" lon="1.23799">
        <ele>301.2</ele>
        <time>2024-11-12T09:09:12Z</time>
      </trkpt>
      <trkpt lat="45.85432" lon="1.238">
        <ele>301.1</ele>
        <time>2024-11-12T09:09:13Z</time>
      </trkpt>
      <trkpt lat="45.85431" lon="1.238">
        <ele>301.1</ele>
        <time>2024-11-12T09:09:14Z</time>
      </trkpt>
      <trkpt lat="45.8543" lon="1.238">
        <ele>301.1</ele>
        <time>2024-11-12T09:09:15Z</time>
      </trkpt>
      <trkpt lat="45.85429" lon="1.23801">
        <ele>301.1</ele>
        <time>2024-11-12T09:09:16Z</time>
      </trkpt>
      <trkpt lat="45.85427" lon="1.23801">
        <ele>301</ele>
        <time>2024-11-12T09:09:17Z</time>
      </trkpt>
      <trkpt lat="45.85427" lon="1.238">
        <ele>301</ele>
        <time>2024-11-12T09:09:18Z</time>
      </trkpt>
      <trkpt lat="45.85425" lon="1.238">
        <ele>301</ele>
        <time>2024-11-12T09:09:19Z</time>
      </trkpt>
      <trkpt lat="45.85423" lon="1.238">
        <ele>301</ele>
        <time>2024-11-12T09:09:20Z</time>
      </trkpt>
      <trkpt lat="45.85422" lon="1.23799">
        <ele>300.9</ele>
        <time>2024-11-12T09:09:21Z</time>
      </trkpt>
      <trkpt lat="45.85422" lon="1.23799">
        <ele>300.9</ele>
        <time>2024-11-12T09:09:22Z</time>
      </trkpt>
      <trkpt lat="45.85421" lon="1.23799">
        <ele>300.9</ele>
        <time>2024-11-12T09:09:23Z</time>
      </trkpt>
      <trkpt lat="45.8542" lon="1.23798">
        <ele>300.9</ele>
        <time>2024-11-12T09:09:24Z</time>
      </trkpt>
      <trkpt lat="45.85419" lon="1.23798">
        <ele>300.9</ele>
        <time>2024-11-12T09:09:25Z</time>
      </trkpt>
      <trkpt lat="45.85418" lon="1.23798">
        <ele>300.9</ele>
        <time>2024-11-12T09:09:26Z</time>
      </trkpt>
      <trkpt lat="45.85418" lon="1.23798">
        <ele>300.9</ele>
        <time>2024-11-12T09:09:27Z</time>
      </trkpt>
      <trkpt lat="45.85418" lon="1.23798">
        <ele>300.9</ele>
        <time>2024-11-12T09:09:28Z</time>
      </trkpt>
      <trkpt lat="45.85418" lon="1.23798">
        <ele>300.9</ele>
        <time>2024-11-12T09:09:29Z</time>
      </trkpt>
      <trkpt lat="45.85418" lon="1.23798">
        <ele>300.9</ele>
        <time>2024-11-12T09:09:30Z</time>
      </trkpt>
      <trkpt lat="45.85418" lon="1.23798">
        <ele>300.9</ele>
        <time>2024-11-12T09:09:31Z</time>
      </trkpt>
      <trkpt lat="45.85418" lon="1.23798">
        <ele>300.9</ele>
        <time>2024-11-12T09:09:32Z</time>
      </trkpt>
      <trkpt lat="45.85418" lon="1.23798">
        <ele>300.9</ele>
        <time>2024-11-12T09:09:33Z</time>
      </trkpt>
      <trkpt lat="45.85418" lon="1.23798">
        <ele>300.9</ele>
        <time>2024-11-12T09:09:34Z</time>
      </trkpt>
      <trkpt lat="45.85418" lon="1.23798">
        <ele>300.9</ele>
        <time>2024-11-12T09:09:35Z</time>
      </trkpt>
      <trkpt lat="45.85417" lon="1.23798">
        <ele>300.9</ele>
        <time>2024-11-12T09:09:36Z</time>
      </trkpt>
      <trkpt lat="45.85417" lon="1.23797">
        <ele>300.9</ele>
        <time>2024-11-12T09:09:37Z</time>
      </trkpt>
      <trkpt lat="45.85417" lon="1.23797">
        <ele>300.9</ele>
        <time>2024-11-12T09:09:38Z</time>
      </trkpt>
      <trkpt lat="45.85416" lon="1.23796">
        <ele>300.9</ele>
        <time>2024-11-12T09:09:39Z</time>
      </trkpt>
      <trkpt lat="45.85414" lon="1.23793">
        <ele>300.9</ele>
        <time>2024-11-12T09:09:40Z</time>
      </trkpt>
      <trkpt lat="45.85413" lon="1.23792">
        <ele>300.9</ele>
        <time>2024-11-12T09:09:41Z</time>
      </trkpt>
      <trkpt lat="45.85411" lon="1.23789">
        <ele>300.9</ele>
        <time>2024-11-12T09:09:42Z</time>
      </trkpt>
      <trkpt lat="45.8541" lon="1.23788">
        <ele>300.9</ele>
        <time>2024-11-12T09:09:43Z</time>
      </trkpt>
      <trkpt lat="45.8541" lon="1.23786">
        <ele>300.9</ele>
        <time>2024-11-12T09:09:44Z</time>
      </trkpt>
      <trkpt lat="45.85409" lon="1.23784">
        <ele>300.9</ele>
        <time>2024-11-12T09:09:45Z</time>
      </trkpt>
      <trkpt lat="45.85408" lon="1.23781">
        <ele>301</ele>
        <time>2024-11-12T09:09:46Z</time>
      </trkpt>
      <trkpt lat="45.85408" lon="1.23779">
        <ele>301</ele>
        <time>2024-11-12T09:09:47Z</time>
      </trkpt>
      <trkpt lat="45.85407" lon="1.23777">
        <ele>301</ele>
        <time>2024-11-12T09:09:48Z</time>
      </trkpt>
      <trkpt lat="45.85406" lon="1.23775">
        <ele>301.1</ele>
        <time>2024-11-12T09:09:49Z</time>
      </trkpt>
      <trkpt lat="45.85405" lon="1.23774">
        <ele>301.1</ele>
        <time>2024-11-12T09:09:50Z</time>
      </trkpt>
      <trkpt lat="45.85405" lon="1.23772">
        <ele>301.2</ele>
        <time>2024-11-12T09:09:51Z</time>
      </trkpt>
      <trkpt lat="45.85404" lon="1.2377">
        <ele>301.2</ele>
        <time>2024-11-12T09:09:52Z</time>
      </trkpt>
      <trkpt lat="45.85403" lon="1.23768">
        <ele>301.3</ele>
        <time>2024-11-12T09:09:53Z</time>
      </trkpt>
      <trkpt lat="45.85402" lon="1.23766">
        <ele>301.4</ele>
        <time>2024-11-12T09:09:54Z</time>
      </trkpt>
      <trkpt lat="45.85401" lon="1.23764">
        <ele>301.4</ele>
        <time>2024-11-12T09:09:55Z</time>
      </trkpt>
      <trkpt lat="45.85401" lon="1.23763">
        <ele>301.5</ele>
        <time>2024-11-12T09:09:56Z</time>
      </trkpt>
      <trkpt lat="45.854" lon="1.23762">
        <ele>301.5</ele>
        <time>2024-11-12T09:09:57Z</time>
      </trkpt>
      <trkpt lat="45.85399" lon="1.2376">
        <ele>301.6</ele>
        <time>2024-11-12T09:09:58Z</time>
      </trkpt>
      <trkpt lat="45.85398" lon="1.23757">
        <ele>301.7</ele>
        <time>2024-11-12T09:09:59Z</time>
      </trkpt>
      <trkpt lat="45.85398" lon="1.23756">
        <ele>301.7</ele>
        <time>2024-11-12T09:10:00Z</time>
      </trkpt>
      <trkpt lat="45.85397" lon="1.23755">
        <ele>301.8</ele>
        <time>2024-11-12T09:10:01Z</time>
      </trkpt>
      <trkpt lat="45.85397" lon="1.23754">
        <ele>301.8</ele>
        <time>2024-11-12T09:10:02Z</time>
      </trkpt>
      <trkpt lat="45.85396" lon="1.23752">
        <ele>301.9</ele>
        <time>2024-11-12T09:10:03Z</time>
      </trkpt>
      <trkpt lat="45.85396" lon="1.23751">
        <ele>302</ele>
        <time>2024-11-12T09:10:04Z</time>
      </trkpt>
      <trkpt lat="45.85395" lon="1.23748">
        <ele>302.1</ele>
        <time>2024-11-12T09:10:05Z</time>
      </trkpt>
      <trkpt lat="45.85395" lon="1.23747">
        <ele>302.1</ele>
        <time>2024-11-12T09:10:06Z</time>
      </trkpt>
      <trkpt lat="45.85394" lon="1.23746">
        <ele>302.2</ele>
        <time>2024-11-12T09:10:07Z</time>
      </trkpt>
      <trkpt lat="45.85394" lon="1.23745">
        <ele>302.2</ele>
        <time>2024-11-12T09:10:08Z</time>
      </trkpt>
      <trkpt lat="45.85393" lon="1.23743">
        <ele>302.3</ele>
        <time>2024-11-12T09:10:09Z</time>
      </trkpt>
      <trkpt lat="45.85392" lon="1.23742">
        <ele>302.3</ele>
        <time>2024-11-12T09:10:10Z</time>
      </trkpt>
      <trkpt lat="45.85392" lon="1.2374">
        <ele>302.4</ele>
        <time>2024-11-12T09:10:11Z</time>
      </trkpt>
      <trkpt lat="45.85391" lon="1.23738">
        <ele>302.5</ele>
        <time>2024-11-12T09:10:12Z</time>
      </trkpt>
      <trkpt lat="45.8539" lon="1.23737">
        <ele>302.5</ele>
        <time>2024-11-12T09:10:13Z</time>
      </trkpt>
      <trkpt lat="45.8539" lon="1.23736">
        <ele>302.5</ele>
        <time>2024-11-12T09:10:14Z</time>
      </trkpt>
      <trkpt lat="45.8539" lon="1.23736">
        <ele>302.5</ele>
        <time>2024-11-12T09:10:15Z</time>
      </trkpt>
      <trkpt lat="45.8539" lon="1.23736">
        <ele>302.6</ele>
        <time>2024-11-12T09:10:16Z</time>
      </trkpt>
      <trkpt lat="45.8539" lon="1.23737">
        <ele>302.6</ele>
        <time>2024-11-12T09:10:17Z</time>
      </trkpt>
      <trkpt lat="45.8539" lon="1.23737">
        <ele>302.6</ele>
        <time>2024-11-12T09:10:18Z</time>
      </trkpt>
      <trkpt lat="45.8539" lon="1.23737">
        <ele>302.6</ele>
        <time>2024-11-12T09:10:19Z</time>
      </trkpt>
      <trkpt lat="45.8539" lon="1.23737">
        <ele>302.6</ele>
        <time>2024-11-12T09:10:20Z</time>
      </trkpt>
      <trkpt lat="45.8539" lon="1.23737">
        <ele>302.6</ele>
        <time>2024-11-12T09:10:21Z</time>
      </trkpt>
      <trkpt lat="45.85389" lon="1.23734">
        <ele>302.7</ele>
        <time>2024-11-12T09:10:22Z</time>
      </trkpt>
      <trkpt lat="45.85388" lon="1.23729">
        <ele>302.8</ele>
        <time>2024-11-12T09:10:23Z</time>
      </trkpt>
      <trkpt lat="45.85386" lon="1.23724">
        <ele>302.9</ele>
        <time>2024-11-12T09:10:24Z</time>
      </trkpt>
      <trkpt lat="45.85385" lon="1.23723">
        <ele>302.9</ele>
        <time>2024-11-12T09:10:25Z</time>
      </trkpt>
      <trkpt lat="45.85384" lon="1.23721">
        <ele>302.9</ele>
        <time>2024-11-12T09:10:26Z</time>
      </trkpt>
      <trkpt lat="45.85382" lon="1.2372">
        <ele>302.9</ele>
        <time>2024-11-12T09:10:27Z</time>
      </trkpt>
      <trkpt lat="45.85381" lon="1.23719">
        <ele>302.9</ele>
        <time>2024-11-12T09:10:28Z</time>
      </trkpt>
      <trkpt lat="45.8538" lon="1.23717">
        <ele>302.9</ele>
        <time>2024-11-12T09:10:29Z</time>
      </trkpt>
      <trkpt lat="45.85379" lon="1.23715">
        <ele>302.9</ele>
        <time>2024-11-12T09:10:30Z</time>
      </trkpt>
      <trkpt lat="45.85378" lon="1.23714">
        <ele>302.9</ele>
        <time>2024-11-12T09:10:31Z</time>
      </trkpt>
      <trkpt lat="45.85377" lon="1.23712">
        <ele>302.9</ele>
        <time>2024-11-12T09:10:32Z</time>
      </trkpt>
      <trkpt lat="45.85377" lon="1.23711">
        <ele>302.8</ele>
        <time>2024-11-12T09:10:33Z</time>
      </trkpt>
      <trkpt lat="45.85376" lon="1.2371">
        <ele>302.8</ele>
        <time>2024-11-12T09:10:34Z</time>
      </trkpt>
      <trkpt lat="45.85376" lon="1.23708">
        <ele>302.8</ele>
        <time>2024-11-12T09:10:35Z</time>
      </trkpt>
      <trkpt lat="45.85375" lon="1.23707">
        <ele>302.8</ele>
        <time>2024-11-12T09:10:36Z</time>
      </trkpt>
      <trkpt lat="45.85374" lon="1.23706">
        <ele>302.7</ele>
        <time>2024-11-12T09:10:37Z</time>
      </trkpt>
      <trkpt lat="45.85373" lon="1.23706">
        <ele>302.7</ele>
        <time>2024-11-12T09:10:38Z</time>
      </trkpt>
      <trkpt lat="45.85372" lon="1.23706">
        <ele>302.7</ele>
        <time>2024-11-12T09:10:39Z</time>
      </trkpt>
      <trkpt lat="45.85371" lon="1.23706">
        <ele>302.6</ele>
        <time>2024-11-12T09:10:40Z</time>
      </trkpt>
      <trkpt lat="45.85371" lon="1.23706">
        <ele>302.6</ele>
        <time>2024-11-12T09:10:41Z</time>
      </trkpt>
      <trkpt lat="45.85371" lon="1.23707">
        <ele>302.6</ele>
        <time>2024-11-12T09:10:42Z</time>
      </trkpt>
      <trkpt lat="45.85371" lon="1.23707">
        <ele>302.6</ele>
        <time>2024-11-12T09:10:43Z</time>
      </trkpt>
      <trkpt lat="45.85371" lon="1.23708">
        <ele>302.6</ele>
        <time>2024-11-12T09:10:44Z</time>
      </trkpt>
      <trkpt lat="45.85371" lon="1.23707">
        <ele>302.6</ele>
        <time>2024-11-12T09:10:45Z</time>
      </trkpt>
      <trkpt lat="45.85371" lon="1.23707">
        <ele>302.6</ele>
        <time>2024-11-12T09:10:46Z</time>
      </trkpt>
      <trkpt lat="45.85372" lon="1.23707">
        <ele>302.5</ele>
        <time>2024-11-12T09:10:47Z</time>
      </trkpt>
      <trkpt lat="45.85372" lon="1.23708">
        <ele>302.5</ele>
        <time>2024-11-12T09:10:48Z</time>
      </trkpt>
      <trkpt lat="45.85372" lon="1.23708">
        <ele>302.5</ele>
        <time>2024-11-12T09:10:49Z</time>
      </trkpt>
      <trkpt lat="45.85372" lon="1.23709">
        <ele>302.5</ele>
        <time>2024-11-12T09:10:50Z</time>
      </trkpt>
      <trkpt lat="45.85372" lon="1.23709">
        <ele>302.5</ele>
        <time>2024-11-12T09:10:51Z</time>
      </trkpt>
      <trkpt lat="45.85372" lon="1.2371">
        <ele>302.4</ele>
        <time>2024-11-12T09:10:52Z</time>
      </trkpt>
      <trkpt lat="45.85372" lon="1.2371">
        <ele>302.4</ele>
        <time>2024-11-12T09:10:53Z</time>
      </trkpt>
      <trkpt lat="45.85372" lon="1.2371">
        <ele>302.4</ele>
        <time>2024-11-12T09:10:54Z</time>
      </trkpt>
      <trkpt lat="45.85372" lon="1.23711">
        <ele>302.4</ele>
        <time>2024-11-12T09:10:55Z</time>
      </trkpt>
      <trkpt lat="45.85372" lon="1.23711">
        <ele>302.4</ele>
        <time>2024-11-12T09:10:56Z</time>
      </trkpt>
      <trkpt lat="45.85371" lon="1.23712">
        <ele>302.4</ele>
        <time>2024-11-12T09:10:57Z</time>
      </trkpt>
      <trkpt lat="45.85372" lon="1.23712">
        <ele>302.3</ele>
        <time>2024-11-12T09:10:58Z</time>
      </trkpt>
      <trkpt lat="45.85372" lon="1.23713">
        <ele>302.3</ele>
        <time>2024-11-12T09:10:59Z</time>
      </trkpt>
      <trkpt lat="45.85371" lon="1.23718">
        <ele>302.1</ele>
        <time>2024-11-12T09:11:00Z</time>
      </trkpt>
      <trkpt lat="45.85371" lon="1.23719">
        <ele>302.1</ele>
        <time>2024-11-12T09:11:01Z</time>
      </trkpt>
      <trkpt lat="45.85371" lon="1.23721">
        <ele>302</ele>
        <time>2024-11-12T09:11:02Z</time>
      </trkpt>
      <trkpt lat="45.85371" lon="1.23722">
        <ele>301.9</ele>
        <time>2024-11-12T09:11:03Z</time>
      </trkpt>
      <trkpt lat="45.85371" lon="1.23723">
        <ele>301.9</ele>
        <time>2024-11-12T09:11:04Z</time>
      </trkpt>
      <trkpt lat="45.8537" lon="1.23724">
        <ele>301.9</ele>
        <time>2024-11-12T09:11:05Z</time>
      </trkpt>
      <trkpt lat="45.8537" lon="1.23724">
        <ele>301.9</ele>
        <time>2024-11-12T09:11:06Z</time>
      </trkpt>
      <trkpt lat="45.8537" lon="1.23724">
        <ele>301.8</ele>
        <time>2024-11-12T09:11:07Z</time>
      </trkpt>
      <trkpt lat="45.8537" lon="1.23724">
        <ele>301.8</ele>
        <time>2024-11-12T09:11:08Z</time>
      </trkpt>
      <trkpt lat="45.85371" lon="1.23724">
        <ele>301.8</ele>
        <time>2024-11-12T09:11:09Z</time>
      </trkpt>
      <trkpt lat="45.85371" lon="1.23724">
        <ele>301.8</ele>
        <time>2024-11-12T09:11:10Z</time>
      </trkpt>
      <trkpt lat="45.85371" lon="1.23724">
        <ele>301.8</ele>
        <time>2024-11-12T09:11:11Z</time>
      </trkpt>
      <trkpt lat="45.85371" lon="1.23724">
        <ele>301.8</ele>
        <time>2024-11-12T09:11:12Z</time>
      </trkpt>
      <trkpt lat="45.85371" lon="1.23724">
        <ele>301.8</ele>
        <time>2024-11-12T09:11:13Z</time>
      </trkpt>
      <trkpt lat="45.85371" lon="1.23724">
        <ele>301.8</ele>
        <time>2024-11-12T09:11:14Z</time>
      </trkpt>
      <trkpt lat="45.85371" lon="1.23724">
        <ele>301.8</ele>
        <time>2024-11-12T09:11:15Z</time>
      </trkpt>
      <trkpt lat="45.85371" lon="1.23723">
        <ele>301.8</ele>
        <time>2024-11-12T09:11:16Z</time>
      </trkpt>
      <trkpt lat="45.85371" lon="1.23723">
        <ele>301.8</ele>
        <time>2024-11-12T09:11:17Z</time>
      </trkpt>
      <trkpt lat="45.85373" lon="1.23719">
        <ele>301.5</ele>
        <time>2024-11-12T09:11:18Z</time>
      </trkpt>
      <trkpt lat="45.85375" lon="1.23714">
        <ele>301.2</ele>
        <time>2024-11-12T09:11:19Z</time>
      </trkpt>
      <trkpt lat="45.85374" lon="1.2371">
        <ele>301</ele>
        <time>2024-11-12T09:11:20Z</time>
      </trkpt>
      <trkpt lat="45.85374" lon="1.23707">
        <ele>300.8</ele>
        <time>2024-11-12T09:11:21Z</time>
      </trkpt>
      <trkpt lat="45.85373" lon="1.23705">
        <ele>300.6</ele>
        <time>2024-11-12T09:11:22Z</time>
      </trkpt>
      <trkpt lat="45.85373" lon="1.23702">
        <ele>300.4</ele>
        <time>2024-11-12T09:11:23Z</time>
      </trkpt>
      <trkpt lat="45.85373" lon="1.23702">
        <ele>300.4</ele>
        <time>2024-11-12T09:11:24Z</time>
      </trkpt>
      <trkpt lat="45.85373" lon="1.23701">
        <ele>300.3</ele>
        <time>2024-11-12T09:11:25Z</time>
      </trkpt>
      <trkpt lat="45.85372" lon="1.23696">
        <ele>300</ele>
        <time>2024-11-12T09:11:26Z</time>
      </trkpt>
      <trkpt lat="45.85371" lon="1.23694">
        <ele>299.9</ele>
        <time>2024-11-12T09:11:27Z</time>
      </trkpt>
      <trkpt lat="45.8537" lon="1.23691">
        <ele>299.7</ele>
        <time>2024-11-12T09:11:28Z</time>
      </trkpt>
      <trkpt lat="45.8537" lon="1.2369">
        <ele>299.6</ele>
        <time>2024-11-12T09:11:29Z</time>
      </trkpt>
      <trkpt lat="45.8537" lon="1.23688">
        <ele>299.5</ele>
        <time>2024-11-12T09:11:30Z</time>
      </trkpt>
      <trkpt lat="45.8537" lon="1.23686">
        <ele>299.4</ele>
        <time>2024-11-12T09:11:31Z</time>
      </trkpt>
      <trkpt lat="45.8537" lon="1.23684">
        <ele>299.3</ele>
        <time>2024-11-12T09:11:32Z</time>
      </trkpt>
      <trkpt lat="45.8537" lon="1.23683">
        <ele>299.2</ele>
        <time>2024-11-12T09:11:33Z</time>
      </trkpt>
      <trkpt lat="45.85369" lon="1.23682">
        <ele>299.2</ele>
        <time>2024-11-12T09:11:34Z</time>
      </trkpt>
      <trkpt lat="45.85369" lon="1.2368">
        <ele>299.1</ele>
        <time>2024-11-12T09:11:35Z</time>
      </trkpt>
      <trkpt lat="45.85368" lon="1.23679">
        <ele>299</ele>
        <time>2024-11-12T09:11:36Z</time>
      </trkpt>
      <trkpt lat="45.85368" lon="1.23677">
        <ele>298.8</ele>
        <time>2024-11-12T09:11:37Z</time>
      </trkpt>
      <trkpt lat="45.85367" lon="1.23676">
        <ele>298.8</ele>
        <time>2024-11-12T09:11:38Z</time>
      </trkpt>
      <trkpt lat="45.85367" lon="1.23675">
        <ele>298.7</ele>
        <time>2024-11-12T09:11:39Z</time>
      </trkpt>
      <trkpt lat="45.85365" lon="1.23672">
        <ele>298.5</ele>
        <time>2024-11-12T09:11:40Z</time>
      </trkpt>
      <trkpt lat="45.85365" lon="1.2367">
        <ele>298.5</ele>
        <time>2024-11-12T09:11:41Z</time>
      </trkpt>
      <trkpt lat="45.85364" lon="1.23669">
        <ele>298.4</ele>
        <time>2024-11-12T09:11:42Z</time>
      </trkpt>
      <trkpt lat="45.85363" lon="1.23667">
        <ele>298.3</ele>
        <time>2024-11-12T09:11:43Z</time>
      </trkpt>
      <trkpt lat="45.85362" lon="1.23666">
        <ele>298.2</ele>
        <time>2024-11-12T09:11:44Z</time>
      </trkpt>
      <trkpt lat="45.85361" lon="1.23665">
        <ele>298.2</ele>
        <time>2024-11-12T09:11:45Z</time>
      </trkpt>
      <trkpt lat="45.85361" lon="1.23664">
        <ele>298.1</ele>
        <time>2024-11-12T09:11:46Z</time>
      </trkpt>
      <trkpt lat="45.8536" lon="1.23661">
        <ele>298</ele>
        <time>2024-11-12T09:11:47Z</time>
      </trkpt>
      <trkpt lat="45.85359" lon="1.2366">
        <ele>297.9</ele>
        <time>2024-11-12T09:11:48Z</time>
      </trkpt>
      <trkpt lat="45.85359" lon="1.23658">
        <ele>297.8</ele>
        <time>2024-11-12T09:11:49Z</time>
      </trkpt>
      <trkpt lat="45.85359" lon="1.23656">
        <ele>297.8</ele>
        <time>2024-11-12T09:11:50Z</time>
      </trkpt>
      <trkpt lat="45.85359" lon="1.23654">
        <ele>297.7</ele>
        <time>2024-11-12T09:11:51Z</time>
      </trkpt>
      <trkpt lat="45.85358" lon="1.23652">
        <ele>297.6</ele>
        <time>2024-11-12T09:11:52Z</time>
      </trkpt>
      <trkpt lat="45.85357" lon="1.23649">
        <ele>297.5</ele>
        <time>2024-11-12T09:11:53Z</time>
      </trkpt>
      <trkpt lat="45.85357" lon="1.23648">
        <ele>297.5</ele>
        <time>2024-11-12T09:11:54Z</time>
      </trkpt>
      <trkpt lat="45.85356" lon="1.23647">
        <ele>297.4</ele>
        <time>2024-11-12T09:11:55Z</time>
      </trkpt>
      <trkpt lat="45.85355" lon="1.23646">
        <ele>297.4</ele>
        <time>2024-11-12T09:11:56Z</time>
      </trkpt>
      <trkpt lat="45.85354" lon="1.23644">
        <ele>297.3</ele>
        <time>2024-11-12T09:11:57Z</time>
      </trkpt>
      <trkpt lat="45.85353" lon="1.23643">
        <ele>297.3</ele>
        <time>2024-11-12T09:11:58Z</time>
      </trkpt>
      <trkpt lat="45.85352" lon="1.23641">
        <ele>297.2</ele>
        <time>2024-11-12T09:11:59Z</time>
      </trkpt>
      <trkpt lat="45.85351" lon="1.2364">
        <ele>297.1</ele>
        <time>2024-11-12T09:12:00Z</time>
      </trkpt>
      <trkpt lat="45.8535" lon="1.23638">
        <ele>297.1</ele>
        <time>2024-11-12T09:12:01Z</time>
      </trkpt>
      <trkpt lat="45.85349" lon="1.23636">
        <ele>297</ele>
        <time>2024-11-12T09:12:02Z</time>
      </trkpt>
      <trkpt lat="45.85349" lon="1.23635">
        <ele>296.9</ele>
        <time>2024-11-12T09:12:03Z</time>
      </trkpt>
      <trkpt lat="45.85348" lon="1.23633">
        <ele>296.9</ele>
        <time>2024-11-12T09:12:04Z</time>
      </trkpt>
      <trkpt lat="45.85347" lon="1.23631">
        <ele>296.8</ele>
        <time>2024-11-12T09:12:05Z</time>
      </trkpt>
      <trkpt lat="45.85347" lon="1.23629">
        <ele>296.8</ele>
        <time>2024-11-12T09:12:06Z</time>
      </trkpt>
      <trkpt lat="45.85346" lon="1.23628">
        <ele>296.7</ele>
        <time>2024-11-12T09:12:07Z</time>
      </trkpt>
      <trkpt lat="45.85345" lon="1.23626">
        <ele>296.7</ele>
        <time>2024-11-12T09:12:08Z</time>
      </trkpt>
      <trkpt lat="45.85344" lon="1.23624">
        <ele>296.7</ele>
        <time>2024-11-12T09:12:09Z</time>
      </trkpt>
      <trkpt lat="45.85343" lon="1.23622">
        <ele>296.6</ele>
        <time>2024-11-12T09:12:10Z</time>
      </trkpt>
      <trkpt lat="45.85343" lon="1.2362">
        <ele>296.6</ele>
        <time>2024-11-12T09:12:11Z</time>
      </trkpt>
      <trkpt lat="45.85342" lon="1.23618">
        <ele>296.6</ele>
        <time>2024-11-12T09:12:12Z</time>
      </trkpt>
      <trkpt lat="45.85341" lon="1.23616">
        <ele>296.5</ele>
        <time>2024-11-12T09:12:13Z</time>
      </trkpt>
      <trkpt lat="45.85341" lon="1.23614">
        <ele>296.5</ele>
        <time>2024-11-12T09:12:14Z</time>
      </trkpt>
      <trkpt lat="45.8534" lon="1.23612">
        <ele>296.4</ele>
        <time>2024-11-12T09:12:15Z</time>
      </trkpt>
      <trkpt lat="45.85339" lon="1.2361">
        <ele>296.4</ele>
        <time>2024-11-12T09:12:16Z</time>
      </trkpt>
      <trkpt lat="45.85339" lon="1.23609">
        <ele>296.4</ele>
        <time>2024-11-12T09:12:17Z</time>
      </trkpt>
      <trkpt lat="45.85338" lon="1.23608">
        <ele>296.4</ele>
        <time>2024-11-12T09:12:18Z</time>
      </trkpt>
      <trkpt lat="45.85338" lon="1.23607">
        <ele>296.3</ele>
        <time>2024-11-12T09:12:19Z</time>
      </trkpt>
      <trkpt lat="45.85337" lon="1.23605">
        <ele>296.3</ele>
        <time>2024-11-12T09:12:20Z</time>
      </trkpt>
      <trkpt lat="45.85336" lon="1.23603">
        <ele>296.3</ele>
        <time>2024-11-12T09:12:21Z</time>
      </trkpt>
      <trkpt lat="45.85335" lon="1.23602">
        <ele>296.2</ele>
        <time>2024-11-12T09:12:22Z</time>
      </trkpt>
      <trkpt lat="45.85335" lon="1.236">
        <ele>296.2</ele>
        <time>2024-11-12T09:12:23Z</time>
      </trkpt>
      <trkpt lat="45.85334" lon="1.23598">
        <ele>296.2</ele>
        <time>2024-11-12T09:12:24Z</time>
      </trkpt>
      <trkpt lat="45.85333" lon="1.23596">
        <ele>296.1</ele>
        <time>2024-11-12T09:12:25Z</time>
      </trkpt>
      <trkpt lat="45.85332" lon="1.23595">
        <ele>296.1</ele>
        <time>2024-11-12T09:12:26Z</time>
      </trkpt>
      <trkpt lat="45.85331" lon="1.23593">
        <ele>296.1</ele>
        <time>2024-11-12T09:12:27Z</time>
      </trkpt>
      <trkpt lat="45.8533" lon="1.23591">
        <ele>296</ele>
        <time>2024-11-12T09:12:28Z</time>
      </trkpt>
      <trkpt lat="45.8533" lon="1.23589">
        <ele>296</ele>
        <time>2024-11-12T09:12:29Z</time>
      </trkpt>
      <trkpt lat="45.85329" lon="1.23588">
        <ele>296</ele>
        <time>2024-11-12T09:12:30Z</time>
      </trkpt>
      <trkpt lat="45.85328" lon="1.23586">
        <ele>296</ele>
        <time>2024-11-12T09:12:31Z</time>
      </trkpt>
      <trkpt lat="45.85327" lon="1.23584">
        <ele>295.9</ele>
        <time>2024-11-12T09:12:32Z</time>
      </trkpt>
      <trkpt lat="45.85326" lon="1.23583">
        <ele>295.9</ele>
        <time>2024-11-12T09:12:33Z</time>
      </trkpt>
      <trkpt lat="45.85325" lon="1.23581">
        <ele>295.9</ele>
        <time>2024-11-12T09:12:34Z</time>
      </trkpt>
      <trkpt lat="45.85324" lon="1.2358">
        <ele>295.8</ele>
        <time>2024-11-12T09:12:35Z</time>
      </trkpt>
      <trkpt lat="45.85323" lon="1.23578">
        <ele>295.8</ele>
        <time>2024-11-12T09:12:36Z</time>
      </trkpt>
      <trkpt lat="45.85322" lon="1.23576">
        <ele>295.8</ele>
        <time>2024-11-12T09:12:37Z</time>
      </trkpt>
      <trkpt lat="45.85321" lon="1.23575">
        <ele>295.8</ele>
        <time>2024-11-12T09:12:38Z</time>
      </trkpt>
      <trkpt lat="45.8532" lon="1.23573">
        <ele>295.8</ele>
        <time>2024-11-12T09:12:39Z</time>
      </trkpt>
      <trkpt lat="45.85319" lon="1.23571">
        <ele>295.7</ele>
        <time>2024-11-12T09:12:40Z</time>
      </trkpt>
      <trkpt lat="45.85319" lon="1.2357">
        <ele>295.7</ele>
        <time>2024-11-12T09:12:41Z</time>
      </trkpt>
      <trkpt lat="45.85318" lon="1.23569">
        <ele>295.7</ele>
        <time>2024-11-12T09:12:42Z</time>
      </trkpt>
      <trkpt lat="45.85317" lon="1.23566">
        <ele>295.7</ele>
        <time>2024-11-12T09:12:43Z</time>
      </trkpt>
      <trkpt lat="45.85316" lon="1.23566">
        <ele>295.7</ele>
        <time>2024-11-12T09:12:44Z</time>
      </trkpt>
      <trkpt lat="45.85316" lon="1.23565">
        <ele>295.7</ele>
        <time>2024-11-12T09:12:45Z</time>
      </trkpt>
      <trkpt lat="45.85315" lon="1.23562">
        <ele>295.7</ele>
        <time>2024-11-12T09:12:46Z</time>
      </trkpt>
      <trkpt lat="45.85314" lon="1.23561">
        <ele>295.7</ele>
        <time>2024-11-12T09:12:47Z</time>
      </trkpt>
      <trkpt lat="45.85314" lon="1.2356">
        <ele>295.7</ele>
        <time>2024-11-12T09:12:48Z</time>
      </trkpt>
      <trkpt lat="45.85313" lon="1.23557">
        <ele>295.6</ele>
        <time>2024-11-12T09:12:49Z</time>
      </trkpt>
      <trkpt lat="45.85312" lon="1.23556">
        <ele>295.6</ele>
        <time>2024-11-12T09:12:50Z</time>
      </trkpt>
      <trkpt lat="45.85312" lon="1.23555">
        <ele>295.6</ele>
        <time>2024-11-12T09:12:51Z</time>
      </trkpt>
      <trkpt lat="45.85311" lon="1.23553">
        <ele>295.6</ele>
        <time>2024-11-12T09:12:52Z</time>
      </trkpt>
      <trkpt lat="45.85311" lon="1.23551">
        <ele>295.6</ele>
        <time>2024-11-12T09:12:53Z</time>
      </trkpt>
      <trkpt lat="45.8531" lon="1.23548">
        <ele>295.6</ele>
        <time>2024-11-12T09:12:54Z</time>
      </trkpt>
      <trkpt lat="45.8531" lon="1.23546">
        <ele>295.6</ele>
        <time>2024-11-12T09:12:55Z</time>
      </trkpt>
      <trkpt lat="45.85309" lon="1.23545">
        <ele>295.6</ele>
        <time>2024-11-12T09:12:56Z</time>
      </trkpt>
      <trkpt lat="45.85309" lon="1.23543">
        <ele>295.5</ele>
        <time>2024-11-12T09:12:57Z</time>
      </trkpt>
      <trkpt lat="45.85309" lon="1.23541">
        <ele>295.5</ele>
        <time>2024-11-12T09:12:58Z</time>
      </trkpt>
      <trkpt lat="45.85308" lon="1.23539">
        <ele>295.5</ele>
        <time>2024-11-12T09:12:59Z</time>
      </trkpt>
      <trkpt lat="45.85308" lon="1.23538">
        <ele>295.5</ele>
        <time>2024-11-12T09:13:00Z</time>
      </trkpt>
      <trkpt lat="45.85307" lon="1.23535">
        <ele>295.5</ele>
        <time>2024-11-12T09:13:01Z</time>
      </trkpt>
      <trkpt lat="45.85307" lon="1.23534">
        <ele>295.5</ele>
        <time>2024-11-12T09:13:02Z</time>
      </trkpt>
      <trkpt lat="45.85306" lon="1.23531">
        <ele>295.5</ele>
        <time>2024-11-12T09:13:03Z</time>
      </trkpt>
      <trkpt lat="45.85305" lon="1.2353">
        <ele>295.4</ele>
        <time>2024-11-12T09:13:04Z</time>
      </trkpt>
      <trkpt lat="45.85305" lon="1.23528">
        <ele>295.4</ele>
        <time>2024-11-12T09:13:05Z</time>
      </trkpt>
      <trkpt lat="45.85304" lon="1.23526">
        <ele>295.4</ele>
        <time>2024-11-12T09:13:06Z</time>
      </trkpt>
      <trkpt lat="45.85304" lon="1.23524">
        <ele>295.4</ele>
        <time>2024-11-12T09:13:07Z</time>
      </trkpt>
      <trkpt lat="45.85303" lon="1.23522">
        <ele>295.4</ele>
        <time>2024-11-12T09:13:08Z</time>
      </trkpt>
      <trkpt lat="45.85302" lon="1.23519">
        <ele>295.3</ele>
        <time>2024-11-12T09:13:09Z</time>
      </trkpt>
      <trkpt lat="45.85302" lon="1.23518">
        <ele>295.3</ele>
        <time>2024-11-12T09:13:10Z</time>
      </trkpt>
      <trkpt lat="45.85301" lon="1.23517">
        <ele>295.3</ele>
        <time>2024-11-12T09:13:11Z</time>
      </trkpt>
      <trkpt lat="45.853" lon="1.23516">
        <ele>295.3</ele>
        <time>2024-11-12T09:13:12Z</time>
      </trkpt>
      <trkpt lat="45.85299" lon="1.23514">
        <ele>295.2</ele>
        <time>2024-11-12T09:13:13Z</time>
      </trkpt>
      <trkpt lat="45.85299" lon="1.23512">
        <ele>295.2</ele>
        <time>2024-11-12T09:13:14Z</time>
      </trkpt>
      <trkpt lat="45.85298" lon="1.23511">
        <ele>295.2</ele>
        <time>2024-11-12T09:13:15Z</time>
      </trkpt>
      <trkpt lat="45.85297" lon="1.2351">
        <ele>295.1</ele>
        <time>2024-11-12T09:13:16Z</time>
      </trkpt>
      <trkpt lat="45.85296" lon="1.23507">
        <ele>295.1</ele>
        <time>2024-11-12T09:13:17Z</time>
      </trkpt>
      <trkpt lat="45.85296" lon="1.23506">
        <ele>295</ele>
        <time>2024-11-12T09:13:18Z</time>
      </trkpt>
      <trkpt lat="45.85295" lon="1.23505">
        <ele>295</ele>
        <time>2024-11-12T09:13:19Z</time>
      </trkpt>
      <trkpt lat="45.85294" lon="1.23502">
        <ele>294.9</ele>
        <time>2024-11-12T09:13:20Z</time>
      </trkpt>
      <trkpt lat="45.85294" lon="1.23501">
        <ele>294.9</ele>
        <time>2024-11-12T09:13:21Z</time>
      </trkpt>
      <trkpt lat="45.85293" lon="1.235">
        <ele>294.9</ele>
        <time>2024-11-12T09:13:22Z</time>
      </trkpt>
      <trkpt lat="45.85293" lon="1.23498">
        <ele>294.8</ele>
        <time>2024-11-12T09:13:23Z</time>
      </trkpt>
      <trkpt lat="45.85292" lon="1.23497">
        <ele>294.8</ele>
        <time>2024-11-12T09:13:24Z</time>
      </trkpt>
      <trkpt lat="45.85292" lon="1.23496">
        <ele>294.7</ele>
        <time>2024-11-12T09:13:25Z</time>
      </trkpt>
      <trkpt lat="45.85291" lon="1.23493">
        <ele>294.6</ele>
        <time>2024-11-12T09:13:26Z</time>
      </trkpt>
      <trkpt lat="45.85291" lon="1.23492">
        <ele>294.6</ele>
        <time>2024-11-12T09:13:27Z</time>
      </trkpt>
      <trkpt lat="45.8529" lon="1.2349">
        <ele>294.5</ele>
        <time>2024-11-12T09:13:28Z</time>
      </trkpt>
      <trkpt lat="45.8529" lon="1.23489">
        <ele>294.5</ele>
        <time>2024-11-12T09:13:29Z</time>
      </trkpt>
      <trkpt lat="45.85289" lon="1.23488">
        <ele>294.4</ele>
        <time>2024-11-12T09:13:30Z</time>
      </trkpt>
      <trkpt lat="45.85289" lon="1.23487">
        <ele>294.4</ele>
        <time>2024-11-12T09:13:31Z</time>
      </trkpt>
      <trkpt lat="45.85288" lon="1.23485">
        <ele>294.3</ele>
        <time>2024-11-12T09:13:32Z</time>
      </trkpt>
      <trkpt lat="45.85287" lon="1.23484">
        <ele>294.3</ele>
        <time>2024-11-12T09:13:33Z</time>
      </trkpt>
      <trkpt lat="45.85286" lon="1.23483">
        <ele>294.2</ele>
        <time>2024-11-12T09:13:34Z</time>
      </trkpt>
      <trkpt lat="45.85285" lon="1.23481">
        <ele>294.1</ele>
        <time>2024-11-12T09:13:35Z</time>
      </trkpt>
      <trkpt lat="45.85284" lon="1.2348">
        <ele>294.1</ele>
        <time>2024-11-12T09:13:36Z</time>
      </trkpt>
      <trkpt lat="45.85283" lon="1.2348">
        <ele>294</ele>
        <time>2024-11-12T09:13:37Z</time>
      </trkpt>
      <trkpt lat="45.85281" lon="1.23479">
        <ele>293.9</ele>
        <time>2024-11-12T09:13:38Z</time>
      </trkpt>
      <trkpt lat="45.8528" lon="1.23479">
        <ele>293.9</ele>
        <time>2024-11-12T09:13:39Z</time>
      </trkpt>
      <trkpt lat="45.85279" lon="1.23479">
        <ele>293.8</ele>
        <time>2024-11-12T09:13:40Z</time>
      </trkpt>
      <trkpt lat="45.85278" lon="1.23479">
        <ele>293.8</ele>
        <time>2024-11-12T09:13:41Z</time>
      </trkpt>
      <trkpt lat="45.85276" lon="1.23479">
        <ele>293.7</ele>
        <time>2024-11-12T09:13:42Z</time>
      </trkpt>
      <trkpt lat="45.85274" lon="1.23479">
        <ele>293.6</ele>
        <time>2024-11-12T09:13:43Z</time>
      </trkpt>
      <trkpt lat="45.85273" lon="1.23479">
        <ele>293.5</ele>
        <time>2024-11-12T09:13:44Z</time>
      </trkpt>
      <trkpt lat="45.85273" lon="1.23479">
        <ele>293.5</ele>
        <time>2024-11-12T09:13:45Z</time>
      </trkpt>
      <trkpt lat="45.85271" lon="1.23479">
        <ele>293.4</ele>
        <time>2024-11-12T09:13:46Z</time>
      </trkpt>
      <trkpt lat="45.8527" lon="1.23479">
        <ele>293.3</ele>
        <time>2024-11-12T09:13:47Z</time>
      </trkpt>
      <trkpt lat="45.85269" lon="1.23479">
        <ele>293.3</ele>
        <time>2024-11-12T09:13:48Z</time>
      </trkpt>
      <trkpt lat="45.85268" lon="1.23479">
        <ele>293.3</ele>
        <time>2024-11-12T09:13:49Z</time>
      </trkpt>
      <trkpt lat="45.85267" lon="1.23479">
        <ele>293.2</ele>
        <time>2024-11-12T09:13:50Z</time>
      </trkpt>
      <trkpt lat="45.85265" lon="1.23479">
        <ele>293.1</ele>
        <time>2024-11-12T09:13:51Z</time>
      </trkpt>
      <trkpt lat="45.85264" lon="1.23479">
        <ele>293.1</ele>
        <time>2024-11-12T09:13:52Z</time>
      </trkpt>
      <trkpt lat="45.85263" lon="1.23479">
        <ele>293</ele>
        <time>2024-11-12T09:13:53Z</time>
      </trkpt>
      <trkpt lat="45.85262" lon="1.23479">
        <ele>293</ele>
        <time>2024-11-12T09:13:54Z</time>
      </trkpt>
      <trkpt lat="45.85261" lon="1.23479">
        <ele>292.9</ele>
        <time>2024-11-12T09:13:55Z</time>
      </trkpt>
      <trkpt lat="45.85259" lon="1.23479">
        <ele>292.9</ele>
        <time>2024-11-12T09:13:56Z</time>
      </trkpt>
      <trkpt lat="45.85258" lon="1.23479">
        <ele>292.8</ele>
        <time>2024-11-12T09:13:57Z</time>
      </trkpt>
      <trkpt lat="45.85257" lon="1.23478">
        <ele>292.7</ele>
        <time>2024-11-12T09:13:58Z</time>
      </trkpt>
      <trkpt lat="45.85255" lon="1.23479">
        <ele>292.6</ele>
        <time>2024-11-12T09:13:59Z</time>
      </trkpt>
      <trkpt lat="45.85254" lon="1.23479">
        <ele>292.6</ele>
        <time>2024-11-12T09:14:00Z</time>
      </trkpt>
      <trkpt lat="45.85253" lon="1.23479">
        <ele>292.5</ele>
        <time>2024-11-12T09:14:01Z</time>
      </trkpt>
      <trkpt lat="45.85252" lon="1.2348">
        <ele>292.5</ele>
        <time>2024-11-12T09:14:02Z</time>
      </trkpt>
      <trkpt lat="45.8525" lon="1.2348">
        <ele>292.4</ele>
        <time>2024-11-12T09:14:03Z</time>
      </trkpt>
      <trkpt lat="45.85249" lon="1.23481">
        <ele>292.3</ele>
        <time>2024-11-12T09:14:04Z</time>
      </trkpt>
      <trkpt lat="45.85248" lon="1.23481">
        <ele>292.3</ele>
        <time>2024-11-12T09:14:05Z</time>
      </trkpt>
      <trkpt lat="45.85247" lon="1.23482">
        <ele>292.2</ele>
        <time>2024-11-12T09:14:06Z</time>
      </trkpt>
      <trkpt lat="45.85244" lon="1.23483">
        <ele>292.1</ele>
        <time>2024-11-12T09:14:07Z</time>
      </trkpt>
      <trkpt lat="45.85244" lon="1.23484">
        <ele>292.1</ele>
        <time>2024-11-12T09:14:08Z</time>
      </trkpt>
      <trkpt lat="45.85243" lon="1.23484">
        <ele>292</ele>
        <time>2024-11-12T09:14:09Z</time>
      </trkpt>
      <trkpt lat="45.85242" lon="1.23485">
        <ele>292</ele>
        <time>2024-11-12T09:14:10Z</time>
      </trkpt>
      <trkpt lat="45.8524" lon="1.23486">
        <ele>291.9</ele>
        <time>2024-11-12T09:14:11Z</time>
      </trkpt>
      <trkpt lat="45.85239" lon="1.23486">
        <ele>291.8</ele>
        <time>2024-11-12T09:14:12Z</time>
      </trkpt>
      <trkpt lat="45.85237" lon="1.23487">
        <ele>291.7</ele>
        <time>2024-11-12T09:14:13Z</time>
      </trkpt>
      <trkpt lat="45.85236" lon="1.23487">
        <ele>291.7</ele>
        <time>2024-11-12T09:14:14Z</time>
      </trkpt>
      <trkpt lat="45.85235" lon="1.23487">
        <ele>291.6</ele>
        <time>2024-11-12T09:14:15Z</time>
      </trkpt>
      <trkpt lat="45.85233" lon="1.23487">
        <ele>291.5</ele>
        <time>2024-11-12T09:14:16Z</time>
      </trkpt>
      <trkpt lat="45.85232" lon="1.23487">
        <ele>291.5</ele>
        <time>2024-11-12T09:14:17Z</time>
      </trkpt>
      <trkpt lat="45.8523" lon="1.23487">
        <ele>291.3</ele>
        <time>2024-11-12T09:14:18Z</time>
      </trkpt>
      <trkpt lat="45.85229" lon="1.23487">
        <ele>291.3</ele>
        <time>2024-11-12T09:14:19Z</time>
      </trkpt>
      <trkpt lat="45.85228" lon="1.23487">
        <ele>291.2</ele>
        <time>2024-11-12T09:14:20Z</time>
      </trkpt>
      <trkpt lat="45.85227" lon="1.23488">
        <ele>291.2</ele>
        <time>2024-11-12T09:14:21Z</time>
      </trkpt>
      <trkpt lat="45.85225" lon="1.23488">
        <ele>291.1</ele>
        <time>2024-11-12T09:14:22Z</time>
      </trkpt>
      <trkpt lat="45.85224" lon="1.23488">
        <ele>291</ele>
        <time>2024-11-12T09:14:23Z</time>
      </trkpt>
      <trkpt lat="45.85222" lon="1.23488">
        <ele>290.9</ele>
        <time>2024-11-12T09:14:24Z</time>
      </trkpt>
      <trkpt lat="45.85221" lon="1.23488">
        <ele>290.8</ele>
        <time>2024-11-12T09:14:25Z</time>
      </trkpt>
      <trkpt lat="45.8522" lon="1.23488">
        <ele>290.7</ele>
        <time>2024-11-12T09:14:26Z</time>
      </trkpt>
      <trkpt lat="45.85219" lon="1.23488">
        <ele>290.7</ele>
        <time>2024-11-12T09:14:27Z</time>
      </trkpt>
      <trkpt lat="45.85217" lon="1.23488">
        <ele>290.6</ele>
        <time>2024-11-12T09:14:28Z</time>
      </trkpt>
      <trkpt lat="45.85216" lon="1.23488">
        <ele>290.5</ele>
        <time>2024-11-12T09:14:29Z</time>
      </trkpt>
      <trkpt lat="45.85215" lon="1.23488">
        <ele>290.4</ele>
        <time>2024-11-12T09:14:30Z</time>
      </trkpt>
      <trkpt lat="45.85214" lon="1.23488">
        <ele>290.3</ele>
        <time>2024-11-12T09:14:31Z</time>
      </trkpt>
      <trkpt lat="45.85213" lon="1.23488">
        <ele>290.2</ele>
        <time>2024-11-12T09:14:32Z</time>
      </trkpt>
      <trkpt lat="45.85211" lon="1.23489">
        <ele>290.1</ele>
        <time>2024-11-12T09:14:33Z</time>
      </trkpt>
      <trkpt lat="45.8521" lon="1.23489">
        <ele>290.1</ele>
        <time>2024-11-12T09:14:34Z</time>
      </trkpt>
      <trkpt lat="45.85209" lon="1.23489">
        <ele>290</ele>
        <time>2024-11-12T09:14:35Z</time>
      </trkpt>
      <trkpt lat="45.85208" lon="1.23489">
        <ele>289.9</ele>
        <time>2024-11-12T09:14:36Z</time>
      </trkpt>
      <trkpt lat="45.85206" lon="1.23489">
        <ele>289.8</ele>
        <time>2024-11-12T09:14:37Z</time>
      </trkpt>
      <trkpt lat="45.85204" lon="1.2349">
        <ele>289.7</ele>
        <time>2024-11-12T09:14:38Z</time>
      </trkpt>
      <trkpt lat="45.85204" lon="1.2349">
        <ele>289.6</ele>
        <time>2024-11-12T09:14:39Z</time>
      </trkpt>
      <trkpt lat="45.85203" lon="1.23491">
        <ele>289.5</ele>
        <time>2024-11-12T09:14:40Z</time>
      </trkpt>
      <trkpt lat="45.85201" lon="1.23491">
        <ele>289.4</ele>
        <time>2024-11-12T09:14:41Z</time>
      </trkpt>
      <trkpt lat="45.85199" lon="1.23492">
        <ele>289.3</ele>
        <time>2024-11-12T09:14:42Z</time>
      </trkpt>
      <trkpt lat="45.85199" lon="1.23493">
        <ele>289.2</ele>
        <time>2024-11-12T09:14:43Z</time>
      </trkpt>
      <trkpt lat="45.85198" lon="1.23493">
        <ele>289.2</ele>
        <time>2024-11-12T09:14:44Z</time>
      </trkpt>
      <trkpt lat="45.85197" lon="1.23493">
        <ele>289.1</ele>
        <time>2024-11-12T09:14:45Z</time>
      </trkpt>
      <trkpt lat="45.85195" lon="1.23493">
        <ele>289</ele>
        <time>2024-11-12T09:14:46Z</time>
      </trkpt>
      <trkpt lat="45.85194" lon="1.23493">
        <ele>289</ele>
        <time>2024-11-12T09:14:47Z</time>
      </trkpt>
      <trkpt lat="45.85193" lon="1.23494">
        <ele>288.9</ele>
        <time>2024-11-12T09:14:48Z</time>
      </trkpt>
      <trkpt lat="45.85192" lon="1.23494">
        <ele>288.8</ele>
        <time>2024-11-12T09:14:49Z</time>
      </trkpt>
      <trkpt lat="45.85191" lon="1.23495">
        <ele>288.8</ele>
        <time>2024-11-12T09:14:50Z</time>
      </trkpt>
      <trkpt lat="45.85189" lon="1.23496">
        <ele>288.7</ele>
        <time>2024-11-12T09:14:51Z</time>
      </trkpt>
      <trkpt lat="45.85188" lon="1.23497">
        <ele>288.6</ele>
        <time>2024-11-12T09:14:52Z</time>
      </trkpt>
      <trkpt lat="45.85188" lon="1.23497">
        <ele>288.6</ele>
        <time>2024-11-12T09:14:53Z</time>
      </trkpt>
      <trkpt lat="45.85187" lon="1.23498">
        <ele>288.5</ele>
        <time>2024-11-12T09:14:54Z</time>
      </trkpt>
      <trkpt lat="45.85185" lon="1.23499">
        <ele>288.4</ele>
        <time>2024-11-12T09:14:55Z</time>
      </trkpt>
      <trkpt lat="45.85184" lon="1.23499">
        <ele>288.4</ele>
        <time>2024-11-12T09:14:56Z</time>
      </trkpt>
      <trkpt lat="45.85183" lon="1.235">
        <ele>288.3</ele>
        <time>2024-11-12T09:14:57Z</time>
      </trkpt>
      <trkpt lat="45.85181" lon="1.23501">
        <ele>288.2</ele>
        <time>2024-11-12T09:14:58Z</time>
      </trkpt>
      <trkpt lat="45.85181" lon="1.23501">
        <ele>288.2</ele>
        <time>2024-11-12T09:14:59Z</time>
      </trkpt>
      <trkpt lat="45.8518" lon="1.23502">
        <ele>288.2</ele>
        <time>2024-11-12T09:15:00Z</time>
      </trkpt>
      <trkpt lat="45.85179" lon="1.23503">
        <ele>288.1</ele>
        <time>2024-11-12T09:15:01Z</time>
      </trkpt>
      <trkpt lat="45.85178" lon="1.23503">
        <ele>288.1</ele>
        <time>2024-11-12T09:15:02Z</time>
      </trkpt>
      <trkpt lat="45.85176" lon="1.23504">
        <ele>288</ele>
        <time>2024-11-12T09:15:03Z</time>
      </trkpt>
      <trkpt lat="45.85176" lon="1.23505">
        <ele>287.9</ele>
        <time>2024-11-12T09:15:04Z</time>
      </trkpt>
      <trkpt lat="45.85175" lon="1.23505">
        <ele>287.9</ele>
        <time>2024-11-12T09:15:05Z</time>
      </trkpt>
      <trkpt lat="45.85174" lon="1.23506">
        <ele>287.8</ele>
        <time>2024-11-12T09:15:06Z</time>
      </trkpt>
      <trkpt lat="45.85173" lon="1.23507">
        <ele>287.8</ele>
        <time>2024-11-12T09:15:07Z</time>
      </trkpt>
      <trkpt lat="45.85172" lon="1.23509">
        <ele>287.7</ele>
        <time>2024-11-12T09:15:08Z</time>
      </trkpt>
      <trkpt lat="45.85171" lon="1.23509">
        <ele>287.7</ele>
        <time>2024-11-12T09:15:09Z</time>
      </trkpt>
      <trkpt lat="45.8517" lon="1.2351">
        <ele>287.6</ele>
        <time>2024-11-12T09:15:10Z</time>
      </trkpt>
      <trkpt lat="45.85169" lon="1.23512">
        <ele>287.5</ele>
        <time>2024-11-12T09:15:11Z</time>
      </trkpt>
      <trkpt lat="45.85168" lon="1.23512">
        <ele>287.5</ele>
        <time>2024-11-12T09:15:12Z</time>
      </trkpt>
      <trkpt lat="45.85167" lon="1.23513">
        <ele>287.5</ele>
        <time>2024-11-12T09:15:13Z</time>
      </trkpt>
      <trkpt lat="45.85166" lon="1.23514">
        <ele>287.4</ele>
        <time>2024-11-12T09:15:14Z</time>
      </trkpt>
      <trkpt lat="45.85165" lon="1.23515">
        <ele>287.4</ele>
        <time>2024-11-12T09:15:15Z</time>
      </trkpt>
      <trkpt lat="45.85164" lon="1.23515">
        <ele>287.3</ele>
        <time>2024-11-12T09:15:16Z</time>
      </trkpt>
      <trkpt lat="45.85163" lon="1.23517">
        <ele>287.2</ele>
        <time>2024-11-12T09:15:17Z</time>
      </trkpt>
      <trkpt lat="45.85162" lon="1.23518">
        <ele>287.2</ele>
        <time>2024-11-12T09:15:18Z</time>
      </trkpt>
      <trkpt lat="45.85161" lon="1.23518">
        <ele>287.1</ele>
        <time>2024-11-12T09:15:19Z</time>
      </trkpt>
      <trkpt lat="45.8516" lon="1.23519">
        <ele>287.1</ele>
        <time>2024-11-12T09:15:20Z</time>
      </trkpt>
      <trkpt lat="45.8516" lon="1.23521">
        <ele>287</ele>
        <time>2024-11-12T09:15:21Z</time>
      </trkpt>
      <trkpt lat="45.85159" lon="1.23522">
        <ele>287</ele>
        <time>2024-11-12T09:15:22Z</time>
      </trkpt>
      <trkpt lat="45.85158" lon="1.23524">
        <ele>286.9</ele>
        <time>2024-11-12T09:15:23Z</time>
      </trkpt>
      <trkpt lat="45.85157" lon="1.23525">
        <ele>286.9</ele>
        <time>2024-11-12T09:15:24Z</time>
      </trkpt>
      <trkpt lat="45.85158" lon="1.23525">
        <ele>286.9</ele>
        <time>2024-11-12T09:15:25Z</time>
      </trkpt>
      <trkpt lat="45.85158" lon="1.23525">
        <ele>286.9</ele>
        <time>2024-11-12T09:15:26Z</time>
      </trkpt>
      <trkpt lat="45.85158" lon="1.23524">
        <ele>286.8</ele>
        <time>2024-11-12T09:15:27Z</time>
      </trkpt>
      <trkpt lat="45.85159" lon="1.23524">
        <ele>286.8</ele>
        <time>2024-11-12T09:15:28Z</time>
      </trkpt>
      <trkpt lat="45.85159" lon="1.23524">
        <ele>286.8</ele>
        <time>2024-11-12T09:15:29Z</time>
      </trkpt>
      <trkpt lat="45.85159" lon="1.23524">
        <ele>286.8</ele>
        <time>2024-11-12T09:15:30Z</time>
      </trkpt>
      <trkpt lat="45.85159" lon="1.23524">
        <ele>286.8</ele>
        <time>2024-11-12T09:15:31Z</time>
      </trkpt>
      <trkpt lat="45.85159" lon="1.23524">
        <ele>286.8</ele>
        <time>2024-11-12T09:15:32Z</time>
      </trkpt>
      <trkpt lat="45.85159" lon="1.23524">
        <ele>286.8</ele>
        <time>2024-11-12T09:15:33Z</time>
      </trkpt>
      <trkpt lat="45.85159" lon="1.23524">
        <ele>286.8</ele>
        <time>2024-11-12T09:15:34Z</time>
      </trkpt>
      <trkpt lat="45.85159" lon="1.23525">
        <ele>286.8</ele>
        <time>2024-11-12T09:15:35Z</time>
      </trkpt>
      <trkpt lat="45.85159" lon="1.23525">
        <ele>286.8</ele>
        <time>2024-11-12T09:15:36Z</time>
      </trkpt>
      <trkpt lat="45.85159" lon="1.23526">
        <ele>286.8</ele>
        <time>2024-11-12T09:15:37Z</time>
      </trkpt>
      <trkpt lat="45.85157" lon="1.23531">
        <ele>286.7</ele>
        <time>2024-11-12T09:15:38Z</time>
      </trkpt>
      <trkpt lat="45.85156" lon="1.23533">
        <ele>286.7</ele>
        <time>2024-11-12T09:15:39Z</time>
      </trkpt>
      <trkpt lat="45.85155" lon="1.23535">
        <ele>286.7</ele>
        <time>2024-11-12T09:15:40Z</time>
      </trkpt>
      <trkpt lat="45.85153" lon="1.23536">
        <ele>286.7</ele>
        <time>2024-11-12T09:15:41Z</time>
      </trkpt>
      <trkpt lat="45.85152" lon="1.23537">
        <ele>286.6</ele>
        <time>2024-11-12T09:15:42Z</time>
      </trkpt>
      <trkpt lat="45.8515" lon="1.23537">
        <ele>286.6</ele>
        <time>2024-11-12T09:15:43Z</time>
      </trkpt>
      <trkpt lat="45.85147" lon="1.23537">
        <ele>286.6</ele>
        <time>2024-11-12T09:15:44Z</time>
      </trkpt>
      <trkpt lat="45.85146" lon="1.23537">
        <ele>286.6</ele>
        <time>2024-11-12T09:15:45Z</time>
      </trkpt>
      <trkpt lat="45.85143" lon="1.23533">
        <ele>286.5</ele>
        <time>2024-11-12T09:15:46Z</time>
      </trkpt>
      <trkpt lat="45.85142" lon="1.23531">
        <ele>286.5</ele>
        <time>2024-11-12T09:15:47Z</time>
      </trkpt>
      <trkpt lat="45.85139" lon="1.23527">
        <ele>286.4</ele>
        <time>2024-11-12T09:15:48Z</time>
      </trkpt>
      <trkpt lat="45.85138" lon="1.23526">
        <ele>286.3</ele>
        <time>2024-11-12T09:15:49Z</time>
      </trkpt>
      <trkpt lat="45.85137" lon="1.23525">
        <ele>286.3</ele>
        <time>2024-11-12T09:15:50Z</time>
      </trkpt>
      <trkpt lat="45.85136" lon="1.23523">
        <ele>286.2</ele>
        <time>2024-11-12T09:15:51Z</time>
      </trkpt>
      <trkpt lat="45.85134" lon="1.23522">
        <ele>286.1</ele>
        <time>2024-11-12T09:15:52Z</time>
      </trkpt>
      <trkpt lat="45.85133" lon="1.23521">
        <ele>286.1</ele>
        <time>2024-11-12T09:15:53Z</time>
      </trkpt>
      <trkpt lat="45.85132" lon="1.2352">
        <ele>286</ele>
        <time>2024-11-12T09:15:54Z</time>
      </trkpt>
      <trkpt lat="45.85131" lon="1.23518">
        <ele>286</ele>
        <time>2024-11-12T09:15:55Z</time>
      </trkpt>
      <trkpt lat="45.85129" lon="1.23517">
        <ele>285.9</ele>
        <time>2024-11-12T09:15:56Z</time>
      </trkpt>
      <trkpt lat="45.85128" lon="1.23516">
        <ele>285.9</ele>
        <time>2024-11-12T09:15:57Z</time>
      </trkpt>
      <trkpt lat="45.85127" lon="1.23514">
        <ele>285.8</ele>
        <time>2024-11-12T09:15:58Z</time>
      </trkpt>
      <trkpt lat="45.85126" lon="1.23513">
        <ele>285.8</ele>
        <time>2024-11-12T09:15:59Z</time>
      </trkpt>
      <trkpt lat="45.85125" lon="1.23511">
        <ele>285.7</ele>
        <time>2024-11-12T09:16:00Z</time>
      </trkpt>
      <trkpt lat="45.85124" lon="1.2351">
        <ele>285.7</ele>
        <time>2024-11-12T09:16:01Z</time>
      </trkpt>
      <trkpt lat="45.85123" lon="1.23508">
        <ele>285.6</ele>
        <time>2024-11-12T09:16:02Z</time>
      </trkpt>
      <trkpt lat="45.85122" lon="1.23507">
        <ele>285.6</ele>
        <time>2024-11-12T09:16:03Z</time>
      </trkpt>
      <trkpt lat="45.85121" lon="1.23506">
        <ele>285.5</ele>
        <time>2024-11-12T09:16:04Z</time>
      </trkpt>
      <trkpt lat="45.8512" lon="1.23504">
        <ele>285.5</ele>
        <time>2024-11-12T09:16:05Z</time>
      </trkpt>
      <trkpt lat="45.85119" lon="1.23503">
        <ele>285.4</ele>
        <time>2024-11-12T09:16:06Z</time>
      </trkpt>
      <trkpt lat="45.85118" lon="1.23501">
        <ele>285.4</ele>
        <time>2024-11-12T09:16:07Z</time>
      </trkpt>
      <trkpt lat="45.85117" lon="1.23499">
        <ele>285.3</ele>
        <time>2024-11-12T09:16:08Z</time>
      </trkpt>
      <trkpt lat="45.85116" lon="1.23498">
        <ele>285.3</ele>
        <time>2024-11-12T09:16:09Z</time>
      </trkpt>
      <trkpt lat="45.85114" lon="1.23496">
        <ele>285.2</ele>
        <time>2024-11-12T09:16:10Z</time>
      </trkpt>
      <trkpt lat="45.85114" lon="1.23495">
        <ele>285.2</ele>
        <time>2024-11-12T09:16:11Z</time>
      </trkpt>
      <trkpt lat="45.85113" lon="1.23494">
        <ele>285.2</ele>
        <time>2024-11-12T09:16:12Z</time>
      </trkpt>
      <trkpt lat="45.85112" lon="1.23492">
        <ele>285.1</ele>
        <time>2024-11-12T09:16:13Z</time>
      </trkpt>
      <trkpt lat="45.85111" lon="1.2349">
        <ele>285.1</ele>
        <time>2024-11-12T09:16:14Z</time>
      </trkpt>
      <trkpt lat="45.8511" lon="1.23488">
        <ele>285</ele>
        <time>2024-11-12T09:16:15Z</time>
      </trkpt>
      <trkpt lat="45.8511" lon="1.23487">
        <ele>285</ele>
        <time>2024-11-12T09:16:16Z</time>
      </trkpt>
      <trkpt lat="45.85109" lon="1.23486">
        <ele>285</ele>
        <time>2024-11-12T09:16:17Z</time>
      </trkpt>
      <trkpt lat="45.85108" lon="1.23485">
        <ele>284.9</ele>
        <time>2024-11-12T09:16:18Z</time>
      </trkpt>
      <trkpt lat="45.85107" lon="1.23483">
        <ele>284.9</ele>
        <time>2024-11-12T09:16:19Z</time>
      </trkpt>
      <trkpt lat="45.85106" lon="1.23482">
        <ele>284.8</ele>
        <time>2024-11-12T09:16:20Z</time>
      </trkpt>
      <trkpt lat="45.85105" lon="1.2348">
        <ele>284.8</ele>
        <time>2024-11-12T09:16:21Z</time>
      </trkpt>
      <trkpt lat="45.85104" lon="1.23479">
        <ele>284.7</ele>
        <time>2024-11-12T09:16:22Z</time>
      </trkpt>
      <trkpt lat="45.85103" lon="1.23478">
        <ele>284.7</ele>
        <time>2024-11-12T09:16:23Z</time>
      </trkpt>
      <trkpt lat="45.85101" lon="1.23476">
        <ele>284.6</ele>
        <time>2024-11-12T09:16:24Z</time>
      </trkpt>
      <trkpt lat="45.851" lon="1.23475">
        <ele>284.6</ele>
        <time>2024-11-12T09:16:25Z</time>
      </trkpt>
      <trkpt lat="45.85099" lon="1.23474">
        <ele>284.6</ele>
        <time>2024-11-12T09:16:26Z</time>
      </trkpt>
      <trkpt lat="45.85098" lon="1.23473">
        <ele>284.5</ele>
        <time>2024-11-12T09:16:27Z</time>
      </trkpt>
      <trkpt lat="45.85097" lon="1.23472">
        <ele>284.5</ele>
        <time>2024-11-12T09:16:28Z</time>
      </trkpt>
      <trkpt lat="45.85096" lon="1.23471">
        <ele>284.4</ele>
        <time>2024-11-12T09:16:29Z</time>
      </trkpt>
      <trkpt lat="45.85094" lon="1.2347">
        <ele>284.4</ele>
        <time>2024-11-12T09:16:30Z</time>
      </trkpt>
      <trkpt lat="45.85093" lon="1.2347">
        <ele>284.3</ele>
        <time>2024-11-12T09:16:31Z</time>
      </trkpt>
      <trkpt lat="45.85092" lon="1.23469">
        <ele>284.3</ele>
        <time>2024-11-12T09:16:32Z</time>
      </trkpt>
      <trkpt lat="45.85091" lon="1.23468">
        <ele>284.3</ele>
        <time>2024-11-12T09:16:33Z</time>
      </trkpt>
      <trkpt lat="45.8509" lon="1.23467">
        <ele>284.2</ele>
        <time>2024-11-12T09:16:34Z</time>
      </trkpt>
      <trkpt lat="45.85088" lon="1.23466">
        <ele>284.1</ele>
        <time>2024-11-12T09:16:35Z</time>
      </trkpt>
      <trkpt lat="45.85087" lon="1.23466">
        <ele>284.1</ele>
        <time>2024-11-12T09:16:36Z</time>
      </trkpt>
      <trkpt lat="45.85086" lon="1.23465">
        <ele>284.1</ele>
        <time>2024-11-12T09:16:37Z</time>
      </trkpt>
      <trkpt lat="45.85085" lon="1.23464">
        <ele>284.1</ele>
        <time>2024-11-12T09:16:38Z</time>
      </trkpt>
      <trkpt lat="45.85084" lon="1.23463">
        <ele>284</ele>
        <time>2024-11-12T09:16:39Z</time>
      </trkpt>
      <trkpt lat="45.85083" lon="1.23462">
        <ele>284</ele>
        <time>2024-11-12T09:16:40Z</time>
      </trkpt>
      <trkpt lat="45.85082" lon="1.23461">
        <ele>283.9</ele>
        <time>2024-11-12T09:16:41Z</time>
      </trkpt>
      <trkpt lat="45.85081" lon="1.2346">
        <ele>283.9</ele>
        <time>2024-11-12T09:16:42Z</time>
      </trkpt>
      <trkpt lat="45.8508" lon="1.23459">
        <ele>283.8</ele>
        <time>2024-11-12T09:16:43Z</time>
      </trkpt>
      <trkpt lat="45.85079" lon="1.23457">
        <ele>283.8</ele>
        <time>2024-11-12T09:16:44Z</time>
      </trkpt>
      <trkpt lat="45.85077" lon="1.23456">
        <ele>283.7</ele>
        <time>2024-11-12T09:16:45Z</time>
      </trkpt>
      <trkpt lat="45.85076" lon="1.23455">
        <ele>283.7</ele>
        <time>2024-11-12T09:16:46Z</time>
      </trkpt>
      <trkpt lat="45.85076" lon="1.23454">
        <ele>283.7</ele>
        <time>2024-11-12T09:16:47Z</time>
      </trkpt>
      <trkpt lat="45.85074" lon="1.23452">
        <ele>283.6</ele>
        <time>2024-11-12T09:16:48Z</time>
      </trkpt>
      <trkpt lat="45.85073" lon="1.23451">
        <ele>283.6</ele>
        <time>2024-11-12T09:16:49Z</time>
      </trkpt>
      <trkpt lat="45.85073" lon="1.2345">
        <ele>283.5</ele>
        <time>2024-11-12T09:16:50Z</time>
      </trkpt>
      <trkpt lat="45.85071" lon="1.23448">
        <ele>283.5</ele>
        <time>2024-11-12T09:16:51Z</time>
      </trkpt>
      <trkpt lat="45.85071" lon="1.23447">
        <ele>283.5</ele>
        <time>2024-11-12T09:16:52Z</time>
      </trkpt>
      <trkpt lat="45.8507" lon="1.23446">
        <ele>283.4</ele>
        <time>2024-11-12T09:16:53Z</time>
      </trkpt>
      <trkpt lat="45.85069" lon="1.23445">
        <ele>283.4</ele>
        <time>2024-11-12T09:16:54Z</time>
      </trkpt>
      <trkpt lat="45.85068" lon="1.23443">
        <ele>283.3</ele>
        <time>2024-11-12T09:16:55Z</time>
      </trkpt>
      <trkpt lat="45.85067" lon="1.23441">
        <ele>283.3</ele>
        <time>2024-11-12T09:16:56Z</time>
      </trkpt>
      <trkpt lat="45.85067" lon="1.2344">
        <ele>283.2</ele>
        <time>2024-11-12T09:16:57Z</time>
      </trkpt>
      <trkpt lat="45.85066" lon="1.23439">
        <ele>283.2</ele>
        <time>2024-11-12T09:16:58Z</time>
      </trkpt>
      <trkpt lat="45.85065" lon="1.23436">
        <ele>283.1</ele>
        <time>2024-11-12T09:16:59Z</time>
      </trkpt>
      <trkpt lat="45.85065" lon="1.23434">
        <ele>283.1</ele>
        <time>2024-11-12T09:17:00Z</time>
      </trkpt>
      <trkpt lat="45.85065" lon="1.23433">
        <ele>283.1</ele>
        <time>2024-11-12T09:17:01Z</time>
      </trkpt>
      <trkpt lat="45.85065" lon="1.23432">
        <ele>283.1</ele>
        <time>2024-11-12T09:17:02Z</time>
      </trkpt>
      <trkpt lat="45.85064" lon="1.2343">
        <ele>283</ele>
        <time>2024-11-12T09:17:03Z</time>
      </trkpt>
      <trkpt lat="45.85063" lon="1.23429">
        <ele>283</ele>
        <time>2024-11-12T09:17:04Z</time>
      </trkpt>
      <trkpt lat="45.85062" lon="1.23427">
        <ele>282.9</ele>
        <time>2024-11-12T09:17:05Z</time>
      </trkpt>
      <trkpt lat="45.85062" lon="1.23426">
        <ele>282.9</ele>
        <time>2024-11-12T09:17:06Z</time>
      </trkpt>
      <trkpt lat="45.85061" lon="1.23425">
        <ele>282.9</ele>
        <time>2024-11-12T09:17:07Z</time>
      </trkpt>
      <trkpt lat="45.8506" lon="1.23423">
        <ele>282.8</ele>
        <time>2024-11-12T09:17:08Z</time>
      </trkpt>
      <trkpt lat="45.8506" lon="1.23422">
        <ele>282.8</ele>
        <time>2024-11-12T09:17:09Z</time>
      </trkpt>
      <trkpt lat="45.85059" lon="1.23421">
        <ele>282.8</ele>
        <time>2024-11-12T09:17:10Z</time>
      </trkpt>
      <trkpt lat="45.85059" lon="1.2342">
        <ele>282.7</ele>
        <time>2024-11-12T09:17:11Z</time>
      </trkpt>
      <trkpt lat="45.85058" lon="1.23418">
        <ele>282.7</ele>
        <time>2024-11-12T09:17:12Z</time>
      </trkpt>
      <trkpt lat="45.85057" lon="1.23417">
        <ele>282.7</ele>
        <time>2024-11-12T09:17:13Z</time>
      </trkpt>
      <trkpt lat="45.85057" lon="1.23416">
        <ele>282.6</ele>
        <time>2024-11-12T09:17:14Z</time>
      </trkpt>
      <trkpt lat="45.85057" lon="1.23414">
        <ele>282.6</ele>
        <time>2024-11-12T09:17:15Z</time>
      </trkpt>
      <trkpt lat="45.85056" lon="1.23413">
        <ele>282.6</ele>
        <time>2024-11-12T09:17:16Z</time>
      </trkpt>
      <trkpt lat="45.85055" lon="1.23412">
        <ele>282.5</ele>
        <time>2024-11-12T09:17:17Z</time>
      </trkpt>
      <trkpt lat="45.85054" lon="1.23411">
        <ele>282.5</ele>
        <time>2024-11-12T09:17:18Z</time>
      </trkpt>
      <trkpt lat="45.85052" lon="1.2341">
        <ele>282.4</ele>
        <time>2024-11-12T09:17:19Z</time>
      </trkpt>
      <trkpt lat="45.8505" lon="1.23408">
        <ele>282.4</ele>
        <time>2024-11-12T09:17:20Z</time>
      </trkpt>
      <trkpt lat="45.85049" lon="1.23407">
        <ele>282.3</ele>
        <time>2024-11-12T09:17:21Z</time>
      </trkpt>
      <trkpt lat="45.85048" lon="1.23407">
        <ele>282.3</ele>
        <time>2024-11-12T09:17:22Z</time>
      </trkpt>
      <trkpt lat="45.85047" lon="1.23406">
        <ele>282.3</ele>
        <time>2024-11-12T09:17:23Z</time>
      </trkpt>
      <trkpt lat="45.85045" lon="1.23406">
        <ele>282.2</ele>
        <time>2024-11-12T09:17:24Z</time>
      </trkpt>
      <trkpt lat="45.85044" lon="1.23406">
        <ele>282.2</ele>
        <time>2024-11-12T09:17:25Z</time>
      </trkpt>
      <trkpt lat="45.85043" lon="1.23405">
        <ele>282.2</ele>
        <time>2024-11-12T09:17:26Z</time>
      </trkpt>
      <trkpt lat="45.85042" lon="1.23405">
        <ele>282.1</ele>
        <time>2024-11-12T09:17:27Z</time>
      </trkpt>
      <trkpt lat="45.85041" lon="1.23404">
        <ele>282.1</ele>
        <time>2024-11-12T09:17:28Z</time>
      </trkpt>
      <trkpt lat="45.8504" lon="1.23403">
        <ele>282</ele>
        <time>2024-11-12T09:17:29Z</time>
      </trkpt>
      <trkpt lat="45.85039" lon="1.23402">
        <ele>282</ele>
        <time>2024-11-12T09:17:30Z</time>
      </trkpt>
      <trkpt lat="45.85039" lon="1.23401">
        <ele>282</ele>
        <time>2024-11-12T09:17:31Z</time>
      </trkpt>
      <trkpt lat="45.85038" lon="1.234">
        <ele>282</ele>
        <time>2024-11-12T09:17:32Z</time>
      </trkpt>
      <trkpt lat="45.85037" lon="1.23399">
        <ele>281.9</ele>
        <time>2024-11-12T09:17:33Z</time>
      </trkpt>
      <trkpt lat="45.85036" lon="1.23397">
        <ele>281.9</ele>
        <time>2024-11-12T09:17:34Z</time>
      </trkpt>
      <trkpt lat="45.85035" lon="1.23396">
        <ele>281.8</ele>
        <time>2024-11-12T09:17:35Z</time>
      </trkpt>
      <trkpt lat="45.85035" lon="1.23395">
        <ele>281.8</ele>
        <time>2024-11-12T09:17:36Z</time>
      </trkpt>
      <trkpt lat="45.85033" lon="1.23393">
        <ele>281.7</ele>
        <time>2024-11-12T09:17:37Z</time>
      </trkpt>
      <trkpt lat="45.85032" lon="1.23392">
        <ele>281.7</ele>
        <time>2024-11-12T09:17:38Z</time>
      </trkpt>
      <trkpt lat="45.85032" lon="1.23391">
        <ele>281.7</ele>
        <time>2024-11-12T09:17:39Z</time>
      </trkpt>
      <trkpt lat="45.85031" lon="1.2339">
        <ele>281.6</ele>
        <time>2024-11-12T09:17:40Z</time>
      </trkpt>
      <trkpt lat="45.8503" lon="1.23389">
        <ele>281.6</ele>
        <time>2024-11-12T09:17:41Z</time>
      </trkpt>
      <trkpt lat="45.85029" lon="1.23388">
        <ele>281.6</ele>
        <time>2024-11-12T09:17:42Z</time>
      </trkpt>
      <trkpt lat="45.85029" lon="1.23386">
        <ele>281.5</ele>
        <time>2024-11-12T09:17:43Z</time>
      </trkpt>
      <trkpt lat="45.85027" lon="1.23385">
        <ele>281.5</ele>
        <time>2024-11-12T09:17:44Z</time>
      </trkpt>
      <trkpt lat="45.85027" lon="1.23384">
        <ele>281.4</ele>
        <time>2024-11-12T09:17:45Z</time>
      </trkpt>
      <trkpt lat="45.85026" lon="1.23381">
        <ele>281.4</ele>
        <time>2024-11-12T09:17:46Z</time>
      </trkpt>
      <trkpt lat="45.85026" lon="1.2338">
        <ele>281.3</ele>
        <time>2024-11-12T09:17:47Z</time>
      </trkpt>
      <trkpt lat="45.85026" lon="1.23379">
        <ele>281.3</ele>
        <time>2024-11-12T09:17:48Z</time>
      </trkpt>
      <trkpt lat="45.85026" lon="1.23378">
        <ele>281.3</ele>
        <time>2024-11-12T09:17:49Z</time>
      </trkpt>
      <trkpt lat="45.85026" lon="1.23376">
        <ele>281.2</ele>
        <time>2024-11-12T09:17:50Z</time>
      </trkpt>
      <trkpt lat="45.85025" lon="1.23375">
        <ele>281.2</ele>
        <time>2024-11-12T09:17:51Z</time>
      </trkpt>
      <trkpt lat="45.85024" lon="1.23373">
        <ele>281.1</ele>
        <time>2024-11-12T09:17:52Z</time>
      </trkpt>
      <trkpt lat="45.85023" lon="1.23372">
        <ele>281.1</ele>
        <time>2024-11-12T09:17:53Z</time>
      </trkpt>
      <trkpt lat="45.85022" lon="1.23371">
        <ele>281</ele>
        <time>2024-11-12T09:17:54Z</time>
      </trkpt>
      <trkpt lat="45.8502" lon="1.23369">
        <ele>280.9</ele>
        <time>2024-11-12T09:17:55Z</time>
      </trkpt>
      <trkpt lat="45.85019" lon="1.23368">
        <ele>280.9</ele>
        <time>2024-11-12T09:17:56Z</time>
      </trkpt>
      <trkpt lat="45.85019" lon="1.23368">
        <ele>280.9</ele>
        <time>2024-11-12T09:17:57Z</time>
      </trkpt>
      <trkpt lat="45.85017" lon="1.23367">
        <ele>280.8</ele>
        <time>2024-11-12T09:17:58Z</time>
      </trkpt>
      <trkpt lat="45.85016" lon="1.23366">
        <ele>280.7</ele>
        <time>2024-11-12T09:17:59Z</time>
      </trkpt>
      <trkpt lat="45.85015" lon="1.23365">
        <ele>280.7</ele>
        <time>2024-11-12T09:18:00Z</time>
      </trkpt>
      <trkpt lat="45.85015" lon="1.23364">
        <ele>280.7</ele>
        <time>2024-11-12T09:18:01Z</time>
      </trkpt>
      <trkpt lat="45.85014" lon="1.23363">
        <ele>280.6</ele>
        <time>2024-11-12T09:18:02Z</time>
      </trkpt>
      <trkpt lat="45.85013" lon="1.23362">
        <ele>280.6</ele>
        <time>2024-11-12T09:18:03Z</time>
      </trkpt>
      <trkpt lat="45.85012" lon="1.23361">
        <ele>280.5</ele>
        <time>2024-11-12T09:18:04Z</time>
      </trkpt>
      <trkpt lat="45.85012" lon="1.2336">
        <ele>280.5</ele>
        <time>2024-11-12T09:18:05Z</time>
      </trkpt>
      <trkpt lat="45.85011" lon="1.23359">
        <ele>280.4</ele>
        <time>2024-11-12T09:18:06Z</time>
      </trkpt>
      <trkpt lat="45.8501" lon="1.23357">
        <ele>280.4</ele>
        <time>2024-11-12T09:18:07Z</time>
      </trkpt>
      <trkpt lat="45.8501" lon="1.23356">
        <ele>280.3</ele>
        <time>2024-11-12T09:18:08Z</time>
      </trkpt>
      <trkpt lat="45.85007" lon="1.23354">
        <ele>280.2</ele>
        <time>2024-11-12T09:18:09Z</time>
      </trkpt>
      <trkpt lat="45.85007" lon="1.23354">
        <ele>280.2</ele>
        <time>2024-11-12T09:18:10Z</time>
      </trkpt>
      <trkpt lat="45.85006" lon="1.23353">
        <ele>280.1</ele>
        <time>2024-11-12T09:18:11Z</time>
      </trkpt>
      <trkpt lat="45.85005" lon="1.23352">
        <ele>280.1</ele>
        <time>2024-11-12T09:18:12Z</time>
      </trkpt>
      <trkpt lat="45.85004" lon="1.23351">
        <ele>280</ele>
        <time>2024-11-12T09:18:13Z</time>
      </trkpt>
      <trkpt lat="45.85003" lon="1.23348">
        <ele>279.9</ele>
        <time>2024-11-12T09:18:14Z</time>
      </trkpt>
      <trkpt lat="45.85002" lon="1.23347">
        <ele>279.8</ele>
        <time>2024-11-12T09:18:15Z</time>
      </trkpt>
      <trkpt lat="45.85" lon="1.23346">
        <ele>279.7</ele>
        <time>2024-11-12T09:18:16Z</time>
      </trkpt>
      <trkpt lat="45.84999" lon="1.23345">
        <ele>279.7</ele>
        <time>2024-11-12T09:18:17Z</time>
      </trkpt>
      <trkpt lat="45.84998" lon="1.23344">
        <ele>279.7</ele>
        <time>2024-11-12T09:18:18Z</time>
      </trkpt>
      <trkpt lat="45.84997" lon="1.23342">
        <ele>279.6</ele>
        <time>2024-11-12T09:18:19Z</time>
      </trkpt>
      <trkpt lat="45.84996" lon="1.23342">
        <ele>279.5</ele>
        <time>2024-11-12T09:18:20Z</time>
      </trkpt>
      <trkpt lat="45.84994" lon="1.2334">
        <ele>279.4</ele>
        <time>2024-11-12T09:18:21Z</time>
      </trkpt>
      <trkpt lat="45.84993" lon="1.23339">
        <ele>279.4</ele>
        <time>2024-11-12T09:18:22Z</time>
      </trkpt>
      <trkpt lat="45.84993" lon="1.23339">
        <ele>279.3</ele>
        <time>2024-11-12T09:18:23Z</time>
      </trkpt>
      <trkpt lat="45.84991" lon="1.23337">
        <ele>279.2</ele>
        <time>2024-11-12T09:18:24Z</time>
      </trkpt>
      <trkpt lat="45.84991" lon="1.23336">
        <ele>279.2</ele>
        <time>2024-11-12T09:18:25Z</time>
      </trkpt>
      <trkpt lat="45.84989" lon="1.23335">
        <ele>279.1</ele>
        <time>2024-11-12T09:18:26Z</time>
      </trkpt>
      <trkpt lat="45.84989" lon="1.23334">
        <ele>279</ele>
        <time>2024-11-12T09:18:27Z</time>
      </trkpt>
      <trkpt lat="45.84988" lon="1.23334">
        <ele>279</ele>
        <time>2024-11-12T09:18:28Z</time>
      </trkpt>
      <trkpt lat="45.84986" lon="1.23331">
        <ele>278.9</ele>
        <time>2024-11-12T09:18:29Z</time>
      </trkpt>
      <trkpt lat="45.84985" lon="1.23331">
        <ele>278.8</ele>
        <time>2024-11-12T09:18:30Z</time>
      </trkpt>
      <trkpt lat="45.84985" lon="1.2333">
        <ele>278.8</ele>
        <time>2024-11-12T09:18:31Z</time>
      </trkpt>
      <trkpt lat="45.84983" lon="1.23329">
        <ele>278.7</ele>
        <time>2024-11-12T09:18:32Z</time>
      </trkpt>
      <trkpt lat="45.84982" lon="1.23328">
        <ele>278.6</ele>
        <time>2024-11-12T09:18:33Z</time>
      </trkpt>
      <trkpt lat="45.84981" lon="1.23327">
        <ele>278.5</ele>
        <time>2024-11-12T09:18:34Z</time>
      </trkpt>
      <trkpt lat="45.84981" lon="1.23327">
        <ele>278.5</ele>
        <time>2024-11-12T09:18:35Z</time>
      </trkpt>
      <trkpt lat="45.84979" lon="1.23326">
        <ele>278.4</ele>
        <time>2024-11-12T09:18:36Z</time>
      </trkpt>
      <trkpt lat="45.84978" lon="1.23326">
        <ele>278.4</ele>
        <time>2024-11-12T09:18:37Z</time>
      </trkpt>
      <trkpt lat="45.84977" lon="1.23326">
        <ele>278.3</ele>
        <time>2024-11-12T09:18:38Z</time>
      </trkpt>
      <trkpt lat="45.84975" lon="1.23325">
        <ele>278.1</ele>
        <time>2024-11-12T09:18:39Z</time>
      </trkpt>
      <trkpt lat="45.84974" lon="1.23325">
        <ele>278.1</ele>
        <time>2024-11-12T09:18:40Z</time>
      </trkpt>
      <trkpt lat="45.84973" lon="1.23325">
        <ele>278</ele>
        <time>2024-11-12T09:18:41Z</time>
      </trkpt>
      <trkpt lat="45.84972" lon="1.23325">
        <ele>277.9</ele>
        <time>2024-11-12T09:18:42Z</time>
      </trkpt>
      <trkpt lat="45.84971" lon="1.23325">
        <ele>277.8</ele>
        <time>2024-11-12T09:18:43Z</time>
      </trkpt>
      <trkpt lat="45.8497" lon="1.23325">
        <ele>277.7</ele>
        <time>2024-11-12T09:18:44Z</time>
      </trkpt>
      <trkpt lat="45.84969" lon="1.23325">
        <ele>277.7</ele>
        <time>2024-11-12T09:18:45Z</time>
      </trkpt>
      <trkpt lat="45.84968" lon="1.23325">
        <ele>277.6</ele>
        <time>2024-11-12T09:18:46Z</time>
      </trkpt>
      <trkpt lat="45.84967" lon="1.23325">
        <ele>277.5</ele>
        <time>2024-11-12T09:18:47Z</time>
      </trkpt>
      <trkpt lat="45.84966" lon="1.23325">
        <ele>277.4</ele>
        <time>2024-11-12T09:18:48Z</time>
      </trkpt>
      <trkpt lat="45.84964" lon="1.23325">
        <ele>277.3</ele>
        <time>2024-11-12T09:18:49Z</time>
      </trkpt>
      <trkpt lat="45.84963" lon="1.23325">
        <ele>277.2</ele>
        <time>2024-11-12T09:18:50Z</time>
      </trkpt>
      <trkpt lat="45.84962" lon="1.23324">
        <ele>277.2</ele>
        <time>2024-11-12T09:18:51Z</time>
      </trkpt>
      <trkpt lat="45.8496" lon="1.23324">
        <ele>277.1</ele>
        <time>2024-11-12T09:18:52Z</time>
      </trkpt>
      <trkpt lat="45.84959" lon="1.23324">
        <ele>277</ele>
        <time>2024-11-12T09:18:53Z</time>
      </trkpt>
      <trkpt lat="45.84957" lon="1.23324">
        <ele>276.8</ele>
        <time>2024-11-12T09:18:54Z</time>
      </trkpt>
      <trkpt lat="45.84956" lon="1.23324">
        <ele>276.7</ele>
        <time>2024-11-12T09:18:55Z</time>
      </trkpt>
      <trkpt lat="45.84955" lon="1.23324">
        <ele>276.7</ele>
        <time>2024-11-12T09:18:56Z</time>
      </trkpt>
      <trkpt lat="45.84954" lon="1.23323">
        <ele>276.6</ele>
        <time>2024-11-12T09:18:57Z</time>
      </trkpt>
      <trkpt lat="45.84953" lon="1.23323">
        <ele>276.4</ele>
        <time>2024-11-12T09:18:58Z</time>
      </trkpt>
      <trkpt lat="45.84951" lon="1.23323">
        <ele>276.3</ele>
        <time>2024-11-12T09:18:59Z</time>
      </trkpt>
      <trkpt lat="45.8495" lon="1.23323">
        <ele>276.2</ele>
        <time>2024-11-12T09:19:00Z</time>
      </trkpt>
      <trkpt lat="45.84948" lon="1.23323">
        <ele>276</ele>
        <time>2024-11-12T09:19:01Z</time>
      </trkpt>
      <trkpt lat="45.84947" lon="1.23323">
        <ele>276</ele>
        <time>2024-11-12T09:19:02Z</time>
      </trkpt>
      <trkpt lat="45.84946" lon="1.23323">
        <ele>275.9</ele>
        <time>2024-11-12T09:19:03Z</time>
      </trkpt>
      <trkpt lat="45.84945" lon="1.23324">
        <ele>275.8</ele>
        <time>2024-11-12T09:19:04Z</time>
      </trkpt>
      <trkpt lat="45.84944" lon="1.23324">
        <ele>275.7</ele>
        <time>2024-11-12T09:19:05Z</time>
      </trkpt>
      <trkpt lat="45.84943" lon="1.23324">
        <ele>275.6</ele>
        <time>2024-11-12T09:19:06Z</time>
      </trkpt>
      <trkpt lat="45.84941" lon="1.23325">
        <ele>275.5</ele>
        <time>2024-11-12T09:19:07Z</time>
      </trkpt>
      <trkpt lat="45.8494" lon="1.23325">
        <ele>275.4</ele>
        <time>2024-11-12T09:19:08Z</time>
      </trkpt>
      <trkpt lat="45.84939" lon="1.23325">
        <ele>275.3</ele>
        <time>2024-11-12T09:19:09Z</time>
      </trkpt>
      <trkpt lat="45.84938" lon="1.23325">
        <ele>275.2</ele>
        <time>2024-11-12T09:19:10Z</time>
      </trkpt>
      <trkpt lat="45.84937" lon="1.23325">
        <ele>275.2</ele>
        <time>2024-11-12T09:19:11Z</time>
      </trkpt>
      <trkpt lat="45.84936" lon="1.23325">
        <ele>275.1</ele>
        <time>2024-11-12T09:19:12Z</time>
      </trkpt>
      <trkpt lat="45.84935" lon="1.23324">
        <ele>274.9</ele>
        <time>2024-11-12T09:19:13Z</time>
      </trkpt>
      <trkpt lat="45.84933" lon="1.23324">
        <ele>274.8</ele>
        <time>2024-11-12T09:19:14Z</time>
      </trkpt>
      <trkpt lat="45.84932" lon="1.23323">
        <ele>274.7</ele>
        <time>2024-11-12T09:19:15Z</time>
      </trkpt>
      <trkpt lat="45.84931" lon="1.23323">
        <ele>274.6</ele>
        <time>2024-11-12T09:19:16Z</time>
      </trkpt>
      <trkpt lat="45.84929" lon="1.23322">
        <ele>274.5</ele>
        <time>2024-11-12T09:19:17Z</time>
      </trkpt>
      <trkpt lat="45.84928" lon="1.23322">
        <ele>274.4</ele>
        <time>2024-11-12T09:19:18Z</time>
      </trkpt>
      <trkpt lat="45.84927" lon="1.23321">
        <ele>274.3</ele>
        <time>2024-11-12T09:19:19Z</time>
      </trkpt>
      <trkpt lat="45.84926" lon="1.23321">
        <ele>274.2</ele>
        <time>2024-11-12T09:19:20Z</time>
      </trkpt>
      <trkpt lat="45.84925" lon="1.2332">
        <ele>274.1</ele>
        <time>2024-11-12T09:19:21Z</time>
      </trkpt>
      <trkpt lat="45.84924" lon="1.2332">
        <ele>274</ele>
        <time>2024-11-12T09:19:22Z</time>
      </trkpt>
      <trkpt lat="45.84923" lon="1.23319">
        <ele>273.9</ele>
        <time>2024-11-12T09:19:23Z</time>
      </trkpt>
      <trkpt lat="45.84921" lon="1.23318">
        <ele>273.7</ele>
        <time>2024-11-12T09:19:24Z</time>
      </trkpt>
      <trkpt lat="45.8492" lon="1.23318">
        <ele>273.6</ele>
        <time>2024-11-12T09:19:25Z</time>
      </trkpt>
      <trkpt lat="45.84919" lon="1.23317">
        <ele>273.5</ele>
        <time>2024-11-12T09:19:26Z</time>
      </trkpt>
      <trkpt lat="45.84918" lon="1.23316">
        <ele>273.4</ele>
        <time>2024-11-12T09:19:27Z</time>
      </trkpt>
      <trkpt lat="45.84916" lon="1.23316">
        <ele>273.2</ele>
        <time>2024-11-12T09:19:28Z</time>
      </trkpt>
      <trkpt lat="45.84915" lon="1.23315">
        <ele>273</ele>
        <time>2024-11-12T09:19:29Z</time>
      </trkpt>
      <trkpt lat="45.84914" lon="1.23314">
        <ele>273</ele>
        <time>2024-11-12T09:19:30Z</time>
      </trkpt>
      <trkpt lat="45.84913" lon="1.23314">
        <ele>272.8</ele>
        <time>2024-11-12T09:19:31Z</time>
      </trkpt>
      <trkpt lat="45.84912" lon="1.23313">
        <ele>272.7</ele>
        <time>2024-11-12T09:19:32Z</time>
      </trkpt>
      <trkpt lat="45.8491" lon="1.23311">
        <ele>272.5</ele>
        <time>2024-11-12T09:19:33Z</time>
      </trkpt>
      <trkpt lat="45.84909" lon="1.2331">
        <ele>272.4</ele>
        <time>2024-11-12T09:19:34Z</time>
      </trkpt>
      <trkpt lat="45.84909" lon="1.23309">
        <ele>272.3</ele>
        <time>2024-11-12T09:19:35Z</time>
      </trkpt>
      <trkpt lat="45.84908" lon="1.23308">
        <ele>272.1</ele>
        <time>2024-11-12T09:19:36Z</time>
      </trkpt>
      <trkpt lat="45.84907" lon="1.23307">
        <ele>272</ele>
        <time>2024-11-12T09:19:37Z</time>
      </trkpt>
      <trkpt lat="45.84906" lon="1.23306">
        <ele>271.9</ele>
        <time>2024-11-12T09:19:38Z</time>
      </trkpt>
      <trkpt lat="45.84905" lon="1.23305">
        <ele>271.7</ele>
        <time>2024-11-12T09:19:39Z</time>
      </trkpt>
      <trkpt lat="45.84904" lon="1.23305">
        <ele>271.6</ele>
        <time>2024-11-12T09:19:40Z</time>
      </trkpt>
      <trkpt lat="45.84903" lon="1.23304">
        <ele>271.5</ele>
        <time>2024-11-12T09:19:41Z</time>
      </trkpt>
      <trkpt lat="45.84901" lon="1.23303">
        <ele>271.2</ele>
        <time>2024-11-12T09:19:42Z</time>
      </trkpt>
      <trkpt lat="45.84901" lon="1.23303">
        <ele>271.1</ele>
        <time>2024-11-12T09:19:43Z</time>
      </trkpt>
      <trkpt lat="45.849" lon="1.23302">
        <ele>271</ele>
        <time>2024-11-12T09:19:44Z</time>
      </trkpt>
      <trkpt lat="45.84899" lon="1.23302">
        <ele>270.9</ele>
        <time>2024-11-12T09:19:45Z</time>
      </trkpt>
      <trkpt lat="45.84898" lon="1.233">
        <ele>270.8</ele>
        <time>2024-11-12T09:19:46Z</time>
      </trkpt>
      <trkpt lat="45.84897" lon="1.23299">
        <ele>270.6</ele>
        <time>2024-11-12T09:19:47Z</time>
      </trkpt>
      <trkpt lat="45.84895" lon="1.23297">
        <ele>270.3</ele>
        <time>2024-11-12T09:19:48Z</time>
      </trkpt>
      <trkpt lat="45.84894" lon="1.23296">
        <ele>270.2</ele>
        <time>2024-11-12T09:19:49Z</time>
      </trkpt>
      <trkpt lat="45.84893" lon="1.23296">
        <ele>270.1</ele>
        <time>2024-11-12T09:19:50Z</time>
      </trkpt>
      <trkpt lat="45.84892" lon="1.23294">
        <ele>269.8</ele>
        <time>2024-11-12T09:19:51Z</time>
      </trkpt>
      <trkpt lat="45.84891" lon="1.23293">
        <ele>269.7</ele>
        <time>2024-11-12T09:19:52Z</time>
      </trkpt>
      <trkpt lat="45.8489" lon="1.23293">
        <ele>269.6</ele>
        <time>2024-11-12T09:19:53Z</time>
      </trkpt>
      <trkpt lat="45.84888" lon="1.23291">
        <ele>269.2</ele>
        <time>2024-11-12T09:19:54Z</time>
      </trkpt>
      <trkpt lat="45.84887" lon="1.2329">
        <ele>269.1</ele>
        <time>2024-11-12T09:19:55Z</time>
      </trkpt>
      <trkpt lat="45.84885" lon="1.23289">
        <ele>268.9</ele>
        <time>2024-11-12T09:19:56Z</time>
      </trkpt>
      <trkpt lat="45.84884" lon="1.23288">
        <ele>268.7</ele>
        <time>2024-11-12T09:19:57Z</time>
      </trkpt>
      <trkpt lat="45.84883" lon="1.23287">
        <ele>268.5</ele>
        <time>2024-11-12T09:19:58Z</time>
      </trkpt>
      <trkpt lat="45.84881" lon="1.23287">
        <ele>268.3</ele>
        <time>2024-11-12T09:19:59Z</time>
      </trkpt>
      <trkpt lat="45.8488" lon="1.23285">
        <ele>268</ele>
        <time>2024-11-12T09:20:00Z</time>
      </trkpt>
      <trkpt lat="45.84879" lon="1.23284">
        <ele>267.9</ele>
        <time>2024-11-12T09:20:01Z</time>
      </trkpt>
      <trkpt lat="45.84878" lon="1.23284">
        <ele>267.8</ele>
        <time>2024-11-12T09:20:02Z</time>
      </trkpt>
      <trkpt lat="45.84877" lon="1.23282">
        <ele>267.6</ele>
        <time>2024-11-12T09:20:03Z</time>
      </trkpt>
      <trkpt lat="45.84876" lon="1.23282">
        <ele>267.5</ele>
        <time>2024-11-12T09:20:04Z</time>
      </trkpt>
      <trkpt lat="45.84876" lon="1.23282">
        <ele>267.4</ele>
        <time>2024-11-12T09:20:05Z</time>
      </trkpt>
      <trkpt lat="45.84875" lon="1.23281">
        <ele>267.4</ele>
        <time>2024-11-12T09:20:06Z</time>
      </trkpt>
      <trkpt lat="45.84875" lon="1.23281">
        <ele>267.3</ele>
        <time>2024-11-12T09:20:07Z</time>
      </trkpt>
      <trkpt lat="45.84874" lon="1.23281">
        <ele>267.2</ele>
        <time>2024-11-12T09:20:08Z</time>
      </trkpt>
      <trkpt lat="45.84873" lon="1.2328">
        <ele>267</ele>
        <time>2024-11-12T09:20:09Z</time>
      </trkpt>
      <trkpt lat="45.84873" lon="1.2328">
        <ele>267</ele>
        <time>2024-11-12T09:20:10Z</time>
      </trkpt>
      <trkpt lat="45.84872" lon="1.23279">
        <ele>266.8</ele>
        <time>2024-11-12T09:20:11Z</time>
      </trkpt>
      <trkpt lat="45.84871" lon="1.23278">
        <ele>266.7</ele>
        <time>2024-11-12T09:20:12Z</time>
      </trkpt>
      <trkpt lat="45.84869" lon="1.23278">
        <ele>266.5</ele>
        <time>2024-11-12T09:20:13Z</time>
      </trkpt>
      <trkpt lat="45.84868" lon="1.23277">
        <ele>266.4</ele>
        <time>2024-11-12T09:20:14Z</time>
      </trkpt>
      <trkpt lat="45.84867" lon="1.23276">
        <ele>266.2</ele>
        <time>2024-11-12T09:20:15Z</time>
      </trkpt>
      <trkpt lat="45.84867" lon="1.23275">
        <ele>266.1</ele>
        <time>2024-11-12T09:20:16Z</time>
      </trkpt>
      <trkpt lat="45.84866" lon="1.23274">
        <ele>266</ele>
        <time>2024-11-12T09:20:17Z</time>
      </trkpt>
      <trkpt lat="45.84865" lon="1.23273">
        <ele>265.8</ele>
        <time>2024-11-12T09:20:18Z</time>
      </trkpt>
      <trkpt lat="45.84864" lon="1.23273">
        <ele>265.7</ele>
        <time>2024-11-12T09:20:19Z</time>
      </trkpt>
      <trkpt lat="45.84863" lon="1.23272">
        <ele>265.6</ele>
        <time>2024-11-12T09:20:20Z</time>
      </trkpt>
      <trkpt lat="45.84861" lon="1.23271">
        <ele>265.5</ele>
        <time>2024-11-12T09:20:21Z</time>
      </trkpt>
      <trkpt lat="45.8486" lon="1.23271">
        <ele>265.3</ele>
        <time>2024-11-12T09:20:22Z</time>
      </trkpt>
      <trkpt lat="45.84859" lon="1.2327">
        <ele>265.2</ele>
        <time>2024-11-12T09:20:23Z</time>
      </trkpt>
      <trkpt lat="45.84858" lon="1.23269">
        <ele>265.1</ele>
        <time>2024-11-12T09:20:24Z</time>
      </trkpt>
      <trkpt lat="45.84857" lon="1.2327">
        <ele>265</ele>
        <time>2024-11-12T09:20:25Z</time>
      </trkpt>
      <trkpt lat="45.84856" lon="1.2327">
        <ele>264.9</ele>
        <time>2024-11-12T09:20:26Z</time>
      </trkpt>
      <trkpt lat="45.84855" lon="1.23269">
        <ele>264.8</ele>
        <time>2024-11-12T09:20:27Z</time>
      </trkpt>
      <trkpt lat="45.84853" lon="1.23269">
        <ele>264.6</ele>
        <time>2024-11-12T09:20:28Z</time>
      </trkpt>
      <trkpt lat="45.84851" lon="1.23268">
        <ele>264.5</ele>
        <time>2024-11-12T09:20:29Z</time>
      </trkpt>
      <trkpt lat="45.84851" lon="1.23268">
        <ele>264.4</ele>
        <time>2024-11-12T09:20:30Z</time>
      </trkpt>
      <trkpt lat="45.8485" lon="1.23267">
        <ele>264.3</ele>
        <time>2024-11-12T09:20:31Z</time>
      </trkpt>
      <trkpt lat="45.84849" lon="1.23267">
        <ele>264.3</ele>
        <time>2024-11-12T09:20:32Z</time>
      </trkpt>
      <trkpt lat="45.84848" lon="1.23266">
        <ele>264.2</ele>
        <time>2024-11-12T09:20:33Z</time>
      </trkpt>
      <trkpt lat="45.84846" lon="1.23266">
        <ele>264.1</ele>
        <time>2024-11-12T09:20:34Z</time>
      </trkpt>
      <trkpt lat="45.84846" lon="1.23264">
        <ele>264.1</ele>
        <time>2024-11-12T09:20:35Z</time>
      </trkpt>
      <trkpt lat="45.84845" lon="1.23263">
        <ele>264</ele>
        <time>2024-11-12T09:20:36Z</time>
      </trkpt>
      <trkpt lat="45.84844" lon="1.23262">
        <ele>264</ele>
        <time>2024-11-12T09:20:37Z</time>
      </trkpt>
      <trkpt lat="45.84843" lon="1.23262">
        <ele>263.9</ele>
        <time>2024-11-12T09:20:38Z</time>
      </trkpt>
      <trkpt lat="45.84842" lon="1.23261">
        <ele>263.9</ele>
        <time>2024-11-12T09:20:39Z</time>
      </trkpt>
      <trkpt lat="45.84841" lon="1.23261">
        <ele>263.9</ele>
        <time>2024-11-12T09:20:40Z</time>
      </trkpt>
      <trkpt lat="45.8484" lon="1.2326">
        <ele>263.8</ele>
        <time>2024-11-12T09:20:41Z</time>
      </trkpt>
      <trkpt lat="45.84839" lon="1.2326">
        <ele>263.8</ele>
        <time>2024-11-12T09:20:42Z</time>
      </trkpt>
      <trkpt lat="45.84838" lon="1.23259">
        <ele>263.7</ele>
        <time>2024-11-12T09:20:43Z</time>
      </trkpt>
      <trkpt lat="45.84837" lon="1.23258">
        <ele>263.7</ele>
        <time>2024-11-12T09:20:44Z</time>
      </trkpt>
      <trkpt lat="45.84835" lon="1.23257">
        <ele>263.7</ele>
        <time>2024-11-12T09:20:45Z</time>
      </trkpt>
      <trkpt lat="45.84834" lon="1.23256">
        <ele>263.7</ele>
        <time>2024-11-12T09:20:46Z</time>
      </trkpt>
      <trkpt lat="45.84834" lon="1.23256">
        <ele>263.7</ele>
        <time>2024-11-12T09:20:47Z</time>
      </trkpt>
      <trkpt lat="45.84833" lon="1.23255">
        <ele>263.7</ele>
        <time>2024-11-12T09:20:48Z</time>
      </trkpt>
      <trkpt lat="45.84831" lon="1.23256">
        <ele>263.7</ele>
        <time>2024-11-12T09:20:49Z</time>
      </trkpt>
      <trkpt lat="45.8483" lon="1.23258">
        <ele>263.7</ele>
        <time>2024-11-12T09:20:50Z</time>
      </trkpt>
      <trkpt lat="45.84829" lon="1.23259">
        <ele>263.7</ele>
        <time>2024-11-12T09:20:51Z</time>
      </trkpt>
      <trkpt lat="45.84828" lon="1.2326">
        <ele>263.8</ele>
        <time>2024-11-12T09:20:52Z</time>
      </trkpt>
      <trkpt lat="45.84828" lon="1.23261">
        <ele>263.8</ele>
        <time>2024-11-12T09:20:53Z</time>
      </trkpt>
      <trkpt lat="45.84827" lon="1.23262">
        <ele>263.8</ele>
        <time>2024-11-12T09:20:54Z</time>
      </trkpt>
      <trkpt lat="45.84826" lon="1.23263">
        <ele>263.9</ele>
        <time>2024-11-12T09:20:55Z</time>
      </trkpt>
      <trkpt lat="45.84825" lon="1.23264">
        <ele>263.9</ele>
        <time>2024-11-12T09:20:56Z</time>
      </trkpt>
      <trkpt lat="45.84824" lon="1.23265">
        <ele>263.9</ele>
        <time>2024-11-12T09:20:57Z</time>
      </trkpt>
      <trkpt lat="45.84823" lon="1.23266">
        <ele>263.9</ele>
        <time>2024-11-12T09:20:58Z</time>
      </trkpt>
      <trkpt lat="45.84823" lon="1.23267">
        <ele>264</ele>
        <time>2024-11-12T09:20:59Z</time>
      </trkpt>
      <trkpt lat="45.84822" lon="1.23269">
        <ele>264</ele>
        <time>2024-11-12T09:21:00Z</time>
      </trkpt>
      <trkpt lat="45.84822" lon="1.23271">
        <ele>264</ele>
        <time>2024-11-12T09:21:01Z</time>
      </trkpt>
      <trkpt lat="45.84822" lon="1.23272">
        <ele>264</ele>
        <time>2024-11-12T09:21:02Z</time>
      </trkpt>
      <trkpt lat="45.84822" lon="1.23274">
        <ele>264.1</ele>
        <time>2024-11-12T09:21:03Z</time>
      </trkpt>
      <trkpt lat="45.84822" lon="1.23275">
        <ele>264.1</ele>
        <time>2024-11-12T09:21:04Z</time>
      </trkpt>
      <trkpt lat="45.84822" lon="1.23277">
        <ele>264.1</ele>
        <time>2024-11-12T09:21:05Z</time>
      </trkpt>
      <trkpt lat="45.84822" lon="1.23278">
        <ele>264.1</ele>
        <time>2024-11-12T09:21:06Z</time>
      </trkpt>
      <trkpt lat="45.84822" lon="1.23279">
        <ele>264.1</ele>
        <time>2024-11-12T09:21:07Z</time>
      </trkpt>
      <trkpt lat="45.84822" lon="1.23281">
        <ele>264.2</ele>
        <time>2024-11-12T09:21:08Z</time>
      </trkpt>
      <trkpt lat="45.84823" lon="1.23283">
        <ele>264.2</ele>
        <time>2024-11-12T09:21:09Z</time>
      </trkpt>
      <trkpt lat="45.84823" lon="1.23284">
        <ele>264.2</ele>
        <time>2024-11-12T09:21:10Z</time>
      </trkpt>
      <trkpt lat="45.84823" lon="1.23285">
        <ele>264.2</ele>
        <time>2024-11-12T09:21:11Z</time>
      </trkpt>
      <trkpt lat="45.84823" lon="1.23287">
        <ele>264.2</ele>
        <time>2024-11-12T09:21:12Z</time>
      </trkpt>
      <trkpt lat="45.84824" lon="1.23288">
        <ele>264.3</ele>
        <time>2024-11-12T09:21:13Z</time>
      </trkpt>
      <trkpt lat="45.84825" lon="1.2329">
        <ele>264.3</ele>
        <time>2024-11-12T09:21:14Z</time>
      </trkpt>
      <trkpt lat="45.84826" lon="1.23292">
        <ele>264.3</ele>
        <time>2024-11-12T09:21:15Z</time>
      </trkpt>
      <trkpt lat="45.84827" lon="1.23294">
        <ele>264.3</ele>
        <time>2024-11-12T09:21:16Z</time>
      </trkpt>
      <trkpt lat="45.84828" lon="1.23295">
        <ele>264.4</ele>
        <time>2024-11-12T09:21:17Z</time>
      </trkpt>
      <trkpt lat="45.84829" lon="1.23295">
        <ele>264.4</ele>
        <time>2024-11-12T09:21:18Z</time>
      </trkpt>
      <trkpt lat="45.8483" lon="1.23297">
        <ele>264.4</ele>
        <time>2024-11-12T09:21:19Z</time>
      </trkpt>
      <trkpt lat="45.84831" lon="1.23298">
        <ele>264.4</ele>
        <time>2024-11-12T09:21:20Z</time>
      </trkpt>
      <trkpt lat="45.84832" lon="1.233">
        <ele>264.4</ele>
        <time>2024-11-12T09:21:21Z</time>
      </trkpt>
      <trkpt lat="45.84833" lon="1.23301">
        <ele>264.5</ele>
        <time>2024-11-12T09:21:22Z</time>
      </trkpt>
      <trkpt lat="45.84834" lon="1.23302">
        <ele>264.5</ele>
        <time>2024-11-12T09:21:23Z</time>
      </trkpt>
      <trkpt lat="45.84835" lon="1.23304">
        <ele>264.5</ele>
        <time>2024-11-12T09:21:24Z</time>
      </trkpt>
      <trkpt lat="45.84836" lon="1.23305">
        <ele>264.5</ele>
        <time>2024-11-12T09:21:25Z</time>
      </trkpt>
      <trkpt lat="45.84837" lon="1.23307">
        <ele>264.5</ele>
        <time>2024-11-12T09:21:26Z</time>
      </trkpt>
      <trkpt lat="45.84838" lon="1.23308">
        <ele>264.6</ele>
        <time>2024-11-12T09:21:27Z</time>
      </trkpt>
      <trkpt lat="45.84839" lon="1.23309">
        <ele>264.6</ele>
        <time>2024-11-12T09:21:28Z</time>
      </trkpt>
      <trkpt lat="45.8484" lon="1.23311">
        <ele>264.6</ele>
        <time>2024-11-12T09:21:29Z</time>
      </trkpt>
      <trkpt lat="45.84841" lon="1.23312">
        <ele>264.6</ele>
        <time>2024-11-12T09:21:30Z</time>
      </trkpt>
      <trkpt lat="45.84842" lon="1.23315">
        <ele>264.6</ele>
        <time>2024-11-12T09:21:31Z</time>
      </trkpt>
      <trkpt lat="45.84842" lon="1.23316">
        <ele>264.6</ele>
        <time>2024-11-12T09:21:32Z</time>
      </trkpt>
      <trkpt lat="45.84843" lon="1.23317">
        <ele>264.6</ele>
        <time>2024-11-12T09:21:33Z</time>
      </trkpt>
      <trkpt lat="45.84844" lon="1.23318">
        <ele>264.6</ele>
        <time>2024-11-12T09:21:34Z</time>
      </trkpt>
      <trkpt lat="45.84845" lon="1.2332">
        <ele>264.7</ele>
        <time>2024-11-12T09:21:35Z</time>
      </trkpt>
      <trkpt lat="45.84845" lon="1.23321">
        <ele>264.7</ele>
        <time>2024-11-12T09:21:36Z</time>
      </trkpt>
      <trkpt lat="45.84846" lon="1.23323">
        <ele>264.7</ele>
        <time>2024-11-12T09:21:37Z</time>
      </trkpt>
      <trkpt lat="45.84847" lon="1.23324">
        <ele>264.7</ele>
        <time>2024-11-12T09:21:38Z</time>
      </trkpt>
      <trkpt lat="45.84848" lon="1.23326">
        <ele>264.7</ele>
        <time>2024-11-12T09:21:39Z</time>
      </trkpt>
      <trkpt lat="45.84849" lon="1.23328">
        <ele>264.7</ele>
        <time>2024-11-12T09:21:40Z</time>
      </trkpt>
      <trkpt lat="45.84849" lon="1.23329">
        <ele>264.7</ele>
        <time>2024-11-12T09:21:41Z</time>
      </trkpt>
      <trkpt lat="45.8485" lon="1.2333">
        <ele>264.7</ele>
        <time>2024-11-12T09:21:42Z</time>
      </trkpt>
      <trkpt lat="45.84851" lon="1.23331">
        <ele>264.7</ele>
        <time>2024-11-12T09:21:43Z</time>
      </trkpt>
      <trkpt lat="45.84851" lon="1.23333">
        <ele>264.7</ele>
        <time>2024-11-12T09:21:44Z</time>
      </trkpt>
      <trkpt lat="45.84853" lon="1.23335">
        <ele>264.7</ele>
        <time>2024-11-12T09:21:45Z</time>
      </trkpt>
      <trkpt lat="45.84853" lon="1.23336">
        <ele>264.7</ele>
        <time>2024-11-12T09:21:46Z</time>
      </trkpt>
      <trkpt lat="45.84855" lon="1.23337">
        <ele>264.6</ele>
        <time>2024-11-12T09:21:47Z</time>
      </trkpt>
      <trkpt lat="45.84856" lon="1.23336">
        <ele>264.6</ele>
        <time>2024-11-12T09:21:48Z</time>
      </trkpt>
      <trkpt lat="45.84856" lon="1.23334">
        <ele>264.6</ele>
        <time>2024-11-12T09:21:49Z</time>
      </trkpt>
      <trkpt lat="45.84857" lon="1.23333">
        <ele>264.6</ele>
        <time>2024-11-12T09:21:50Z</time>
      </trkpt>
      <trkpt lat="45.84857" lon="1.23333">
        <ele>264.6</ele>
        <time>2024-11-12T09:21:51Z</time>
      </trkpt>
      <trkpt lat="45.84857" lon="1.23334">
        <ele>264.6</ele>
        <time>2024-11-12T09:21:52Z</time>
      </trkpt>
      <trkpt lat="45.84857" lon="1.23334">
        <ele>264.6</ele>
        <time>2024-11-12T09:21:53Z</time>
      </trkpt>
      <trkpt lat="45.84857" lon="1.23335">
        <ele>264.6</ele>
        <time>2024-11-12T09:21:54Z</time>
      </trkpt>
      <trkpt lat="45.84858" lon="1.23335">
        <ele>264.6</ele>
        <time>2024-11-12T09:21:55Z</time>
      </trkpt>
      <trkpt lat="45.84858" lon="1.23336">
        <ele>264.6</ele>
        <time>2024-11-12T09:21:56Z</time>
      </trkpt>
      <trkpt lat="45.84858" lon="1.23336">
        <ele>264.6</ele>
        <time>2024-11-12T09:21:57Z</time>
      </trkpt>
      <trkpt lat="45.84858" lon="1.23337">
        <ele>264.6</ele>
        <time>2024-11-12T09:21:58Z</time>
      </trkpt>
      <trkpt lat="45.84858" lon="1.23338">
        <ele>264.6</ele>
        <time>2024-11-12T09:21:59Z</time>
      </trkpt>
      <trkpt lat="45.84858" lon="1.23338">
        <ele>264.6</ele>
        <time>2024-11-12T09:22:00Z</time>
      </trkpt>
      <trkpt lat="45.84859" lon="1.23339">
        <ele>264.6</ele>
        <time>2024-11-12T09:22:01Z</time>
      </trkpt>
      <trkpt lat="45.84859" lon="1.23339">
        <ele>264.6</ele>
        <time>2024-11-12T09:22:02Z</time>
      </trkpt>
      <trkpt lat="45.8486" lon="1.23343">
        <ele>264.5</ele>
        <time>2024-11-12T09:22:03Z</time>
      </trkpt>
      <trkpt lat="45.84861" lon="1.23347">
        <ele>264.5</ele>
        <time>2024-11-12T09:22:04Z</time>
      </trkpt>
      <trkpt lat="45.84861" lon="1.23349">
        <ele>264.5</ele>
        <time>2024-11-12T09:22:05Z</time>
      </trkpt>
      <trkpt lat="45.84861" lon="1.2335">
        <ele>264.5</ele>
        <time>2024-11-12T09:22:06Z</time>
      </trkpt>
      <trkpt lat="45.84862" lon="1.23352">
        <ele>264.4</ele>
        <time>2024-11-12T09:22:07Z</time>
      </trkpt>
      <trkpt lat="45.84862" lon="1.23354">
        <ele>264.4</ele>
        <time>2024-11-12T09:22:08Z</time>
      </trkpt>
      <trkpt lat="45.84863" lon="1.23357">
        <ele>264.4</ele>
        <time>2024-11-12T09:22:09Z</time>
      </trkpt>
      <trkpt lat="45.84863" lon="1.23359">
        <ele>264.4</ele>
        <time>2024-11-12T09:22:10Z</time>
      </trkpt>
      <trkpt lat="45.84864" lon="1.23361">
        <ele>264.3</ele>
        <time>2024-11-12T09:22:11Z</time>
      </trkpt>
      <trkpt lat="45.84865" lon="1.23363">
        <ele>264.3</ele>
        <time>2024-11-12T09:22:12Z</time>
      </trkpt>
      <trkpt lat="45.84866" lon="1.23366">
        <ele>264.3</ele>
        <time>2024-11-12T09:22:13Z</time>
      </trkpt>
      <trkpt lat="45.84867" lon="1.23367">
        <ele>264.2</ele>
        <time>2024-11-12T09:22:14Z</time>
      </trkpt>
      <trkpt lat="45.84868" lon="1.2337">
        <ele>264.2</ele>
        <time>2024-11-12T09:22:15Z</time>
      </trkpt>
      <trkpt lat="45.84868" lon="1.23371">
        <ele>264.2</ele>
        <time>2024-11-12T09:22:16Z</time>
      </trkpt>
      <trkpt lat="45.84869" lon="1.23373">
        <ele>264.2</ele>
        <time>2024-11-12T09:22:17Z</time>
      </trkpt>
      <trkpt lat="45.8487" lon="1.23375">
        <ele>264.1</ele>
        <time>2024-11-12T09:22:18Z</time>
      </trkpt>
      <trkpt lat="45.84871" lon="1.23377">
        <ele>264.1</ele>
        <time>2024-11-12T09:22:19Z</time>
      </trkpt>
      <trkpt lat="45.84872" lon="1.23379">
        <ele>264.1</ele>
        <time>2024-11-12T09:22:20Z</time>
      </trkpt>
      <trkpt lat="45.84873" lon="1.2338">
        <ele>264.1</ele>
        <time>2024-11-12T09:22:21Z</time>
      </trkpt>
      <trkpt lat="45.84875" lon="1.23383">
        <ele>264.1</ele>
        <time>2024-11-12T09:22:22Z</time>
      </trkpt>
      <trkpt lat="45.84875" lon="1.23384">
        <ele>264.1</ele>
        <time>2024-11-12T09:22:23Z</time>
      </trkpt>
      <trkpt lat="45.84876" lon="1.23385">
        <ele>264.1</ele>
        <time>2024-11-12T09:22:24Z</time>
      </trkpt>
      <trkpt lat="45.84877" lon="1.23387">
        <ele>264</ele>
        <time>2024-11-12T09:22:25Z</time>
      </trkpt>
      <trkpt lat="45.84878" lon="1.23388">
        <ele>264</ele>
        <time>2024-11-12T09:22:26Z</time>
      </trkpt>
      <trkpt lat="45.84879" lon="1.2339">
        <ele>264</ele>
        <time>2024-11-12T09:22:27Z</time>
      </trkpt>
      <trkpt lat="45.84879" lon="1.23392">
        <ele>264</ele>
        <time>2024-11-12T09:22:28Z</time>
      </trkpt>
      <trkpt lat="45.84881" lon="1.23395">
        <ele>264</ele>
        <time>2024-11-12T09:22:29Z</time>
      </trkpt>
      <trkpt lat="45.84881" lon="1.23397">
        <ele>264</ele>
        <time>2024-11-12T09:22:30Z</time>
      </trkpt>
      <trkpt lat="45.84882" lon="1.23397">
        <ele>264</ele>
        <time>2024-11-12T09:22:31Z</time>
      </trkpt>
      <trkpt lat="45.84882" lon="1.23399">
        <ele>264</ele>
        <time>2024-11-12T09:22:32Z</time>
      </trkpt>
      <trkpt lat="45.84883" lon="1.23401">
        <ele>264</ele>
        <time>2024-11-12T09:22:33Z</time>
      </trkpt>
      <trkpt lat="45.84884" lon="1.23403">
        <ele>264</ele>
        <time>2024-11-12T09:22:34Z</time>
      </trkpt>
      <trkpt lat="45.84885" lon="1.23405">
        <ele>264</ele>
        <time>2024-11-12T09:22:35Z</time>
      </trkpt>
      <trkpt lat="45.84885" lon="1.23406">
        <ele>264</ele>
        <time>2024-11-12T09:22:36Z</time>
      </trkpt>
      <trkpt lat="45.84886" lon="1.23408">
        <ele>264</ele>
        <time>2024-11-12T09:22:37Z</time>
      </trkpt>
      <trkpt lat="45.84886" lon="1.2341">
        <ele>264</ele>
        <time>2024-11-12T09:22:38Z</time>
      </trkpt>
      <trkpt lat="45.84889" lon="1.23412">
        <ele>264</ele>
        <time>2024-11-12T09:22:39Z</time>
      </trkpt>
      <trkpt lat="45.84889" lon="1.23413">
        <ele>264</ele>
        <time>2024-11-12T09:22:40Z</time>
      </trkpt>
      <trkpt lat="45.8489" lon="1.23414">
        <ele>264</ele>
        <time>2024-11-12T09:22:41Z</time>
      </trkpt>
      <trkpt lat="45.84891" lon="1.23416">
        <ele>264</ele>
        <time>2024-11-12T09:22:42Z</time>
      </trkpt>
      <trkpt lat="45.84891" lon="1.23418">
        <ele>264</ele>
        <time>2024-11-12T09:22:43Z</time>
      </trkpt>
      <trkpt lat="45.84892" lon="1.23419">
        <ele>264</ele>
        <time>2024-11-12T09:22:44Z</time>
      </trkpt>
      <trkpt lat="45.84893" lon="1.23422">
        <ele>264</ele>
        <time>2024-11-12T09:22:45Z</time>
      </trkpt>
      <trkpt lat="45.84893" lon="1.23423">
        <ele>264</ele>
        <time>2024-11-12T09:22:46Z</time>
      </trkpt>
      <trkpt lat="45.84894" lon="1.23424">
        <ele>264</ele>
        <time>2024-11-12T09:22:47Z</time>
      </trkpt>
      <trkpt lat="45.84894" lon="1.23426">
        <ele>264</ele>
        <time>2024-11-12T09:22:48Z</time>
      </trkpt>
      <trkpt lat="45.84895" lon="1.23427">
        <ele>264</ele>
        <time>2024-11-12T09:22:49Z</time>
      </trkpt>
      <trkpt lat="45.84896" lon="1.23429">
        <ele>264</ele>
        <time>2024-11-12T09:22:50Z</time>
      </trkpt>
      <trkpt lat="45.84896" lon="1.2343">
        <ele>264</ele>
        <time>2024-11-12T09:22:51Z</time>
      </trkpt>
      <trkpt lat="45.84897" lon="1.23433">
        <ele>264</ele>
        <time>2024-11-12T09:22:52Z</time>
      </trkpt>
      <trkpt lat="45.84898" lon="1.23434">
        <ele>264</ele>
        <time>2024-11-12T09:22:53Z</time>
      </trkpt>
      <trkpt lat="45.84898" lon="1.23435">
        <ele>264</ele>
        <time>2024-11-12T09:22:54Z</time>
      </trkpt>
      <trkpt lat="45.84899" lon="1.23438">
        <ele>264</ele>
        <time>2024-11-12T09:22:55Z</time>
      </trkpt>
      <trkpt lat="45.849" lon="1.23439">
        <ele>264</ele>
        <time>2024-11-12T09:22:56Z</time>
      </trkpt>
      <trkpt lat="45.849" lon="1.2344">
        <ele>264</ele>
        <time>2024-11-12T09:22:57Z</time>
      </trkpt>
      <trkpt lat="45.84901" lon="1.23442">
        <ele>264</ele>
        <time>2024-11-12T09:22:58Z</time>
      </trkpt>
      <trkpt lat="45.84902" lon="1.23444">
        <ele>264</ele>
        <time>2024-11-12T09:22:59Z</time>
      </trkpt>
      <trkpt lat="45.84902" lon="1.23446">
        <ele>264</ele>
        <time>2024-11-12T09:23:00Z</time>
      </trkpt>
      <trkpt lat="45.84902" lon="1.23447">
        <ele>264</ele>
        <time>2024-11-12T09:23:01Z</time>
      </trkpt>
      <trkpt lat="45.84903" lon="1.23448">
        <ele>264</ele>
        <time>2024-11-12T09:23:02Z</time>
      </trkpt>
      <trkpt lat="45.84903" lon="1.23449">
        <ele>264</ele>
        <time>2024-11-12T09:23:03Z</time>
      </trkpt>
      <trkpt lat="45.84904" lon="1.2345">
        <ele>264</ele>
        <time>2024-11-12T09:23:04Z</time>
      </trkpt>
      <trkpt lat="45.84904" lon="1.23451">
        <ele>264</ele>
        <time>2024-11-12T09:23:05Z</time>
      </trkpt>
      <trkpt lat="45.84905" lon="1.23452">
        <ele>264</ele>
        <time>2024-11-12T09:23:06Z</time>
      </trkpt>
      <trkpt lat="45.84905" lon="1.23454">
        <ele>264</ele>
        <time>2024-11-12T09:23:07Z</time>
      </trkpt>
      <trkpt lat="45.84906" lon="1.23456">
        <ele>264</ele>
        <time>2024-11-12T09:23:08Z</time>
      </trkpt>
      <trkpt lat="45.84907" lon="1.23458">
        <ele>264</ele>
        <time>2024-11-12T09:23:09Z</time>
      </trkpt>
      <trkpt lat="45.84908" lon="1.23459">
        <ele>263.9</ele>
        <time>2024-11-12T09:23:10Z</time>
      </trkpt>
      <trkpt lat="45.84909" lon="1.23461">
        <ele>263.9</ele>
        <time>2024-11-12T09:23:11Z</time>
      </trkpt>
      <trkpt lat="45.8491" lon="1.23463">
        <ele>263.9</ele>
        <time>2024-11-12T09:23:12Z</time>
      </trkpt>
      <trkpt lat="45.8491" lon="1.23464">
        <ele>263.9</ele>
        <time>2024-11-12T09:23:13Z</time>
      </trkpt>
      <trkpt lat="45.84912" lon="1.23467">
        <ele>263.9</ele>
        <time>2024-11-12T09:23:14Z</time>
      </trkpt>
      <trkpt lat="45.84912" lon="1.23468">
        <ele>263.9</ele>
        <time>2024-11-12T09:23:15Z</time>
      </trkpt>
      <trkpt lat="45.84913" lon="1.23469">
        <ele>263.9</ele>
        <time>2024-11-12T09:23:16Z</time>
      </trkpt>
      <trkpt lat="45.84913" lon="1.23471">
        <ele>263.9</ele>
        <time>2024-11-12T09:23:17Z</time>
      </trkpt>
      <trkpt lat="45.84914" lon="1.23472">
        <ele>263.9</ele>
        <time>2024-11-12T09:23:18Z</time>
      </trkpt>
      <trkpt lat="45.84915" lon="1.23474">
        <ele>263.9</ele>
        <time>2024-11-12T09:23:19Z</time>
      </trkpt>
      <trkpt lat="45.84914" lon="1.23475">
        <ele>263.9</ele>
        <time>2024-11-12T09:23:20Z</time>
      </trkpt>
      <trkpt lat="45.84915" lon="1.23477">
        <ele>263.9</ele>
        <time>2024-11-12T09:23:21Z</time>
      </trkpt>
      <trkpt lat="45.84916" lon="1.2348">
        <ele>263.9</ele>
        <time>2024-11-12T09:23:22Z</time>
      </trkpt>
      <trkpt lat="45.84917" lon="1.23481">
        <ele>263.9</ele>
        <time>2024-11-12T09:23:23Z</time>
      </trkpt>
      <trkpt lat="45.84917" lon="1.23482">
        <ele>263.9</ele>
        <time>2024-11-12T09:23:24Z</time>
      </trkpt>
      <trkpt lat="45.84919" lon="1.23485">
        <ele>263.9</ele>
        <time>2024-11-12T09:23:25Z</time>
      </trkpt>
      <trkpt lat="45.84919" lon="1.23485">
        <ele>263.9</ele>
        <time>2024-11-12T09:23:26Z</time>
      </trkpt>
      <trkpt lat="45.8492" lon="1.23486">
        <ele>264</ele>
        <time>2024-11-12T09:23:27Z</time>
      </trkpt>
      <trkpt lat="45.8492" lon="1.23488">
        <ele>264</ele>
        <time>2024-11-12T09:23:28Z</time>
      </trkpt>
      <trkpt lat="45.84921" lon="1.23488">
        <ele>264</ele>
        <time>2024-11-12T09:23:29Z</time>
      </trkpt>
      <trkpt lat="45.84922" lon="1.23489">
        <ele>264</ele>
        <time>2024-11-12T09:23:30Z</time>
      </trkpt>
      <trkpt lat="45.84923" lon="1.2349">
        <ele>264</ele>
        <time>2024-11-12T09:23:31Z</time>
      </trkpt>
      <trkpt lat="45.84923" lon="1.23491">
        <ele>264</ele>
        <time>2024-11-12T09:23:32Z</time>
      </trkpt>
      <trkpt lat="45.84922" lon="1.23493">
        <ele>264</ele>
        <time>2024-11-12T09:23:33Z</time>
      </trkpt>
      <trkpt lat="45.84922" lon="1.23494">
        <ele>264</ele>
        <time>2024-11-12T09:23:34Z</time>
      </trkpt>
      <trkpt lat="45.84922" lon="1.23496">
        <ele>264</ele>
        <time>2024-11-12T09:23:35Z</time>
      </trkpt>
      <trkpt lat="45.84921" lon="1.23497">
        <ele>264</ele>
        <time>2024-11-12T09:23:36Z</time>
      </trkpt>
      <trkpt lat="45.84919" lon="1.23498">
        <ele>264</ele>
        <time>2024-11-12T09:23:37Z</time>
      </trkpt>
      <trkpt lat="45.84918" lon="1.23498">
        <ele>264</ele>
        <time>2024-11-12T09:23:38Z</time>
      </trkpt>
      <trkpt lat="45.84917" lon="1.23498">
        <ele>264</ele>
        <time>2024-11-12T09:23:39Z</time>
      </trkpt>
      <trkpt lat="45.84916" lon="1.23499">
        <ele>264</ele>
        <time>2024-11-12T09:23:40Z</time>
      </trkpt>
      <trkpt lat="45.84916" lon="1.23499">
        <ele>264</ele>
        <time>2024-11-12T09:23:41Z</time>
      </trkpt>
      <trkpt lat="45.84917" lon="1.235">
        <ele>264</ele>
        <time>2024-11-12T09:23:42Z</time>
      </trkpt>
      <trkpt lat="45.84918" lon="1.235">
        <ele>264</ele>
        <time>2024-11-12T09:23:43Z</time>
      </trkpt>
      <trkpt lat="45.84918" lon="1.23501">
        <ele>264</ele>
        <time>2024-11-12T09:23:44Z</time>
      </trkpt>
      <trkpt lat="45.84918" lon="1.23503">
        <ele>264</ele>
        <time>2024-11-12T09:23:45Z</time>
      </trkpt>
      <trkpt lat="45.84917" lon="1.23507">
        <ele>264</ele>
        <time>2024-11-12T09:23:46Z</time>
      </trkpt>
      <trkpt lat="45.84916" lon="1.23508">
        <ele>264</ele>
        <time>2024-11-12T09:23:47Z</time>
      </trkpt>
      <trkpt lat="45.84916" lon="1.23511">
        <ele>264</ele>
        <time>2024-11-12T09:23:48Z</time>
      </trkpt>
      <trkpt lat="45.84917" lon="1.23513">
        <ele>264</ele>
        <time>2024-11-12T09:23:49Z</time>
      </trkpt>
      <trkpt lat="45.84917" lon="1.23514">
        <ele>264</ele>
        <time>2024-11-12T09:23:50Z</time>
      </trkpt>
      <trkpt lat="45.84918" lon="1.23515">
        <ele>264</ele>
        <time>2024-11-12T09:23:51Z</time>
      </trkpt>
      <trkpt lat="45.84919" lon="1.23516">
        <ele>264</ele>
        <time>2024-11-12T09:23:52Z</time>
      </trkpt>
      <trkpt lat="45.8492" lon="1.23517">
        <ele>264</ele>
        <time>2024-11-12T09:23:53Z</time>
      </trkpt>
      <trkpt lat="45.84921" lon="1.23519">
        <ele>264</ele>
        <time>2024-11-12T09:23:54Z</time>
      </trkpt>
      <trkpt lat="45.84922" lon="1.2352">
        <ele>264</ele>
        <time>2024-11-12T09:23:55Z</time>
      </trkpt>
      <trkpt lat="45.84922" lon="1.23522">
        <ele>264</ele>
        <time>2024-11-12T09:23:56Z</time>
      </trkpt>
      <trkpt lat="45.84923" lon="1.23524">
        <ele>264</ele>
        <time>2024-11-12T09:23:57Z</time>
      </trkpt>
      <trkpt lat="45.84923" lon="1.23525">
        <ele>264.1</ele>
        <time>2024-11-12T09:23:58Z</time>
      </trkpt>
      <trkpt lat="45.84924" lon="1.23528">
        <ele>264.1</ele>
        <time>2024-11-12T09:23:59Z</time>
      </trkpt>
      <trkpt lat="45.84924" lon="1.23529">
        <ele>264.1</ele>
        <time>2024-11-12T09:24:00Z</time>
      </trkpt>
      <trkpt lat="45.84925" lon="1.2353">
        <ele>264.1</ele>
        <time>2024-11-12T09:24:01Z</time>
      </trkpt>
      <trkpt lat="45.84925" lon="1.23532">
        <ele>264.1</ele>
        <time>2024-11-12T09:24:02Z</time>
      </trkpt>
      <trkpt lat="45.84926" lon="1.23534">
        <ele>264.1</ele>
        <time>2024-11-12T09:24:03Z</time>
      </trkpt>
      <trkpt lat="45.84927" lon="1.23536">
        <ele>264.2</ele>
        <time>2024-11-12T09:24:04Z</time>
      </trkpt>
      <trkpt lat="45.84927" lon="1.23537">
        <ele>264.2</ele>
        <time>2024-11-12T09:24:05Z</time>
      </trkpt>
      <trkpt lat="45.84928" lon="1.23538">
        <ele>264.2</ele>
        <time>2024-11-12T09:24:06Z</time>
      </trkpt>
      <trkpt lat="45.84929" lon="1.23539">
        <ele>264.2</ele>
        <time>2024-11-12T09:24:07Z</time>
      </trkpt>
      <trkpt lat="45.8493" lon="1.23541">
        <ele>264.2</ele>
        <time>2024-11-12T09:24:08Z</time>
      </trkpt>
      <trkpt lat="45.8493" lon="1.23542">
        <ele>264.2</ele>
        <time>2024-11-12T09:24:09Z</time>
      </trkpt>
      <trkpt lat="45.84931" lon="1.23543">
        <ele>264.3</ele>
        <time>2024-11-12T09:24:10Z</time>
      </trkpt>
      <trkpt lat="45.84933" lon="1.23545">
        <ele>264.3</ele>
        <time>2024-11-12T09:24:11Z</time>
      </trkpt>
      <trkpt lat="45.84933" lon="1.23546">
        <ele>264.3</ele>
        <time>2024-11-12T09:24:12Z</time>
      </trkpt>
      <trkpt lat="45.84934" lon="1.23546">
        <ele>264.3</ele>
        <time>2024-11-12T09:24:13Z</time>
      </trkpt>
      <trkpt lat="45.84935" lon="1.23548">
        <ele>264.3</ele>
        <time>2024-11-12T09:24:14Z</time>
      </trkpt>
      <trkpt lat="45.84936" lon="1.23548">
        <ele>264.3</ele>
        <time>2024-11-12T09:24:15Z</time>
      </trkpt>
      <trkpt lat="45.84937" lon="1.23549">
        <ele>264.3</ele>
        <time>2024-11-12T09:24:16Z</time>
      </trkpt>
      <trkpt lat="45.84939" lon="1.23551">
        <ele>264.4</ele>
        <time>2024-11-12T09:24:17Z</time>
      </trkpt>
      <trkpt lat="45.84939" lon="1.23552">
        <ele>264.4</ele>
        <time>2024-11-12T09:24:18Z</time>
      </trkpt>
      <trkpt lat="45.8494" lon="1.23553">
        <ele>264.4</ele>
        <time>2024-11-12T09:24:19Z</time>
      </trkpt>
      <trkpt lat="45.84941" lon="1.23553">
        <ele>264.4</ele>
        <time>2024-11-12T09:24:20Z</time>
      </trkpt>
      <trkpt lat="45.84942" lon="1.23554">
        <ele>264.4</ele>
        <time>2024-11-12T09:24:21Z</time>
      </trkpt>
      <trkpt lat="45.84943" lon="1.23555">
        <ele>264.4</ele>
        <time>2024-11-12T09:24:22Z</time>
      </trkpt>
      <trkpt lat="45.84945" lon="1.23556">
        <ele>264.4</ele>
        <time>2024-11-12T09:24:23Z</time>
      </trkpt>
      <trkpt lat="45.84946" lon="1.23557">
        <ele>264.4</ele>
        <time>2024-11-12T09:24:24Z</time>
      </trkpt>
      <trkpt lat="45.84947" lon="1.23558">
        <ele>264.4</ele>
        <time>2024-11-12T09:24:25Z</time>
      </trkpt>
      <trkpt lat="45.84948" lon="1.23559">
        <ele>264.4</ele>
        <time>2024-11-12T09:24:26Z</time>
      </trkpt>
      <trkpt lat="45.84949" lon="1.2356">
        <ele>264.4</ele>
        <time>2024-11-12T09:24:27Z</time>
      </trkpt>
      <trkpt lat="45.8495" lon="1.23561">
        <ele>264.5</ele>
        <time>2024-11-12T09:24:28Z</time>
      </trkpt>
      <trkpt lat="45.84951" lon="1.23562">
        <ele>264.5</ele>
        <time>2024-11-12T09:24:29Z</time>
      </trkpt>
      <trkpt lat="45.84953" lon="1.23564">
        <ele>264.5</ele>
        <time>2024-11-12T09:24:30Z</time>
      </trkpt>
      <trkpt lat="45.84954" lon="1.23564">
        <ele>264.5</ele>
        <time>2024-11-12T09:24:31Z</time>
      </trkpt>
      <trkpt lat="45.84955" lon="1.23565">
        <ele>264.5</ele>
        <time>2024-11-12T09:24:32Z</time>
      </trkpt>
      <trkpt lat="45.84956" lon="1.23566">
        <ele>264.5</ele>
        <time>2024-11-12T09:24:33Z</time>
      </trkpt>
      <trkpt lat="45.84957" lon="1.23566">
        <ele>264.5</ele>
        <time>2024-11-12T09:24:34Z</time>
      </trkpt>
      <trkpt lat="45.84959" lon="1.23567">
        <ele>264.5</ele>
        <time>2024-11-12T09:24:35Z</time>
      </trkpt>
      <trkpt lat="45.8496" lon="1.23568">
        <ele>264.6</ele>
        <time>2024-11-12T09:24:36Z</time>
      </trkpt>
      <trkpt lat="45.84961" lon="1.23569">
        <ele>264.6</ele>
        <time>2024-11-12T09:24:37Z</time>
      </trkpt>
      <trkpt lat="45.84962" lon="1.2357">
        <ele>264.6</ele>
        <time>2024-11-12T09:24:38Z</time>
      </trkpt>
      <trkpt lat="45.84964" lon="1.23571">
        <ele>264.6</ele>
        <time>2024-11-12T09:24:39Z</time>
      </trkpt>
      <trkpt lat="45.84964" lon="1.23572">
        <ele>264.6</ele>
        <time>2024-11-12T09:24:40Z</time>
      </trkpt>
      <trkpt lat="45.84966" lon="1.23574">
        <ele>264.7</ele>
        <time>2024-11-12T09:24:41Z</time>
      </trkpt>
      <trkpt lat="45.84967" lon="1.23575">
        <ele>264.7</ele>
        <time>2024-11-12T09:24:42Z</time>
      </trkpt>
      <trkpt lat="45.84967" lon="1.23576">
        <ele>264.7</ele>
        <time>2024-11-12T09:24:43Z</time>
      </trkpt>
      <trkpt lat="45.84968" lon="1.23578">
        <ele>264.7</ele>
        <time>2024-11-12T09:24:44Z</time>
      </trkpt>
      <trkpt lat="45.84969" lon="1.23581">
        <ele>264.7</ele>
        <time>2024-11-12T09:24:45Z</time>
      </trkpt>
      <trkpt lat="45.8497" lon="1.23582">
        <ele>264.7</ele>
        <time>2024-11-12T09:24:46Z</time>
      </trkpt>
      <trkpt lat="45.8497" lon="1.23583">
        <ele>264.8</ele>
        <time>2024-11-12T09:24:47Z</time>
      </trkpt>
      <trkpt lat="45.84971" lon="1.23584">
        <ele>264.8</ele>
        <time>2024-11-12T09:24:48Z</time>
      </trkpt>
      <trkpt lat="45.84971" lon="1.23586">
        <ele>264.8</ele>
        <time>2024-11-12T09:24:49Z</time>
      </trkpt>
      <trkpt lat="45.84972" lon="1.23587">
        <ele>264.8</ele>
        <time>2024-11-12T09:24:50Z</time>
      </trkpt>
      <trkpt lat="45.84972" lon="1.23588">
        <ele>264.8</ele>
        <time>2024-11-12T09:24:51Z</time>
      </trkpt>
      <trkpt lat="45.84974" lon="1.23591">
        <ele>264.8</ele>
        <time>2024-11-12T09:24:52Z</time>
      </trkpt>
      <trkpt lat="45.84974" lon="1.23592">
        <ele>264.9</ele>
        <time>2024-11-12T09:24:53Z</time>
      </trkpt>
      <trkpt lat="45.84975" lon="1.23593">
        <ele>264.9</ele>
        <time>2024-11-12T09:24:54Z</time>
      </trkpt>
      <trkpt lat="45.84976" lon="1.23596">
        <ele>264.9</ele>
        <time>2024-11-12T09:24:55Z</time>
      </trkpt>
      <trkpt lat="45.84976" lon="1.23597">
        <ele>264.9</ele>
        <time>2024-11-12T09:24:56Z</time>
      </trkpt>
      <trkpt lat="45.84977" lon="1.23598">
        <ele>264.9</ele>
        <time>2024-11-12T09:24:57Z</time>
      </trkpt>
      <trkpt lat="45.84978" lon="1.23599">
        <ele>264.9</ele>
        <time>2024-11-12T09:24:58Z</time>
      </trkpt>
      <trkpt lat="45.84979" lon="1.23602">
        <ele>265</ele>
        <time>2024-11-12T09:24:59Z</time>
      </trkpt>
      <trkpt lat="45.84979" lon="1.23603">
        <ele>265</ele>
        <time>2024-11-12T09:25:00Z</time>
      </trkpt>
      <trkpt lat="45.8498" lon="1.23604">
        <ele>265</ele>
        <time>2024-11-12T09:25:01Z</time>
      </trkpt>
      <trkpt lat="45.8498" lon="1.23605">
        <ele>265</ele>
        <time>2024-11-12T09:25:02Z</time>
      </trkpt>
      <trkpt lat="45.84981" lon="1.23607">
        <ele>265</ele>
        <time>2024-11-12T09:25:03Z</time>
      </trkpt>
      <trkpt lat="45.84982" lon="1.23609">
        <ele>265</ele>
        <time>2024-11-12T09:25:04Z</time>
      </trkpt>
      <trkpt lat="45.84983" lon="1.23611">
        <ele>265</ele>
        <time>2024-11-12T09:25:05Z</time>
      </trkpt>
      <trkpt lat="45.84984" lon="1.23612">
        <ele>265</ele>
        <time>2024-11-12T09:25:06Z</time>
      </trkpt>
      <trkpt lat="45.84984" lon="1.23613">
        <ele>265</ele>
        <time>2024-11-12T09:25:07Z</time>
      </trkpt>
      <trkpt lat="45.84986" lon="1.23615">
        <ele>265.1</ele>
        <time>2024-11-12T09:25:08Z</time>
      </trkpt>
      <trkpt lat="45.84987" lon="1.23615">
        <ele>265.1</ele>
        <time>2024-11-12T09:25:09Z</time>
      </trkpt>
      <trkpt lat="45.84987" lon="1.23616">
        <ele>265.1</ele>
        <time>2024-11-12T09:25:10Z</time>
      </trkpt>
      <trkpt lat="45.84989" lon="1.23618">
        <ele>265.1</ele>
        <time>2024-11-12T09:25:11Z</time>
      </trkpt>
      <trkpt lat="45.8499" lon="1.23619">
        <ele>265.1</ele>
        <time>2024-11-12T09:25:12Z</time>
      </trkpt>
      <trkpt lat="45.8499" lon="1.2362">
        <ele>265.1</ele>
        <time>2024-11-12T09:25:13Z</time>
      </trkpt>
      <trkpt lat="45.84992" lon="1.23621">
        <ele>265.1</ele>
        <time>2024-11-12T09:25:14Z</time>
      </trkpt>
      <trkpt lat="45.84992" lon="1.23622">
        <ele>265.1</ele>
        <time>2024-11-12T09:25:15Z</time>
      </trkpt>
      <trkpt lat="45.84993" lon="1.23624">
        <ele>265.2</ele>
        <time>2024-11-12T09:25:16Z</time>
      </trkpt>
      <trkpt lat="45.84994" lon="1.23625">
        <ele>265.2</ele>
        <time>2024-11-12T09:25:17Z</time>
      </trkpt>
      <trkpt lat="45.84995" lon="1.23626">
        <ele>265.2</ele>
        <time>2024-11-12T09:25:18Z</time>
      </trkpt>
      <trkpt lat="45.84996" lon="1.23627">
        <ele>265.2</ele>
        <time>2024-11-12T09:25:19Z</time>
      </trkpt>
      <trkpt lat="45.84997" lon="1.23629">
        <ele>265.2</ele>
        <time>2024-11-12T09:25:20Z</time>
      </trkpt>
      <trkpt lat="45.84997" lon="1.2363">
        <ele>265.2</ele>
        <time>2024-11-12T09:25:21Z</time>
      </trkpt>
      <trkpt lat="45.84998" lon="1.23631">
        <ele>265.2</ele>
        <time>2024-11-12T09:25:22Z</time>
      </trkpt>
      <trkpt lat="45.84999" lon="1.23633">
        <ele>265.2</ele>
        <time>2024-11-12T09:25:23Z</time>
      </trkpt>
      <trkpt lat="45.85" lon="1.23636">
        <ele>265.3</ele>
        <time>2024-11-12T09:25:24Z</time>
      </trkpt>
      <trkpt lat="45.85001" lon="1.23637">
        <ele>265.3</ele>
        <time>2024-11-12T09:25:25Z</time>
      </trkpt>
      <trkpt lat="45.85001" lon="1.23638">
        <ele>265.3</ele>
        <time>2024-11-12T09:25:26Z</time>
      </trkpt>
      <trkpt lat="45.85002" lon="1.23641">
        <ele>265.3</ele>
        <time>2024-11-12T09:25:27Z</time>
      </trkpt>
      <trkpt lat="45.85002" lon="1.23642">
        <ele>265.3</ele>
        <time>2024-11-12T09:25:28Z</time>
      </trkpt>
      <trkpt lat="45.85002" lon="1.23643">
        <ele>265.3</ele>
        <time>2024-11-12T09:25:29Z</time>
      </trkpt>
      <trkpt lat="45.85002" lon="1.23645">
        <ele>265.4</ele>
        <time>2024-11-12T09:25:30Z</time>
      </trkpt>
      <trkpt lat="45.85003" lon="1.23647">
        <ele>265.4</ele>
        <time>2024-11-12T09:25:31Z</time>
      </trkpt>
      <trkpt lat="45.85003" lon="1.23648">
        <ele>265.4</ele>
        <time>2024-11-12T09:25:32Z</time>
      </trkpt>
      <trkpt lat="45.85004" lon="1.23651">
        <ele>265.4</ele>
        <time>2024-11-12T09:25:33Z</time>
      </trkpt>
      <trkpt lat="45.85004" lon="1.23652">
        <ele>265.4</ele>
        <time>2024-11-12T09:25:34Z</time>
      </trkpt>
      <trkpt lat="45.85005" lon="1.23653">
        <ele>265.4</ele>
        <time>2024-11-12T09:25:35Z</time>
      </trkpt>
      <trkpt lat="45.85006" lon="1.23656">
        <ele>265.5</ele>
        <time>2024-11-12T09:25:36Z</time>
      </trkpt>
      <trkpt lat="45.85006" lon="1.23657">
        <ele>265.5</ele>
        <time>2024-11-12T09:25:37Z</time>
      </trkpt>
      <trkpt lat="45.85007" lon="1.23657">
        <ele>265.5</ele>
        <time>2024-11-12T09:25:38Z</time>
      </trkpt>
      <trkpt lat="45.85008" lon="1.2366">
        <ele>265.5</ele>
        <time>2024-11-12T09:25:39Z</time>
      </trkpt>
      <trkpt lat="45.85009" lon="1.23661">
        <ele>265.5</ele>
        <time>2024-11-12T09:25:40Z</time>
      </trkpt>
      <trkpt lat="45.85009" lon="1.23662">
        <ele>265.5</ele>
        <time>2024-11-12T09:25:41Z</time>
      </trkpt>
      <trkpt lat="45.8501" lon="1.23665">
        <ele>265.6</ele>
        <time>2024-11-12T09:25:42Z</time>
      </trkpt>
      <trkpt lat="45.85011" lon="1.23666">
        <ele>265.6</ele>
        <time>2024-11-12T09:25:43Z</time>
      </trkpt>
      <trkpt lat="45.85011" lon="1.23667">
        <ele>265.6</ele>
        <time>2024-11-12T09:25:44Z</time>
      </trkpt>
      <trkpt lat="45.85012" lon="1.23669">
        <ele>265.6</ele>
        <time>2024-11-12T09:25:45Z</time>
      </trkpt>
      <trkpt lat="45.85013" lon="1.2367">
        <ele>265.6</ele>
        <time>2024-11-12T09:25:46Z</time>
      </trkpt>
      <trkpt lat="45.85013" lon="1.23671">
        <ele>265.7</ele>
        <time>2024-11-12T09:25:47Z</time>
      </trkpt>
      <trkpt lat="45.85014" lon="1.23673">
        <ele>265.7</ele>
        <time>2024-11-12T09:25:48Z</time>
      </trkpt>
      <trkpt lat="45.85015" lon="1.23675">
        <ele>265.7</ele>
        <time>2024-11-12T09:25:49Z</time>
      </trkpt>
      <trkpt lat="45.85015" lon="1.23676">
        <ele>265.7</ele>
        <time>2024-11-12T09:25:50Z</time>
      </trkpt>
      <trkpt lat="45.85016" lon="1.23678">
        <ele>265.7</ele>
        <time>2024-11-12T09:25:51Z</time>
      </trkpt>
      <trkpt lat="45.85016" lon="1.23679">
        <ele>265.7</ele>
        <time>2024-11-12T09:25:52Z</time>
      </trkpt>
      <trkpt lat="45.85017" lon="1.23681">
        <ele>265.7</ele>
        <time>2024-11-12T09:25:53Z</time>
      </trkpt>
      <trkpt lat="45.85018" lon="1.23682">
        <ele>265.7</ele>
        <time>2024-11-12T09:25:54Z</time>
      </trkpt>
      <trkpt lat="45.85019" lon="1.23683">
        <ele>265.7</ele>
        <time>2024-11-12T09:25:55Z</time>
      </trkpt>
      <trkpt lat="45.8502" lon="1.23685">
        <ele>265.8</ele>
        <time>2024-11-12T09:25:56Z</time>
      </trkpt>
      <trkpt lat="45.85021" lon="1.23686">
        <ele>265.8</ele>
        <time>2024-11-12T09:25:57Z</time>
      </trkpt>
      <trkpt lat="45.85021" lon="1.23688">
        <ele>265.8</ele>
        <time>2024-11-12T09:25:58Z</time>
      </trkpt>
      <trkpt lat="45.85022" lon="1.2369">
        <ele>265.8</ele>
        <time>2024-11-12T09:25:59Z</time>
      </trkpt>
      <trkpt lat="45.85023" lon="1.23691">
        <ele>265.8</ele>
        <time>2024-11-12T09:26:00Z</time>
      </trkpt>
      <trkpt lat="45.85024" lon="1.23692">
        <ele>265.8</ele>
        <time>2024-11-12T09:26:01Z</time>
      </trkpt>
      <trkpt lat="45.85024" lon="1.23694">
        <ele>265.8</ele>
        <time>2024-11-12T09:26:02Z</time>
      </trkpt>
      <trkpt lat="45.85025" lon="1.23695">
        <ele>265.8</ele>
        <time>2024-11-12T09:26:03Z</time>
      </trkpt>
      <trkpt lat="45.85026" lon="1.23697">
        <ele>265.8</ele>
        <time>2024-11-12T09:26:04Z</time>
      </trkpt>
      <trkpt lat="45.85027" lon="1.23698">
        <ele>265.8</ele>
        <time>2024-11-12T09:26:05Z</time>
      </trkpt>
      <trkpt lat="45.85028" lon="1.23699">
        <ele>265.8</ele>
        <time>2024-11-12T09:26:06Z</time>
      </trkpt>
      <trkpt lat="45.85029" lon="1.237">
        <ele>265.9</ele>
        <time>2024-11-12T09:26:07Z</time>
      </trkpt>
      <trkpt lat="45.85031" lon="1.23703">
        <ele>265.9</ele>
        <time>2024-11-12T09:26:08Z</time>
      </trkpt>
      <trkpt lat="45.85032" lon="1.23704">
        <ele>265.9</ele>
        <time>2024-11-12T09:26:09Z</time>
      </trkpt>
      <trkpt lat="45.85032" lon="1.23705">
        <ele>265.9</ele>
        <time>2024-11-12T09:26:10Z</time>
      </trkpt>
      <trkpt lat="45.85033" lon="1.23706">
        <ele>265.9</ele>
        <time>2024-11-12T09:26:11Z</time>
      </trkpt>
      <trkpt lat="45.85034" lon="1.23708">
        <ele>265.9</ele>
        <time>2024-11-12T09:26:12Z</time>
      </trkpt>
      <trkpt lat="45.85035" lon="1.23709">
        <ele>265.9</ele>
        <time>2024-11-12T09:26:13Z</time>
      </trkpt>
      <trkpt lat="45.85036" lon="1.23711">
        <ele>265.9</ele>
        <time>2024-11-12T09:26:14Z</time>
      </trkpt>
      <trkpt lat="45.85037" lon="1.23713">
        <ele>266</ele>
        <time>2024-11-12T09:26:15Z</time>
      </trkpt>
      <trkpt lat="45.85038" lon="1.23714">
        <ele>266</ele>
        <time>2024-11-12T09:26:16Z</time>
      </trkpt>
      <trkpt lat="45.85038" lon="1.23715">
        <ele>266</ele>
        <time>2024-11-12T09:26:17Z</time>
      </trkpt>
      <trkpt lat="45.85039" lon="1.23716">
        <ele>266</ele>
        <time>2024-11-12T09:26:18Z</time>
      </trkpt>
      <trkpt lat="45.8504" lon="1.23719">
        <ele>266</ele>
        <time>2024-11-12T09:26:19Z</time>
      </trkpt>
      <trkpt lat="45.8504" lon="1.2372">
        <ele>266</ele>
        <time>2024-11-12T09:26:20Z</time>
      </trkpt>
      <trkpt lat="45.8504" lon="1.23722">
        <ele>266</ele>
        <time>2024-11-12T09:26:21Z</time>
      </trkpt>
      <trkpt lat="45.85041" lon="1.23724">
        <ele>266</ele>
        <time>2024-11-12T09:26:22Z</time>
      </trkpt>
      <trkpt lat="45.85041" lon="1.23726">
        <ele>266.1</ele>
        <time>2024-11-12T09:26:23Z</time>
      </trkpt>
      <trkpt lat="45.85041" lon="1.23728">
        <ele>266.1</ele>
        <time>2024-11-12T09:26:24Z</time>
      </trkpt>
      <trkpt lat="45.85041" lon="1.2373">
        <ele>266.1</ele>
        <time>2024-11-12T09:26:25Z</time>
      </trkpt>
      <trkpt lat="45.85041" lon="1.23731">
        <ele>266.1</ele>
        <time>2024-11-12T09:26:26Z</time>
      </trkpt>
      <trkpt lat="45.85041" lon="1.23733">
        <ele>266.1</ele>
        <time>2024-11-12T09:26:27Z</time>
      </trkpt>
      <trkpt lat="45.85041" lon="1.23735">
        <ele>266.2</ele>
        <time>2024-11-12T09:26:28Z</time>
      </trkpt>
      <trkpt lat="45.85041" lon="1.23737">
        <ele>266.2</ele>
        <time>2024-11-12T09:26:29Z</time>
      </trkpt>
      <trkpt lat="45.85041" lon="1.2374">
        <ele>266.2</ele>
        <time>2024-11-12T09:26:30Z</time>
      </trkpt>
      <trkpt lat="45.85041" lon="1.23742">
        <ele>266.2</ele>
        <time>2024-11-12T09:26:31Z</time>
      </trkpt>
      <trkpt lat="45.85041" lon="1.23743">
        <ele>266.3</ele>
        <time>2024-11-12T09:26:32Z</time>
      </trkpt>
      <trkpt lat="45.85041" lon="1.23746">
        <ele>266.3</ele>
        <time>2024-11-12T09:26:33Z</time>
      </trkpt>
      <trkpt lat="45.85041" lon="1.23747">
        <ele>266.3</ele>
        <time>2024-11-12T09:26:34Z</time>
      </trkpt>
      <trkpt lat="45.85041" lon="1.23748">
        <ele>266.3</ele>
        <time>2024-11-12T09:26:35Z</time>
      </trkpt>
      <trkpt lat="45.85041" lon="1.23751">
        <ele>266.3</ele>
        <time>2024-11-12T09:26:36Z</time>
      </trkpt>
      <trkpt lat="45.85042" lon="1.23752">
        <ele>266.3</ele>
        <time>2024-11-12T09:26:37Z</time>
      </trkpt>
      <trkpt lat="45.85042" lon="1.23754">
        <ele>266.3</ele>
        <time>2024-11-12T09:26:38Z</time>
      </trkpt>
      <trkpt lat="45.85042" lon="1.23757">
        <ele>266.3</ele>
        <time>2024-11-12T09:26:39Z</time>
      </trkpt>
      <trkpt lat="45.85042" lon="1.23758">
        <ele>266.3</ele>
        <time>2024-11-12T09:26:40Z</time>
      </trkpt>
      <trkpt lat="45.85042" lon="1.23759">
        <ele>266.3</ele>
        <time>2024-11-12T09:26:41Z</time>
      </trkpt>
      <trkpt lat="45.85042" lon="1.23761">
        <ele>266.3</ele>
        <time>2024-11-12T09:26:42Z</time>
      </trkpt>
      <trkpt lat="45.85041" lon="1.23763">
        <ele>266.3</ele>
        <time>2024-11-12T09:26:43Z</time>
      </trkpt>
      <trkpt lat="45.85041" lon="1.23767">
        <ele>266.3</ele>
        <time>2024-11-12T09:26:44Z</time>
      </trkpt>
      <trkpt lat="45.85041" lon="1.23768">
        <ele>266.3</ele>
        <time>2024-11-12T09:26:45Z</time>
      </trkpt>
      <trkpt lat="45.8504" lon="1.23769">
        <ele>266.3</ele>
        <time>2024-11-12T09:26:46Z</time>
      </trkpt>
      <trkpt lat="45.8504" lon="1.23772">
        <ele>266.3</ele>
        <time>2024-11-12T09:26:47Z</time>
      </trkpt>
      <trkpt lat="45.8504" lon="1.23773">
        <ele>266.3</ele>
        <time>2024-11-12T09:26:48Z</time>
      </trkpt>
      <trkpt lat="45.8504" lon="1.23774">
        <ele>266.3</ele>
        <time>2024-11-12T09:26:49Z</time>
      </trkpt>
      <trkpt lat="45.85041" lon="1.23777">
        <ele>266.3</ele>
        <time>2024-11-12T09:26:50Z</time>
      </trkpt>
      <trkpt lat="45.85041" lon="1.23778">
        <ele>266.3</ele>
        <time>2024-11-12T09:26:51Z</time>
      </trkpt>
      <trkpt lat="45.85042" lon="1.2378">
        <ele>266.3</ele>
        <time>2024-11-12T09:26:52Z</time>
      </trkpt>
      <trkpt lat="45.85042" lon="1.23781">
        <ele>266.3</ele>
        <time>2024-11-12T09:26:53Z</time>
      </trkpt>
      <trkpt lat="45.85044" lon="1.23783">
        <ele>266.3</ele>
        <time>2024-11-12T09:26:54Z</time>
      </trkpt>
      <trkpt lat="45.85045" lon="1.23784">
        <ele>266.3</ele>
        <time>2024-11-12T09:26:55Z</time>
      </trkpt>
      <trkpt lat="45.85045" lon="1.23785">
        <ele>266.3</ele>
        <time>2024-11-12T09:26:56Z</time>
      </trkpt>
      <trkpt lat="45.85047" lon="1.23787">
        <ele>266.3</ele>
        <time>2024-11-12T09:26:57Z</time>
      </trkpt>
      <trkpt lat="45.85048" lon="1.23788">
        <ele>266.3</ele>
        <time>2024-11-12T09:26:58Z</time>
      </trkpt>
      <trkpt lat="45.85049" lon="1.23789">
        <ele>266.3</ele>
        <time>2024-11-12T09:26:59Z</time>
      </trkpt>
      <trkpt lat="45.8505" lon="1.23791">
        <ele>266.4</ele>
        <time>2024-11-12T09:27:00Z</time>
      </trkpt>
      <trkpt lat="45.85051" lon="1.23793">
        <ele>266.4</ele>
        <time>2024-11-12T09:27:01Z</time>
      </trkpt>
      <trkpt lat="45.85051" lon="1.23794">
        <ele>266.4</ele>
        <time>2024-11-12T09:27:02Z</time>
      </trkpt>
      <trkpt lat="45.85052" lon="1.23795">
        <ele>266.4</ele>
        <time>2024-11-12T09:27:03Z</time>
      </trkpt>
      <trkpt lat="45.85053" lon="1.23798">
        <ele>266.4</ele>
        <time>2024-11-12T09:27:04Z</time>
      </trkpt>
      <trkpt lat="45.85053" lon="1.23799">
        <ele>266.4</ele>
        <time>2024-11-12T09:27:05Z</time>
      </trkpt>
      <trkpt lat="45.85053" lon="1.238">
        <ele>266.4</ele>
        <time>2024-11-12T09:27:06Z</time>
      </trkpt>
      <trkpt lat="45.85054" lon="1.23803">
        <ele>266.5</ele>
        <time>2024-11-12T09:27:07Z</time>
      </trkpt>
      <trkpt lat="45.85055" lon="1.23804">
        <ele>266.5</ele>
        <time>2024-11-12T09:27:08Z</time>
      </trkpt>
      <trkpt lat="45.85055" lon="1.23805">
        <ele>266.5</ele>
        <time>2024-11-12T09:27:09Z</time>
      </trkpt>
      <trkpt lat="45.85055" lon="1.23807">
        <ele>266.5</ele>
        <time>2024-11-12T09:27:10Z</time>
      </trkpt>
      <trkpt lat="45.85056" lon="1.23809">
        <ele>266.5</ele>
        <time>2024-11-12T09:27:11Z</time>
      </trkpt>
      <trkpt lat="45.85056" lon="1.2381">
        <ele>266.6</ele>
        <time>2024-11-12T09:27:12Z</time>
      </trkpt>
      <trkpt lat="45.85057" lon="1.23813">
        <ele>266.6</ele>
        <time>2024-11-12T09:27:13Z</time>
      </trkpt>
      <trkpt lat="45.85057" lon="1.23814">
        <ele>266.6</ele>
        <time>2024-11-12T09:27:14Z</time>
      </trkpt>
      <trkpt lat="45.85058" lon="1.23815">
        <ele>266.6</ele>
        <time>2024-11-12T09:27:15Z</time>
      </trkpt>
      <trkpt lat="45.85058" lon="1.23816">
        <ele>266.7</ele>
        <time>2024-11-12T09:27:16Z</time>
      </trkpt>
      <trkpt lat="45.85058" lon="1.23818">
        <ele>266.7</ele>
        <time>2024-11-12T09:27:17Z</time>
      </trkpt>
      <trkpt lat="45.85059" lon="1.2382">
        <ele>266.7</ele>
        <time>2024-11-12T09:27:18Z</time>
      </trkpt>
      <trkpt lat="45.8506" lon="1.23822">
        <ele>266.8</ele>
        <time>2024-11-12T09:27:19Z</time>
      </trkpt>
      <trkpt lat="45.8506" lon="1.23823">
        <ele>266.8</ele>
        <time>2024-11-12T09:27:20Z</time>
      </trkpt>
      <trkpt lat="45.8506" lon="1.23825">
        <ele>266.8</ele>
        <time>2024-11-12T09:27:21Z</time>
      </trkpt>
      <trkpt lat="45.85061" lon="1.23827">
        <ele>266.8</ele>
        <time>2024-11-12T09:27:22Z</time>
      </trkpt>
      <trkpt lat="45.85062" lon="1.23829">
        <ele>266.9</ele>
        <time>2024-11-12T09:27:23Z</time>
      </trkpt>
      <trkpt lat="45.85062" lon="1.2383">
        <ele>266.9</ele>
        <time>2024-11-12T09:27:24Z</time>
      </trkpt>
      <trkpt lat="45.85063" lon="1.23832">
        <ele>266.9</ele>
        <time>2024-11-12T09:27:25Z</time>
      </trkpt>
      <trkpt lat="45.85064" lon="1.23833">
        <ele>266.9</ele>
        <time>2024-11-12T09:27:26Z</time>
      </trkpt>
      <trkpt lat="45.85064" lon="1.23834">
        <ele>266.9</ele>
        <time>2024-11-12T09:27:27Z</time>
      </trkpt>
      <trkpt lat="45.85065" lon="1.23837">
        <ele>266.9</ele>
        <time>2024-11-12T09:27:28Z</time>
      </trkpt>
      <trkpt lat="45.85066" lon="1.23838">
        <ele>266.9</ele>
        <time>2024-11-12T09:27:29Z</time>
      </trkpt>
      <trkpt lat="45.85066" lon="1.23839">
        <ele>267</ele>
        <time>2024-11-12T09:27:30Z</time>
      </trkpt>
      <trkpt lat="45.85067" lon="1.2384">
        <ele>267</ele>
        <time>2024-11-12T09:27:31Z</time>
      </trkpt>
      <trkpt lat="45.85067" lon="1.23842">
        <ele>267</ele>
        <time>2024-11-12T09:27:32Z</time>
      </trkpt>
      <trkpt lat="45.85068" lon="1.23843">
        <ele>267</ele>
        <time>2024-11-12T09:27:33Z</time>
      </trkpt>
      <trkpt lat="45.85068" lon="1.23846">
        <ele>267</ele>
        <time>2024-11-12T09:27:34Z</time>
      </trkpt>
      <trkpt lat="45.85069" lon="1.23847">
        <ele>267</ele>
        <time>2024-11-12T09:27:35Z</time>
      </trkpt>
      <trkpt lat="45.85069" lon="1.23848">
        <ele>267</ele>
        <time>2024-11-12T09:27:36Z</time>
      </trkpt>
      <trkpt lat="45.8507" lon="1.23851">
        <ele>267</ele>
        <time>2024-11-12T09:27:37Z</time>
      </trkpt>
      <trkpt lat="45.8507" lon="1.23852">
        <ele>267</ele>
        <time>2024-11-12T09:27:38Z</time>
      </trkpt>
      <trkpt lat="45.85071" lon="1.23853">
        <ele>267</ele>
        <time>2024-11-12T09:27:39Z</time>
      </trkpt>
      <trkpt lat="45.85072" lon="1.23855">
        <ele>267</ele>
        <time>2024-11-12T09:27:40Z</time>
      </trkpt>
      <trkpt lat="45.85072" lon="1.23856">
        <ele>267</ele>
        <time>2024-11-12T09:27:41Z</time>
      </trkpt>
      <trkpt lat="45.85074" lon="1.23859">
        <ele>267.1</ele>
        <time>2024-11-12T09:27:42Z</time>
      </trkpt>
      <trkpt lat="45.85075" lon="1.2386">
        <ele>267.1</ele>
        <time>2024-11-12T09:27:43Z</time>
      </trkpt>
      <trkpt lat="45.85075" lon="1.2386">
        <ele>267.1</ele>
        <time>2024-11-12T09:27:44Z</time>
      </trkpt>
      <trkpt lat="45.85077" lon="1.23862">
        <ele>267.1</ele>
        <time>2024-11-12T09:27:45Z</time>
      </trkpt>
      <trkpt lat="45.85077" lon="1.23863">
        <ele>267.1</ele>
        <time>2024-11-12T09:27:46Z</time>
      </trkpt>
      <trkpt lat="45.85079" lon="1.23866">
        <ele>267.1</ele>
        <time>2024-11-12T09:27:47Z</time>
      </trkpt>
      <trkpt lat="45.85079" lon="1.23867">
        <ele>267.2</ele>
        <time>2024-11-12T09:27:48Z</time>
      </trkpt>
      <trkpt lat="45.8508" lon="1.23868">
        <ele>267.2</ele>
        <time>2024-11-12T09:27:49Z</time>
      </trkpt>
      <trkpt lat="45.85081" lon="1.2387">
        <ele>267.2</ele>
        <time>2024-11-12T09:27:50Z</time>
      </trkpt>
      <trkpt lat="45.85081" lon="1.23872">
        <ele>267.2</ele>
        <time>2024-11-12T09:27:51Z</time>
      </trkpt>
      <trkpt lat="45.85082" lon="1.23873">
        <ele>267.2</ele>
        <time>2024-11-12T09:27:52Z</time>
      </trkpt>
      <trkpt lat="45.85082" lon="1.23875">
        <ele>267.2</ele>
        <time>2024-11-12T09:27:53Z</time>
      </trkpt>
      <trkpt lat="45.85082" lon="1.23876">
        <ele>267.2</ele>
        <time>2024-11-12T09:27:54Z</time>
      </trkpt>
      <trkpt lat="45.85083" lon="1.23879">
        <ele>267.3</ele>
        <time>2024-11-12T09:27:55Z</time>
      </trkpt>
      <trkpt lat="45.85083" lon="1.2388">
        <ele>267.3</ele>
        <time>2024-11-12T09:27:56Z</time>
      </trkpt>
      <trkpt lat="45.85084" lon="1.23881">
        <ele>267.3</ele>
        <time>2024-11-12T09:27:57Z</time>
      </trkpt>
      <trkpt lat="45.85084" lon="1.23883">
        <ele>267.3</ele>
        <time>2024-11-12T09:27:58Z</time>
      </trkpt>
      <trkpt lat="45.85084" lon="1.23884">
        <ele>267.3</ele>
        <time>2024-11-12T09:27:59Z</time>
      </trkpt>
      <trkpt lat="45.85085" lon="1.23885">
        <ele>267.3</ele>
        <time>2024-11-12T09:28:00Z</time>
      </trkpt>
      <trkpt lat="45.85087" lon="1.23887">
        <ele>267.4</ele>
        <time>2024-11-12T09:28:01Z</time>
      </trkpt>
      <trkpt lat="45.85088" lon="1.23888">
        <ele>267.4</ele>
        <time>2024-11-12T09:28:02Z</time>
      </trkpt>
      <trkpt lat="45.85089" lon="1.23889">
        <ele>267.4</ele>
        <time>2024-11-12T09:28:03Z</time>
      </trkpt>
      <trkpt lat="45.8509" lon="1.23889">
        <ele>267.4</ele>
        <time>2024-11-12T09:28:04Z</time>
      </trkpt>
      <trkpt lat="45.85091" lon="1.2389">
        <ele>267.4</ele>
        <time>2024-11-12T09:28:05Z</time>
      </trkpt>
      <trkpt lat="45.85094" lon="1.23891">
        <ele>267.4</ele>
        <time>2024-11-12T09:28:06Z</time>
      </trkpt>
      <trkpt lat="45.85094" lon="1.23891">
        <ele>267.4</ele>
        <time>2024-11-12T09:28:07Z</time>
      </trkpt>
      <trkpt lat="45.85095" lon="1.23891">
        <ele>267.4</ele>
        <time>2024-11-12T09:28:08Z</time>
      </trkpt>
      <trkpt lat="45.85097" lon="1.23892">
        <ele>267.4</ele>
        <time>2024-11-12T09:28:09Z</time>
      </trkpt>
      <trkpt lat="45.85098" lon="1.23892">
        <ele>267.4</ele>
        <time>2024-11-12T09:28:10Z</time>
      </trkpt>
      <trkpt lat="45.85099" lon="1.23893">
        <ele>267.4</ele>
        <time>2024-11-12T09:28:11Z</time>
      </trkpt>
      <trkpt lat="45.85101" lon="1.23893">
        <ele>267.4</ele>
        <time>2024-11-12T09:28:12Z</time>
      </trkpt>
      <trkpt lat="45.85102" lon="1.23893">
        <ele>267.4</ele>
        <time>2024-11-12T09:28:13Z</time>
      </trkpt>
      <trkpt lat="45.85103" lon="1.23894">
        <ele>267.4</ele>
        <time>2024-11-12T09:28:14Z</time>
      </trkpt>
      <trkpt lat="45.85104" lon="1.23894">
        <ele>267.4</ele>
        <time>2024-11-12T09:28:15Z</time>
      </trkpt>
      <trkpt lat="45.85106" lon="1.23895">
        <ele>267.4</ele>
        <time>2024-11-12T09:28:16Z</time>
      </trkpt>
      <trkpt lat="45.85107" lon="1.23896">
        <ele>267.4</ele>
        <time>2024-11-12T09:28:17Z</time>
      </trkpt>
      <trkpt lat="45.85108" lon="1.23896">
        <ele>267.4</ele>
        <time>2024-11-12T09:28:18Z</time>
      </trkpt>
      <trkpt lat="45.85109" lon="1.23897">
        <ele>267.4</ele>
        <time>2024-11-12T09:28:19Z</time>
      </trkpt>
      <trkpt lat="45.85111" lon="1.23897">
        <ele>267.4</ele>
        <time>2024-11-12T09:28:20Z</time>
      </trkpt>
      <trkpt lat="45.85112" lon="1.23898">
        <ele>267.4</ele>
        <time>2024-11-12T09:28:21Z</time>
      </trkpt>
      <trkpt lat="45.85113" lon="1.23899">
        <ele>267.4</ele>
        <time>2024-11-12T09:28:22Z</time>
      </trkpt>
      <trkpt lat="45.85114" lon="1.239">
        <ele>267.4</ele>
        <time>2024-11-12T09:28:23Z</time>
      </trkpt>
      <trkpt lat="45.85115" lon="1.23901">
        <ele>267.4</ele>
        <time>2024-11-12T09:28:24Z</time>
      </trkpt>
      <trkpt lat="45.85117" lon="1.23902">
        <ele>267.4</ele>
        <time>2024-11-12T09:28:25Z</time>
      </trkpt>
      <trkpt lat="45.85117" lon="1.23902">
        <ele>267.4</ele>
        <time>2024-11-12T09:28:26Z</time>
      </trkpt>
      <trkpt lat="45.85118" lon="1.23903">
        <ele>267.4</ele>
        <time>2024-11-12T09:28:27Z</time>
      </trkpt>
      <trkpt lat="45.85119" lon="1.23904">
        <ele>267.4</ele>
        <time>2024-11-12T09:28:28Z</time>
      </trkpt>
      <trkpt lat="45.85121" lon="1.23904">
        <ele>267.4</ele>
        <time>2024-11-12T09:28:29Z</time>
      </trkpt>
      <trkpt lat="45.85122" lon="1.23905">
        <ele>267.4</ele>
        <time>2024-11-12T09:28:30Z</time>
      </trkpt>
      <trkpt lat="45.85123" lon="1.23906">
        <ele>267.4</ele>
        <time>2024-11-12T09:28:31Z</time>
      </trkpt>
      <trkpt lat="45.85124" lon="1.23906">
        <ele>267.4</ele>
        <time>2024-11-12T09:28:32Z</time>
      </trkpt>
      <trkpt lat="45.85125" lon="1.23907">
        <ele>267.4</ele>
        <time>2024-11-12T09:28:33Z</time>
      </trkpt>
      <trkpt lat="45.85126" lon="1.23908">
        <ele>267.4</ele>
        <time>2024-11-12T09:28:34Z</time>
      </trkpt>
      <trkpt lat="45.85128" lon="1.23909">
        <ele>267.5</ele>
        <time>2024-11-12T09:28:35Z</time>
      </trkpt>
      <trkpt lat="45.85128" lon="1.23909">
        <ele>267.5</ele>
        <time>2024-11-12T09:28:36Z</time>
      </trkpt>
      <trkpt lat="45.8513" lon="1.2391">
        <ele>267.5</ele>
        <time>2024-11-12T09:28:37Z</time>
      </trkpt>
      <trkpt lat="45.8513" lon="1.23911">
        <ele>267.5</ele>
        <time>2024-11-12T09:28:38Z</time>
      </trkpt>
      <trkpt lat="45.85132" lon="1.23912">
        <ele>267.5</ele>
        <time>2024-11-12T09:28:39Z</time>
      </trkpt>
      <trkpt lat="45.85133" lon="1.23914">
        <ele>267.5</ele>
        <time>2024-11-12T09:28:40Z</time>
      </trkpt>
      <trkpt lat="45.85134" lon="1.23914">
        <ele>267.5</ele>
        <time>2024-11-12T09:28:41Z</time>
      </trkpt>
      <trkpt lat="45.85135" lon="1.23915">
        <ele>267.5</ele>
        <time>2024-11-12T09:28:42Z</time>
      </trkpt>
      <trkpt lat="45.85136" lon="1.23916">
        <ele>267.5</ele>
        <time>2024-11-12T09:28:43Z</time>
      </trkpt>
      <trkpt lat="45.85137" lon="1.23917">
        <ele>267.5</ele>
        <time>2024-11-12T09:28:44Z</time>
      </trkpt>
      <trkpt lat="45.85139" lon="1.23918">
        <ele>267.5</ele>
        <time>2024-11-12T09:28:45Z</time>
      </trkpt>
      <trkpt lat="45.85139" lon="1.23918">
        <ele>267.5</ele>
        <time>2024-11-12T09:28:46Z</time>
      </trkpt>
      <trkpt lat="45.8514" lon="1.23919">
        <ele>267.6</ele>
        <time>2024-11-12T09:28:47Z</time>
      </trkpt>
      <trkpt lat="45.85142" lon="1.23919">
        <ele>267.6</ele>
        <time>2024-11-12T09:28:48Z</time>
      </trkpt>
      <trkpt lat="45.85144" lon="1.2392">
        <ele>267.6</ele>
        <time>2024-11-12T09:28:49Z</time>
      </trkpt>
      <trkpt lat="45.85144" lon="1.23921">
        <ele>267.6</ele>
        <time>2024-11-12T09:28:50Z</time>
      </trkpt>
      <trkpt lat="45.85145" lon="1.23921">
        <ele>267.6</ele>
        <time>2024-11-12T09:28:51Z</time>
      </trkpt>
      <trkpt lat="45.85146" lon="1.23922">
        <ele>267.6</ele>
        <time>2024-11-12T09:28:52Z</time>
      </trkpt>
      <trkpt lat="45.85147" lon="1.23923">
        <ele>267.6</ele>
        <time>2024-11-12T09:28:53Z</time>
      </trkpt>
      <trkpt lat="45.85148" lon="1.23924">
        <ele>267.6</ele>
        <time>2024-11-12T09:28:54Z</time>
      </trkpt>
      <trkpt lat="45.8515" lon="1.23926">
        <ele>267.6</ele>
        <time>2024-11-12T09:28:55Z</time>
      </trkpt>
      <trkpt lat="45.8515" lon="1.23927">
        <ele>267.6</ele>
        <time>2024-11-12T09:28:56Z</time>
      </trkpt>
      <trkpt lat="45.85151" lon="1.23928">
        <ele>267.7</ele>
        <time>2024-11-12T09:28:57Z</time>
      </trkpt>
      <trkpt lat="45.85153" lon="1.23929">
        <ele>267.7</ele>
        <time>2024-11-12T09:28:58Z</time>
      </trkpt>
      <trkpt lat="45.85154" lon="1.2393">
        <ele>267.7</ele>
        <time>2024-11-12T09:28:59Z</time>
      </trkpt>
      <trkpt lat="45.85154" lon="1.23931">
        <ele>267.7</ele>
        <time>2024-11-12T09:29:00Z</time>
      </trkpt>
      <trkpt lat="45.85155" lon="1.23931">
        <ele>267.7</ele>
        <time>2024-11-12T09:29:01Z</time>
      </trkpt>
      <trkpt lat="45.85156" lon="1.23932">
        <ele>267.7</ele>
        <time>2024-11-12T09:29:02Z</time>
      </trkpt>
      <trkpt lat="45.85157" lon="1.23933">
        <ele>267.7</ele>
        <time>2024-11-12T09:29:03Z</time>
      </trkpt>
      <trkpt lat="45.85158" lon="1.23934">
        <ele>267.7</ele>
        <time>2024-11-12T09:29:04Z</time>
      </trkpt>
      <trkpt lat="45.8516" lon="1.23936">
        <ele>267.7</ele>
        <time>2024-11-12T09:29:05Z</time>
      </trkpt>
      <trkpt lat="45.8516" lon="1.23936">
        <ele>267.7</ele>
        <time>2024-11-12T09:29:06Z</time>
      </trkpt>
      <trkpt lat="45.85161" lon="1.23937">
        <ele>267.7</ele>
        <time>2024-11-12T09:29:07Z</time>
      </trkpt>
      <trkpt lat="45.85162" lon="1.23938">
        <ele>267.7</ele>
        <time>2024-11-12T09:29:08Z</time>
      </trkpt>
      <trkpt lat="45.85163" lon="1.2394">
        <ele>267.7</ele>
        <time>2024-11-12T09:29:09Z</time>
      </trkpt>
      <trkpt lat="45.85164" lon="1.23941">
        <ele>267.7</ele>
        <time>2024-11-12T09:29:10Z</time>
      </trkpt>
      <trkpt lat="45.85165" lon="1.23942">
        <ele>267.7</ele>
        <time>2024-11-12T09:29:11Z</time>
      </trkpt>
      <trkpt lat="45.85166" lon="1.23942">
        <ele>267.7</ele>
        <time>2024-11-12T09:29:12Z</time>
      </trkpt>
      <trkpt lat="45.85167" lon="1.23943">
        <ele>267.7</ele>
        <time>2024-11-12T09:29:13Z</time>
      </trkpt>
      <trkpt lat="45.85169" lon="1.23945">
        <ele>267.7</ele>
        <time>2024-11-12T09:29:14Z</time>
      </trkpt>
      <trkpt lat="45.8517" lon="1.23946">
        <ele>267.7</ele>
        <time>2024-11-12T09:29:15Z</time>
      </trkpt>
      <trkpt lat="45.8517" lon="1.23947">
        <ele>267.7</ele>
        <time>2024-11-12T09:29:16Z</time>
      </trkpt>
      <trkpt lat="45.85171" lon="1.23948">
        <ele>267.8</ele>
        <time>2024-11-12T09:29:17Z</time>
      </trkpt>
      <trkpt lat="45.85172" lon="1.23949">
        <ele>267.8</ele>
        <time>2024-11-12T09:29:18Z</time>
      </trkpt>
      <trkpt lat="45.85173" lon="1.23951">
        <ele>267.8</ele>
        <time>2024-11-12T09:29:19Z</time>
      </trkpt>
      <trkpt lat="45.85174" lon="1.23952">
        <ele>267.8</ele>
        <time>2024-11-12T09:29:20Z</time>
      </trkpt>
      <trkpt lat="45.85175" lon="1.23954">
        <ele>267.8</ele>
        <time>2024-11-12T09:29:21Z</time>
      </trkpt>
      <trkpt lat="45.85176" lon="1.23955">
        <ele>267.8</ele>
        <time>2024-11-12T09:29:22Z</time>
      </trkpt>
      <trkpt lat="45.85176" lon="1.23956">
        <ele>267.8</ele>
        <time>2024-11-12T09:29:23Z</time>
      </trkpt>
      <trkpt lat="45.85177" lon="1.23957">
        <ele>267.8</ele>
        <time>2024-11-12T09:29:24Z</time>
      </trkpt>
      <trkpt lat="45.85178" lon="1.23958">
        <ele>267.8</ele>
        <time>2024-11-12T09:29:25Z</time>
      </trkpt>
      <trkpt lat="45.85179" lon="1.23958">
        <ele>267.8</ele>
        <time>2024-11-12T09:29:26Z</time>
      </trkpt>
      <trkpt lat="45.85179" lon="1.23958">
        <ele>267.8</ele>
        <time>2024-11-12T09:29:27Z</time>
      </trkpt>
      <trkpt lat="45.85179" lon="1.23958">
        <ele>267.8</ele>
        <time>2024-11-12T09:29:28Z</time>
      </trkpt>
      <trkpt lat="45.85179" lon="1.23958">
        <ele>267.8</ele>
        <time>2024-11-12T09:29:29Z</time>
      </trkpt>
      <trkpt lat="45.85178" lon="1.23957">
        <ele>267.8</ele>
        <time>2024-11-12T09:29:30Z</time>
      </trkpt>
      <trkpt lat="45.85178" lon="1.23957">
        <ele>267.8</ele>
        <time>2024-11-12T09:29:31Z</time>
      </trkpt>
      <trkpt lat="45.85179" lon="1.23958">
        <ele>267.8</ele>
        <time>2024-11-12T09:29:32Z</time>
      </trkpt>
      <trkpt lat="45.85178" lon="1.23958">
        <ele>267.8</ele>
        <time>2024-11-12T09:29:33Z</time>
      </trkpt>
      <trkpt lat="45.85178" lon="1.23958">
        <ele>267.8</ele>
        <time>2024-11-12T09:29:34Z</time>
      </trkpt>
      <trkpt lat="45.85178" lon="1.23957">
        <ele>267.8</ele>
        <time>2024-11-12T09:29:35Z</time>
      </trkpt>
      <trkpt lat="45.85178" lon="1.23957">
        <ele>267.8</ele>
        <time>2024-11-12T09:29:36Z</time>
      </trkpt>
      <trkpt lat="45.85178" lon="1.23957">
        <ele>267.8</ele>
        <time>2024-11-12T09:29:37Z</time>
      </trkpt>
      <trkpt lat="45.85178" lon="1.23958">
        <ele>267.8</ele>
        <time>2024-11-12T09:29:38Z</time>
      </trkpt>
      <trkpt lat="45.85178" lon="1.23958">
        <ele>267.8</ele>
        <time>2024-11-12T09:29:39Z</time>
      </trkpt>
      <trkpt lat="45.85179" lon="1.23958">
        <ele>267.8</ele>
        <time>2024-11-12T09:29:40Z</time>
      </trkpt>
      <trkpt lat="45.85178" lon="1.23958">
        <ele>267.8</ele>
        <time>2024-11-12T09:29:41Z</time>
      </trkpt>
      <trkpt lat="45.85179" lon="1.23958">
        <ele>267.8</ele>
        <time>2024-11-12T09:29:42Z</time>
      </trkpt>
      <trkpt lat="45.85179" lon="1.23959">
        <ele>267.8</ele>
        <time>2024-11-12T09:29:43Z</time>
      </trkpt>
      <trkpt lat="45.85179" lon="1.23959">
        <ele>267.8</ele>
        <time>2024-11-12T09:29:44Z</time>
      </trkpt>
      <trkpt lat="45.8518" lon="1.23959">
        <ele>267.8</ele>
        <time>2024-11-12T09:29:45Z</time>
      </trkpt>
      <trkpt lat="45.8518" lon="1.23959">
        <ele>267.8</ele>
        <time>2024-11-12T09:29:46Z</time>
      </trkpt>
      <trkpt lat="45.8518" lon="1.23959">
        <ele>267.8</ele>
        <time>2024-11-12T09:29:47Z</time>
      </trkpt>
      <trkpt lat="45.8518" lon="1.2396">
        <ele>267.8</ele>
        <time>2024-11-12T09:29:48Z</time>
      </trkpt>
      <trkpt lat="45.85181" lon="1.2396">
        <ele>267.8</ele>
        <time>2024-11-12T09:29:49Z</time>
      </trkpt>
      <trkpt lat="45.85182" lon="1.23961">
        <ele>267.8</ele>
        <time>2024-11-12T09:29:50Z</time>
      </trkpt>
      <trkpt lat="45.85182" lon="1.23962">
        <ele>267.9</ele>
        <time>2024-11-12T09:29:51Z</time>
      </trkpt>
      <trkpt lat="45.85182" lon="1.23962">
        <ele>267.9</ele>
        <time>2024-11-12T09:29:52Z</time>
      </trkpt>
      <trkpt lat="45.85182" lon="1.23962">
        <ele>267.9</ele>
        <time>2024-11-12T09:29:53Z</time>
      </trkpt>
      <trkpt lat="45.85184" lon="1.23964">
        <ele>267.9</ele>
        <time>2024-11-12T09:29:54Z</time>
      </trkpt>
      <trkpt lat="45.85187" lon="1.23966">
        <ele>267.9</ele>
        <time>2024-11-12T09:29:55Z</time>
      </trkpt>
      <trkpt lat="45.85188" lon="1.23968">
        <ele>267.9</ele>
        <time>2024-11-12T09:29:56Z</time>
      </trkpt>
      <trkpt lat="45.85189" lon="1.23969">
        <ele>267.9</ele>
        <time>2024-11-12T09:29:57Z</time>
      </trkpt>
      <trkpt lat="45.85191" lon="1.2397">
        <ele>267.9</ele>
        <time>2024-11-12T09:29:58Z</time>
      </trkpt>
      <trkpt lat="45.85192" lon="1.23971">
        <ele>267.9</ele>
        <time>2024-11-12T09:29:59Z</time>
      </trkpt>
      <trkpt lat="45.85194" lon="1.23972">
        <ele>267.9</ele>
        <time>2024-11-12T09:30:00Z</time>
      </trkpt>
      <trkpt lat="45.85195" lon="1.23973">
        <ele>267.9</ele>
        <time>2024-11-12T09:30:01Z</time>
      </trkpt>
      <trkpt lat="45.85196" lon="1.23974">
        <ele>267.9</ele>
        <time>2024-11-12T09:30:02Z</time>
      </trkpt>
      <trkpt lat="45.85197" lon="1.23975">
        <ele>268</ele>
        <time>2024-11-12T09:30:03Z</time>
      </trkpt>
      <trkpt lat="45.85198" lon="1.23976">
        <ele>268</ele>
        <time>2024-11-12T09:30:04Z</time>
      </trkpt>
      <trkpt lat="45.852" lon="1.23978">
        <ele>268</ele>
        <time>2024-11-12T09:30:05Z</time>
      </trkpt>
      <trkpt lat="45.852" lon="1.23979">
        <ele>268</ele>
        <time>2024-11-12T09:30:06Z</time>
      </trkpt>
      <trkpt lat="45.85201" lon="1.2398">
        <ele>268</ele>
        <time>2024-11-12T09:30:07Z</time>
      </trkpt>
      <trkpt lat="45.85202" lon="1.23981">
        <ele>268</ele>
        <time>2024-11-12T09:30:08Z</time>
      </trkpt>
      <trkpt lat="45.85204" lon="1.23983">
        <ele>268</ele>
        <time>2024-11-12T09:30:09Z</time>
      </trkpt>
      <trkpt lat="45.85204" lon="1.23984">
        <ele>268</ele>
        <time>2024-11-12T09:30:10Z</time>
      </trkpt>
      <trkpt lat="45.85205" lon="1.23985">
        <ele>268</ele>
        <time>2024-11-12T09:30:11Z</time>
      </trkpt>
      <trkpt lat="45.85207" lon="1.23987">
        <ele>268</ele>
        <time>2024-11-12T09:30:12Z</time>
      </trkpt>
      <trkpt lat="45.85207" lon="1.23988">
        <ele>268</ele>
        <time>2024-11-12T09:30:13Z</time>
      </trkpt>
      <trkpt lat="45.85208" lon="1.23989">
        <ele>268</ele>
        <time>2024-11-12T09:30:14Z</time>
      </trkpt>
      <trkpt lat="45.8521" lon="1.2399">
        <ele>268</ele>
        <time>2024-11-12T09:30:15Z</time>
      </trkpt>
      <trkpt lat="45.8521" lon="1.23991">
        <ele>268</ele>
        <time>2024-11-12T09:30:16Z</time>
      </trkpt>
      <trkpt lat="45.85211" lon="1.23991">
        <ele>268</ele>
        <time>2024-11-12T09:30:17Z</time>
      </trkpt>
      <trkpt lat="45.85213" lon="1.23993">
        <ele>268</ele>
        <time>2024-11-12T09:30:18Z</time>
      </trkpt>
      <trkpt lat="45.85214" lon="1.23994">
        <ele>268</ele>
        <time>2024-11-12T09:30:19Z</time>
      </trkpt>
      <trkpt lat="45.85214" lon="1.23995">
        <ele>268</ele>
        <time>2024-11-12T09:30:20Z</time>
      </trkpt>
      <trkpt lat="45.85216" lon="1.23997">
        <ele>268</ele>
        <time>2024-11-12T09:30:21Z</time>
      </trkpt>
      <trkpt lat="45.85217" lon="1.23997">
        <ele>268</ele>
        <time>2024-11-12T09:30:22Z</time>
      </trkpt>
      <trkpt lat="45.85217" lon="1.23998">
        <ele>268</ele>
        <time>2024-11-12T09:30:23Z</time>
      </trkpt>
      <trkpt lat="45.85218" lon="1.23999">
        <ele>268</ele>
        <time>2024-11-12T09:30:24Z</time>
      </trkpt>
      <trkpt lat="45.8522" lon="1.24001">
        <ele>268</ele>
        <time>2024-11-12T09:30:25Z</time>
      </trkpt>
      <trkpt lat="45.8522" lon="1.24002">
        <ele>268</ele>
        <time>2024-11-12T09:30:26Z</time>
      </trkpt>
      <trkpt lat="45.85221" lon="1.24003">
        <ele>268</ele>
        <time>2024-11-12T09:30:27Z</time>
      </trkpt>
      <trkpt lat="45.85222" lon="1.24004">
        <ele>268</ele>
        <time>2024-11-12T09:30:28Z</time>
      </trkpt>
      <trkpt lat="45.85223" lon="1.24006">
        <ele>268</ele>
        <time>2024-11-12T09:30:29Z</time>
      </trkpt>
      <trkpt lat="45.85224" lon="1.24008">
        <ele>268</ele>
        <time>2024-11-12T09:30:30Z</time>
      </trkpt>
      <trkpt lat="45.85225" lon="1.24008">
        <ele>268</ele>
        <time>2024-11-12T09:30:31Z</time>
      </trkpt>
      <trkpt lat="45.85226" lon="1.24009">
        <ele>268</ele>
        <time>2024-11-12T09:30:32Z</time>
      </trkpt>
      <trkpt lat="45.85227" lon="1.24011">
        <ele>268</ele>
        <time>2024-11-12T09:30:33Z</time>
      </trkpt>
      <trkpt lat="45.85228" lon="1.24012">
        <ele>268</ele>
        <time>2024-11-12T09:30:34Z</time>
      </trkpt>
      <trkpt lat="45.85229" lon="1.24014">
        <ele>268</ele>
        <time>2024-11-12T09:30:35Z</time>
      </trkpt>
      <trkpt lat="45.8523" lon="1.24015">
        <ele>268</ele>
        <time>2024-11-12T09:30:36Z</time>
      </trkpt>
      <trkpt lat="45.8523" lon="1.24016">
        <ele>268</ele>
        <time>2024-11-12T09:30:37Z</time>
      </trkpt>
      <trkpt lat="45.85231" lon="1.24018">
        <ele>268</ele>
        <time>2024-11-12T09:30:38Z</time>
      </trkpt>
      <trkpt lat="45.85232" lon="1.24019">
        <ele>268</ele>
        <time>2024-11-12T09:30:39Z</time>
      </trkpt>
      <trkpt lat="45.85234" lon="1.24021">
        <ele>268</ele>
        <time>2024-11-12T09:30:40Z</time>
      </trkpt>
      <trkpt lat="45.85234" lon="1.24022">
        <ele>268</ele>
        <time>2024-11-12T09:30:41Z</time>
      </trkpt>
      <trkpt lat="45.85235" lon="1.24023">
        <ele>268</ele>
        <time>2024-11-12T09:30:42Z</time>
      </trkpt>
      <trkpt lat="45.85235" lon="1.24025">
        <ele>268</ele>
        <time>2024-11-12T09:30:43Z</time>
      </trkpt>
      <trkpt lat="45.85236" lon="1.24027">
        <ele>268</ele>
        <time>2024-11-12T09:30:44Z</time>
      </trkpt>
      <trkpt lat="45.85237" lon="1.24028">
        <ele>268</ele>
        <time>2024-11-12T09:30:45Z</time>
      </trkpt>
      <trkpt lat="45.85238" lon="1.2403">
        <ele>268</ele>
        <time>2024-11-12T09:30:46Z</time>
      </trkpt>
      <trkpt lat="45.85239" lon="1.24031">
        <ele>268</ele>
        <time>2024-11-12T09:30:47Z</time>
      </trkpt>
      <trkpt lat="45.85241" lon="1.24033">
        <ele>268</ele>
        <time>2024-11-12T09:30:48Z</time>
      </trkpt>
      <trkpt lat="45.85243" lon="1.24034">
        <ele>268</ele>
        <time>2024-11-12T09:30:49Z</time>
      </trkpt>
      <trkpt lat="45.85244" lon="1.24035">
        <ele>268</ele>
        <time>2024-11-12T09:30:50Z</time>
      </trkpt>
      <trkpt lat="45.85245" lon="1.24037">
        <ele>268</ele>
        <time>2024-11-12T09:30:52Z</time>
      </trkpt>
      <trkpt lat="45.85246" lon="1.24037">
        <ele>268</ele>
        <time>2024-11-12T09:30:53Z</time>
      </trkpt>
      <trkpt lat="45.85247" lon="1.24038">
        <ele>268</ele>
        <time>2024-11-12T09:30:54Z</time>
      </trkpt>
      <trkpt lat="45.85248" lon="1.24039">
        <ele>268</ele>
        <time>2024-11-12T09:30:55Z</time>
      </trkpt>
      <trkpt lat="45.85249" lon="1.24039">
        <ele>268</ele>
        <time>2024-11-12T09:30:56Z</time>
      </trkpt>
      <trkpt lat="45.85249" lon="1.24038">
        <ele>268</ele>
        <time>2024-11-12T09:30:57Z</time>
      </trkpt>
      <trkpt lat="45.8525" lon="1.24038">
        <ele>268</ele>
        <time>2024-11-12T09:30:58Z</time>
      </trkpt>
      <trkpt lat="45.85249" lon="1.24038">
        <ele>268</ele>
        <time>2024-11-12T09:30:59Z</time>
      </trkpt>
      <trkpt lat="45.85249" lon="1.24039">
        <ele>268</ele>
        <time>2024-11-12T09:31:00Z</time>
      </trkpt>
      <trkpt lat="45.85249" lon="1.24039">
        <ele>268</ele>
        <time>2024-11-12T09:31:01Z</time>
      </trkpt>
      <trkpt lat="45.85249" lon="1.24038">
        <ele>268</ele>
        <time>2024-11-12T09:31:02Z</time>
      </trkpt>
      <trkpt lat="45.85249" lon="1.24038">
        <ele>268</ele>
        <time>2024-11-12T09:31:03Z</time>
      </trkpt>
      <trkpt lat="45.85249" lon="1.24038">
        <ele>268</ele>
        <time>2024-11-12T09:31:04Z</time>
      </trkpt>
      <trkpt lat="45.8525" lon="1.24038">
        <ele>268</ele>
        <time>2024-11-12T09:31:05Z</time>
      </trkpt>
      <trkpt lat="45.8525" lon="1.24038">
        <ele>268</ele>
        <time>2024-11-12T09:31:06Z</time>
      </trkpt>
      <trkpt lat="45.8525" lon="1.24038">
        <ele>268</ele>
        <time>2024-11-12T09:31:07Z</time>
      </trkpt>
      <trkpt lat="45.8525" lon="1.24038">
        <ele>268</ele>
        <time>2024-11-12T09:31:08Z</time>
      </trkpt>
      <trkpt lat="45.8525" lon="1.24038">
        <ele>268</ele>
        <time>2024-11-12T09:31:09Z</time>
      </trkpt>
      <trkpt lat="45.8525" lon="1.24038">
        <ele>268</ele>
        <time>2024-11-12T09:31:10Z</time>
      </trkpt>
      <trkpt lat="45.8525" lon="1.24038">
        <ele>268</ele>
        <time>2024-11-12T09:31:11Z</time>
      </trkpt>
      <trkpt lat="45.8525" lon="1.24038">
        <ele>268</ele>
        <time>2024-11-12T09:31:12Z</time>
      </trkpt>
      <trkpt lat="45.8525" lon="1.24038">
        <ele>268</ele>
        <time>2024-11-12T09:31:13Z</time>
      </trkpt>
      <trkpt lat="45.8525" lon="1.24038">
        <ele>268</ele>
        <time>2024-11-12T09:31:14Z</time>
      </trkpt>
      <trkpt lat="45.8525" lon="1.24038">
        <ele>268</ele>
        <time>2024-11-12T09:31:15Z</time>
      </trkpt>
      <trkpt lat="45.8525" lon="1.24037">
        <ele>268</ele>
        <time>2024-11-12T09:31:16Z</time>
      </trkpt>
      <trkpt lat="45.8525" lon="1.24037">
        <ele>268</ele>
        <time>2024-11-12T09:31:17Z</time>
      </trkpt>
      <trkpt lat="45.85251" lon="1.24038">
        <ele>268</ele>
        <time>2024-11-12T09:31:18Z</time>
      </trkpt>
      <trkpt lat="45.85251" lon="1.24038">
        <ele>268.1</ele>
        <time>2024-11-12T09:31:19Z</time>
      </trkpt>
      <trkpt lat="45.85252" lon="1.24038">
        <ele>268.1</ele>
        <time>2024-11-12T09:31:20Z</time>
      </trkpt>
      <trkpt lat="45.85252" lon="1.24038">
        <ele>268.1</ele>
        <time>2024-11-12T09:31:21Z</time>
      </trkpt>
      <trkpt lat="45.85255" lon="1.2404">
        <ele>268.1</ele>
        <time>2024-11-12T09:31:22Z</time>
      </trkpt>
      <trkpt lat="45.85258" lon="1.24042">
        <ele>268.1</ele>
        <time>2024-11-12T09:31:23Z</time>
      </trkpt>
      <trkpt lat="45.8526" lon="1.24044">
        <ele>268.1</ele>
        <time>2024-11-12T09:31:24Z</time>
      </trkpt>
      <trkpt lat="45.85261" lon="1.24044">
        <ele>268.1</ele>
        <time>2024-11-12T09:31:25Z</time>
      </trkpt>
      <trkpt lat="45.85263" lon="1.24046">
        <ele>268.1</ele>
        <time>2024-11-12T09:31:26Z</time>
      </trkpt>
      <trkpt lat="45.85264" lon="1.24047">
        <ele>268.1</ele>
        <time>2024-11-12T09:31:27Z</time>
      </trkpt>
      <trkpt lat="45.85265" lon="1.24048">
        <ele>268.2</ele>
        <time>2024-11-12T09:31:28Z</time>
      </trkpt>
      <trkpt lat="45.85266" lon="1.24049">
        <ele>268.2</ele>
        <time>2024-11-12T09:31:29Z</time>
      </trkpt>
      <trkpt lat="45.85267" lon="1.2405">
        <ele>268.2</ele>
        <time>2024-11-12T09:31:30Z</time>
      </trkpt>
      <trkpt lat="45.85268" lon="1.24051">
        <ele>268.2</ele>
        <time>2024-11-12T09:31:31Z</time>
      </trkpt>
      <trkpt lat="45.8527" lon="1.24052">
        <ele>268.2</ele>
        <time>2024-11-12T09:31:32Z</time>
      </trkpt>
      <trkpt lat="45.85271" lon="1.24053">
        <ele>268.2</ele>
        <time>2024-11-12T09:31:33Z</time>
      </trkpt>
      <trkpt lat="45.85272" lon="1.24053">
        <ele>268.2</ele>
        <time>2024-11-12T09:31:34Z</time>
      </trkpt>
      <trkpt lat="45.85273" lon="1.24054">
        <ele>268.2</ele>
        <time>2024-11-12T09:31:35Z</time>
      </trkpt>
      <trkpt lat="45.85274" lon="1.24056">
        <ele>268.2</ele>
        <time>2024-11-12T09:31:36Z</time>
      </trkpt>
      <trkpt lat="45.85273" lon="1.24057">
        <ele>268.2</ele>
        <time>2024-11-12T09:31:37Z</time>
      </trkpt>
      <trkpt lat="45.85273" lon="1.24059">
        <ele>268.2</ele>
        <time>2024-11-12T09:31:38Z</time>
      </trkpt>
      <trkpt lat="45.85274" lon="1.2406">
        <ele>268.3</ele>
        <time>2024-11-12T09:31:39Z</time>
      </trkpt>
      <trkpt lat="45.85274" lon="1.24061">
        <ele>268.3</ele>
        <time>2024-11-12T09:31:40Z</time>
      </trkpt>
      <trkpt lat="45.85275" lon="1.24062">
        <ele>268.3</ele>
        <time>2024-11-12T09:31:41Z</time>
      </trkpt>
      <trkpt lat="45.85275" lon="1.24063">
        <ele>268.3</ele>
        <time>2024-11-12T09:31:42Z</time>
      </trkpt>
      <trkpt lat="45.85276" lon="1.24065">
        <ele>268.3</ele>
        <time>2024-11-12T09:31:43Z</time>
      </trkpt>
      <trkpt lat="45.85277" lon="1.24066">
        <ele>268.3</ele>
        <time>2024-11-12T09:31:44Z</time>
      </trkpt>
      <trkpt lat="45.85278" lon="1.24067">
        <ele>268.3</ele>
        <time>2024-11-12T09:31:45Z</time>
      </trkpt>
      <trkpt lat="45.85278" lon="1.24069">
        <ele>268.3</ele>
        <time>2024-11-12T09:31:46Z</time>
      </trkpt>
      <trkpt lat="45.85279" lon="1.2407">
        <ele>268.3</ele>
        <time>2024-11-12T09:31:47Z</time>
      </trkpt>
      <trkpt lat="45.85279" lon="1.24071">
        <ele>268.3</ele>
        <time>2024-11-12T09:31:48Z</time>
      </trkpt>
      <trkpt lat="45.8528" lon="1.24072">
        <ele>268.3</ele>
        <time>2024-11-12T09:31:49Z</time>
      </trkpt>
      <trkpt lat="45.85281" lon="1.24074">
        <ele>268.3</ele>
        <time>2024-11-12T09:31:50Z</time>
      </trkpt>
      <trkpt lat="45.85282" lon="1.24075">
        <ele>268.3</ele>
        <time>2024-11-12T09:31:51Z</time>
      </trkpt>
      <trkpt lat="45.85282" lon="1.24076">
        <ele>268.3</ele>
        <time>2024-11-12T09:31:52Z</time>
      </trkpt>
      <trkpt lat="45.85283" lon="1.24077">
        <ele>268.4</ele>
        <time>2024-11-12T09:31:53Z</time>
      </trkpt>
      <trkpt lat="45.85285" lon="1.24079">
        <ele>268.4</ele>
        <time>2024-11-12T09:31:54Z</time>
      </trkpt>
      <trkpt lat="45.85285" lon="1.2408">
        <ele>268.4</ele>
        <time>2024-11-12T09:31:55Z</time>
      </trkpt>
      <trkpt lat="45.85286" lon="1.24081">
        <ele>268.4</ele>
        <time>2024-11-12T09:31:56Z</time>
      </trkpt>
      <trkpt lat="45.85287" lon="1.24082">
        <ele>268.4</ele>
        <time>2024-11-12T09:31:57Z</time>
      </trkpt>
      <trkpt lat="45.85287" lon="1.24083">
        <ele>268.4</ele>
        <time>2024-11-12T09:31:58Z</time>
      </trkpt>
      <trkpt lat="45.85288" lon="1.24084">
        <ele>268.4</ele>
        <time>2024-11-12T09:31:59Z</time>
      </trkpt>
      <trkpt lat="45.8529" lon="1.24086">
        <ele>268.4</ele>
        <time>2024-11-12T09:32:00Z</time>
      </trkpt>
      <trkpt lat="45.85291" lon="1.24087">
        <ele>268.4</ele>
        <time>2024-11-12T09:32:01Z</time>
      </trkpt>
      <trkpt lat="45.85291" lon="1.24088">
        <ele>268.4</ele>
        <time>2024-11-12T09:32:02Z</time>
      </trkpt>
      <trkpt lat="45.85292" lon="1.24089">
        <ele>268.4</ele>
        <time>2024-11-12T09:32:03Z</time>
      </trkpt>
      <trkpt lat="45.85293" lon="1.24091">
        <ele>268.4</ele>
        <time>2024-11-12T09:32:04Z</time>
      </trkpt>
      <trkpt lat="45.85293" lon="1.24092">
        <ele>268.4</ele>
        <time>2024-11-12T09:32:05Z</time>
      </trkpt>
      <trkpt lat="45.85295" lon="1.24095">
        <ele>268.4</ele>
        <time>2024-11-12T09:32:06Z</time>
      </trkpt>
      <trkpt lat="45.85295" lon="1.24095">
        <ele>268.4</ele>
        <time>2024-11-12T09:32:07Z</time>
      </trkpt>
      <trkpt lat="45.85296" lon="1.24096">
        <ele>268.5</ele>
        <time>2024-11-12T09:32:08Z</time>
      </trkpt>
      <trkpt lat="45.85298" lon="1.24097">
        <ele>268.5</ele>
        <time>2024-11-12T09:32:09Z</time>
      </trkpt>
      <trkpt lat="45.85299" lon="1.24098">
        <ele>268.5</ele>
        <time>2024-11-12T09:32:10Z</time>
      </trkpt>
      <trkpt lat="45.853" lon="1.24098">
        <ele>268.5</ele>
        <time>2024-11-12T09:32:11Z</time>
      </trkpt>
      <trkpt lat="45.85301" lon="1.24099">
        <ele>268.5</ele>
        <time>2024-11-12T09:32:12Z</time>
      </trkpt>
      <trkpt lat="45.85302" lon="1.241">
        <ele>268.5</ele>
        <time>2024-11-12T09:32:13Z</time>
      </trkpt>
      <trkpt lat="45.85302" lon="1.24101">
        <ele>268.5</ele>
        <time>2024-11-12T09:32:14Z</time>
      </trkpt>
      <trkpt lat="45.85304" lon="1.24102">
        <ele>268.5</ele>
        <time>2024-11-12T09:32:15Z</time>
      </trkpt>
      <trkpt lat="45.85304" lon="1.24103">
        <ele>268.5</ele>
        <time>2024-11-12T09:32:16Z</time>
      </trkpt>
      <trkpt lat="45.85305" lon="1.24104">
        <ele>268.5</ele>
        <time>2024-11-12T09:32:17Z</time>
      </trkpt>
      <trkpt lat="45.85306" lon="1.24106">
        <ele>268.5</ele>
        <time>2024-11-12T09:32:18Z</time>
      </trkpt>
      <trkpt lat="45.85307" lon="1.24107">
        <ele>268.6</ele>
        <time>2024-11-12T09:32:19Z</time>
      </trkpt>
      <trkpt lat="45.85307" lon="1.24108">
        <ele>268.6</ele>
        <time>2024-11-12T09:32:20Z</time>
      </trkpt>
      <trkpt lat="45.85308" lon="1.2411">
        <ele>268.6</ele>
        <time>2024-11-12T09:32:21Z</time>
      </trkpt>
      <trkpt lat="45.85309" lon="1.2411">
        <ele>268.6</ele>
        <time>2024-11-12T09:32:22Z</time>
      </trkpt>
      <trkpt lat="45.8531" lon="1.24111">
        <ele>268.6</ele>
        <time>2024-11-12T09:32:23Z</time>
      </trkpt>
      <trkpt lat="45.85311" lon="1.24113">
        <ele>268.6</ele>
        <time>2024-11-12T09:32:24Z</time>
      </trkpt>
      <trkpt lat="45.85312" lon="1.24114">
        <ele>268.6</ele>
        <time>2024-11-12T09:32:25Z</time>
      </trkpt>
      <trkpt lat="45.85314" lon="1.24116">
        <ele>268.6</ele>
        <time>2024-11-12T09:32:26Z</time>
      </trkpt>
      <trkpt lat="45.85315" lon="1.24117">
        <ele>268.6</ele>
        <time>2024-11-12T09:32:27Z</time>
      </trkpt>
      <trkpt lat="45.85315" lon="1.24117">
        <ele>268.7</ele>
        <time>2024-11-12T09:32:28Z</time>
      </trkpt>
      <trkpt lat="45.85317" lon="1.24119">
        <ele>268.7</ele>
        <time>2024-11-12T09:32:29Z</time>
      </trkpt>
      <trkpt lat="45.85317" lon="1.2412">
        <ele>268.7</ele>
        <time>2024-11-12T09:32:30Z</time>
      </trkpt>
      <trkpt lat="45.85318" lon="1.24121">
        <ele>268.7</ele>
        <time>2024-11-12T09:32:31Z</time>
      </trkpt>
      <trkpt lat="45.85319" lon="1.24122">
        <ele>268.7</ele>
        <time>2024-11-12T09:32:32Z</time>
      </trkpt>
      <trkpt lat="45.8532" lon="1.24123">
        <ele>268.7</ele>
        <time>2024-11-12T09:32:33Z</time>
      </trkpt>
      <trkpt lat="45.85321" lon="1.24124">
        <ele>268.7</ele>
        <time>2024-11-12T09:32:34Z</time>
      </trkpt>
      <trkpt lat="45.85322" lon="1.24125">
        <ele>268.7</ele>
        <time>2024-11-12T09:32:35Z</time>
      </trkpt>
      <trkpt lat="45.85323" lon="1.24126">
        <ele>268.7</ele>
        <time>2024-11-12T09:32:36Z</time>
      </trkpt>
      <trkpt lat="45.85324" lon="1.24127">
        <ele>268.7</ele>
        <time>2024-11-12T09:32:37Z</time>
      </trkpt>
      <trkpt lat="45.85325" lon="1.24128">
        <ele>268.7</ele>
        <time>2024-11-12T09:32:38Z</time>
      </trkpt>
      <trkpt lat="45.85326" lon="1.24128">
        <ele>268.7</ele>
        <time>2024-11-12T09:32:39Z</time>
      </trkpt>
      <trkpt lat="45.85328" lon="1.2413">
        <ele>268.7</ele>
        <time>2024-11-12T09:32:40Z</time>
      </trkpt>
      <trkpt lat="45.85328" lon="1.24131">
        <ele>268.7</ele>
        <time>2024-11-12T09:32:41Z</time>
      </trkpt>
      <trkpt lat="45.85329" lon="1.24132">
        <ele>268.7</ele>
        <time>2024-11-12T09:32:42Z</time>
      </trkpt>
      <trkpt lat="45.8533" lon="1.24133">
        <ele>268.7</ele>
        <time>2024-11-12T09:32:43Z</time>
      </trkpt>
      <trkpt lat="45.85331" lon="1.24134">
        <ele>268.7</ele>
        <time>2024-11-12T09:32:44Z</time>
      </trkpt>
      <trkpt lat="45.85332" lon="1.24136">
        <ele>268.8</ele>
        <time>2024-11-12T09:32:45Z</time>
      </trkpt>
      <trkpt lat="45.85334" lon="1.24137">
        <ele>268.8</ele>
        <time>2024-11-12T09:32:46Z</time>
      </trkpt>
      <trkpt lat="45.85335" lon="1.2414">
        <ele>268.8</ele>
        <time>2024-11-12T09:32:47Z</time>
      </trkpt>
      <trkpt lat="45.85336" lon="1.24141">
        <ele>268.8</ele>
        <time>2024-11-12T09:32:48Z</time>
      </trkpt>
      <trkpt lat="45.85336" lon="1.24141">
        <ele>268.8</ele>
        <time>2024-11-12T09:32:49Z</time>
      </trkpt>
      <trkpt lat="45.85337" lon="1.24144">
        <ele>268.8</ele>
        <time>2024-11-12T09:32:50Z</time>
      </trkpt>
      <trkpt lat="45.85338" lon="1.24145">
        <ele>268.8</ele>
        <time>2024-11-12T09:32:51Z</time>
      </trkpt>
      <trkpt lat="45.85338" lon="1.24146">
        <ele>268.8</ele>
        <time>2024-11-12T09:32:52Z</time>
      </trkpt>
      <trkpt lat="45.8534" lon="1.24148">
        <ele>268.8</ele>
        <time>2024-11-12T09:32:53Z</time>
      </trkpt>
      <trkpt lat="45.8534" lon="1.24149">
        <ele>268.8</ele>
        <time>2024-11-12T09:32:54Z</time>
      </trkpt>
      <trkpt lat="45.85341" lon="1.2415">
        <ele>268.8</ele>
        <time>2024-11-12T09:32:55Z</time>
      </trkpt>
      <trkpt lat="45.85342" lon="1.24152">
        <ele>268.8</ele>
        <time>2024-11-12T09:32:56Z</time>
      </trkpt>
      <trkpt lat="45.85342" lon="1.24153">
        <ele>268.8</ele>
        <time>2024-11-12T09:32:57Z</time>
      </trkpt>
      <trkpt lat="45.85343" lon="1.24154">
        <ele>268.8</ele>
        <time>2024-11-12T09:32:58Z</time>
      </trkpt>
      <trkpt lat="45.85345" lon="1.24155">
        <ele>268.8</ele>
        <time>2024-11-12T09:32:59Z</time>
      </trkpt>
      <trkpt lat="45.85346" lon="1.24156">
        <ele>268.8</ele>
        <time>2024-11-12T09:33:00Z</time>
      </trkpt>
      <trkpt lat="45.85347" lon="1.24156">
        <ele>268.8</ele>
        <time>2024-11-12T09:33:01Z</time>
      </trkpt>
      <trkpt lat="45.85348" lon="1.24157">
        <ele>268.8</ele>
        <time>2024-11-12T09:33:02Z</time>
      </trkpt>
      <trkpt lat="45.85349" lon="1.24157">
        <ele>268.8</ele>
        <time>2024-11-12T09:33:03Z</time>
      </trkpt>
      <trkpt lat="45.8535" lon="1.24157">
        <ele>268.8</ele>
        <time>2024-11-12T09:33:04Z</time>
      </trkpt>
      <trkpt lat="45.85351" lon="1.24157">
        <ele>268.8</ele>
        <time>2024-11-12T09:33:05Z</time>
      </trkpt>
      <trkpt lat="45.85353" lon="1.24158">
        <ele>268.8</ele>
        <time>2024-11-12T09:33:06Z</time>
      </trkpt>
      <trkpt lat="45.85354" lon="1.24158">
        <ele>268.8</ele>
        <time>2024-11-12T09:33:07Z</time>
      </trkpt>
      <trkpt lat="45.85355" lon="1.24159">
        <ele>268.8</ele>
        <time>2024-11-12T09:33:08Z</time>
      </trkpt>
      <trkpt lat="45.85356" lon="1.24159">
        <ele>268.8</ele>
        <time>2024-11-12T09:33:09Z</time>
      </trkpt>
      <trkpt lat="45.85357" lon="1.2416">
        <ele>268.9</ele>
        <time>2024-11-12T09:33:10Z</time>
      </trkpt>
      <trkpt lat="45.85359" lon="1.2416">
        <ele>268.9</ele>
        <time>2024-11-12T09:33:11Z</time>
      </trkpt>
      <trkpt lat="45.85359" lon="1.24161">
        <ele>268.9</ele>
        <time>2024-11-12T09:33:12Z</time>
      </trkpt>
      <trkpt lat="45.8536" lon="1.24161">
        <ele>268.9</ele>
        <time>2024-11-12T09:33:13Z</time>
      </trkpt>
      <trkpt lat="45.85362" lon="1.24162">
        <ele>268.9</ele>
        <time>2024-11-12T09:33:14Z</time>
      </trkpt>
      <trkpt lat="45.85363" lon="1.24162">
        <ele>268.9</ele>
        <time>2024-11-12T09:33:15Z</time>
      </trkpt>
      <trkpt lat="45.85364" lon="1.24163">
        <ele>268.9</ele>
        <time>2024-11-12T09:33:16Z</time>
      </trkpt>
      <trkpt lat="45.85365" lon="1.24164">
        <ele>268.9</ele>
        <time>2024-11-12T09:33:17Z</time>
      </trkpt>
      <trkpt lat="45.85367" lon="1.24164">
        <ele>268.9</ele>
        <time>2024-11-12T09:33:18Z</time>
      </trkpt>
      <trkpt lat="45.85368" lon="1.24164">
        <ele>269</ele>
        <time>2024-11-12T09:33:19Z</time>
      </trkpt>
      <trkpt lat="45.85368" lon="1.24166">
        <ele>269</ele>
        <time>2024-11-12T09:33:20Z</time>
      </trkpt>
      <trkpt lat="45.85369" lon="1.24167">
        <ele>269</ele>
        <time>2024-11-12T09:33:21Z</time>
      </trkpt>
      <trkpt lat="45.8537" lon="1.24168">
        <ele>269</ele>
        <time>2024-11-12T09:33:22Z</time>
      </trkpt>
      <trkpt lat="45.85371" lon="1.24169">
        <ele>269</ele>
        <time>2024-11-12T09:33:23Z</time>
      </trkpt>
      <trkpt lat="45.85372" lon="1.24169">
        <ele>269</ele>
        <time>2024-11-12T09:33:24Z</time>
      </trkpt>
      <trkpt lat="45.85373" lon="1.24169">
        <ele>269.1</ele>
        <time>2024-11-12T09:33:25Z</time>
      </trkpt>
      <trkpt lat="45.85374" lon="1.24169">
        <ele>269.1</ele>
        <time>2024-11-12T09:33:26Z</time>
      </trkpt>
      <trkpt lat="45.85375" lon="1.2417">
        <ele>269.1</ele>
        <time>2024-11-12T09:33:27Z</time>
      </trkpt>
      <trkpt lat="45.85376" lon="1.2417">
        <ele>269.1</ele>
        <time>2024-11-12T09:33:28Z</time>
      </trkpt>
      <trkpt lat="45.85378" lon="1.24171">
        <ele>269.2</ele>
        <time>2024-11-12T09:33:29Z</time>
      </trkpt>
      <trkpt lat="45.85379" lon="1.24172">
        <ele>269.2</ele>
        <time>2024-11-12T09:33:30Z</time>
      </trkpt>
      <trkpt lat="45.8538" lon="1.24173">
        <ele>269.2</ele>
        <time>2024-11-12T09:33:31Z</time>
      </trkpt>
      <trkpt lat="45.8538" lon="1.24173">
        <ele>269.2</ele>
        <time>2024-11-12T09:33:32Z</time>
      </trkpt>
      <trkpt lat="45.85381" lon="1.24174">
        <ele>269.2</ele>
        <time>2024-11-12T09:33:33Z</time>
      </trkpt>
      <trkpt lat="45.85383" lon="1.24175">
        <ele>269.3</ele>
        <time>2024-11-12T09:33:34Z</time>
      </trkpt>
      <trkpt lat="45.85384" lon="1.24175">
        <ele>269.3</ele>
        <time>2024-11-12T09:33:35Z</time>
      </trkpt>
      <trkpt lat="45.85385" lon="1.24176">
        <ele>269.3</ele>
        <time>2024-11-12T09:33:36Z</time>
      </trkpt>
      <trkpt lat="45.85386" lon="1.24176">
        <ele>269.3</ele>
        <time>2024-11-12T09:33:37Z</time>
      </trkpt>
      <trkpt lat="45.85388" lon="1.24175">
        <ele>269.4</ele>
        <time>2024-11-12T09:33:38Z</time>
      </trkpt>
      <trkpt lat="45.85388" lon="1.24174">
        <ele>269.4</ele>
        <time>2024-11-12T09:33:39Z</time>
      </trkpt>
      <trkpt lat="45.85389" lon="1.24172">
        <ele>269.4</ele>
        <time>2024-11-12T09:33:40Z</time>
      </trkpt>
      <trkpt lat="45.85391" lon="1.24172">
        <ele>269.4</ele>
        <time>2024-11-12T09:33:41Z</time>
      </trkpt>
      <trkpt lat="45.85391" lon="1.24172">
        <ele>269.5</ele>
        <time>2024-11-12T09:33:42Z</time>
      </trkpt>
      <trkpt lat="45.85392" lon="1.24172">
        <ele>269.5</ele>
        <time>2024-11-12T09:33:43Z</time>
      </trkpt>
      <trkpt lat="45.85392" lon="1.24172">
        <ele>269.5</ele>
        <time>2024-11-12T09:33:44Z</time>
      </trkpt>
      <trkpt lat="45.85392" lon="1.24173">
        <ele>269.5</ele>
        <time>2024-11-12T09:33:45Z</time>
      </trkpt>
      <trkpt lat="45.85395" lon="1.24173">
        <ele>269.5</ele>
        <time>2024-11-12T09:33:46Z</time>
      </trkpt>
      <trkpt lat="45.85396" lon="1.24174">
        <ele>269.5</ele>
        <time>2024-11-12T09:33:47Z</time>
      </trkpt>
      <trkpt lat="45.85397" lon="1.24175">
        <ele>269.6</ele>
        <time>2024-11-12T09:33:48Z</time>
      </trkpt>
      <trkpt lat="45.85398" lon="1.24176">
        <ele>269.6</ele>
        <time>2024-11-12T09:33:49Z</time>
      </trkpt>
      <trkpt lat="45.85399" lon="1.24177">
        <ele>269.6</ele>
        <time>2024-11-12T09:33:50Z</time>
      </trkpt>
      <trkpt lat="45.85401" lon="1.24179">
        <ele>269.6</ele>
        <time>2024-11-12T09:33:51Z</time>
      </trkpt>
      <trkpt lat="45.85403" lon="1.2418">
        <ele>269.7</ele>
        <time>2024-11-12T09:33:52Z</time>
      </trkpt>
      <trkpt lat="45.85404" lon="1.24181">
        <ele>269.7</ele>
        <time>2024-11-12T09:33:53Z</time>
      </trkpt>
      <trkpt lat="45.85404" lon="1.24182">
        <ele>269.7</ele>
        <time>2024-11-12T09:33:54Z</time>
      </trkpt>
      <trkpt lat="45.85405" lon="1.24183">
        <ele>269.7</ele>
        <time>2024-11-12T09:33:55Z</time>
      </trkpt>
      <trkpt lat="45.85408" lon="1.24184">
        <ele>269.7</ele>
        <time>2024-11-12T09:33:56Z</time>
      </trkpt>
      <trkpt lat="45.85408" lon="1.24185">
        <ele>269.7</ele>
        <time>2024-11-12T09:33:57Z</time>
      </trkpt>
      <trkpt lat="45.85409" lon="1.24185">
        <ele>269.7</ele>
        <time>2024-11-12T09:33:58Z</time>
      </trkpt>
      <trkpt lat="45.85411" lon="1.24186">
        <ele>269.7</ele>
        <time>2024-11-12T09:33:59Z</time>
      </trkpt>
      <trkpt lat="45.85412" lon="1.24186">
        <ele>269.7</ele>
        <time>2024-11-12T09:34:00Z</time>
      </trkpt>
      <trkpt lat="45.85414" lon="1.24187">
        <ele>269.7</ele>
        <time>2024-11-12T09:34:01Z</time>
      </trkpt>
      <trkpt lat="45.85415" lon="1.24187">
        <ele>269.7</ele>
        <time>2024-11-12T09:34:02Z</time>
      </trkpt>
      <trkpt lat="45.85416" lon="1.24188">
        <ele>269.8</ele>
        <time>2024-11-12T09:34:03Z</time>
      </trkpt>
      <trkpt lat="45.85417" lon="1.24188">
        <ele>269.8</ele>
        <time>2024-11-12T09:34:04Z</time>
      </trkpt>
      <trkpt lat="45.85419" lon="1.24188">
        <ele>269.8</ele>
        <time>2024-11-12T09:34:05Z</time>
      </trkpt>
      <trkpt lat="45.8542" lon="1.24189">
        <ele>269.8</ele>
        <time>2024-11-12T09:34:06Z</time>
      </trkpt>
      <trkpt lat="45.85422" lon="1.24189">
        <ele>269.8</ele>
        <time>2024-11-12T09:34:07Z</time>
      </trkpt>
      <trkpt lat="45.85423" lon="1.24189">
        <ele>269.8</ele>
        <time>2024-11-12T09:34:08Z</time>
      </trkpt>
      <trkpt lat="45.85424" lon="1.2419">
        <ele>269.8</ele>
        <time>2024-11-12T09:34:09Z</time>
      </trkpt>
      <trkpt lat="45.85425" lon="1.2419">
        <ele>269.8</ele>
        <time>2024-11-12T09:34:10Z</time>
      </trkpt>
      <trkpt lat="45.85427" lon="1.24189">
        <ele>269.8</ele>
        <time>2024-11-12T09:34:11Z</time>
      </trkpt>
      <trkpt lat="45.85428" lon="1.24189">
        <ele>269.8</ele>
        <time>2024-11-12T09:34:12Z</time>
      </trkpt>
      <trkpt lat="45.85429" lon="1.24188">
        <ele>269.8</ele>
        <time>2024-11-12T09:34:13Z</time>
      </trkpt>
      <trkpt lat="45.85431" lon="1.24188">
        <ele>269.8</ele>
        <time>2024-11-12T09:34:14Z</time>
      </trkpt>
      <trkpt lat="45.85432" lon="1.24187">
        <ele>269.9</ele>
        <time>2024-11-12T09:34:15Z</time>
      </trkpt>
      <trkpt lat="45.85434" lon="1.24187">
        <ele>269.9</ele>
        <time>2024-11-12T09:34:16Z</time>
      </trkpt>
      <trkpt lat="45.85435" lon="1.24187">
        <ele>269.9</ele>
        <time>2024-11-12T09:34:17Z</time>
      </trkpt>
      <trkpt lat="45.85436" lon="1.24187">
        <ele>269.9</ele>
        <time>2024-11-12T09:34:18Z</time>
      </trkpt>
      <trkpt lat="45.85437" lon="1.24187">
        <ele>269.9</ele>
        <time>2024-11-12T09:34:19Z</time>
      </trkpt>
      <trkpt lat="45.85438" lon="1.24187">
        <ele>269.9</ele>
        <time>2024-11-12T09:34:20Z</time>
      </trkpt>
      <trkpt lat="45.8544" lon="1.24187">
        <ele>269.9</ele>
        <time>2024-11-12T09:34:21Z</time>
      </trkpt>
      <trkpt lat="45.85442" lon="1.24188">
        <ele>269.9</ele>
        <time>2024-11-12T09:34:22Z</time>
      </trkpt>
      <trkpt lat="45.85443" lon="1.24188">
        <ele>269.9</ele>
        <time>2024-11-12T09:34:23Z</time>
      </trkpt>
      <trkpt lat="45.85444" lon="1.24188">
        <ele>269.9</ele>
        <time>2024-11-12T09:34:24Z</time>
      </trkpt>
      <trkpt lat="45.85445" lon="1.24189">
        <ele>269.9</ele>
        <time>2024-11-12T09:34:25Z</time>
      </trkpt>
      <trkpt lat="45.85447" lon="1.24189">
        <ele>269.9</ele>
        <time>2024-11-12T09:34:26Z</time>
      </trkpt>
      <trkpt lat="45.85448" lon="1.24189">
        <ele>269.9</ele>
        <time>2024-11-12T09:34:27Z</time>
      </trkpt>
      <trkpt lat="45.8545" lon="1.2419">
        <ele>270</ele>
        <time>2024-11-12T09:34:28Z</time>
      </trkpt>
      <trkpt lat="45.85451" lon="1.2419">
        <ele>270</ele>
        <time>2024-11-12T09:34:29Z</time>
      </trkpt>
      <trkpt lat="45.85453" lon="1.24191">
        <ele>270</ele>
        <time>2024-11-12T09:34:30Z</time>
      </trkpt>
      <trkpt lat="45.85454" lon="1.24191">
        <ele>270</ele>
        <time>2024-11-12T09:34:31Z</time>
      </trkpt>
      <trkpt lat="45.85455" lon="1.24192">
        <ele>270</ele>
        <time>2024-11-12T09:34:32Z</time>
      </trkpt>
      <trkpt lat="45.85456" lon="1.24193">
        <ele>270</ele>
        <time>2024-11-12T09:34:33Z</time>
      </trkpt>
      <trkpt lat="45.85457" lon="1.24193">
        <ele>270</ele>
        <time>2024-11-12T09:34:34Z</time>
      </trkpt>
      <trkpt lat="45.85458" lon="1.24194">
        <ele>270</ele>
        <time>2024-11-12T09:34:35Z</time>
      </trkpt>
      <trkpt lat="45.8546" lon="1.24195">
        <ele>270</ele>
        <time>2024-11-12T09:34:36Z</time>
      </trkpt>
      <trkpt lat="45.85461" lon="1.24195">
        <ele>270</ele>
        <time>2024-11-12T09:34:37Z</time>
      </trkpt>
      <trkpt lat="45.85463" lon="1.24196">
        <ele>270</ele>
        <time>2024-11-12T09:34:38Z</time>
      </trkpt>
      <trkpt lat="45.85463" lon="1.24196">
        <ele>270</ele>
        <time>2024-11-12T09:34:39Z</time>
      </trkpt>
      <trkpt lat="45.85464" lon="1.24197">
        <ele>270</ele>
        <time>2024-11-12T09:34:40Z</time>
      </trkpt>
      <trkpt lat="45.85466" lon="1.24198">
        <ele>270</ele>
        <time>2024-11-12T09:34:41Z</time>
      </trkpt>
      <trkpt lat="45.85467" lon="1.24198">
        <ele>270</ele>
        <time>2024-11-12T09:34:42Z</time>
      </trkpt>
      <trkpt lat="45.85469" lon="1.242">
        <ele>270</ele>
        <time>2024-11-12T09:34:43Z</time>
      </trkpt>
      <trkpt lat="45.85469" lon="1.242">
        <ele>270</ele>
        <time>2024-11-12T09:34:44Z</time>
      </trkpt>
      <trkpt lat="45.8547" lon="1.24201">
        <ele>270</ele>
        <time>2024-11-12T09:34:45Z</time>
      </trkpt>
      <trkpt lat="45.85472" lon="1.24202">
        <ele>270</ele>
        <time>2024-11-12T09:34:46Z</time>
      </trkpt>
      <trkpt lat="45.85473" lon="1.24203">
        <ele>270</ele>
        <time>2024-11-12T09:34:47Z</time>
      </trkpt>
      <trkpt lat="45.85474" lon="1.24203">
        <ele>270</ele>
        <time>2024-11-12T09:34:48Z</time>
      </trkpt>
      <trkpt lat="45.85476" lon="1.24205">
        <ele>270</ele>
        <time>2024-11-12T09:34:49Z</time>
      </trkpt>
      <trkpt lat="45.85477" lon="1.24206">
        <ele>270</ele>
        <time>2024-11-12T09:34:50Z</time>
      </trkpt>
      <trkpt lat="45.85478" lon="1.24206">
        <ele>270</ele>
        <time>2024-11-12T09:34:51Z</time>
      </trkpt>
      <trkpt lat="45.85478" lon="1.24207">
        <ele>270</ele>
        <time>2024-11-12T09:34:52Z</time>
      </trkpt>
      <trkpt lat="45.85479" lon="1.24208">
        <ele>270</ele>
        <time>2024-11-12T09:34:53Z</time>
      </trkpt>
      <trkpt lat="45.85481" lon="1.24208">
        <ele>270</ele>
        <time>2024-11-12T09:34:54Z</time>
      </trkpt>
      <trkpt lat="45.85482" lon="1.24209">
        <ele>270</ele>
        <time>2024-11-12T09:34:55Z</time>
      </trkpt>
      <trkpt lat="45.85483" lon="1.24211">
        <ele>270</ele>
        <time>2024-11-12T09:34:56Z</time>
      </trkpt>
      <trkpt lat="45.85484" lon="1.24211">
        <ele>270</ele>
        <time>2024-11-12T09:34:57Z</time>
      </trkpt>
      <trkpt lat="45.85485" lon="1.24212">
        <ele>270</ele>
        <time>2024-11-12T09:34:58Z</time>
      </trkpt>
      <trkpt lat="45.85486" lon="1.24213">
        <ele>270</ele>
        <time>2024-11-12T09:34:59Z</time>
      </trkpt>
      <trkpt lat="45.85488" lon="1.24214">
        <ele>270</ele>
        <time>2024-11-12T09:35:00Z</time>
      </trkpt>
      <trkpt lat="45.85489" lon="1.24215">
        <ele>270</ele>
        <time>2024-11-12T09:35:01Z</time>
      </trkpt>
      <trkpt lat="45.85489" lon="1.24216">
        <ele>270</ele>
        <time>2024-11-12T09:35:02Z</time>
      </trkpt>
      <trkpt lat="45.85491" lon="1.24218">
        <ele>270.1</ele>
        <time>2024-11-12T09:35:03Z</time>
      </trkpt>
      <trkpt lat="45.85492" lon="1.24218">
        <ele>270.1</ele>
        <time>2024-11-12T09:35:04Z</time>
      </trkpt>
      <trkpt lat="45.85492" lon="1.24219">
        <ele>270.1</ele>
        <time>2024-11-12T09:35:05Z</time>
      </trkpt>
      <trkpt lat="45.85493" lon="1.2422">
        <ele>270.1</ele>
        <time>2024-11-12T09:35:06Z</time>
      </trkpt>
      <trkpt lat="45.85494" lon="1.24222">
        <ele>270.1</ele>
        <time>2024-11-12T09:35:07Z</time>
      </trkpt>
      <trkpt lat="45.85496" lon="1.24224">
        <ele>270.1</ele>
        <time>2024-11-12T09:35:08Z</time>
      </trkpt>
      <trkpt lat="45.85496" lon="1.24225">
        <ele>270.1</ele>
        <time>2024-11-12T09:35:09Z</time>
      </trkpt>
      <trkpt lat="45.85497" lon="1.24226">
        <ele>270.1</ele>
        <time>2024-11-12T09:35:10Z</time>
      </trkpt>
      <trkpt lat="45.85498" lon="1.24228">
        <ele>270.1</ele>
        <time>2024-11-12T09:35:11Z</time>
      </trkpt>
      <trkpt lat="45.85498" lon="1.2423">
        <ele>270.2</ele>
        <time>2024-11-12T09:35:12Z</time>
      </trkpt>
      <trkpt lat="45.85499" lon="1.24231">
        <ele>270.2</ele>
        <time>2024-11-12T09:35:13Z</time>
      </trkpt>
      <trkpt lat="45.855" lon="1.24233">
        <ele>270.2</ele>
        <time>2024-11-12T09:35:14Z</time>
      </trkpt>
      <trkpt lat="45.85501" lon="1.24234">
        <ele>270.2</ele>
        <time>2024-11-12T09:35:15Z</time>
      </trkpt>
      <trkpt lat="45.85501" lon="1.24235">
        <ele>270.2</ele>
        <time>2024-11-12T09:35:16Z</time>
      </trkpt>
      <trkpt lat="45.85502" lon="1.24238">
        <ele>270.3</ele>
        <time>2024-11-12T09:35:17Z</time>
      </trkpt>
      <trkpt lat="45.85503" lon="1.24238">
        <ele>270.3</ele>
        <time>2024-11-12T09:35:18Z</time>
      </trkpt>
      <trkpt lat="45.85504" lon="1.24239">
        <ele>270.3</ele>
        <time>2024-11-12T09:35:19Z</time>
      </trkpt>
      <trkpt lat="45.85505" lon="1.2424">
        <ele>270.3</ele>
        <time>2024-11-12T09:35:20Z</time>
      </trkpt>
      <trkpt lat="45.85506" lon="1.24242">
        <ele>270.3</ele>
        <time>2024-11-12T09:35:21Z</time>
      </trkpt>
      <trkpt lat="45.85506" lon="1.24243">
        <ele>270.4</ele>
        <time>2024-11-12T09:35:22Z</time>
      </trkpt>
      <trkpt lat="45.85508" lon="1.24245">
        <ele>270.4</ele>
        <time>2024-11-12T09:35:23Z</time>
      </trkpt>
      <trkpt lat="45.85509" lon="1.24246">
        <ele>270.4</ele>
        <time>2024-11-12T09:35:24Z</time>
      </trkpt>
      <trkpt lat="45.8551" lon="1.24247">
        <ele>270.5</ele>
        <time>2024-11-12T09:35:25Z</time>
      </trkpt>
      <trkpt lat="45.85511" lon="1.24248">
        <ele>270.5</ele>
        <time>2024-11-12T09:35:26Z</time>
      </trkpt>
      <trkpt lat="45.85512" lon="1.24249">
        <ele>270.5</ele>
        <time>2024-11-12T09:35:27Z</time>
      </trkpt>
      <trkpt lat="45.85514" lon="1.2425">
        <ele>270.6</ele>
        <time>2024-11-12T09:35:28Z</time>
      </trkpt>
      <trkpt lat="45.85515" lon="1.24251">
        <ele>270.6</ele>
        <time>2024-11-12T09:35:29Z</time>
      </trkpt>
      <trkpt lat="45.85516" lon="1.24252">
        <ele>270.6</ele>
        <time>2024-11-12T09:35:30Z</time>
      </trkpt>
      <trkpt lat="45.85517" lon="1.24254">
        <ele>270.7</ele>
        <time>2024-11-12T09:35:31Z</time>
      </trkpt>
      <trkpt lat="45.85518" lon="1.24255">
        <ele>270.7</ele>
        <time>2024-11-12T09:35:32Z</time>
      </trkpt>
      <trkpt lat="45.85518" lon="1.24256">
        <ele>270.8</ele>
        <time>2024-11-12T09:35:33Z</time>
      </trkpt>
      <trkpt lat="45.85519" lon="1.24258">
        <ele>270.8</ele>
        <time>2024-11-12T09:35:34Z</time>
      </trkpt>
      <trkpt lat="45.85519" lon="1.2426">
        <ele>270.9</ele>
        <time>2024-11-12T09:35:35Z</time>
      </trkpt>
      <trkpt lat="45.85519" lon="1.24263">
        <ele>270.9</ele>
        <time>2024-11-12T09:35:36Z</time>
      </trkpt>
      <trkpt lat="45.85518" lon="1.24264">
        <ele>270.9</ele>
        <time>2024-11-12T09:35:37Z</time>
      </trkpt>
      <trkpt lat="45.85518" lon="1.24265">
        <ele>271</ele>
        <time>2024-11-12T09:35:38Z</time>
      </trkpt>
      <trkpt lat="45.85516" lon="1.24267">
        <ele>271</ele>
        <time>2024-11-12T09:35:39Z</time>
      </trkpt>
      <trkpt lat="45.85516" lon="1.24268">
        <ele>271</ele>
        <time>2024-11-12T09:35:40Z</time>
      </trkpt>
      <trkpt lat="45.85515" lon="1.24269">
        <ele>271.1</ele>
        <time>2024-11-12T09:35:41Z</time>
      </trkpt>
      <trkpt lat="45.85514" lon="1.24272">
        <ele>271.1</ele>
        <time>2024-11-12T09:35:42Z</time>
      </trkpt>
      <trkpt lat="45.85513" lon="1.24273">
        <ele>271.1</ele>
        <time>2024-11-12T09:35:43Z</time>
      </trkpt>
      <trkpt lat="45.85513" lon="1.24274">
        <ele>271.2</ele>
        <time>2024-11-12T09:35:44Z</time>
      </trkpt>
      <trkpt lat="45.85511" lon="1.24276">
        <ele>271.2</ele>
        <time>2024-11-12T09:35:45Z</time>
      </trkpt>
      <trkpt lat="45.85511" lon="1.24277">
        <ele>271.2</ele>
        <time>2024-11-12T09:35:46Z</time>
      </trkpt>
      <trkpt lat="45.8551" lon="1.24278">
        <ele>271.3</ele>
        <time>2024-11-12T09:35:47Z</time>
      </trkpt>
      <trkpt lat="45.85508" lon="1.24278">
        <ele>271.4</ele>
        <time>2024-11-12T09:35:48Z</time>
      </trkpt>
      <trkpt lat="45.85507" lon="1.24278">
        <ele>271.4</ele>
        <time>2024-11-12T09:35:49Z</time>
      </trkpt>
      <trkpt lat="45.85506" lon="1.24278">
        <ele>271.5</ele>
        <time>2024-11-12T09:35:50Z</time>
      </trkpt>
      <trkpt lat="45.85505" lon="1.24277">
        <ele>271.6</ele>
        <time>2024-11-12T09:35:51Z</time>
      </trkpt>
      <trkpt lat="45.85504" lon="1.24277">
        <ele>271.6</ele>
        <time>2024-11-12T09:35:52Z</time>
      </trkpt>
      <trkpt lat="45.85503" lon="1.24276">
        <ele>271.7</ele>
        <time>2024-11-12T09:35:53Z</time>
      </trkpt>
      <trkpt lat="45.85501" lon="1.24275">
        <ele>271.8</ele>
        <time>2024-11-12T09:35:54Z</time>
      </trkpt>
      <trkpt lat="45.855" lon="1.24274">
        <ele>271.8</ele>
        <time>2024-11-12T09:35:55Z</time>
      </trkpt>
      <trkpt lat="45.855" lon="1.24274">
        <ele>271.8</ele>
        <time>2024-11-12T09:35:56Z</time>
      </trkpt>
      <trkpt lat="45.85498" lon="1.24271">
        <ele>271.9</ele>
        <time>2024-11-12T09:35:57Z</time>
      </trkpt>
      <trkpt lat="45.85497" lon="1.24271">
        <ele>272</ele>
        <time>2024-11-12T09:35:58Z</time>
      </trkpt>
      <trkpt lat="45.85497" lon="1.2427">
        <ele>272</ele>
        <time>2024-11-12T09:35:59Z</time>
      </trkpt>
      <trkpt lat="45.85496" lon="1.24269">
        <ele>272</ele>
        <time>2024-11-12T09:36:00Z</time>
      </trkpt>
      <trkpt lat="45.85495" lon="1.24268">
        <ele>272.1</ele>
        <time>2024-11-12T09:36:01Z</time>
      </trkpt>
      <trkpt lat="45.85494" lon="1.24267">
        <ele>272.1</ele>
        <time>2024-11-12T09:36:02Z</time>
      </trkpt>
      <trkpt lat="45.85493" lon="1.24267">
        <ele>272.1</ele>
        <time>2024-11-12T09:36:03Z</time>
      </trkpt>
      <trkpt lat="45.85492" lon="1.24266">
        <ele>272.2</ele>
        <time>2024-11-12T09:36:04Z</time>
      </trkpt>
      <trkpt lat="45.85491" lon="1.24265">
        <ele>272.2</ele>
        <time>2024-11-12T09:36:05Z</time>
      </trkpt>
      <trkpt lat="45.8549" lon="1.24264">
        <ele>272.2</ele>
        <time>2024-11-12T09:36:06Z</time>
      </trkpt>
      <trkpt lat="45.85489" lon="1.24263">
        <ele>272.2</ele>
        <time>2024-11-12T09:36:07Z</time>
      </trkpt>
      <trkpt lat="45.85488" lon="1.24262">
        <ele>272.3</ele>
        <time>2024-11-12T09:36:08Z</time>
      </trkpt>
      <trkpt lat="45.85486" lon="1.24261">
        <ele>272.3</ele>
        <time>2024-11-12T09:36:09Z</time>
      </trkpt>
      <trkpt lat="45.85485" lon="1.24261">
        <ele>272.3</ele>
        <time>2024-11-12T09:36:10Z</time>
      </trkpt>
      <trkpt lat="45.85484" lon="1.2426">
        <ele>272.3</ele>
        <time>2024-11-12T09:36:11Z</time>
      </trkpt>
      <trkpt lat="45.85483" lon="1.24259">
        <ele>272.3</ele>
        <time>2024-11-12T09:36:12Z</time>
      </trkpt>
      <trkpt lat="45.85482" lon="1.24258">
        <ele>272.3</ele>
        <time>2024-11-12T09:36:13Z</time>
      </trkpt>
      <trkpt lat="45.85481" lon="1.24257">
        <ele>272.3</ele>
        <time>2024-11-12T09:36:14Z</time>
      </trkpt>
      <trkpt lat="45.8548" lon="1.24256">
        <ele>272.3</ele>
        <time>2024-11-12T09:36:15Z</time>
      </trkpt>
      <trkpt lat="45.85479" lon="1.24254">
        <ele>272.3</ele>
        <time>2024-11-12T09:36:16Z</time>
      </trkpt>
      <trkpt lat="45.85478" lon="1.24253">
        <ele>272.3</ele>
        <time>2024-11-12T09:36:17Z</time>
      </trkpt>
      <trkpt lat="45.85477" lon="1.24252">
        <ele>272.3</ele>
        <time>2024-11-12T09:36:18Z</time>
      </trkpt>
      <trkpt lat="45.85476" lon="1.24251">
        <ele>272.3</ele>
        <time>2024-11-12T09:36:19Z</time>
      </trkpt>
      <trkpt lat="45.85475" lon="1.2425">
        <ele>272.3</ele>
        <time>2024-11-12T09:36:20Z</time>
      </trkpt>
      <trkpt lat="45.85474" lon="1.24249">
        <ele>272.3</ele>
        <time>2024-11-12T09:36:21Z</time>
      </trkpt>
      <trkpt lat="45.85473" lon="1.24248">
        <ele>272.2</ele>
        <time>2024-11-12T09:36:22Z</time>
      </trkpt>
      <trkpt lat="45.85474" lon="1.24248">
        <ele>272.2</ele>
        <time>2024-11-12T09:36:23Z</time>
      </trkpt>
      <trkpt lat="45.85474" lon="1.24248">
        <ele>272.2</ele>
        <time>2024-11-12T09:36:24Z</time>
      </trkpt>
      <trkpt lat="45.85475" lon="1.24249">
        <ele>272.2</ele>
        <time>2024-11-12T09:36:25Z</time>
      </trkpt>
      <trkpt lat="45.85475" lon="1.24249">
        <ele>272.2</ele>
        <time>2024-11-12T09:36:26Z</time>
      </trkpt>
      <trkpt lat="45.85475" lon="1.24249">
        <ele>272.2</ele>
        <time>2024-11-12T09:36:27Z</time>
      </trkpt>
      <trkpt lat="45.85475" lon="1.24249">
        <ele>272.2</ele>
        <time>2024-11-12T09:36:28Z</time>
      </trkpt>
      <trkpt lat="45.85475" lon="1.2425">
        <ele>272.2</ele>
        <time>2024-11-12T09:36:29Z</time>
      </trkpt>
      <trkpt lat="45.85475" lon="1.2425">
        <ele>272.2</ele>
        <time>2024-11-12T09:36:30Z</time>
      </trkpt>
      <trkpt lat="45.85475" lon="1.2425">
        <ele>272.2</ele>
        <time>2024-11-12T09:36:31Z</time>
      </trkpt>
      <trkpt lat="45.85475" lon="1.2425">
        <ele>272.2</ele>
        <time>2024-11-12T09:36:32Z</time>
      </trkpt>
      <trkpt lat="45.85475" lon="1.2425">
        <ele>272.2</ele>
        <time>2024-11-12T09:36:33Z</time>
      </trkpt>
      <trkpt lat="45.85475" lon="1.2425">
        <ele>272.2</ele>
        <time>2024-11-12T09:36:34Z</time>
      </trkpt>
      <trkpt lat="45.85475" lon="1.2425">
        <ele>272.2</ele>
        <time>2024-11-12T09:36:35Z</time>
      </trkpt>
      <trkpt lat="45.85475" lon="1.2425">
        <ele>272.2</ele>
        <time>2024-11-12T09:36:36Z</time>
      </trkpt>
      <trkpt lat="45.85475" lon="1.2425">
        <ele>272.2</ele>
        <time>2024-11-12T09:36:37Z</time>
      </trkpt>
      <trkpt lat="45.85475" lon="1.2425">
        <ele>272.2</ele>
        <time>2024-11-12T09:36:38Z</time>
      </trkpt>
      <trkpt lat="45.85475" lon="1.2425">
        <ele>272.2</ele>
        <time>2024-11-12T09:36:39Z</time>
      </trkpt>
      <trkpt lat="45.85475" lon="1.2425">
        <ele>272.2</ele>
        <time>2024-11-12T09:36:40Z</time>
      </trkpt>
      <trkpt lat="45.85474" lon="1.24249">
        <ele>272.2</ele>
        <time>2024-11-12T09:36:41Z</time>
      </trkpt>
      <trkpt lat="45.85474" lon="1.24249">
        <ele>272.2</ele>
        <time>2024-11-12T09:36:42Z</time>
      </trkpt>
      <trkpt lat="45.85472" lon="1.24248">
        <ele>272.1</ele>
        <time>2024-11-12T09:36:43Z</time>
      </trkpt>
      <trkpt lat="45.85468" lon="1.24246">
        <ele>272.1</ele>
        <time>2024-11-12T09:36:44Z</time>
      </trkpt>
      <trkpt lat="45.85465" lon="1.24244">
        <ele>272</ele>
        <time>2024-11-12T09:36:45Z</time>
      </trkpt>
      <trkpt lat="45.85465" lon="1.24243">
        <ele>272</ele>
        <time>2024-11-12T09:36:46Z</time>
      </trkpt>
      <trkpt lat="45.85463" lon="1.24242">
        <ele>272</ele>
        <time>2024-11-12T09:36:47Z</time>
      </trkpt>
      <trkpt lat="45.85462" lon="1.24241">
        <ele>271.9</ele>
        <time>2024-11-12T09:36:48Z</time>
      </trkpt>
      <trkpt lat="45.8546" lon="1.2424">
        <ele>271.9</ele>
        <time>2024-11-12T09:36:49Z</time>
      </trkpt>
      <trkpt lat="45.85459" lon="1.24239">
        <ele>271.9</ele>
        <time>2024-11-12T09:36:50Z</time>
      </trkpt>
      <trkpt lat="45.85458" lon="1.24238">
        <ele>271.8</ele>
        <time>2024-11-12T09:36:51Z</time>
      </trkpt>
      <trkpt lat="45.85456" lon="1.24236">
        <ele>271.8</ele>
        <time>2024-11-12T09:36:52Z</time>
      </trkpt>
      <trkpt lat="45.85455" lon="1.24236">
        <ele>271.8</ele>
        <time>2024-11-12T09:36:53Z</time>
      </trkpt>
      <trkpt lat="45.85453" lon="1.24235">
        <ele>271.7</ele>
        <time>2024-11-12T09:36:54Z</time>
      </trkpt>
      <trkpt lat="45.85452" lon="1.24234">
        <ele>271.7</ele>
        <time>2024-11-12T09:36:55Z</time>
      </trkpt>
      <trkpt lat="45.85451" lon="1.24233">
        <ele>271.7</ele>
        <time>2024-11-12T09:36:56Z</time>
      </trkpt>
      <trkpt lat="45.85449" lon="1.24233">
        <ele>271.6</ele>
        <time>2024-11-12T09:36:57Z</time>
      </trkpt>
      <trkpt lat="45.85448" lon="1.24233">
        <ele>271.6</ele>
        <time>2024-11-12T09:36:58Z</time>
      </trkpt>
      <trkpt lat="45.85448" lon="1.24233">
        <ele>271.6</ele>
        <time>2024-11-12T09:36:59Z</time>
      </trkpt>
      <trkpt lat="45.85448" lon="1.24234">
        <ele>271.6</ele>
        <time>2024-11-12T09:37:00Z</time>
      </trkpt>
      <trkpt lat="45.85449" lon="1.24234">
        <ele>271.6</ele>
        <time>2024-11-12T09:37:01Z</time>
      </trkpt>
      <trkpt lat="45.85449" lon="1.24234">
        <ele>271.6</ele>
        <time>2024-11-12T09:37:02Z</time>
      </trkpt>
      <trkpt lat="45.85449" lon="1.24234">
        <ele>271.6</ele>
        <time>2024-11-12T09:37:03Z</time>
      </trkpt>
      <trkpt lat="45.85449" lon="1.24234">
        <ele>271.6</ele>
        <time>2024-11-12T09:37:04Z</time>
      </trkpt>
      <trkpt lat="45.85449" lon="1.24234">
        <ele>271.6</ele>
        <time>2024-11-12T09:37:05Z</time>
      </trkpt>
      <trkpt lat="45.85449" lon="1.24234">
        <ele>271.6</ele>
        <time>2024-11-12T09:37:06Z</time>
      </trkpt>
      <trkpt lat="45.85449" lon="1.24234">
        <ele>271.6</ele>
        <time>2024-11-12T09:37:07Z</time>
      </trkpt>
      <trkpt lat="45.85449" lon="1.24234">
        <ele>271.6</ele>
        <time>2024-11-12T09:37:08Z</time>
      </trkpt>
      <trkpt lat="45.85449" lon="1.24233">
        <ele>271.6</ele>
        <time>2024-11-12T09:37:09Z</time>
      </trkpt>
      <trkpt lat="45.85449" lon="1.24233">
        <ele>271.6</ele>
        <time>2024-11-12T09:37:10Z</time>
      </trkpt>
      <trkpt lat="45.85449" lon="1.24233">
        <ele>271.6</ele>
        <time>2024-11-12T09:37:11Z</time>
      </trkpt>
      <trkpt lat="45.85449" lon="1.24234">
        <ele>271.6</ele>
        <time>2024-11-12T09:37:12Z</time>
      </trkpt>
      <trkpt lat="45.85449" lon="1.24234">
        <ele>271.6</ele>
        <time>2024-11-12T09:37:13Z</time>
      </trkpt>
      <trkpt lat="45.85449" lon="1.24234">
        <ele>271.6</ele>
        <time>2024-11-12T09:37:14Z</time>
      </trkpt>
      <trkpt lat="45.85449" lon="1.24234">
        <ele>271.6</ele>
        <time>2024-11-12T09:37:15Z</time>
      </trkpt>
      <trkpt lat="45.85449" lon="1.24233">
        <ele>271.6</ele>
        <time>2024-11-12T09:37:16Z</time>
      </trkpt>
      <trkpt lat="45.85449" lon="1.24233">
        <ele>271.6</ele>
        <time>2024-11-12T09:37:17Z</time>
      </trkpt>
      <trkpt lat="45.85449" lon="1.24233">
        <ele>271.6</ele>
        <time>2024-11-12T09:37:18Z</time>
      </trkpt>
      <trkpt lat="45.85449" lon="1.24233">
        <ele>271.6</ele>
        <time>2024-11-12T09:37:19Z</time>
      </trkpt>
      <trkpt lat="45.85449" lon="1.24232">
        <ele>271.6</ele>
        <time>2024-11-12T09:37:20Z</time>
      </trkpt>
      <trkpt lat="45.85449" lon="1.24233">
        <ele>271.6</ele>
        <time>2024-11-12T09:37:21Z</time>
      </trkpt>
      <trkpt lat="45.85449" lon="1.24233">
        <ele>271.6</ele>
        <time>2024-11-12T09:37:22Z</time>
      </trkpt>
      <trkpt lat="45.85449" lon="1.24233">
        <ele>271.6</ele>
        <time>2024-11-12T09:37:23Z</time>
      </trkpt>
      <trkpt lat="45.85448" lon="1.24233">
        <ele>271.5</ele>
        <time>2024-11-12T09:37:24Z</time>
      </trkpt>
      <trkpt lat="45.85448" lon="1.24233">
        <ele>271.5</ele>
        <time>2024-11-12T09:37:25Z</time>
      </trkpt>
      <trkpt lat="45.85447" lon="1.24232">
        <ele>271.5</ele>
        <time>2024-11-12T09:37:26Z</time>
      </trkpt>
      <trkpt lat="45.85446" lon="1.24231">
        <ele>271.5</ele>
        <time>2024-11-12T09:37:27Z</time>
      </trkpt>
      <trkpt lat="45.85448" lon="1.24233">
        <ele>271.5</ele>
        <time>2024-11-12T09:37:28Z</time>
      </trkpt>
      <trkpt lat="45.85446" lon="1.24233">
        <ele>271.5</ele>
        <time>2024-11-12T09:37:29Z</time>
      </trkpt>
      <trkpt lat="45.85445" lon="1.24232">
        <ele>271.5</ele>
        <time>2024-11-12T09:37:30Z</time>
      </trkpt>
      <trkpt lat="45.85444" lon="1.24232">
        <ele>271.5</ele>
        <time>2024-11-12T09:37:31Z</time>
      </trkpt>
      <trkpt lat="45.85442" lon="1.24231">
        <ele>271.4</ele>
        <time>2024-11-12T09:37:32Z</time>
      </trkpt>
      <trkpt lat="45.85441" lon="1.2423">
        <ele>271.4</ele>
        <time>2024-11-12T09:37:33Z</time>
      </trkpt>
      <trkpt lat="45.8544" lon="1.2423">
        <ele>271.4</ele>
        <time>2024-11-12T09:37:34Z</time>
      </trkpt>
      <trkpt lat="45.85439" lon="1.24229">
        <ele>271.4</ele>
        <time>2024-11-12T09:37:35Z</time>
      </trkpt>
      <trkpt lat="45.85438" lon="1.24228">
        <ele>271.4</ele>
        <time>2024-11-12T09:37:36Z</time>
      </trkpt>
      <trkpt lat="45.85436" lon="1.24227">
        <ele>271.4</ele>
        <time>2024-11-12T09:37:37Z</time>
      </trkpt>
      <trkpt lat="45.85435" lon="1.24227">
        <ele>271.4</ele>
        <time>2024-11-12T09:37:38Z</time>
      </trkpt>
      <trkpt lat="45.85434" lon="1.24227">
        <ele>271.4</ele>
        <time>2024-11-12T09:37:39Z</time>
      </trkpt>
      <trkpt lat="45.85433" lon="1.24226">
        <ele>271.4</ele>
        <time>2024-11-12T09:37:40Z</time>
      </trkpt>
      <trkpt lat="45.85432" lon="1.24226">
        <ele>271.4</ele>
        <time>2024-11-12T09:37:41Z</time>
      </trkpt>
      <trkpt lat="45.8543" lon="1.24226">
        <ele>271.3</ele>
        <time>2024-11-12T09:37:42Z</time>
      </trkpt>
      <trkpt lat="45.8543" lon="1.24226">
        <ele>271.3</ele>
        <time>2024-11-12T09:37:43Z</time>
      </trkpt>
      <trkpt lat="45.85429" lon="1.24226">
        <ele>271.3</ele>
        <time>2024-11-12T09:37:44Z</time>
      </trkpt>
      <trkpt lat="45.85428" lon="1.24226">
        <ele>271.3</ele>
        <time>2024-11-12T09:37:45Z</time>
      </trkpt>
      <trkpt lat="45.85427" lon="1.24225">
        <ele>271.3</ele>
        <time>2024-11-12T09:37:46Z</time>
      </trkpt>
      <trkpt lat="45.85429" lon="1.24225">
        <ele>271.3</ele>
        <time>2024-11-12T09:37:47Z</time>
      </trkpt>
      <trkpt lat="45.8543" lon="1.24224">
        <ele>271.3</ele>
        <time>2024-11-12T09:37:48Z</time>
      </trkpt>
      <trkpt lat="45.8543" lon="1.24224">
        <ele>271.3</ele>
        <time>2024-11-12T09:37:49Z</time>
      </trkpt>
      <trkpt lat="45.8543" lon="1.24224">
        <ele>271.3</ele>
        <time>2024-11-12T09:37:50Z</time>
      </trkpt>
      <trkpt lat="45.8543" lon="1.24224">
        <ele>271.3</ele>
        <time>2024-11-12T09:37:51Z</time>
      </trkpt>
      <trkpt lat="45.8543" lon="1.24224">
        <ele>271.3</ele>
        <time>2024-11-12T09:37:52Z</time>
      </trkpt>
      <trkpt lat="45.85429" lon="1.24224">
        <ele>271.3</ele>
        <time>2024-11-12T09:37:53Z</time>
      </trkpt>
      <trkpt lat="45.85429" lon="1.24224">
        <ele>271.3</ele>
        <time>2024-11-12T09:37:54Z</time>
      </trkpt>
      <trkpt lat="45.85429" lon="1.24224">
        <ele>271.3</ele>
        <time>2024-11-12T09:37:55Z</time>
      </trkpt>
      <trkpt lat="45.85429" lon="1.24224">
        <ele>271.3</ele>
        <time>2024-11-12T09:37:56Z</time>
      </trkpt>
      <trkpt lat="45.85428" lon="1.24224">
        <ele>271.3</ele>
        <time>2024-11-12T09:37:57Z</time>
      </trkpt>
      <trkpt lat="45.85428" lon="1.24224">
        <ele>271.3</ele>
        <time>2024-11-12T09:37:58Z</time>
      </trkpt>
      <trkpt lat="45.85428" lon="1.24224">
        <ele>271.3</ele>
        <time>2024-11-12T09:37:59Z</time>
      </trkpt>
      <trkpt lat="45.85428" lon="1.24223">
        <ele>271.3</ele>
        <time>2024-11-12T09:38:00Z</time>
      </trkpt>
      <trkpt lat="45.85427" lon="1.24223">
        <ele>271.3</ele>
        <time>2024-11-12T09:38:01Z</time>
      </trkpt>
      <trkpt lat="45.85427" lon="1.24223">
        <ele>271.3</ele>
        <time>2024-11-12T09:38:02Z</time>
      </trkpt>
      <trkpt lat="45.85427" lon="1.24223">
        <ele>271.3</ele>
        <time>2024-11-12T09:38:03Z</time>
      </trkpt>
      <trkpt lat="45.85427" lon="1.24223">
        <ele>271.3</ele>
        <time>2024-11-12T09:38:04Z</time>
      </trkpt>
      <trkpt lat="45.85426" lon="1.24223">
        <ele>271.3</ele>
        <time>2024-11-12T09:38:05Z</time>
      </trkpt>
      <trkpt lat="45.85426" lon="1.24223">
        <ele>271.3</ele>
        <time>2024-11-12T09:38:06Z</time>
      </trkpt>
      <trkpt lat="45.85423" lon="1.24222">
        <ele>271.3</ele>
        <time>2024-11-12T09:38:07Z</time>
      </trkpt>
      <trkpt lat="45.85421" lon="1.24221">
        <ele>271.3</ele>
        <time>2024-11-12T09:38:08Z</time>
      </trkpt>
      <trkpt lat="45.8542" lon="1.24221">
        <ele>271.3</ele>
        <time>2024-11-12T09:38:09Z</time>
      </trkpt>
      <trkpt lat="45.85419" lon="1.24221">
        <ele>271.3</ele>
        <time>2024-11-12T09:38:10Z</time>
      </trkpt>
      <trkpt lat="45.85418" lon="1.2422">
        <ele>271.3</ele>
        <time>2024-11-12T09:38:11Z</time>
      </trkpt>
      <trkpt lat="45.85416" lon="1.2422">
        <ele>271.3</ele>
        <time>2024-11-12T09:38:12Z</time>
      </trkpt>
      <trkpt lat="45.85414" lon="1.2422">
        <ele>271.3</ele>
        <time>2024-11-12T09:38:13Z</time>
      </trkpt>
      <trkpt lat="45.85413" lon="1.2422">
        <ele>271.3</ele>
        <time>2024-11-12T09:38:14Z</time>
      </trkpt>
      <trkpt lat="45.85412" lon="1.2422">
        <ele>271.3</ele>
        <time>2024-11-12T09:38:15Z</time>
      </trkpt>
      <trkpt lat="45.85411" lon="1.2422">
        <ele>271.3</ele>
        <time>2024-11-12T09:38:16Z</time>
      </trkpt>
      <trkpt lat="45.8541" lon="1.2422">
        <ele>271.3</ele>
        <time>2024-11-12T09:38:17Z</time>
      </trkpt>
      <trkpt lat="45.85407" lon="1.2422">
        <ele>271.4</ele>
        <time>2024-11-12T09:38:18Z</time>
      </trkpt>
      <trkpt lat="45.85406" lon="1.2422">
        <ele>271.4</ele>
        <time>2024-11-12T09:38:19Z</time>
      </trkpt>
      <trkpt lat="45.85406" lon="1.2422">
        <ele>271.4</ele>
        <time>2024-11-12T09:38:20Z</time>
      </trkpt>
      <trkpt lat="45.85404" lon="1.2422">
        <ele>271.4</ele>
        <time>2024-11-12T09:38:21Z</time>
      </trkpt>
      <trkpt lat="45.85402" lon="1.2422">
        <ele>271.5</ele>
        <time>2024-11-12T09:38:22Z</time>
      </trkpt>
      <trkpt lat="45.85401" lon="1.2422">
        <ele>271.5</ele>
        <time>2024-11-12T09:38:23Z</time>
      </trkpt>
      <trkpt lat="45.854" lon="1.24219">
        <ele>271.5</ele>
        <time>2024-11-12T09:38:24Z</time>
      </trkpt>
      <trkpt lat="45.85399" lon="1.24219">
        <ele>271.6</ele>
        <time>2024-11-12T09:38:25Z</time>
      </trkpt>
      <trkpt lat="45.85397" lon="1.24219">
        <ele>271.6</ele>
        <time>2024-11-12T09:38:26Z</time>
      </trkpt>
      <trkpt lat="45.85396" lon="1.24219">
        <ele>271.6</ele>
        <time>2024-11-12T09:38:27Z</time>
      </trkpt>
      <trkpt lat="45.85396" lon="1.24219">
        <ele>271.6</ele>
        <time>2024-11-12T09:38:28Z</time>
      </trkpt>
      <trkpt lat="45.85396" lon="1.24219">
        <ele>271.7</ele>
        <time>2024-11-12T09:38:29Z</time>
      </trkpt>
      <trkpt lat="45.85396" lon="1.24219">
        <ele>271.7</ele>
        <time>2024-11-12T09:38:30Z</time>
      </trkpt>
      <trkpt lat="45.85395" lon="1.24219">
        <ele>271.7</ele>
        <time>2024-11-12T09:38:31Z</time>
      </trkpt>
      <trkpt lat="45.85395" lon="1.24219">
        <ele>271.7</ele>
        <time>2024-11-12T09:38:32Z</time>
      </trkpt>
      <trkpt lat="45.85394" lon="1.24219">
        <ele>271.7</ele>
        <time>2024-11-12T09:38:33Z</time>
      </trkpt>
      <trkpt lat="45.85393" lon="1.24219">
        <ele>271.8</ele>
        <time>2024-11-12T09:38:34Z</time>
      </trkpt>
      <trkpt lat="45.85392" lon="1.24219">
        <ele>271.9</ele>
        <time>2024-11-12T09:38:35Z</time>
      </trkpt>
      <trkpt lat="45.8539" lon="1.24219">
        <ele>271.9</ele>
        <time>2024-11-12T09:38:36Z</time>
      </trkpt>
      <trkpt lat="45.85388" lon="1.24218">
        <ele>272</ele>
        <time>2024-11-12T09:38:37Z</time>
      </trkpt>
      <trkpt lat="45.85387" lon="1.24218">
        <ele>272.1</ele>
        <time>2024-11-12T09:38:38Z</time>
      </trkpt>
      <trkpt lat="45.85385" lon="1.24217">
        <ele>272.2</ele>
        <time>2024-11-12T09:38:39Z</time>
      </trkpt>
      <trkpt lat="45.85384" lon="1.24217">
        <ele>272.3</ele>
        <time>2024-11-12T09:38:40Z</time>
      </trkpt>
      <trkpt lat="45.85383" lon="1.24216">
        <ele>272.3</ele>
        <time>2024-11-12T09:38:41Z</time>
      </trkpt>
      <trkpt lat="45.85381" lon="1.24215">
        <ele>272.4</ele>
        <time>2024-11-12T09:38:42Z</time>
      </trkpt>
      <trkpt lat="45.85381" lon="1.24214">
        <ele>272.5</ele>
        <time>2024-11-12T09:38:43Z</time>
      </trkpt>
      <trkpt lat="45.8538" lon="1.24214">
        <ele>272.5</ele>
        <time>2024-11-12T09:38:44Z</time>
      </trkpt>
      <trkpt lat="45.85378" lon="1.24213">
        <ele>272.7</ele>
        <time>2024-11-12T09:38:45Z</time>
      </trkpt>
      <trkpt lat="45.85377" lon="1.24212">
        <ele>272.7</ele>
        <time>2024-11-12T09:38:46Z</time>
      </trkpt>
      <trkpt lat="45.85376" lon="1.24212">
        <ele>272.8</ele>
        <time>2024-11-12T09:38:47Z</time>
      </trkpt>
      <trkpt lat="45.85376" lon="1.24212">
        <ele>272.8</ele>
        <time>2024-11-12T09:38:48Z</time>
      </trkpt>
      <trkpt lat="45.85375" lon="1.24212">
        <ele>272.8</ele>
        <time>2024-11-12T09:38:49Z</time>
      </trkpt>
      <trkpt lat="45.85374" lon="1.24211">
        <ele>272.9</ele>
        <time>2024-11-12T09:38:50Z</time>
      </trkpt>
      <trkpt lat="45.85374" lon="1.24211">
        <ele>272.9</ele>
        <time>2024-11-12T09:38:51Z</time>
      </trkpt>
      <trkpt lat="45.85374" lon="1.24211">
        <ele>273</ele>
        <time>2024-11-12T09:38:52Z</time>
      </trkpt>
      <trkpt lat="45.85374" lon="1.24211">
        <ele>273</ele>
        <time>2024-11-12T09:38:53Z</time>
      </trkpt>
      <trkpt lat="45.85375" lon="1.24211">
        <ele>273</ele>
        <time>2024-11-12T09:38:54Z</time>
      </trkpt>
      <trkpt lat="45.85375" lon="1.24211">
        <ele>273</ele>
        <time>2024-11-12T09:38:55Z</time>
      </trkpt>
      <trkpt lat="45.85375" lon="1.24211">
        <ele>273</ele>
        <time>2024-11-12T09:38:56Z</time>
      </trkpt>
      <trkpt lat="45.85375" lon="1.24211">
        <ele>273</ele>
        <time>2024-11-12T09:38:57Z</time>
      </trkpt>
      <trkpt lat="45.85375" lon="1.24211">
        <ele>273</ele>
        <time>2024-11-12T09:38:58Z</time>
      </trkpt>
      <trkpt lat="45.85375" lon="1.24211">
        <ele>273.1</ele>
        <time>2024-11-12T09:38:59Z</time>
      </trkpt>
      <trkpt lat="45.85376" lon="1.24211">
        <ele>273.1</ele>
        <time>2024-11-12T09:39:00Z</time>
      </trkpt>
      <trkpt lat="45.85376" lon="1.24211">
        <ele>273.1</ele>
        <time>2024-11-12T09:39:01Z</time>
      </trkpt>
      <trkpt lat="45.85376" lon="1.24211">
        <ele>273.1</ele>
        <time>2024-11-12T09:39:02Z</time>
      </trkpt>
      <trkpt lat="45.85376" lon="1.24211">
        <ele>273.1</ele>
        <time>2024-11-12T09:39:03Z</time>
      </trkpt>
      <trkpt lat="45.85376" lon="1.24211">
        <ele>273.1</ele>
        <time>2024-11-12T09:39:04Z</time>
      </trkpt>
      <trkpt lat="45.85376" lon="1.2421">
        <ele>273.1</ele>
        <time>2024-11-12T09:39:05Z</time>
      </trkpt>
      <trkpt lat="45.85376" lon="1.2421">
        <ele>273.1</ele>
        <time>2024-11-12T09:39:06Z</time>
      </trkpt>
      <trkpt lat="45.85375" lon="1.2421">
        <ele>273.2</ele>
        <time>2024-11-12T09:39:07Z</time>
      </trkpt>
      <trkpt lat="45.85373" lon="1.2421">
        <ele>273.3</ele>
        <time>2024-11-12T09:39:08Z</time>
      </trkpt>
      <trkpt lat="45.85371" lon="1.24209">
        <ele>273.4</ele>
        <time>2024-11-12T09:39:09Z</time>
      </trkpt>
      <trkpt lat="45.8537" lon="1.24208">
        <ele>273.4</ele>
        <time>2024-11-12T09:39:10Z</time>
      </trkpt>
      <trkpt lat="45.85369" lon="1.24207">
        <ele>273.5</ele>
        <time>2024-11-12T09:39:11Z</time>
      </trkpt>
      <trkpt lat="45.85368" lon="1.24205">
        <ele>273.5</ele>
        <time>2024-11-12T09:39:12Z</time>
      </trkpt>
      <trkpt lat="45.85368" lon="1.24205">
        <ele>273.5</ele>
        <time>2024-11-12T09:39:13Z</time>
      </trkpt>
      <trkpt lat="45.85367" lon="1.24204">
        <ele>273.5</ele>
        <time>2024-11-12T09:39:14Z</time>
      </trkpt>
      <trkpt lat="45.85366" lon="1.24203">
        <ele>273.5</ele>
        <time>2024-11-12T09:39:15Z</time>
      </trkpt>
      <trkpt lat="45.85365" lon="1.24202">
        <ele>273.5</ele>
        <time>2024-11-12T09:39:16Z</time>
      </trkpt>
      <trkpt lat="45.85364" lon="1.24201">
        <ele>273.5</ele>
        <time>2024-11-12T09:39:17Z</time>
      </trkpt>
      <trkpt lat="45.85363" lon="1.242">
        <ele>273.6</ele>
        <time>2024-11-12T09:39:18Z</time>
      </trkpt>
      <trkpt lat="45.85362" lon="1.242">
        <ele>273.6</ele>
        <time>2024-11-12T09:39:19Z</time>
      </trkpt>
      <trkpt lat="45.85361" lon="1.24199">
        <ele>273.6</ele>
        <time>2024-11-12T09:39:20Z</time>
      </trkpt>
      <trkpt lat="45.85361" lon="1.24198">
        <ele>273.6</ele>
        <time>2024-11-12T09:39:21Z</time>
      </trkpt>
      <trkpt lat="45.8536" lon="1.24197">
        <ele>273.6</ele>
        <time>2024-11-12T09:39:22Z</time>
      </trkpt>
      <trkpt lat="45.85359" lon="1.24197">
        <ele>273.6</ele>
        <time>2024-11-12T09:39:23Z</time>
      </trkpt>
      <trkpt lat="45.85358" lon="1.24196">
        <ele>273.6</ele>
        <time>2024-11-12T09:39:24Z</time>
      </trkpt>
      <trkpt lat="45.85357" lon="1.24195">
        <ele>273.6</ele>
        <time>2024-11-12T09:39:25Z</time>
      </trkpt>
      <trkpt lat="45.85356" lon="1.24194">
        <ele>273.6</ele>
        <time>2024-11-12T09:39:26Z</time>
      </trkpt>
      <trkpt lat="45.85355" lon="1.24193">
        <ele>273.6</ele>
        <time>2024-11-12T09:39:27Z</time>
      </trkpt>
      <trkpt lat="45.85354" lon="1.24193">
        <ele>273.6</ele>
        <time>2024-11-12T09:39:28Z</time>
      </trkpt>
      <trkpt lat="45.85353" lon="1.24192">
        <ele>273.6</ele>
        <time>2024-11-12T09:39:29Z</time>
      </trkpt>
      <trkpt lat="45.85352" lon="1.24192">
        <ele>273.6</ele>
        <time>2024-11-12T09:39:30Z</time>
      </trkpt>
      <trkpt lat="45.85351" lon="1.24191">
        <ele>273.6</ele>
        <time>2024-11-12T09:39:31Z</time>
      </trkpt>
      <trkpt lat="45.8535" lon="1.24191">
        <ele>273.6</ele>
        <time>2024-11-12T09:39:32Z</time>
      </trkpt>
      <trkpt lat="45.85349" lon="1.24191">
        <ele>273.6</ele>
        <time>2024-11-12T09:39:33Z</time>
      </trkpt>
      <trkpt lat="45.85348" lon="1.24191">
        <ele>273.6</ele>
        <time>2024-11-12T09:39:34Z</time>
      </trkpt>
      <trkpt lat="45.85347" lon="1.2419">
        <ele>273.6</ele>
        <time>2024-11-12T09:39:35Z</time>
      </trkpt>
      <trkpt lat="45.85346" lon="1.2419">
        <ele>273.6</ele>
        <time>2024-11-12T09:39:36Z</time>
      </trkpt>
      <trkpt lat="45.85345" lon="1.2419">
        <ele>273.6</ele>
        <time>2024-11-12T09:39:37Z</time>
      </trkpt>
      <trkpt lat="45.85343" lon="1.24189">
        <ele>273.6</ele>
        <time>2024-11-12T09:39:38Z</time>
      </trkpt>
      <trkpt lat="45.85342" lon="1.24189">
        <ele>273.6</ele>
        <time>2024-11-12T09:39:39Z</time>
      </trkpt>
      <trkpt lat="45.85341" lon="1.24189">
        <ele>273.6</ele>
        <time>2024-11-12T09:39:40Z</time>
      </trkpt>
      <trkpt lat="45.8534" lon="1.24189">
        <ele>273.6</ele>
        <time>2024-11-12T09:39:41Z</time>
      </trkpt>
      <trkpt lat="45.85339" lon="1.24189">
        <ele>273.5</ele>
        <time>2024-11-12T09:39:42Z</time>
      </trkpt>
      <trkpt lat="45.85336" lon="1.24188">
        <ele>273.5</ele>
        <time>2024-11-12T09:39:43Z</time>
      </trkpt>
      <trkpt lat="45.85336" lon="1.24188">
        <ele>273.5</ele>
        <time>2024-11-12T09:39:44Z</time>
      </trkpt>
      <trkpt lat="45.85335" lon="1.24188">
        <ele>273.5</ele>
        <time>2024-11-12T09:39:45Z</time>
      </trkpt>
      <trkpt lat="45.85333" lon="1.24187">
        <ele>273.5</ele>
        <time>2024-11-12T09:39:46Z</time>
      </trkpt>
      <trkpt lat="45.85332" lon="1.24187">
        <ele>273.5</ele>
        <time>2024-11-12T09:39:47Z</time>
      </trkpt>
      <trkpt lat="45.85331" lon="1.24187">
        <ele>273.5</ele>
        <time>2024-11-12T09:39:48Z</time>
      </trkpt>
      <trkpt lat="45.8533" lon="1.24187">
        <ele>273.5</ele>
        <time>2024-11-12T09:39:49Z</time>
      </trkpt>
      <trkpt lat="45.85329" lon="1.24186">
        <ele>273.5</ele>
        <time>2024-11-12T09:39:50Z</time>
      </trkpt>
      <trkpt lat="45.85327" lon="1.24186">
        <ele>273.5</ele>
        <time>2024-11-12T09:39:51Z</time>
      </trkpt>
      <trkpt lat="45.85326" lon="1.24185">
        <ele>273.5</ele>
        <time>2024-11-12T09:39:52Z</time>
      </trkpt>
      <trkpt lat="45.85325" lon="1.24185">
        <ele>273.5</ele>
        <time>2024-11-12T09:39:53Z</time>
      </trkpt>
      <trkpt lat="45.85324" lon="1.24185">
        <ele>273.5</ele>
        <time>2024-11-12T09:39:54Z</time>
      </trkpt>
      <trkpt lat="45.85324" lon="1.24185">
        <ele>273.5</ele>
        <time>2024-11-12T09:39:55Z</time>
      </trkpt>
      <trkpt lat="45.85325" lon="1.24185">
        <ele>273.5</ele>
        <time>2024-11-12T09:39:56Z</time>
      </trkpt>
      <trkpt lat="45.85326" lon="1.24185">
        <ele>273.5</ele>
        <time>2024-11-12T09:39:57Z</time>
      </trkpt>
      <trkpt lat="45.85326" lon="1.24185">
        <ele>273.5</ele>
        <time>2024-11-12T09:39:58Z</time>
      </trkpt>
      <trkpt lat="45.85326" lon="1.24186">
        <ele>273.5</ele>
        <time>2024-11-12T09:39:59Z</time>
      </trkpt>
      <trkpt lat="45.85326" lon="1.24186">
        <ele>273.5</ele>
        <time>2024-11-12T09:40:00Z</time>
      </trkpt>
      <trkpt lat="45.85326" lon="1.24186">
        <ele>273.5</ele>
        <time>2024-11-12T09:40:01Z</time>
      </trkpt>
      <trkpt lat="45.85326" lon="1.24186">
        <ele>273.5</ele>
        <time>2024-11-12T09:40:02Z</time>
      </trkpt>
      <trkpt lat="45.85326" lon="1.24186">
        <ele>273.5</ele>
        <time>2024-11-12T09:40:03Z</time>
      </trkpt>
      <trkpt lat="45.85326" lon="1.24186">
        <ele>273.5</ele>
        <time>2024-11-12T09:40:04Z</time>
      </trkpt>
      <trkpt lat="45.85326" lon="1.24186">
        <ele>273.5</ele>
        <time>2024-11-12T09:40:05Z</time>
      </trkpt>
      <trkpt lat="45.85325" lon="1.24186">
        <ele>273.5</ele>
        <time>2024-11-12T09:40:06Z</time>
      </trkpt>
      <trkpt lat="45.85325" lon="1.24186">
        <ele>273.5</ele>
        <time>2024-11-12T09:40:07Z</time>
      </trkpt>
      <trkpt lat="45.85325" lon="1.24186">
        <ele>273.5</ele>
        <time>2024-11-12T09:40:08Z</time>
      </trkpt>
      <trkpt lat="45.85325" lon="1.24186">
        <ele>273.5</ele>
        <time>2024-11-12T09:40:09Z</time>
      </trkpt>
      <trkpt lat="45.85325" lon="1.24186">
        <ele>273.5</ele>
        <time>2024-11-12T09:40:10Z</time>
      </trkpt>
      <trkpt lat="45.85325" lon="1.24186">
        <ele>273.5</ele>
        <time>2024-11-12T09:40:11Z</time>
      </trkpt>
      <trkpt lat="45.85325" lon="1.24186">
        <ele>273.5</ele>
        <time>2024-11-12T09:40:12Z</time>
      </trkpt>
      <trkpt lat="45.85325" lon="1.24184">
        <ele>273.6</ele>
        <time>2024-11-12T09:40:13Z</time>
      </trkpt>
      <trkpt lat="45.85326" lon="1.24184">
        <ele>273.6</ele>
        <time>2024-11-12T09:40:14Z</time>
      </trkpt>
      <trkpt lat="45.85327" lon="1.24183">
        <ele>273.6</ele>
        <time>2024-11-12T09:40:15Z</time>
      </trkpt>
      <trkpt lat="45.85327" lon="1.24183">
        <ele>273.6</ele>
        <time>2024-11-12T09:40:16Z</time>
      </trkpt>
      <trkpt lat="45.85327" lon="1.24183">
        <ele>273.6</ele>
        <time>2024-11-12T09:40:17Z</time>
      </trkpt>
      <trkpt lat="45.85327" lon="1.24184">
        <ele>273.6</ele>
        <time>2024-11-12T09:40:18Z</time>
      </trkpt>
      <trkpt lat="45.85327" lon="1.24184">
        <ele>273.6</ele>
        <time>2024-11-12T09:40:19Z</time>
      </trkpt>
      <trkpt lat="45.85326" lon="1.24184">
        <ele>273.6</ele>
        <time>2024-11-12T09:40:20Z</time>
      </trkpt>
      <trkpt lat="45.85326" lon="1.24184">
        <ele>273.6</ele>
        <time>2024-11-12T09:40:21Z</time>
      </trkpt>
      <trkpt lat="45.85326" lon="1.24184">
        <ele>273.6</ele>
        <time>2024-11-12T09:40:22Z</time>
      </trkpt>
      <trkpt lat="45.85326" lon="1.24184">
        <ele>273.6</ele>
        <time>2024-11-12T09:40:23Z</time>
      </trkpt>
      <trkpt lat="45.85326" lon="1.24184">
        <ele>273.6</ele>
        <time>2024-11-12T09:40:24Z</time>
      </trkpt>
      <trkpt lat="45.85326" lon="1.24184">
        <ele>273.7</ele>
        <time>2024-11-12T09:40:25Z</time>
      </trkpt>
      <trkpt lat="45.85325" lon="1.24184">
        <ele>273.7</ele>
        <time>2024-11-12T09:40:26Z</time>
      </trkpt>
      <trkpt lat="45.85325" lon="1.24184">
        <ele>273.7</ele>
        <time>2024-11-12T09:40:27Z</time>
      </trkpt>
      <trkpt lat="45.85325" lon="1.24184">
        <ele>273.7</ele>
        <time>2024-11-12T09:40:28Z</time>
      </trkpt>
      <trkpt lat="45.85325" lon="1.24184">
        <ele>273.7</ele>
        <time>2024-11-12T09:40:29Z</time>
      </trkpt>
      <trkpt lat="45.85325" lon="1.24184">
        <ele>273.7</ele>
        <time>2024-11-12T09:40:30Z</time>
      </trkpt>
      <trkpt lat="45.85325" lon="1.24184">
        <ele>273.7</ele>
        <time>2024-11-12T09:40:31Z</time>
      </trkpt>
      <trkpt lat="45.85324" lon="1.24185">
        <ele>273.7</ele>
        <time>2024-11-12T09:40:32Z</time>
      </trkpt>
      <trkpt lat="45.85324" lon="1.24185">
        <ele>273.7</ele>
        <time>2024-11-12T09:40:33Z</time>
      </trkpt>
      <trkpt lat="45.85324" lon="1.24185">
        <ele>273.7</ele>
        <time>2024-11-12T09:40:34Z</time>
      </trkpt>
      <trkpt lat="45.85324" lon="1.24185">
        <ele>273.7</ele>
        <time>2024-11-12T09:40:35Z</time>
      </trkpt>
      <trkpt lat="45.85324" lon="1.24185">
        <ele>273.7</ele>
        <time>2024-11-12T09:40:36Z</time>
      </trkpt>
      <trkpt lat="45.85324" lon="1.24185">
        <ele>273.7</ele>
        <time>2024-11-12T09:40:37Z</time>
      </trkpt>
      <trkpt lat="45.85323" lon="1.24185">
        <ele>273.7</ele>
        <time>2024-11-12T09:40:38Z</time>
      </trkpt>
      <trkpt lat="45.85323" lon="1.24185">
        <ele>273.7</ele>
        <time>2024-11-12T09:40:39Z</time>
      </trkpt>
      <trkpt lat="45.85323" lon="1.24185">
        <ele>273.8</ele>
        <time>2024-11-12T09:40:40Z</time>
      </trkpt>
      <trkpt lat="45.85323" lon="1.24185">
        <ele>273.8</ele>
        <time>2024-11-12T09:40:41Z</time>
      </trkpt>
      <trkpt lat="45.85323" lon="1.24185">
        <ele>273.8</ele>
        <time>2024-11-12T09:40:42Z</time>
      </trkpt>
      <trkpt lat="45.85322" lon="1.24185">
        <ele>273.8</ele>
        <time>2024-11-12T09:40:43Z</time>
      </trkpt>
      <trkpt lat="45.85322" lon="1.24185">
        <ele>273.8</ele>
        <time>2024-11-12T09:40:44Z</time>
      </trkpt>
      <trkpt lat="45.85322" lon="1.24185">
        <ele>273.8</ele>
        <time>2024-11-12T09:40:45Z</time>
      </trkpt>
      <trkpt lat="45.85322" lon="1.24186">
        <ele>273.8</ele>
        <time>2024-11-12T09:40:46Z</time>
      </trkpt>
      <trkpt lat="45.85319" lon="1.24185">
        <ele>273.9</ele>
        <time>2024-11-12T09:40:47Z</time>
      </trkpt>
      <trkpt lat="45.85318" lon="1.24184">
        <ele>274</ele>
        <time>2024-11-12T09:40:48Z</time>
      </trkpt>
      <trkpt lat="45.85317" lon="1.24183">
        <ele>274</ele>
        <time>2024-11-12T09:40:49Z</time>
      </trkpt>
      <trkpt lat="45.85317" lon="1.24183">
        <ele>274</ele>
        <time>2024-11-12T09:40:50Z</time>
      </trkpt>
      <trkpt lat="45.85318" lon="1.24183">
        <ele>274.1</ele>
        <time>2024-11-12T09:40:51Z</time>
      </trkpt>
      <trkpt lat="45.85317" lon="1.24183">
        <ele>274.1</ele>
        <time>2024-11-12T09:40:52Z</time>
      </trkpt>
      <trkpt lat="45.85317" lon="1.24182">
        <ele>274.1</ele>
        <time>2024-11-12T09:40:53Z</time>
      </trkpt>
      <trkpt lat="45.85316" lon="1.24181">
        <ele>274.2</ele>
        <time>2024-11-12T09:40:54Z</time>
      </trkpt>
      <trkpt lat="45.85315" lon="1.2418">
        <ele>274.2</ele>
        <time>2024-11-12T09:40:55Z</time>
      </trkpt>
      <trkpt lat="45.85315" lon="1.24179">
        <ele>274.3</ele>
        <time>2024-11-12T09:40:56Z</time>
      </trkpt>
      <trkpt lat="45.85314" lon="1.24177">
        <ele>274.4</ele>
        <time>2024-11-12T09:40:57Z</time>
      </trkpt>
      <trkpt lat="45.85313" lon="1.24175">
        <ele>274.6</ele>
        <time>2024-11-12T09:40:58Z</time>
      </trkpt>
      <trkpt lat="45.85312" lon="1.24175">
        <ele>274.6</ele>
        <time>2024-11-12T09:40:59Z</time>
      </trkpt>
      <trkpt lat="45.85311" lon="1.24175">
        <ele>274.7</ele>
        <time>2024-11-12T09:41:00Z</time>
      </trkpt>
      <trkpt lat="45.85309" lon="1.24174">
        <ele>274.9</ele>
        <time>2024-11-12T09:41:01Z</time>
      </trkpt>
      <trkpt lat="45.85308" lon="1.24174">
        <ele>275</ele>
        <time>2024-11-12T09:41:02Z</time>
      </trkpt>
      <trkpt lat="45.85307" lon="1.24173">
        <ele>275</ele>
        <time>2024-11-12T09:41:03Z</time>
      </trkpt>
      <trkpt lat="45.85306" lon="1.24173">
        <ele>275.1</ele>
        <time>2024-11-12T09:41:04Z</time>
      </trkpt>
      <trkpt lat="45.85305" lon="1.24172">
        <ele>275.2</ele>
        <time>2024-11-12T09:41:05Z</time>
      </trkpt>
      <trkpt lat="45.85304" lon="1.24173">
        <ele>275.3</ele>
        <time>2024-11-12T09:41:06Z</time>
      </trkpt>
      <trkpt lat="45.85303" lon="1.24172">
        <ele>275.4</ele>
        <time>2024-11-12T09:41:07Z</time>
      </trkpt>
      <trkpt lat="45.85304" lon="1.24173">
        <ele>275.5</ele>
        <time>2024-11-12T09:41:08Z</time>
      </trkpt>
      <trkpt lat="45.85304" lon="1.24174">
        <ele>275.5</ele>
        <time>2024-11-12T09:41:09Z</time>
      </trkpt>
      <trkpt lat="45.85304" lon="1.24175">
        <ele>275.6</ele>
        <time>2024-11-12T09:41:10Z</time>
      </trkpt>
      <trkpt lat="45.85305" lon="1.24176">
        <ele>275.6</ele>
        <time>2024-11-12T09:41:11Z</time>
      </trkpt>
      <trkpt lat="45.85305" lon="1.24177">
        <ele>275.7</ele>
        <time>2024-11-12T09:41:12Z</time>
      </trkpt>
      <trkpt lat="45.85305" lon="1.24177">
        <ele>275.7</ele>
        <time>2024-11-12T09:41:13Z</time>
      </trkpt>
      <trkpt lat="45.85305" lon="1.24176">
        <ele>275.8</ele>
        <time>2024-11-12T09:41:14Z</time>
      </trkpt>
      <trkpt lat="45.85304" lon="1.24174">
        <ele>275.9</ele>
        <time>2024-11-12T09:41:15Z</time>
      </trkpt>
      <trkpt lat="45.85303" lon="1.24173">
        <ele>276</ele>
        <time>2024-11-12T09:41:16Z</time>
      </trkpt>
      <trkpt lat="45.85302" lon="1.24172">
        <ele>276.1</ele>
        <time>2024-11-12T09:41:17Z</time>
      </trkpt>
      <trkpt lat="45.85301" lon="1.24171">
        <ele>276.2</ele>
        <time>2024-11-12T09:41:18Z</time>
      </trkpt>
      <trkpt lat="45.853" lon="1.2417">
        <ele>276.3</ele>
        <time>2024-11-12T09:41:19Z</time>
      </trkpt>
      <trkpt lat="45.85299" lon="1.2417">
        <ele>276.4</ele>
        <time>2024-11-12T09:41:20Z</time>
      </trkpt>
      <trkpt lat="45.85298" lon="1.2417">
        <ele>276.5</ele>
        <time>2024-11-12T09:41:21Z</time>
      </trkpt>
      <trkpt lat="45.85297" lon="1.2417">
        <ele>276.6</ele>
        <time>2024-11-12T09:41:22Z</time>
      </trkpt>
      <trkpt lat="45.85295" lon="1.24169">
        <ele>276.7</ele>
        <time>2024-11-12T09:41:23Z</time>
      </trkpt>
      <trkpt lat="45.85294" lon="1.24169">
        <ele>276.8</ele>
        <time>2024-11-12T09:41:24Z</time>
      </trkpt>
      <trkpt lat="45.85294" lon="1.24168">
        <ele>276.8</ele>
        <time>2024-11-12T09:41:25Z</time>
      </trkpt>
      <trkpt lat="45.85292" lon="1.24167">
        <ele>277</ele>
        <time>2024-11-12T09:41:26Z</time>
      </trkpt>
      <trkpt lat="45.85291" lon="1.24167">
        <ele>277</ele>
        <time>2024-11-12T09:41:27Z</time>
      </trkpt>
      <trkpt lat="45.8529" lon="1.24166">
        <ele>277.1</ele>
        <time>2024-11-12T09:41:28Z</time>
      </trkpt>
      <trkpt lat="45.8529" lon="1.24166">
        <ele>277.1</ele>
        <time>2024-11-12T09:41:29Z</time>
      </trkpt>
      <trkpt lat="45.85289" lon="1.24165">
        <ele>277.2</ele>
        <time>2024-11-12T09:41:30Z</time>
      </trkpt>
      <trkpt lat="45.85288" lon="1.24165">
        <ele>277.2</ele>
        <time>2024-11-12T09:41:31Z</time>
      </trkpt>
      <trkpt lat="45.85287" lon="1.24164">
        <ele>277.3</ele>
        <time>2024-11-12T09:41:32Z</time>
      </trkpt>
      <trkpt lat="45.85288" lon="1.24165">
        <ele>277.3</ele>
        <time>2024-11-12T09:41:33Z</time>
      </trkpt>
      <trkpt lat="45.85289" lon="1.24165">
        <ele>277.3</ele>
        <time>2024-11-12T09:41:34Z</time>
      </trkpt>
      <trkpt lat="45.8529" lon="1.24166">
        <ele>277.4</ele>
        <time>2024-11-12T09:41:35Z</time>
      </trkpt>
      <trkpt lat="45.85291" lon="1.24166">
        <ele>277.4</ele>
        <time>2024-11-12T09:41:36Z</time>
      </trkpt>
      <trkpt lat="45.85291" lon="1.24166">
        <ele>277.4</ele>
        <time>2024-11-12T09:41:37Z</time>
      </trkpt>
      <trkpt lat="45.85291" lon="1.24166">
        <ele>277.4</ele>
        <time>2024-11-12T09:41:38Z</time>
      </trkpt>
      <trkpt lat="45.85291" lon="1.24166">
        <ele>277.5</ele>
        <time>2024-11-12T09:41:39Z</time>
      </trkpt>
      <trkpt lat="45.8529" lon="1.24165">
        <ele>277.5</ele>
        <time>2024-11-12T09:41:40Z</time>
      </trkpt>
      <trkpt lat="45.85289" lon="1.24163">
        <ele>277.5</ele>
        <time>2024-11-12T09:41:41Z</time>
      </trkpt>
      <trkpt lat="45.85288" lon="1.24162">
        <ele>277.6</ele>
        <time>2024-11-12T09:41:42Z</time>
      </trkpt>
      <trkpt lat="45.85286" lon="1.2416">
        <ele>277.7</ele>
        <time>2024-11-12T09:41:43Z</time>
      </trkpt>
      <trkpt lat="45.85285" lon="1.2416">
        <ele>277.7</ele>
        <time>2024-11-12T09:41:44Z</time>
      </trkpt>
      <trkpt lat="45.85284" lon="1.24159">
        <ele>277.8</ele>
        <time>2024-11-12T09:41:45Z</time>
      </trkpt>
      <trkpt lat="45.85283" lon="1.24158">
        <ele>277.8</ele>
        <time>2024-11-12T09:41:46Z</time>
      </trkpt>
      <trkpt lat="45.85281" lon="1.24157">
        <ele>277.9</ele>
        <time>2024-11-12T09:41:47Z</time>
      </trkpt>
      <trkpt lat="45.8528" lon="1.24156">
        <ele>277.9</ele>
        <time>2024-11-12T09:41:48Z</time>
      </trkpt>
      <trkpt lat="45.85279" lon="1.24156">
        <ele>277.9</ele>
        <time>2024-11-12T09:41:49Z</time>
      </trkpt>
      <trkpt lat="45.85278" lon="1.24156">
        <ele>278</ele>
        <time>2024-11-12T09:41:50Z</time>
      </trkpt>
      <trkpt lat="45.85277" lon="1.24155">
        <ele>278</ele>
        <time>2024-11-12T09:41:51Z</time>
      </trkpt>
      <trkpt lat="45.85276" lon="1.24155">
        <ele>278</ele>
        <time>2024-11-12T09:41:52Z</time>
      </trkpt>
      <trkpt lat="45.85276" lon="1.24155">
        <ele>278.1</ele>
        <time>2024-11-12T09:41:53Z</time>
      </trkpt>
      <trkpt lat="45.85277" lon="1.24157">
        <ele>278.1</ele>
        <time>2024-11-12T09:41:54Z</time>
      </trkpt>
      <trkpt lat="45.85278" lon="1.24158">
        <ele>278.2</ele>
        <time>2024-11-12T09:41:55Z</time>
      </trkpt>
      <trkpt lat="45.85278" lon="1.24158">
        <ele>278.2</ele>
        <time>2024-11-12T09:41:56Z</time>
      </trkpt>
      <trkpt lat="45.85279" lon="1.24159">
        <ele>278.2</ele>
        <time>2024-11-12T09:41:57Z</time>
      </trkpt>
      <trkpt lat="45.85278" lon="1.24159">
        <ele>278.3</ele>
        <time>2024-11-12T09:41:58Z</time>
      </trkpt>
      <trkpt lat="45.85278" lon="1.24159">
        <ele>278.3</ele>
        <time>2024-11-12T09:41:59Z</time>
      </trkpt>
      <trkpt lat="45.85277" lon="1.24159">
        <ele>278.3</ele>
        <time>2024-11-12T09:42:00Z</time>
      </trkpt>
      <trkpt lat="45.85277" lon="1.2416">
        <ele>278.3</ele>
        <time>2024-11-12T09:42:01Z</time>
      </trkpt>
      <trkpt lat="45.85277" lon="1.2416">
        <ele>278.3</ele>
        <time>2024-11-12T09:42:02Z</time>
      </trkpt>
      <trkpt lat="45.85276" lon="1.2416">
        <ele>278.4</ele>
        <time>2024-11-12T09:42:03Z</time>
      </trkpt>
      <trkpt lat="45.85276" lon="1.2416">
        <ele>278.4</ele>
        <time>2024-11-12T09:42:04Z</time>
      </trkpt>
      <trkpt lat="45.85276" lon="1.24161">
        <ele>278.4</ele>
        <time>2024-11-12T09:42:05Z</time>
      </trkpt>
      <trkpt lat="45.85275" lon="1.24161">
        <ele>278.4</ele>
        <time>2024-11-12T09:42:06Z</time>
      </trkpt>
      <trkpt lat="45.85275" lon="1.24161">
        <ele>278.5</ele>
        <time>2024-11-12T09:42:07Z</time>
      </trkpt>
      <trkpt lat="45.85274" lon="1.24161">
        <ele>278.5</ele>
        <time>2024-11-12T09:42:08Z</time>
      </trkpt>
      <trkpt lat="45.85273" lon="1.24161">
        <ele>278.6</ele>
        <time>2024-11-12T09:42:09Z</time>
      </trkpt>
      <trkpt lat="45.85271" lon="1.2416">
        <ele>278.7</ele>
        <time>2024-11-12T09:42:10Z</time>
      </trkpt>
      <trkpt lat="45.85269" lon="1.24159">
        <ele>278.9</ele>
        <time>2024-11-12T09:42:11Z</time>
      </trkpt>
      <trkpt lat="45.85268" lon="1.24159">
        <ele>279</ele>
        <time>2024-11-12T09:42:12Z</time>
      </trkpt>
      <trkpt lat="45.85267" lon="1.24158">
        <ele>279</ele>
        <time>2024-11-12T09:42:13Z</time>
      </trkpt>
      <trkpt lat="45.85267" lon="1.24158">
        <ele>279.1</ele>
        <time>2024-11-12T09:42:14Z</time>
      </trkpt>
      <trkpt lat="45.85265" lon="1.24158">
        <ele>279.2</ele>
        <time>2024-11-12T09:42:15Z</time>
      </trkpt>
      <trkpt lat="45.85264" lon="1.24157">
        <ele>279.3</ele>
        <time>2024-11-12T09:42:16Z</time>
      </trkpt>
      <trkpt lat="45.85263" lon="1.24157">
        <ele>279.4</ele>
        <time>2024-11-12T09:42:17Z</time>
      </trkpt>
      <trkpt lat="45.85261" lon="1.24156">
        <ele>279.6</ele>
        <time>2024-11-12T09:42:18Z</time>
      </trkpt>
      <trkpt lat="45.8526" lon="1.24154">
        <ele>279.7</ele>
        <time>2024-11-12T09:42:19Z</time>
      </trkpt>
      <trkpt lat="45.85259" lon="1.24153">
        <ele>279.8</ele>
        <time>2024-11-12T09:42:20Z</time>
      </trkpt>
      <trkpt lat="45.85259" lon="1.24152">
        <ele>279.8</ele>
        <time>2024-11-12T09:42:21Z</time>
      </trkpt>
      <trkpt lat="45.85259" lon="1.24151">
        <ele>279.9</ele>
        <time>2024-11-12T09:42:22Z</time>
      </trkpt>
      <trkpt lat="45.85259" lon="1.2415">
        <ele>280</ele>
        <time>2024-11-12T09:42:23Z</time>
      </trkpt>
      <trkpt lat="45.85258" lon="1.24149">
        <ele>280</ele>
        <time>2024-11-12T09:42:24Z</time>
      </trkpt>
      <trkpt lat="45.85258" lon="1.24148">
        <ele>280.1</ele>
        <time>2024-11-12T09:42:25Z</time>
      </trkpt>
      <trkpt lat="45.85257" lon="1.24147">
        <ele>280.1</ele>
        <time>2024-11-12T09:42:26Z</time>
      </trkpt>
      <trkpt lat="45.85256" lon="1.24145">
        <ele>280.3</ele>
        <time>2024-11-12T09:42:27Z</time>
      </trkpt>
      <trkpt lat="45.85255" lon="1.24143">
        <ele>280.4</ele>
        <time>2024-11-12T09:42:28Z</time>
      </trkpt>
      <trkpt lat="45.85254" lon="1.24142">
        <ele>280.5</ele>
        <time>2024-11-12T09:42:29Z</time>
      </trkpt>
      <trkpt lat="45.85254" lon="1.24141">
        <ele>280.5</ele>
        <time>2024-11-12T09:42:30Z</time>
      </trkpt>
      <trkpt lat="45.85254" lon="1.24141">
        <ele>280.5</ele>
        <time>2024-11-12T09:42:31Z</time>
      </trkpt>
      <trkpt lat="45.85254" lon="1.24141">
        <ele>280.5</ele>
        <time>2024-11-12T09:42:32Z</time>
      </trkpt>
      <trkpt lat="45.85254" lon="1.24142">
        <ele>280.6</ele>
        <time>2024-11-12T09:42:33Z</time>
      </trkpt>
      <trkpt lat="45.85254" lon="1.24142">
        <ele>280.6</ele>
        <time>2024-11-12T09:42:34Z</time>
      </trkpt>
      <trkpt lat="45.85254" lon="1.24142">
        <ele>280.6</ele>
        <time>2024-11-12T09:42:35Z</time>
      </trkpt>
      <trkpt lat="45.85254" lon="1.24141">
        <ele>280.6</ele>
        <time>2024-11-12T09:42:36Z</time>
      </trkpt>
      <trkpt lat="45.85254" lon="1.24141">
        <ele>280.6</ele>
        <time>2024-11-12T09:42:37Z</time>
      </trkpt>
      <trkpt lat="45.85254" lon="1.24141">
        <ele>280.6</ele>
        <time>2024-11-12T09:42:38Z</time>
      </trkpt>
      <trkpt lat="45.85254" lon="1.24141">
        <ele>280.6</ele>
        <time>2024-11-12T09:42:39Z</time>
      </trkpt>
      <trkpt lat="45.85254" lon="1.2414">
        <ele>280.6</ele>
        <time>2024-11-12T09:42:40Z</time>
      </trkpt>
      <trkpt lat="45.85253" lon="1.24139">
        <ele>280.7</ele>
        <time>2024-11-12T09:42:41Z</time>
      </trkpt>
      <trkpt lat="45.85253" lon="1.24137">
        <ele>280.8</ele>
        <time>2024-11-12T09:42:42Z</time>
      </trkpt>
      <trkpt lat="45.85253" lon="1.24136">
        <ele>280.8</ele>
        <time>2024-11-12T09:42:43Z</time>
      </trkpt>
      <trkpt lat="45.85252" lon="1.24134">
        <ele>280.9</ele>
        <time>2024-11-12T09:42:44Z</time>
      </trkpt>
      <trkpt lat="45.85252" lon="1.24129">
        <ele>281.1</ele>
        <time>2024-11-12T09:42:45Z</time>
      </trkpt>
      <trkpt lat="45.85251" lon="1.24128">
        <ele>281.1</ele>
        <time>2024-11-12T09:42:46Z</time>
      </trkpt>
      <trkpt lat="45.8525" lon="1.24126">
        <ele>281.2</ele>
        <time>2024-11-12T09:42:47Z</time>
      </trkpt>
      <trkpt lat="45.85249" lon="1.24122">
        <ele>281.4</ele>
        <time>2024-11-12T09:42:48Z</time>
      </trkpt>
      <trkpt lat="45.85249" lon="1.24122">
        <ele>281.4</ele>
        <time>2024-11-12T09:42:49Z</time>
      </trkpt>
      <trkpt lat="45.85247" lon="1.24121">
        <ele>281.3</ele>
        <time>2024-11-12T09:42:50Z</time>
      </trkpt>
      <trkpt lat="45.85246" lon="1.24119">
        <ele>281.2</ele>
        <time>2024-11-12T09:42:51Z</time>
      </trkpt>
      <trkpt lat="45.85246" lon="1.24117">
        <ele>281.1</ele>
        <time>2024-11-12T09:42:52Z</time>
      </trkpt>
      <trkpt lat="45.85245" lon="1.24116">
        <ele>280.9</ele>
        <time>2024-11-12T09:42:53Z</time>
      </trkpt>
      <trkpt lat="45.85245" lon="1.24115">
        <ele>280.8</ele>
        <time>2024-11-12T09:42:54Z</time>
      </trkpt>
      <trkpt lat="45.85244" lon="1.24113">
        <ele>280.7</ele>
        <time>2024-11-12T09:42:55Z</time>
      </trkpt>
      <trkpt lat="45.85244" lon="1.24111">
        <ele>280.6</ele>
        <time>2024-11-12T09:42:56Z</time>
      </trkpt>
      <trkpt lat="45.85243" lon="1.2411">
        <ele>280.4</ele>
        <time>2024-11-12T09:42:57Z</time>
      </trkpt>
      <trkpt lat="45.85243" lon="1.24108">
        <ele>280.3</ele>
        <time>2024-11-12T09:42:58Z</time>
      </trkpt>
      <trkpt lat="45.85242" lon="1.24107">
        <ele>280.1</ele>
        <time>2024-11-12T09:42:59Z</time>
      </trkpt>
      <trkpt lat="45.85241" lon="1.24106">
        <ele>280</ele>
        <time>2024-11-12T09:43:00Z</time>
      </trkpt>
      <trkpt lat="45.85241" lon="1.24104">
        <ele>279.8</ele>
        <time>2024-11-12T09:43:01Z</time>
      </trkpt>
      <trkpt lat="45.8524" lon="1.24103">
        <ele>279.6</ele>
        <time>2024-11-12T09:43:02Z</time>
      </trkpt>
      <trkpt lat="45.85239" lon="1.24102">
        <ele>279.4</ele>
        <time>2024-11-12T09:43:03Z</time>
      </trkpt>
      <trkpt lat="45.85238" lon="1.241">
        <ele>279.2</ele>
        <time>2024-11-12T09:43:04Z</time>
      </trkpt>
      <trkpt lat="45.85237" lon="1.24098">
        <ele>278.8</ele>
        <time>2024-11-12T09:43:05Z</time>
      </trkpt>
      <trkpt lat="45.85237" lon="1.24097">
        <ele>278.6</ele>
        <time>2024-11-12T09:43:06Z</time>
      </trkpt>
      <trkpt lat="45.85236" lon="1.24096">
        <ele>278.5</ele>
        <time>2024-11-12T09:43:07Z</time>
      </trkpt>
      <trkpt lat="45.85236" lon="1.24095">
        <ele>278.3</ele>
        <time>2024-11-12T09:43:08Z</time>
      </trkpt>
      <trkpt lat="45.85235" lon="1.24093">
        <ele>278</ele>
        <time>2024-11-12T09:43:09Z</time>
      </trkpt>
      <trkpt lat="45.85234" lon="1.2409">
        <ele>277.6</ele>
        <time>2024-11-12T09:43:10Z</time>
      </trkpt>
      <trkpt lat="45.85233" lon="1.24089">
        <ele>277.4</ele>
        <time>2024-11-12T09:43:11Z</time>
      </trkpt>
      <trkpt lat="45.85232" lon="1.24088">
        <ele>277.3</ele>
        <time>2024-11-12T09:43:12Z</time>
      </trkpt>
      <trkpt lat="45.85231" lon="1.24087">
        <ele>277.1</ele>
        <time>2024-11-12T09:43:13Z</time>
      </trkpt>
      <trkpt lat="45.8523" lon="1.24087">
        <ele>277</ele>
        <time>2024-11-12T09:43:14Z</time>
      </trkpt>
      <trkpt lat="45.85229" lon="1.24086">
        <ele>276.8</ele>
        <time>2024-11-12T09:43:15Z</time>
      </trkpt>
      <trkpt lat="45.85227" lon="1.24085">
        <ele>276.5</ele>
        <time>2024-11-12T09:43:16Z</time>
      </trkpt>
      <trkpt lat="45.85227" lon="1.24086">
        <ele>276.5</ele>
        <time>2024-11-12T09:43:17Z</time>
      </trkpt>
      <trkpt lat="45.85226" lon="1.24086">
        <ele>276.4</ele>
        <time>2024-11-12T09:43:18Z</time>
      </trkpt>
      <trkpt lat="45.85225" lon="1.24086">
        <ele>276.4</ele>
        <time>2024-11-12T09:43:19Z</time>
      </trkpt>
      <trkpt lat="45.85224" lon="1.24086">
        <ele>276.3</ele>
        <time>2024-11-12T09:43:20Z</time>
      </trkpt>
      <trkpt lat="45.85223" lon="1.24086">
        <ele>276.2</ele>
        <time>2024-11-12T09:43:21Z</time>
      </trkpt>
      <trkpt lat="45.85222" lon="1.24086">
        <ele>276.1</ele>
        <time>2024-11-12T09:43:22Z</time>
      </trkpt>
      <trkpt lat="45.85219" lon="1.24086">
        <ele>276</ele>
        <time>2024-11-12T09:43:23Z</time>
      </trkpt>
      <trkpt lat="45.85218" lon="1.24086">
        <ele>276</ele>
        <time>2024-11-12T09:43:24Z</time>
      </trkpt>
      <trkpt lat="45.85218" lon="1.24086">
        <ele>276</ele>
        <time>2024-11-12T09:43:25Z</time>
      </trkpt>
      <trkpt lat="45.85217" lon="1.24087">
        <ele>276</ele>
        <time>2024-11-12T09:43:26Z</time>
      </trkpt>
      <trkpt lat="45.85216" lon="1.24087">
        <ele>276</ele>
        <time>2024-11-12T09:43:27Z</time>
      </trkpt>
      <trkpt lat="45.85215" lon="1.24087">
        <ele>276</ele>
        <time>2024-11-12T09:43:28Z</time>
      </trkpt>
      <trkpt lat="45.85213" lon="1.24088">
        <ele>276</ele>
        <time>2024-11-12T09:43:29Z</time>
      </trkpt>
      <trkpt lat="45.85212" lon="1.24088">
        <ele>276</ele>
        <time>2024-11-12T09:43:30Z</time>
      </trkpt>
      <trkpt lat="45.85211" lon="1.24088">
        <ele>276</ele>
        <time>2024-11-12T09:43:31Z</time>
      </trkpt>
      <trkpt lat="45.8521" lon="1.24088">
        <ele>276.1</ele>
        <time>2024-11-12T09:43:32Z</time>
      </trkpt>
      <trkpt lat="45.85209" lon="1.24089">
        <ele>276.1</ele>
        <time>2024-11-12T09:43:33Z</time>
      </trkpt>
      <trkpt lat="45.85208" lon="1.24089">
        <ele>276.2</ele>
        <time>2024-11-12T09:43:34Z</time>
      </trkpt>
      <trkpt lat="45.85207" lon="1.24089">
        <ele>276.2</ele>
        <time>2024-11-12T09:43:35Z</time>
      </trkpt>
      <trkpt lat="45.85206" lon="1.24089">
        <ele>276.3</ele>
        <time>2024-11-12T09:43:36Z</time>
      </trkpt>
      <trkpt lat="45.85205" lon="1.2409">
        <ele>276.4</ele>
        <time>2024-11-12T09:43:37Z</time>
      </trkpt>
      <trkpt lat="45.85203" lon="1.2409">
        <ele>276.5</ele>
        <time>2024-11-12T09:43:38Z</time>
      </trkpt>
      <trkpt lat="45.85202" lon="1.2409">
        <ele>276.6</ele>
        <time>2024-11-12T09:43:39Z</time>
      </trkpt>
      <trkpt lat="45.85201" lon="1.2409">
        <ele>276.7</ele>
        <time>2024-11-12T09:43:40Z</time>
      </trkpt>
      <trkpt lat="45.852" lon="1.2409">
        <ele>276.8</ele>
        <time>2024-11-12T09:43:41Z</time>
      </trkpt>
      <trkpt lat="45.85199" lon="1.2409">
        <ele>276.9</ele>
        <time>2024-11-12T09:43:42Z</time>
      </trkpt>
      <trkpt lat="45.85197" lon="1.2409">
        <ele>277</ele>
        <time>2024-11-12T09:43:43Z</time>
      </trkpt>
      <trkpt lat="45.85195" lon="1.24091">
        <ele>277.2</ele>
        <time>2024-11-12T09:43:44Z</time>
      </trkpt>
      <trkpt lat="45.85194" lon="1.24091">
        <ele>277.3</ele>
        <time>2024-11-12T09:43:45Z</time>
      </trkpt>
      <trkpt lat="45.85194" lon="1.24092">
        <ele>277.3</ele>
        <time>2024-11-12T09:43:46Z</time>
      </trkpt>
      <trkpt lat="45.85192" lon="1.24092">
        <ele>277.4</ele>
        <time>2024-11-12T09:43:47Z</time>
      </trkpt>
      <trkpt lat="45.85191" lon="1.24092">
        <ele>277.6</ele>
        <time>2024-11-12T09:43:48Z</time>
      </trkpt>
      <trkpt lat="45.85189" lon="1.24093">
        <ele>277.8</ele>
        <time>2024-11-12T09:43:49Z</time>
      </trkpt>
      <trkpt lat="45.85188" lon="1.24093">
        <ele>277.8</ele>
        <time>2024-11-12T09:43:50Z</time>
      </trkpt>
      <trkpt lat="45.85187" lon="1.24094">
        <ele>277.9</ele>
        <time>2024-11-12T09:43:51Z</time>
      </trkpt>
      <trkpt lat="45.85185" lon="1.24094">
        <ele>278.1</ele>
        <time>2024-11-12T09:43:52Z</time>
      </trkpt>
      <trkpt lat="45.85184" lon="1.24094">
        <ele>278.1</ele>
        <time>2024-11-12T09:43:53Z</time>
      </trkpt>
      <trkpt lat="45.85183" lon="1.24095">
        <ele>278.2</ele>
        <time>2024-11-12T09:43:54Z</time>
      </trkpt>
      <trkpt lat="45.85183" lon="1.24095">
        <ele>278.3</ele>
        <time>2024-11-12T09:43:55Z</time>
      </trkpt>
      <trkpt lat="45.85183" lon="1.24095">
        <ele>278.3</ele>
        <time>2024-11-12T09:43:56Z</time>
      </trkpt>
      <trkpt lat="45.85183" lon="1.24094">
        <ele>278.3</ele>
        <time>2024-11-12T09:43:57Z</time>
      </trkpt>
      <trkpt lat="45.85184" lon="1.24094">
        <ele>278.3</ele>
        <time>2024-11-12T09:43:58Z</time>
      </trkpt>
      <trkpt lat="45.85184" lon="1.24094">
        <ele>278.4</ele>
        <time>2024-11-12T09:43:59Z</time>
      </trkpt>
      <trkpt lat="45.85184" lon="1.24094">
        <ele>278.4</ele>
        <time>2024-11-12T09:44:00Z</time>
      </trkpt>
      <trkpt lat="45.85184" lon="1.24094">
        <ele>278.4</ele>
        <time>2024-11-12T09:44:01Z</time>
      </trkpt>
      <trkpt lat="45.85184" lon="1.24094">
        <ele>278.4</ele>
        <time>2024-11-12T09:44:02Z</time>
      </trkpt>
      <trkpt lat="45.85183" lon="1.24094">
        <ele>278.4</ele>
        <time>2024-11-12T09:44:03Z</time>
      </trkpt>
      <trkpt lat="45.85183" lon="1.24094">
        <ele>278.4</ele>
        <time>2024-11-12T09:44:04Z</time>
      </trkpt>
      <trkpt lat="45.85182" lon="1.24094">
        <ele>278.5</ele>
        <time>2024-11-12T09:44:05Z</time>
      </trkpt>
      <trkpt lat="45.85181" lon="1.24094">
        <ele>278.6</ele>
        <time>2024-11-12T09:44:06Z</time>
      </trkpt>
      <trkpt lat="45.85178" lon="1.24093">
        <ele>278.8</ele>
        <time>2024-11-12T09:44:07Z</time>
      </trkpt>
      <trkpt lat="45.85177" lon="1.24093">
        <ele>278.9</ele>
        <time>2024-11-12T09:44:08Z</time>
      </trkpt>
      <trkpt lat="45.85175" lon="1.24093">
        <ele>279</ele>
        <time>2024-11-12T09:44:09Z</time>
      </trkpt>
      <trkpt lat="45.85174" lon="1.24093">
        <ele>279.1</ele>
        <time>2024-11-12T09:44:10Z</time>
      </trkpt>
      <trkpt lat="45.85172" lon="1.24093">
        <ele>279.2</ele>
        <time>2024-11-12T09:44:11Z</time>
      </trkpt>
      <trkpt lat="45.8517" lon="1.24093">
        <ele>279.4</ele>
        <time>2024-11-12T09:44:12Z</time>
      </trkpt>
      <trkpt lat="45.85169" lon="1.24093">
        <ele>279.5</ele>
        <time>2024-11-12T09:44:13Z</time>
      </trkpt>
      <trkpt lat="45.85167" lon="1.24094">
        <ele>279.6</ele>
        <time>2024-11-12T09:44:14Z</time>
      </trkpt>
      <trkpt lat="45.85165" lon="1.24095">
        <ele>279.7</ele>
        <time>2024-11-12T09:44:15Z</time>
      </trkpt>
      <trkpt lat="45.85164" lon="1.24096">
        <ele>279.8</ele>
        <time>2024-11-12T09:44:16Z</time>
      </trkpt>
      <trkpt lat="45.85163" lon="1.24097">
        <ele>279.9</ele>
        <time>2024-11-12T09:44:17Z</time>
      </trkpt>
      <trkpt lat="45.85163" lon="1.24097">
        <ele>279.9</ele>
        <time>2024-11-12T09:44:18Z</time>
      </trkpt>
      <trkpt lat="45.85164" lon="1.24097">
        <ele>280</ele>
        <time>2024-11-12T09:44:19Z</time>
      </trkpt>
      <trkpt lat="45.85164" lon="1.24097">
        <ele>280</ele>
        <time>2024-11-12T09:44:20Z</time>
      </trkpt>
      <trkpt lat="45.85164" lon="1.24097">
        <ele>280</ele>
        <time>2024-11-12T09:44:21Z</time>
      </trkpt>
      <trkpt lat="45.85164" lon="1.24097">
        <ele>280.1</ele>
        <time>2024-11-12T09:44:22Z</time>
      </trkpt>
      <trkpt lat="45.85164" lon="1.24097">
        <ele>280.1</ele>
        <time>2024-11-12T09:44:23Z</time>
      </trkpt>
      <trkpt lat="45.85163" lon="1.24097">
        <ele>280.1</ele>
        <time>2024-11-12T09:44:24Z</time>
      </trkpt>
      <trkpt lat="45.85163" lon="1.24097">
        <ele>280.1</ele>
        <time>2024-11-12T09:44:25Z</time>
      </trkpt>
      <trkpt lat="45.85162" lon="1.24097">
        <ele>280.2</ele>
        <time>2024-11-12T09:44:26Z</time>
      </trkpt>
      <trkpt lat="45.85161" lon="1.24097">
        <ele>280.3</ele>
        <time>2024-11-12T09:44:27Z</time>
      </trkpt>
      <trkpt lat="45.85157" lon="1.24096">
        <ele>280.6</ele>
        <time>2024-11-12T09:44:28Z</time>
      </trkpt>
      <trkpt lat="45.85155" lon="1.24096">
        <ele>280.7</ele>
        <time>2024-11-12T09:44:29Z</time>
      </trkpt>
      <trkpt lat="45.85154" lon="1.24095">
        <ele>280.8</ele>
        <time>2024-11-12T09:44:30Z</time>
      </trkpt>
      <trkpt lat="45.85152" lon="1.24095">
        <ele>280.9</ele>
        <time>2024-11-12T09:44:31Z</time>
      </trkpt>
      <trkpt lat="45.8515" lon="1.24095">
        <ele>281</ele>
        <time>2024-11-12T09:44:32Z</time>
      </trkpt>
      <trkpt lat="45.85149" lon="1.24095">
        <ele>281.2</ele>
        <time>2024-11-12T09:44:33Z</time>
      </trkpt>
      <trkpt lat="45.85147" lon="1.24095">
        <ele>281.3</ele>
        <time>2024-11-12T09:44:34Z</time>
      </trkpt>
      <trkpt lat="45.85146" lon="1.24096">
        <ele>281.3</ele>
        <time>2024-11-12T09:44:35Z</time>
      </trkpt>
      <trkpt lat="45.85146" lon="1.24096">
        <ele>281.3</ele>
        <time>2024-11-12T09:44:36Z</time>
      </trkpt>
      <trkpt lat="45.85147" lon="1.24096">
        <ele>281.4</ele>
        <time>2024-11-12T09:44:37Z</time>
      </trkpt>
      <trkpt lat="45.85147" lon="1.24096">
        <ele>281.4</ele>
        <time>2024-11-12T09:44:38Z</time>
      </trkpt>
      <trkpt lat="45.85147" lon="1.24095">
        <ele>281.4</ele>
        <time>2024-11-12T09:44:39Z</time>
      </trkpt>
      <trkpt lat="45.85147" lon="1.24096">
        <ele>281.4</ele>
        <time>2024-11-12T09:44:40Z</time>
      </trkpt>
      <trkpt lat="45.85147" lon="1.24096">
        <ele>281.4</ele>
        <time>2024-11-12T09:44:41Z</time>
      </trkpt>
      <trkpt lat="45.85147" lon="1.24096">
        <ele>281.4</ele>
        <time>2024-11-12T09:44:42Z</time>
      </trkpt>
      <trkpt lat="45.85147" lon="1.24096">
        <ele>281.4</ele>
        <time>2024-11-12T09:44:43Z</time>
      </trkpt>
      <trkpt lat="45.85147" lon="1.24096">
        <ele>281.4</ele>
        <time>2024-11-12T09:44:44Z</time>
      </trkpt>
      <trkpt lat="45.85146" lon="1.24096">
        <ele>281.5</ele>
        <time>2024-11-12T09:44:45Z</time>
      </trkpt>
      <trkpt lat="45.85146" lon="1.24096">
        <ele>281.5</ele>
        <time>2024-11-12T09:44:46Z</time>
      </trkpt>
      <trkpt lat="45.85145" lon="1.24097">
        <ele>281.6</ele>
        <time>2024-11-12T09:44:47Z</time>
      </trkpt>
      <trkpt lat="45.85144" lon="1.24097">
        <ele>281.7</ele>
        <time>2024-11-12T09:44:48Z</time>
      </trkpt>
      <trkpt lat="45.85143" lon="1.24097">
        <ele>281.7</ele>
        <time>2024-11-12T09:44:49Z</time>
      </trkpt>
      <trkpt lat="45.85143" lon="1.24097">
        <ele>281.8</ele>
        <time>2024-11-12T09:44:50Z</time>
      </trkpt>
      <trkpt lat="45.85142" lon="1.24098">
        <ele>281.9</ele>
        <time>2024-11-12T09:44:51Z</time>
      </trkpt>
      <trkpt lat="45.85139" lon="1.241">
        <ele>282.1</ele>
        <time>2024-11-12T09:44:52Z</time>
      </trkpt>
      <trkpt lat="45.85138" lon="1.241">
        <ele>282.2</ele>
        <time>2024-11-12T09:44:53Z</time>
      </trkpt>
      <trkpt lat="45.85136" lon="1.24101">
        <ele>282.4</ele>
        <time>2024-11-12T09:44:54Z</time>
      </trkpt>
      <trkpt lat="45.85135" lon="1.24102">
        <ele>282.5</ele>
        <time>2024-11-12T09:44:55Z</time>
      </trkpt>
      <trkpt lat="45.85134" lon="1.24103">
        <ele>282.7</ele>
        <time>2024-11-12T09:44:56Z</time>
      </trkpt>
      <trkpt lat="45.85132" lon="1.24103">
        <ele>282.8</ele>
        <time>2024-11-12T09:44:57Z</time>
      </trkpt>
      <trkpt lat="45.85129" lon="1.24105">
        <ele>283.2</ele>
        <time>2024-11-12T09:44:58Z</time>
      </trkpt>
      <trkpt lat="45.85128" lon="1.24105">
        <ele>283.3</ele>
        <time>2024-11-12T09:44:59Z</time>
      </trkpt>
      <trkpt lat="45.85126" lon="1.24106">
        <ele>283.6</ele>
        <time>2024-11-12T09:45:00Z</time>
      </trkpt>
      <trkpt lat="45.85125" lon="1.24106">
        <ele>283.7</ele>
        <time>2024-11-12T09:45:01Z</time>
      </trkpt>
      <trkpt lat="45.85124" lon="1.24107">
        <ele>283.8</ele>
        <time>2024-11-12T09:45:02Z</time>
      </trkpt>
      <trkpt lat="45.85123" lon="1.24108">
        <ele>284</ele>
        <time>2024-11-12T09:45:03Z</time>
      </trkpt>
      <trkpt lat="45.85121" lon="1.24109">
        <ele>284.2</ele>
        <time>2024-11-12T09:45:04Z</time>
      </trkpt>
      <trkpt lat="45.85119" lon="1.24111">
        <ele>284.5</ele>
        <time>2024-11-12T09:45:05Z</time>
      </trkpt>
      <trkpt lat="45.85118" lon="1.24112">
        <ele>284.6</ele>
        <time>2024-11-12T09:45:06Z</time>
      </trkpt>
      <trkpt lat="45.85118" lon="1.24112">
        <ele>284.8</ele>
        <time>2024-11-12T09:45:07Z</time>
      </trkpt>
      <trkpt lat="45.85117" lon="1.24113">
        <ele>285</ele>
        <time>2024-11-12T09:45:08Z</time>
      </trkpt>
      <trkpt lat="45.85115" lon="1.24115">
        <ele>285.3</ele>
        <time>2024-11-12T09:45:09Z</time>
      </trkpt>
      <trkpt lat="45.85114" lon="1.24116">
        <ele>285.4</ele>
        <time>2024-11-12T09:45:10Z</time>
      </trkpt>
      <trkpt lat="45.85113" lon="1.24117">
        <ele>285.6</ele>
        <time>2024-11-12T09:45:11Z</time>
      </trkpt>
      <trkpt lat="45.85112" lon="1.24118">
        <ele>285.8</ele>
        <time>2024-11-12T09:45:12Z</time>
      </trkpt>
      <trkpt lat="45.85111" lon="1.24119">
        <ele>286</ele>
        <time>2024-11-12T09:45:13Z</time>
      </trkpt>
      <trkpt lat="45.8511" lon="1.2412">
        <ele>286.2</ele>
        <time>2024-11-12T09:45:14Z</time>
      </trkpt>
      <trkpt lat="45.85109" lon="1.2412">
        <ele>286.4</ele>
        <time>2024-11-12T09:45:15Z</time>
      </trkpt>
      <trkpt lat="45.85108" lon="1.24121">
        <ele>286.6</ele>
        <time>2024-11-12T09:45:16Z</time>
      </trkpt>
      <trkpt lat="45.85107" lon="1.24122">
        <ele>286.7</ele>
        <time>2024-11-12T09:45:17Z</time>
      </trkpt>
      <trkpt lat="45.85106" lon="1.24122">
        <ele>286.9</ele>
        <time>2024-11-12T09:45:18Z</time>
      </trkpt>
      <trkpt lat="45.85105" lon="1.24123">
        <ele>287.2</ele>
        <time>2024-11-12T09:45:19Z</time>
      </trkpt>
      <trkpt lat="45.85104" lon="1.24124">
        <ele>287.3</ele>
        <time>2024-11-12T09:45:20Z</time>
      </trkpt>
      <trkpt lat="45.85103" lon="1.24125">
        <ele>287.5</ele>
        <time>2024-11-12T09:45:21Z</time>
      </trkpt>
      <trkpt lat="45.85103" lon="1.24126">
        <ele>287.6</ele>
        <time>2024-11-12T09:45:22Z</time>
      </trkpt>
      <trkpt lat="45.85102" lon="1.24126">
        <ele>287.8</ele>
        <time>2024-11-12T09:45:23Z</time>
      </trkpt>
      <trkpt lat="45.851" lon="1.24127">
        <ele>288.1</ele>
        <time>2024-11-12T09:45:24Z</time>
      </trkpt>
      <trkpt lat="45.851" lon="1.24128">
        <ele>288.2</ele>
        <time>2024-11-12T09:45:25Z</time>
      </trkpt>
      <trkpt lat="45.85099" lon="1.24128">
        <ele>288.3</ele>
        <time>2024-11-12T09:45:26Z</time>
      </trkpt>
      <trkpt lat="45.85098" lon="1.24129">
        <ele>288.5</ele>
        <time>2024-11-12T09:45:27Z</time>
      </trkpt>
      <trkpt lat="45.85097" lon="1.24129">
        <ele>288.6</ele>
        <time>2024-11-12T09:45:28Z</time>
      </trkpt>
      <trkpt lat="45.85096" lon="1.2413">
        <ele>288.8</ele>
        <time>2024-11-12T09:45:29Z</time>
      </trkpt>
      <trkpt lat="45.85095" lon="1.2413">
        <ele>289</ele>
        <time>2024-11-12T09:45:30Z</time>
      </trkpt>
      <trkpt lat="45.85094" lon="1.24131">
        <ele>289.1</ele>
        <time>2024-11-12T09:45:31Z</time>
      </trkpt>
      <trkpt lat="45.85094" lon="1.24131">
        <ele>289.3</ele>
        <time>2024-11-12T09:45:32Z</time>
      </trkpt>
      <trkpt lat="45.85093" lon="1.24131">
        <ele>289.4</ele>
        <time>2024-11-12T09:45:33Z</time>
      </trkpt>
      <trkpt lat="45.85091" lon="1.24132">
        <ele>289.7</ele>
        <time>2024-11-12T09:45:34Z</time>
      </trkpt>
      <trkpt lat="45.85091" lon="1.24132">
        <ele>289.8</ele>
        <time>2024-11-12T09:45:35Z</time>
      </trkpt>
      <trkpt lat="45.8509" lon="1.24132">
        <ele>289.9</ele>
        <time>2024-11-12T09:45:36Z</time>
      </trkpt>
      <trkpt lat="45.85089" lon="1.24133">
        <ele>290</ele>
        <time>2024-11-12T09:45:37Z</time>
      </trkpt>
      <trkpt lat="45.85089" lon="1.24133">
        <ele>290.1</ele>
        <time>2024-11-12T09:45:38Z</time>
      </trkpt>
      <trkpt lat="45.85087" lon="1.24133">
        <ele>290.3</ele>
        <time>2024-11-12T09:45:39Z</time>
      </trkpt>
      <trkpt lat="45.85087" lon="1.24133">
        <ele>290.4</ele>
        <time>2024-11-12T09:45:40Z</time>
      </trkpt>
      <trkpt lat="45.85086" lon="1.24133">
        <ele>290.5</ele>
        <time>2024-11-12T09:45:41Z</time>
      </trkpt>
      <trkpt lat="45.85085" lon="1.24132">
        <ele>290.7</ele>
        <time>2024-11-12T09:45:42Z</time>
      </trkpt>
      <trkpt lat="45.85084" lon="1.24132">
        <ele>290.8</ele>
        <time>2024-11-12T09:45:43Z</time>
      </trkpt>
      <trkpt lat="45.85083" lon="1.24132">
        <ele>291</ele>
        <time>2024-11-12T09:45:44Z</time>
      </trkpt>
      <trkpt lat="45.85083" lon="1.24132">
        <ele>291.1</ele>
        <time>2024-11-12T09:45:45Z</time>
      </trkpt>
      <trkpt lat="45.85082" lon="1.24133">
        <ele>291.2</ele>
        <time>2024-11-12T09:45:46Z</time>
      </trkpt>
      <trkpt lat="45.85081" lon="1.24133">
        <ele>291.3</ele>
        <time>2024-11-12T09:45:47Z</time>
      </trkpt>
      <trkpt lat="45.85081" lon="1.24133">
        <ele>291.4</ele>
        <time>2024-11-12T09:45:48Z</time>
      </trkpt>
      <trkpt lat="45.8508" lon="1.24133">
        <ele>291.6</ele>
        <time>2024-11-12T09:45:49Z</time>
      </trkpt>
      <trkpt lat="45.85079" lon="1.24133">
        <ele>291.7</ele>
        <time>2024-11-12T09:45:50Z</time>
      </trkpt>
      <trkpt lat="45.85078" lon="1.24133">
        <ele>291.8</ele>
        <time>2024-11-12T09:45:51Z</time>
      </trkpt>
      <trkpt lat="45.85077" lon="1.24133">
        <ele>291.9</ele>
        <time>2024-11-12T09:45:52Z</time>
      </trkpt>
      <trkpt lat="45.85076" lon="1.24132">
        <ele>292</ele>
        <time>2024-11-12T09:45:53Z</time>
      </trkpt>
      <trkpt lat="45.85075" lon="1.24132">
        <ele>292.1</ele>
        <time>2024-11-12T09:45:54Z</time>
      </trkpt>
      <trkpt lat="45.85075" lon="1.24132">
        <ele>292.2</ele>
        <time>2024-11-12T09:45:55Z</time>
      </trkpt>
      <trkpt lat="45.85074" lon="1.24131">
        <ele>292.3</ele>
        <time>2024-11-12T09:45:56Z</time>
      </trkpt>
      <trkpt lat="45.85073" lon="1.24131">
        <ele>292.4</ele>
        <time>2024-11-12T09:45:57Z</time>
      </trkpt>
      <trkpt lat="45.85072" lon="1.2413">
        <ele>292.5</ele>
        <time>2024-11-12T09:45:58Z</time>
      </trkpt>
      <trkpt lat="45.85071" lon="1.24128">
        <ele>292.6</ele>
        <time>2024-11-12T09:45:59Z</time>
      </trkpt>
      <trkpt lat="45.85071" lon="1.24127">
        <ele>292.7</ele>
        <time>2024-11-12T09:46:00Z</time>
      </trkpt>
      <trkpt lat="45.8507" lon="1.24126">
        <ele>292.8</ele>
        <time>2024-11-12T09:46:01Z</time>
      </trkpt>
      <trkpt lat="45.8507" lon="1.24125">
        <ele>292.9</ele>
        <time>2024-11-12T09:46:02Z</time>
      </trkpt>
      <trkpt lat="45.8507" lon="1.24123">
        <ele>293</ele>
        <time>2024-11-12T09:46:03Z</time>
      </trkpt>
      <trkpt lat="45.8507" lon="1.24121">
        <ele>293</ele>
        <time>2024-11-12T09:46:04Z</time>
      </trkpt>
      <trkpt lat="45.85069" lon="1.2412">
        <ele>293.1</ele>
        <time>2024-11-12T09:46:05Z</time>
      </trkpt>
      <trkpt lat="45.85069" lon="1.24119">
        <ele>293.2</ele>
        <time>2024-11-12T09:46:06Z</time>
      </trkpt>
      <trkpt lat="45.85069" lon="1.24118">
        <ele>293.2</ele>
        <time>2024-11-12T09:46:07Z</time>
      </trkpt>
      <trkpt lat="45.85069" lon="1.24117">
        <ele>293.3</ele>
        <time>2024-11-12T09:46:08Z</time>
      </trkpt>
      <trkpt lat="45.85068" lon="1.24114">
        <ele>293.3</ele>
        <time>2024-11-12T09:46:09Z</time>
      </trkpt>
      <trkpt lat="45.85068" lon="1.24114">
        <ele>293.4</ele>
        <time>2024-11-12T09:46:10Z</time>
      </trkpt>
      <trkpt lat="45.85067" lon="1.24113">
        <ele>293.4</ele>
        <time>2024-11-12T09:46:11Z</time>
      </trkpt>
      <trkpt lat="45.85067" lon="1.24112">
        <ele>293.4</ele>
        <time>2024-11-12T09:46:12Z</time>
      </trkpt>
      <trkpt lat="45.85066" lon="1.24112">
        <ele>293.5</ele>
        <time>2024-11-12T09:46:13Z</time>
      </trkpt>
      <trkpt lat="45.85064" lon="1.24111">
        <ele>293.5</ele>
        <time>2024-11-12T09:46:14Z</time>
      </trkpt>
      <trkpt lat="45.85063" lon="1.2411">
        <ele>293.6</ele>
        <time>2024-11-12T09:46:15Z</time>
      </trkpt>
      <trkpt lat="45.85063" lon="1.2411">
        <ele>293.6</ele>
        <time>2024-11-12T09:46:16Z</time>
      </trkpt>
      <trkpt lat="45.85062" lon="1.24109">
        <ele>293.6</ele>
        <time>2024-11-12T09:46:17Z</time>
      </trkpt>
      <trkpt lat="45.85061" lon="1.24108">
        <ele>293.6</ele>
        <time>2024-11-12T09:46:18Z</time>
      </trkpt>
      <trkpt lat="45.8506" lon="1.24106">
        <ele>293.7</ele>
        <time>2024-11-12T09:46:19Z</time>
      </trkpt>
      <trkpt lat="45.85059" lon="1.24106">
        <ele>293.7</ele>
        <time>2024-11-12T09:46:20Z</time>
      </trkpt>
      <trkpt lat="45.85059" lon="1.24105">
        <ele>293.7</ele>
        <time>2024-11-12T09:46:21Z</time>
      </trkpt>
      <trkpt lat="45.85058" lon="1.24104">
        <ele>293.7</ele>
        <time>2024-11-12T09:46:22Z</time>
      </trkpt>
      <trkpt lat="45.85058" lon="1.24102">
        <ele>293.7</ele>
        <time>2024-11-12T09:46:23Z</time>
      </trkpt>
      <trkpt lat="45.85058" lon="1.241">
        <ele>293.8</ele>
        <time>2024-11-12T09:46:24Z</time>
      </trkpt>
      <trkpt lat="45.85057" lon="1.24099">
        <ele>293.7</ele>
        <time>2024-11-12T09:46:25Z</time>
      </trkpt>
      <trkpt lat="45.85057" lon="1.24097">
        <ele>293.7</ele>
        <time>2024-11-12T09:46:26Z</time>
      </trkpt>
      <trkpt lat="45.85057" lon="1.24096">
        <ele>293.7</ele>
        <time>2024-11-12T09:46:27Z</time>
      </trkpt>
      <trkpt lat="45.85057" lon="1.24094">
        <ele>293.7</ele>
        <time>2024-11-12T09:46:28Z</time>
      </trkpt>
      <trkpt lat="45.85057" lon="1.24092">
        <ele>293.6</ele>
        <time>2024-11-12T09:46:29Z</time>
      </trkpt>
      <trkpt lat="45.85058" lon="1.24089">
        <ele>293.6</ele>
        <time>2024-11-12T09:46:30Z</time>
      </trkpt>
      <trkpt lat="45.85059" lon="1.24088">
        <ele>293.6</ele>
        <time>2024-11-12T09:46:31Z</time>
      </trkpt>
      <trkpt lat="45.85059" lon="1.24087">
        <ele>293.6</ele>
        <time>2024-11-12T09:46:32Z</time>
      </trkpt>
      <trkpt lat="45.85061" lon="1.24085">
        <ele>293.5</ele>
        <time>2024-11-12T09:46:33Z</time>
      </trkpt>
      <trkpt lat="45.85061" lon="1.24084">
        <ele>293.5</ele>
        <time>2024-11-12T09:46:34Z</time>
      </trkpt>
      <trkpt lat="45.85062" lon="1.24083">
        <ele>293.5</ele>
        <time>2024-11-12T09:46:35Z</time>
      </trkpt>
      <trkpt lat="45.85063" lon="1.24082">
        <ele>293.5</ele>
        <time>2024-11-12T09:46:36Z</time>
      </trkpt>
      <trkpt lat="45.85064" lon="1.24081">
        <ele>293.5</ele>
        <time>2024-11-12T09:46:37Z</time>
      </trkpt>
      <trkpt lat="45.85064" lon="1.2408">
        <ele>293.4</ele>
        <time>2024-11-12T09:46:38Z</time>
      </trkpt>
      <trkpt lat="45.85065" lon="1.24078">
        <ele>293.4</ele>
        <time>2024-11-12T09:46:39Z</time>
      </trkpt>
      <trkpt lat="45.85066" lon="1.24076">
        <ele>293.4</ele>
        <time>2024-11-12T09:46:40Z</time>
      </trkpt>
      <trkpt lat="45.85066" lon="1.24076">
        <ele>293.4</ele>
        <time>2024-11-12T09:46:41Z</time>
      </trkpt>
      <trkpt lat="45.85067" lon="1.24074">
        <ele>293.3</ele>
        <time>2024-11-12T09:46:42Z</time>
      </trkpt>
      <trkpt lat="45.85068" lon="1.24073">
        <ele>293.3</ele>
        <time>2024-11-12T09:46:43Z</time>
      </trkpt>
      <trkpt lat="45.85068" lon="1.24072">
        <ele>293.3</ele>
        <time>2024-11-12T09:46:44Z</time>
      </trkpt>
      <trkpt lat="45.85069" lon="1.2407">
        <ele>293.3</ele>
        <time>2024-11-12T09:46:45Z</time>
      </trkpt>
      <trkpt lat="45.85069" lon="1.24069">
        <ele>293.3</ele>
        <time>2024-11-12T09:46:46Z</time>
      </trkpt>
      <trkpt lat="45.85069" lon="1.24068">
        <ele>293.3</ele>
        <time>2024-11-12T09:46:47Z</time>
      </trkpt>
      <trkpt lat="45.85069" lon="1.24066">
        <ele>293.2</ele>
        <time>2024-11-12T09:46:48Z</time>
      </trkpt>
      <trkpt lat="45.8507" lon="1.24064">
        <ele>293.2</ele>
        <time>2024-11-12T09:46:49Z</time>
      </trkpt>
      <trkpt lat="45.8507" lon="1.24061">
        <ele>293.2</ele>
        <time>2024-11-12T09:46:50Z</time>
      </trkpt>
      <trkpt lat="45.8507" lon="1.2406">
        <ele>293.2</ele>
        <time>2024-11-12T09:46:51Z</time>
      </trkpt>
      <trkpt lat="45.8507" lon="1.24059">
        <ele>293.1</ele>
        <time>2024-11-12T09:46:52Z</time>
      </trkpt>
      <trkpt lat="45.8507" lon="1.24057">
        <ele>293.1</ele>
        <time>2024-11-12T09:46:53Z</time>
      </trkpt>
      <trkpt lat="45.85071" lon="1.24056">
        <ele>293.1</ele>
        <time>2024-11-12T09:46:54Z</time>
      </trkpt>
      <trkpt lat="45.85071" lon="1.24054">
        <ele>293</ele>
        <time>2024-11-12T09:46:55Z</time>
      </trkpt>
      <trkpt lat="45.8507" lon="1.24052">
        <ele>293</ele>
        <time>2024-11-12T09:46:56Z</time>
      </trkpt>
      <trkpt lat="45.8507" lon="1.24052">
        <ele>293</ele>
        <time>2024-11-12T09:46:57Z</time>
      </trkpt>
      <trkpt lat="45.8507" lon="1.24051">
        <ele>293</ele>
        <time>2024-11-12T09:46:58Z</time>
      </trkpt>
      <trkpt lat="45.8507" lon="1.24051">
        <ele>293</ele>
        <time>2024-11-12T09:46:59Z</time>
      </trkpt>
      <trkpt lat="45.8507" lon="1.2405">
        <ele>293</ele>
        <time>2024-11-12T09:47:00Z</time>
      </trkpt>
      <trkpt lat="45.8507" lon="1.2405">
        <ele>293</ele>
        <time>2024-11-12T09:47:01Z</time>
      </trkpt>
      <trkpt lat="45.8507" lon="1.24049">
        <ele>292.9</ele>
        <time>2024-11-12T09:47:02Z</time>
      </trkpt>
      <trkpt lat="45.8507" lon="1.24049">
        <ele>292.9</ele>
        <time>2024-11-12T09:47:03Z</time>
      </trkpt>
      <trkpt lat="45.85069" lon="1.24048">
        <ele>292.9</ele>
        <time>2024-11-12T09:47:04Z</time>
      </trkpt>
      <trkpt lat="45.85069" lon="1.24048">
        <ele>292.9</ele>
        <time>2024-11-12T09:47:05Z</time>
      </trkpt>
      <trkpt lat="45.85069" lon="1.24047">
        <ele>292.9</ele>
        <time>2024-11-12T09:47:06Z</time>
      </trkpt>
      <trkpt lat="45.85069" lon="1.24047">
        <ele>292.9</ele>
        <time>2024-11-12T09:47:07Z</time>
      </trkpt>
      <trkpt lat="45.85069" lon="1.24046">
        <ele>292.9</ele>
        <time>2024-11-12T09:47:08Z</time>
      </trkpt>
      <trkpt lat="45.85068" lon="1.24043">
        <ele>292.8</ele>
        <time>2024-11-12T09:47:09Z</time>
      </trkpt>
      <trkpt lat="45.85068" lon="1.2404">
        <ele>292.7</ele>
        <time>2024-11-12T09:47:10Z</time>
      </trkpt>
      <trkpt lat="45.85068" lon="1.24038">
        <ele>292.6</ele>
        <time>2024-11-12T09:47:11Z</time>
      </trkpt>
      <trkpt lat="45.85068" lon="1.24035">
        <ele>292.6</ele>
        <time>2024-11-12T09:47:12Z</time>
      </trkpt>
      <trkpt lat="45.85068" lon="1.24034">
        <ele>292.5</ele>
        <time>2024-11-12T09:47:13Z</time>
      </trkpt>
      <trkpt lat="45.85068" lon="1.24032">
        <ele>292.5</ele>
        <time>2024-11-12T09:47:14Z</time>
      </trkpt>
      <trkpt lat="45.85068" lon="1.24029">
        <ele>292.4</ele>
        <time>2024-11-12T09:47:15Z</time>
      </trkpt>
      <trkpt lat="45.85068" lon="1.24026">
        <ele>292.3</ele>
        <time>2024-11-12T09:47:16Z</time>
      </trkpt>
      <trkpt lat="45.85068" lon="1.24025">
        <ele>292.3</ele>
        <time>2024-11-12T09:47:17Z</time>
      </trkpt>
      <trkpt lat="45.85068" lon="1.24024">
        <ele>292.2</ele>
        <time>2024-11-12T09:47:18Z</time>
      </trkpt>
      <trkpt lat="45.85068" lon="1.24022">
        <ele>292.2</ele>
        <time>2024-11-12T09:47:19Z</time>
      </trkpt>
      <trkpt lat="45.85068" lon="1.24019">
        <ele>292.1</ele>
        <time>2024-11-12T09:47:20Z</time>
      </trkpt>
      <trkpt lat="45.85069" lon="1.24016">
        <ele>292</ele>
        <time>2024-11-12T09:47:21Z</time>
      </trkpt>
      <trkpt lat="45.85069" lon="1.24015">
        <ele>292</ele>
        <time>2024-11-12T09:47:22Z</time>
      </trkpt>
      <trkpt lat="45.85069" lon="1.24014">
        <ele>291.9</ele>
        <time>2024-11-12T09:47:23Z</time>
      </trkpt>
      <trkpt lat="45.85069" lon="1.24011">
        <ele>291.8</ele>
        <time>2024-11-12T09:47:24Z</time>
      </trkpt>
      <trkpt lat="45.85069" lon="1.24009">
        <ele>291.7</ele>
        <time>2024-11-12T09:47:25Z</time>
      </trkpt>
      <trkpt lat="45.85069" lon="1.24006">
        <ele>291.6</ele>
        <time>2024-11-12T09:47:26Z</time>
      </trkpt>
      <trkpt lat="45.85069" lon="1.24005">
        <ele>291.6</ele>
        <time>2024-11-12T09:47:27Z</time>
      </trkpt>
      <trkpt lat="45.85068" lon="1.24004">
        <ele>291.5</ele>
        <time>2024-11-12T09:47:28Z</time>
      </trkpt>
      <trkpt lat="45.85068" lon="1.24002">
        <ele>291.4</ele>
        <time>2024-11-12T09:47:29Z</time>
      </trkpt>
      <trkpt lat="45.85068" lon="1.24">
        <ele>291.3</ele>
        <time>2024-11-12T09:47:30Z</time>
      </trkpt>
      <trkpt lat="45.85068" lon="1.23998">
        <ele>291.2</ele>
        <time>2024-11-12T09:47:31Z</time>
      </trkpt>
      <trkpt lat="45.85068" lon="1.23996">
        <ele>291.1</ele>
        <time>2024-11-12T09:47:32Z</time>
      </trkpt>
      <trkpt lat="45.85067" lon="1.23994">
        <ele>291</ele>
        <time>2024-11-12T09:47:33Z</time>
      </trkpt>
      <trkpt lat="45.85067" lon="1.23992">
        <ele>290.9</ele>
        <time>2024-11-12T09:47:34Z</time>
      </trkpt>
      <trkpt lat="45.85067" lon="1.23992">
        <ele>290.9</ele>
        <time>2024-11-12T09:47:35Z</time>
      </trkpt>
      <trkpt lat="45.85066" lon="1.23991">
        <ele>290.9</ele>
        <time>2024-11-12T09:47:36Z</time>
      </trkpt>
      <trkpt lat="45.85066" lon="1.23995">
        <ele>290.6</ele>
        <time>2024-11-12T09:47:37Z</time>
      </trkpt>
      <trkpt lat="45.85066" lon="1.23996">
        <ele>290.5</ele>
        <time>2024-11-12T09:47:38Z</time>
      </trkpt>
      <trkpt lat="45.85066" lon="1.23997">
        <ele>290.5</ele>
        <time>2024-11-12T09:47:39Z</time>
      </trkpt>
      <trkpt lat="45.85066" lon="1.23996">
        <ele>290.4</ele>
        <time>2024-11-12T09:47:40Z</time>
      </trkpt>
      <trkpt lat="45.85065" lon="1.23995">
        <ele>290.4</ele>
        <time>2024-11-12T09:47:41Z</time>
      </trkpt>
      <trkpt lat="45.85065" lon="1.23995">
        <ele>290.3</ele>
        <time>2024-11-12T09:47:42Z</time>
      </trkpt>
      <trkpt lat="45.85065" lon="1.23994">
        <ele>290.3</ele>
        <time>2024-11-12T09:47:43Z</time>
      </trkpt>
      <trkpt lat="45.85065" lon="1.23993">
        <ele>290.2</ele>
        <time>2024-11-12T09:47:44Z</time>
      </trkpt>
      <trkpt lat="45.85064" lon="1.23993">
        <ele>290.1</ele>
        <time>2024-11-12T09:47:45Z</time>
      </trkpt>
      <trkpt lat="45.85064" lon="1.23992">
        <ele>290.1</ele>
        <time>2024-11-12T09:47:46Z</time>
      </trkpt>
      <trkpt lat="45.85064" lon="1.23991">
        <ele>290</ele>
        <time>2024-11-12T09:47:47Z</time>
      </trkpt>
      <trkpt lat="45.85063" lon="1.23991">
        <ele>289.9</ele>
        <time>2024-11-12T09:47:48Z</time>
      </trkpt>
      <trkpt lat="45.85062" lon="1.23987">
        <ele>289.5</ele>
        <time>2024-11-12T09:47:49Z</time>
      </trkpt>
      <trkpt lat="45.8506" lon="1.23983">
        <ele>289.1</ele>
        <time>2024-11-12T09:47:50Z</time>
      </trkpt>
      <trkpt lat="45.8506" lon="1.23982">
        <ele>289</ele>
        <time>2024-11-12T09:47:51Z</time>
      </trkpt>
      <trkpt lat="45.85059" lon="1.2398">
        <ele>288.8</ele>
        <time>2024-11-12T09:47:52Z</time>
      </trkpt>
      <trkpt lat="45.85059" lon="1.23978">
        <ele>288.5</ele>
        <time>2024-11-12T09:47:53Z</time>
      </trkpt>
      <trkpt lat="45.85059" lon="1.23976">
        <ele>288.2</ele>
        <time>2024-11-12T09:47:54Z</time>
      </trkpt>
      <trkpt lat="45.85058" lon="1.23972">
        <ele>287.8</ele>
        <time>2024-11-12T09:47:55Z</time>
      </trkpt>
      <trkpt lat="45.85058" lon="1.23969">
        <ele>287.4</ele>
        <time>2024-11-12T09:47:57Z</time>
      </trkpt>
      <trkpt lat="45.85058" lon="1.23968">
        <ele>287.3</ele>
        <time>2024-11-12T09:47:58Z</time>
      </trkpt>
      <trkpt lat="45.85058" lon="1.23966">
        <ele>287</ele>
        <time>2024-11-12T09:47:59Z</time>
      </trkpt>
      <trkpt lat="45.85058" lon="1.23964">
        <ele>286.8</ele>
        <time>2024-11-12T09:48:00Z</time>
      </trkpt>
      <trkpt lat="45.85058" lon="1.23962">
        <ele>286.6</ele>
        <time>2024-11-12T09:48:01Z</time>
      </trkpt>
      <trkpt lat="45.85058" lon="1.23961">
        <ele>286.4</ele>
        <time>2024-11-12T09:48:02Z</time>
      </trkpt>
      <trkpt lat="45.85058" lon="1.23959">
        <ele>286.2</ele>
        <time>2024-11-12T09:48:03Z</time>
      </trkpt>
      <trkpt lat="45.85058" lon="1.23957">
        <ele>286</ele>
        <time>2024-11-12T09:48:04Z</time>
      </trkpt>
      <trkpt lat="45.85058" lon="1.23956">
        <ele>285.8</ele>
        <time>2024-11-12T09:48:05Z</time>
      </trkpt>
      <trkpt lat="45.85058" lon="1.23954">
        <ele>285.6</ele>
        <time>2024-11-12T09:48:06Z</time>
      </trkpt>
      <trkpt lat="45.85059" lon="1.23951">
        <ele>285.2</ele>
        <time>2024-11-12T09:48:07Z</time>
      </trkpt>
      <trkpt lat="45.85059" lon="1.2395">
        <ele>285.1</ele>
        <time>2024-11-12T09:48:08Z</time>
      </trkpt>
      <trkpt lat="45.85059" lon="1.23949">
        <ele>284.9</ele>
        <time>2024-11-12T09:48:09Z</time>
      </trkpt>
      <trkpt lat="45.85059" lon="1.23946">
        <ele>284.6</ele>
        <time>2024-11-12T09:48:10Z</time>
      </trkpt>
      <trkpt lat="45.85059" lon="1.23945">
        <ele>284.5</ele>
        <time>2024-11-12T09:48:11Z</time>
      </trkpt>
      <trkpt lat="45.85059" lon="1.23944">
        <ele>284.3</ele>
        <time>2024-11-12T09:48:12Z</time>
      </trkpt>
      <trkpt lat="45.85059" lon="1.23941">
        <ele>284</ele>
        <time>2024-11-12T09:48:13Z</time>
      </trkpt>
      <trkpt lat="45.85059" lon="1.23939">
        <ele>283.9</ele>
        <time>2024-11-12T09:48:14Z</time>
      </trkpt>
      <trkpt lat="45.85059" lon="1.23938">
        <ele>283.8</ele>
        <time>2024-11-12T09:48:15Z</time>
      </trkpt>
      <trkpt lat="45.85059" lon="1.23938">
        <ele>283.7</ele>
        <time>2024-11-12T09:48:16Z</time>
      </trkpt>
      <trkpt lat="45.85059" lon="1.23939">
        <ele>283.6</ele>
        <time>2024-11-12T09:48:17Z</time>
      </trkpt>
      <trkpt lat="45.8506" lon="1.2394">
        <ele>283.4</ele>
        <time>2024-11-12T09:48:18Z</time>
      </trkpt>
      <trkpt lat="45.8506" lon="1.23941">
        <ele>283.4</ele>
        <time>2024-11-12T09:48:19Z</time>
      </trkpt>
      <trkpt lat="45.8506" lon="1.23941">
        <ele>283.3</ele>
        <time>2024-11-12T09:48:20Z</time>
      </trkpt>
      <trkpt lat="45.8506" lon="1.23941">
        <ele>283.3</ele>
        <time>2024-11-12T09:48:21Z</time>
      </trkpt>
      <trkpt lat="45.8506" lon="1.2394">
        <ele>283.2</ele>
        <time>2024-11-12T09:48:22Z</time>
      </trkpt>
      <trkpt lat="45.8506" lon="1.23939">
        <ele>283.1</ele>
        <time>2024-11-12T09:48:23Z</time>
      </trkpt>
      <trkpt lat="45.8506" lon="1.23938">
        <ele>283</ele>
        <time>2024-11-12T09:48:24Z</time>
      </trkpt>
      <trkpt lat="45.8506" lon="1.23937">
        <ele>283</ele>
        <time>2024-11-12T09:48:25Z</time>
      </trkpt>
      <trkpt lat="45.8506" lon="1.23936">
        <ele>282.9</ele>
        <time>2024-11-12T09:48:26Z</time>
      </trkpt>
      <trkpt lat="45.8506" lon="1.23935">
        <ele>282.8</ele>
        <time>2024-11-12T09:48:27Z</time>
      </trkpt>
      <trkpt lat="45.8506" lon="1.23934">
        <ele>282.8</ele>
        <time>2024-11-12T09:48:28Z</time>
      </trkpt>
      <trkpt lat="45.85059" lon="1.23933">
        <ele>282.7</ele>
        <time>2024-11-12T09:48:29Z</time>
      </trkpt>
      <trkpt lat="45.85059" lon="1.23929">
        <ele>282.4</ele>
        <time>2024-11-12T09:48:30Z</time>
      </trkpt>
      <trkpt lat="45.85059" lon="1.23927">
        <ele>282.3</ele>
        <time>2024-11-12T09:48:31Z</time>
      </trkpt>
      <trkpt lat="45.85058" lon="1.23925">
        <ele>282.1</ele>
        <time>2024-11-12T09:48:32Z</time>
      </trkpt>
      <trkpt lat="45.85058" lon="1.23922">
        <ele>282</ele>
        <time>2024-11-12T09:48:33Z</time>
      </trkpt>
      <trkpt lat="45.85057" lon="1.23921">
        <ele>282</ele>
        <time>2024-11-12T09:48:34Z</time>
      </trkpt>
      <trkpt lat="45.85056" lon="1.23922">
        <ele>281.9</ele>
        <time>2024-11-12T09:48:35Z</time>
      </trkpt>
      <trkpt lat="45.85056" lon="1.23926">
        <ele>281.7</ele>
        <time>2024-11-12T09:48:36Z</time>
      </trkpt>
      <trkpt lat="45.85056" lon="1.23927">
        <ele>281.7</ele>
        <time>2024-11-12T09:48:37Z</time>
      </trkpt>
      <trkpt lat="45.85056" lon="1.23927">
        <ele>281.7</ele>
        <time>2024-11-12T09:48:38Z</time>
      </trkpt>
      <trkpt lat="45.85056" lon="1.23925">
        <ele>281.6</ele>
        <time>2024-11-12T09:48:39Z</time>
      </trkpt>
      <trkpt lat="45.85056" lon="1.23924">
        <ele>281.6</ele>
        <time>2024-11-12T09:48:40Z</time>
      </trkpt>
      <trkpt lat="45.85055" lon="1.23923">
        <ele>281.5</ele>
        <time>2024-11-12T09:48:41Z</time>
      </trkpt>
      <trkpt lat="45.85055" lon="1.23921">
        <ele>281.5</ele>
        <time>2024-11-12T09:48:42Z</time>
      </trkpt>
      <trkpt lat="45.85054" lon="1.23914">
        <ele>281.3</ele>
        <time>2024-11-12T09:48:43Z</time>
      </trkpt>
      <trkpt lat="45.85052" lon="1.23911">
        <ele>281.2</ele>
        <time>2024-11-12T09:48:44Z</time>
      </trkpt>
      <trkpt lat="45.85051" lon="1.2391">
        <ele>281.1</ele>
        <time>2024-11-12T09:48:45Z</time>
      </trkpt>
      <trkpt lat="45.85049" lon="1.23908">
        <ele>281.1</ele>
        <time>2024-11-12T09:48:46Z</time>
      </trkpt>
      <trkpt lat="45.85049" lon="1.23907">
        <ele>281.1</ele>
        <time>2024-11-12T09:48:47Z</time>
      </trkpt>
      <trkpt lat="45.85048" lon="1.23906">
        <ele>281</ele>
        <time>2024-11-12T09:48:48Z</time>
      </trkpt>
      <trkpt lat="45.85047" lon="1.23905">
        <ele>281</ele>
        <time>2024-11-12T09:48:49Z</time>
      </trkpt>
      <trkpt lat="45.85046" lon="1.23903">
        <ele>281</ele>
        <time>2024-11-12T09:48:50Z</time>
      </trkpt>
      <trkpt lat="45.85045" lon="1.239">
        <ele>280.9</ele>
        <time>2024-11-12T09:48:51Z</time>
      </trkpt>
      <trkpt lat="45.85045" lon="1.23898">
        <ele>280.9</ele>
        <time>2024-11-12T09:48:52Z</time>
      </trkpt>
      <trkpt lat="45.85044" lon="1.23897">
        <ele>280.9</ele>
        <time>2024-11-12T09:48:53Z</time>
      </trkpt>
      <trkpt lat="45.85044" lon="1.23895">
        <ele>280.9</ele>
        <time>2024-11-12T09:48:54Z</time>
      </trkpt>
      <trkpt lat="45.85043" lon="1.23892">
        <ele>280.8</ele>
        <time>2024-11-12T09:48:55Z</time>
      </trkpt>
      <trkpt lat="45.85043" lon="1.23889">
        <ele>280.8</ele>
        <time>2024-11-12T09:48:56Z</time>
      </trkpt>
      <trkpt lat="45.85042" lon="1.23888">
        <ele>280.8</ele>
        <time>2024-11-12T09:48:57Z</time>
      </trkpt>
      <trkpt lat="45.85042" lon="1.23886">
        <ele>280.8</ele>
        <time>2024-11-12T09:48:58Z</time>
      </trkpt>
      <trkpt lat="45.85042" lon="1.23884">
        <ele>280.7</ele>
        <time>2024-11-12T09:48:59Z</time>
      </trkpt>
      <trkpt lat="45.85041" lon="1.23882">
        <ele>280.7</ele>
        <time>2024-11-12T09:49:00Z</time>
      </trkpt>
      <trkpt lat="45.8504" lon="1.2388">
        <ele>280.7</ele>
        <time>2024-11-12T09:49:01Z</time>
      </trkpt>
      <trkpt lat="45.8504" lon="1.23879">
        <ele>280.7</ele>
        <time>2024-11-12T09:49:02Z</time>
      </trkpt>
      <trkpt lat="45.85039" lon="1.23877">
        <ele>280.6</ele>
        <time>2024-11-12T09:49:03Z</time>
      </trkpt>
      <trkpt lat="45.85039" lon="1.23875">
        <ele>280.6</ele>
        <time>2024-11-12T09:49:04Z</time>
      </trkpt>
      <trkpt lat="45.85038" lon="1.23872">
        <ele>280.6</ele>
        <time>2024-11-12T09:49:05Z</time>
      </trkpt>
      <trkpt lat="45.85037" lon="1.23871">
        <ele>280.6</ele>
        <time>2024-11-12T09:49:06Z</time>
      </trkpt>
      <trkpt lat="45.85037" lon="1.23869">
        <ele>280.5</ele>
        <time>2024-11-12T09:49:07Z</time>
      </trkpt>
      <trkpt lat="45.85036" lon="1.23868">
        <ele>280.5</ele>
        <time>2024-11-12T09:49:08Z</time>
      </trkpt>
      <trkpt lat="45.85035" lon="1.23866">
        <ele>280.5</ele>
        <time>2024-11-12T09:49:09Z</time>
      </trkpt>
      <trkpt lat="45.85034" lon="1.23864">
        <ele>280.5</ele>
        <time>2024-11-12T09:49:10Z</time>
      </trkpt>
      <trkpt lat="45.85033" lon="1.23863">
        <ele>280.4</ele>
        <time>2024-11-12T09:49:11Z</time>
      </trkpt>
      <trkpt lat="45.85032" lon="1.23862">
        <ele>280.4</ele>
        <time>2024-11-12T09:49:12Z</time>
      </trkpt>
      <trkpt lat="45.85032" lon="1.23863">
        <ele>280.4</ele>
        <time>2024-11-12T09:49:13Z</time>
      </trkpt>
      <trkpt lat="45.85033" lon="1.23863">
        <ele>280.4</ele>
        <time>2024-11-12T09:49:14Z</time>
      </trkpt>
      <trkpt lat="45.85034" lon="1.23864">
        <ele>280.4</ele>
        <time>2024-11-12T09:49:15Z</time>
      </trkpt>
      <trkpt lat="45.85034" lon="1.23865">
        <ele>280.4</ele>
        <time>2024-11-12T09:49:16Z</time>
      </trkpt>
      <trkpt lat="45.85034" lon="1.23865">
        <ele>280.4</ele>
        <time>2024-11-12T09:49:17Z</time>
      </trkpt>
      <trkpt lat="45.85034" lon="1.23865">
        <ele>280.4</ele>
        <time>2024-11-12T09:49:18Z</time>
      </trkpt>
      <trkpt lat="45.85034" lon="1.23865">
        <ele>280.4</ele>
        <time>2024-11-12T09:49:19Z</time>
      </trkpt>
      <trkpt lat="45.85034" lon="1.23865">
        <ele>280.4</ele>
        <time>2024-11-12T09:49:20Z</time>
      </trkpt>
      <trkpt lat="45.85034" lon="1.23865">
        <ele>280.4</ele>
        <time>2024-11-12T09:49:21Z</time>
      </trkpt>
      <trkpt lat="45.85034" lon="1.23866">
        <ele>280.3</ele>
        <time>2024-11-12T09:49:22Z</time>
      </trkpt>
      <trkpt lat="45.85034" lon="1.23866">
        <ele>280.3</ele>
        <time>2024-11-12T09:49:23Z</time>
      </trkpt>
      <trkpt lat="45.85033" lon="1.23866">
        <ele>280.3</ele>
        <time>2024-11-12T09:49:24Z</time>
      </trkpt>
      <trkpt lat="45.85032" lon="1.23866">
        <ele>280.3</ele>
        <time>2024-11-12T09:49:25Z</time>
      </trkpt>
      <trkpt lat="45.85032" lon="1.23866">
        <ele>280.3</ele>
        <time>2024-11-12T09:49:26Z</time>
      </trkpt>
      <trkpt lat="45.85031" lon="1.23866">
        <ele>280.3</ele>
        <time>2024-11-12T09:49:27Z</time>
      </trkpt>
      <trkpt lat="45.85031" lon="1.23866">
        <ele>280.3</ele>
        <time>2024-11-12T09:49:28Z</time>
      </trkpt>
      <trkpt lat="45.85031" lon="1.23866">
        <ele>280.3</ele>
        <time>2024-11-12T09:49:29Z</time>
      </trkpt>
      <trkpt lat="45.8503" lon="1.23866">
        <ele>280.3</ele>
        <time>2024-11-12T09:49:30Z</time>
      </trkpt>
      <trkpt lat="45.85029" lon="1.23865">
        <ele>280.3</ele>
        <time>2024-11-12T09:49:31Z</time>
      </trkpt>
      <trkpt lat="45.85029" lon="1.23864">
        <ele>280.3</ele>
        <time>2024-11-12T09:49:32Z</time>
      </trkpt>
      <trkpt lat="45.85028" lon="1.23863">
        <ele>280.2</ele>
        <time>2024-11-12T09:49:33Z</time>
      </trkpt>
      <trkpt lat="45.85026" lon="1.23861">
        <ele>280.2</ele>
        <time>2024-11-12T09:49:34Z</time>
      </trkpt>
      <trkpt lat="45.85021" lon="1.23858">
        <ele>280.1</ele>
        <time>2024-11-12T09:49:35Z</time>
      </trkpt>
      <trkpt lat="45.8502" lon="1.23856">
        <ele>280.1</ele>
        <time>2024-11-12T09:49:36Z</time>
      </trkpt>
      <trkpt lat="45.85018" lon="1.23855">
        <ele>280.1</ele>
        <time>2024-11-12T09:49:37Z</time>
      </trkpt>
      <trkpt lat="45.85017" lon="1.23854">
        <ele>280.1</ele>
        <time>2024-11-12T09:49:38Z</time>
      </trkpt>
      <trkpt lat="45.85016" lon="1.23852">
        <ele>280.1</ele>
        <time>2024-11-12T09:49:39Z</time>
      </trkpt>
      <trkpt lat="45.85014" lon="1.2385">
        <ele>280.1</ele>
        <time>2024-11-12T09:49:40Z</time>
      </trkpt>
      <trkpt lat="45.85013" lon="1.23849">
        <ele>280.1</ele>
        <time>2024-11-12T09:49:41Z</time>
      </trkpt>
      <trkpt lat="45.85012" lon="1.23848">
        <ele>280.1</ele>
        <time>2024-11-12T09:49:42Z</time>
      </trkpt>
      <trkpt lat="45.85011" lon="1.23846">
        <ele>280.2</ele>
        <time>2024-11-12T09:49:43Z</time>
      </trkpt>
      <trkpt lat="45.8501" lon="1.23844">
        <ele>280.2</ele>
        <time>2024-11-12T09:49:44Z</time>
      </trkpt>
      <trkpt lat="45.85009" lon="1.23842">
        <ele>280.2</ele>
        <time>2024-11-12T09:49:45Z</time>
      </trkpt>
      <trkpt lat="45.85009" lon="1.2384">
        <ele>280.3</ele>
        <time>2024-11-12T09:49:46Z</time>
      </trkpt>
      <trkpt lat="45.85008" lon="1.23838">
        <ele>280.3</ele>
        <time>2024-11-12T09:49:47Z</time>
      </trkpt>
      <trkpt lat="45.85008" lon="1.23836">
        <ele>280.3</ele>
        <time>2024-11-12T09:49:48Z</time>
      </trkpt>
      <trkpt lat="45.85007" lon="1.23835">
        <ele>280.4</ele>
        <time>2024-11-12T09:49:49Z</time>
      </trkpt>
      <trkpt lat="45.85007" lon="1.23832">
        <ele>280.4</ele>
        <time>2024-11-12T09:49:50Z</time>
      </trkpt>
      <trkpt lat="45.85007" lon="1.23831">
        <ele>280.5</ele>
        <time>2024-11-12T09:49:51Z</time>
      </trkpt>
      <trkpt lat="45.85007" lon="1.23829">
        <ele>280.5</ele>
        <time>2024-11-12T09:49:52Z</time>
      </trkpt>
      <trkpt lat="45.85006" lon="1.23827">
        <ele>280.6</ele>
        <time>2024-11-12T09:49:53Z</time>
      </trkpt>
      <trkpt lat="45.85006" lon="1.23825">
        <ele>280.7</ele>
        <time>2024-11-12T09:49:54Z</time>
      </trkpt>
      <trkpt lat="45.85005" lon="1.23822">
        <ele>280.8</ele>
        <time>2024-11-12T09:49:55Z</time>
      </trkpt>
      <trkpt lat="45.85005" lon="1.23821">
        <ele>280.8</ele>
        <time>2024-11-12T09:49:56Z</time>
      </trkpt>
      <trkpt lat="45.85004" lon="1.23819">
        <ele>280.9</ele>
        <time>2024-11-12T09:49:57Z</time>
      </trkpt>
      <trkpt lat="45.85004" lon="1.23818">
        <ele>280.9</ele>
        <time>2024-11-12T09:49:58Z</time>
      </trkpt>
      <trkpt lat="45.85004" lon="1.23817">
        <ele>281</ele>
        <time>2024-11-12T09:49:59Z</time>
      </trkpt>
      <trkpt lat="45.85004" lon="1.23816">
        <ele>281</ele>
        <time>2024-11-12T09:50:00Z</time>
      </trkpt>
      <trkpt lat="45.85003" lon="1.23816">
        <ele>281</ele>
        <time>2024-11-12T09:50:01Z</time>
      </trkpt>
      <trkpt lat="45.85003" lon="1.23815">
        <ele>281</ele>
        <time>2024-11-12T09:50:02Z</time>
      </trkpt>
      <trkpt lat="45.85003" lon="1.23814">
        <ele>281.1</ele>
        <time>2024-11-12T09:50:03Z</time>
      </trkpt>
      <trkpt lat="45.85003" lon="1.23814">
        <ele>281.1</ele>
        <time>2024-11-12T09:50:04Z</time>
      </trkpt>
      <trkpt lat="45.85003" lon="1.23813">
        <ele>281.1</ele>
        <time>2024-11-12T09:50:05Z</time>
      </trkpt>
      <trkpt lat="45.85002" lon="1.23813">
        <ele>281.1</ele>
        <time>2024-11-12T09:50:06Z</time>
      </trkpt>
      <trkpt lat="45.85002" lon="1.23812">
        <ele>281.1</ele>
        <time>2024-11-12T09:50:07Z</time>
      </trkpt>
      <trkpt lat="45.85002" lon="1.23812">
        <ele>281.2</ele>
        <time>2024-11-12T09:50:08Z</time>
      </trkpt>
      <trkpt lat="45.85" lon="1.23808">
        <ele>281.3</ele>
        <time>2024-11-12T09:50:09Z</time>
      </trkpt>
      <trkpt lat="45.85" lon="1.23805">
        <ele>281.4</ele>
        <time>2024-11-12T09:50:10Z</time>
      </trkpt>
      <trkpt lat="45.84999" lon="1.23803">
        <ele>281.5</ele>
        <time>2024-11-12T09:50:11Z</time>
      </trkpt>
      <trkpt lat="45.84998" lon="1.23802">
        <ele>281.5</ele>
        <time>2024-11-12T09:50:12Z</time>
      </trkpt>
      <trkpt lat="45.84997" lon="1.238">
        <ele>281.6</ele>
        <time>2024-11-12T09:50:13Z</time>
      </trkpt>
      <trkpt lat="45.84995" lon="1.23798">
        <ele>281.7</ele>
        <time>2024-11-12T09:50:14Z</time>
      </trkpt>
      <trkpt lat="45.84995" lon="1.23797">
        <ele>281.7</ele>
        <time>2024-11-12T09:50:15Z</time>
      </trkpt>
      <trkpt lat="45.84994" lon="1.23797">
        <ele>281.7</ele>
        <time>2024-11-12T09:50:16Z</time>
      </trkpt>
      <trkpt lat="45.84992" lon="1.23796">
        <ele>281.8</ele>
        <time>2024-11-12T09:50:17Z</time>
      </trkpt>
      <trkpt lat="45.84991" lon="1.23795">
        <ele>281.8</ele>
        <time>2024-11-12T09:50:18Z</time>
      </trkpt>
      <trkpt lat="45.8499" lon="1.23794">
        <ele>281.8</ele>
        <time>2024-11-12T09:50:19Z</time>
      </trkpt>
      <trkpt lat="45.84989" lon="1.23794">
        <ele>281.8</ele>
        <time>2024-11-12T09:50:20Z</time>
      </trkpt>
      <trkpt lat="45.84987" lon="1.23793">
        <ele>281.8</ele>
        <time>2024-11-12T09:50:21Z</time>
      </trkpt>
      <trkpt lat="45.84986" lon="1.23793">
        <ele>281.8</ele>
        <time>2024-11-12T09:50:22Z</time>
      </trkpt>
      <trkpt lat="45.84985" lon="1.23792">
        <ele>281.8</ele>
        <time>2024-11-12T09:50:23Z</time>
      </trkpt>
      <trkpt lat="45.84983" lon="1.23791">
        <ele>281.8</ele>
        <time>2024-11-12T09:50:24Z</time>
      </trkpt>
      <trkpt lat="45.84982" lon="1.23791">
        <ele>281.8</ele>
        <time>2024-11-12T09:50:25Z</time>
      </trkpt>
      <trkpt lat="45.84981" lon="1.2379">
        <ele>281.8</ele>
        <time>2024-11-12T09:50:26Z</time>
      </trkpt>
      <trkpt lat="45.8498" lon="1.23789">
        <ele>281.7</ele>
        <time>2024-11-12T09:50:27Z</time>
      </trkpt>
      <trkpt lat="45.84979" lon="1.23788">
        <ele>281.7</ele>
        <time>2024-11-12T09:50:28Z</time>
      </trkpt>
      <trkpt lat="45.84978" lon="1.23788">
        <ele>281.7</ele>
        <time>2024-11-12T09:50:29Z</time>
      </trkpt>
      <trkpt lat="45.84977" lon="1.23787">
        <ele>281.6</ele>
        <time>2024-11-12T09:50:30Z</time>
      </trkpt>
      <trkpt lat="45.84976" lon="1.23786">
        <ele>281.5</ele>
        <time>2024-11-12T09:50:31Z</time>
      </trkpt>
      <trkpt lat="45.84976" lon="1.23786">
        <ele>281.5</ele>
        <time>2024-11-12T09:50:32Z</time>
      </trkpt>
      <trkpt lat="45.84975" lon="1.23785">
        <ele>281.4</ele>
        <time>2024-11-12T09:50:33Z</time>
      </trkpt>
      <trkpt lat="45.84974" lon="1.23784">
        <ele>281.4</ele>
        <time>2024-11-12T09:50:34Z</time>
      </trkpt>
      <trkpt lat="45.84973" lon="1.23783">
        <ele>281.3</ele>
        <time>2024-11-12T09:50:35Z</time>
      </trkpt>
      <trkpt lat="45.84972" lon="1.23783">
        <ele>281.2</ele>
        <time>2024-11-12T09:50:36Z</time>
      </trkpt>
      <trkpt lat="45.84971" lon="1.23782">
        <ele>281.1</ele>
        <time>2024-11-12T09:50:37Z</time>
      </trkpt>
      <trkpt lat="45.8497" lon="1.23781">
        <ele>281</ele>
        <time>2024-11-12T09:50:38Z</time>
      </trkpt>
      <trkpt lat="45.84969" lon="1.2378">
        <ele>280.9</ele>
        <time>2024-11-12T09:50:39Z</time>
      </trkpt>
      <trkpt lat="45.84968" lon="1.2378">
        <ele>280.8</ele>
        <time>2024-11-12T09:50:40Z</time>
      </trkpt>
      <trkpt lat="45.84968" lon="1.23779">
        <ele>280.7</ele>
        <time>2024-11-12T09:50:41Z</time>
      </trkpt>
      <trkpt lat="45.84967" lon="1.23778">
        <ele>280.6</ele>
        <time>2024-11-12T09:50:42Z</time>
      </trkpt>
      <trkpt lat="45.84966" lon="1.23777">
        <ele>280.5</ele>
        <time>2024-11-12T09:50:43Z</time>
      </trkpt>
      <trkpt lat="45.84965" lon="1.23776">
        <ele>280.3</ele>
        <time>2024-11-12T09:50:44Z</time>
      </trkpt>
      <trkpt lat="45.84964" lon="1.23775">
        <ele>280.2</ele>
        <time>2024-11-12T09:50:45Z</time>
      </trkpt>
      <trkpt lat="45.84963" lon="1.23774">
        <ele>280</ele>
        <time>2024-11-12T09:50:46Z</time>
      </trkpt>
      <trkpt lat="45.84962" lon="1.23774">
        <ele>279.9</ele>
        <time>2024-11-12T09:50:47Z</time>
      </trkpt>
      <trkpt lat="45.84961" lon="1.23773">
        <ele>279.8</ele>
        <time>2024-11-12T09:50:48Z</time>
      </trkpt>
      <trkpt lat="45.84961" lon="1.23772">
        <ele>279.7</ele>
        <time>2024-11-12T09:50:49Z</time>
      </trkpt>
      <trkpt lat="45.8496" lon="1.23771">
        <ele>279.5</ele>
        <time>2024-11-12T09:50:50Z</time>
      </trkpt>
      <trkpt lat="45.84959" lon="1.2377">
        <ele>279.4</ele>
        <time>2024-11-12T09:50:51Z</time>
      </trkpt>
      <trkpt lat="45.84958" lon="1.23769">
        <ele>279.2</ele>
        <time>2024-11-12T09:50:52Z</time>
      </trkpt>
      <trkpt lat="45.84957" lon="1.23768">
        <ele>279</ele>
        <time>2024-11-12T09:50:53Z</time>
      </trkpt>
      <trkpt lat="45.84956" lon="1.23767">
        <ele>278.9</ele>
        <time>2024-11-12T09:50:54Z</time>
      </trkpt>
      <trkpt lat="45.84957" lon="1.23764">
        <ele>278.6</ele>
        <time>2024-11-12T09:50:55Z</time>
      </trkpt>
      <trkpt lat="45.84958" lon="1.23764">
        <ele>278.3</ele>
        <time>2024-11-12T09:50:56Z</time>
      </trkpt>
      <trkpt lat="45.84959" lon="1.23763">
        <ele>278.1</ele>
        <time>2024-11-12T09:50:57Z</time>
      </trkpt>
      <trkpt lat="45.84961" lon="1.23763">
        <ele>277.9</ele>
        <time>2024-11-12T09:50:58Z</time>
      </trkpt>
      <trkpt lat="45.84962" lon="1.23763">
        <ele>277.6</ele>
        <time>2024-11-12T09:50:59Z</time>
      </trkpt>
      <trkpt lat="45.84964" lon="1.23763">
        <ele>277.4</ele>
        <time>2024-11-12T09:51:00Z</time>
      </trkpt>
      <trkpt lat="45.84965" lon="1.23763">
        <ele>277.1</ele>
        <time>2024-11-12T09:51:01Z</time>
      </trkpt>
      <trkpt lat="45.84967" lon="1.23763">
        <ele>276.9</ele>
        <time>2024-11-12T09:51:02Z</time>
      </trkpt>
      <trkpt lat="45.84968" lon="1.23763">
        <ele>276.6</ele>
        <time>2024-11-12T09:51:03Z</time>
      </trkpt>
      <trkpt lat="45.84969" lon="1.23764">
        <ele>276.4</ele>
        <time>2024-11-12T09:51:04Z</time>
      </trkpt>
      <trkpt lat="45.8497" lon="1.23764">
        <ele>276.3</ele>
        <time>2024-11-12T09:51:05Z</time>
      </trkpt>
      <trkpt lat="45.84972" lon="1.23764">
        <ele>276</ele>
        <time>2024-11-12T09:51:06Z</time>
      </trkpt>
      <trkpt lat="45.84973" lon="1.23764">
        <ele>275.8</ele>
        <time>2024-11-12T09:51:07Z</time>
      </trkpt>
      <trkpt lat="45.84974" lon="1.23765">
        <ele>275.6</ele>
        <time>2024-11-12T09:51:08Z</time>
      </trkpt>
      <trkpt lat="45.84975" lon="1.23765">
        <ele>275.4</ele>
        <time>2024-11-12T09:51:09Z</time>
      </trkpt>
      <trkpt lat="45.84976" lon="1.23765">
        <ele>275.2</ele>
        <time>2024-11-12T09:51:10Z</time>
      </trkpt>
      <trkpt lat="45.84977" lon="1.23765">
        <ele>275.1</ele>
        <time>2024-11-12T09:51:11Z</time>
      </trkpt>
      <trkpt lat="45.84978" lon="1.23765">
        <ele>275</ele>
        <time>2024-11-12T09:51:12Z</time>
      </trkpt>
      <trkpt lat="45.84978" lon="1.23765">
        <ele>274.8</ele>
        <time>2024-11-12T09:51:13Z</time>
      </trkpt>
      <trkpt lat="45.84979" lon="1.23765">
        <ele>274.6</ele>
        <time>2024-11-12T09:51:14Z</time>
      </trkpt>
      <trkpt lat="45.8498" lon="1.23765">
        <ele>274.5</ele>
        <time>2024-11-12T09:51:15Z</time>
      </trkpt>
      <trkpt lat="45.84981" lon="1.23764">
        <ele>274.3</ele>
        <time>2024-11-12T09:51:16Z</time>
      </trkpt>
      <trkpt lat="45.84982" lon="1.23763">
        <ele>274.1</ele>
        <time>2024-11-12T09:51:17Z</time>
      </trkpt>
      <trkpt lat="45.84983" lon="1.23763">
        <ele>273.9</ele>
        <time>2024-11-12T09:51:18Z</time>
      </trkpt>
      <trkpt lat="45.84984" lon="1.23762">
        <ele>273.7</ele>
        <time>2024-11-12T09:51:19Z</time>
      </trkpt>
      <trkpt lat="45.84985" lon="1.23761">
        <ele>273.5</ele>
        <time>2024-11-12T09:51:20Z</time>
      </trkpt>
      <trkpt lat="45.84986" lon="1.2376">
        <ele>273.2</ele>
        <time>2024-11-12T09:51:21Z</time>
      </trkpt>
      <trkpt lat="45.84987" lon="1.23759">
        <ele>273.1</ele>
        <time>2024-11-12T09:51:22Z</time>
      </trkpt>
      <trkpt lat="45.84988" lon="1.23758">
        <ele>272.8</ele>
        <time>2024-11-12T09:51:23Z</time>
      </trkpt>
      <trkpt lat="45.84989" lon="1.23757">
        <ele>272.6</ele>
        <time>2024-11-12T09:51:24Z</time>
      </trkpt>
      <trkpt lat="45.84989" lon="1.23757">
        <ele>272.5</ele>
        <time>2024-11-12T09:51:25Z</time>
      </trkpt>
      <trkpt lat="45.8499" lon="1.23756">
        <ele>272.4</ele>
        <time>2024-11-12T09:51:26Z</time>
      </trkpt>
      <trkpt lat="45.84991" lon="1.23755">
        <ele>272.2</ele>
        <time>2024-11-12T09:51:27Z</time>
      </trkpt>
      <trkpt lat="45.84991" lon="1.23755">
        <ele>272.1</ele>
        <time>2024-11-12T09:51:28Z</time>
      </trkpt>
      <trkpt lat="45.84992" lon="1.23754">
        <ele>271.9</ele>
        <time>2024-11-12T09:51:29Z</time>
      </trkpt>
      <trkpt lat="45.84993" lon="1.23755">
        <ele>271.7</ele>
        <time>2024-11-12T09:51:30Z</time>
      </trkpt>
      <trkpt lat="45.84994" lon="1.23755">
        <ele>271.6</ele>
        <time>2024-11-12T09:51:31Z</time>
      </trkpt>
      <trkpt lat="45.84995" lon="1.23754">
        <ele>271.4</ele>
        <time>2024-11-12T09:51:32Z</time>
      </trkpt>
      <trkpt lat="45.84996" lon="1.23754">
        <ele>271.3</ele>
        <time>2024-11-12T09:51:33Z</time>
      </trkpt>
      <trkpt lat="45.84996" lon="1.23754">
        <ele>271.1</ele>
        <time>2024-11-12T09:51:34Z</time>
      </trkpt>
      <trkpt lat="45.84997" lon="1.23754">
        <ele>270.9</ele>
        <time>2024-11-12T09:51:35Z</time>
      </trkpt>
      <trkpt lat="45.84998" lon="1.23753">
        <ele>270.8</ele>
        <time>2024-11-12T09:51:36Z</time>
      </trkpt>
      <trkpt lat="45.84999" lon="1.23753">
        <ele>270.6</ele>
        <time>2024-11-12T09:51:37Z</time>
      </trkpt>
      <trkpt lat="45.85" lon="1.23752">
        <ele>270.4</ele>
        <time>2024-11-12T09:51:38Z</time>
      </trkpt>
      <trkpt lat="45.85001" lon="1.23752">
        <ele>270.3</ele>
        <time>2024-11-12T09:51:39Z</time>
      </trkpt>
      <trkpt lat="45.85002" lon="1.23751">
        <ele>270.1</ele>
        <time>2024-11-12T09:51:40Z</time>
      </trkpt>
      <trkpt lat="45.85003" lon="1.23751">
        <ele>270</ele>
        <time>2024-11-12T09:51:41Z</time>
      </trkpt>
      <trkpt lat="45.85004" lon="1.23751">
        <ele>269.8</ele>
        <time>2024-11-12T09:51:42Z</time>
      </trkpt>
      <trkpt lat="45.85004" lon="1.2375">
        <ele>269.7</ele>
        <time>2024-11-12T09:51:43Z</time>
      </trkpt>
      <trkpt lat="45.85004" lon="1.2375">
        <ele>269.6</ele>
        <time>2024-11-12T09:51:44Z</time>
      </trkpt>
      <trkpt lat="45.85005" lon="1.23749">
        <ele>269.5</ele>
        <time>2024-11-12T09:51:45Z</time>
      </trkpt>
      <trkpt lat="45.85006" lon="1.23748">
        <ele>269.4</ele>
        <time>2024-11-12T09:51:46Z</time>
      </trkpt>
      <trkpt lat="45.85006" lon="1.23747">
        <ele>269.3</ele>
        <time>2024-11-12T09:51:47Z</time>
      </trkpt>
      <trkpt lat="45.85007" lon="1.23746">
        <ele>269.1</ele>
        <time>2024-11-12T09:51:48Z</time>
      </trkpt>
      <trkpt lat="45.85008" lon="1.23746">
        <ele>268.9</ele>
        <time>2024-11-12T09:51:49Z</time>
      </trkpt>
      <trkpt lat="45.85009" lon="1.23745">
        <ele>268.8</ele>
        <time>2024-11-12T09:51:50Z</time>
      </trkpt>
      <trkpt lat="45.8501" lon="1.23745">
        <ele>268.8</ele>
        <time>2024-11-12T09:51:51Z</time>
      </trkpt>
      <trkpt lat="45.8501" lon="1.23745">
        <ele>268.7</ele>
        <time>2024-11-12T09:51:52Z</time>
      </trkpt>
      <trkpt lat="45.85011" lon="1.23744">
        <ele>268.5</ele>
        <time>2024-11-12T09:51:53Z</time>
      </trkpt>
      <trkpt lat="45.85012" lon="1.23743">
        <ele>268.4</ele>
        <time>2024-11-12T09:51:54Z</time>
      </trkpt>
      <trkpt lat="45.85013" lon="1.23743">
        <ele>268.3</ele>
        <time>2024-11-12T09:51:55Z</time>
      </trkpt>
      <trkpt lat="45.85014" lon="1.23743">
        <ele>268.2</ele>
        <time>2024-11-12T09:51:56Z</time>
      </trkpt>
      <trkpt lat="45.85015" lon="1.23743">
        <ele>268</ele>
        <time>2024-11-12T09:51:57Z</time>
      </trkpt>
      <trkpt lat="45.85016" lon="1.23743">
        <ele>268</ele>
        <time>2024-11-12T09:51:58Z</time>
      </trkpt>
      <trkpt lat="45.85017" lon="1.23744">
        <ele>267.9</ele>
        <time>2024-11-12T09:51:59Z</time>
      </trkpt>
      <trkpt lat="45.85018" lon="1.23744">
        <ele>267.8</ele>
        <time>2024-11-12T09:52:00Z</time>
      </trkpt>
      <trkpt lat="45.85019" lon="1.23742">
        <ele>267.7</ele>
        <time>2024-11-12T09:52:01Z</time>
      </trkpt>
      <trkpt lat="45.85019" lon="1.23742">
        <ele>267.7</ele>
        <time>2024-11-12T09:52:02Z</time>
      </trkpt>
      <trkpt lat="45.85019" lon="1.23742">
        <ele>267.7</ele>
        <time>2024-11-12T09:52:03Z</time>
      </trkpt>
      <trkpt lat="45.8502" lon="1.23742">
        <ele>267.7</ele>
        <time>2024-11-12T09:52:04Z</time>
      </trkpt>
      <trkpt lat="45.8502" lon="1.23742">
        <ele>267.6</ele>
        <time>2024-11-12T09:52:05Z</time>
      </trkpt>
      <trkpt lat="45.85021" lon="1.23742">
        <ele>267.6</ele>
        <time>2024-11-12T09:52:06Z</time>
      </trkpt>
      <trkpt lat="45.85021" lon="1.23741">
        <ele>267.6</ele>
        <time>2024-11-12T09:52:07Z</time>
      </trkpt>
      <trkpt lat="45.85021" lon="1.23741">
        <ele>267.6</ele>
        <time>2024-11-12T09:52:08Z</time>
      </trkpt>
      <trkpt lat="45.85022" lon="1.23741">
        <ele>267.5</ele>
        <time>2024-11-12T09:52:09Z</time>
      </trkpt>
      <trkpt lat="45.85022" lon="1.23741">
        <ele>267.5</ele>
        <time>2024-11-12T09:52:10Z</time>
      </trkpt>
      <trkpt lat="45.85023" lon="1.23741">
        <ele>267.5</ele>
        <time>2024-11-12T09:52:11Z</time>
      </trkpt>
      <trkpt lat="45.85023" lon="1.23741">
        <ele>267.5</ele>
        <time>2024-11-12T09:52:12Z</time>
      </trkpt>
      <trkpt lat="45.85026" lon="1.2374">
        <ele>267.2</ele>
        <time>2024-11-12T09:52:13Z</time>
      </trkpt>
      <trkpt lat="45.85028" lon="1.2374">
        <ele>267.2</ele>
        <time>2024-11-12T09:52:14Z</time>
      </trkpt>
      <trkpt lat="45.85029" lon="1.23741">
        <ele>267.1</ele>
        <time>2024-11-12T09:52:15Z</time>
      </trkpt>
      <trkpt lat="45.8503" lon="1.23742">
        <ele>267</ele>
        <time>2024-11-12T09:52:16Z</time>
      </trkpt>
      <trkpt lat="45.8503" lon="1.23742">
        <ele>267</ele>
        <time>2024-11-12T09:52:17Z</time>
      </trkpt>
      <trkpt lat="45.8503" lon="1.23743">
        <ele>267</ele>
        <time>2024-11-12T09:52:18Z</time>
      </trkpt>
      <trkpt lat="45.85029" lon="1.23744">
        <ele>266.9</ele>
        <time>2024-11-12T09:52:19Z</time>
      </trkpt>
      <trkpt lat="45.85029" lon="1.23745">
        <ele>266.9</ele>
        <time>2024-11-12T09:52:20Z</time>
      </trkpt>
      <trkpt lat="45.85029" lon="1.23746">
        <ele>266.9</ele>
        <time>2024-11-12T09:52:21Z</time>
      </trkpt>
      <trkpt lat="45.8503" lon="1.23746">
        <ele>266.8</ele>
        <time>2024-11-12T09:52:22Z</time>
      </trkpt>
      <trkpt lat="45.85031" lon="1.23747">
        <ele>266.8</ele>
        <time>2024-11-12T09:52:23Z</time>
      </trkpt>
      <trkpt lat="45.85032" lon="1.23748">
        <ele>266.7</ele>
        <time>2024-11-12T09:52:24Z</time>
      </trkpt>
      <trkpt lat="45.85035" lon="1.23749">
        <ele>266.6</ele>
        <time>2024-11-12T09:52:25Z</time>
      </trkpt>
      <trkpt lat="45.85036" lon="1.2375">
        <ele>266.6</ele>
        <time>2024-11-12T09:52:26Z</time>
      </trkpt>
      <trkpt lat="45.85037" lon="1.2375">
        <ele>266.6</ele>
        <time>2024-11-12T09:52:27Z</time>
      </trkpt>
      <trkpt lat="45.85038" lon="1.2375">
        <ele>266.5</ele>
        <time>2024-11-12T09:52:28Z</time>
      </trkpt>
      <trkpt lat="45.85039" lon="1.2375">
        <ele>266.5</ele>
        <time>2024-11-12T09:52:29Z</time>
      </trkpt>
      <trkpt lat="45.8504" lon="1.2375">
        <ele>266.5</ele>
        <time>2024-11-12T09:52:30Z</time>
      </trkpt>
      <trkpt lat="45.85041" lon="1.2375">
        <ele>266.4</ele>
        <time>2024-11-12T09:52:31Z</time>
      </trkpt>
      <trkpt lat="45.85042" lon="1.2375">
        <ele>266.4</ele>
        <time>2024-11-12T09:52:32Z</time>
      </trkpt>
      <trkpt lat="45.85043" lon="1.23749">
        <ele>266.4</ele>
        <time>2024-11-12T09:52:33Z</time>
      </trkpt>
      <trkpt lat="45.85044" lon="1.23749">
        <ele>266.3</ele>
        <time>2024-11-12T09:52:34Z</time>
      </trkpt>
      <trkpt lat="45.85045" lon="1.23748">
        <ele>266.3</ele>
        <time>2024-11-12T09:52:35Z</time>
      </trkpt>
      <trkpt lat="45.85046" lon="1.23748">
        <ele>266.3</ele>
        <time>2024-11-12T09:52:36Z</time>
      </trkpt>
      <trkpt lat="45.85046" lon="1.23748">
        <ele>266.3</ele>
        <time>2024-11-12T09:52:37Z</time>
      </trkpt>
      <trkpt lat="45.85046" lon="1.23747">
        <ele>266.2</ele>
        <time>2024-11-12T09:52:38Z</time>
      </trkpt>
      <trkpt lat="45.85047" lon="1.23746">
        <ele>266.2</ele>
        <time>2024-11-12T09:52:39Z</time>
      </trkpt>
      <trkpt lat="45.85047" lon="1.23744">
        <ele>266.2</ele>
        <time>2024-11-12T09:52:40Z</time>
      </trkpt>
      <trkpt lat="45.85047" lon="1.2374">
        <ele>266.2</ele>
        <time>2024-11-12T09:52:41Z</time>
      </trkpt>
      <trkpt lat="45.85046" lon="1.23738">
        <ele>266.1</ele>
        <time>2024-11-12T09:52:42Z</time>
      </trkpt>
      <trkpt lat="45.85045" lon="1.23736">
        <ele>266.1</ele>
        <time>2024-11-12T09:52:43Z</time>
      </trkpt>
      <trkpt lat="45.85045" lon="1.23736">
        <ele>266.1</ele>
        <time>2024-11-12T09:52:44Z</time>
      </trkpt>
      <trkpt lat="45.85044" lon="1.23734">
        <ele>266.1</ele>
        <time>2024-11-12T09:52:45Z</time>
      </trkpt>
      <trkpt lat="45.85044" lon="1.23731">
        <ele>266.1</ele>
        <time>2024-11-12T09:52:46Z</time>
      </trkpt>
      <trkpt lat="45.85043" lon="1.23729">
        <ele>266.1</ele>
        <time>2024-11-12T09:52:47Z</time>
      </trkpt>
      <trkpt lat="45.85043" lon="1.23727">
        <ele>266</ele>
        <time>2024-11-12T09:52:48Z</time>
      </trkpt>
      <trkpt lat="45.85042" lon="1.23724">
        <ele>266</ele>
        <time>2024-11-12T09:52:49Z</time>
      </trkpt>
      <trkpt lat="45.85042" lon="1.23722">
        <ele>266</ele>
        <time>2024-11-12T09:52:50Z</time>
      </trkpt>
      <trkpt lat="45.85042" lon="1.23721">
        <ele>266</ele>
        <time>2024-11-12T09:52:51Z</time>
      </trkpt>
      <trkpt lat="45.85042" lon="1.2372">
        <ele>266</ele>
        <time>2024-11-12T09:52:52Z</time>
      </trkpt>
      <trkpt lat="45.85041" lon="1.23718">
        <ele>266</ele>
        <time>2024-11-12T09:52:53Z</time>
      </trkpt>
      <trkpt lat="45.8504" lon="1.23716">
        <ele>266</ele>
        <time>2024-11-12T09:52:54Z</time>
      </trkpt>
      <trkpt lat="45.8504" lon="1.23715">
        <ele>265.9</ele>
        <time>2024-11-12T09:52:55Z</time>
      </trkpt>
      <trkpt lat="45.85038" lon="1.23713">
        <ele>265.9</ele>
        <time>2024-11-12T09:52:56Z</time>
      </trkpt>
      <trkpt lat="45.85037" lon="1.23711">
        <ele>265.9</ele>
        <time>2024-11-12T09:52:57Z</time>
      </trkpt>
      <trkpt lat="45.85036" lon="1.2371">
        <ele>265.9</ele>
        <time>2024-11-12T09:52:58Z</time>
      </trkpt>
      <trkpt lat="45.85036" lon="1.23709">
        <ele>265.9</ele>
        <time>2024-11-12T09:52:59Z</time>
      </trkpt>
      <trkpt lat="45.85035" lon="1.23708">
        <ele>265.9</ele>
        <time>2024-11-12T09:53:00Z</time>
      </trkpt>
      <trkpt lat="45.85034" lon="1.23706">
        <ele>265.9</ele>
        <time>2024-11-12T09:53:01Z</time>
      </trkpt>
      <trkpt lat="45.85033" lon="1.23704">
        <ele>265.9</ele>
        <time>2024-11-12T09:53:02Z</time>
      </trkpt>
      <trkpt lat="45.85032" lon="1.23703">
        <ele>265.9</ele>
        <time>2024-11-12T09:53:03Z</time>
      </trkpt>
      <trkpt lat="45.85032" lon="1.23702">
        <ele>265.8</ele>
        <time>2024-11-12T09:53:04Z</time>
      </trkpt>
      <trkpt lat="45.85031" lon="1.237">
        <ele>265.8</ele>
        <time>2024-11-12T09:53:05Z</time>
      </trkpt>
      <trkpt lat="45.8503" lon="1.23698">
        <ele>265.8</ele>
        <time>2024-11-12T09:53:06Z</time>
      </trkpt>
      <trkpt lat="45.85029" lon="1.23696">
        <ele>265.8</ele>
        <time>2024-11-12T09:53:07Z</time>
      </trkpt>
      <trkpt lat="45.85028" lon="1.23695">
        <ele>265.8</ele>
        <time>2024-11-12T09:53:08Z</time>
      </trkpt>
      <trkpt lat="45.85028" lon="1.23694">
        <ele>265.8</ele>
        <time>2024-11-12T09:53:09Z</time>
      </trkpt>
      <trkpt lat="45.85027" lon="1.23692">
        <ele>265.8</ele>
        <time>2024-11-12T09:53:10Z</time>
      </trkpt>
      <trkpt lat="45.85027" lon="1.2369">
        <ele>265.8</ele>
        <time>2024-11-12T09:53:11Z</time>
      </trkpt>
      <trkpt lat="45.85026" lon="1.23689">
        <ele>265.8</ele>
        <time>2024-11-12T09:53:12Z</time>
      </trkpt>
      <trkpt lat="45.85026" lon="1.23687">
        <ele>265.8</ele>
        <time>2024-11-12T09:53:13Z</time>
      </trkpt>
      <trkpt lat="45.85025" lon="1.23685">
        <ele>265.8</ele>
        <time>2024-11-12T09:53:14Z</time>
      </trkpt>
      <trkpt lat="45.85025" lon="1.23683">
        <ele>265.7</ele>
        <time>2024-11-12T09:53:15Z</time>
      </trkpt>
      <trkpt lat="45.85024" lon="1.23681">
        <ele>265.7</ele>
        <time>2024-11-12T09:53:16Z</time>
      </trkpt>
      <trkpt lat="45.85023" lon="1.23679">
        <ele>265.7</ele>
        <time>2024-11-12T09:53:17Z</time>
      </trkpt>
      <trkpt lat="45.85023" lon="1.23678">
        <ele>265.7</ele>
        <time>2024-11-12T09:53:18Z</time>
      </trkpt>
      <trkpt lat="45.85023" lon="1.23676">
        <ele>265.7</ele>
        <time>2024-11-12T09:53:19Z</time>
      </trkpt>
      <trkpt lat="45.85022" lon="1.23674">
        <ele>265.7</ele>
        <time>2024-11-12T09:53:20Z</time>
      </trkpt>
      <trkpt lat="45.85021" lon="1.23671">
        <ele>265.7</ele>
        <time>2024-11-12T09:53:21Z</time>
      </trkpt>
      <trkpt lat="45.85021" lon="1.2367">
        <ele>265.7</ele>
        <time>2024-11-12T09:53:22Z</time>
      </trkpt>
      <trkpt lat="45.8502" lon="1.23669">
        <ele>265.6</ele>
        <time>2024-11-12T09:53:23Z</time>
      </trkpt>
      <trkpt lat="45.8502" lon="1.23667">
        <ele>265.6</ele>
        <time>2024-11-12T09:53:24Z</time>
      </trkpt>
      <trkpt lat="45.85019" lon="1.23665">
        <ele>265.6</ele>
        <time>2024-11-12T09:53:25Z</time>
      </trkpt>
      <trkpt lat="45.85019" lon="1.23663">
        <ele>265.6</ele>
        <time>2024-11-12T09:53:26Z</time>
      </trkpt>
      <trkpt lat="45.85018" lon="1.23662">
        <ele>265.6</ele>
        <time>2024-11-12T09:53:27Z</time>
      </trkpt>
      <trkpt lat="45.85018" lon="1.2366">
        <ele>265.6</ele>
        <time>2024-11-12T09:53:28Z</time>
      </trkpt>
      <trkpt lat="45.85017" lon="1.23658">
        <ele>265.5</ele>
        <time>2024-11-12T09:53:29Z</time>
      </trkpt>
      <trkpt lat="45.85017" lon="1.23657">
        <ele>265.5</ele>
        <time>2024-11-12T09:53:30Z</time>
      </trkpt>
      <trkpt lat="45.85016" lon="1.23654">
        <ele>265.5</ele>
        <time>2024-11-12T09:53:31Z</time>
      </trkpt>
      <trkpt lat="45.85015" lon="1.23652">
        <ele>265.5</ele>
        <time>2024-11-12T09:53:32Z</time>
      </trkpt>
      <trkpt lat="45.85015" lon="1.23651">
        <ele>265.5</ele>
        <time>2024-11-12T09:53:33Z</time>
      </trkpt>
      <trkpt lat="45.85015" lon="1.23649">
        <ele>265.5</ele>
        <time>2024-11-12T09:53:34Z</time>
      </trkpt>
      <trkpt lat="45.85014" lon="1.23648">
        <ele>265.4</ele>
        <time>2024-11-12T09:53:35Z</time>
      </trkpt>
      <trkpt lat="45.85013" lon="1.23646">
        <ele>265.4</ele>
        <time>2024-11-12T09:53:36Z</time>
      </trkpt>
      <trkpt lat="45.85012" lon="1.23643">
        <ele>265.4</ele>
        <time>2024-11-12T09:53:37Z</time>
      </trkpt>
      <trkpt lat="45.85012" lon="1.23642">
        <ele>265.4</ele>
        <time>2024-11-12T09:53:38Z</time>
      </trkpt>
      <trkpt lat="45.85011" lon="1.23641">
        <ele>265.4</ele>
        <time>2024-11-12T09:53:39Z</time>
      </trkpt>
      <trkpt lat="45.8501" lon="1.23639">
        <ele>265.3</ele>
        <time>2024-11-12T09:53:40Z</time>
      </trkpt>
      <trkpt lat="45.85009" lon="1.23637">
        <ele>265.3</ele>
        <time>2024-11-12T09:53:41Z</time>
      </trkpt>
      <trkpt lat="45.85009" lon="1.23636">
        <ele>265.3</ele>
        <time>2024-11-12T09:53:42Z</time>
      </trkpt>
      <trkpt lat="45.85008" lon="1.23634">
        <ele>265.3</ele>
        <time>2024-11-12T09:53:43Z</time>
      </trkpt>
      <trkpt lat="45.85007" lon="1.23633">
        <ele>265.3</ele>
        <time>2024-11-12T09:53:44Z</time>
      </trkpt>
      <trkpt lat="45.85006" lon="1.23631">
        <ele>265.3</ele>
        <time>2024-11-12T09:53:45Z</time>
      </trkpt>
      <trkpt lat="45.85005" lon="1.23629">
        <ele>265.2</ele>
        <time>2024-11-12T09:53:46Z</time>
      </trkpt>
      <trkpt lat="45.85005" lon="1.23628">
        <ele>265.2</ele>
        <time>2024-11-12T09:53:47Z</time>
      </trkpt>
      <trkpt lat="45.85004" lon="1.23627">
        <ele>265.2</ele>
        <time>2024-11-12T09:53:48Z</time>
      </trkpt>
      <trkpt lat="45.85003" lon="1.23626">
        <ele>265.2</ele>
        <time>2024-11-12T09:53:49Z</time>
      </trkpt>
      <trkpt lat="45.85001" lon="1.23624">
        <ele>265.2</ele>
        <time>2024-11-12T09:53:50Z</time>
      </trkpt>
      <trkpt lat="45.85001" lon="1.23623">
        <ele>265.2</ele>
        <time>2024-11-12T09:53:51Z</time>
      </trkpt>
      <trkpt lat="45.85" lon="1.23622">
        <ele>265.2</ele>
        <time>2024-11-12T09:53:52Z</time>
      </trkpt>
      <trkpt lat="45.84999" lon="1.23619">
        <ele>265.2</ele>
        <time>2024-11-12T09:53:53Z</time>
      </trkpt>
      <trkpt lat="45.84998" lon="1.23618">
        <ele>265.1</ele>
        <time>2024-11-12T09:53:54Z</time>
      </trkpt>
      <trkpt lat="45.84998" lon="1.23617">
        <ele>265.1</ele>
        <time>2024-11-12T09:53:55Z</time>
      </trkpt>
      <trkpt lat="45.84997" lon="1.23616">
        <ele>265.1</ele>
        <time>2024-11-12T09:53:56Z</time>
      </trkpt>
      <trkpt lat="45.84996" lon="1.23614">
        <ele>265.1</ele>
        <time>2024-11-12T09:53:57Z</time>
      </trkpt>
      <trkpt lat="45.84995" lon="1.23613">
        <ele>265.1</ele>
        <time>2024-11-12T09:53:58Z</time>
      </trkpt>
      <trkpt lat="45.84994" lon="1.23611">
        <ele>265.1</ele>
        <time>2024-11-12T09:53:59Z</time>
      </trkpt>
      <trkpt lat="45.84993" lon="1.2361">
        <ele>265.1</ele>
        <time>2024-11-12T09:54:00Z</time>
      </trkpt>
      <trkpt lat="45.84992" lon="1.23608">
        <ele>265.1</ele>
        <time>2024-11-12T09:54:01Z</time>
      </trkpt>
      <trkpt lat="45.8499" lon="1.23606">
        <ele>265</ele>
        <time>2024-11-12T09:54:02Z</time>
      </trkpt>
      <trkpt lat="45.8499" lon="1.23605">
        <ele>265</ele>
        <time>2024-11-12T09:54:03Z</time>
      </trkpt>
      <trkpt lat="45.84989" lon="1.23604">
        <ele>265</ele>
        <time>2024-11-12T09:54:04Z</time>
      </trkpt>
      <trkpt lat="45.84987" lon="1.23602">
        <ele>265</ele>
        <time>2024-11-12T09:54:05Z</time>
      </trkpt>
      <trkpt lat="45.84987" lon="1.23601">
        <ele>265</ele>
        <time>2024-11-12T09:54:06Z</time>
      </trkpt>
      <trkpt lat="45.84986" lon="1.236">
        <ele>265</ele>
        <time>2024-11-12T09:54:07Z</time>
      </trkpt>
      <trkpt lat="45.84985" lon="1.23598">
        <ele>265</ele>
        <time>2024-11-12T09:54:08Z</time>
      </trkpt>
      <trkpt lat="45.84985" lon="1.23597">
        <ele>265</ele>
        <time>2024-11-12T09:54:09Z</time>
      </trkpt>
      <trkpt lat="45.84983" lon="1.23594">
        <ele>264.9</ele>
        <time>2024-11-12T09:54:10Z</time>
      </trkpt>
      <trkpt lat="45.84982" lon="1.23592">
        <ele>264.9</ele>
        <time>2024-11-12T09:54:11Z</time>
      </trkpt>
      <trkpt lat="45.84982" lon="1.23592">
        <ele>264.9</ele>
        <time>2024-11-12T09:54:12Z</time>
      </trkpt>
      <trkpt lat="45.84981" lon="1.2359">
        <ele>264.9</ele>
        <time>2024-11-12T09:54:13Z</time>
      </trkpt>
      <trkpt lat="45.8498" lon="1.23589">
        <ele>264.9</ele>
        <time>2024-11-12T09:54:14Z</time>
      </trkpt>
      <trkpt lat="45.84979" lon="1.23587">
        <ele>264.8</ele>
        <time>2024-11-12T09:54:15Z</time>
      </trkpt>
      <trkpt lat="45.84978" lon="1.23586">
        <ele>264.8</ele>
        <time>2024-11-12T09:54:16Z</time>
      </trkpt>
      <trkpt lat="45.84977" lon="1.23585">
        <ele>264.8</ele>
        <time>2024-11-12T09:54:17Z</time>
      </trkpt>
      <trkpt lat="45.84976" lon="1.23584">
        <ele>264.8</ele>
        <time>2024-11-12T09:54:18Z</time>
      </trkpt>
      <trkpt lat="45.84975" lon="1.23582">
        <ele>264.8</ele>
        <time>2024-11-12T09:54:19Z</time>
      </trkpt>
      <trkpt lat="45.84974" lon="1.23581">
        <ele>264.8</ele>
        <time>2024-11-12T09:54:20Z</time>
      </trkpt>
      <trkpt lat="45.84973" lon="1.2358">
        <ele>264.8</ele>
        <time>2024-11-12T09:54:21Z</time>
      </trkpt>
      <trkpt lat="45.84972" lon="1.23577">
        <ele>264.7</ele>
        <time>2024-11-12T09:54:22Z</time>
      </trkpt>
      <trkpt lat="45.84971" lon="1.23577">
        <ele>264.7</ele>
        <time>2024-11-12T09:54:23Z</time>
      </trkpt>
      <trkpt lat="45.8497" lon="1.23576">
        <ele>264.7</ele>
        <time>2024-11-12T09:54:24Z</time>
      </trkpt>
      <trkpt lat="45.84969" lon="1.23575">
        <ele>264.7</ele>
        <time>2024-11-12T09:54:25Z</time>
      </trkpt>
      <trkpt lat="45.84968" lon="1.23573">
        <ele>264.7</ele>
        <time>2024-11-12T09:54:26Z</time>
      </trkpt>
      <trkpt lat="45.84966" lon="1.23572">
        <ele>264.6</ele>
        <time>2024-11-12T09:54:27Z</time>
      </trkpt>
      <trkpt lat="45.84965" lon="1.23571">
        <ele>264.6</ele>
        <time>2024-11-12T09:54:28Z</time>
      </trkpt>
      <trkpt lat="45.84964" lon="1.23571">
        <ele>264.6</ele>
        <time>2024-11-12T09:54:29Z</time>
      </trkpt>
      <trkpt lat="45.84962" lon="1.2357">
        <ele>264.6</ele>
        <time>2024-11-12T09:54:30Z</time>
      </trkpt>
      <trkpt lat="45.84961" lon="1.23568">
        <ele>264.6</ele>
        <time>2024-11-12T09:54:31Z</time>
      </trkpt>
      <trkpt lat="45.8496" lon="1.23567">
        <ele>264.5</ele>
        <time>2024-11-12T09:54:32Z</time>
      </trkpt>
      <trkpt lat="45.84959" lon="1.23565">
        <ele>264.5</ele>
        <time>2024-11-12T09:54:33Z</time>
      </trkpt>
      <trkpt lat="45.84958" lon="1.23564">
        <ele>264.5</ele>
        <time>2024-11-12T09:54:34Z</time>
      </trkpt>
      <trkpt lat="45.84957" lon="1.23563">
        <ele>264.5</ele>
        <time>2024-11-12T09:54:35Z</time>
      </trkpt>
      <trkpt lat="45.84956" lon="1.23562">
        <ele>264.5</ele>
        <time>2024-11-12T09:54:36Z</time>
      </trkpt>
      <trkpt lat="45.84955" lon="1.23561">
        <ele>264.5</ele>
        <time>2024-11-12T09:54:37Z</time>
      </trkpt>
      <trkpt lat="45.84953" lon="1.23559">
        <ele>264.5</ele>
        <time>2024-11-12T09:54:38Z</time>
      </trkpt>
      <trkpt lat="45.84952" lon="1.23558">
        <ele>264.5</ele>
        <time>2024-11-12T09:54:39Z</time>
      </trkpt>
      <trkpt lat="45.84952" lon="1.23558">
        <ele>264.5</ele>
        <time>2024-11-12T09:54:40Z</time>
      </trkpt>
      <trkpt lat="45.8495" lon="1.23556">
        <ele>264.4</ele>
        <time>2024-11-12T09:54:41Z</time>
      </trkpt>
      <trkpt lat="45.84949" lon="1.23556">
        <ele>264.4</ele>
        <time>2024-11-12T09:54:42Z</time>
      </trkpt>
      <trkpt lat="45.84948" lon="1.23555">
        <ele>264.4</ele>
        <time>2024-11-12T09:54:43Z</time>
      </trkpt>
      <trkpt lat="45.84947" lon="1.23554">
        <ele>264.4</ele>
        <time>2024-11-12T09:54:44Z</time>
      </trkpt>
      <trkpt lat="45.84946" lon="1.23552">
        <ele>264.4</ele>
        <time>2024-11-12T09:54:45Z</time>
      </trkpt>
      <trkpt lat="45.84945" lon="1.23551">
        <ele>264.4</ele>
        <time>2024-11-12T09:54:46Z</time>
      </trkpt>
      <trkpt lat="45.84944" lon="1.2355">
        <ele>264.4</ele>
        <time>2024-11-12T09:54:47Z</time>
      </trkpt>
      <trkpt lat="45.84942" lon="1.23548">
        <ele>264.4</ele>
        <time>2024-11-12T09:54:48Z</time>
      </trkpt>
      <trkpt lat="45.84941" lon="1.23547">
        <ele>264.4</ele>
        <time>2024-11-12T09:54:49Z</time>
      </trkpt>
      <trkpt lat="45.84941" lon="1.23546">
        <ele>264.4</ele>
        <time>2024-11-12T09:54:50Z</time>
      </trkpt>
      <trkpt lat="45.8494" lon="1.23545">
        <ele>264.4</ele>
        <time>2024-11-12T09:54:51Z</time>
      </trkpt>
      <trkpt lat="45.84939" lon="1.23544">
        <ele>264.3</ele>
        <time>2024-11-12T09:54:52Z</time>
      </trkpt>
      <trkpt lat="45.84937" lon="1.23541">
        <ele>264.3</ele>
        <time>2024-11-12T09:54:53Z</time>
      </trkpt>
      <trkpt lat="45.84937" lon="1.2354">
        <ele>264.3</ele>
        <time>2024-11-12T09:54:54Z</time>
      </trkpt>
      <trkpt lat="45.84936" lon="1.23539">
        <ele>264.3</ele>
        <time>2024-11-12T09:54:55Z</time>
      </trkpt>
      <trkpt lat="45.84935" lon="1.23537">
        <ele>264.3</ele>
        <time>2024-11-12T09:54:56Z</time>
      </trkpt>
      <trkpt lat="45.84934" lon="1.23536">
        <ele>264.3</ele>
        <time>2024-11-12T09:54:57Z</time>
      </trkpt>
      <trkpt lat="45.84933" lon="1.23535">
        <ele>264.3</ele>
        <time>2024-11-12T09:54:58Z</time>
      </trkpt>
      <trkpt lat="45.84932" lon="1.23534">
        <ele>264.2</ele>
        <time>2024-11-12T09:54:59Z</time>
      </trkpt>
      <trkpt lat="45.84931" lon="1.23533">
        <ele>264.2</ele>
        <time>2024-11-12T09:55:00Z</time>
      </trkpt>
      <trkpt lat="45.84931" lon="1.23532">
        <ele>264.2</ele>
        <time>2024-11-12T09:55:01Z</time>
      </trkpt>
      <trkpt lat="45.84929" lon="1.23529">
        <ele>264.2</ele>
        <time>2024-11-12T09:55:02Z</time>
      </trkpt>
      <trkpt lat="45.84929" lon="1.23529">
        <ele>264.2</ele>
        <time>2024-11-12T09:55:03Z</time>
      </trkpt>
      <trkpt lat="45.84928" lon="1.23528">
        <ele>264.1</ele>
        <time>2024-11-12T09:55:04Z</time>
      </trkpt>
      <trkpt lat="45.84927" lon="1.23525">
        <ele>264.1</ele>
        <time>2024-11-12T09:55:05Z</time>
      </trkpt>
      <trkpt lat="45.84926" lon="1.23524">
        <ele>264.1</ele>
        <time>2024-11-12T09:55:06Z</time>
      </trkpt>
      <trkpt lat="45.84926" lon="1.23523">
        <ele>264.1</ele>
        <time>2024-11-12T09:55:07Z</time>
      </trkpt>
      <trkpt lat="45.84925" lon="1.23521">
        <ele>264.1</ele>
        <time>2024-11-12T09:55:08Z</time>
      </trkpt>
      <trkpt lat="45.84925" lon="1.2352">
        <ele>264.1</ele>
        <time>2024-11-12T09:55:09Z</time>
      </trkpt>
      <trkpt lat="45.84924" lon="1.23518">
        <ele>264.1</ele>
        <time>2024-11-12T09:55:10Z</time>
      </trkpt>
      <trkpt lat="45.84924" lon="1.23517">
        <ele>264</ele>
        <time>2024-11-12T09:55:11Z</time>
      </trkpt>
      <trkpt lat="45.84923" lon="1.23515">
        <ele>264</ele>
        <time>2024-11-12T09:55:12Z</time>
      </trkpt>
      <trkpt lat="45.84923" lon="1.23514">
        <ele>264</ele>
        <time>2024-11-12T09:55:13Z</time>
      </trkpt>
      <trkpt lat="45.84922" lon="1.23512">
        <ele>264</ele>
        <time>2024-11-12T09:55:14Z</time>
      </trkpt>
      <trkpt lat="45.84921" lon="1.23511">
        <ele>264</ele>
        <time>2024-11-12T09:55:15Z</time>
      </trkpt>
      <trkpt lat="45.8492" lon="1.23509">
        <ele>264</ele>
        <time>2024-11-12T09:55:16Z</time>
      </trkpt>
      <trkpt lat="45.8492" lon="1.23508">
        <ele>264</ele>
        <time>2024-11-12T09:55:17Z</time>
      </trkpt>
      <trkpt lat="45.84918" lon="1.23505">
        <ele>264</ele>
        <time>2024-11-12T09:55:18Z</time>
      </trkpt>
      <trkpt lat="45.84918" lon="1.23504">
        <ele>264</ele>
        <time>2024-11-12T09:55:19Z</time>
      </trkpt>
      <trkpt lat="45.84917" lon="1.23503">
        <ele>264</ele>
        <time>2024-11-12T09:55:20Z</time>
      </trkpt>
      <trkpt lat="45.84917" lon="1.23502">
        <ele>264</ele>
        <time>2024-11-12T09:55:21Z</time>
      </trkpt>
      <trkpt lat="45.84916" lon="1.235">
        <ele>264</ele>
        <time>2024-11-12T09:55:22Z</time>
      </trkpt>
      <trkpt lat="45.84915" lon="1.23499">
        <ele>264</ele>
        <time>2024-11-12T09:55:23Z</time>
      </trkpt>
      <trkpt lat="45.84914" lon="1.23497">
        <ele>264</ele>
        <time>2024-11-12T09:55:24Z</time>
      </trkpt>
      <trkpt lat="45.84913" lon="1.23496">
        <ele>264</ele>
        <time>2024-11-12T09:55:25Z</time>
      </trkpt>
      <trkpt lat="45.84913" lon="1.23495">
        <ele>264</ele>
        <time>2024-11-12T09:55:26Z</time>
      </trkpt>
      <trkpt lat="45.84912" lon="1.23493">
        <ele>264</ele>
        <time>2024-11-12T09:55:27Z</time>
      </trkpt>
      <trkpt lat="45.84912" lon="1.23491">
        <ele>264</ele>
        <time>2024-11-12T09:55:28Z</time>
      </trkpt>
      <trkpt lat="45.84912" lon="1.2349">
        <ele>264</ele>
        <time>2024-11-12T09:55:29Z</time>
      </trkpt>
      <trkpt lat="45.84912" lon="1.23488">
        <ele>264</ele>
        <time>2024-11-12T09:55:30Z</time>
      </trkpt>
      <trkpt lat="45.84913" lon="1.23487">
        <ele>264</ele>
        <time>2024-11-12T09:55:31Z</time>
      </trkpt>
      <trkpt lat="45.84915" lon="1.23484">
        <ele>264</ele>
        <time>2024-11-12T09:55:32Z</time>
      </trkpt>
      <trkpt lat="45.84915" lon="1.23482">
        <ele>264</ele>
        <time>2024-11-12T09:55:33Z</time>
      </trkpt>
      <trkpt lat="45.84916" lon="1.2348">
        <ele>264</ele>
        <time>2024-11-12T09:55:34Z</time>
      </trkpt>
      <trkpt lat="45.84916" lon="1.23479">
        <ele>264</ele>
        <time>2024-11-12T09:55:35Z</time>
      </trkpt>
      <trkpt lat="45.84917" lon="1.23475">
        <ele>264</ele>
        <time>2024-11-12T09:55:36Z</time>
      </trkpt>
      <trkpt lat="45.84917" lon="1.23473">
        <ele>264</ele>
        <time>2024-11-12T09:55:37Z</time>
      </trkpt>
      <trkpt lat="45.84917" lon="1.2347">
        <ele>263.9</ele>
        <time>2024-11-12T09:55:38Z</time>
      </trkpt>
      <trkpt lat="45.84917" lon="1.23469">
        <ele>263.9</ele>
        <time>2024-11-12T09:55:39Z</time>
      </trkpt>
      <trkpt lat="45.84916" lon="1.23468">
        <ele>263.9</ele>
        <time>2024-11-12T09:55:40Z</time>
      </trkpt>
      <trkpt lat="45.84915" lon="1.23464">
        <ele>263.9</ele>
        <time>2024-11-12T09:55:41Z</time>
      </trkpt>
      <trkpt lat="45.84914" lon="1.23463">
        <ele>263.9</ele>
        <time>2024-11-12T09:55:42Z</time>
      </trkpt>
      <trkpt lat="45.84914" lon="1.23463">
        <ele>263.9</ele>
        <time>2024-11-12T09:55:43Z</time>
      </trkpt>
      <trkpt lat="45.84913" lon="1.23461">
        <ele>263.9</ele>
        <time>2024-11-12T09:55:44Z</time>
      </trkpt>
      <trkpt lat="45.84912" lon="1.2346">
        <ele>263.9</ele>
        <time>2024-11-12T09:55:45Z</time>
      </trkpt>
      <trkpt lat="45.84909" lon="1.23458">
        <ele>263.9</ele>
        <time>2024-11-12T09:55:46Z</time>
      </trkpt>
      <trkpt lat="45.84908" lon="1.23458">
        <ele>263.9</ele>
        <time>2024-11-12T09:55:47Z</time>
      </trkpt>
      <trkpt lat="45.84906" lon="1.23456">
        <ele>263.9</ele>
        <time>2024-11-12T09:55:48Z</time>
      </trkpt>
      <trkpt lat="45.84905" lon="1.23456">
        <ele>263.9</ele>
        <time>2024-11-12T09:55:49Z</time>
      </trkpt>
      <trkpt lat="45.84904" lon="1.23455">
        <ele>263.9</ele>
        <time>2024-11-12T09:55:50Z</time>
      </trkpt>
      <trkpt lat="45.84902" lon="1.23453">
        <ele>264</ele>
        <time>2024-11-12T09:55:51Z</time>
      </trkpt>
      <trkpt lat="45.84902" lon="1.23452">
        <ele>264</ele>
        <time>2024-11-12T09:55:52Z</time>
      </trkpt>
      <trkpt lat="45.84901" lon="1.23452">
        <ele>264</ele>
        <time>2024-11-12T09:55:53Z</time>
      </trkpt>
      <trkpt lat="45.84901" lon="1.2345">
        <ele>264</ele>
        <time>2024-11-12T09:55:54Z</time>
      </trkpt>
      <trkpt lat="45.849" lon="1.23449">
        <ele>264</ele>
        <time>2024-11-12T09:55:55Z</time>
      </trkpt>
      <trkpt lat="45.84898" lon="1.23446">
        <ele>264</ele>
        <time>2024-11-12T09:55:56Z</time>
      </trkpt>
      <trkpt lat="45.84897" lon="1.23444">
        <ele>264</ele>
        <time>2024-11-12T09:55:58Z</time>
      </trkpt>
      <trkpt lat="45.84897" lon="1.23443">
        <ele>264</ele>
        <time>2024-11-12T09:55:59Z</time>
      </trkpt>
      <trkpt lat="45.84896" lon="1.23441">
        <ele>264</ele>
        <time>2024-11-12T09:56:00Z</time>
      </trkpt>
      <trkpt lat="45.84896" lon="1.23439">
        <ele>264</ele>
        <time>2024-11-12T09:56:01Z</time>
      </trkpt>
      <trkpt lat="45.84895" lon="1.23438">
        <ele>264</ele>
        <time>2024-11-12T09:56:02Z</time>
      </trkpt>
      <trkpt lat="45.84894" lon="1.23436">
        <ele>264</ele>
        <time>2024-11-12T09:56:03Z</time>
      </trkpt>
      <trkpt lat="45.84894" lon="1.23435">
        <ele>264</ele>
        <time>2024-11-12T09:56:04Z</time>
      </trkpt>
      <trkpt lat="45.84893" lon="1.23433">
        <ele>264</ele>
        <time>2024-11-12T09:56:05Z</time>
      </trkpt>
      <trkpt lat="45.84893" lon="1.23432">
        <ele>264</ele>
        <time>2024-11-12T09:56:06Z</time>
      </trkpt>
      <trkpt lat="45.84892" lon="1.2343">
        <ele>264</ele>
        <time>2024-11-12T09:56:07Z</time>
      </trkpt>
      <trkpt lat="45.84891" lon="1.23429">
        <ele>264</ele>
        <time>2024-11-12T09:56:08Z</time>
      </trkpt>
      <trkpt lat="45.8489" lon="1.23427">
        <ele>264</ele>
        <time>2024-11-12T09:56:09Z</time>
      </trkpt>
      <trkpt lat="45.8489" lon="1.23426">
        <ele>264</ele>
        <time>2024-11-12T09:56:10Z</time>
      </trkpt>
      <trkpt lat="45.84889" lon="1.23424">
        <ele>264</ele>
        <time>2024-11-12T09:56:11Z</time>
      </trkpt>
      <trkpt lat="45.84888" lon="1.23423">
        <ele>264</ele>
        <time>2024-11-12T09:56:12Z</time>
      </trkpt>
      <trkpt lat="45.84888" lon="1.23422">
        <ele>264</ele>
        <time>2024-11-12T09:56:13Z</time>
      </trkpt>
      <trkpt lat="45.84887" lon="1.23419">
        <ele>264</ele>
        <time>2024-11-12T09:56:14Z</time>
      </trkpt>
      <trkpt lat="45.84887" lon="1.23418">
        <ele>264</ele>
        <time>2024-11-12T09:56:15Z</time>
      </trkpt>
      <trkpt lat="45.84886" lon="1.23417">
        <ele>264</ele>
        <time>2024-11-12T09:56:16Z</time>
      </trkpt>
      <trkpt lat="45.84885" lon="1.23414">
        <ele>264</ele>
        <time>2024-11-12T09:56:17Z</time>
      </trkpt>
      <trkpt lat="45.84885" lon="1.23413">
        <ele>264</ele>
        <time>2024-11-12T09:56:18Z</time>
      </trkpt>
      <trkpt lat="45.84885" lon="1.23412">
        <ele>264</ele>
        <time>2024-11-12T09:56:19Z</time>
      </trkpt>
      <trkpt lat="45.84884" lon="1.23409">
        <ele>264</ele>
        <time>2024-11-12T09:56:20Z</time>
      </trkpt>
      <trkpt lat="45.84883" lon="1.23408">
        <ele>264</ele>
        <time>2024-11-12T09:56:21Z</time>
      </trkpt>
      <trkpt lat="45.84883" lon="1.23407">
        <ele>264</ele>
        <time>2024-11-12T09:56:22Z</time>
      </trkpt>
      <trkpt lat="45.84882" lon="1.23406">
        <ele>264</ele>
        <time>2024-11-12T09:56:23Z</time>
      </trkpt>
      <trkpt lat="45.84882" lon="1.23404">
        <ele>264</ele>
        <time>2024-11-12T09:56:24Z</time>
      </trkpt>
      <trkpt lat="45.84882" lon="1.23403">
        <ele>264</ele>
        <time>2024-11-12T09:56:25Z</time>
      </trkpt>
      <trkpt lat="45.84881" lon="1.23401">
        <ele>264</ele>
        <time>2024-11-12T09:56:26Z</time>
      </trkpt>
      <trkpt lat="45.84881" lon="1.23399">
        <ele>264</ele>
        <time>2024-11-12T09:56:27Z</time>
      </trkpt>
      <trkpt lat="45.8488" lon="1.23396">
        <ele>264</ele>
        <time>2024-11-12T09:56:28Z</time>
      </trkpt>
      <trkpt lat="45.8488" lon="1.23395">
        <ele>264</ele>
        <time>2024-11-12T09:56:29Z</time>
      </trkpt>
      <trkpt lat="45.8488" lon="1.23394">
        <ele>264</ele>
        <time>2024-11-12T09:56:30Z</time>
      </trkpt>
      <trkpt lat="45.84879" lon="1.23392">
        <ele>264</ele>
        <time>2024-11-12T09:56:31Z</time>
      </trkpt>
      <trkpt lat="45.84879" lon="1.2339">
        <ele>264</ele>
        <time>2024-11-12T09:56:32Z</time>
      </trkpt>
      <trkpt lat="45.84878" lon="1.23388">
        <ele>264.1</ele>
        <time>2024-11-12T09:56:33Z</time>
      </trkpt>
      <trkpt lat="45.84877" lon="1.23387">
        <ele>264.1</ele>
        <time>2024-11-12T09:56:34Z</time>
      </trkpt>
      <trkpt lat="45.84877" lon="1.23386">
        <ele>264.1</ele>
        <time>2024-11-12T09:56:35Z</time>
      </trkpt>
      <trkpt lat="45.84876" lon="1.23384">
        <ele>264.1</ele>
        <time>2024-11-12T09:56:36Z</time>
      </trkpt>
      <trkpt lat="45.84876" lon="1.23381">
        <ele>264.1</ele>
        <time>2024-11-12T09:56:37Z</time>
      </trkpt>
      <trkpt lat="45.84876" lon="1.2338">
        <ele>264.1</ele>
        <time>2024-11-12T09:56:38Z</time>
      </trkpt>
      <trkpt lat="45.84876" lon="1.23379">
        <ele>264.1</ele>
        <time>2024-11-12T09:56:39Z</time>
      </trkpt>
      <trkpt lat="45.84875" lon="1.23377">
        <ele>264.2</ele>
        <time>2024-11-12T09:56:40Z</time>
      </trkpt>
      <trkpt lat="45.84875" lon="1.23375">
        <ele>264.2</ele>
        <time>2024-11-12T09:56:41Z</time>
      </trkpt>
      <trkpt lat="45.84874" lon="1.23373">
        <ele>264.2</ele>
        <time>2024-11-12T09:56:42Z</time>
      </trkpt>
      <trkpt lat="45.84874" lon="1.23372">
        <ele>264.2</ele>
        <time>2024-11-12T09:56:43Z</time>
      </trkpt>
      <trkpt lat="45.84873" lon="1.23371">
        <ele>264.2</ele>
        <time>2024-11-12T09:56:44Z</time>
      </trkpt>
      <trkpt lat="45.84873" lon="1.23369">
        <ele>264.3</ele>
        <time>2024-11-12T09:56:45Z</time>
      </trkpt>
      <trkpt lat="45.84872" lon="1.23368">
        <ele>264.3</ele>
        <time>2024-11-12T09:56:46Z</time>
      </trkpt>
      <trkpt lat="45.84871" lon="1.23366">
        <ele>264.3</ele>
        <time>2024-11-12T09:56:47Z</time>
      </trkpt>
      <trkpt lat="45.8487" lon="1.23365">
        <ele>264.3</ele>
        <time>2024-11-12T09:56:48Z</time>
      </trkpt>
      <trkpt lat="45.84869" lon="1.23364">
        <ele>264.3</ele>
        <time>2024-11-12T09:56:49Z</time>
      </trkpt>
      <trkpt lat="45.84868" lon="1.23363">
        <ele>264.4</ele>
        <time>2024-11-12T09:56:50Z</time>
      </trkpt>
      <trkpt lat="45.84867" lon="1.23361">
        <ele>264.4</ele>
        <time>2024-11-12T09:56:51Z</time>
      </trkpt>
      <trkpt lat="45.84866" lon="1.2336">
        <ele>264.4</ele>
        <time>2024-11-12T09:56:52Z</time>
      </trkpt>
      <trkpt lat="45.84866" lon="1.23359">
        <ele>264.4</ele>
        <time>2024-11-12T09:56:53Z</time>
      </trkpt>
      <trkpt lat="45.84865" lon="1.23358">
        <ele>264.5</ele>
        <time>2024-11-12T09:56:54Z</time>
      </trkpt>
      <trkpt lat="45.84864" lon="1.23357">
        <ele>264.5</ele>
        <time>2024-11-12T09:56:55Z</time>
      </trkpt>
      <trkpt lat="45.84863" lon="1.23356">
        <ele>264.5</ele>
        <time>2024-11-12T09:56:56Z</time>
      </trkpt>
      <trkpt lat="45.84863" lon="1.23354">
        <ele>264.5</ele>
        <time>2024-11-12T09:56:57Z</time>
      </trkpt>
      <trkpt lat="45.84862" lon="1.23353">
        <ele>264.5</ele>
        <time>2024-11-12T09:56:58Z</time>
      </trkpt>
      <trkpt lat="45.84861" lon="1.23351">
        <ele>264.5</ele>
        <time>2024-11-12T09:56:59Z</time>
      </trkpt>
      <trkpt lat="45.84861" lon="1.2335">
        <ele>264.5</ele>
        <time>2024-11-12T09:57:00Z</time>
      </trkpt>
      <trkpt lat="45.8486" lon="1.23349">
        <ele>264.6</ele>
        <time>2024-11-12T09:57:01Z</time>
      </trkpt>
      <trkpt lat="45.8486" lon="1.23349">
        <ele>264.6</ele>
        <time>2024-11-12T09:57:02Z</time>
      </trkpt>
      <trkpt lat="45.84859" lon="1.23348">
        <ele>264.6</ele>
        <time>2024-11-12T09:57:03Z</time>
      </trkpt>
      <trkpt lat="45.84858" lon="1.23346">
        <ele>264.6</ele>
        <time>2024-11-12T09:57:04Z</time>
      </trkpt>
      <trkpt lat="45.84858" lon="1.23344">
        <ele>264.6</ele>
        <time>2024-11-12T09:57:05Z</time>
      </trkpt>
      <trkpt lat="45.84857" lon="1.23343">
        <ele>264.6</ele>
        <time>2024-11-12T09:57:06Z</time>
      </trkpt>
      <trkpt lat="45.84857" lon="1.23341">
        <ele>264.6</ele>
        <time>2024-11-12T09:57:07Z</time>
      </trkpt>
      <trkpt lat="45.84856" lon="1.23338">
        <ele>264.6</ele>
        <time>2024-11-12T09:57:08Z</time>
      </trkpt>
      <trkpt lat="45.84855" lon="1.23337">
        <ele>264.7</ele>
        <time>2024-11-12T09:57:09Z</time>
      </trkpt>
      <trkpt lat="45.84855" lon="1.23336">
        <ele>264.7</ele>
        <time>2024-11-12T09:57:10Z</time>
      </trkpt>
      <trkpt lat="45.84854" lon="1.23335">
        <ele>264.7</ele>
        <time>2024-11-12T09:57:11Z</time>
      </trkpt>
      <trkpt lat="45.84854" lon="1.23332">
        <ele>264.7</ele>
        <time>2024-11-12T09:57:12Z</time>
      </trkpt>
      <trkpt lat="45.84853" lon="1.23331">
        <ele>264.7</ele>
        <time>2024-11-12T09:57:13Z</time>
      </trkpt>
      <trkpt lat="45.84852" lon="1.2333">
        <ele>264.7</ele>
        <time>2024-11-12T09:57:14Z</time>
      </trkpt>
      <trkpt lat="45.84852" lon="1.23328">
        <ele>264.7</ele>
        <time>2024-11-12T09:57:15Z</time>
      </trkpt>
      <trkpt lat="45.84851" lon="1.23327">
        <ele>264.7</ele>
        <time>2024-11-12T09:57:16Z</time>
      </trkpt>
      <trkpt lat="45.8485" lon="1.23324">
        <ele>264.7</ele>
        <time>2024-11-12T09:57:17Z</time>
      </trkpt>
      <trkpt lat="45.8485" lon="1.23323">
        <ele>264.7</ele>
        <time>2024-11-12T09:57:18Z</time>
      </trkpt>
      <trkpt lat="45.84849" lon="1.23322">
        <ele>264.7</ele>
        <time>2024-11-12T09:57:19Z</time>
      </trkpt>
      <trkpt lat="45.84849" lon="1.2332">
        <ele>264.6</ele>
        <time>2024-11-12T09:57:20Z</time>
      </trkpt>
      <trkpt lat="45.84848" lon="1.23318">
        <ele>264.6</ele>
        <time>2024-11-12T09:57:21Z</time>
      </trkpt>
      <trkpt lat="45.84847" lon="1.23317">
        <ele>264.6</ele>
        <time>2024-11-12T09:57:22Z</time>
      </trkpt>
      <trkpt lat="45.84846" lon="1.23314">
        <ele>264.6</ele>
        <time>2024-11-12T09:57:23Z</time>
      </trkpt>
      <trkpt lat="45.84845" lon="1.23313">
        <ele>264.6</ele>
        <time>2024-11-12T09:57:24Z</time>
      </trkpt>
      <trkpt lat="45.84845" lon="1.23312">
        <ele>264.6</ele>
        <time>2024-11-12T09:57:25Z</time>
      </trkpt>
      <trkpt lat="45.84844" lon="1.2331">
        <ele>264.6</ele>
        <time>2024-11-12T09:57:26Z</time>
      </trkpt>
      <trkpt lat="45.84843" lon="1.23308">
        <ele>264.5</ele>
        <time>2024-11-12T09:57:27Z</time>
      </trkpt>
      <trkpt lat="45.84843" lon="1.23308">
        <ele>264.5</ele>
        <time>2024-11-12T09:57:28Z</time>
      </trkpt>
      <trkpt lat="45.84842" lon="1.23306">
        <ele>264.5</ele>
        <time>2024-11-12T09:57:29Z</time>
      </trkpt>
      <trkpt lat="45.84841" lon="1.23303">
        <ele>264.5</ele>
        <time>2024-11-12T09:57:30Z</time>
      </trkpt>
      <trkpt lat="45.8484" lon="1.23301">
        <ele>264.4</ele>
        <time>2024-11-12T09:57:32Z</time>
      </trkpt>
      <trkpt lat="45.8484" lon="1.233">
        <ele>264.4</ele>
        <time>2024-11-12T09:57:33Z</time>
      </trkpt>
      <trkpt lat="45.84839" lon="1.23299">
        <ele>264.4</ele>
        <time>2024-11-12T09:57:34Z</time>
      </trkpt>
      <trkpt lat="45.84838" lon="1.23297">
        <ele>264.4</ele>
        <time>2024-11-12T09:57:35Z</time>
      </trkpt>
      <trkpt lat="45.84837" lon="1.23295">
        <ele>264.4</ele>
        <time>2024-11-12T09:57:36Z</time>
      </trkpt>
      <trkpt lat="45.84836" lon="1.23294">
        <ele>264.4</ele>
        <time>2024-11-12T09:57:37Z</time>
      </trkpt>
      <trkpt lat="45.84836" lon="1.23293">
        <ele>264.3</ele>
        <time>2024-11-12T09:57:38Z</time>
      </trkpt>
      <trkpt lat="45.84834" lon="1.2329">
        <ele>264.3</ele>
        <time>2024-11-12T09:57:39Z</time>
      </trkpt>
      <trkpt lat="45.84834" lon="1.23289">
        <ele>264.3</ele>
        <time>2024-11-12T09:57:40Z</time>
      </trkpt>
      <trkpt lat="45.84833" lon="1.23288">
        <ele>264.3</ele>
        <time>2024-11-12T09:57:41Z</time>
      </trkpt>
      <trkpt lat="45.84832" lon="1.23286">
        <ele>264.2</ele>
        <time>2024-11-12T09:57:42Z</time>
      </trkpt>
      <trkpt lat="45.84832" lon="1.23285">
        <ele>264.2</ele>
        <time>2024-11-12T09:57:43Z</time>
      </trkpt>
      <trkpt lat="45.84831" lon="1.23283">
        <ele>264.2</ele>
        <time>2024-11-12T09:57:44Z</time>
      </trkpt>
      <trkpt lat="45.84831" lon="1.23281">
        <ele>264.2</ele>
        <time>2024-11-12T09:57:45Z</time>
      </trkpt>
      <trkpt lat="45.8483" lon="1.2328">
        <ele>264.1</ele>
        <time>2024-11-12T09:57:46Z</time>
      </trkpt>
      <trkpt lat="45.84829" lon="1.23277">
        <ele>264.1</ele>
        <time>2024-11-12T09:57:47Z</time>
      </trkpt>
      <trkpt lat="45.84829" lon="1.23277">
        <ele>264.1</ele>
        <time>2024-11-12T09:57:48Z</time>
      </trkpt>
      <trkpt lat="45.84828" lon="1.23275">
        <ele>264.1</ele>
        <time>2024-11-12T09:57:49Z</time>
      </trkpt>
      <trkpt lat="45.84828" lon="1.23274">
        <ele>264</ele>
        <time>2024-11-12T09:57:50Z</time>
      </trkpt>
      <trkpt lat="45.84828" lon="1.23272">
        <ele>264</ele>
        <time>2024-11-12T09:57:51Z</time>
      </trkpt>
      <trkpt lat="45.84828" lon="1.2327">
        <ele>264</ele>
        <time>2024-11-12T09:57:52Z</time>
      </trkpt>
      <trkpt lat="45.84828" lon="1.23268">
        <ele>263.9</ele>
        <time>2024-11-12T09:57:53Z</time>
      </trkpt>
      <trkpt lat="45.84828" lon="1.23266">
        <ele>263.9</ele>
        <time>2024-11-12T09:57:54Z</time>
      </trkpt>
      <trkpt lat="45.84828" lon="1.23264">
        <ele>263.9</ele>
        <time>2024-11-12T09:57:55Z</time>
      </trkpt>
      <trkpt lat="45.84828" lon="1.23263">
        <ele>263.8</ele>
        <time>2024-11-12T09:57:56Z</time>
      </trkpt>
      <trkpt lat="45.84829" lon="1.2326">
        <ele>263.8</ele>
        <time>2024-11-12T09:57:57Z</time>
      </trkpt>
      <trkpt lat="45.84829" lon="1.23259">
        <ele>263.7</ele>
        <time>2024-11-12T09:57:58Z</time>
      </trkpt>
      <trkpt lat="45.84829" lon="1.23257">
        <ele>263.7</ele>
        <time>2024-11-12T09:57:59Z</time>
      </trkpt>
      <trkpt lat="45.84829" lon="1.23255">
        <ele>263.7</ele>
        <time>2024-11-12T09:58:00Z</time>
      </trkpt>
      <trkpt lat="45.84829" lon="1.23252">
        <ele>263.7</ele>
        <time>2024-11-12T09:58:01Z</time>
      </trkpt>
      <trkpt lat="45.84829" lon="1.23251">
        <ele>263.7</ele>
        <time>2024-11-12T09:58:02Z</time>
      </trkpt>
      <trkpt lat="45.84829" lon="1.2325">
        <ele>263.7</ele>
        <time>2024-11-12T09:58:03Z</time>
      </trkpt>
      <trkpt lat="45.84829" lon="1.23248">
        <ele>263.7</ele>
        <time>2024-11-12T09:58:04Z</time>
      </trkpt>
      <trkpt lat="45.84829" lon="1.23247">
        <ele>263.7</ele>
        <time>2024-11-12T09:58:05Z</time>
      </trkpt>
      <trkpt lat="45.84829" lon="1.23245">
        <ele>263.7</ele>
        <time>2024-11-12T09:58:06Z</time>
      </trkpt>
      <trkpt lat="45.84829" lon="1.23242">
        <ele>263.7</ele>
        <time>2024-11-12T09:58:07Z</time>
      </trkpt>
      <trkpt lat="45.84828" lon="1.23241">
        <ele>263.7</ele>
        <time>2024-11-12T09:58:08Z</time>
      </trkpt>
      <trkpt lat="45.84828" lon="1.2324">
        <ele>263.7</ele>
        <time>2024-11-12T09:58:09Z</time>
      </trkpt>
      <trkpt lat="45.84828" lon="1.23238">
        <ele>263.8</ele>
        <time>2024-11-12T09:58:10Z</time>
      </trkpt>
      <trkpt lat="45.84828" lon="1.23237">
        <ele>263.8</ele>
        <time>2024-11-12T09:58:11Z</time>
      </trkpt>
      <trkpt lat="45.84828" lon="1.23235">
        <ele>263.8</ele>
        <time>2024-11-12T09:58:12Z</time>
      </trkpt>
      <trkpt lat="45.84827" lon="1.23232">
        <ele>263.8</ele>
        <time>2024-11-12T09:58:13Z</time>
      </trkpt>
      <trkpt lat="45.84827" lon="1.23231">
        <ele>263.8</ele>
        <time>2024-11-12T09:58:14Z</time>
      </trkpt>
      <trkpt lat="45.84827" lon="1.2323">
        <ele>263.8</ele>
        <time>2024-11-12T09:58:15Z</time>
      </trkpt>
      <trkpt lat="45.84827" lon="1.23229">
        <ele>263.8</ele>
        <time>2024-11-12T09:58:16Z</time>
      </trkpt>
      <trkpt lat="45.84826" lon="1.23227">
        <ele>263.8</ele>
        <time>2024-11-12T09:58:17Z</time>
      </trkpt>
      <trkpt lat="45.84826" lon="1.23226">
        <ele>263.8</ele>
        <time>2024-11-12T09:58:18Z</time>
      </trkpt>
      <trkpt lat="45.84825" lon="1.23225">
        <ele>263.8</ele>
        <time>2024-11-12T09:58:19Z</time>
      </trkpt>
      <trkpt lat="45.84824" lon="1.23223">
        <ele>263.9</ele>
        <time>2024-11-12T09:58:20Z</time>
      </trkpt>
      <trkpt lat="45.84823" lon="1.23223">
        <ele>263.9</ele>
        <time>2024-11-12T09:58:21Z</time>
      </trkpt>
      <trkpt lat="45.84822" lon="1.23222">
        <ele>263.9</ele>
        <time>2024-11-12T09:58:22Z</time>
      </trkpt>
      <trkpt lat="45.84821" lon="1.23222">
        <ele>263.9</ele>
        <time>2024-11-12T09:58:23Z</time>
      </trkpt>
      <trkpt lat="45.84819" lon="1.23222">
        <ele>263.9</ele>
        <time>2024-11-12T09:58:24Z</time>
      </trkpt>
      <trkpt lat="45.84818" lon="1.23222">
        <ele>263.9</ele>
        <time>2024-11-12T09:58:25Z</time>
      </trkpt>
      <trkpt lat="45.84816" lon="1.23222">
        <ele>263.9</ele>
        <time>2024-11-12T09:58:26Z</time>
      </trkpt>
      <trkpt lat="45.84815" lon="1.23222">
        <ele>263.9</ele>
        <time>2024-11-12T09:58:27Z</time>
      </trkpt>
      <trkpt lat="45.84814" lon="1.23222">
        <ele>263.9</ele>
        <time>2024-11-12T09:58:28Z</time>
      </trkpt>
      <trkpt lat="45.84813" lon="1.23221">
        <ele>263.9</ele>
        <time>2024-11-12T09:58:29Z</time>
      </trkpt>
      <trkpt lat="45.84812" lon="1.23219">
        <ele>264</ele>
        <time>2024-11-12T09:58:30Z</time>
      </trkpt>
      <trkpt lat="45.84812" lon="1.23216">
        <ele>264</ele>
        <time>2024-11-12T09:58:31Z</time>
      </trkpt>
      <trkpt lat="45.84812" lon="1.23214">
        <ele>264</ele>
        <time>2024-11-12T09:58:32Z</time>
      </trkpt>
      <trkpt lat="45.84812" lon="1.23213">
        <ele>264</ele>
        <time>2024-11-12T09:58:33Z</time>
      </trkpt>
      <trkpt lat="45.84812" lon="1.23211">
        <ele>264</ele>
        <time>2024-11-12T09:58:34Z</time>
      </trkpt>
      <trkpt lat="45.84813" lon="1.2321">
        <ele>264</ele>
        <time>2024-11-12T09:58:35Z</time>
      </trkpt>
      <trkpt lat="45.84813" lon="1.23209">
        <ele>264</ele>
        <time>2024-11-12T09:58:36Z</time>
      </trkpt>
      <trkpt lat="45.84814" lon="1.23208">
        <ele>264</ele>
        <time>2024-11-12T09:58:37Z</time>
      </trkpt>
      <trkpt lat="45.84815" lon="1.23208">
        <ele>264</ele>
        <time>2024-11-12T09:58:38Z</time>
      </trkpt>
      <trkpt lat="45.84815" lon="1.23207">
        <ele>264</ele>
        <time>2024-11-12T09:58:39Z</time>
      </trkpt>
      <trkpt lat="45.84816" lon="1.23207">
        <ele>264</ele>
        <time>2024-11-12T09:58:40Z</time>
      </trkpt>
      <trkpt lat="45.84816" lon="1.23207">
        <ele>264</ele>
        <time>2024-11-12T09:58:41Z</time>
      </trkpt>
      <trkpt lat="45.84817" lon="1.23206">
        <ele>264</ele>
        <time>2024-11-12T09:58:42Z</time>
      </trkpt>
      <trkpt lat="45.84818" lon="1.23205">
        <ele>264</ele>
        <time>2024-11-12T09:58:43Z</time>
      </trkpt>
      <trkpt lat="45.84819" lon="1.23204">
        <ele>264</ele>
        <time>2024-11-12T09:58:44Z</time>
      </trkpt>
      <trkpt lat="45.84821" lon="1.23203">
        <ele>264</ele>
        <time>2024-11-12T09:58:45Z</time>
      </trkpt>
      <trkpt lat="45.84822" lon="1.23202">
        <ele>264</ele>
        <time>2024-11-12T09:58:46Z</time>
      </trkpt>
      <trkpt lat="45.84823" lon="1.23202">
        <ele>264</ele>
        <time>2024-11-12T09:58:47Z</time>
      </trkpt>
      <trkpt lat="45.84824" lon="1.23201">
        <ele>264</ele>
        <time>2024-11-12T09:58:48Z</time>
      </trkpt>
      <trkpt lat="45.84825" lon="1.232">
        <ele>264</ele>
        <time>2024-11-12T09:58:49Z</time>
      </trkpt>
      <trkpt lat="45.84826" lon="1.23199">
        <ele>264</ele>
        <time>2024-11-12T09:58:50Z</time>
      </trkpt>
      <trkpt lat="45.84827" lon="1.23198">
        <ele>264</ele>
        <time>2024-11-12T09:58:51Z</time>
      </trkpt>
      <trkpt lat="45.84828" lon="1.23197">
        <ele>264</ele>
        <time>2024-11-12T09:58:52Z</time>
      </trkpt>
      <trkpt lat="45.84829" lon="1.23195">
        <ele>263.9</ele>
        <time>2024-11-12T09:58:53Z</time>
      </trkpt>
      <trkpt lat="45.8483" lon="1.23194">
        <ele>263.9</ele>
        <time>2024-11-12T09:58:54Z</time>
      </trkpt>
      <trkpt lat="45.8483" lon="1.23193">
        <ele>263.9</ele>
        <time>2024-11-12T09:58:55Z</time>
      </trkpt>
      <trkpt lat="45.8483" lon="1.23191">
        <ele>263.8</ele>
        <time>2024-11-12T09:58:56Z</time>
      </trkpt>
      <trkpt lat="45.84829" lon="1.2319">
        <ele>263.8</ele>
        <time>2024-11-12T09:58:57Z</time>
      </trkpt>
      <trkpt lat="45.84829" lon="1.23188">
        <ele>263.7</ele>
        <time>2024-11-12T09:58:58Z</time>
      </trkpt>
      <trkpt lat="45.84828" lon="1.23187">
        <ele>263.6</ele>
        <time>2024-11-12T09:58:59Z</time>
      </trkpt>
      <trkpt lat="45.84827" lon="1.23187">
        <ele>263.6</ele>
        <time>2024-11-12T09:59:00Z</time>
      </trkpt>
      <trkpt lat="45.84826" lon="1.23188">
        <ele>263.5</ele>
        <time>2024-11-12T09:59:01Z</time>
      </trkpt>
      <trkpt lat="45.84826" lon="1.23189">
        <ele>263.4</ele>
        <time>2024-11-12T09:59:02Z</time>
      </trkpt>
      <trkpt lat="45.84826" lon="1.23189">
        <ele>263.4</ele>
        <time>2024-11-12T09:59:03Z</time>
      </trkpt>
      <trkpt lat="45.84826" lon="1.23189">
        <ele>263.4</ele>
        <time>2024-11-12T09:59:04Z</time>
      </trkpt>
      <trkpt lat="45.84826" lon="1.23188">
        <ele>263.4</ele>
        <time>2024-11-12T09:59:05Z</time>
      </trkpt>
      <trkpt lat="45.84825" lon="1.23187">
        <ele>263.3</ele>
        <time>2024-11-12T09:59:06Z</time>
      </trkpt>
      <trkpt lat="45.84824" lon="1.23185">
        <ele>263.2</ele>
        <time>2024-11-12T09:59:07Z</time>
      </trkpt>
      <trkpt lat="45.84823" lon="1.23183">
        <ele>263</ele>
        <time>2024-11-12T09:59:08Z</time>
      </trkpt>
      <trkpt lat="45.84821" lon="1.23183">
        <ele>262.9</ele>
        <time>2024-11-12T09:59:09Z</time>
      </trkpt>
      <trkpt lat="45.8482" lon="1.23182">
        <ele>262.9</ele>
        <time>2024-11-12T09:59:10Z</time>
      </trkpt>
      <trkpt lat="45.84819" lon="1.23182">
        <ele>262.7</ele>
        <time>2024-11-12T09:59:11Z</time>
      </trkpt>
      <trkpt lat="45.84818" lon="1.23181">
        <ele>262.7</ele>
        <time>2024-11-12T09:59:12Z</time>
      </trkpt>
      <trkpt lat="45.84817" lon="1.2318">
        <ele>262.6</ele>
        <time>2024-11-12T09:59:13Z</time>
      </trkpt>
      <trkpt lat="45.84816" lon="1.2318">
        <ele>262.5</ele>
        <time>2024-11-12T09:59:14Z</time>
      </trkpt>
      <trkpt lat="45.84815" lon="1.23179">
        <ele>262.4</ele>
        <time>2024-11-12T09:59:15Z</time>
      </trkpt>
      <trkpt lat="45.84814" lon="1.23179">
        <ele>262.4</ele>
        <time>2024-11-12T09:59:16Z</time>
      </trkpt>
      <trkpt lat="45.84813" lon="1.23179">
        <ele>262.3</ele>
        <time>2024-11-12T09:59:17Z</time>
      </trkpt>
      <trkpt lat="45.84812" lon="1.23178">
        <ele>262.2</ele>
        <time>2024-11-12T09:59:18Z</time>
      </trkpt>
      <trkpt lat="45.84811" lon="1.23178">
        <ele>262.2</ele>
        <time>2024-11-12T09:59:19Z</time>
      </trkpt>
      <trkpt lat="45.8481" lon="1.23177">
        <ele>262.1</ele>
        <time>2024-11-12T09:59:20Z</time>
      </trkpt>
      <trkpt lat="45.84809" lon="1.23177">
        <ele>262.1</ele>
        <time>2024-11-12T09:59:21Z</time>
      </trkpt>
      <trkpt lat="45.84808" lon="1.23176">
        <ele>262</ele>
        <time>2024-11-12T09:59:22Z</time>
      </trkpt>
      <trkpt lat="45.84808" lon="1.23176">
        <ele>262</ele>
        <time>2024-11-12T09:59:23Z</time>
      </trkpt>
      <trkpt lat="45.84807" lon="1.23176">
        <ele>261.9</ele>
        <time>2024-11-12T09:59:24Z</time>
      </trkpt>
      <trkpt lat="45.84806" lon="1.23175">
        <ele>261.9</ele>
        <time>2024-11-12T09:59:25Z</time>
      </trkpt>
      <trkpt lat="45.84805" lon="1.23175">
        <ele>261.9</ele>
        <time>2024-11-12T09:59:26Z</time>
      </trkpt>
      <trkpt lat="45.84804" lon="1.23175">
        <ele>261.8</ele>
        <time>2024-11-12T09:59:27Z</time>
      </trkpt>
      <trkpt lat="45.84803" lon="1.23174">
        <ele>261.8</ele>
        <time>2024-11-12T09:59:28Z</time>
      </trkpt>
      <trkpt lat="45.84803" lon="1.23174">
        <ele>261.8</ele>
        <time>2024-11-12T09:59:29Z</time>
      </trkpt>
      <trkpt lat="45.84802" lon="1.23173">
        <ele>261.7</ele>
        <time>2024-11-12T09:59:30Z</time>
      </trkpt>
      <trkpt lat="45.84801" lon="1.23173">
        <ele>261.7</ele>
        <time>2024-11-12T09:59:31Z</time>
      </trkpt>
      <trkpt lat="45.84801" lon="1.23172">
        <ele>261.7</ele>
        <time>2024-11-12T09:59:32Z</time>
      </trkpt>
      <trkpt lat="45.848" lon="1.23172">
        <ele>261.7</ele>
        <time>2024-11-12T09:59:33Z</time>
      </trkpt>
      <trkpt lat="45.84799" lon="1.23173">
        <ele>261.6</ele>
        <time>2024-11-12T09:59:34Z</time>
      </trkpt>
      <trkpt lat="45.84799" lon="1.23173">
        <ele>261.6</ele>
        <time>2024-11-12T09:59:35Z</time>
      </trkpt>
      <trkpt lat="45.84799" lon="1.23173">
        <ele>261.6</ele>
        <time>2024-11-12T09:59:36Z</time>
      </trkpt>
      <trkpt lat="45.84799" lon="1.23173">
        <ele>261.6</ele>
        <time>2024-11-12T09:59:37Z</time>
      </trkpt>
      <trkpt lat="45.84799" lon="1.23173">
        <ele>261.6</ele>
        <time>2024-11-12T09:59:38Z</time>
      </trkpt>
      <trkpt lat="45.84799" lon="1.23173">
        <ele>261.6</ele>
        <time>2024-11-12T09:59:39Z</time>
      </trkpt>
      <trkpt lat="45.84799" lon="1.23173">
        <ele>261.6</ele>
        <time>2024-11-12T09:59:40Z</time>
      </trkpt>
      <trkpt lat="45.84798" lon="1.23174">
        <ele>261.6</ele>
        <time>2024-11-12T09:59:41Z</time>
      </trkpt>
      <trkpt lat="45.84798" lon="1.23174">
        <ele>261.6</ele>
        <time>2024-11-12T09:59:42Z</time>
      </trkpt>
      <trkpt lat="45.84798" lon="1.23174">
        <ele>261.6</ele>
        <time>2024-11-12T09:59:43Z</time>
      </trkpt>
      <trkpt lat="45.84798" lon="1.23174">
        <ele>261.6</ele>
        <time>2024-11-12T09:59:44Z</time>
      </trkpt>
      <trkpt lat="45.84798" lon="1.23174">
        <ele>261.6</ele>
        <time>2024-11-12T09:59:45Z</time>
      </trkpt>
      <trkpt lat="45.84798" lon="1.23174">
        <ele>261.6</ele>
        <time>2024-11-12T09:59:46Z</time>
      </trkpt>
      <trkpt lat="45.84798" lon="1.23175">
        <ele>261.6</ele>
        <time>2024-11-12T09:59:47Z</time>
      </trkpt>
      <trkpt lat="45.84798" lon="1.23175">
        <ele>261.6</ele>
        <time>2024-11-12T09:59:48Z</time>
      </trkpt>
      <trkpt lat="45.84797" lon="1.23175">
        <ele>261.6</ele>
        <time>2024-11-12T09:59:49Z</time>
      </trkpt>
      <trkpt lat="45.84797" lon="1.23175">
        <ele>261.6</ele>
        <time>2024-11-12T09:59:50Z</time>
      </trkpt>
      <trkpt lat="45.84797" lon="1.23175">
        <ele>261.6</ele>
        <time>2024-11-12T09:59:51Z</time>
      </trkpt>
      <trkpt lat="45.84796" lon="1.23176">
        <ele>261.5</ele>
        <time>2024-11-12T09:59:52Z</time>
      </trkpt>
      <trkpt lat="45.84795" lon="1.23175">
        <ele>261.5</ele>
        <time>2024-11-12T09:59:53Z</time>
      </trkpt>
      <trkpt lat="45.84795" lon="1.23175">
        <ele>261.5</ele>
        <time>2024-11-12T09:59:54Z</time>
      </trkpt>
      <trkpt lat="45.84795" lon="1.23175">
        <ele>261.5</ele>
        <time>2024-11-12T09:59:55Z</time>
      </trkpt>
      <trkpt lat="45.84795" lon="1.23175">
        <ele>261.5</ele>
        <time>2024-11-12T09:59:56Z</time>
      </trkpt>
      <trkpt lat="45.84795" lon="1.23175">
        <ele>261.5</ele>
        <time>2024-11-12T09:59:57Z</time>
      </trkpt>
      <trkpt lat="45.84794" lon="1.23175">
        <ele>261.5</ele>
        <time>2024-11-12T09:59:58Z</time>
      </trkpt>
      <trkpt lat="45.84793" lon="1.23175">
        <ele>261.4</ele>
        <time>2024-11-12T09:59:59Z</time>
      </trkpt>
      <trkpt lat="45.84791" lon="1.23175">
        <ele>261.4</ele>
        <time>2024-11-12T10:00:00Z</time>
      </trkpt>
      <trkpt lat="45.84789" lon="1.23176">
        <ele>261.4</ele>
        <time>2024-11-12T10:00:01Z</time>
      </trkpt>
      <trkpt lat="45.84789" lon="1.23176">
        <ele>261.4</ele>
        <time>2024-11-12T10:00:02Z</time>
      </trkpt>
      <trkpt lat="45.84789" lon="1.23177">
        <ele>261.4</ele>
        <time>2024-11-12T10:00:03Z</time>
      </trkpt>
      <trkpt lat="45.84789" lon="1.23177">
        <ele>261.4</ele>
        <time>2024-11-12T10:00:04Z</time>
      </trkpt>
      <trkpt lat="45.84789" lon="1.23177">
        <ele>261.4</ele>
        <time>2024-11-12T10:00:05Z</time>
      </trkpt>
      <trkpt lat="45.8479" lon="1.23176">
        <ele>261.4</ele>
        <time>2024-11-12T10:00:06Z</time>
      </trkpt>
      <trkpt lat="45.8479" lon="1.23176">
        <ele>261.4</ele>
        <time>2024-11-12T10:00:07Z</time>
      </trkpt>
      <trkpt lat="45.8479" lon="1.23176">
        <ele>261.4</ele>
        <time>2024-11-12T10:00:08Z</time>
      </trkpt>
      <trkpt lat="45.8479" lon="1.23176">
        <ele>261.4</ele>
        <time>2024-11-12T10:00:09Z</time>
      </trkpt>
      <trkpt lat="45.8479" lon="1.23176">
        <ele>261.4</ele>
        <time>2024-11-12T10:00:10Z</time>
      </trkpt>
      <trkpt lat="45.8479" lon="1.23176">
        <ele>261.4</ele>
        <time>2024-11-12T10:00:11Z</time>
      </trkpt>
      <trkpt lat="45.8479" lon="1.23176">
        <ele>261.4</ele>
        <time>2024-11-12T10:00:12Z</time>
      </trkpt>
      <trkpt lat="45.8479" lon="1.23176">
        <ele>261.3</ele>
        <time>2024-11-12T10:00:13Z</time>
      </trkpt>
      <trkpt lat="45.8479" lon="1.23176">
        <ele>261.3</ele>
        <time>2024-11-12T10:00:14Z</time>
      </trkpt>
      <trkpt lat="45.8479" lon="1.23176">
        <ele>261.3</ele>
        <time>2024-11-12T10:00:15Z</time>
      </trkpt>
      <trkpt lat="45.8479" lon="1.23176">
        <ele>261.3</ele>
        <time>2024-11-12T10:00:16Z</time>
      </trkpt>
      <trkpt lat="45.8479" lon="1.23176">
        <ele>261.3</ele>
        <time>2024-11-12T10:00:17Z</time>
      </trkpt>
      <trkpt lat="45.84791" lon="1.23176">
        <ele>261.3</ele>
        <time>2024-11-12T10:00:18Z</time>
      </trkpt>
      <trkpt lat="45.84791" lon="1.23175">
        <ele>261.3</ele>
        <time>2024-11-12T10:00:19Z</time>
      </trkpt>
      <trkpt lat="45.84791" lon="1.23175">
        <ele>261.3</ele>
        <time>2024-11-12T10:00:20Z</time>
      </trkpt>
      <trkpt lat="45.84791" lon="1.23175">
        <ele>261.3</ele>
        <time>2024-11-12T10:00:21Z</time>
      </trkpt>
      <trkpt lat="45.84791" lon="1.23175">
        <ele>261.3</ele>
        <time>2024-11-12T10:00:22Z</time>
      </trkpt>
      <trkpt lat="45.84791" lon="1.23175">
        <ele>261.3</ele>
        <time>2024-11-12T10:00:23Z</time>
      </trkpt>
      <trkpt lat="45.8479" lon="1.23176">
        <ele>261.3</ele>
        <time>2024-11-12T10:00:24Z</time>
      </trkpt>
      <trkpt lat="45.8479" lon="1.23176">
        <ele>261.3</ele>
        <time>2024-11-12T10:00:25Z</time>
      </trkpt>
      <trkpt lat="45.84789" lon="1.23176">
        <ele>261.3</ele>
        <time>2024-11-12T10:00:26Z</time>
      </trkpt>
      <trkpt lat="45.84789" lon="1.23176">
        <ele>261.3</ele>
        <time>2024-11-12T10:00:27Z</time>
      </trkpt>
      <trkpt lat="45.84788" lon="1.23177">
        <ele>261.3</ele>
        <time>2024-11-12T10:00:28Z</time>
      </trkpt>
      <trkpt lat="45.84787" lon="1.23177">
        <ele>261.3</ele>
        <time>2024-11-12T10:00:29Z</time>
      </trkpt>
      <trkpt lat="45.84789" lon="1.23176">
        <ele>261.3</ele>
        <time>2024-11-12T10:00:30Z</time>
      </trkpt>
      <trkpt lat="45.84789" lon="1.23177">
        <ele>261.3</ele>
        <time>2024-11-12T10:00:31Z</time>
      </trkpt>
      <trkpt lat="45.84789" lon="1.23177">
        <ele>261.3</ele>
        <time>2024-11-12T10:00:32Z</time>
      </trkpt>
      <trkpt lat="45.84789" lon="1.23177">
        <ele>261.3</ele>
        <time>2024-11-12T10:00:33Z</time>
      </trkpt>
      <trkpt lat="45.84788" lon="1.23177">
        <ele>261.3</ele>
        <time>2024-11-12T10:00:34Z</time>
      </trkpt>
      <trkpt lat="45.84788" lon="1.23178">
        <ele>261.3</ele>
        <time>2024-11-12T10:00:35Z</time>
      </trkpt>
      <trkpt lat="45.84788" lon="1.23178">
        <ele>261.3</ele>
        <time>2024-11-12T10:00:36Z</time>
      </trkpt>
      <trkpt lat="45.84787" lon="1.23178">
        <ele>261.3</ele>
        <time>2024-11-12T10:00:37Z</time>
      </trkpt>
      <trkpt lat="45.84787" lon="1.23178">
        <ele>261.3</ele>
        <time>2024-11-12T10:00:38Z</time>
      </trkpt>
      <trkpt lat="45.84787" lon="1.23178">
        <ele>261.3</ele>
        <time>2024-11-12T10:00:39Z</time>
      </trkpt>
      <trkpt lat="45.84787" lon="1.23178">
        <ele>261.3</ele>
        <time>2024-11-12T10:00:40Z</time>
      </trkpt>
      <trkpt lat="45.84786" lon="1.23179">
        <ele>261.3</ele>
        <time>2024-11-12T10:00:41Z</time>
      </trkpt>
      <trkpt lat="45.84786" lon="1.23179">
        <ele>261.3</ele>
        <time>2024-11-12T10:00:42Z</time>
      </trkpt>
      <trkpt lat="45.84785" lon="1.23179">
        <ele>261.3</ele>
        <time>2024-11-12T10:00:43Z</time>
      </trkpt>
      <trkpt lat="45.84782" lon="1.23183">
        <ele>261.2</ele>
        <time>2024-11-12T10:00:44Z</time>
      </trkpt>
      <trkpt lat="45.8478" lon="1.23185">
        <ele>261.2</ele>
        <time>2024-11-12T10:00:45Z</time>
      </trkpt>
      <trkpt lat="45.84777" lon="1.23187">
        <ele>261.2</ele>
        <time>2024-11-12T10:00:46Z</time>
      </trkpt>
      <trkpt lat="45.84776" lon="1.23187">
        <ele>261.2</ele>
        <time>2024-11-12T10:00:47Z</time>
      </trkpt>
      <trkpt lat="45.84775" lon="1.23186">
        <ele>261.2</ele>
        <time>2024-11-12T10:00:48Z</time>
      </trkpt>
      <trkpt lat="45.84773" lon="1.23186">
        <ele>261.2</ele>
        <time>2024-11-12T10:00:49Z</time>
      </trkpt>
      <trkpt lat="45.84771" lon="1.23186">
        <ele>261.2</ele>
        <time>2024-11-12T10:00:50Z</time>
      </trkpt>
      <trkpt lat="45.84769" lon="1.23185">
        <ele>261.2</ele>
        <time>2024-11-12T10:00:51Z</time>
      </trkpt>
      <trkpt lat="45.84767" lon="1.23184">
        <ele>261.2</ele>
        <time>2024-11-12T10:00:52Z</time>
      </trkpt>
      <trkpt lat="45.84766" lon="1.23184">
        <ele>261.2</ele>
        <time>2024-11-12T10:00:53Z</time>
      </trkpt>
      <trkpt lat="45.84764" lon="1.23183">
        <ele>261.2</ele>
        <time>2024-11-12T10:00:54Z</time>
      </trkpt>
      <trkpt lat="45.84763" lon="1.23183">
        <ele>261.2</ele>
        <time>2024-11-12T10:00:55Z</time>
      </trkpt>
      <trkpt lat="45.84761" lon="1.23182">
        <ele>261.2</ele>
        <time>2024-11-12T10:00:56Z</time>
      </trkpt>
      <trkpt lat="45.8476" lon="1.23181">
        <ele>261.2</ele>
        <time>2024-11-12T10:00:57Z</time>
      </trkpt>
      <trkpt lat="45.84758" lon="1.23179">
        <ele>261.2</ele>
        <time>2024-11-12T10:00:58Z</time>
      </trkpt>
      <trkpt lat="45.84757" lon="1.23178">
        <ele>261.2</ele>
        <time>2024-11-12T10:00:59Z</time>
      </trkpt>
      <trkpt lat="45.84755" lon="1.23177">
        <ele>261.2</ele>
        <time>2024-11-12T10:01:00Z</time>
      </trkpt>
      <trkpt lat="45.84754" lon="1.23176">
        <ele>261.2</ele>
        <time>2024-11-12T10:01:01Z</time>
      </trkpt>
      <trkpt lat="45.84752" lon="1.23176">
        <ele>261.2</ele>
        <time>2024-11-12T10:01:02Z</time>
      </trkpt>
      <trkpt lat="45.84751" lon="1.23176">
        <ele>261.2</ele>
        <time>2024-11-12T10:01:03Z</time>
      </trkpt>
      <trkpt lat="45.84751" lon="1.23177">
        <ele>261.2</ele>
        <time>2024-11-12T10:01:04Z</time>
      </trkpt>
      <trkpt lat="45.84752" lon="1.23177">
        <ele>261.2</ele>
        <time>2024-11-12T10:01:05Z</time>
      </trkpt>
      <trkpt lat="45.84752" lon="1.23177">
        <ele>261.2</ele>
        <time>2024-11-12T10:01:06Z</time>
      </trkpt>
      <trkpt lat="45.84752" lon="1.23176">
        <ele>261.2</ele>
        <time>2024-11-12T10:01:07Z</time>
      </trkpt>
      <trkpt lat="45.84753" lon="1.23176">
        <ele>261.2</ele>
        <time>2024-11-12T10:01:08Z</time>
      </trkpt>
      <trkpt lat="45.84753" lon="1.23176">
        <ele>261.2</ele>
        <time>2024-11-12T10:01:09Z</time>
      </trkpt>
      <trkpt lat="45.84753" lon="1.23176">
        <ele>261.2</ele>
        <time>2024-11-12T10:01:10Z</time>
      </trkpt>
      <trkpt lat="45.84753" lon="1.23176">
        <ele>261.1</ele>
        <time>2024-11-12T10:01:11Z</time>
      </trkpt>
      <trkpt lat="45.84753" lon="1.23177">
        <ele>261.1</ele>
        <time>2024-11-12T10:01:12Z</time>
      </trkpt>
      <trkpt lat="45.84753" lon="1.23176">
        <ele>261.1</ele>
        <time>2024-11-12T10:01:13Z</time>
      </trkpt>
      <trkpt lat="45.84753" lon="1.23177">
        <ele>261.1</ele>
        <time>2024-11-12T10:01:14Z</time>
      </trkpt>
      <trkpt lat="45.84753" lon="1.23177">
        <ele>261.1</ele>
        <time>2024-11-12T10:01:15Z</time>
      </trkpt>
      <trkpt lat="45.84753" lon="1.23177">
        <ele>261.1</ele>
        <time>2024-11-12T10:01:16Z</time>
      </trkpt>
      <trkpt lat="45.84754" lon="1.23177">
        <ele>261.1</ele>
        <time>2024-11-12T10:01:17Z</time>
      </trkpt>
      <trkpt lat="45.84754" lon="1.23177">
        <ele>261.1</ele>
        <time>2024-11-12T10:01:18Z</time>
      </trkpt>
      <trkpt lat="45.84754" lon="1.23177">
        <ele>261.1</ele>
        <time>2024-11-12T10:01:19Z</time>
      </trkpt>
      <trkpt lat="45.84754" lon="1.23177">
        <ele>261.1</ele>
        <time>2024-11-12T10:01:20Z</time>
      </trkpt>
      <trkpt lat="45.84753" lon="1.23177">
        <ele>261.1</ele>
        <time>2024-11-12T10:01:21Z</time>
      </trkpt>
      <trkpt lat="45.84753" lon="1.23176">
        <ele>261.1</ele>
        <time>2024-11-12T10:01:22Z</time>
      </trkpt>
      <trkpt lat="45.84753" lon="1.23176">
        <ele>261.1</ele>
        <time>2024-11-12T10:01:23Z</time>
      </trkpt>
      <trkpt lat="45.84753" lon="1.23176">
        <ele>261.1</ele>
        <time>2024-11-12T10:01:24Z</time>
      </trkpt>
      <trkpt lat="45.84752" lon="1.23176">
        <ele>261.1</ele>
        <time>2024-11-12T10:01:25Z</time>
      </trkpt>
      <trkpt lat="45.84752" lon="1.23176">
        <ele>261.1</ele>
        <time>2024-11-12T10:01:26Z</time>
      </trkpt>
      <trkpt lat="45.84752" lon="1.23176">
        <ele>261.1</ele>
        <time>2024-11-12T10:01:27Z</time>
      </trkpt>
      <trkpt lat="45.84752" lon="1.23175">
        <ele>261.1</ele>
        <time>2024-11-12T10:01:28Z</time>
      </trkpt>
      <trkpt lat="45.84751" lon="1.23175">
        <ele>261.1</ele>
        <time>2024-11-12T10:01:29Z</time>
      </trkpt>
      <trkpt lat="45.84751" lon="1.23175">
        <ele>261.1</ele>
        <time>2024-11-12T10:01:30Z</time>
      </trkpt>
      <trkpt lat="45.84751" lon="1.23175">
        <ele>261.1</ele>
        <time>2024-11-12T10:01:31Z</time>
      </trkpt>
      <trkpt lat="45.84751" lon="1.23175">
        <ele>261.1</ele>
        <time>2024-11-12T10:01:32Z</time>
      </trkpt>
      <trkpt lat="45.8475" lon="1.23175">
        <ele>261.1</ele>
        <time>2024-11-12T10:01:33Z</time>
      </trkpt>
      <trkpt lat="45.84749" lon="1.23174">
        <ele>261.1</ele>
        <time>2024-11-12T10:01:34Z</time>
      </trkpt>
      <trkpt lat="45.84747" lon="1.23174">
        <ele>261.1</ele>
        <time>2024-11-12T10:01:35Z</time>
      </trkpt>
      <trkpt lat="45.84745" lon="1.23172">
        <ele>261.1</ele>
        <time>2024-11-12T10:01:36Z</time>
      </trkpt>
      <trkpt lat="45.84744" lon="1.23171">
        <ele>261.1</ele>
        <time>2024-11-12T10:01:37Z</time>
      </trkpt>
      <trkpt lat="45.84743" lon="1.2317">
        <ele>261.1</ele>
        <time>2024-11-12T10:01:38Z</time>
      </trkpt>
      <trkpt lat="45.84741" lon="1.23167">
        <ele>261.1</ele>
        <time>2024-11-12T10:01:39Z</time>
      </trkpt>
      <trkpt lat="45.84739" lon="1.23166">
        <ele>261.1</ele>
        <time>2024-11-12T10:01:40Z</time>
      </trkpt>
      <trkpt lat="45.84738" lon="1.23164">
        <ele>261</ele>
        <time>2024-11-12T10:01:41Z</time>
      </trkpt>
      <trkpt lat="45.84737" lon="1.23164">
        <ele>261</ele>
        <time>2024-11-12T10:01:42Z</time>
      </trkpt>
      <trkpt lat="45.84736" lon="1.23164">
        <ele>261</ele>
        <time>2024-11-12T10:01:43Z</time>
      </trkpt>
      <trkpt lat="45.84736" lon="1.23164">
        <ele>261</ele>
        <time>2024-11-12T10:01:44Z</time>
      </trkpt>
      <trkpt lat="45.84736" lon="1.23164">
        <ele>261</ele>
        <time>2024-11-12T10:01:45Z</time>
      </trkpt>
      <trkpt lat="45.84735" lon="1.23163">
        <ele>261</ele>
        <time>2024-11-12T10:01:46Z</time>
      </trkpt>
      <trkpt lat="45.84735" lon="1.23163">
        <ele>261</ele>
        <time>2024-11-12T10:01:47Z</time>
      </trkpt>
      <trkpt lat="45.84734" lon="1.23161">
        <ele>261</ele>
        <time>2024-11-12T10:01:48Z</time>
      </trkpt>
      <trkpt lat="45.84734" lon="1.2316">
        <ele>261</ele>
        <time>2024-11-12T10:01:49Z</time>
      </trkpt>
      <trkpt lat="45.84733" lon="1.23159">
        <ele>261</ele>
        <time>2024-11-12T10:01:50Z</time>
      </trkpt>
      <trkpt lat="45.84732" lon="1.23158">
        <ele>261</ele>
        <time>2024-11-12T10:01:51Z</time>
      </trkpt>
      <trkpt lat="45.84729" lon="1.23156">
        <ele>261</ele>
        <time>2024-11-12T10:01:52Z</time>
      </trkpt>
      <trkpt lat="45.84729" lon="1.23156">
        <ele>260.9</ele>
        <time>2024-11-12T10:01:54Z</time>
      </trkpt>
      <trkpt lat="45.84728" lon="1.23155">
        <ele>260.9</ele>
        <time>2024-11-12T10:01:55Z</time>
      </trkpt>
      <trkpt lat="45.84727" lon="1.23154">
        <ele>260.9</ele>
        <time>2024-11-12T10:01:56Z</time>
      </trkpt>
      <trkpt lat="45.84726" lon="1.23152">
        <ele>260.9</ele>
        <time>2024-11-12T10:01:57Z</time>
      </trkpt>
      <trkpt lat="45.84725" lon="1.23151">
        <ele>260.9</ele>
        <time>2024-11-12T10:01:58Z</time>
      </trkpt>
      <trkpt lat="45.84724" lon="1.2315">
        <ele>260.9</ele>
        <time>2024-11-12T10:01:59Z</time>
      </trkpt>
      <trkpt lat="45.84724" lon="1.23149">
        <ele>260.9</ele>
        <time>2024-11-12T10:02:00Z</time>
      </trkpt>
      <trkpt lat="45.84723" lon="1.23148">
        <ele>260.9</ele>
        <time>2024-11-12T10:02:01Z</time>
      </trkpt>
      <trkpt lat="45.84722" lon="1.23147">
        <ele>260.8</ele>
        <time>2024-11-12T10:02:02Z</time>
      </trkpt>
      <trkpt lat="45.8472" lon="1.23146">
        <ele>260.8</ele>
        <time>2024-11-12T10:02:03Z</time>
      </trkpt>
      <trkpt lat="45.8472" lon="1.23146">
        <ele>260.8</ele>
        <time>2024-11-12T10:02:04Z</time>
      </trkpt>
      <trkpt lat="45.8472" lon="1.23147">
        <ele>260.8</ele>
        <time>2024-11-12T10:02:05Z</time>
      </trkpt>
      <trkpt lat="45.8472" lon="1.23147">
        <ele>260.8</ele>
        <time>2024-11-12T10:02:06Z</time>
      </trkpt>
      <trkpt lat="45.8472" lon="1.23147">
        <ele>260.8</ele>
        <time>2024-11-12T10:02:07Z</time>
      </trkpt>
      <trkpt lat="45.8472" lon="1.23148">
        <ele>260.8</ele>
        <time>2024-11-12T10:02:08Z</time>
      </trkpt>
      <trkpt lat="45.8472" lon="1.23149">
        <ele>260.8</ele>
        <time>2024-11-12T10:02:09Z</time>
      </trkpt>
      <trkpt lat="45.84721" lon="1.23149">
        <ele>260.8</ele>
        <time>2024-11-12T10:02:10Z</time>
      </trkpt>
      <trkpt lat="45.84721" lon="1.23149">
        <ele>260.8</ele>
        <time>2024-11-12T10:02:11Z</time>
      </trkpt>
      <trkpt lat="45.84721" lon="1.23149">
        <ele>260.8</ele>
        <time>2024-11-12T10:02:12Z</time>
      </trkpt>
      <trkpt lat="45.84721" lon="1.23149">
        <ele>260.8</ele>
        <time>2024-11-12T10:02:13Z</time>
      </trkpt>
      <trkpt lat="45.84721" lon="1.23149">
        <ele>260.8</ele>
        <time>2024-11-12T10:02:14Z</time>
      </trkpt>
      <trkpt lat="45.84721" lon="1.2315">
        <ele>260.8</ele>
        <time>2024-11-12T10:02:15Z</time>
      </trkpt>
      <trkpt lat="45.84721" lon="1.2315">
        <ele>260.8</ele>
        <time>2024-11-12T10:02:16Z</time>
      </trkpt>
      <trkpt lat="45.84721" lon="1.2315">
        <ele>260.8</ele>
        <time>2024-11-12T10:02:17Z</time>
      </trkpt>
      <trkpt lat="45.84721" lon="1.2315">
        <ele>260.8</ele>
        <time>2024-11-12T10:02:18Z</time>
      </trkpt>
      <trkpt lat="45.84721" lon="1.2315">
        <ele>260.7</ele>
        <time>2024-11-12T10:02:19Z</time>
      </trkpt>
      <trkpt lat="45.8472" lon="1.23149">
        <ele>260.7</ele>
        <time>2024-11-12T10:02:20Z</time>
      </trkpt>
      <trkpt lat="45.8472" lon="1.23149">
        <ele>260.7</ele>
        <time>2024-11-12T10:02:21Z</time>
      </trkpt>
      <trkpt lat="45.84718" lon="1.23148">
        <ele>260.7</ele>
        <time>2024-11-12T10:02:22Z</time>
      </trkpt>
      <trkpt lat="45.84716" lon="1.23146">
        <ele>260.7</ele>
        <time>2024-11-12T10:02:23Z</time>
      </trkpt>
      <trkpt lat="45.84716" lon="1.23146">
        <ele>260.7</ele>
        <time>2024-11-12T10:02:24Z</time>
      </trkpt>
      <trkpt lat="45.84714" lon="1.23145">
        <ele>260.6</ele>
        <time>2024-11-12T10:02:25Z</time>
      </trkpt>
      <trkpt lat="45.84713" lon="1.23145">
        <ele>260.6</ele>
        <time>2024-11-12T10:02:26Z</time>
      </trkpt>
      <trkpt lat="45.84712" lon="1.23144">
        <ele>260.6</ele>
        <time>2024-11-12T10:02:27Z</time>
      </trkpt>
      <trkpt lat="45.8471" lon="1.23143">
        <ele>260.5</ele>
        <time>2024-11-12T10:02:28Z</time>
      </trkpt>
      <trkpt lat="45.84709" lon="1.23142">
        <ele>260.5</ele>
        <time>2024-11-12T10:02:29Z</time>
      </trkpt>
      <trkpt lat="45.84708" lon="1.23141">
        <ele>260.5</ele>
        <time>2024-11-12T10:02:30Z</time>
      </trkpt>
      <trkpt lat="45.84707" lon="1.23141">
        <ele>260.5</ele>
        <time>2024-11-12T10:02:31Z</time>
      </trkpt>
      <trkpt lat="45.84706" lon="1.2314">
        <ele>260.5</ele>
        <time>2024-11-12T10:02:32Z</time>
      </trkpt>
      <trkpt lat="45.84705" lon="1.23139">
        <ele>260.4</ele>
        <time>2024-11-12T10:02:33Z</time>
      </trkpt>
      <trkpt lat="45.84704" lon="1.23137">
        <ele>260.4</ele>
        <time>2024-11-12T10:02:34Z</time>
      </trkpt>
      <trkpt lat="45.84703" lon="1.23136">
        <ele>260.4</ele>
        <time>2024-11-12T10:02:35Z</time>
      </trkpt>
      <trkpt lat="45.84703" lon="1.23135">
        <ele>260.4</ele>
        <time>2024-11-12T10:02:36Z</time>
      </trkpt>
      <trkpt lat="45.84701" lon="1.23133">
        <ele>260.3</ele>
        <time>2024-11-12T10:02:37Z</time>
      </trkpt>
      <trkpt lat="45.847" lon="1.23132">
        <ele>260.3</ele>
        <time>2024-11-12T10:02:38Z</time>
      </trkpt>
      <trkpt lat="45.847" lon="1.23132">
        <ele>260.3</ele>
        <time>2024-11-12T10:02:39Z</time>
      </trkpt>
      <trkpt lat="45.847" lon="1.2313">
        <ele>260.3</ele>
        <time>2024-11-12T10:02:40Z</time>
      </trkpt>
      <trkpt lat="45.84699" lon="1.23128">
        <ele>260.3</ele>
        <time>2024-11-12T10:02:41Z</time>
      </trkpt>
      <trkpt lat="45.84699" lon="1.23127">
        <ele>260.3</ele>
        <time>2024-11-12T10:02:42Z</time>
      </trkpt>
      <trkpt lat="45.84699" lon="1.23124">
        <ele>260.3</ele>
        <time>2024-11-12T10:02:43Z</time>
      </trkpt>
      <trkpt lat="45.847" lon="1.23123">
        <ele>260.3</ele>
        <time>2024-11-12T10:02:44Z</time>
      </trkpt>
      <trkpt lat="45.847" lon="1.23121">
        <ele>260.2</ele>
        <time>2024-11-12T10:02:45Z</time>
      </trkpt>
      <trkpt lat="45.847" lon="1.2312">
        <ele>260.2</ele>
        <time>2024-11-12T10:02:46Z</time>
      </trkpt>
      <trkpt lat="45.847" lon="1.23118">
        <ele>260.2</ele>
        <time>2024-11-12T10:02:47Z</time>
      </trkpt>
      <trkpt lat="45.847" lon="1.23116">
        <ele>260.2</ele>
        <time>2024-11-12T10:02:48Z</time>
      </trkpt>
      <trkpt lat="45.847" lon="1.23115">
        <ele>260.2</ele>
        <time>2024-11-12T10:02:49Z</time>
      </trkpt>
      <trkpt lat="45.847" lon="1.23113">
        <ele>260.2</ele>
        <time>2024-11-12T10:02:50Z</time>
      </trkpt>
      <trkpt lat="45.84699" lon="1.2311">
        <ele>260.2</ele>
        <time>2024-11-12T10:02:51Z</time>
      </trkpt>
      <trkpt lat="45.84699" lon="1.23109">
        <ele>260.2</ele>
        <time>2024-11-12T10:02:52Z</time>
      </trkpt>
      <trkpt lat="45.84699" lon="1.23108">
        <ele>260.2</ele>
        <time>2024-11-12T10:02:53Z</time>
      </trkpt>
      <trkpt lat="45.84698" lon="1.23106">
        <ele>260.1</ele>
        <time>2024-11-12T10:02:54Z</time>
      </trkpt>
      <trkpt lat="45.84698" lon="1.23105">
        <ele>260.1</ele>
        <time>2024-11-12T10:02:55Z</time>
      </trkpt>
      <trkpt lat="45.84698" lon="1.23103">
        <ele>260.1</ele>
        <time>2024-11-12T10:02:56Z</time>
      </trkpt>
      <trkpt lat="45.84698" lon="1.231">
        <ele>260.1</ele>
        <time>2024-11-12T10:02:57Z</time>
      </trkpt>
      <trkpt lat="45.84698" lon="1.23099">
        <ele>260.1</ele>
        <time>2024-11-12T10:02:58Z</time>
      </trkpt>
      <trkpt lat="45.84698" lon="1.23098">
        <ele>260.1</ele>
        <time>2024-11-12T10:02:59Z</time>
      </trkpt>
      <trkpt lat="45.84697" lon="1.23095">
        <ele>260.1</ele>
        <time>2024-11-12T10:03:00Z</time>
      </trkpt>
      <trkpt lat="45.84697" lon="1.23093">
        <ele>260.1</ele>
        <time>2024-11-12T10:03:01Z</time>
      </trkpt>
      <trkpt lat="45.84697" lon="1.23092">
        <ele>260.1</ele>
        <time>2024-11-12T10:03:02Z</time>
      </trkpt>
      <trkpt lat="45.84697" lon="1.23091">
        <ele>260</ele>
        <time>2024-11-12T10:03:03Z</time>
      </trkpt>
      <trkpt lat="45.84696" lon="1.23089">
        <ele>260</ele>
        <time>2024-11-12T10:03:04Z</time>
      </trkpt>
      <trkpt lat="45.84696" lon="1.23088">
        <ele>260</ele>
        <time>2024-11-12T10:03:05Z</time>
      </trkpt>
      <trkpt lat="45.84695" lon="1.23085">
        <ele>260</ele>
        <time>2024-11-12T10:03:06Z</time>
      </trkpt>
      <trkpt lat="45.84694" lon="1.23084">
        <ele>260</ele>
        <time>2024-11-12T10:03:07Z</time>
      </trkpt>
      <trkpt lat="45.84694" lon="1.23083">
        <ele>260</ele>
        <time>2024-11-12T10:03:08Z</time>
      </trkpt>
      <trkpt lat="45.84693" lon="1.2308">
        <ele>260</ele>
        <time>2024-11-12T10:03:09Z</time>
      </trkpt>
      <trkpt lat="45.84692" lon="1.23079">
        <ele>260</ele>
        <time>2024-11-12T10:03:10Z</time>
      </trkpt>
      <trkpt lat="45.84692" lon="1.23078">
        <ele>259.9</ele>
        <time>2024-11-12T10:03:11Z</time>
      </trkpt>
      <trkpt lat="45.84691" lon="1.23076">
        <ele>259.9</ele>
        <time>2024-11-12T10:03:12Z</time>
      </trkpt>
      <trkpt lat="45.84691" lon="1.23074">
        <ele>259.9</ele>
        <time>2024-11-12T10:03:13Z</time>
      </trkpt>
      <trkpt lat="45.8469" lon="1.23072">
        <ele>259.9</ele>
        <time>2024-11-12T10:03:14Z</time>
      </trkpt>
      <trkpt lat="45.8469" lon="1.2307">
        <ele>259.9</ele>
        <time>2024-11-12T10:03:15Z</time>
      </trkpt>
      <trkpt lat="45.8469" lon="1.23068">
        <ele>259.9</ele>
        <time>2024-11-12T10:03:16Z</time>
      </trkpt>
      <trkpt lat="45.84689" lon="1.23066">
        <ele>259.9</ele>
        <time>2024-11-12T10:03:17Z</time>
      </trkpt>
      <trkpt lat="45.84688" lon="1.23064">
        <ele>259.9</ele>
        <time>2024-11-12T10:03:18Z</time>
      </trkpt>
      <trkpt lat="45.84687" lon="1.23063">
        <ele>259.9</ele>
        <time>2024-11-12T10:03:19Z</time>
      </trkpt>
      <trkpt lat="45.84686" lon="1.23061">
        <ele>259.9</ele>
        <time>2024-11-12T10:03:20Z</time>
      </trkpt>
      <trkpt lat="45.84685" lon="1.2306">
        <ele>259.8</ele>
        <time>2024-11-12T10:03:21Z</time>
      </trkpt>
      <trkpt lat="45.84684" lon="1.23058">
        <ele>259.8</ele>
        <time>2024-11-12T10:03:22Z</time>
      </trkpt>
      <trkpt lat="45.84683" lon="1.23057">
        <ele>259.8</ele>
        <time>2024-11-12T10:03:23Z</time>
      </trkpt>
      <trkpt lat="45.84682" lon="1.23056">
        <ele>259.8</ele>
        <time>2024-11-12T10:03:24Z</time>
      </trkpt>
      <trkpt lat="45.8468" lon="1.23055">
        <ele>259.8</ele>
        <time>2024-11-12T10:03:25Z</time>
      </trkpt>
      <trkpt lat="45.84679" lon="1.23054">
        <ele>259.8</ele>
        <time>2024-11-12T10:03:26Z</time>
      </trkpt>
      <trkpt lat="45.84678" lon="1.23053">
        <ele>259.8</ele>
        <time>2024-11-12T10:03:27Z</time>
      </trkpt>
      <trkpt lat="45.84677" lon="1.23052">
        <ele>259.8</ele>
        <time>2024-11-12T10:03:28Z</time>
      </trkpt>
      <trkpt lat="45.84675" lon="1.23051">
        <ele>259.8</ele>
        <time>2024-11-12T10:03:29Z</time>
      </trkpt>
      <trkpt lat="45.84673" lon="1.2305">
        <ele>259.7</ele>
        <time>2024-11-12T10:03:30Z</time>
      </trkpt>
      <trkpt lat="45.84673" lon="1.2305">
        <ele>259.7</ele>
        <time>2024-11-12T10:03:31Z</time>
      </trkpt>
      <trkpt lat="45.84672" lon="1.23049">
        <ele>259.7</ele>
        <time>2024-11-12T10:03:32Z</time>
      </trkpt>
      <trkpt lat="45.8467" lon="1.23049">
        <ele>259.7</ele>
        <time>2024-11-12T10:03:33Z</time>
      </trkpt>
      <trkpt lat="45.84669" lon="1.23048">
        <ele>259.7</ele>
        <time>2024-11-12T10:03:34Z</time>
      </trkpt>
      <trkpt lat="45.84668" lon="1.23047">
        <ele>259.7</ele>
        <time>2024-11-12T10:03:35Z</time>
      </trkpt>
      <trkpt lat="45.84667" lon="1.23046">
        <ele>259.7</ele>
        <time>2024-11-12T10:03:36Z</time>
      </trkpt>
      <trkpt lat="45.84666" lon="1.23045">
        <ele>259.7</ele>
        <time>2024-11-12T10:03:37Z</time>
      </trkpt>
      <trkpt lat="45.84664" lon="1.23044">
        <ele>259.7</ele>
        <time>2024-11-12T10:03:38Z</time>
      </trkpt>
      <trkpt lat="45.84664" lon="1.23044">
        <ele>259.7</ele>
        <time>2024-11-12T10:03:39Z</time>
      </trkpt>
      <trkpt lat="45.84663" lon="1.23044">
        <ele>259.7</ele>
        <time>2024-11-12T10:03:40Z</time>
      </trkpt>
      <trkpt lat="45.84661" lon="1.23043">
        <ele>259.6</ele>
        <time>2024-11-12T10:03:41Z</time>
      </trkpt>
      <trkpt lat="45.8466" lon="1.23043">
        <ele>259.6</ele>
        <time>2024-11-12T10:03:42Z</time>
      </trkpt>
      <trkpt lat="45.84659" lon="1.23042">
        <ele>259.6</ele>
        <time>2024-11-12T10:03:43Z</time>
      </trkpt>
      <trkpt lat="45.84657" lon="1.23041">
        <ele>259.6</ele>
        <time>2024-11-12T10:03:44Z</time>
      </trkpt>
      <trkpt lat="45.84656" lon="1.2304">
        <ele>259.6</ele>
        <time>2024-11-12T10:03:45Z</time>
      </trkpt>
      <trkpt lat="45.84655" lon="1.23039">
        <ele>259.6</ele>
        <time>2024-11-12T10:03:46Z</time>
      </trkpt>
      <trkpt lat="45.84654" lon="1.23038">
        <ele>259.6</ele>
        <time>2024-11-12T10:03:47Z</time>
      </trkpt>
      <trkpt lat="45.84652" lon="1.23037">
        <ele>259.6</ele>
        <time>2024-11-12T10:03:48Z</time>
      </trkpt>
      <trkpt lat="45.84651" lon="1.23036">
        <ele>259.6</ele>
        <time>2024-11-12T10:03:49Z</time>
      </trkpt>
      <trkpt lat="45.8465" lon="1.23036">
        <ele>259.6</ele>
        <time>2024-11-12T10:03:50Z</time>
      </trkpt>
      <trkpt lat="45.84648" lon="1.23035">
        <ele>259.5</ele>
        <time>2024-11-12T10:03:51Z</time>
      </trkpt>
      <trkpt lat="45.84647" lon="1.23034">
        <ele>259.5</ele>
        <time>2024-11-12T10:03:52Z</time>
      </trkpt>
      <trkpt lat="45.84646" lon="1.23033">
        <ele>259.5</ele>
        <time>2024-11-12T10:03:53Z</time>
      </trkpt>
      <trkpt lat="45.84645" lon="1.23031">
        <ele>259.5</ele>
        <time>2024-11-12T10:03:54Z</time>
      </trkpt>
      <trkpt lat="45.84644" lon="1.23029">
        <ele>259.5</ele>
        <time>2024-11-12T10:03:55Z</time>
      </trkpt>
      <trkpt lat="45.84643" lon="1.23028">
        <ele>259.5</ele>
        <time>2024-11-12T10:03:56Z</time>
      </trkpt>
      <trkpt lat="45.84642" lon="1.23027">
        <ele>259.5</ele>
        <time>2024-11-12T10:03:57Z</time>
      </trkpt>
      <trkpt lat="45.84641" lon="1.23026">
        <ele>259.5</ele>
        <time>2024-11-12T10:03:58Z</time>
      </trkpt>
      <trkpt lat="45.8464" lon="1.23025">
        <ele>259.5</ele>
        <time>2024-11-12T10:03:59Z</time>
      </trkpt>
      <trkpt lat="45.84639" lon="1.23024">
        <ele>259.5</ele>
        <time>2024-11-12T10:04:00Z</time>
      </trkpt>
      <trkpt lat="45.84638" lon="1.23023">
        <ele>259.5</ele>
        <time>2024-11-12T10:04:01Z</time>
      </trkpt>
      <trkpt lat="45.84637" lon="1.23021">
        <ele>259.5</ele>
        <time>2024-11-12T10:04:02Z</time>
      </trkpt>
      <trkpt lat="45.84636" lon="1.2302">
        <ele>259.5</ele>
        <time>2024-11-12T10:04:03Z</time>
      </trkpt>
      <trkpt lat="45.84635" lon="1.23019">
        <ele>259.5</ele>
        <time>2024-11-12T10:04:04Z</time>
      </trkpt>
      <trkpt lat="45.84633" lon="1.23017">
        <ele>259.4</ele>
        <time>2024-11-12T10:04:05Z</time>
      </trkpt>
      <trkpt lat="45.84632" lon="1.23017">
        <ele>259.4</ele>
        <time>2024-11-12T10:04:06Z</time>
      </trkpt>
      <trkpt lat="45.84632" lon="1.23016">
        <ele>259.4</ele>
        <time>2024-11-12T10:04:07Z</time>
      </trkpt>
      <trkpt lat="45.84631" lon="1.23014">
        <ele>259.4</ele>
        <time>2024-11-12T10:04:08Z</time>
      </trkpt>
      <trkpt lat="45.84629" lon="1.23013">
        <ele>259.4</ele>
        <time>2024-11-12T10:04:09Z</time>
      </trkpt>
      <trkpt lat="45.84628" lon="1.23011">
        <ele>259.4</ele>
        <time>2024-11-12T10:04:10Z</time>
      </trkpt>
      <trkpt lat="45.84627" lon="1.23011">
        <ele>259.4</ele>
        <time>2024-11-12T10:04:11Z</time>
      </trkpt>
      <trkpt lat="45.84626" lon="1.2301">
        <ele>259.4</ele>
        <time>2024-11-12T10:04:12Z</time>
      </trkpt>
      <trkpt lat="45.84625" lon="1.23009">
        <ele>259.4</ele>
        <time>2024-11-12T10:04:13Z</time>
      </trkpt>
      <trkpt lat="45.84623" lon="1.23007">
        <ele>259.3</ele>
        <time>2024-11-12T10:04:14Z</time>
      </trkpt>
      <trkpt lat="45.84622" lon="1.23005">
        <ele>259.3</ele>
        <time>2024-11-12T10:04:16Z</time>
      </trkpt>
      <trkpt lat="45.84621" lon="1.23004">
        <ele>259.3</ele>
        <time>2024-11-12T10:04:17Z</time>
      </trkpt>
      <trkpt lat="45.8462" lon="1.23003">
        <ele>259.3</ele>
        <time>2024-11-12T10:04:18Z</time>
      </trkpt>
      <trkpt lat="45.84619" lon="1.23002">
        <ele>259.3</ele>
        <time>2024-11-12T10:04:19Z</time>
      </trkpt>
      <trkpt lat="45.84617" lon="1.23001">
        <ele>259.3</ele>
        <time>2024-11-12T10:04:20Z</time>
      </trkpt>
      <trkpt lat="45.84616" lon="1.23">
        <ele>259.2</ele>
        <time>2024-11-12T10:04:21Z</time>
      </trkpt>
      <trkpt lat="45.84615" lon="1.22999">
        <ele>259.2</ele>
        <time>2024-11-12T10:04:22Z</time>
      </trkpt>
      <trkpt lat="45.84614" lon="1.22998">
        <ele>259.2</ele>
        <time>2024-11-12T10:04:23Z</time>
      </trkpt>
      <trkpt lat="45.84613" lon="1.22997">
        <ele>259.2</ele>
        <time>2024-11-12T10:04:24Z</time>
      </trkpt>
      <trkpt lat="45.84611" lon="1.22995">
        <ele>259.2</ele>
        <time>2024-11-12T10:04:25Z</time>
      </trkpt>
      <trkpt lat="45.8461" lon="1.22995">
        <ele>259.2</ele>
        <time>2024-11-12T10:04:26Z</time>
      </trkpt>
      <trkpt lat="45.8461" lon="1.22994">
        <ele>259.2</ele>
        <time>2024-11-12T10:04:27Z</time>
      </trkpt>
      <trkpt lat="45.84609" lon="1.22993">
        <ele>259.1</ele>
        <time>2024-11-12T10:04:28Z</time>
      </trkpt>
      <trkpt lat="45.84607" lon="1.22992">
        <ele>259.1</ele>
        <time>2024-11-12T10:04:29Z</time>
      </trkpt>
      <trkpt lat="45.84606" lon="1.22992">
        <ele>259.1</ele>
        <time>2024-11-12T10:04:30Z</time>
      </trkpt>
      <trkpt lat="45.84605" lon="1.22991">
        <ele>259.1</ele>
        <time>2024-11-12T10:04:31Z</time>
      </trkpt>
      <trkpt lat="45.84604" lon="1.22991">
        <ele>259.1</ele>
        <time>2024-11-12T10:04:32Z</time>
      </trkpt>
      <trkpt lat="45.84602" lon="1.2299">
        <ele>259.1</ele>
        <time>2024-11-12T10:04:33Z</time>
      </trkpt>
      <trkpt lat="45.84601" lon="1.22989">
        <ele>259</ele>
        <time>2024-11-12T10:04:34Z</time>
      </trkpt>
      <trkpt lat="45.84599" lon="1.22987">
        <ele>259</ele>
        <time>2024-11-12T10:04:35Z</time>
      </trkpt>
      <trkpt lat="45.84599" lon="1.22986">
        <ele>259</ele>
        <time>2024-11-12T10:04:36Z</time>
      </trkpt>
      <trkpt lat="45.84598" lon="1.22985">
        <ele>259</ele>
        <time>2024-11-12T10:04:37Z</time>
      </trkpt>
      <trkpt lat="45.84597" lon="1.22984">
        <ele>259</ele>
        <time>2024-11-12T10:04:38Z</time>
      </trkpt>
      <trkpt lat="45.84596" lon="1.22982">
        <ele>259</ele>
        <time>2024-11-12T10:04:39Z</time>
      </trkpt>
      <trkpt lat="45.84595" lon="1.22982">
        <ele>259</ele>
        <time>2024-11-12T10:04:40Z</time>
      </trkpt>
      <trkpt lat="45.84594" lon="1.22981">
        <ele>258.9</ele>
        <time>2024-11-12T10:04:41Z</time>
      </trkpt>
      <trkpt lat="45.84593" lon="1.2298">
        <ele>258.9</ele>
        <time>2024-11-12T10:04:42Z</time>
      </trkpt>
      <trkpt lat="45.84592" lon="1.22979">
        <ele>258.9</ele>
        <time>2024-11-12T10:04:43Z</time>
      </trkpt>
      <trkpt lat="45.8459" lon="1.22978">
        <ele>258.9</ele>
        <time>2024-11-12T10:04:44Z</time>
      </trkpt>
      <trkpt lat="45.8459" lon="1.22977">
        <ele>258.9</ele>
        <time>2024-11-12T10:04:45Z</time>
      </trkpt>
      <trkpt lat="45.84589" lon="1.22976">
        <ele>258.9</ele>
        <time>2024-11-12T10:04:46Z</time>
      </trkpt>
      <trkpt lat="45.84589" lon="1.22974">
        <ele>258.9</ele>
        <time>2024-11-12T10:04:47Z</time>
      </trkpt>
      <trkpt lat="45.84588" lon="1.22973">
        <ele>258.9</ele>
        <time>2024-11-12T10:04:48Z</time>
      </trkpt>
      <trkpt lat="45.84587" lon="1.22972">
        <ele>258.9</ele>
        <time>2024-11-12T10:04:49Z</time>
      </trkpt>
      <trkpt lat="45.84586" lon="1.22971">
        <ele>258.9</ele>
        <time>2024-11-12T10:04:50Z</time>
      </trkpt>
      <trkpt lat="45.84585" lon="1.2297">
        <ele>258.8</ele>
        <time>2024-11-12T10:04:51Z</time>
      </trkpt>
      <trkpt lat="45.84584" lon="1.22969">
        <ele>258.8</ele>
        <time>2024-11-12T10:04:52Z</time>
      </trkpt>
      <trkpt lat="45.84583" lon="1.22968">
        <ele>258.8</ele>
        <time>2024-11-12T10:04:53Z</time>
      </trkpt>
      <trkpt lat="45.84581" lon="1.22967">
        <ele>258.8</ele>
        <time>2024-11-12T10:04:54Z</time>
      </trkpt>
      <trkpt lat="45.8458" lon="1.22966">
        <ele>258.8</ele>
        <time>2024-11-12T10:04:55Z</time>
      </trkpt>
      <trkpt lat="45.84579" lon="1.22966">
        <ele>258.8</ele>
        <time>2024-11-12T10:04:56Z</time>
      </trkpt>
      <trkpt lat="45.84578" lon="1.22966">
        <ele>258.8</ele>
        <time>2024-11-12T10:04:57Z</time>
      </trkpt>
      <trkpt lat="45.84577" lon="1.22965">
        <ele>258.8</ele>
        <time>2024-11-12T10:04:58Z</time>
      </trkpt>
      <trkpt lat="45.84575" lon="1.22964">
        <ele>258.8</ele>
        <time>2024-11-12T10:04:59Z</time>
      </trkpt>
      <trkpt lat="45.84573" lon="1.22963">
        <ele>258.8</ele>
        <time>2024-11-12T10:05:00Z</time>
      </trkpt>
      <trkpt lat="45.84572" lon="1.22962">
        <ele>258.7</ele>
        <time>2024-11-12T10:05:01Z</time>
      </trkpt>
      <trkpt lat="45.84572" lon="1.22962">
        <ele>258.7</ele>
        <time>2024-11-12T10:05:02Z</time>
      </trkpt>
      <trkpt lat="45.84571" lon="1.22961">
        <ele>258.7</ele>
        <time>2024-11-12T10:05:03Z</time>
      </trkpt>
      <trkpt lat="45.84569" lon="1.22962">
        <ele>258.7</ele>
        <time>2024-11-12T10:05:04Z</time>
      </trkpt>
      <trkpt lat="45.84569" lon="1.22962">
        <ele>258.7</ele>
        <time>2024-11-12T10:05:05Z</time>
      </trkpt>
      <trkpt lat="45.84569" lon="1.22962">
        <ele>258.7</ele>
        <time>2024-11-12T10:05:06Z</time>
      </trkpt>
      <trkpt lat="45.84569" lon="1.22961">
        <ele>258.7</ele>
        <time>2024-11-12T10:05:07Z</time>
      </trkpt>
      <trkpt lat="45.84569" lon="1.2296">
        <ele>258.7</ele>
        <time>2024-11-12T10:05:08Z</time>
      </trkpt>
      <trkpt lat="45.84569" lon="1.22959">
        <ele>258.7</ele>
        <time>2024-11-12T10:05:09Z</time>
      </trkpt>
      <trkpt lat="45.84569" lon="1.22958">
        <ele>258.7</ele>
        <time>2024-11-12T10:05:10Z</time>
      </trkpt>
      <trkpt lat="45.84569" lon="1.22957">
        <ele>258.7</ele>
        <time>2024-11-12T10:05:11Z</time>
      </trkpt>
      <trkpt lat="45.84568" lon="1.22956">
        <ele>258.7</ele>
        <time>2024-11-12T10:05:12Z</time>
      </trkpt>
      <trkpt lat="45.84568" lon="1.22955">
        <ele>258.7</ele>
        <time>2024-11-12T10:05:13Z</time>
      </trkpt>
      <trkpt lat="45.84568" lon="1.22954">
        <ele>258.7</ele>
        <time>2024-11-12T10:05:14Z</time>
      </trkpt>
      <trkpt lat="45.84566" lon="1.2295">
        <ele>258.6</ele>
        <time>2024-11-12T10:05:15Z</time>
      </trkpt>
      <trkpt lat="45.84566" lon="1.22949">
        <ele>258.6</ele>
        <time>2024-11-12T10:05:16Z</time>
      </trkpt>
      <trkpt lat="45.84565" lon="1.22947">
        <ele>258.6</ele>
        <time>2024-11-12T10:05:17Z</time>
      </trkpt>
      <trkpt lat="45.84565" lon="1.22945">
        <ele>258.6</ele>
        <time>2024-11-12T10:05:18Z</time>
      </trkpt>
      <trkpt lat="45.84564" lon="1.22942">
        <ele>258.6</ele>
        <time>2024-11-12T10:05:19Z</time>
      </trkpt>
      <trkpt lat="45.84564" lon="1.22941">
        <ele>258.6</ele>
        <time>2024-11-12T10:05:20Z</time>
      </trkpt>
      <trkpt lat="45.84563" lon="1.22939">
        <ele>258.6</ele>
        <time>2024-11-12T10:05:21Z</time>
      </trkpt>
      <trkpt lat="45.84563" lon="1.22936">
        <ele>258.5</ele>
        <time>2024-11-12T10:05:22Z</time>
      </trkpt>
      <trkpt lat="45.84563" lon="1.22935">
        <ele>258.5</ele>
        <time>2024-11-12T10:05:23Z</time>
      </trkpt>
      <trkpt lat="45.84562" lon="1.22934">
        <ele>258.5</ele>
        <time>2024-11-12T10:05:24Z</time>
      </trkpt>
      <trkpt lat="45.84562" lon="1.22932">
        <ele>258.5</ele>
        <time>2024-11-12T10:05:25Z</time>
      </trkpt>
      <trkpt lat="45.84562" lon="1.2293">
        <ele>258.5</ele>
        <time>2024-11-12T10:05:26Z</time>
      </trkpt>
      <trkpt lat="45.84562" lon="1.22929">
        <ele>258.5</ele>
        <time>2024-11-12T10:05:27Z</time>
      </trkpt>
      <trkpt lat="45.84561" lon="1.22927">
        <ele>258.5</ele>
        <time>2024-11-12T10:05:28Z</time>
      </trkpt>
      <trkpt lat="45.84561" lon="1.22924">
        <ele>258.5</ele>
        <time>2024-11-12T10:05:29Z</time>
      </trkpt>
      <trkpt lat="45.8456" lon="1.22923">
        <ele>258.4</ele>
        <time>2024-11-12T10:05:30Z</time>
      </trkpt>
      <trkpt lat="45.84559" lon="1.22922">
        <ele>258.4</ele>
        <time>2024-11-12T10:05:31Z</time>
      </trkpt>
      <trkpt lat="45.84559" lon="1.2292">
        <ele>258.4</ele>
        <time>2024-11-12T10:05:32Z</time>
      </trkpt>
      <trkpt lat="45.84558" lon="1.22919">
        <ele>258.4</ele>
        <time>2024-11-12T10:05:33Z</time>
      </trkpt>
      <trkpt lat="45.84557" lon="1.22918">
        <ele>258.4</ele>
        <time>2024-11-12T10:05:34Z</time>
      </trkpt>
      <trkpt lat="45.84557" lon="1.22915">
        <ele>258.4</ele>
        <time>2024-11-12T10:05:35Z</time>
      </trkpt>
      <trkpt lat="45.84557" lon="1.22915">
        <ele>258.4</ele>
        <time>2024-11-12T10:05:36Z</time>
      </trkpt>
      <trkpt lat="45.84557" lon="1.22914">
        <ele>258.4</ele>
        <time>2024-11-12T10:05:37Z</time>
      </trkpt>
      <trkpt lat="45.84557" lon="1.22912">
        <ele>258.4</ele>
        <time>2024-11-12T10:05:38Z</time>
      </trkpt>
      <trkpt lat="45.84557" lon="1.2291">
        <ele>258.3</ele>
        <time>2024-11-12T10:05:39Z</time>
      </trkpt>
      <trkpt lat="45.84557" lon="1.22909">
        <ele>258.3</ele>
        <time>2024-11-12T10:05:40Z</time>
      </trkpt>
      <trkpt lat="45.84557" lon="1.22907">
        <ele>258.3</ele>
        <time>2024-11-12T10:05:41Z</time>
      </trkpt>
      <trkpt lat="45.84558" lon="1.22904">
        <ele>258.3</ele>
        <time>2024-11-12T10:05:42Z</time>
      </trkpt>
      <trkpt lat="45.84558" lon="1.22903">
        <ele>258.3</ele>
        <time>2024-11-12T10:05:43Z</time>
      </trkpt>
      <trkpt lat="45.84558" lon="1.22901">
        <ele>258.3</ele>
        <time>2024-11-12T10:05:44Z</time>
      </trkpt>
      <trkpt lat="45.84558" lon="1.229">
        <ele>258.3</ele>
        <time>2024-11-12T10:05:45Z</time>
      </trkpt>
      <trkpt lat="45.84559" lon="1.22899">
        <ele>258.3</ele>
        <time>2024-11-12T10:05:46Z</time>
      </trkpt>
      <trkpt lat="45.84559" lon="1.22898">
        <ele>258.3</ele>
        <time>2024-11-12T10:05:47Z</time>
      </trkpt>
      <trkpt lat="45.8456" lon="1.22896">
        <ele>258.3</ele>
        <time>2024-11-12T10:05:48Z</time>
      </trkpt>
      <trkpt lat="45.8456" lon="1.22894">
        <ele>258.3</ele>
        <time>2024-11-12T10:05:49Z</time>
      </trkpt>
      <trkpt lat="45.84561" lon="1.22893">
        <ele>258.3</ele>
        <time>2024-11-12T10:05:50Z</time>
      </trkpt>
      <trkpt lat="45.84561" lon="1.22892">
        <ele>258.3</ele>
        <time>2024-11-12T10:05:51Z</time>
      </trkpt>
      <trkpt lat="45.84562" lon="1.2289">
        <ele>258.3</ele>
        <time>2024-11-12T10:05:52Z</time>
      </trkpt>
      <trkpt lat="45.84562" lon="1.22889">
        <ele>258.2</ele>
        <time>2024-11-12T10:05:53Z</time>
      </trkpt>
      <trkpt lat="45.84562" lon="1.22887">
        <ele>258.2</ele>
        <time>2024-11-12T10:05:54Z</time>
      </trkpt>
      <trkpt lat="45.84562" lon="1.22885">
        <ele>258.2</ele>
        <time>2024-11-12T10:05:55Z</time>
      </trkpt>
      <trkpt lat="45.84562" lon="1.22884">
        <ele>258.2</ele>
        <time>2024-11-12T10:05:56Z</time>
      </trkpt>
      <trkpt lat="45.84562" lon="1.22881">
        <ele>258.2</ele>
        <time>2024-11-12T10:05:57Z</time>
      </trkpt>
      <trkpt lat="45.84562" lon="1.22879">
        <ele>258.2</ele>
        <time>2024-11-12T10:05:58Z</time>
      </trkpt>
      <trkpt lat="45.84562" lon="1.22878">
        <ele>258.2</ele>
        <time>2024-11-12T10:05:59Z</time>
      </trkpt>
      <trkpt lat="45.84561" lon="1.22878">
        <ele>258.2</ele>
        <time>2024-11-12T10:06:00Z</time>
      </trkpt>
      <trkpt lat="45.84561" lon="1.22876">
        <ele>258.2</ele>
        <time>2024-11-12T10:06:01Z</time>
      </trkpt>
      <trkpt lat="45.84561" lon="1.22874">
        <ele>258.2</ele>
        <time>2024-11-12T10:06:02Z</time>
      </trkpt>
      <trkpt lat="45.84561" lon="1.22873">
        <ele>258.2</ele>
        <time>2024-11-12T10:06:03Z</time>
      </trkpt>
      <trkpt lat="45.84561" lon="1.2287">
        <ele>258.2</ele>
        <time>2024-11-12T10:06:04Z</time>
      </trkpt>
      <trkpt lat="45.84561" lon="1.2287">
        <ele>258.2</ele>
        <time>2024-11-12T10:06:05Z</time>
      </trkpt>
      <trkpt lat="45.84561" lon="1.22868">
        <ele>258.2</ele>
        <time>2024-11-12T10:06:06Z</time>
      </trkpt>
      <trkpt lat="45.84561" lon="1.22866">
        <ele>258.2</ele>
        <time>2024-11-12T10:06:07Z</time>
      </trkpt>
      <trkpt lat="45.84561" lon="1.22864">
        <ele>258.1</ele>
        <time>2024-11-12T10:06:08Z</time>
      </trkpt>
      <trkpt lat="45.84561" lon="1.22862">
        <ele>258.1</ele>
        <time>2024-11-12T10:06:09Z</time>
      </trkpt>
      <trkpt lat="45.84561" lon="1.2286">
        <ele>258.1</ele>
        <time>2024-11-12T10:06:10Z</time>
      </trkpt>
      <trkpt lat="45.8456" lon="1.22858">
        <ele>258.1</ele>
        <time>2024-11-12T10:06:11Z</time>
      </trkpt>
      <trkpt lat="45.8456" lon="1.22857">
        <ele>258.1</ele>
        <time>2024-11-12T10:06:12Z</time>
      </trkpt>
      <trkpt lat="45.8456" lon="1.22855">
        <ele>258.1</ele>
        <time>2024-11-12T10:06:13Z</time>
      </trkpt>
      <trkpt lat="45.8456" lon="1.22853">
        <ele>258.1</ele>
        <time>2024-11-12T10:06:14Z</time>
      </trkpt>
      <trkpt lat="45.8456" lon="1.22852">
        <ele>258.1</ele>
        <time>2024-11-12T10:06:15Z</time>
      </trkpt>
      <trkpt lat="45.84561" lon="1.2285">
        <ele>258.1</ele>
        <time>2024-11-12T10:06:16Z</time>
      </trkpt>
      <trkpt lat="45.84561" lon="1.22848">
        <ele>258.1</ele>
        <time>2024-11-12T10:06:17Z</time>
      </trkpt>
      <trkpt lat="45.84561" lon="1.22847">
        <ele>258.1</ele>
        <time>2024-11-12T10:06:18Z</time>
      </trkpt>
      <trkpt lat="45.84561" lon="1.22845">
        <ele>258.1</ele>
        <time>2024-11-12T10:06:19Z</time>
      </trkpt>
      <trkpt lat="45.84561" lon="1.22844">
        <ele>258.1</ele>
        <time>2024-11-12T10:06:20Z</time>
      </trkpt>
      <trkpt lat="45.84561" lon="1.22842">
        <ele>258</ele>
        <time>2024-11-12T10:06:21Z</time>
      </trkpt>
      <trkpt lat="45.84561" lon="1.2284">
        <ele>258</ele>
        <time>2024-11-12T10:06:22Z</time>
      </trkpt>
      <trkpt lat="45.84561" lon="1.22838">
        <ele>258</ele>
        <time>2024-11-12T10:06:23Z</time>
      </trkpt>
      <trkpt lat="45.84561" lon="1.22836">
        <ele>258</ele>
        <time>2024-11-12T10:06:24Z</time>
      </trkpt>
      <trkpt lat="45.8456" lon="1.22834">
        <ele>258</ele>
        <time>2024-11-12T10:06:25Z</time>
      </trkpt>
      <trkpt lat="45.8456" lon="1.22832">
        <ele>258</ele>
        <time>2024-11-12T10:06:26Z</time>
      </trkpt>
      <trkpt lat="45.8456" lon="1.22829">
        <ele>258</ele>
        <time>2024-11-12T10:06:27Z</time>
      </trkpt>
      <trkpt lat="45.8456" lon="1.22828">
        <ele>258</ele>
        <time>2024-11-12T10:06:28Z</time>
      </trkpt>
      <trkpt lat="45.8456" lon="1.22826">
        <ele>258</ele>
        <time>2024-11-12T10:06:29Z</time>
      </trkpt>
      <trkpt lat="45.8456" lon="1.22824">
        <ele>257.9</ele>
        <time>2024-11-12T10:06:30Z</time>
      </trkpt>
      <trkpt lat="45.8456" lon="1.22822">
        <ele>257.9</ele>
        <time>2024-11-12T10:06:31Z</time>
      </trkpt>
      <trkpt lat="45.8456" lon="1.2282">
        <ele>257.9</ele>
        <time>2024-11-12T10:06:32Z</time>
      </trkpt>
      <trkpt lat="45.8456" lon="1.22817">
        <ele>257.9</ele>
        <time>2024-11-12T10:06:33Z</time>
      </trkpt>
      <trkpt lat="45.8456" lon="1.22815">
        <ele>257.9</ele>
        <time>2024-11-12T10:06:34Z</time>
      </trkpt>
      <trkpt lat="45.8456" lon="1.22813">
        <ele>257.9</ele>
        <time>2024-11-12T10:06:35Z</time>
      </trkpt>
      <trkpt lat="45.8456" lon="1.22811">
        <ele>257.9</ele>
        <time>2024-11-12T10:06:36Z</time>
      </trkpt>
      <trkpt lat="45.84561" lon="1.22808">
        <ele>257.9</ele>
        <time>2024-11-12T10:06:37Z</time>
      </trkpt>
      <trkpt lat="45.84561" lon="1.22806">
        <ele>257.9</ele>
        <time>2024-11-12T10:06:38Z</time>
      </trkpt>
      <trkpt lat="45.84561" lon="1.22804">
        <ele>257.9</ele>
        <time>2024-11-12T10:06:39Z</time>
      </trkpt>
      <trkpt lat="45.84561" lon="1.22801">
        <ele>257.9</ele>
        <time>2024-11-12T10:06:40Z</time>
      </trkpt>
      <trkpt lat="45.84561" lon="1.228">
        <ele>257.9</ele>
        <time>2024-11-12T10:06:41Z</time>
      </trkpt>
      <trkpt lat="45.84561" lon="1.22799">
        <ele>257.9</ele>
        <time>2024-11-12T10:06:42Z</time>
      </trkpt>
      <trkpt lat="45.84561" lon="1.22796">
        <ele>257.9</ele>
        <time>2024-11-12T10:06:43Z</time>
      </trkpt>
      <trkpt lat="45.84561" lon="1.22795">
        <ele>257.9</ele>
        <time>2024-11-12T10:06:44Z</time>
      </trkpt>
      <trkpt lat="45.84561" lon="1.22793">
        <ele>257.9</ele>
        <time>2024-11-12T10:06:45Z</time>
      </trkpt>
      <trkpt lat="45.84561" lon="1.22792">
        <ele>257.9</ele>
        <time>2024-11-12T10:06:46Z</time>
      </trkpt>
      <trkpt lat="45.84561" lon="1.2279">
        <ele>257.9</ele>
        <time>2024-11-12T10:06:47Z</time>
      </trkpt>
      <trkpt lat="45.84561" lon="1.22789">
        <ele>257.9</ele>
        <time>2024-11-12T10:06:48Z</time>
      </trkpt>
      <trkpt lat="45.8456" lon="1.22786">
        <ele>257.9</ele>
        <time>2024-11-12T10:06:49Z</time>
      </trkpt>
      <trkpt lat="45.8456" lon="1.22785">
        <ele>257.9</ele>
        <time>2024-11-12T10:06:50Z</time>
      </trkpt>
      <trkpt lat="45.84559" lon="1.22783">
        <ele>257.9</ele>
        <time>2024-11-12T10:06:51Z</time>
      </trkpt>
      <trkpt lat="45.84559" lon="1.22781">
        <ele>257.9</ele>
        <time>2024-11-12T10:06:52Z</time>
      </trkpt>
      <trkpt lat="45.84559" lon="1.22779">
        <ele>257.9</ele>
        <time>2024-11-12T10:06:53Z</time>
      </trkpt>
      <trkpt lat="45.84558" lon="1.22777">
        <ele>257.9</ele>
        <time>2024-11-12T10:06:54Z</time>
      </trkpt>
      <trkpt lat="45.84558" lon="1.22775">
        <ele>257.9</ele>
        <time>2024-11-12T10:06:55Z</time>
      </trkpt>
      <trkpt lat="45.84557" lon="1.22772">
        <ele>257.9</ele>
        <time>2024-11-12T10:06:56Z</time>
      </trkpt>
      <trkpt lat="45.84557" lon="1.22771">
        <ele>257.9</ele>
        <time>2024-11-12T10:06:57Z</time>
      </trkpt>
      <trkpt lat="45.84557" lon="1.2277">
        <ele>257.9</ele>
        <time>2024-11-12T10:06:58Z</time>
      </trkpt>
      <trkpt lat="45.84557" lon="1.22768">
        <ele>257.9</ele>
        <time>2024-11-12T10:06:59Z</time>
      </trkpt>
      <trkpt lat="45.84556" lon="1.22766">
        <ele>257.9</ele>
        <time>2024-11-12T10:07:00Z</time>
      </trkpt>
      <trkpt lat="45.84555" lon="1.22764">
        <ele>257.9</ele>
        <time>2024-11-12T10:07:01Z</time>
      </trkpt>
      <trkpt lat="45.84554" lon="1.22763">
        <ele>257.9</ele>
        <time>2024-11-12T10:07:02Z</time>
      </trkpt>
      <trkpt lat="45.84553" lon="1.22762">
        <ele>257.9</ele>
        <time>2024-11-12T10:07:03Z</time>
      </trkpt>
      <trkpt lat="45.84552" lon="1.22761">
        <ele>257.9</ele>
        <time>2024-11-12T10:07:04Z</time>
      </trkpt>
      <trkpt lat="45.84551" lon="1.2276">
        <ele>257.9</ele>
        <time>2024-11-12T10:07:05Z</time>
      </trkpt>
      <trkpt lat="45.84549" lon="1.22757">
        <ele>257.9</ele>
        <time>2024-11-12T10:07:06Z</time>
      </trkpt>
      <trkpt lat="45.84548" lon="1.22756">
        <ele>257.9</ele>
        <time>2024-11-12T10:07:07Z</time>
      </trkpt>
      <trkpt lat="45.84548" lon="1.22756">
        <ele>257.9</ele>
        <time>2024-11-12T10:07:08Z</time>
      </trkpt>
      <trkpt lat="45.84547" lon="1.22757">
        <ele>257.9</ele>
        <time>2024-11-12T10:07:09Z</time>
      </trkpt>
      <trkpt lat="45.84547" lon="1.22758">
        <ele>257.9</ele>
        <time>2024-11-12T10:07:10Z</time>
      </trkpt>
      <trkpt lat="45.84547" lon="1.22758">
        <ele>257.9</ele>
        <time>2024-11-12T10:07:11Z</time>
      </trkpt>
      <trkpt lat="45.84547" lon="1.22758">
        <ele>257.9</ele>
        <time>2024-11-12T10:07:12Z</time>
      </trkpt>
      <trkpt lat="45.84547" lon="1.22758">
        <ele>257.9</ele>
        <time>2024-11-12T10:07:13Z</time>
      </trkpt>
      <trkpt lat="45.84547" lon="1.22758">
        <ele>257.9</ele>
        <time>2024-11-12T10:07:14Z</time>
      </trkpt>
      <trkpt lat="45.84547" lon="1.22758">
        <ele>257.9</ele>
        <time>2024-11-12T10:07:15Z</time>
      </trkpt>
      <trkpt lat="45.84547" lon="1.22758">
        <ele>257.9</ele>
        <time>2024-11-12T10:07:16Z</time>
      </trkpt>
      <trkpt lat="45.84547" lon="1.22758">
        <ele>257.9</ele>
        <time>2024-11-12T10:07:17Z</time>
      </trkpt>
      <trkpt lat="45.84546" lon="1.22756">
        <ele>257.9</ele>
        <time>2024-11-12T10:07:18Z</time>
      </trkpt>
      <trkpt lat="45.84546" lon="1.22754">
        <ele>257.9</ele>
        <time>2024-11-12T10:07:19Z</time>
      </trkpt>
      <trkpt lat="45.84545" lon="1.22751">
        <ele>257.9</ele>
        <time>2024-11-12T10:07:20Z</time>
      </trkpt>
      <trkpt lat="45.84545" lon="1.22749">
        <ele>257.9</ele>
        <time>2024-11-12T10:07:21Z</time>
      </trkpt>
      <trkpt lat="45.84544" lon="1.22747">
        <ele>257.9</ele>
        <time>2024-11-12T10:07:22Z</time>
      </trkpt>
      <trkpt lat="45.84544" lon="1.22745">
        <ele>257.9</ele>
        <time>2024-11-12T10:07:23Z</time>
      </trkpt>
      <trkpt lat="45.84543" lon="1.22743">
        <ele>257.9</ele>
        <time>2024-11-12T10:07:24Z</time>
      </trkpt>
      <trkpt lat="45.84542" lon="1.22741">
        <ele>257.9</ele>
        <time>2024-11-12T10:07:25Z</time>
      </trkpt>
      <trkpt lat="45.84541" lon="1.22739">
        <ele>257.9</ele>
        <time>2024-11-12T10:07:26Z</time>
      </trkpt>
      <trkpt lat="45.84541" lon="1.22738">
        <ele>257.9</ele>
        <time>2024-11-12T10:07:27Z</time>
      </trkpt>
      <trkpt lat="45.8454" lon="1.22736">
        <ele>257.9</ele>
        <time>2024-11-12T10:07:28Z</time>
      </trkpt>
      <trkpt lat="45.8454" lon="1.22735">
        <ele>257.9</ele>
        <time>2024-11-12T10:07:29Z</time>
      </trkpt>
      <trkpt lat="45.84539" lon="1.22733">
        <ele>257.9</ele>
        <time>2024-11-12T10:07:30Z</time>
      </trkpt>
      <trkpt lat="45.84537" lon="1.2273">
        <ele>258</ele>
        <time>2024-11-12T10:07:31Z</time>
      </trkpt>
      <trkpt lat="45.84537" lon="1.22729">
        <ele>258</ele>
        <time>2024-11-12T10:07:32Z</time>
      </trkpt>
      <trkpt lat="45.84536" lon="1.22729">
        <ele>258</ele>
        <time>2024-11-12T10:07:33Z</time>
      </trkpt>
      <trkpt lat="45.84535" lon="1.22727">
        <ele>258</ele>
        <time>2024-11-12T10:07:34Z</time>
      </trkpt>
      <trkpt lat="45.84534" lon="1.22726">
        <ele>258</ele>
        <time>2024-11-12T10:07:35Z</time>
      </trkpt>
      <trkpt lat="45.84533" lon="1.22725">
        <ele>258</ele>
        <time>2024-11-12T10:07:36Z</time>
      </trkpt>
      <trkpt lat="45.84532" lon="1.22724">
        <ele>258</ele>
        <time>2024-11-12T10:07:37Z</time>
      </trkpt>
      <trkpt lat="45.84531" lon="1.22722">
        <ele>258</ele>
        <time>2024-11-12T10:07:38Z</time>
      </trkpt>
      <trkpt lat="45.8453" lon="1.22722">
        <ele>258</ele>
        <time>2024-11-12T10:07:39Z</time>
      </trkpt>
      <trkpt lat="45.84529" lon="1.22721">
        <ele>258.1</ele>
        <time>2024-11-12T10:07:40Z</time>
      </trkpt>
      <trkpt lat="45.84528" lon="1.2272">
        <ele>258.1</ele>
        <time>2024-11-12T10:07:41Z</time>
      </trkpt>
      <trkpt lat="45.84527" lon="1.22719">
        <ele>258.1</ele>
        <time>2024-11-12T10:07:42Z</time>
      </trkpt>
      <trkpt lat="45.84526" lon="1.22719">
        <ele>258.1</ele>
        <time>2024-11-12T10:07:43Z</time>
      </trkpt>
      <trkpt lat="45.84525" lon="1.22719">
        <ele>258.1</ele>
        <time>2024-11-12T10:07:44Z</time>
      </trkpt>
      <trkpt lat="45.84524" lon="1.22718">
        <ele>258.1</ele>
        <time>2024-11-12T10:07:45Z</time>
      </trkpt>
      <trkpt lat="45.84523" lon="1.22718">
        <ele>258.1</ele>
        <time>2024-11-12T10:07:46Z</time>
      </trkpt>
      <trkpt lat="45.84522" lon="1.22717">
        <ele>258.1</ele>
        <time>2024-11-12T10:07:47Z</time>
      </trkpt>
      <trkpt lat="45.84521" lon="1.22717">
        <ele>258.1</ele>
        <time>2024-11-12T10:07:48Z</time>
      </trkpt>
      <trkpt lat="45.8452" lon="1.22716">
        <ele>258.1</ele>
        <time>2024-11-12T10:07:49Z</time>
      </trkpt>
      <trkpt lat="45.84519" lon="1.22716">
        <ele>258.1</ele>
        <time>2024-11-12T10:07:50Z</time>
      </trkpt>
      <trkpt lat="45.84518" lon="1.22715">
        <ele>258.1</ele>
        <time>2024-11-12T10:07:51Z</time>
      </trkpt>
      <trkpt lat="45.84517" lon="1.22715">
        <ele>258.1</ele>
        <time>2024-11-12T10:07:52Z</time>
      </trkpt>
      <trkpt lat="45.84515" lon="1.22714">
        <ele>258.1</ele>
        <time>2024-11-12T10:07:53Z</time>
      </trkpt>
      <trkpt lat="45.84514" lon="1.22714">
        <ele>258.1</ele>
        <time>2024-11-12T10:07:54Z</time>
      </trkpt>
      <trkpt lat="45.84513" lon="1.22713">
        <ele>258.1</ele>
        <time>2024-11-12T10:07:55Z</time>
      </trkpt>
      <trkpt lat="45.84512" lon="1.22712">
        <ele>258.1</ele>
        <time>2024-11-12T10:07:56Z</time>
      </trkpt>
      <trkpt lat="45.84511" lon="1.22711">
        <ele>258.1</ele>
        <time>2024-11-12T10:07:57Z</time>
      </trkpt>
      <trkpt lat="45.8451" lon="1.2271">
        <ele>258.1</ele>
        <time>2024-11-12T10:07:58Z</time>
      </trkpt>
      <trkpt lat="45.8451" lon="1.22708">
        <ele>258.1</ele>
        <time>2024-11-12T10:07:59Z</time>
      </trkpt>
      <trkpt lat="45.84509" lon="1.22707">
        <ele>258.1</ele>
        <time>2024-11-12T10:08:00Z</time>
      </trkpt>
      <trkpt lat="45.84508" lon="1.22705">
        <ele>258.1</ele>
        <time>2024-11-12T10:08:01Z</time>
      </trkpt>
      <trkpt lat="45.84508" lon="1.22704">
        <ele>258</ele>
        <time>2024-11-12T10:08:02Z</time>
      </trkpt>
      <trkpt lat="45.84507" lon="1.22702">
        <ele>258</ele>
        <time>2024-11-12T10:08:03Z</time>
      </trkpt>
      <trkpt lat="45.84506" lon="1.22701">
        <ele>258</ele>
        <time>2024-11-12T10:08:04Z</time>
      </trkpt>
      <trkpt lat="45.84505" lon="1.22699">
        <ele>258</ele>
        <time>2024-11-12T10:08:05Z</time>
      </trkpt>
      <trkpt lat="45.84504" lon="1.22698">
        <ele>258</ele>
        <time>2024-11-12T10:08:06Z</time>
      </trkpt>
      <trkpt lat="45.84503" lon="1.22697">
        <ele>258</ele>
        <time>2024-11-12T10:08:07Z</time>
      </trkpt>
      <trkpt lat="45.84502" lon="1.22696">
        <ele>257.9</ele>
        <time>2024-11-12T10:08:08Z</time>
      </trkpt>
      <trkpt lat="45.84501" lon="1.22695">
        <ele>257.9</ele>
        <time>2024-11-12T10:08:09Z</time>
      </trkpt>
      <trkpt lat="45.845" lon="1.22694">
        <ele>257.9</ele>
        <time>2024-11-12T10:08:10Z</time>
      </trkpt>
      <trkpt lat="45.84499" lon="1.22693">
        <ele>257.9</ele>
        <time>2024-11-12T10:08:11Z</time>
      </trkpt>
      <trkpt lat="45.84498" lon="1.22692">
        <ele>257.9</ele>
        <time>2024-11-12T10:08:12Z</time>
      </trkpt>
      <trkpt lat="45.84497" lon="1.22691">
        <ele>257.9</ele>
        <time>2024-11-12T10:08:13Z</time>
      </trkpt>
      <trkpt lat="45.84496" lon="1.2269">
        <ele>257.8</ele>
        <time>2024-11-12T10:08:14Z</time>
      </trkpt>
      <trkpt lat="45.84495" lon="1.22689">
        <ele>257.8</ele>
        <time>2024-11-12T10:08:15Z</time>
      </trkpt>
      <trkpt lat="45.84494" lon="1.22689">
        <ele>257.8</ele>
        <time>2024-11-12T10:08:16Z</time>
      </trkpt>
      <trkpt lat="45.84492" lon="1.22688">
        <ele>257.8</ele>
        <time>2024-11-12T10:08:17Z</time>
      </trkpt>
      <trkpt lat="45.84491" lon="1.22688">
        <ele>257.8</ele>
        <time>2024-11-12T10:08:18Z</time>
      </trkpt>
      <trkpt lat="45.8449" lon="1.22687">
        <ele>257.8</ele>
        <time>2024-11-12T10:08:19Z</time>
      </trkpt>
      <trkpt lat="45.84488" lon="1.22686">
        <ele>257.8</ele>
        <time>2024-11-12T10:08:20Z</time>
      </trkpt>
      <trkpt lat="45.84487" lon="1.22686">
        <ele>257.8</ele>
        <time>2024-11-12T10:08:21Z</time>
      </trkpt>
      <trkpt lat="45.84487" lon="1.22686">
        <ele>257.8</ele>
        <time>2024-11-12T10:08:22Z</time>
      </trkpt>
      <trkpt lat="45.84484" lon="1.22685">
        <ele>257.8</ele>
        <time>2024-11-12T10:08:23Z</time>
      </trkpt>
      <trkpt lat="45.84483" lon="1.22685">
        <ele>257.8</ele>
        <time>2024-11-12T10:08:24Z</time>
      </trkpt>
      <trkpt lat="45.84483" lon="1.22685">
        <ele>257.7</ele>
        <time>2024-11-12T10:08:25Z</time>
      </trkpt>
      <trkpt lat="45.8448" lon="1.22684">
        <ele>257.7</ele>
        <time>2024-11-12T10:08:26Z</time>
      </trkpt>
      <trkpt lat="45.84479" lon="1.22683">
        <ele>257.7</ele>
        <time>2024-11-12T10:08:27Z</time>
      </trkpt>
      <trkpt lat="45.84479" lon="1.22683">
        <ele>257.7</ele>
        <time>2024-11-12T10:08:28Z</time>
      </trkpt>
      <trkpt lat="45.84477" lon="1.22683">
        <ele>257.7</ele>
        <time>2024-11-12T10:08:29Z</time>
      </trkpt>
      <trkpt lat="45.84475" lon="1.22682">
        <ele>257.7</ele>
        <time>2024-11-12T10:08:30Z</time>
      </trkpt>
      <trkpt lat="45.84474" lon="1.22682">
        <ele>257.7</ele>
        <time>2024-11-12T10:08:31Z</time>
      </trkpt>
      <trkpt lat="45.84473" lon="1.22682">
        <ele>257.7</ele>
        <time>2024-11-12T10:08:32Z</time>
      </trkpt>
      <trkpt lat="45.84472" lon="1.22681">
        <ele>257.7</ele>
        <time>2024-11-12T10:08:33Z</time>
      </trkpt>
      <trkpt lat="45.84471" lon="1.22681">
        <ele>257.7</ele>
        <time>2024-11-12T10:08:34Z</time>
      </trkpt>
      <trkpt lat="45.84469" lon="1.22681">
        <ele>257.7</ele>
        <time>2024-11-12T10:08:35Z</time>
      </trkpt>
      <trkpt lat="45.84467" lon="1.2268">
        <ele>257.7</ele>
        <time>2024-11-12T10:08:36Z</time>
      </trkpt>
      <trkpt lat="45.84466" lon="1.2268">
        <ele>257.7</ele>
        <time>2024-11-12T10:08:37Z</time>
      </trkpt>
      <trkpt lat="45.84465" lon="1.2268">
        <ele>257.7</ele>
        <time>2024-11-12T10:08:38Z</time>
      </trkpt>
      <trkpt lat="45.84464" lon="1.2268">
        <ele>257.7</ele>
        <time>2024-11-12T10:08:39Z</time>
      </trkpt>
      <trkpt lat="45.84462" lon="1.2268">
        <ele>257.7</ele>
        <time>2024-11-12T10:08:40Z</time>
      </trkpt>
      <trkpt lat="45.8446" lon="1.2268">
        <ele>257.7</ele>
        <time>2024-11-12T10:08:41Z</time>
      </trkpt>
      <trkpt lat="45.84459" lon="1.22679">
        <ele>257.7</ele>
        <time>2024-11-12T10:08:42Z</time>
      </trkpt>
      <trkpt lat="45.84458" lon="1.22679">
        <ele>257.7</ele>
        <time>2024-11-12T10:08:43Z</time>
      </trkpt>
      <trkpt lat="45.84457" lon="1.22679">
        <ele>257.7</ele>
        <time>2024-11-12T10:08:44Z</time>
      </trkpt>
      <trkpt lat="45.84455" lon="1.22679">
        <ele>257.7</ele>
        <time>2024-11-12T10:08:45Z</time>
      </trkpt>
      <trkpt lat="45.84453" lon="1.22679">
        <ele>257.7</ele>
        <time>2024-11-12T10:08:46Z</time>
      </trkpt>
      <trkpt lat="45.84452" lon="1.22679">
        <ele>257.7</ele>
        <time>2024-11-12T10:08:47Z</time>
      </trkpt>
      <trkpt lat="45.84451" lon="1.22679">
        <ele>257.7</ele>
        <time>2024-11-12T10:08:48Z</time>
      </trkpt>
      <trkpt lat="45.8445" lon="1.2268">
        <ele>257.7</ele>
        <time>2024-11-12T10:08:49Z</time>
      </trkpt>
      <trkpt lat="45.84448" lon="1.2268">
        <ele>257.7</ele>
        <time>2024-11-12T10:08:50Z</time>
      </trkpt>
      <trkpt lat="45.84446" lon="1.2268">
        <ele>257.7</ele>
        <time>2024-11-12T10:08:51Z</time>
      </trkpt>
      <trkpt lat="45.84445" lon="1.2268">
        <ele>257.7</ele>
        <time>2024-11-12T10:08:52Z</time>
      </trkpt>
      <trkpt lat="45.84444" lon="1.2268">
        <ele>257.7</ele>
        <time>2024-11-12T10:08:53Z</time>
      </trkpt>
      <trkpt lat="45.84442" lon="1.22679">
        <ele>257.7</ele>
        <time>2024-11-12T10:08:54Z</time>
      </trkpt>
      <trkpt lat="45.84441" lon="1.22679">
        <ele>257.6</ele>
        <time>2024-11-12T10:08:55Z</time>
      </trkpt>
      <trkpt lat="45.8444" lon="1.22679">
        <ele>257.6</ele>
        <time>2024-11-12T10:08:56Z</time>
      </trkpt>
      <trkpt lat="45.84438" lon="1.2268">
        <ele>257.6</ele>
        <time>2024-11-12T10:08:57Z</time>
      </trkpt>
      <trkpt lat="45.84437" lon="1.2268">
        <ele>257.6</ele>
        <time>2024-11-12T10:08:58Z</time>
      </trkpt>
      <trkpt lat="45.84435" lon="1.2268">
        <ele>257.6</ele>
        <time>2024-11-12T10:08:59Z</time>
      </trkpt>
      <trkpt lat="45.84434" lon="1.2268">
        <ele>257.6</ele>
        <time>2024-11-12T10:09:00Z</time>
      </trkpt>
      <trkpt lat="45.84433" lon="1.22681">
        <ele>257.6</ele>
        <time>2024-11-12T10:09:01Z</time>
      </trkpt>
      <trkpt lat="45.84431" lon="1.22681">
        <ele>257.5</ele>
        <time>2024-11-12T10:09:02Z</time>
      </trkpt>
      <trkpt lat="45.8443" lon="1.22681">
        <ele>257.5</ele>
        <time>2024-11-12T10:09:03Z</time>
      </trkpt>
      <trkpt lat="45.84429" lon="1.22681">
        <ele>257.5</ele>
        <time>2024-11-12T10:09:04Z</time>
      </trkpt>
      <trkpt lat="45.84428" lon="1.22681">
        <ele>257.5</ele>
        <time>2024-11-12T10:09:05Z</time>
      </trkpt>
      <trkpt lat="45.84426" lon="1.22681">
        <ele>257.5</ele>
        <time>2024-11-12T10:09:06Z</time>
      </trkpt>
      <trkpt lat="45.84424" lon="1.22681">
        <ele>257.4</ele>
        <time>2024-11-12T10:09:07Z</time>
      </trkpt>
      <trkpt lat="45.84423" lon="1.22681">
        <ele>257.4</ele>
        <time>2024-11-12T10:09:08Z</time>
      </trkpt>
      <trkpt lat="45.84422" lon="1.22681">
        <ele>257.4</ele>
        <time>2024-11-12T10:09:09Z</time>
      </trkpt>
      <trkpt lat="45.8442" lon="1.22681">
        <ele>257.4</ele>
        <time>2024-11-12T10:09:10Z</time>
      </trkpt>
      <trkpt lat="45.84419" lon="1.22682">
        <ele>257.4</ele>
        <time>2024-11-12T10:09:11Z</time>
      </trkpt>
      <trkpt lat="45.84418" lon="1.22682">
        <ele>257.3</ele>
        <time>2024-11-12T10:09:12Z</time>
      </trkpt>
      <trkpt lat="45.84417" lon="1.22683">
        <ele>257.3</ele>
        <time>2024-11-12T10:09:13Z</time>
      </trkpt>
      <trkpt lat="45.84416" lon="1.22683">
        <ele>257.3</ele>
        <time>2024-11-12T10:09:14Z</time>
      </trkpt>
      <trkpt lat="45.84414" lon="1.22684">
        <ele>257.3</ele>
        <time>2024-11-12T10:09:15Z</time>
      </trkpt>
      <trkpt lat="45.84413" lon="1.22684">
        <ele>257.2</ele>
        <time>2024-11-12T10:09:16Z</time>
      </trkpt>
      <trkpt lat="45.84411" lon="1.22683">
        <ele>257.2</ele>
        <time>2024-11-12T10:09:17Z</time>
      </trkpt>
      <trkpt lat="45.8441" lon="1.22683">
        <ele>257.2</ele>
        <time>2024-11-12T10:09:18Z</time>
      </trkpt>
      <trkpt lat="45.84409" lon="1.22681">
        <ele>257.2</ele>
        <time>2024-11-12T10:09:19Z</time>
      </trkpt>
      <trkpt lat="45.84408" lon="1.22679">
        <ele>257.1</ele>
        <time>2024-11-12T10:09:20Z</time>
      </trkpt>
      <trkpt lat="45.84407" lon="1.22678">
        <ele>257.1</ele>
        <time>2024-11-12T10:09:21Z</time>
      </trkpt>
      <trkpt lat="45.84406" lon="1.22677">
        <ele>257.1</ele>
        <time>2024-11-12T10:09:22Z</time>
      </trkpt>
      <trkpt lat="45.84405" lon="1.22675">
        <ele>257.1</ele>
        <time>2024-11-12T10:09:23Z</time>
      </trkpt>
      <trkpt lat="45.84405" lon="1.22674">
        <ele>257</ele>
        <time>2024-11-12T10:09:24Z</time>
      </trkpt>
      <trkpt lat="45.84403" lon="1.22671">
        <ele>257</ele>
        <time>2024-11-12T10:09:25Z</time>
      </trkpt>
      <trkpt lat="45.84403" lon="1.2267">
        <ele>257</ele>
        <time>2024-11-12T10:09:26Z</time>
      </trkpt>
      <trkpt lat="45.84402" lon="1.22669">
        <ele>257</ele>
        <time>2024-11-12T10:09:27Z</time>
      </trkpt>
      <trkpt lat="45.84401" lon="1.22667">
        <ele>256.9</ele>
        <time>2024-11-12T10:09:28Z</time>
      </trkpt>
      <trkpt lat="45.844" lon="1.22666">
        <ele>256.9</ele>
        <time>2024-11-12T10:09:29Z</time>
      </trkpt>
      <trkpt lat="45.84399" lon="1.22664">
        <ele>256.9</ele>
        <time>2024-11-12T10:09:30Z</time>
      </trkpt>
      <trkpt lat="45.84398" lon="1.22663">
        <ele>256.9</ele>
        <time>2024-11-12T10:09:31Z</time>
      </trkpt>
      <trkpt lat="45.84397" lon="1.22662">
        <ele>256.8</ele>
        <time>2024-11-12T10:09:32Z</time>
      </trkpt>
      <trkpt lat="45.84396" lon="1.2266">
        <ele>256.8</ele>
        <time>2024-11-12T10:09:33Z</time>
      </trkpt>
      <trkpt lat="45.84395" lon="1.22659">
        <ele>256.8</ele>
        <time>2024-11-12T10:09:34Z</time>
      </trkpt>
      <trkpt lat="45.84394" lon="1.22657">
        <ele>256.7</ele>
        <time>2024-11-12T10:09:35Z</time>
      </trkpt>
      <trkpt lat="45.84394" lon="1.22656">
        <ele>256.7</ele>
        <time>2024-11-12T10:09:36Z</time>
      </trkpt>
      <trkpt lat="45.84393" lon="1.22654">
        <ele>256.7</ele>
        <time>2024-11-12T10:09:37Z</time>
      </trkpt>
      <trkpt lat="45.84392" lon="1.22653">
        <ele>256.7</ele>
        <time>2024-11-12T10:09:38Z</time>
      </trkpt>
      <trkpt lat="45.84391" lon="1.22651">
        <ele>256.7</ele>
        <time>2024-11-12T10:09:39Z</time>
      </trkpt>
      <trkpt lat="45.8439" lon="1.22649">
        <ele>256.6</ele>
        <time>2024-11-12T10:09:40Z</time>
      </trkpt>
      <trkpt lat="45.8439" lon="1.22649">
        <ele>256.6</ele>
        <time>2024-11-12T10:09:41Z</time>
      </trkpt>
      <trkpt lat="45.84389" lon="1.22648">
        <ele>256.6</ele>
        <time>2024-11-12T10:09:42Z</time>
      </trkpt>
      <trkpt lat="45.84388" lon="1.22646">
        <ele>256.6</ele>
        <time>2024-11-12T10:09:43Z</time>
      </trkpt>
      <trkpt lat="45.84388" lon="1.22644">
        <ele>256.6</ele>
        <time>2024-11-12T10:09:44Z</time>
      </trkpt>
      <trkpt lat="45.84386" lon="1.22642">
        <ele>256.5</ele>
        <time>2024-11-12T10:09:45Z</time>
      </trkpt>
      <trkpt lat="45.84386" lon="1.22641">
        <ele>256.5</ele>
        <time>2024-11-12T10:09:46Z</time>
      </trkpt>
      <trkpt lat="45.84385" lon="1.2264">
        <ele>256.5</ele>
        <time>2024-11-12T10:09:47Z</time>
      </trkpt>
      <trkpt lat="45.84384" lon="1.22638">
        <ele>256.5</ele>
        <time>2024-11-12T10:09:48Z</time>
      </trkpt>
      <trkpt lat="45.84384" lon="1.22636">
        <ele>256.5</ele>
        <time>2024-11-12T10:09:49Z</time>
      </trkpt>
      <trkpt lat="45.84384" lon="1.22634">
        <ele>256.5</ele>
        <time>2024-11-12T10:09:50Z</time>
      </trkpt>
      <trkpt lat="45.84383" lon="1.22631">
        <ele>256.4</ele>
        <time>2024-11-12T10:09:51Z</time>
      </trkpt>
      <trkpt lat="45.84383" lon="1.2263">
        <ele>256.4</ele>
        <time>2024-11-12T10:09:52Z</time>
      </trkpt>
      <trkpt lat="45.84382" lon="1.22629">
        <ele>256.4</ele>
        <time>2024-11-12T10:09:53Z</time>
      </trkpt>
      <trkpt lat="45.84381" lon="1.22626">
        <ele>256.4</ele>
        <time>2024-11-12T10:09:54Z</time>
      </trkpt>
      <trkpt lat="45.84381" lon="1.22625">
        <ele>256.4</ele>
        <time>2024-11-12T10:09:55Z</time>
      </trkpt>
      <trkpt lat="45.8438" lon="1.22624">
        <ele>256.4</ele>
        <time>2024-11-12T10:09:56Z</time>
      </trkpt>
      <trkpt lat="45.84379" lon="1.22621">
        <ele>256.3</ele>
        <time>2024-11-12T10:09:57Z</time>
      </trkpt>
      <trkpt lat="45.84379" lon="1.2262">
        <ele>256.3</ele>
        <time>2024-11-12T10:09:58Z</time>
      </trkpt>
      <trkpt lat="45.84378" lon="1.22619">
        <ele>256.3</ele>
        <time>2024-11-12T10:09:59Z</time>
      </trkpt>
      <trkpt lat="45.84377" lon="1.22617">
        <ele>256.3</ele>
        <time>2024-11-12T10:10:00Z</time>
      </trkpt>
      <trkpt lat="45.84376" lon="1.22616">
        <ele>256.3</ele>
        <time>2024-11-12T10:10:01Z</time>
      </trkpt>
      <trkpt lat="45.84375" lon="1.22615">
        <ele>256.3</ele>
        <time>2024-11-12T10:10:02Z</time>
      </trkpt>
      <trkpt lat="45.84374" lon="1.22614">
        <ele>256.3</ele>
        <time>2024-11-12T10:10:03Z</time>
      </trkpt>
      <trkpt lat="45.84371" lon="1.22612">
        <ele>256.3</ele>
        <time>2024-11-12T10:10:04Z</time>
      </trkpt>
      <trkpt lat="45.8437" lon="1.22612">
        <ele>256.3</ele>
        <time>2024-11-12T10:10:05Z</time>
      </trkpt>
      <trkpt lat="45.84368" lon="1.22612">
        <ele>256.3</ele>
        <time>2024-11-12T10:10:06Z</time>
      </trkpt>
      <trkpt lat="45.84367" lon="1.22612">
        <ele>256.3</ele>
        <time>2024-11-12T10:10:07Z</time>
      </trkpt>
      <trkpt lat="45.84366" lon="1.22612">
        <ele>256.3</ele>
        <time>2024-11-12T10:10:08Z</time>
      </trkpt>
      <trkpt lat="45.84364" lon="1.22612">
        <ele>256.2</ele>
        <time>2024-11-12T10:10:09Z</time>
      </trkpt>
      <trkpt lat="45.84363" lon="1.22612">
        <ele>256.2</ele>
        <time>2024-11-12T10:10:10Z</time>
      </trkpt>
      <trkpt lat="45.84362" lon="1.22612">
        <ele>256.2</ele>
        <time>2024-11-12T10:10:11Z</time>
      </trkpt>
      <trkpt lat="45.84361" lon="1.22613">
        <ele>256.2</ele>
        <time>2024-11-12T10:10:12Z</time>
      </trkpt>
      <trkpt lat="45.8436" lon="1.22613">
        <ele>256.2</ele>
        <time>2024-11-12T10:10:13Z</time>
      </trkpt>
      <trkpt lat="45.84358" lon="1.22614">
        <ele>256.2</ele>
        <time>2024-11-12T10:10:14Z</time>
      </trkpt>
      <trkpt lat="45.84357" lon="1.22614">
        <ele>256.2</ele>
        <time>2024-11-12T10:10:15Z</time>
      </trkpt>
      <trkpt lat="45.84355" lon="1.22615">
        <ele>256.2</ele>
        <time>2024-11-12T10:10:16Z</time>
      </trkpt>
      <trkpt lat="45.84354" lon="1.22615">
        <ele>256.2</ele>
        <time>2024-11-12T10:10:17Z</time>
      </trkpt>
      <trkpt lat="45.84353" lon="1.22615">
        <ele>256.2</ele>
        <time>2024-11-12T10:10:18Z</time>
      </trkpt>
      <trkpt lat="45.84352" lon="1.22615">
        <ele>256.2</ele>
        <time>2024-11-12T10:10:19Z</time>
      </trkpt>
      <trkpt lat="45.8435" lon="1.22615">
        <ele>256.2</ele>
        <time>2024-11-12T10:10:20Z</time>
      </trkpt>
      <trkpt lat="45.84349" lon="1.22616">
        <ele>256.2</ele>
        <time>2024-11-12T10:10:21Z</time>
      </trkpt>
      <trkpt lat="45.84347" lon="1.22616">
        <ele>256.2</ele>
        <time>2024-11-12T10:10:22Z</time>
      </trkpt>
      <trkpt lat="45.84346" lon="1.22617">
        <ele>256.2</ele>
        <time>2024-11-12T10:10:23Z</time>
      </trkpt>
      <trkpt lat="45.84346" lon="1.22618">
        <ele>256.2</ele>
        <time>2024-11-12T10:10:24Z</time>
      </trkpt>
      <trkpt lat="45.84346" lon="1.2262">
        <ele>256.1</ele>
        <time>2024-11-12T10:10:25Z</time>
      </trkpt>
      <trkpt lat="45.84346" lon="1.22621">
        <ele>256.1</ele>
        <time>2024-11-12T10:10:26Z</time>
      </trkpt>
      <trkpt lat="45.84345" lon="1.22622">
        <ele>256.1</ele>
        <time>2024-11-12T10:10:27Z</time>
      </trkpt>
      <trkpt lat="45.84343" lon="1.22622">
        <ele>256.1</ele>
        <time>2024-11-12T10:10:28Z</time>
      </trkpt>
      <trkpt lat="45.84342" lon="1.22623">
        <ele>256.1</ele>
        <time>2024-11-12T10:10:29Z</time>
      </trkpt>
      <trkpt lat="45.84341" lon="1.22622">
        <ele>256.1</ele>
        <time>2024-11-12T10:10:30Z</time>
      </trkpt>
      <trkpt lat="45.84339" lon="1.22622">
        <ele>256.1</ele>
        <time>2024-11-12T10:10:31Z</time>
      </trkpt>
      <trkpt lat="45.84338" lon="1.22622">
        <ele>256.1</ele>
        <time>2024-11-12T10:10:32Z</time>
      </trkpt>
      <trkpt lat="45.84335" lon="1.22622">
        <ele>256</ele>
        <time>2024-11-12T10:10:33Z</time>
      </trkpt>
      <trkpt lat="45.84335" lon="1.22621">
        <ele>256</ele>
        <time>2024-11-12T10:10:34Z</time>
      </trkpt>
      <trkpt lat="45.84334" lon="1.22621">
        <ele>256</ele>
        <time>2024-11-12T10:10:35Z</time>
      </trkpt>
      <trkpt lat="45.84332" lon="1.2262">
        <ele>256</ele>
        <time>2024-11-12T10:10:36Z</time>
      </trkpt>
      <trkpt lat="45.84331" lon="1.2262">
        <ele>256</ele>
        <time>2024-11-12T10:10:37Z</time>
      </trkpt>
      <trkpt lat="45.8433" lon="1.22619">
        <ele>256</ele>
        <time>2024-11-12T10:10:38Z</time>
      </trkpt>
      <trkpt lat="45.84328" lon="1.22618">
        <ele>256</ele>
        <time>2024-11-12T10:10:39Z</time>
      </trkpt>
      <trkpt lat="45.84328" lon="1.22618">
        <ele>256</ele>
        <time>2024-11-12T10:10:40Z</time>
      </trkpt>
      <trkpt lat="45.84327" lon="1.22618">
        <ele>256</ele>
        <time>2024-11-12T10:10:41Z</time>
      </trkpt>
      <trkpt lat="45.84326" lon="1.22617">
        <ele>256</ele>
        <time>2024-11-12T10:10:42Z</time>
      </trkpt>
      <trkpt lat="45.84325" lon="1.22617">
        <ele>256</ele>
        <time>2024-11-12T10:10:43Z</time>
      </trkpt>
      <trkpt lat="45.84324" lon="1.22617">
        <ele>255.9</ele>
        <time>2024-11-12T10:10:44Z</time>
      </trkpt>
      <trkpt lat="45.84323" lon="1.22616">
        <ele>255.9</ele>
        <time>2024-11-12T10:10:45Z</time>
      </trkpt>
      <trkpt lat="45.84322" lon="1.22616">
        <ele>255.9</ele>
        <time>2024-11-12T10:10:46Z</time>
      </trkpt>
      <trkpt lat="45.84321" lon="1.22616">
        <ele>255.9</ele>
        <time>2024-11-12T10:10:47Z</time>
      </trkpt>
      <trkpt lat="45.84319" lon="1.22615">
        <ele>255.9</ele>
        <time>2024-11-12T10:10:48Z</time>
      </trkpt>
      <trkpt lat="45.84318" lon="1.22615">
        <ele>255.9</ele>
        <time>2024-11-12T10:10:49Z</time>
      </trkpt>
      <trkpt lat="45.84317" lon="1.22615">
        <ele>255.9</ele>
        <time>2024-11-12T10:10:50Z</time>
      </trkpt>
      <trkpt lat="45.84316" lon="1.22614">
        <ele>255.9</ele>
        <time>2024-11-12T10:10:51Z</time>
      </trkpt>
      <trkpt lat="45.84315" lon="1.22614">
        <ele>255.9</ele>
        <time>2024-11-12T10:10:52Z</time>
      </trkpt>
      <trkpt lat="45.84314" lon="1.22613">
        <ele>255.9</ele>
        <time>2024-11-12T10:10:53Z</time>
      </trkpt>
      <trkpt lat="45.84313" lon="1.22613">
        <ele>255.9</ele>
        <time>2024-11-12T10:10:54Z</time>
      </trkpt>
      <trkpt lat="45.84312" lon="1.22613">
        <ele>255.8</ele>
        <time>2024-11-12T10:10:55Z</time>
      </trkpt>
      <trkpt lat="45.84312" lon="1.22615">
        <ele>255.8</ele>
        <time>2024-11-12T10:10:56Z</time>
      </trkpt>
      <trkpt lat="45.84312" lon="1.22616">
        <ele>255.8</ele>
        <time>2024-11-12T10:10:57Z</time>
      </trkpt>
      <trkpt lat="45.84311" lon="1.22617">
        <ele>255.8</ele>
        <time>2024-11-12T10:10:58Z</time>
      </trkpt>
      <trkpt lat="45.84312" lon="1.22616">
        <ele>255.8</ele>
        <time>2024-11-12T10:10:59Z</time>
      </trkpt>
      <trkpt lat="45.84312" lon="1.22616">
        <ele>255.8</ele>
        <time>2024-11-12T10:11:00Z</time>
      </trkpt>
      <trkpt lat="45.84312" lon="1.22615">
        <ele>255.8</ele>
        <time>2024-11-12T10:11:01Z</time>
      </trkpt>
      <trkpt lat="45.84312" lon="1.22615">
        <ele>255.8</ele>
        <time>2024-11-12T10:11:02Z</time>
      </trkpt>
      <trkpt lat="45.84313" lon="1.22614">
        <ele>255.8</ele>
        <time>2024-11-12T10:11:03Z</time>
      </trkpt>
      <trkpt lat="45.84313" lon="1.22614">
        <ele>255.8</ele>
        <time>2024-11-12T10:11:04Z</time>
      </trkpt>
      <trkpt lat="45.84313" lon="1.22614">
        <ele>255.8</ele>
        <time>2024-11-12T10:11:05Z</time>
      </trkpt>
      <trkpt lat="45.84313" lon="1.22614">
        <ele>255.8</ele>
        <time>2024-11-12T10:11:06Z</time>
      </trkpt>
      <trkpt lat="45.84313" lon="1.22614">
        <ele>255.8</ele>
        <time>2024-11-12T10:11:07Z</time>
      </trkpt>
      <trkpt lat="45.84313" lon="1.22614">
        <ele>255.8</ele>
        <time>2024-11-12T10:11:08Z</time>
      </trkpt>
      <trkpt lat="45.84313" lon="1.22614">
        <ele>255.8</ele>
        <time>2024-11-12T10:11:09Z</time>
      </trkpt>
      <trkpt lat="45.84313" lon="1.22614">
        <ele>255.8</ele>
        <time>2024-11-12T10:11:10Z</time>
      </trkpt>
      <trkpt lat="45.84313" lon="1.22615">
        <ele>255.8</ele>
        <time>2024-11-12T10:11:11Z</time>
      </trkpt>
      <trkpt lat="45.84314" lon="1.22615">
        <ele>255.8</ele>
        <time>2024-11-12T10:11:12Z</time>
      </trkpt>
      <trkpt lat="45.84314" lon="1.22615">
        <ele>255.8</ele>
        <time>2024-11-12T10:11:13Z</time>
      </trkpt>
      <trkpt lat="45.84314" lon="1.22615">
        <ele>255.8</ele>
        <time>2024-11-12T10:11:14Z</time>
      </trkpt>
      <trkpt lat="45.84314" lon="1.22615">
        <ele>255.8</ele>
        <time>2024-11-12T10:11:15Z</time>
      </trkpt>
      <trkpt lat="45.84314" lon="1.22615">
        <ele>255.8</ele>
        <time>2024-11-12T10:11:16Z</time>
      </trkpt>
      <trkpt lat="45.84314" lon="1.22615">
        <ele>255.8</ele>
        <time>2024-11-12T10:11:17Z</time>
      </trkpt>
      <trkpt lat="45.84314" lon="1.22614">
        <ele>255.8</ele>
        <time>2024-11-12T10:11:18Z</time>
      </trkpt>
      <trkpt lat="45.84314" lon="1.22614">
        <ele>255.8</ele>
        <time>2024-11-12T10:11:19Z</time>
      </trkpt>
      <trkpt lat="45.84314" lon="1.22614">
        <ele>255.8</ele>
        <time>2024-11-12T10:11:20Z</time>
      </trkpt>
      <trkpt lat="45.84314" lon="1.22614">
        <ele>255.8</ele>
        <time>2024-11-12T10:11:21Z</time>
      </trkpt>
      <trkpt lat="45.84314" lon="1.22614">
        <ele>255.8</ele>
        <time>2024-11-12T10:11:22Z</time>
      </trkpt>
      <trkpt lat="45.84314" lon="1.22614">
        <ele>255.8</ele>
        <time>2024-11-12T10:11:23Z</time>
      </trkpt>
      <trkpt lat="45.84314" lon="1.22614">
        <ele>255.8</ele>
        <time>2024-11-12T10:11:24Z</time>
      </trkpt>
      <trkpt lat="45.84314" lon="1.22614">
        <ele>255.8</ele>
        <time>2024-11-12T10:11:25Z</time>
      </trkpt>
      <trkpt lat="45.84314" lon="1.22614">
        <ele>255.8</ele>
        <time>2024-11-12T10:11:26Z</time>
      </trkpt>
      <trkpt lat="45.84314" lon="1.22614">
        <ele>255.8</ele>
        <time>2024-11-12T10:11:27Z</time>
      </trkpt>
      <trkpt lat="45.84314" lon="1.22614">
        <ele>255.8</ele>
        <time>2024-11-12T10:11:28Z</time>
      </trkpt>
      <trkpt lat="45.84314" lon="1.22614">
        <ele>255.8</ele>
        <time>2024-11-12T10:11:29Z</time>
      </trkpt>
      <trkpt lat="45.84314" lon="1.22614">
        <ele>255.8</ele>
        <time>2024-11-12T10:11:30Z</time>
      </trkpt>
      <trkpt lat="45.84314" lon="1.22614">
        <ele>255.8</ele>
        <time>2024-11-12T10:11:31Z</time>
      </trkpt>
      <trkpt lat="45.84314" lon="1.22614">
        <ele>255.8</ele>
        <time>2024-11-12T10:11:32Z</time>
      </trkpt>
      <trkpt lat="45.84314" lon="1.22614">
        <ele>255.8</ele>
        <time>2024-11-12T10:11:33Z</time>
      </trkpt>
      <trkpt lat="45.84314" lon="1.22614">
        <ele>255.8</ele>
        <time>2024-11-12T10:11:34Z</time>
      </trkpt>
      <trkpt lat="45.84314" lon="1.22614">
        <ele>255.8</ele>
        <time>2024-11-12T10:11:35Z</time>
      </trkpt>
      <trkpt lat="45.84314" lon="1.22614">
        <ele>255.8</ele>
        <time>2024-11-12T10:11:36Z</time>
      </trkpt>
      <trkpt lat="45.84314" lon="1.22614">
        <ele>255.8</ele>
        <time>2024-11-12T10:11:37Z</time>
      </trkpt>
      <trkpt lat="45.84314" lon="1.22614">
        <ele>255.8</ele>
        <time>2024-11-12T10:11:38Z</time>
      </trkpt>
      <trkpt lat="45.84314" lon="1.22614">
        <ele>255.8</ele>
        <time>2024-11-12T10:11:39Z</time>
      </trkpt>
      <trkpt lat="45.84314" lon="1.22614">
        <ele>255.8</ele>
        <time>2024-11-12T10:11:40Z</time>
      </trkpt>
      <trkpt lat="45.84314" lon="1.22614">
        <ele>255.8</ele>
        <time>2024-11-12T10:11:41Z</time>
      </trkpt>
      <trkpt lat="45.84314" lon="1.22614">
        <ele>255.8</ele>
        <time>2024-11-12T10:11:42Z</time>
      </trkpt>
      <trkpt lat="45.84314" lon="1.22614">
        <ele>255.8</ele>
        <time>2024-11-12T10:11:43Z</time>
      </trkpt>
      <trkpt lat="45.84314" lon="1.22613">
        <ele>255.8</ele>
        <time>2024-11-12T10:11:44Z</time>
      </trkpt>
      <trkpt lat="45.84314" lon="1.22613">
        <ele>255.8</ele>
        <time>2024-11-12T10:11:45Z</time>
      </trkpt>
      <trkpt lat="45.84314" lon="1.22613">
        <ele>255.8</ele>
        <time>2024-11-12T10:11:46Z</time>
      </trkpt>
      <trkpt lat="45.84314" lon="1.22612">
        <ele>255.8</ele>
        <time>2024-11-12T10:11:47Z</time>
      </trkpt>
      <trkpt lat="45.84314" lon="1.22612">
        <ele>255.8</ele>
        <time>2024-11-12T10:11:48Z</time>
      </trkpt>
      <trkpt lat="45.84315" lon="1.22612">
        <ele>255.8</ele>
        <time>2024-11-12T10:11:49Z</time>
      </trkpt>
      <trkpt lat="45.84315" lon="1.22612">
        <ele>255.8</ele>
        <time>2024-11-12T10:11:50Z</time>
      </trkpt>
      <trkpt lat="45.84315" lon="1.22613">
        <ele>255.8</ele>
        <time>2024-11-12T10:11:51Z</time>
      </trkpt>
      <trkpt lat="45.84315" lon="1.22613">
        <ele>255.8</ele>
        <time>2024-11-12T10:11:52Z</time>
      </trkpt>
      <trkpt lat="45.84315" lon="1.22613">
        <ele>255.8</ele>
        <time>2024-11-12T10:11:53Z</time>
      </trkpt>
      <trkpt lat="45.84315" lon="1.22613">
        <ele>255.8</ele>
        <time>2024-11-12T10:11:54Z</time>
      </trkpt>
      <trkpt lat="45.84315" lon="1.22613">
        <ele>255.8</ele>
        <time>2024-11-12T10:11:55Z</time>
      </trkpt>
      <trkpt lat="45.84315" lon="1.22613">
        <ele>255.8</ele>
        <time>2024-11-12T10:11:56Z</time>
      </trkpt>
      <trkpt lat="45.84315" lon="1.22613">
        <ele>255.8</ele>
        <time>2024-11-12T10:11:57Z</time>
      </trkpt>
      <trkpt lat="45.84314" lon="1.22613">
        <ele>255.8</ele>
        <time>2024-11-12T10:11:58Z</time>
      </trkpt>
      <trkpt lat="45.84314" lon="1.22613">
        <ele>255.8</ele>
        <time>2024-11-12T10:11:59Z</time>
      </trkpt>
      <trkpt lat="45.84314" lon="1.22613">
        <ele>255.8</ele>
        <time>2024-11-12T10:12:00Z</time>
      </trkpt>
      <trkpt lat="45.84314" lon="1.22614">
        <ele>255.8</ele>
        <time>2024-11-12T10:12:01Z</time>
      </trkpt>
      <trkpt lat="45.84315" lon="1.22614">
        <ele>255.8</ele>
        <time>2024-11-12T10:12:02Z</time>
      </trkpt>
      <trkpt lat="45.84315" lon="1.22614">
        <ele>255.8</ele>
        <time>2024-11-12T10:12:03Z</time>
      </trkpt>
      <trkpt lat="45.84315" lon="1.22614">
        <ele>255.8</ele>
        <time>2024-11-12T10:12:04Z</time>
      </trkpt>
      <trkpt lat="45.84315" lon="1.22614">
        <ele>255.8</ele>
        <time>2024-11-12T10:12:05Z</time>
      </trkpt>
      <trkpt lat="45.84317" lon="1.22613">
        <ele>255.8</ele>
        <time>2024-11-12T10:12:06Z</time>
      </trkpt>
      <trkpt lat="45.84317" lon="1.22613">
        <ele>255.8</ele>
        <time>2024-11-12T10:12:07Z</time>
      </trkpt>
      <trkpt lat="45.84318" lon="1.22613">
        <ele>255.8</ele>
        <time>2024-11-12T10:12:08Z</time>
      </trkpt>
      <trkpt lat="45.84318" lon="1.22613">
        <ele>255.7</ele>
        <time>2024-11-12T10:12:09Z</time>
      </trkpt>
      <trkpt lat="45.84319" lon="1.22613">
        <ele>255.7</ele>
        <time>2024-11-12T10:12:10Z</time>
      </trkpt>
      <trkpt lat="45.84319" lon="1.22614">
        <ele>255.7</ele>
        <time>2024-11-12T10:12:11Z</time>
      </trkpt>
      <trkpt lat="45.84319" lon="1.22614">
        <ele>255.7</ele>
        <time>2024-11-12T10:12:12Z</time>
      </trkpt>
      <trkpt lat="45.8432" lon="1.22614">
        <ele>255.7</ele>
        <time>2024-11-12T10:12:13Z</time>
      </trkpt>
      <trkpt lat="45.8432" lon="1.22614">
        <ele>255.7</ele>
        <time>2024-11-12T10:12:14Z</time>
      </trkpt>
      <trkpt lat="45.8432" lon="1.22614">
        <ele>255.7</ele>
        <time>2024-11-12T10:12:15Z</time>
      </trkpt>
      <trkpt lat="45.84321" lon="1.22614">
        <ele>255.7</ele>
        <time>2024-11-12T10:12:16Z</time>
      </trkpt>
      <trkpt lat="45.84321" lon="1.22614">
        <ele>255.7</ele>
        <time>2024-11-12T10:12:17Z</time>
      </trkpt>
      <trkpt lat="45.84321" lon="1.22614">
        <ele>255.7</ele>
        <time>2024-11-12T10:12:18Z</time>
      </trkpt>
      <trkpt lat="45.84321" lon="1.22613">
        <ele>255.7</ele>
        <time>2024-11-12T10:12:19Z</time>
      </trkpt>
      <trkpt lat="45.8432" lon="1.22613">
        <ele>255.7</ele>
        <time>2024-11-12T10:12:20Z</time>
      </trkpt>
      <trkpt lat="45.8432" lon="1.22613">
        <ele>255.7</ele>
        <time>2024-11-12T10:12:21Z</time>
      </trkpt>
      <trkpt lat="45.84319" lon="1.22613">
        <ele>255.7</ele>
        <time>2024-11-12T10:12:22Z</time>
      </trkpt>
      <trkpt lat="45.84319" lon="1.22613">
        <ele>255.7</ele>
        <time>2024-11-12T10:12:23Z</time>
      </trkpt>
      <trkpt lat="45.8432" lon="1.22613">
        <ele>255.7</ele>
        <time>2024-11-12T10:12:24Z</time>
      </trkpt>
      <trkpt lat="45.8432" lon="1.22613">
        <ele>255.7</ele>
        <time>2024-11-12T10:12:25Z</time>
      </trkpt>
      <trkpt lat="45.84319" lon="1.22612">
        <ele>255.7</ele>
        <time>2024-11-12T10:12:26Z</time>
      </trkpt>
      <trkpt lat="45.8432" lon="1.22612">
        <ele>255.7</ele>
        <time>2024-11-12T10:12:27Z</time>
      </trkpt>
      <trkpt lat="45.8432" lon="1.22611">
        <ele>255.7</ele>
        <time>2024-11-12T10:12:28Z</time>
      </trkpt>
      <trkpt lat="45.84319" lon="1.22611">
        <ele>255.7</ele>
        <time>2024-11-12T10:12:29Z</time>
      </trkpt>
      <trkpt lat="45.84319" lon="1.22611">
        <ele>255.7</ele>
        <time>2024-11-12T10:12:30Z</time>
      </trkpt>
      <trkpt lat="45.84319" lon="1.22611">
        <ele>255.7</ele>
        <time>2024-11-12T10:12:31Z</time>
      </trkpt>
      <trkpt lat="45.84319" lon="1.22611">
        <ele>255.7</ele>
        <time>2024-11-12T10:12:32Z</time>
      </trkpt>
      <trkpt lat="45.84319" lon="1.22611">
        <ele>255.7</ele>
        <time>2024-11-12T10:12:33Z</time>
      </trkpt>
      <trkpt lat="45.8432" lon="1.22611">
        <ele>255.7</ele>
        <time>2024-11-12T10:12:34Z</time>
      </trkpt>
      <trkpt lat="45.8432" lon="1.22611">
        <ele>255.7</ele>
        <time>2024-11-12T10:12:35Z</time>
      </trkpt>
      <trkpt lat="45.8432" lon="1.2261">
        <ele>255.7</ele>
        <time>2024-11-12T10:12:36Z</time>
      </trkpt>
      <trkpt lat="45.8432" lon="1.2261">
        <ele>255.7</ele>
        <time>2024-11-12T10:12:37Z</time>
      </trkpt>
      <trkpt lat="45.8432" lon="1.2261">
        <ele>255.7</ele>
        <time>2024-11-12T10:12:38Z</time>
      </trkpt>
      <trkpt lat="45.8432" lon="1.22609">
        <ele>255.7</ele>
        <time>2024-11-12T10:12:39Z</time>
      </trkpt>
      <trkpt lat="45.8432" lon="1.2261">
        <ele>255.7</ele>
        <time>2024-11-12T10:12:40Z</time>
      </trkpt>
      <trkpt lat="45.8432" lon="1.2261">
        <ele>255.7</ele>
        <time>2024-11-12T10:12:41Z</time>
      </trkpt>
      <trkpt lat="45.8432" lon="1.2261">
        <ele>255.7</ele>
        <time>2024-11-12T10:12:42Z</time>
      </trkpt>
      <trkpt lat="45.84319" lon="1.2261">
        <ele>255.7</ele>
        <time>2024-11-12T10:12:43Z</time>
      </trkpt>
      <trkpt lat="45.84319" lon="1.2261">
        <ele>255.7</ele>
        <time>2024-11-12T10:12:44Z</time>
      </trkpt>
      <trkpt lat="45.8432" lon="1.2261">
        <ele>255.7</ele>
        <time>2024-11-12T10:12:45Z</time>
      </trkpt>
      <trkpt lat="45.8432" lon="1.2261">
        <ele>255.7</ele>
        <time>2024-11-12T10:12:46Z</time>
      </trkpt>
      <trkpt lat="45.8432" lon="1.2261">
        <ele>255.7</ele>
        <time>2024-11-12T10:12:47Z</time>
      </trkpt>
      <trkpt lat="45.8432" lon="1.2261">
        <ele>255.7</ele>
        <time>2024-11-12T10:12:48Z</time>
      </trkpt>
      <trkpt lat="45.84319" lon="1.2261">
        <ele>255.7</ele>
        <time>2024-11-12T10:12:49Z</time>
      </trkpt>
      <trkpt lat="45.84319" lon="1.2261">
        <ele>255.7</ele>
        <time>2024-11-12T10:12:50Z</time>
      </trkpt>
      <trkpt lat="45.84319" lon="1.2261">
        <ele>255.7</ele>
        <time>2024-11-12T10:12:51Z</time>
      </trkpt>
      <trkpt lat="45.84319" lon="1.2261">
        <ele>255.7</ele>
        <time>2024-11-12T10:12:52Z</time>
      </trkpt>
      <trkpt lat="45.84319" lon="1.2261">
        <ele>255.7</ele>
        <time>2024-11-12T10:12:53Z</time>
      </trkpt>
      <trkpt lat="45.84318" lon="1.2261">
        <ele>255.7</ele>
        <time>2024-11-12T10:12:54Z</time>
      </trkpt>
      <trkpt lat="45.84318" lon="1.2261">
        <ele>255.7</ele>
        <time>2024-11-12T10:12:55Z</time>
      </trkpt>
      <trkpt lat="45.84318" lon="1.2261">
        <ele>255.7</ele>
        <time>2024-11-12T10:12:56Z</time>
      </trkpt>
      <trkpt lat="45.84318" lon="1.2261">
        <ele>255.7</ele>
        <time>2024-11-12T10:12:57Z</time>
      </trkpt>
      <trkpt lat="45.84318" lon="1.2261">
        <ele>255.7</ele>
        <time>2024-11-12T10:12:58Z</time>
      </trkpt>
      <trkpt lat="45.84318" lon="1.2261">
        <ele>255.7</ele>
        <time>2024-11-12T10:12:59Z</time>
      </trkpt>
      <trkpt lat="45.84318" lon="1.2261">
        <ele>255.7</ele>
        <time>2024-11-12T10:13:00Z</time>
      </trkpt>
      <trkpt lat="45.84318" lon="1.22611">
        <ele>255.7</ele>
        <time>2024-11-12T10:13:01Z</time>
      </trkpt>
      <trkpt lat="45.84318" lon="1.22611">
        <ele>255.7</ele>
        <time>2024-11-12T10:13:02Z</time>
      </trkpt>
      <trkpt lat="45.84318" lon="1.22611">
        <ele>255.7</ele>
        <time>2024-11-12T10:13:03Z</time>
      </trkpt>
      <trkpt lat="45.84318" lon="1.22611">
        <ele>255.7</ele>
        <time>2024-11-12T10:13:04Z</time>
      </trkpt>
      <trkpt lat="45.84318" lon="1.22611">
        <ele>255.7</ele>
        <time>2024-11-12T10:13:05Z</time>
      </trkpt>
      <trkpt lat="45.84318" lon="1.22611">
        <ele>255.7</ele>
        <time>2024-11-12T10:13:06Z</time>
      </trkpt>
      <trkpt lat="45.84318" lon="1.22611">
        <ele>255.7</ele>
        <time>2024-11-12T10:13:07Z</time>
      </trkpt>
      <trkpt lat="45.84318" lon="1.22611">
        <ele>255.7</ele>
        <time>2024-11-12T10:13:08Z</time>
      </trkpt>
      <trkpt lat="45.84318" lon="1.22611">
        <ele>255.7</ele>
        <time>2024-11-12T10:13:09Z</time>
      </trkpt>
      <trkpt lat="45.84317" lon="1.2261">
        <ele>255.7</ele>
        <time>2024-11-12T10:13:10Z</time>
      </trkpt>
      <trkpt lat="45.84317" lon="1.22611">
        <ele>255.7</ele>
        <time>2024-11-12T10:13:11Z</time>
      </trkpt>
      <trkpt lat="45.84317" lon="1.22611">
        <ele>255.7</ele>
        <time>2024-11-12T10:13:12Z</time>
      </trkpt>
      <trkpt lat="45.84317" lon="1.22611">
        <ele>255.7</ele>
        <time>2024-11-12T10:13:13Z</time>
      </trkpt>
      <trkpt lat="45.84317" lon="1.22611">
        <ele>255.7</ele>
        <time>2024-11-12T10:13:14Z</time>
      </trkpt>
      <trkpt lat="45.84317" lon="1.22611">
        <ele>255.7</ele>
        <time>2024-11-12T10:13:15Z</time>
      </trkpt>
      <trkpt lat="45.84317" lon="1.2261">
        <ele>255.7</ele>
        <time>2024-11-12T10:13:16Z</time>
      </trkpt>
      <trkpt lat="45.84317" lon="1.2261">
        <ele>255.7</ele>
        <time>2024-11-12T10:13:17Z</time>
      </trkpt>
      <trkpt lat="45.84317" lon="1.2261">
        <ele>255.7</ele>
        <time>2024-11-12T10:13:18Z</time>
      </trkpt>
      <trkpt lat="45.84317" lon="1.2261">
        <ele>255.7</ele>
        <time>2024-11-12T10:13:19Z</time>
      </trkpt>
      <trkpt lat="45.84317" lon="1.2261">
        <ele>255.7</ele>
        <time>2024-11-12T10:13:20Z</time>
      </trkpt>
      <trkpt lat="45.84317" lon="1.2261">
        <ele>255.7</ele>
        <time>2024-11-12T10:13:21Z</time>
      </trkpt>
      <trkpt lat="45.84318" lon="1.2261">
        <ele>255.7</ele>
        <time>2024-11-12T10:13:22Z</time>
      </trkpt>
      <trkpt lat="45.84318" lon="1.2261">
        <ele>255.7</ele>
        <time>2024-11-12T10:13:23Z</time>
      </trkpt>
      <trkpt lat="45.84318" lon="1.2261">
        <ele>255.7</ele>
        <time>2024-11-12T10:13:24Z</time>
      </trkpt>
      <trkpt lat="45.84318" lon="1.2261">
        <ele>255.7</ele>
        <time>2024-11-12T10:13:25Z</time>
      </trkpt>
      <trkpt lat="45.84318" lon="1.2261">
        <ele>255.7</ele>
        <time>2024-11-12T10:13:26Z</time>
      </trkpt>
      <trkpt lat="45.84318" lon="1.2261">
        <ele>255.7</ele>
        <time>2024-11-12T10:13:27Z</time>
      </trkpt>
      <trkpt lat="45.84318" lon="1.2261">
        <ele>255.7</ele>
        <time>2024-11-12T10:13:28Z</time>
      </trkpt>
      <trkpt lat="45.84318" lon="1.2261">
        <ele>255.7</ele>
        <time>2024-11-12T10:13:29Z</time>
      </trkpt>
      <trkpt lat="45.84318" lon="1.2261">
        <ele>255.7</ele>
        <time>2024-11-12T10:13:30Z</time>
      </trkpt>
      <trkpt lat="45.84318" lon="1.2261">
        <ele>255.7</ele>
        <time>2024-11-12T10:13:31Z</time>
      </trkpt>
      <trkpt lat="45.84318" lon="1.2261">
        <ele>255.7</ele>
        <time>2024-11-12T10:13:32Z</time>
      </trkpt>
      <trkpt lat="45.84318" lon="1.2261">
        <ele>255.7</ele>
        <time>2024-11-12T10:13:33Z</time>
      </trkpt>
      <trkpt lat="45.84318" lon="1.2261">
        <ele>255.7</ele>
        <time>2024-11-12T10:13:34Z</time>
      </trkpt>
      <trkpt lat="45.84318" lon="1.2261">
        <ele>255.7</ele>
        <time>2024-11-12T10:13:35Z</time>
      </trkpt>
      <trkpt lat="45.84318" lon="1.2261">
        <ele>255.7</ele>
        <time>2024-11-12T10:13:36Z</time>
      </trkpt>
      <trkpt lat="45.84318" lon="1.2261">
        <ele>255.7</ele>
        <time>2024-11-12T10:13:37Z</time>
      </trkpt>
      <trkpt lat="45.84318" lon="1.2261">
        <ele>255.7</ele>
        <time>2024-11-12T10:13:38Z</time>
      </trkpt>
      <trkpt lat="45.84318" lon="1.2261">
        <ele>255.7</ele>
        <time>2024-11-12T10:13:39Z</time>
      </trkpt>
      <trkpt lat="45.84318" lon="1.2261">
        <ele>255.7</ele>
        <time>2024-11-12T10:13:40Z</time>
      </trkpt>
      <trkpt lat="45.84318" lon="1.2261">
        <ele>255.7</ele>
        <time>2024-11-12T10:13:41Z</time>
      </trkpt>
      <trkpt lat="45.84318" lon="1.2261">
        <ele>255.7</ele>
        <time>2024-11-12T10:13:42Z</time>
      </trkpt>
      <trkpt lat="45.84318" lon="1.2261">
        <ele>255.7</ele>
        <time>2024-11-12T10:13:43Z</time>
      </trkpt>
      <trkpt lat="45.84318" lon="1.2261">
        <ele>255.7</ele>
        <time>2024-11-12T10:13:44Z</time>
      </trkpt>
      <trkpt lat="45.84318" lon="1.2261">
        <ele>255.7</ele>
        <time>2024-11-12T10:13:45Z</time>
      </trkpt>
      <trkpt lat="45.84318" lon="1.2261">
        <ele>255.7</ele>
        <time>2024-11-12T10:13:46Z</time>
      </trkpt>
      <trkpt lat="45.84318" lon="1.2261">
        <ele>255.7</ele>
        <time>2024-11-12T10:13:47Z</time>
      </trkpt>
      <trkpt lat="45.84318" lon="1.2261">
        <ele>255.7</ele>
        <time>2024-11-12T10:13:48Z</time>
      </trkpt>
      <trkpt lat="45.84318" lon="1.2261">
        <ele>255.7</ele>
        <time>2024-11-12T10:13:49Z</time>
      </trkpt>
      <trkpt lat="45.84318" lon="1.2261">
        <ele>255.7</ele>
        <time>2024-11-12T10:13:50Z</time>
      </trkpt>
      <trkpt lat="45.84318" lon="1.2261">
        <ele>255.7</ele>
        <time>2024-11-12T10:13:51Z</time>
      </trkpt>
      <trkpt lat="45.84318" lon="1.2261">
        <ele>255.7</ele>
        <time>2024-11-12T10:13:52Z</time>
      </trkpt>
      <trkpt lat="45.84318" lon="1.2261">
        <ele>255.7</ele>
        <time>2024-11-12T10:13:53Z</time>
      </trkpt>
      <trkpt lat="45.84318" lon="1.2261">
        <ele>255.7</ele>
        <time>2024-11-12T10:13:54Z</time>
      </trkpt>
      <trkpt lat="45.84318" lon="1.2261">
        <ele>255.7</ele>
        <time>2024-11-12T10:13:55Z</time>
      </trkpt>
      <trkpt lat="45.84318" lon="1.2261">
        <ele>255.7</ele>
        <time>2024-11-12T10:13:56Z</time>
      </trkpt>
      <trkpt lat="45.84318" lon="1.2261">
        <ele>255.7</ele>
        <time>2024-11-12T10:13:57Z</time>
      </trkpt>
      <trkpt lat="45.84318" lon="1.2261">
        <ele>255.7</ele>
        <time>2024-11-12T10:13:58Z</time>
      </trkpt>
      <trkpt lat="45.84318" lon="1.2261">
        <ele>255.7</ele>
        <time>2024-11-12T10:13:59Z</time>
      </trkpt>
      <trkpt lat="45.84318" lon="1.2261">
        <ele>255.7</ele>
        <time>2024-11-12T10:14:00Z</time>
      </trkpt>
      <trkpt lat="45.84318" lon="1.2261">
        <ele>255.7</ele>
        <time>2024-11-12T10:14:01Z</time>
      </trkpt>
      <trkpt lat="45.84318" lon="1.2261">
        <ele>255.7</ele>
        <time>2024-11-12T10:14:02Z</time>
      </trkpt>
      <trkpt lat="45.84318" lon="1.2261">
        <ele>255.7</ele>
        <time>2024-11-12T10:14:03Z</time>
      </trkpt>
      <trkpt lat="45.84318" lon="1.2261">
        <ele>255.7</ele>
        <time>2024-11-12T10:14:04Z</time>
      </trkpt>
      <trkpt lat="45.84318" lon="1.2261">
        <ele>255.7</ele>
        <time>2024-11-12T10:14:05Z</time>
      </trkpt>
      <trkpt lat="45.84318" lon="1.2261">
        <ele>255.7</ele>
        <time>2024-11-12T10:14:06Z</time>
      </trkpt>
      <trkpt lat="45.84318" lon="1.2261">
        <ele>255.7</ele>
        <time>2024-11-12T10:14:07Z</time>
      </trkpt>
      <trkpt lat="45.84318" lon="1.2261">
        <ele>255.7</ele>
        <time>2024-11-12T10:14:08Z</time>
      </trkpt>
      <trkpt lat="45.84318" lon="1.2261">
        <ele>255.7</ele>
        <time>2024-11-12T10:14:09Z</time>
      </trkpt>
      <trkpt lat="45.84318" lon="1.2261">
        <ele>255.7</ele>
        <time>2024-11-12T10:14:10Z</time>
      </trkpt>
      <trkpt lat="45.84318" lon="1.2261">
        <ele>255.7</ele>
        <time>2024-11-12T10:14:11Z</time>
      </trkpt>
      <trkpt lat="45.84318" lon="1.2261">
        <ele>255.7</ele>
        <time>2024-11-12T10:14:12Z</time>
      </trkpt>
      <trkpt lat="45.84318" lon="1.2261">
        <ele>255.7</ele>
        <time>2024-11-12T10:14:13Z</time>
      </trkpt>
      <trkpt lat="45.84318" lon="1.2261">
        <ele>255.7</ele>
        <time>2024-11-12T10:14:14Z</time>
      </trkpt>
      <trkpt lat="45.84318" lon="1.2261">
        <ele>255.7</ele>
        <time>2024-11-12T10:14:15Z</time>
      </trkpt>
      <trkpt lat="45.84318" lon="1.2261">
        <ele>255.7</ele>
        <time>2024-11-12T10:14:16Z</time>
      </trkpt>
      <trkpt lat="45.84318" lon="1.2261">
        <ele>255.7</ele>
        <time>2024-11-12T10:14:17Z</time>
      </trkpt>
      <trkpt lat="45.84318" lon="1.2261">
        <ele>255.7</ele>
        <time>2024-11-12T10:14:18Z</time>
      </trkpt>
      <trkpt lat="45.84318" lon="1.2261">
        <ele>255.7</ele>
        <time>2024-11-12T10:14:19Z</time>
      </trkpt>
      <trkpt lat="45.84318" lon="1.2261">
        <ele>255.7</ele>
        <time>2024-11-12T10:14:20Z</time>
      </trkpt>
      <trkpt lat="45.84318" lon="1.2261">
        <ele>255.7</ele>
        <time>2024-11-12T10:14:21Z</time>
      </trkpt>
      <trkpt lat="45.84318" lon="1.2261">
        <ele>255.7</ele>
        <time>2024-11-12T10:14:22Z</time>
      </trkpt>
      <trkpt lat="45.84318" lon="1.2261">
        <ele>255.7</ele>
        <time>2024-11-12T10:14:23Z</time>
      </trkpt>
      <trkpt lat="45.84318" lon="1.2261">
        <ele>255.7</ele>
        <time>2024-11-12T10:14:24Z</time>
      </trkpt>
      <trkpt lat="45.84318" lon="1.2261">
        <ele>255.7</ele>
        <time>2024-11-12T10:14:25Z</time>
      </trkpt>
      <trkpt lat="45.84318" lon="1.2261">
        <ele>255.7</ele>
        <time>2024-11-12T10:14:26Z</time>
      </trkpt>
      <trkpt lat="45.84318" lon="1.2261">
        <ele>255.7</ele>
        <time>2024-11-12T10:14:27Z</time>
      </trkpt>
      <trkpt lat="45.84318" lon="1.2261">
        <ele>255.7</ele>
        <time>2024-11-12T10:14:28Z</time>
      </trkpt>
      <trkpt lat="45.84318" lon="1.2261">
        <ele>255.7</ele>
        <time>2024-11-12T10:14:29Z</time>
      </trkpt>
      <trkpt lat="45.84318" lon="1.2261">
        <ele>255.7</ele>
        <time>2024-11-12T10:14:30Z</time>
      </trkpt>
      <trkpt lat="45.84318" lon="1.2261">
        <ele>255.7</ele>
        <time>2024-11-12T10:14:31Z</time>
      </trkpt>
      <trkpt lat="45.84318" lon="1.2261">
        <ele>255.7</ele>
        <time>2024-11-12T10:14:32Z</time>
      </trkpt>
      <trkpt lat="45.84318" lon="1.2261">
        <ele>255.7</ele>
        <time>2024-11-12T10:14:33Z</time>
      </trkpt>
      <trkpt lat="45.84318" lon="1.2261">
        <ele>255.7</ele>
        <time>2024-11-12T10:14:34Z</time>
      </trkpt>
      <trkpt lat="45.84318" lon="1.2261">
        <ele>255.7</ele>
        <time>2024-11-12T10:14:35Z</time>
      </trkpt>
      <trkpt lat="45.84318" lon="1.2261">
        <ele>255.7</ele>
        <time>2024-11-12T10:14:36Z</time>
      </trkpt>
      <trkpt lat="45.84318" lon="1.2261">
        <ele>255.7</ele>
        <time>2024-11-12T10:14:37Z</time>
      </trkpt>
      <trkpt lat="45.84318" lon="1.2261">
        <ele>255.7</ele>
        <time>2024-11-12T10:14:38Z</time>
      </trkpt>
      <trkpt lat="45.84318" lon="1.2261">
        <ele>255.7</ele>
        <time>2024-11-12T10:14:39Z</time>
      </trkpt>
      <trkpt lat="45.84318" lon="1.2261">
        <ele>255.7</ele>
        <time>2024-11-12T10:14:40Z</time>
      </trkpt>
      <trkpt lat="45.84318" lon="1.2261">
        <ele>255.7</ele>
        <time>2024-11-12T10:14:41Z</time>
      </trkpt>
      <trkpt lat="45.84318" lon="1.2261">
        <ele>255.7</ele>
        <time>2024-11-12T10:14:42Z</time>
      </trkpt>
      <trkpt lat="45.84318" lon="1.2261">
        <ele>255.7</ele>
        <time>2024-11-12T10:14:43Z</time>
      </trkpt>
      <trkpt lat="45.84316" lon="1.22608">
        <ele>255.7</ele>
        <time>2024-11-12T10:14:44Z</time>
      </trkpt>
      <trkpt lat="45.84315" lon="1.22608">
        <ele>255.7</ele>
        <time>2024-11-12T10:14:45Z</time>
      </trkpt>
      <trkpt lat="45.84314" lon="1.22607">
        <ele>255.7</ele>
        <time>2024-11-12T10:14:46Z</time>
      </trkpt>
      <trkpt lat="45.84315" lon="1.22607">
        <ele>255.7</ele>
        <time>2024-11-12T10:14:47Z</time>
      </trkpt>
      <trkpt lat="45.84315" lon="1.22606">
        <ele>255.7</ele>
        <time>2024-11-12T10:14:48Z</time>
      </trkpt>
      <trkpt lat="45.84315" lon="1.22606">
        <ele>255.7</ele>
        <time>2024-11-12T10:14:49Z</time>
      </trkpt>
      <trkpt lat="45.84316" lon="1.22607">
        <ele>255.6</ele>
        <time>2024-11-12T10:14:50Z</time>
      </trkpt>
      <trkpt lat="45.84316" lon="1.22607">
        <ele>255.6</ele>
        <time>2024-11-12T10:14:51Z</time>
      </trkpt>
      <trkpt lat="45.84316" lon="1.22607">
        <ele>255.6</ele>
        <time>2024-11-12T10:14:52Z</time>
      </trkpt>
      <trkpt lat="45.84316" lon="1.22607">
        <ele>255.6</ele>
        <time>2024-11-12T10:14:53Z</time>
      </trkpt>
      <trkpt lat="45.84316" lon="1.22607">
        <ele>255.6</ele>
        <time>2024-11-12T10:14:54Z</time>
      </trkpt>
      <trkpt lat="45.84316" lon="1.22607">
        <ele>255.6</ele>
        <time>2024-11-12T10:14:55Z</time>
      </trkpt>
      <trkpt lat="45.84316" lon="1.22607">
        <ele>255.6</ele>
        <time>2024-11-12T10:14:56Z</time>
      </trkpt>
      <trkpt lat="45.84316" lon="1.22607">
        <ele>255.6</ele>
        <time>2024-11-12T10:14:57Z</time>
      </trkpt>
      <trkpt lat="45.84316" lon="1.22607">
        <ele>255.6</ele>
        <time>2024-11-12T10:14:58Z</time>
      </trkpt>
      <trkpt lat="45.84316" lon="1.22607">
        <ele>255.6</ele>
        <time>2024-11-12T10:14:59Z</time>
      </trkpt>
      <trkpt lat="45.84316" lon="1.22607">
        <ele>255.6</ele>
        <time>2024-11-12T10:15:00Z</time>
      </trkpt>
      <trkpt lat="45.84316" lon="1.22607">
        <ele>255.6</ele>
        <time>2024-11-12T10:15:01Z</time>
      </trkpt>
      <trkpt lat="45.84317" lon="1.22607">
        <ele>255.6</ele>
        <time>2024-11-12T10:15:02Z</time>
      </trkpt>
      <trkpt lat="45.84317" lon="1.22607">
        <ele>255.6</ele>
        <time>2024-11-12T10:15:03Z</time>
      </trkpt>
      <trkpt lat="45.84317" lon="1.22607">
        <ele>255.6</ele>
        <time>2024-11-12T10:15:04Z</time>
      </trkpt>
      <trkpt lat="45.84317" lon="1.22607">
        <ele>255.6</ele>
        <time>2024-11-12T10:15:05Z</time>
      </trkpt>
      <trkpt lat="45.84317" lon="1.22607">
        <ele>255.6</ele>
        <time>2024-11-12T10:15:06Z</time>
      </trkpt>
      <trkpt lat="45.84318" lon="1.22607">
        <ele>255.6</ele>
        <time>2024-11-12T10:15:07Z</time>
      </trkpt>
      <trkpt lat="45.84318" lon="1.22607">
        <ele>255.6</ele>
        <time>2024-11-12T10:15:08Z</time>
      </trkpt>
      <trkpt lat="45.84318" lon="1.22607">
        <ele>255.6</ele>
        <time>2024-11-12T10:15:09Z</time>
      </trkpt>
      <trkpt lat="45.84318" lon="1.22607">
        <ele>255.6</ele>
        <time>2024-11-12T10:15:10Z</time>
      </trkpt>
      <trkpt lat="45.84317" lon="1.22608">
        <ele>255.6</ele>
        <time>2024-11-12T10:15:11Z</time>
      </trkpt>
      <trkpt lat="45.84317" lon="1.22608">
        <ele>255.6</ele>
        <time>2024-11-12T10:15:12Z</time>
      </trkpt>
      <trkpt lat="45.84317" lon="1.22608">
        <ele>255.6</ele>
        <time>2024-11-12T10:15:13Z</time>
      </trkpt>
      <trkpt lat="45.84317" lon="1.22608">
        <ele>255.6</ele>
        <time>2024-11-12T10:15:14Z</time>
      </trkpt>
      <trkpt lat="45.84317" lon="1.22608">
        <ele>255.6</ele>
        <time>2024-11-12T10:15:15Z</time>
      </trkpt>
      <trkpt lat="45.84317" lon="1.22608">
        <ele>255.6</ele>
        <time>2024-11-12T10:15:16Z</time>
      </trkpt>
      <trkpt lat="45.84317" lon="1.22608">
        <ele>255.6</ele>
        <time>2024-11-12T10:15:17Z</time>
      </trkpt>
      <trkpt lat="45.84317" lon="1.22608">
        <ele>255.6</ele>
        <time>2024-11-12T10:15:18Z</time>
      </trkpt>
      <trkpt lat="45.84317" lon="1.22608">
        <ele>255.6</ele>
        <time>2024-11-12T10:15:19Z</time>
      </trkpt>
      <trkpt lat="45.84317" lon="1.22608">
        <ele>255.6</ele>
        <time>2024-11-12T10:15:20Z</time>
      </trkpt>
      <trkpt lat="45.84317" lon="1.22608">
        <ele>255.6</ele>
        <time>2024-11-12T10:15:21Z</time>
      </trkpt>
      <trkpt lat="45.84317" lon="1.22608">
        <ele>255.6</ele>
        <time>2024-11-12T10:15:22Z</time>
      </trkpt>
      <trkpt lat="45.84317" lon="1.22608">
        <ele>255.6</ele>
        <time>2024-11-12T10:15:23Z</time>
      </trkpt>
      <trkpt lat="45.84317" lon="1.22608">
        <ele>255.6</ele>
        <time>2024-11-12T10:15:24Z</time>
      </trkpt>
      <trkpt lat="45.84317" lon="1.22609">
        <ele>255.6</ele>
        <time>2024-11-12T10:15:25Z</time>
      </trkpt>
      <trkpt lat="45.84317" lon="1.22609">
        <ele>255.6</ele>
        <time>2024-11-12T10:15:26Z</time>
      </trkpt>
      <trkpt lat="45.84317" lon="1.22609">
        <ele>255.6</ele>
        <time>2024-11-12T10:15:27Z</time>
      </trkpt>
      <trkpt lat="45.84317" lon="1.22609">
        <ele>255.6</ele>
        <time>2024-11-12T10:15:28Z</time>
      </trkpt>
      <trkpt lat="45.84317" lon="1.22609">
        <ele>255.6</ele>
        <time>2024-11-12T10:15:29Z</time>
      </trkpt>
      <trkpt lat="45.84317" lon="1.22609">
        <ele>255.6</ele>
        <time>2024-11-12T10:15:30Z</time>
      </trkpt>
      <trkpt lat="45.84317" lon="1.22609">
        <ele>255.6</ele>
        <time>2024-11-12T10:15:31Z</time>
      </trkpt>
      <trkpt lat="45.84318" lon="1.2261">
        <ele>255.6</ele>
        <time>2024-11-12T10:15:32Z</time>
      </trkpt>
      <trkpt lat="45.84318" lon="1.2261">
        <ele>255.6</ele>
        <time>2024-11-12T10:15:33Z</time>
      </trkpt>
      <trkpt lat="45.84318" lon="1.2261">
        <ele>255.6</ele>
        <time>2024-11-12T10:15:34Z</time>
      </trkpt>
      <trkpt lat="45.84318" lon="1.2261">
        <ele>255.6</ele>
        <time>2024-11-12T10:15:35Z</time>
      </trkpt>
      <trkpt lat="45.84318" lon="1.22611">
        <ele>255.6</ele>
        <time>2024-11-12T10:15:36Z</time>
      </trkpt>
      <trkpt lat="45.84318" lon="1.22611">
        <ele>255.6</ele>
        <time>2024-11-12T10:15:37Z</time>
      </trkpt>
      <trkpt lat="45.84318" lon="1.22611">
        <ele>255.6</ele>
        <time>2024-11-12T10:15:38Z</time>
      </trkpt>
      <trkpt lat="45.84318" lon="1.22611">
        <ele>255.6</ele>
        <time>2024-11-12T10:15:39Z</time>
      </trkpt>
      <trkpt lat="45.84318" lon="1.22611">
        <ele>255.6</ele>
        <time>2024-11-12T10:15:40Z</time>
      </trkpt>
      <trkpt lat="45.84318" lon="1.22611">
        <ele>255.6</ele>
        <time>2024-11-12T10:15:41Z</time>
      </trkpt>
      <trkpt lat="45.84318" lon="1.22611">
        <ele>255.6</ele>
        <time>2024-11-12T10:15:42Z</time>
      </trkpt>
      <trkpt lat="45.84318" lon="1.22611">
        <ele>255.6</ele>
        <time>2024-11-12T10:15:43Z</time>
      </trkpt>
      <trkpt lat="45.84318" lon="1.22611">
        <ele>255.6</ele>
        <time>2024-11-12T10:15:44Z</time>
      </trkpt>
      <trkpt lat="45.84318" lon="1.22611">
        <ele>255.6</ele>
        <time>2024-11-12T10:15:45Z</time>
      </trkpt>
      <trkpt lat="45.84318" lon="1.22611">
        <ele>255.6</ele>
        <time>2024-11-12T10:15:46Z</time>
      </trkpt>
      <trkpt lat="45.84318" lon="1.22611">
        <ele>255.6</ele>
        <time>2024-11-12T10:15:47Z</time>
      </trkpt>
      <trkpt lat="45.84318" lon="1.22611">
        <ele>255.6</ele>
        <time>2024-11-12T10:15:48Z</time>
      </trkpt>
      <trkpt lat="45.84318" lon="1.22611">
        <ele>255.6</ele>
        <time>2024-11-12T10:15:49Z</time>
      </trkpt>
      <trkpt lat="45.84318" lon="1.22611">
        <ele>255.6</ele>
        <time>2024-11-12T10:15:50Z</time>
      </trkpt>
      <trkpt lat="45.84318" lon="1.22611">
        <ele>255.6</ele>
        <time>2024-11-12T10:15:51Z</time>
      </trkpt>
      <trkpt lat="45.84317" lon="1.22611">
        <ele>255.6</ele>
        <time>2024-11-12T10:15:52Z</time>
      </trkpt>
      <trkpt lat="45.84317" lon="1.22611">
        <ele>255.6</ele>
        <time>2024-11-12T10:15:53Z</time>
      </trkpt>
      <trkpt lat="45.84317" lon="1.22611">
        <ele>255.6</ele>
        <time>2024-11-12T10:15:54Z</time>
      </trkpt>
      <trkpt lat="45.84317" lon="1.22611">
        <ele>255.6</ele>
        <time>2024-11-12T10:15:55Z</time>
      </trkpt>
      <trkpt lat="45.84317" lon="1.22611">
        <ele>255.6</ele>
        <time>2024-11-12T10:15:56Z</time>
      </trkpt>
      <trkpt lat="45.84317" lon="1.22611">
        <ele>255.6</ele>
        <time>2024-11-12T10:15:57Z</time>
      </trkpt>
      <trkpt lat="45.84317" lon="1.2261">
        <ele>255.6</ele>
        <time>2024-11-12T10:15:58Z</time>
      </trkpt>
      <trkpt lat="45.84316" lon="1.2261">
        <ele>255.6</ele>
        <time>2024-11-12T10:15:59Z</time>
      </trkpt>
      <trkpt lat="45.84316" lon="1.2261">
        <ele>255.6</ele>
        <time>2024-11-12T10:16:00Z</time>
      </trkpt>
      <trkpt lat="45.84316" lon="1.2261">
        <ele>255.6</ele>
        <time>2024-11-12T10:16:01Z</time>
      </trkpt>
      <trkpt lat="45.84316" lon="1.2261">
        <ele>255.6</ele>
        <time>2024-11-12T10:16:02Z</time>
      </trkpt>
      <trkpt lat="45.84316" lon="1.2261">
        <ele>255.6</ele>
        <time>2024-11-12T10:16:03Z</time>
      </trkpt>
      <trkpt lat="45.84316" lon="1.2261">
        <ele>255.6</ele>
        <time>2024-11-12T10:16:04Z</time>
      </trkpt>
      <trkpt lat="45.84316" lon="1.2261">
        <ele>255.6</ele>
        <time>2024-11-12T10:16:05Z</time>
      </trkpt>
      <trkpt lat="45.84316" lon="1.2261">
        <ele>255.6</ele>
        <time>2024-11-12T10:16:06Z</time>
      </trkpt>
      <trkpt lat="45.84317" lon="1.2261">
        <ele>255.6</ele>
        <time>2024-11-12T10:16:07Z</time>
      </trkpt>
      <trkpt lat="45.84317" lon="1.2261">
        <ele>255.6</ele>
        <time>2024-11-12T10:16:08Z</time>
      </trkpt>
      <trkpt lat="45.84317" lon="1.2261">
        <ele>255.6</ele>
        <time>2024-11-12T10:16:09Z</time>
      </trkpt>
      <trkpt lat="45.84317" lon="1.22609">
        <ele>255.6</ele>
        <time>2024-11-12T10:16:10Z</time>
      </trkpt>
      <trkpt lat="45.84317" lon="1.22609">
        <ele>255.6</ele>
        <time>2024-11-12T10:16:11Z</time>
      </trkpt>
      <trkpt lat="45.84317" lon="1.22609">
        <ele>255.6</ele>
        <time>2024-11-12T10:16:12Z</time>
      </trkpt>
      <trkpt lat="45.84317" lon="1.22609">
        <ele>255.6</ele>
        <time>2024-11-12T10:16:13Z</time>
      </trkpt>
      <trkpt lat="45.84317" lon="1.22609">
        <ele>255.6</ele>
        <time>2024-11-12T10:16:14Z</time>
      </trkpt>
      <trkpt lat="45.84317" lon="1.22609">
        <ele>255.6</ele>
        <time>2024-11-12T10:16:15Z</time>
      </trkpt>
      <trkpt lat="45.84318" lon="1.22609">
        <ele>255.6</ele>
        <time>2024-11-12T10:16:16Z</time>
      </trkpt>
      <trkpt lat="45.84318" lon="1.22609">
        <ele>255.6</ele>
        <time>2024-11-12T10:16:17Z</time>
      </trkpt>
      <trkpt lat="45.84318" lon="1.22609">
        <ele>255.6</ele>
        <time>2024-11-12T10:16:18Z</time>
      </trkpt>
      <trkpt lat="45.84318" lon="1.22609">
        <ele>255.6</ele>
        <time>2024-11-12T10:16:19Z</time>
      </trkpt>
      <trkpt lat="45.84319" lon="1.22609">
        <ele>255.6</ele>
        <time>2024-11-12T10:16:20Z</time>
      </trkpt>
      <trkpt lat="45.84319" lon="1.22609">
        <ele>255.6</ele>
        <time>2024-11-12T10:16:21Z</time>
      </trkpt>
      <trkpt lat="45.84319" lon="1.22609">
        <ele>255.6</ele>
        <time>2024-11-12T10:16:22Z</time>
      </trkpt>
      <trkpt lat="45.84319" lon="1.22609">
        <ele>255.6</ele>
        <time>2024-11-12T10:16:23Z</time>
      </trkpt>
      <trkpt lat="45.84318" lon="1.2261">
        <ele>255.6</ele>
        <time>2024-11-12T10:16:24Z</time>
      </trkpt>
      <trkpt lat="45.84317" lon="1.2261">
        <ele>255.6</ele>
        <time>2024-11-12T10:16:25Z</time>
      </trkpt>
      <trkpt lat="45.84317" lon="1.2261">
        <ele>255.6</ele>
        <time>2024-11-12T10:16:26Z</time>
      </trkpt>
      <trkpt lat="45.84317" lon="1.2261">
        <ele>255.6</ele>
        <time>2024-11-12T10:16:27Z</time>
      </trkpt>
      <trkpt lat="45.84317" lon="1.2261">
        <ele>255.6</ele>
        <time>2024-11-12T10:16:28Z</time>
      </trkpt>
      <trkpt lat="45.84318" lon="1.2261">
        <ele>255.6</ele>
        <time>2024-11-12T10:16:29Z</time>
      </trkpt>
      <trkpt lat="45.84317" lon="1.2261">
        <ele>255.6</ele>
        <time>2024-11-12T10:16:30Z</time>
      </trkpt>
      <trkpt lat="45.84317" lon="1.2261">
        <ele>255.6</ele>
        <time>2024-11-12T10:16:31Z</time>
      </trkpt>
      <trkpt lat="45.84316" lon="1.2261">
        <ele>255.6</ele>
        <time>2024-11-12T10:16:32Z</time>
      </trkpt>
      <trkpt lat="45.84316" lon="1.2261">
        <ele>255.6</ele>
        <time>2024-11-12T10:16:33Z</time>
      </trkpt>
      <trkpt lat="45.84316" lon="1.2261">
        <ele>255.6</ele>
        <time>2024-11-12T10:16:34Z</time>
      </trkpt>
      <trkpt lat="45.84315" lon="1.2261">
        <ele>255.6</ele>
        <time>2024-11-12T10:16:35Z</time>
      </trkpt>
      <trkpt lat="45.84315" lon="1.2261">
        <ele>255.6</ele>
        <time>2024-11-12T10:16:36Z</time>
      </trkpt>
      <trkpt lat="45.84316" lon="1.2261">
        <ele>255.6</ele>
        <time>2024-11-12T10:16:37Z</time>
      </trkpt>
      <trkpt lat="45.84316" lon="1.2261">
        <ele>255.6</ele>
        <time>2024-11-12T10:16:38Z</time>
      </trkpt>
      <trkpt lat="45.84316" lon="1.2261">
        <ele>255.6</ele>
        <time>2024-11-12T10:16:39Z</time>
      </trkpt>
      <trkpt lat="45.84316" lon="1.22609">
        <ele>255.6</ele>
        <time>2024-11-12T10:16:40Z</time>
      </trkpt>
      <trkpt lat="45.84317" lon="1.22609">
        <ele>255.6</ele>
        <time>2024-11-12T10:16:41Z</time>
      </trkpt>
      <trkpt lat="45.84317" lon="1.22609">
        <ele>255.6</ele>
        <time>2024-11-12T10:16:42Z</time>
      </trkpt>
      <trkpt lat="45.84317" lon="1.22608">
        <ele>255.6</ele>
        <time>2024-11-12T10:16:43Z</time>
      </trkpt>
      <trkpt lat="45.84317" lon="1.22608">
        <ele>255.6</ele>
        <time>2024-11-12T10:16:44Z</time>
      </trkpt>
      <trkpt lat="45.84318" lon="1.22608">
        <ele>255.6</ele>
        <time>2024-11-12T10:16:45Z</time>
      </trkpt>
      <trkpt lat="45.84318" lon="1.22608">
        <ele>255.6</ele>
        <time>2024-11-12T10:16:46Z</time>
      </trkpt>
      <trkpt lat="45.84318" lon="1.22608">
        <ele>255.5</ele>
        <time>2024-11-12T10:16:47Z</time>
      </trkpt>
      <trkpt lat="45.84319" lon="1.22608">
        <ele>255.5</ele>
        <time>2024-11-12T10:16:48Z</time>
      </trkpt>
      <trkpt lat="45.84319" lon="1.22608">
        <ele>255.5</ele>
        <time>2024-11-12T10:16:49Z</time>
      </trkpt>
      <trkpt lat="45.84319" lon="1.22609">
        <ele>255.5</ele>
        <time>2024-11-12T10:16:50Z</time>
      </trkpt>
      <trkpt lat="45.84319" lon="1.22609">
        <ele>255.5</ele>
        <time>2024-11-12T10:16:51Z</time>
      </trkpt>
      <trkpt lat="45.84319" lon="1.22608">
        <ele>255.5</ele>
        <time>2024-11-12T10:16:52Z</time>
      </trkpt>
      <trkpt lat="45.8432" lon="1.22608">
        <ele>255.5</ele>
        <time>2024-11-12T10:16:53Z</time>
      </trkpt>
      <trkpt lat="45.8432" lon="1.22608">
        <ele>255.5</ele>
        <time>2024-11-12T10:16:54Z</time>
      </trkpt>
      <trkpt lat="45.84319" lon="1.22608">
        <ele>255.5</ele>
        <time>2024-11-12T10:16:55Z</time>
      </trkpt>
      <trkpt lat="45.84319" lon="1.22608">
        <ele>255.5</ele>
        <time>2024-11-12T10:16:56Z</time>
      </trkpt>
      <trkpt lat="45.84319" lon="1.22608">
        <ele>255.5</ele>
        <time>2024-11-12T10:16:57Z</time>
      </trkpt>
      <trkpt lat="45.84318" lon="1.22608">
        <ele>255.5</ele>
        <time>2024-11-12T10:16:58Z</time>
      </trkpt>
      <trkpt lat="45.84317" lon="1.22608">
        <ele>255.5</ele>
        <time>2024-11-12T10:16:59Z</time>
      </trkpt>
      <trkpt lat="45.84318" lon="1.22608">
        <ele>255.5</ele>
        <time>2024-11-12T10:17:00Z</time>
      </trkpt>
      <trkpt lat="45.84318" lon="1.22608">
        <ele>255.5</ele>
        <time>2024-11-12T10:17:01Z</time>
      </trkpt>
      <trkpt lat="45.84318" lon="1.22608">
        <ele>255.5</ele>
        <time>2024-11-12T10:17:02Z</time>
      </trkpt>
      <trkpt lat="45.84317" lon="1.22607">
        <ele>255.5</ele>
        <time>2024-11-12T10:17:03Z</time>
      </trkpt>
      <trkpt lat="45.84315" lon="1.22607">
        <ele>255.5</ele>
        <time>2024-11-12T10:17:04Z</time>
      </trkpt>
      <trkpt lat="45.84312" lon="1.22607">
        <ele>255.5</ele>
        <time>2024-11-12T10:17:05Z</time>
      </trkpt>
      <trkpt lat="45.84311" lon="1.22607">
        <ele>255.5</ele>
        <time>2024-11-12T10:17:06Z</time>
      </trkpt>
      <trkpt lat="45.84308" lon="1.22606">
        <ele>255.5</ele>
        <time>2024-11-12T10:17:07Z</time>
      </trkpt>
      <trkpt lat="45.84307" lon="1.22606">
        <ele>255.5</ele>
        <time>2024-11-12T10:17:08Z</time>
      </trkpt>
      <trkpt lat="45.84305" lon="1.22605">
        <ele>255.5</ele>
        <time>2024-11-12T10:17:09Z</time>
      </trkpt>
      <trkpt lat="45.84304" lon="1.22605">
        <ele>255.5</ele>
        <time>2024-11-12T10:17:10Z</time>
      </trkpt>
      <trkpt lat="45.84301" lon="1.22603">
        <ele>255.5</ele>
        <time>2024-11-12T10:17:11Z</time>
      </trkpt>
      <trkpt lat="45.843" lon="1.22603">
        <ele>255.5</ele>
        <time>2024-11-12T10:17:12Z</time>
      </trkpt>
      <trkpt lat="45.84298" lon="1.226">
        <ele>255.5</ele>
        <time>2024-11-12T10:17:13Z</time>
      </trkpt>
      <trkpt lat="45.84297" lon="1.22599">
        <ele>255.4</ele>
        <time>2024-11-12T10:17:14Z</time>
      </trkpt>
      <trkpt lat="45.84295" lon="1.22596">
        <ele>255.4</ele>
        <time>2024-11-12T10:17:15Z</time>
      </trkpt>
      <trkpt lat="45.84295" lon="1.22595">
        <ele>255.4</ele>
        <time>2024-11-12T10:17:16Z</time>
      </trkpt>
      <trkpt lat="45.84293" lon="1.22593">
        <ele>255.4</ele>
        <time>2024-11-12T10:17:17Z</time>
      </trkpt>
      <trkpt lat="45.84292" lon="1.22592">
        <ele>255.4</ele>
        <time>2024-11-12T10:17:18Z</time>
      </trkpt>
      <trkpt lat="45.84291" lon="1.22588">
        <ele>255.4</ele>
        <time>2024-11-12T10:17:19Z</time>
      </trkpt>
      <trkpt lat="45.8429" lon="1.22587">
        <ele>255.4</ele>
        <time>2024-11-12T10:17:20Z</time>
      </trkpt>
      <trkpt lat="45.84289" lon="1.22583">
        <ele>255.4</ele>
        <time>2024-11-12T10:17:21Z</time>
      </trkpt>
      <trkpt lat="45.84288" lon="1.22582">
        <ele>255.4</ele>
        <time>2024-11-12T10:17:22Z</time>
      </trkpt>
      <trkpt lat="45.84287" lon="1.2258">
        <ele>255.4</ele>
        <time>2024-11-12T10:17:23Z</time>
      </trkpt>
      <trkpt lat="45.84286" lon="1.22579">
        <ele>255.4</ele>
        <time>2024-11-12T10:17:24Z</time>
      </trkpt>
      <trkpt lat="45.84285" lon="1.22578">
        <ele>255.4</ele>
        <time>2024-11-12T10:17:25Z</time>
      </trkpt>
      <trkpt lat="45.84284" lon="1.22576">
        <ele>255.4</ele>
        <time>2024-11-12T10:17:26Z</time>
      </trkpt>
      <trkpt lat="45.84284" lon="1.22574">
        <ele>255.4</ele>
        <time>2024-11-12T10:17:27Z</time>
      </trkpt>
      <trkpt lat="45.84283" lon="1.22573">
        <ele>255.3</ele>
        <time>2024-11-12T10:17:28Z</time>
      </trkpt>
      <trkpt lat="45.84282" lon="1.22572">
        <ele>255.3</ele>
        <time>2024-11-12T10:17:29Z</time>
      </trkpt>
      <trkpt lat="45.84282" lon="1.2257">
        <ele>255.3</ele>
        <time>2024-11-12T10:17:30Z</time>
      </trkpt>
      <trkpt lat="45.84281" lon="1.22566">
        <ele>255.3</ele>
        <time>2024-11-12T10:17:31Z</time>
      </trkpt>
      <trkpt lat="45.84281" lon="1.22565">
        <ele>255.3</ele>
        <time>2024-11-12T10:17:32Z</time>
      </trkpt>
      <trkpt lat="45.8428" lon="1.22562">
        <ele>255.3</ele>
        <time>2024-11-12T10:17:33Z</time>
      </trkpt>
      <trkpt lat="45.8428" lon="1.22561">
        <ele>255.3</ele>
        <time>2024-11-12T10:17:34Z</time>
      </trkpt>
      <trkpt lat="45.8428" lon="1.2256">
        <ele>255.3</ele>
        <time>2024-11-12T10:17:35Z</time>
      </trkpt>
      <trkpt lat="45.84279" lon="1.22558">
        <ele>255.3</ele>
        <time>2024-11-12T10:17:36Z</time>
      </trkpt>
      <trkpt lat="45.84278" lon="1.22556">
        <ele>255.3</ele>
        <time>2024-11-12T10:17:37Z</time>
      </trkpt>
      <trkpt lat="45.84276" lon="1.22555">
        <ele>255.2</ele>
        <time>2024-11-12T10:17:38Z</time>
      </trkpt>
      <trkpt lat="45.84275" lon="1.22555">
        <ele>255.2</ele>
        <time>2024-11-12T10:17:39Z</time>
      </trkpt>
      <trkpt lat="45.84274" lon="1.22555">
        <ele>255.2</ele>
        <time>2024-11-12T10:17:40Z</time>
      </trkpt>
      <trkpt lat="45.84274" lon="1.22553">
        <ele>255.2</ele>
        <time>2024-11-12T10:17:41Z</time>
      </trkpt>
      <trkpt lat="45.84273" lon="1.2255">
        <ele>255.2</ele>
        <time>2024-11-12T10:17:42Z</time>
      </trkpt>
      <trkpt lat="45.84273" lon="1.22549">
        <ele>255.2</ele>
        <time>2024-11-12T10:17:43Z</time>
      </trkpt>
      <trkpt lat="45.84273" lon="1.22547">
        <ele>255.2</ele>
        <time>2024-11-12T10:17:44Z</time>
      </trkpt>
      <trkpt lat="45.84273" lon="1.22546">
        <ele>255.2</ele>
        <time>2024-11-12T10:17:45Z</time>
      </trkpt>
      <trkpt lat="45.84272" lon="1.22544">
        <ele>255.1</ele>
        <time>2024-11-12T10:17:46Z</time>
      </trkpt>
      <trkpt lat="45.8427" lon="1.22542">
        <ele>255.1</ele>
        <time>2024-11-12T10:17:47Z</time>
      </trkpt>
      <trkpt lat="45.8427" lon="1.22542">
        <ele>255.1</ele>
        <time>2024-11-12T10:17:48Z</time>
      </trkpt>
      <trkpt lat="45.84268" lon="1.22541">
        <ele>255.1</ele>
        <time>2024-11-12T10:17:49Z</time>
      </trkpt>
      <trkpt lat="45.84267" lon="1.22541">
        <ele>255.1</ele>
        <time>2024-11-12T10:17:50Z</time>
      </trkpt>
      <trkpt lat="45.84265" lon="1.22541">
        <ele>255</ele>
        <time>2024-11-12T10:17:51Z</time>
      </trkpt>
      <trkpt lat="45.84264" lon="1.22541">
        <ele>255</ele>
        <time>2024-11-12T10:17:52Z</time>
      </trkpt>
      <trkpt lat="45.84263" lon="1.2254">
        <ele>255</ele>
        <time>2024-11-12T10:17:53Z</time>
      </trkpt>
      <trkpt lat="45.84262" lon="1.2254">
        <ele>255</ele>
        <time>2024-11-12T10:17:54Z</time>
      </trkpt>
      <trkpt lat="45.8426" lon="1.22541">
        <ele>255</ele>
        <time>2024-11-12T10:17:55Z</time>
      </trkpt>
      <trkpt lat="45.84259" lon="1.22542">
        <ele>254.9</ele>
        <time>2024-11-12T10:17:56Z</time>
      </trkpt>
      <trkpt lat="45.84258" lon="1.22544">
        <ele>254.9</ele>
        <time>2024-11-12T10:17:57Z</time>
      </trkpt>
      <trkpt lat="45.84257" lon="1.22546">
        <ele>254.9</ele>
        <time>2024-11-12T10:17:58Z</time>
      </trkpt>
      <trkpt lat="45.84257" lon="1.22547">
        <ele>254.9</ele>
        <time>2024-11-12T10:17:59Z</time>
      </trkpt>
      <trkpt lat="45.84257" lon="1.22549">
        <ele>254.9</ele>
        <time>2024-11-12T10:18:00Z</time>
      </trkpt>
      <trkpt lat="45.84256" lon="1.22551">
        <ele>254.9</ele>
        <time>2024-11-12T10:18:01Z</time>
      </trkpt>
      <trkpt lat="45.84257" lon="1.22554">
        <ele>254.8</ele>
        <time>2024-11-12T10:18:02Z</time>
      </trkpt>
      <trkpt lat="45.84258" lon="1.22555">
        <ele>254.8</ele>
        <time>2024-11-12T10:18:03Z</time>
      </trkpt>
      <trkpt lat="45.84258" lon="1.22557">
        <ele>254.8</ele>
        <time>2024-11-12T10:18:04Z</time>
      </trkpt>
      <trkpt lat="45.84258" lon="1.22559">
        <ele>254.8</ele>
        <time>2024-11-12T10:18:05Z</time>
      </trkpt>
      <trkpt lat="45.84258" lon="1.22561">
        <ele>254.8</ele>
        <time>2024-11-12T10:18:06Z</time>
      </trkpt>
      <trkpt lat="45.84258" lon="1.22563">
        <ele>254.8</ele>
        <time>2024-11-12T10:18:07Z</time>
      </trkpt>
      <trkpt lat="45.84258" lon="1.22564">
        <ele>254.8</ele>
        <time>2024-11-12T10:18:08Z</time>
      </trkpt>
      <trkpt lat="45.84258" lon="1.22566">
        <ele>254.8</ele>
        <time>2024-11-12T10:18:09Z</time>
      </trkpt>
      <trkpt lat="45.84257" lon="1.22568">
        <ele>254.8</ele>
        <time>2024-11-12T10:18:10Z</time>
      </trkpt>
      <trkpt lat="45.84257" lon="1.22571">
        <ele>254.8</ele>
        <time>2024-11-12T10:18:11Z</time>
      </trkpt>
      <trkpt lat="45.84257" lon="1.22572">
        <ele>254.8</ele>
        <time>2024-11-12T10:18:12Z</time>
      </trkpt>
      <trkpt lat="45.84256" lon="1.22573">
        <ele>254.8</ele>
        <time>2024-11-12T10:18:13Z</time>
      </trkpt>
      <trkpt lat="45.84256" lon="1.22576">
        <ele>254.8</ele>
        <time>2024-11-12T10:18:14Z</time>
      </trkpt>
      <trkpt lat="45.84256" lon="1.22577">
        <ele>254.8</ele>
        <time>2024-11-12T10:18:15Z</time>
      </trkpt>
      <trkpt lat="45.84256" lon="1.22578">
        <ele>254.8</ele>
        <time>2024-11-12T10:18:16Z</time>
      </trkpt>
      <trkpt lat="45.84256" lon="1.22581">
        <ele>254.8</ele>
        <time>2024-11-12T10:18:17Z</time>
      </trkpt>
      <trkpt lat="45.84255" lon="1.22582">
        <ele>254.8</ele>
        <time>2024-11-12T10:18:18Z</time>
      </trkpt>
      <trkpt lat="45.84255" lon="1.22584">
        <ele>254.8</ele>
        <time>2024-11-12T10:18:19Z</time>
      </trkpt>
      <trkpt lat="45.84255" lon="1.22586">
        <ele>254.8</ele>
        <time>2024-11-12T10:18:20Z</time>
      </trkpt>
      <trkpt lat="45.84255" lon="1.22588">
        <ele>254.8</ele>
        <time>2024-11-12T10:18:21Z</time>
      </trkpt>
      <trkpt lat="45.84255" lon="1.2259">
        <ele>254.8</ele>
        <time>2024-11-12T10:18:22Z</time>
      </trkpt>
      <trkpt lat="45.84255" lon="1.22592">
        <ele>254.8</ele>
        <time>2024-11-12T10:18:23Z</time>
      </trkpt>
      <trkpt lat="45.84254" lon="1.22595">
        <ele>254.8</ele>
        <time>2024-11-12T10:18:24Z</time>
      </trkpt>
      <trkpt lat="45.84254" lon="1.22596">
        <ele>254.8</ele>
        <time>2024-11-12T10:18:25Z</time>
      </trkpt>
      <trkpt lat="45.84253" lon="1.22597">
        <ele>254.8</ele>
        <time>2024-11-12T10:18:26Z</time>
      </trkpt>
      <trkpt lat="45.84252" lon="1.226">
        <ele>254.8</ele>
        <time>2024-11-12T10:18:27Z</time>
      </trkpt>
      <trkpt lat="45.84252" lon="1.22602">
        <ele>254.8</ele>
        <time>2024-11-12T10:18:28Z</time>
      </trkpt>
      <trkpt lat="45.84251" lon="1.22604">
        <ele>254.8</ele>
        <time>2024-11-12T10:18:29Z</time>
      </trkpt>
      <trkpt lat="45.8425" lon="1.22607">
        <ele>254.8</ele>
        <time>2024-11-12T10:18:31Z</time>
      </trkpt>
      <trkpt lat="45.8425" lon="1.2261">
        <ele>254.8</ele>
        <time>2024-11-12T10:18:32Z</time>
      </trkpt>
      <trkpt lat="45.8425" lon="1.22611">
        <ele>254.8</ele>
        <time>2024-11-12T10:18:33Z</time>
      </trkpt>
      <trkpt lat="45.84248" lon="1.22614">
        <ele>254.7</ele>
        <time>2024-11-12T10:18:35Z</time>
      </trkpt>
      <trkpt lat="45.84247" lon="1.22615">
        <ele>254.7</ele>
        <time>2024-11-12T10:18:36Z</time>
      </trkpt>
      <trkpt lat="45.84247" lon="1.22615">
        <ele>254.7</ele>
        <time>2024-11-12T10:18:37Z</time>
      </trkpt>
      <trkpt lat="45.84246" lon="1.22616">
        <ele>254.7</ele>
        <time>2024-11-12T10:18:38Z</time>
      </trkpt>
      <trkpt lat="45.84244" lon="1.22618">
        <ele>254.7</ele>
        <time>2024-11-12T10:18:39Z</time>
      </trkpt>
      <trkpt lat="45.84243" lon="1.22618">
        <ele>254.7</ele>
        <time>2024-11-12T10:18:40Z</time>
      </trkpt>
      <trkpt lat="45.84242" lon="1.22619">
        <ele>254.7</ele>
        <time>2024-11-12T10:18:41Z</time>
      </trkpt>
      <trkpt lat="45.84241" lon="1.22619">
        <ele>254.7</ele>
        <time>2024-11-12T10:18:42Z</time>
      </trkpt>
      <trkpt lat="45.84239" lon="1.2262">
        <ele>254.7</ele>
        <time>2024-11-12T10:18:43Z</time>
      </trkpt>
      <trkpt lat="45.84237" lon="1.22621">
        <ele>254.6</ele>
        <time>2024-11-12T10:18:44Z</time>
      </trkpt>
      <trkpt lat="45.84236" lon="1.22621">
        <ele>254.6</ele>
        <time>2024-11-12T10:18:45Z</time>
      </trkpt>
      <trkpt lat="45.84236" lon="1.22621">
        <ele>254.6</ele>
        <time>2024-11-12T10:18:46Z</time>
      </trkpt>
      <trkpt lat="45.84234" lon="1.22621">
        <ele>254.6</ele>
        <time>2024-11-12T10:18:47Z</time>
      </trkpt>
      <trkpt lat="45.84233" lon="1.22622">
        <ele>254.6</ele>
        <time>2024-11-12T10:18:48Z</time>
      </trkpt>
      <trkpt lat="45.84231" lon="1.22623">
        <ele>254.6</ele>
        <time>2024-11-12T10:18:49Z</time>
      </trkpt>
      <trkpt lat="45.8423" lon="1.22623">
        <ele>254.6</ele>
        <time>2024-11-12T10:18:50Z</time>
      </trkpt>
      <trkpt lat="45.84229" lon="1.22623">
        <ele>254.6</ele>
        <time>2024-11-12T10:18:51Z</time>
      </trkpt>
      <trkpt lat="45.84227" lon="1.22623">
        <ele>254.6</ele>
        <time>2024-11-12T10:18:52Z</time>
      </trkpt>
      <trkpt lat="45.84226" lon="1.22623">
        <ele>254.6</ele>
        <time>2024-11-12T10:18:53Z</time>
      </trkpt>
      <trkpt lat="45.84224" lon="1.22623">
        <ele>254.5</ele>
        <time>2024-11-12T10:18:54Z</time>
      </trkpt>
      <trkpt lat="45.84223" lon="1.22623">
        <ele>254.5</ele>
        <time>2024-11-12T10:18:55Z</time>
      </trkpt>
      <trkpt lat="45.84222" lon="1.22623">
        <ele>254.5</ele>
        <time>2024-11-12T10:18:56Z</time>
      </trkpt>
      <trkpt lat="45.8422" lon="1.22623">
        <ele>254.5</ele>
        <time>2024-11-12T10:18:57Z</time>
      </trkpt>
      <trkpt lat="45.84218" lon="1.22623">
        <ele>254.5</ele>
        <time>2024-11-12T10:18:58Z</time>
      </trkpt>
      <trkpt lat="45.84217" lon="1.22623">
        <ele>254.5</ele>
        <time>2024-11-12T10:18:59Z</time>
      </trkpt>
      <trkpt lat="45.84215" lon="1.22623">
        <ele>254.5</ele>
        <time>2024-11-12T10:19:00Z</time>
      </trkpt>
      <trkpt lat="45.84214" lon="1.22623">
        <ele>254.5</ele>
        <time>2024-11-12T10:19:01Z</time>
      </trkpt>
      <trkpt lat="45.84213" lon="1.22623">
        <ele>254.5</ele>
        <time>2024-11-12T10:19:02Z</time>
      </trkpt>
      <trkpt lat="45.84211" lon="1.22622">
        <ele>254.5</ele>
        <time>2024-11-12T10:19:03Z</time>
      </trkpt>
      <trkpt lat="45.8421" lon="1.22622">
        <ele>254.5</ele>
        <time>2024-11-12T10:19:04Z</time>
      </trkpt>
      <trkpt lat="45.84209" lon="1.22622">
        <ele>254.5</ele>
        <time>2024-11-12T10:19:05Z</time>
      </trkpt>
      <trkpt lat="45.84207" lon="1.22621">
        <ele>254.5</ele>
        <time>2024-11-12T10:19:06Z</time>
      </trkpt>
      <trkpt lat="45.84207" lon="1.2262">
        <ele>254.5</ele>
        <time>2024-11-12T10:19:07Z</time>
      </trkpt>
      <trkpt lat="45.84206" lon="1.2262">
        <ele>254.5</ele>
        <time>2024-11-12T10:19:08Z</time>
      </trkpt>
      <trkpt lat="45.84204" lon="1.22619">
        <ele>254.5</ele>
        <time>2024-11-12T10:19:09Z</time>
      </trkpt>
      <trkpt lat="45.84203" lon="1.22619">
        <ele>254.5</ele>
        <time>2024-11-12T10:19:10Z</time>
      </trkpt>
      <trkpt lat="45.84202" lon="1.22619">
        <ele>254.5</ele>
        <time>2024-11-12T10:19:11Z</time>
      </trkpt>
      <trkpt lat="45.84201" lon="1.22619">
        <ele>254.5</ele>
        <time>2024-11-12T10:19:12Z</time>
      </trkpt>
      <trkpt lat="45.84199" lon="1.22619">
        <ele>254.5</ele>
        <time>2024-11-12T10:19:13Z</time>
      </trkpt>
      <trkpt lat="45.84197" lon="1.22619">
        <ele>254.5</ele>
        <time>2024-11-12T10:19:14Z</time>
      </trkpt>
      <trkpt lat="45.84197" lon="1.22619">
        <ele>254.5</ele>
        <time>2024-11-12T10:19:15Z</time>
      </trkpt>
      <trkpt lat="45.84196" lon="1.22619">
        <ele>254.5</ele>
        <time>2024-11-12T10:19:16Z</time>
      </trkpt>
      <trkpt lat="45.84194" lon="1.22618">
        <ele>254.5</ele>
        <time>2024-11-12T10:19:17Z</time>
      </trkpt>
      <trkpt lat="45.84193" lon="1.22618">
        <ele>254.5</ele>
        <time>2024-11-12T10:19:18Z</time>
      </trkpt>
      <trkpt lat="45.84191" lon="1.22617">
        <ele>254.5</ele>
        <time>2024-11-12T10:19:19Z</time>
      </trkpt>
      <trkpt lat="45.8419" lon="1.22617">
        <ele>254.5</ele>
        <time>2024-11-12T10:19:20Z</time>
      </trkpt>
      <trkpt lat="45.84189" lon="1.22616">
        <ele>254.5</ele>
        <time>2024-11-12T10:19:21Z</time>
      </trkpt>
      <trkpt lat="45.84188" lon="1.22616">
        <ele>254.5</ele>
        <time>2024-11-12T10:19:22Z</time>
      </trkpt>
      <trkpt lat="45.84186" lon="1.22616">
        <ele>254.5</ele>
        <time>2024-11-12T10:19:23Z</time>
      </trkpt>
      <trkpt lat="45.84185" lon="1.22615">
        <ele>254.5</ele>
        <time>2024-11-12T10:19:24Z</time>
      </trkpt>
      <trkpt lat="45.84184" lon="1.22615">
        <ele>254.5</ele>
        <time>2024-11-12T10:19:25Z</time>
      </trkpt>
      <trkpt lat="45.84183" lon="1.22614">
        <ele>254.5</ele>
        <time>2024-11-12T10:19:26Z</time>
      </trkpt>
      <trkpt lat="45.8418" lon="1.22614">
        <ele>254.5</ele>
        <time>2024-11-12T10:19:27Z</time>
      </trkpt>
      <trkpt lat="45.84179" lon="1.22613">
        <ele>254.5</ele>
        <time>2024-11-12T10:19:28Z</time>
      </trkpt>
      <trkpt lat="45.84179" lon="1.22613">
        <ele>254.5</ele>
        <time>2024-11-12T10:19:29Z</time>
      </trkpt>
      <trkpt lat="45.84177" lon="1.22613">
        <ele>254.5</ele>
        <time>2024-11-12T10:19:30Z</time>
      </trkpt>
      <trkpt lat="45.84176" lon="1.22613">
        <ele>254.5</ele>
        <time>2024-11-12T10:19:31Z</time>
      </trkpt>
      <trkpt lat="45.84175" lon="1.22612">
        <ele>254.5</ele>
        <time>2024-11-12T10:19:32Z</time>
      </trkpt>
      <trkpt lat="45.84173" lon="1.22612">
        <ele>254.5</ele>
        <time>2024-11-12T10:19:33Z</time>
      </trkpt>
      <trkpt lat="45.84172" lon="1.22612">
        <ele>254.5</ele>
        <time>2024-11-12T10:19:34Z</time>
      </trkpt>
      <trkpt lat="45.84171" lon="1.22611">
        <ele>254.5</ele>
        <time>2024-11-12T10:19:35Z</time>
      </trkpt>
      <trkpt lat="45.8417" lon="1.22611">
        <ele>254.5</ele>
        <time>2024-11-12T10:19:36Z</time>
      </trkpt>
      <trkpt lat="45.84169" lon="1.2261">
        <ele>254.5</ele>
        <time>2024-11-12T10:19:37Z</time>
      </trkpt>
      <trkpt lat="45.84167" lon="1.22609">
        <ele>254.5</ele>
        <time>2024-11-12T10:19:38Z</time>
      </trkpt>
      <trkpt lat="45.84166" lon="1.22609">
        <ele>254.5</ele>
        <time>2024-11-12T10:19:39Z</time>
      </trkpt>
      <trkpt lat="45.84165" lon="1.22609">
        <ele>254.5</ele>
        <time>2024-11-12T10:19:40Z</time>
      </trkpt>
      <trkpt lat="45.84164" lon="1.22608">
        <ele>254.5</ele>
        <time>2024-11-12T10:19:41Z</time>
      </trkpt>
      <trkpt lat="45.84163" lon="1.22607">
        <ele>254.5</ele>
        <time>2024-11-12T10:19:42Z</time>
      </trkpt>
      <trkpt lat="45.84161" lon="1.22607">
        <ele>254.5</ele>
        <time>2024-11-12T10:19:43Z</time>
      </trkpt>
      <trkpt lat="45.84159" lon="1.22606">
        <ele>254.5</ele>
        <time>2024-11-12T10:19:44Z</time>
      </trkpt>
      <trkpt lat="45.84158" lon="1.22606">
        <ele>254.5</ele>
        <time>2024-11-12T10:19:45Z</time>
      </trkpt>
      <trkpt lat="45.84158" lon="1.22606">
        <ele>254.5</ele>
        <time>2024-11-12T10:19:46Z</time>
      </trkpt>
      <trkpt lat="45.84156" lon="1.22606">
        <ele>254.5</ele>
        <time>2024-11-12T10:19:47Z</time>
      </trkpt>
      <trkpt lat="45.84155" lon="1.22605">
        <ele>254.5</ele>
        <time>2024-11-12T10:19:48Z</time>
      </trkpt>
      <trkpt lat="45.84152" lon="1.22605">
        <ele>254.5</ele>
        <time>2024-11-12T10:19:49Z</time>
      </trkpt>
      <trkpt lat="45.84152" lon="1.22605">
        <ele>254.6</ele>
        <time>2024-11-12T10:19:50Z</time>
      </trkpt>
      <trkpt lat="45.84151" lon="1.22605">
        <ele>254.6</ele>
        <time>2024-11-12T10:19:51Z</time>
      </trkpt>
      <trkpt lat="45.84149" lon="1.22605">
        <ele>254.6</ele>
        <time>2024-11-12T10:19:52Z</time>
      </trkpt>
      <trkpt lat="45.84148" lon="1.22605">
        <ele>254.6</ele>
        <time>2024-11-12T10:19:53Z</time>
      </trkpt>
      <trkpt lat="45.84146" lon="1.22604">
        <ele>254.6</ele>
        <time>2024-11-12T10:19:54Z</time>
      </trkpt>
      <trkpt lat="45.84145" lon="1.22604">
        <ele>254.6</ele>
        <time>2024-11-12T10:19:55Z</time>
      </trkpt>
      <trkpt lat="45.84144" lon="1.22604">
        <ele>254.6</ele>
        <time>2024-11-12T10:19:56Z</time>
      </trkpt>
      <trkpt lat="45.84143" lon="1.22604">
        <ele>254.6</ele>
        <time>2024-11-12T10:19:57Z</time>
      </trkpt>
      <trkpt lat="45.84141" lon="1.22603">
        <ele>254.6</ele>
        <time>2024-11-12T10:19:58Z</time>
      </trkpt>
      <trkpt lat="45.84139" lon="1.22602">
        <ele>254.6</ele>
        <time>2024-11-12T10:19:59Z</time>
      </trkpt>
      <trkpt lat="45.84138" lon="1.22602">
        <ele>254.6</ele>
        <time>2024-11-12T10:20:00Z</time>
      </trkpt>
      <trkpt lat="45.84137" lon="1.22602">
        <ele>254.6</ele>
        <time>2024-11-12T10:20:01Z</time>
      </trkpt>
      <trkpt lat="45.84136" lon="1.22602">
        <ele>254.6</ele>
        <time>2024-11-12T10:20:02Z</time>
      </trkpt>
      <trkpt lat="45.84134" lon="1.22601">
        <ele>254.7</ele>
        <time>2024-11-12T10:20:03Z</time>
      </trkpt>
      <trkpt lat="45.84132" lon="1.226">
        <ele>254.7</ele>
        <time>2024-11-12T10:20:04Z</time>
      </trkpt>
      <trkpt lat="45.84131" lon="1.226">
        <ele>254.7</ele>
        <time>2024-11-12T10:20:05Z</time>
      </trkpt>
      <trkpt lat="45.8413" lon="1.226">
        <ele>254.7</ele>
        <time>2024-11-12T10:20:06Z</time>
      </trkpt>
      <trkpt lat="45.84128" lon="1.226">
        <ele>254.7</ele>
        <time>2024-11-12T10:20:07Z</time>
      </trkpt>
      <trkpt lat="45.84127" lon="1.22599">
        <ele>254.7</ele>
        <time>2024-11-12T10:20:08Z</time>
      </trkpt>
      <trkpt lat="45.84126" lon="1.22599">
        <ele>254.7</ele>
        <time>2024-11-12T10:20:09Z</time>
      </trkpt>
      <trkpt lat="45.84124" lon="1.22599">
        <ele>254.7</ele>
        <time>2024-11-12T10:20:10Z</time>
      </trkpt>
      <trkpt lat="45.84123" lon="1.22598">
        <ele>254.7</ele>
        <time>2024-11-12T10:20:11Z</time>
      </trkpt>
      <trkpt lat="45.84121" lon="1.22598">
        <ele>254.7</ele>
        <time>2024-11-12T10:20:12Z</time>
      </trkpt>
      <trkpt lat="45.8412" lon="1.22597">
        <ele>254.8</ele>
        <time>2024-11-12T10:20:13Z</time>
      </trkpt>
      <trkpt lat="45.84118" lon="1.22597">
        <ele>254.8</ele>
        <time>2024-11-12T10:20:14Z</time>
      </trkpt>
      <trkpt lat="45.84117" lon="1.22596">
        <ele>254.8</ele>
        <time>2024-11-12T10:20:15Z</time>
      </trkpt>
      <trkpt lat="45.84116" lon="1.22596">
        <ele>254.8</ele>
        <time>2024-11-12T10:20:16Z</time>
      </trkpt>
      <trkpt lat="45.84114" lon="1.22595">
        <ele>254.8</ele>
        <time>2024-11-12T10:20:17Z</time>
      </trkpt>
      <trkpt lat="45.84113" lon="1.22595">
        <ele>254.8</ele>
        <time>2024-11-12T10:20:18Z</time>
      </trkpt>
      <trkpt lat="45.84112" lon="1.22594">
        <ele>254.8</ele>
        <time>2024-11-12T10:20:19Z</time>
      </trkpt>
      <trkpt lat="45.84111" lon="1.22594">
        <ele>254.8</ele>
        <time>2024-11-12T10:20:20Z</time>
      </trkpt>
      <trkpt lat="45.84109" lon="1.22593">
        <ele>254.8</ele>
        <time>2024-11-12T10:20:21Z</time>
      </trkpt>
      <trkpt lat="45.84108" lon="1.22592">
        <ele>254.8</ele>
        <time>2024-11-12T10:20:22Z</time>
      </trkpt>
      <trkpt lat="45.84107" lon="1.22591">
        <ele>254.8</ele>
        <time>2024-11-12T10:20:23Z</time>
      </trkpt>
      <trkpt lat="45.84105" lon="1.22589">
        <ele>254.8</ele>
        <time>2024-11-12T10:20:24Z</time>
      </trkpt>
      <trkpt lat="45.84104" lon="1.22589">
        <ele>254.8</ele>
        <time>2024-11-12T10:20:25Z</time>
      </trkpt>
      <trkpt lat="45.84103" lon="1.22588">
        <ele>254.8</ele>
        <time>2024-11-12T10:20:26Z</time>
      </trkpt>
      <trkpt lat="45.84102" lon="1.22586">
        <ele>254.8</ele>
        <time>2024-11-12T10:20:27Z</time>
      </trkpt>
      <trkpt lat="45.84101" lon="1.22586">
        <ele>254.8</ele>
        <time>2024-11-12T10:20:28Z</time>
      </trkpt>
      <trkpt lat="45.841" lon="1.22585">
        <ele>254.8</ele>
        <time>2024-11-12T10:20:29Z</time>
      </trkpt>
      <trkpt lat="45.84098" lon="1.22584">
        <ele>254.8</ele>
        <time>2024-11-12T10:20:30Z</time>
      </trkpt>
      <trkpt lat="45.84097" lon="1.22584">
        <ele>254.8</ele>
        <time>2024-11-12T10:20:31Z</time>
      </trkpt>
      <trkpt lat="45.84096" lon="1.22583">
        <ele>254.8</ele>
        <time>2024-11-12T10:20:32Z</time>
      </trkpt>
      <trkpt lat="45.84095" lon="1.22582">
        <ele>254.8</ele>
        <time>2024-11-12T10:20:33Z</time>
      </trkpt>
      <trkpt lat="45.84094" lon="1.22581">
        <ele>254.8</ele>
        <time>2024-11-12T10:20:34Z</time>
      </trkpt>
      <trkpt lat="45.84092" lon="1.2258">
        <ele>254.8</ele>
        <time>2024-11-12T10:20:35Z</time>
      </trkpt>
      <trkpt lat="45.84091" lon="1.22579">
        <ele>254.8</ele>
        <time>2024-11-12T10:20:36Z</time>
      </trkpt>
      <trkpt lat="45.8409" lon="1.22579">
        <ele>254.8</ele>
        <time>2024-11-12T10:20:37Z</time>
      </trkpt>
      <trkpt lat="45.84089" lon="1.22578">
        <ele>254.8</ele>
        <time>2024-11-12T10:20:38Z</time>
      </trkpt>
      <trkpt lat="45.84088" lon="1.22577">
        <ele>254.8</ele>
        <time>2024-11-12T10:20:39Z</time>
      </trkpt>
      <trkpt lat="45.84087" lon="1.22575">
        <ele>254.8</ele>
        <time>2024-11-12T10:20:40Z</time>
      </trkpt>
      <trkpt lat="45.84085" lon="1.22574">
        <ele>254.8</ele>
        <time>2024-11-12T10:20:41Z</time>
      </trkpt>
      <trkpt lat="45.84084" lon="1.22573">
        <ele>254.8</ele>
        <time>2024-11-12T10:20:42Z</time>
      </trkpt>
      <trkpt lat="45.84083" lon="1.22572">
        <ele>254.8</ele>
        <time>2024-11-12T10:20:43Z</time>
      </trkpt>
      <trkpt lat="45.84081" lon="1.2257">
        <ele>254.8</ele>
        <time>2024-11-12T10:20:44Z</time>
      </trkpt>
      <trkpt lat="45.8408" lon="1.22569">
        <ele>254.8</ele>
        <time>2024-11-12T10:20:45Z</time>
      </trkpt>
      <trkpt lat="45.8408" lon="1.22568">
        <ele>254.8</ele>
        <time>2024-11-12T10:20:46Z</time>
      </trkpt>
      <trkpt lat="45.84078" lon="1.22567">
        <ele>254.8</ele>
        <time>2024-11-12T10:20:47Z</time>
      </trkpt>
      <trkpt lat="45.84077" lon="1.22566">
        <ele>254.7</ele>
        <time>2024-11-12T10:20:48Z</time>
      </trkpt>
      <trkpt lat="45.84076" lon="1.22564">
        <ele>254.7</ele>
        <time>2024-11-12T10:20:49Z</time>
      </trkpt>
      <trkpt lat="45.84075" lon="1.22563">
        <ele>254.7</ele>
        <time>2024-11-12T10:20:50Z</time>
      </trkpt>
      <trkpt lat="45.84074" lon="1.22562">
        <ele>254.7</ele>
        <time>2024-11-12T10:20:51Z</time>
      </trkpt>
      <trkpt lat="45.84073" lon="1.22561">
        <ele>254.7</ele>
        <time>2024-11-12T10:20:52Z</time>
      </trkpt>
      <trkpt lat="45.84072" lon="1.22559">
        <ele>254.7</ele>
        <time>2024-11-12T10:20:53Z</time>
      </trkpt>
      <trkpt lat="45.84071" lon="1.22558">
        <ele>254.7</ele>
        <time>2024-11-12T10:20:54Z</time>
      </trkpt>
      <trkpt lat="45.84071" lon="1.22556">
        <ele>254.7</ele>
        <time>2024-11-12T10:20:55Z</time>
      </trkpt>
      <trkpt lat="45.8407" lon="1.22554">
        <ele>254.6</ele>
        <time>2024-11-12T10:20:56Z</time>
      </trkpt>
      <trkpt lat="45.84069" lon="1.22553">
        <ele>254.6</ele>
        <time>2024-11-12T10:20:57Z</time>
      </trkpt>
      <trkpt lat="45.84068" lon="1.22551">
        <ele>254.6</ele>
        <time>2024-11-12T10:20:58Z</time>
      </trkpt>
      <trkpt lat="45.84067" lon="1.22549">
        <ele>254.6</ele>
        <time>2024-11-12T10:20:59Z</time>
      </trkpt>
      <trkpt lat="45.84066" lon="1.22548">
        <ele>254.6</ele>
        <time>2024-11-12T10:21:00Z</time>
      </trkpt>
      <trkpt lat="45.84066" lon="1.22547">
        <ele>254.6</ele>
        <time>2024-11-12T10:21:01Z</time>
      </trkpt>
      <trkpt lat="45.84065" lon="1.22545">
        <ele>254.5</ele>
        <time>2024-11-12T10:21:02Z</time>
      </trkpt>
      <trkpt lat="45.84064" lon="1.22544">
        <ele>254.5</ele>
        <time>2024-11-12T10:21:03Z</time>
      </trkpt>
      <trkpt lat="45.84063" lon="1.22543">
        <ele>254.5</ele>
        <time>2024-11-12T10:21:04Z</time>
      </trkpt>
      <trkpt lat="45.84062" lon="1.22542">
        <ele>254.5</ele>
        <time>2024-11-12T10:21:05Z</time>
      </trkpt>
      <trkpt lat="45.84061" lon="1.22542">
        <ele>254.5</ele>
        <time>2024-11-12T10:21:06Z</time>
      </trkpt>
      <trkpt lat="45.84061" lon="1.22541">
        <ele>254.5</ele>
        <time>2024-11-12T10:21:07Z</time>
      </trkpt>
      <trkpt lat="45.84059" lon="1.22538">
        <ele>254.4</ele>
        <time>2024-11-12T10:21:08Z</time>
      </trkpt>
      <trkpt lat="45.84058" lon="1.22537">
        <ele>254.4</ele>
        <time>2024-11-12T10:21:09Z</time>
      </trkpt>
      <trkpt lat="45.84057" lon="1.22536">
        <ele>254.4</ele>
        <time>2024-11-12T10:21:11Z</time>
      </trkpt>
      <trkpt lat="45.84056" lon="1.22534">
        <ele>254.4</ele>
        <time>2024-11-12T10:21:12Z</time>
      </trkpt>
      <trkpt lat="45.84055" lon="1.22534">
        <ele>254.4</ele>
        <time>2024-11-12T10:21:13Z</time>
      </trkpt>
      <trkpt lat="45.84053" lon="1.22533">
        <ele>254.4</ele>
        <time>2024-11-12T10:21:14Z</time>
      </trkpt>
      <trkpt lat="45.84053" lon="1.22531">
        <ele>254.4</ele>
        <time>2024-11-12T10:21:15Z</time>
      </trkpt>
      <trkpt lat="45.84052" lon="1.2253">
        <ele>254.3</ele>
        <time>2024-11-12T10:21:16Z</time>
      </trkpt>
      <trkpt lat="45.8405" lon="1.22528">
        <ele>254.3</ele>
        <time>2024-11-12T10:21:17Z</time>
      </trkpt>
      <trkpt lat="45.84049" lon="1.22527">
        <ele>254.3</ele>
        <time>2024-11-12T10:21:18Z</time>
      </trkpt>
      <trkpt lat="45.84048" lon="1.22525">
        <ele>254.3</ele>
        <time>2024-11-12T10:21:19Z</time>
      </trkpt>
      <trkpt lat="45.84047" lon="1.22524">
        <ele>254.3</ele>
        <time>2024-11-12T10:21:20Z</time>
      </trkpt>
      <trkpt lat="45.84046" lon="1.22523">
        <ele>254.2</ele>
        <time>2024-11-12T10:21:21Z</time>
      </trkpt>
      <trkpt lat="45.84045" lon="1.22521">
        <ele>254.2</ele>
        <time>2024-11-12T10:21:22Z</time>
      </trkpt>
      <trkpt lat="45.84044" lon="1.2252">
        <ele>254.2</ele>
        <time>2024-11-12T10:21:23Z</time>
      </trkpt>
      <trkpt lat="45.84043" lon="1.22519">
        <ele>254.2</ele>
        <time>2024-11-12T10:21:24Z</time>
      </trkpt>
      <trkpt lat="45.84041" lon="1.22516">
        <ele>254.2</ele>
        <time>2024-11-12T10:21:25Z</time>
      </trkpt>
      <trkpt lat="45.84041" lon="1.22515">
        <ele>254.2</ele>
        <time>2024-11-12T10:21:26Z</time>
      </trkpt>
      <trkpt lat="45.8404" lon="1.22514">
        <ele>254.1</ele>
        <time>2024-11-12T10:21:27Z</time>
      </trkpt>
      <trkpt lat="45.84039" lon="1.22512">
        <ele>254.1</ele>
        <time>2024-11-12T10:21:28Z</time>
      </trkpt>
      <trkpt lat="45.84039" lon="1.2251">
        <ele>254.1</ele>
        <time>2024-11-12T10:21:29Z</time>
      </trkpt>
      <trkpt lat="45.84039" lon="1.22507">
        <ele>254.1</ele>
        <time>2024-11-12T10:21:30Z</time>
      </trkpt>
      <trkpt lat="45.84039" lon="1.22506">
        <ele>254.1</ele>
        <time>2024-11-12T10:21:31Z</time>
      </trkpt>
      <trkpt lat="45.84039" lon="1.22504">
        <ele>254.1</ele>
        <time>2024-11-12T10:21:32Z</time>
      </trkpt>
      <trkpt lat="45.8404" lon="1.22503">
        <ele>254</ele>
        <time>2024-11-12T10:21:33Z</time>
      </trkpt>
      <trkpt lat="45.84041" lon="1.22501">
        <ele>254</ele>
        <time>2024-11-12T10:21:34Z</time>
      </trkpt>
      <trkpt lat="45.84042" lon="1.22498">
        <ele>254</ele>
        <time>2024-11-12T10:21:35Z</time>
      </trkpt>
      <trkpt lat="45.84042" lon="1.22497">
        <ele>253.9</ele>
        <time>2024-11-12T10:21:36Z</time>
      </trkpt>
      <trkpt lat="45.84043" lon="1.22496">
        <ele>253.9</ele>
        <time>2024-11-12T10:21:37Z</time>
      </trkpt>
      <trkpt lat="45.84044" lon="1.22494">
        <ele>253.9</ele>
        <time>2024-11-12T10:21:38Z</time>
      </trkpt>
      <trkpt lat="45.84044" lon="1.22492">
        <ele>253.9</ele>
        <time>2024-11-12T10:21:39Z</time>
      </trkpt>
      <trkpt lat="45.84045" lon="1.22489">
        <ele>253.8</ele>
        <time>2024-11-12T10:21:40Z</time>
      </trkpt>
      <trkpt lat="45.84045" lon="1.22487">
        <ele>253.8</ele>
        <time>2024-11-12T10:21:41Z</time>
      </trkpt>
      <trkpt lat="45.84046" lon="1.22486">
        <ele>253.8</ele>
        <time>2024-11-12T10:21:42Z</time>
      </trkpt>
      <trkpt lat="45.84046" lon="1.22484">
        <ele>253.7</ele>
        <time>2024-11-12T10:21:43Z</time>
      </trkpt>
      <trkpt lat="45.84046" lon="1.22482">
        <ele>253.7</ele>
        <time>2024-11-12T10:21:44Z</time>
      </trkpt>
      <trkpt lat="45.84046" lon="1.22478">
        <ele>253.6</ele>
        <time>2024-11-12T10:21:45Z</time>
      </trkpt>
      <trkpt lat="45.84046" lon="1.22476">
        <ele>253.6</ele>
        <time>2024-11-12T10:21:46Z</time>
      </trkpt>
      <trkpt lat="45.84046" lon="1.22474">
        <ele>253.6</ele>
        <time>2024-11-12T10:21:47Z</time>
      </trkpt>
      <trkpt lat="45.84046" lon="1.2247">
        <ele>253.5</ele>
        <time>2024-11-12T10:21:49Z</time>
      </trkpt>
      <trkpt lat="45.84046" lon="1.22469">
        <ele>253.5</ele>
        <time>2024-11-12T10:21:50Z</time>
      </trkpt>
      <trkpt lat="45.84046" lon="1.22467">
        <ele>253.5</ele>
        <time>2024-11-12T10:21:51Z</time>
      </trkpt>
      <trkpt lat="45.84046" lon="1.22466">
        <ele>253.5</ele>
        <time>2024-11-12T10:21:52Z</time>
      </trkpt>
      <trkpt lat="45.84046" lon="1.22464">
        <ele>253.4</ele>
        <time>2024-11-12T10:21:53Z</time>
      </trkpt>
      <trkpt lat="45.84045" lon="1.22462">
        <ele>253.4</ele>
        <time>2024-11-12T10:21:54Z</time>
      </trkpt>
      <trkpt lat="45.84045" lon="1.2246">
        <ele>253.4</ele>
        <time>2024-11-12T10:21:55Z</time>
      </trkpt>
      <trkpt lat="45.84045" lon="1.22458">
        <ele>253.3</ele>
        <time>2024-11-12T10:21:56Z</time>
      </trkpt>
      <trkpt lat="45.84044" lon="1.22456">
        <ele>253.3</ele>
        <time>2024-11-12T10:21:57Z</time>
      </trkpt>
      <trkpt lat="45.84043" lon="1.22454">
        <ele>253.3</ele>
        <time>2024-11-12T10:21:58Z</time>
      </trkpt>
      <trkpt lat="45.84041" lon="1.22453">
        <ele>253.2</ele>
        <time>2024-11-12T10:21:59Z</time>
      </trkpt>
      <trkpt lat="45.8404" lon="1.22452">
        <ele>253.2</ele>
        <time>2024-11-12T10:22:00Z</time>
      </trkpt>
      <trkpt lat="45.84039" lon="1.22451">
        <ele>253.1</ele>
        <time>2024-11-12T10:22:01Z</time>
      </trkpt>
      <trkpt lat="45.84037" lon="1.22451">
        <ele>253.1</ele>
        <time>2024-11-12T10:22:02Z</time>
      </trkpt>
      <trkpt lat="45.84036" lon="1.22451">
        <ele>253.1</ele>
        <time>2024-11-12T10:22:03Z</time>
      </trkpt>
      <trkpt lat="45.84034" lon="1.22451">
        <ele>253</ele>
        <time>2024-11-12T10:22:04Z</time>
      </trkpt>
      <trkpt lat="45.84033" lon="1.22452">
        <ele>253</ele>
        <time>2024-11-12T10:22:05Z</time>
      </trkpt>
      <trkpt lat="45.84031" lon="1.22452">
        <ele>252.9</ele>
        <time>2024-11-12T10:22:06Z</time>
      </trkpt>
      <trkpt lat="45.84029" lon="1.22453">
        <ele>252.9</ele>
        <time>2024-11-12T10:22:07Z</time>
      </trkpt>
      <trkpt lat="45.84028" lon="1.22453">
        <ele>252.9</ele>
        <time>2024-11-12T10:22:08Z</time>
      </trkpt>
      <trkpt lat="45.84026" lon="1.22454">
        <ele>252.8</ele>
        <time>2024-11-12T10:22:09Z</time>
      </trkpt>
      <trkpt lat="45.84025" lon="1.22454">
        <ele>252.8</ele>
        <time>2024-11-12T10:22:10Z</time>
      </trkpt>
      <trkpt lat="45.84023" lon="1.22455">
        <ele>252.8</ele>
        <time>2024-11-12T10:22:11Z</time>
      </trkpt>
      <trkpt lat="45.84022" lon="1.22455">
        <ele>252.7</ele>
        <time>2024-11-12T10:22:12Z</time>
      </trkpt>
      <trkpt lat="45.8402" lon="1.22456">
        <ele>252.7</ele>
        <time>2024-11-12T10:22:13Z</time>
      </trkpt>
      <trkpt lat="45.84019" lon="1.22456">
        <ele>252.7</ele>
        <time>2024-11-12T10:22:14Z</time>
      </trkpt>
      <trkpt lat="45.84017" lon="1.22457">
        <ele>252.6</ele>
        <time>2024-11-12T10:22:15Z</time>
      </trkpt>
      <trkpt lat="45.84016" lon="1.22457">
        <ele>252.6</ele>
        <time>2024-11-12T10:22:16Z</time>
      </trkpt>
      <trkpt lat="45.84015" lon="1.22458">
        <ele>252.6</ele>
        <time>2024-11-12T10:22:17Z</time>
      </trkpt>
      <trkpt lat="45.84013" lon="1.22458">
        <ele>252.6</ele>
        <time>2024-11-12T10:22:18Z</time>
      </trkpt>
      <trkpt lat="45.84012" lon="1.22459">
        <ele>252.5</ele>
        <time>2024-11-12T10:22:19Z</time>
      </trkpt>
      <trkpt lat="45.8401" lon="1.22459">
        <ele>252.5</ele>
        <time>2024-11-12T10:22:20Z</time>
      </trkpt>
      <trkpt lat="45.84009" lon="1.22459">
        <ele>252.5</ele>
        <time>2024-11-12T10:22:21Z</time>
      </trkpt>
      <trkpt lat="45.84007" lon="1.22459">
        <ele>252.5</ele>
        <time>2024-11-12T10:22:22Z</time>
      </trkpt>
      <trkpt lat="45.84006" lon="1.22459">
        <ele>252.5</ele>
        <time>2024-11-12T10:22:23Z</time>
      </trkpt>
      <trkpt lat="45.84004" lon="1.22459">
        <ele>252.4</ele>
        <time>2024-11-12T10:22:24Z</time>
      </trkpt>
      <trkpt lat="45.84003" lon="1.22459">
        <ele>252.4</ele>
        <time>2024-11-12T10:22:25Z</time>
      </trkpt>
      <trkpt lat="45.84001" lon="1.22459">
        <ele>252.4</ele>
        <time>2024-11-12T10:22:26Z</time>
      </trkpt>
      <trkpt lat="45.84" lon="1.22459">
        <ele>252.4</ele>
        <time>2024-11-12T10:22:27Z</time>
      </trkpt>
      <trkpt lat="45.83999" lon="1.22459">
        <ele>252.4</ele>
        <time>2024-11-12T10:22:28Z</time>
      </trkpt>
      <trkpt lat="45.83997" lon="1.22459">
        <ele>252.3</ele>
        <time>2024-11-12T10:22:29Z</time>
      </trkpt>
      <trkpt lat="45.83996" lon="1.22458">
        <ele>252.3</ele>
        <time>2024-11-12T10:22:30Z</time>
      </trkpt>
      <trkpt lat="45.83994" lon="1.22458">
        <ele>252.3</ele>
        <time>2024-11-12T10:22:31Z</time>
      </trkpt>
      <trkpt lat="45.83993" lon="1.22458">
        <ele>252.3</ele>
        <time>2024-11-12T10:22:32Z</time>
      </trkpt>
      <trkpt lat="45.83991" lon="1.22457">
        <ele>252.3</ele>
        <time>2024-11-12T10:22:33Z</time>
      </trkpt>
      <trkpt lat="45.8399" lon="1.22457">
        <ele>252.3</ele>
        <time>2024-11-12T10:22:34Z</time>
      </trkpt>
      <trkpt lat="45.83988" lon="1.22455">
        <ele>252.3</ele>
        <time>2024-11-12T10:22:35Z</time>
      </trkpt>
      <trkpt lat="45.83987" lon="1.22455">
        <ele>252.3</ele>
        <time>2024-11-12T10:22:36Z</time>
      </trkpt>
      <trkpt lat="45.83986" lon="1.22454">
        <ele>252.2</ele>
        <time>2024-11-12T10:22:37Z</time>
      </trkpt>
      <trkpt lat="45.83985" lon="1.22453">
        <ele>252.2</ele>
        <time>2024-11-12T10:22:38Z</time>
      </trkpt>
      <trkpt lat="45.83984" lon="1.22452">
        <ele>252.2</ele>
        <time>2024-11-12T10:22:39Z</time>
      </trkpt>
      <trkpt lat="45.83982" lon="1.22451">
        <ele>252.2</ele>
        <time>2024-11-12T10:22:40Z</time>
      </trkpt>
      <trkpt lat="45.83981" lon="1.22449">
        <ele>252.2</ele>
        <time>2024-11-12T10:22:41Z</time>
      </trkpt>
      <trkpt lat="45.8398" lon="1.22448">
        <ele>252.2</ele>
        <time>2024-11-12T10:22:42Z</time>
      </trkpt>
      <trkpt lat="45.83979" lon="1.22447">
        <ele>252.2</ele>
        <time>2024-11-12T10:22:43Z</time>
      </trkpt>
      <trkpt lat="45.83978" lon="1.22445">
        <ele>252.2</ele>
        <time>2024-11-12T10:22:44Z</time>
      </trkpt>
      <trkpt lat="45.83977" lon="1.22444">
        <ele>252.2</ele>
        <time>2024-11-12T10:22:45Z</time>
      </trkpt>
      <trkpt lat="45.83976" lon="1.22442">
        <ele>252.2</ele>
        <time>2024-11-12T10:22:46Z</time>
      </trkpt>
      <trkpt lat="45.83975" lon="1.22441">
        <ele>252.3</ele>
        <time>2024-11-12T10:22:47Z</time>
      </trkpt>
      <trkpt lat="45.83975" lon="1.22439">
        <ele>252.3</ele>
        <time>2024-11-12T10:22:48Z</time>
      </trkpt>
      <trkpt lat="45.83974" lon="1.22437">
        <ele>252.3</ele>
        <time>2024-11-12T10:22:49Z</time>
      </trkpt>
      <trkpt lat="45.83973" lon="1.22435">
        <ele>252.3</ele>
        <time>2024-11-12T10:22:50Z</time>
      </trkpt>
      <trkpt lat="45.83973" lon="1.22433">
        <ele>252.3</ele>
        <time>2024-11-12T10:22:51Z</time>
      </trkpt>
      <trkpt lat="45.83973" lon="1.22431">
        <ele>252.3</ele>
        <time>2024-11-12T10:22:52Z</time>
      </trkpt>
      <trkpt lat="45.83972" lon="1.2243">
        <ele>252.3</ele>
        <time>2024-11-12T10:22:53Z</time>
      </trkpt>
      <trkpt lat="45.83972" lon="1.22427">
        <ele>252.4</ele>
        <time>2024-11-12T10:22:54Z</time>
      </trkpt>
      <trkpt lat="45.83971" lon="1.22424">
        <ele>252.4</ele>
        <time>2024-11-12T10:22:55Z</time>
      </trkpt>
      <trkpt lat="45.83971" lon="1.22423">
        <ele>252.4</ele>
        <time>2024-11-12T10:22:56Z</time>
      </trkpt>
      <trkpt lat="45.83971" lon="1.22422">
        <ele>252.4</ele>
        <time>2024-11-12T10:22:57Z</time>
      </trkpt>
      <trkpt lat="45.8397" lon="1.2242">
        <ele>252.4</ele>
        <time>2024-11-12T10:22:58Z</time>
      </trkpt>
      <trkpt lat="45.8397" lon="1.22417">
        <ele>252.5</ele>
        <time>2024-11-12T10:22:59Z</time>
      </trkpt>
      <trkpt lat="45.8397" lon="1.22415">
        <ele>252.5</ele>
        <time>2024-11-12T10:23:00Z</time>
      </trkpt>
      <trkpt lat="45.8397" lon="1.22413">
        <ele>252.5</ele>
        <time>2024-11-12T10:23:01Z</time>
      </trkpt>
      <trkpt lat="45.8397" lon="1.22412">
        <ele>252.5</ele>
        <time>2024-11-12T10:23:02Z</time>
      </trkpt>
      <trkpt lat="45.83969" lon="1.2241">
        <ele>252.5</ele>
        <time>2024-11-12T10:23:03Z</time>
      </trkpt>
      <trkpt lat="45.83969" lon="1.22408">
        <ele>252.5</ele>
        <time>2024-11-12T10:23:04Z</time>
      </trkpt>
      <trkpt lat="45.83968" lon="1.22407">
        <ele>252.6</ele>
        <time>2024-11-12T10:23:05Z</time>
      </trkpt>
      <trkpt lat="45.83968" lon="1.22405">
        <ele>252.6</ele>
        <time>2024-11-12T10:23:06Z</time>
      </trkpt>
      <trkpt lat="45.83968" lon="1.22403">
        <ele>252.6</ele>
        <time>2024-11-12T10:23:07Z</time>
      </trkpt>
      <trkpt lat="45.83968" lon="1.22401">
        <ele>252.6</ele>
        <time>2024-11-12T10:23:08Z</time>
      </trkpt>
      <trkpt lat="45.83967" lon="1.22398">
        <ele>252.6</ele>
        <time>2024-11-12T10:23:09Z</time>
      </trkpt>
      <trkpt lat="45.83967" lon="1.22398">
        <ele>252.6</ele>
        <time>2024-11-12T10:23:10Z</time>
      </trkpt>
      <trkpt lat="45.83966" lon="1.22396">
        <ele>252.6</ele>
        <time>2024-11-12T10:23:11Z</time>
      </trkpt>
      <trkpt lat="45.83966" lon="1.22394">
        <ele>252.6</ele>
        <time>2024-11-12T10:23:12Z</time>
      </trkpt>
      <trkpt lat="45.83965" lon="1.22393">
        <ele>252.6</ele>
        <time>2024-11-12T10:23:13Z</time>
      </trkpt>
      <trkpt lat="45.83964" lon="1.22391">
        <ele>252.7</ele>
        <time>2024-11-12T10:23:14Z</time>
      </trkpt>
      <trkpt lat="45.83964" lon="1.22389">
        <ele>252.7</ele>
        <time>2024-11-12T10:23:15Z</time>
      </trkpt>
      <trkpt lat="45.83963" lon="1.22388">
        <ele>252.7</ele>
        <time>2024-11-12T10:23:16Z</time>
      </trkpt>
      <trkpt lat="45.83963" lon="1.22386">
        <ele>252.7</ele>
        <time>2024-11-12T10:23:17Z</time>
      </trkpt>
      <trkpt lat="45.83962" lon="1.22385">
        <ele>252.7</ele>
        <time>2024-11-12T10:23:18Z</time>
      </trkpt>
      <trkpt lat="45.83961" lon="1.22383">
        <ele>252.7</ele>
        <time>2024-11-12T10:23:19Z</time>
      </trkpt>
      <trkpt lat="45.83961" lon="1.22383">
        <ele>252.7</ele>
        <time>2024-11-12T10:23:20Z</time>
      </trkpt>
      <trkpt lat="45.8396" lon="1.22382">
        <ele>252.7</ele>
        <time>2024-11-12T10:23:21Z</time>
      </trkpt>
      <trkpt lat="45.83959" lon="1.2238">
        <ele>252.7</ele>
        <time>2024-11-12T10:23:22Z</time>
      </trkpt>
      <trkpt lat="45.83959" lon="1.22379">
        <ele>252.7</ele>
        <time>2024-11-12T10:23:23Z</time>
      </trkpt>
      <trkpt lat="45.83957" lon="1.22377">
        <ele>252.7</ele>
        <time>2024-11-12T10:23:24Z</time>
      </trkpt>
      <trkpt lat="45.83956" lon="1.22376">
        <ele>252.7</ele>
        <time>2024-11-12T10:23:25Z</time>
      </trkpt>
      <trkpt lat="45.83956" lon="1.22376">
        <ele>252.7</ele>
        <time>2024-11-12T10:23:26Z</time>
      </trkpt>
      <trkpt lat="45.83954" lon="1.22373">
        <ele>252.7</ele>
        <time>2024-11-12T10:23:27Z</time>
      </trkpt>
      <trkpt lat="45.83954" lon="1.22372">
        <ele>252.7</ele>
        <time>2024-11-12T10:23:28Z</time>
      </trkpt>
      <trkpt lat="45.83953" lon="1.22371">
        <ele>252.7</ele>
        <time>2024-11-12T10:23:29Z</time>
      </trkpt>
      <trkpt lat="45.83952" lon="1.2237">
        <ele>252.7</ele>
        <time>2024-11-12T10:23:30Z</time>
      </trkpt>
      <trkpt lat="45.83951" lon="1.22369">
        <ele>252.7</ele>
        <time>2024-11-12T10:23:31Z</time>
      </trkpt>
      <trkpt lat="45.8395" lon="1.22368">
        <ele>252.7</ele>
        <time>2024-11-12T10:23:32Z</time>
      </trkpt>
      <trkpt lat="45.83949" lon="1.22367">
        <ele>252.7</ele>
        <time>2024-11-12T10:23:33Z</time>
      </trkpt>
      <trkpt lat="45.83948" lon="1.22366">
        <ele>252.7</ele>
        <time>2024-11-12T10:23:34Z</time>
      </trkpt>
      <trkpt lat="45.83947" lon="1.22365">
        <ele>252.7</ele>
        <time>2024-11-12T10:23:35Z</time>
      </trkpt>
      <trkpt lat="45.83946" lon="1.22363">
        <ele>252.7</ele>
        <time>2024-11-12T10:23:36Z</time>
      </trkpt>
      <trkpt lat="45.83946" lon="1.22362">
        <ele>252.7</ele>
        <time>2024-11-12T10:23:37Z</time>
      </trkpt>
      <trkpt lat="45.83944" lon="1.22361">
        <ele>252.7</ele>
        <time>2024-11-12T10:23:38Z</time>
      </trkpt>
      <trkpt lat="45.83943" lon="1.2236">
        <ele>252.7</ele>
        <time>2024-11-12T10:23:39Z</time>
      </trkpt>
      <trkpt lat="45.83943" lon="1.22359">
        <ele>252.7</ele>
        <time>2024-11-12T10:23:40Z</time>
      </trkpt>
      <trkpt lat="45.83941" lon="1.22358">
        <ele>252.7</ele>
        <time>2024-11-12T10:23:41Z</time>
      </trkpt>
      <trkpt lat="45.8394" lon="1.22357">
        <ele>252.7</ele>
        <time>2024-11-12T10:23:42Z</time>
      </trkpt>
      <trkpt lat="45.83939" lon="1.22356">
        <ele>252.7</ele>
        <time>2024-11-12T10:23:43Z</time>
      </trkpt>
      <trkpt lat="45.83937" lon="1.22354">
        <ele>252.7</ele>
        <time>2024-11-12T10:23:44Z</time>
      </trkpt>
      <trkpt lat="45.83936" lon="1.22354">
        <ele>252.7</ele>
        <time>2024-11-12T10:23:45Z</time>
      </trkpt>
      <trkpt lat="45.83936" lon="1.22353">
        <ele>252.7</ele>
        <time>2024-11-12T10:23:46Z</time>
      </trkpt>
      <trkpt lat="45.83934" lon="1.22351">
        <ele>252.7</ele>
        <time>2024-11-12T10:23:47Z</time>
      </trkpt>
      <trkpt lat="45.83933" lon="1.2235">
        <ele>252.7</ele>
        <time>2024-11-12T10:23:48Z</time>
      </trkpt>
      <trkpt lat="45.83932" lon="1.22349">
        <ele>252.7</ele>
        <time>2024-11-12T10:23:49Z</time>
      </trkpt>
      <trkpt lat="45.83932" lon="1.22347">
        <ele>252.7</ele>
        <time>2024-11-12T10:23:50Z</time>
      </trkpt>
      <trkpt lat="45.83932" lon="1.22345">
        <ele>252.7</ele>
        <time>2024-11-12T10:23:51Z</time>
      </trkpt>
      <trkpt lat="45.83932" lon="1.22344">
        <ele>252.7</ele>
        <time>2024-11-12T10:23:52Z</time>
      </trkpt>
      <trkpt lat="45.83931" lon="1.22343">
        <ele>252.7</ele>
        <time>2024-11-12T10:23:53Z</time>
      </trkpt>
      <trkpt lat="45.83929" lon="1.22341">
        <ele>252.7</ele>
        <time>2024-11-12T10:23:54Z</time>
      </trkpt>
      <trkpt lat="45.83928" lon="1.2234">
        <ele>252.7</ele>
        <time>2024-11-12T10:23:55Z</time>
      </trkpt>
      <trkpt lat="45.83927" lon="1.22339">
        <ele>252.7</ele>
        <time>2024-11-12T10:23:56Z</time>
      </trkpt>
      <trkpt lat="45.83926" lon="1.22339">
        <ele>252.7</ele>
        <time>2024-11-12T10:23:57Z</time>
      </trkpt>
      <trkpt lat="45.83925" lon="1.22337">
        <ele>252.8</ele>
        <time>2024-11-12T10:23:58Z</time>
      </trkpt>
      <trkpt lat="45.83924" lon="1.22335">
        <ele>252.8</ele>
        <time>2024-11-12T10:23:59Z</time>
      </trkpt>
      <trkpt lat="45.83923" lon="1.22334">
        <ele>252.8</ele>
        <time>2024-11-12T10:24:00Z</time>
      </trkpt>
      <trkpt lat="45.83922" lon="1.22333">
        <ele>252.8</ele>
        <time>2024-11-12T10:24:01Z</time>
      </trkpt>
      <trkpt lat="45.83921" lon="1.22332">
        <ele>252.8</ele>
        <time>2024-11-12T10:24:02Z</time>
      </trkpt>
      <trkpt lat="45.8392" lon="1.22331">
        <ele>252.8</ele>
        <time>2024-11-12T10:24:03Z</time>
      </trkpt>
      <trkpt lat="45.83918" lon="1.22329">
        <ele>252.8</ele>
        <time>2024-11-12T10:24:04Z</time>
      </trkpt>
      <trkpt lat="45.83918" lon="1.22328">
        <ele>252.8</ele>
        <time>2024-11-12T10:24:05Z</time>
      </trkpt>
      <trkpt lat="45.83917" lon="1.22327">
        <ele>252.8</ele>
        <time>2024-11-12T10:24:06Z</time>
      </trkpt>
      <trkpt lat="45.83916" lon="1.22326">
        <ele>252.9</ele>
        <time>2024-11-12T10:24:07Z</time>
      </trkpt>
      <trkpt lat="45.83915" lon="1.22323">
        <ele>252.9</ele>
        <time>2024-11-12T10:24:08Z</time>
      </trkpt>
      <trkpt lat="45.83914" lon="1.22322">
        <ele>252.9</ele>
        <time>2024-11-12T10:24:09Z</time>
      </trkpt>
      <trkpt lat="45.83914" lon="1.22321">
        <ele>252.9</ele>
        <time>2024-11-12T10:24:10Z</time>
      </trkpt>
      <trkpt lat="45.83912" lon="1.2232">
        <ele>252.9</ele>
        <time>2024-11-12T10:24:11Z</time>
      </trkpt>
      <trkpt lat="45.83911" lon="1.22319">
        <ele>252.9</ele>
        <time>2024-11-12T10:24:12Z</time>
      </trkpt>
      <trkpt lat="45.8391" lon="1.22319">
        <ele>252.9</ele>
        <time>2024-11-12T10:24:13Z</time>
      </trkpt>
      <trkpt lat="45.83909" lon="1.22318">
        <ele>252.9</ele>
        <time>2024-11-12T10:24:14Z</time>
      </trkpt>
      <trkpt lat="45.83908" lon="1.22316">
        <ele>252.9</ele>
        <time>2024-11-12T10:24:15Z</time>
      </trkpt>
      <trkpt lat="45.83906" lon="1.22314">
        <ele>253</ele>
        <time>2024-11-12T10:24:16Z</time>
      </trkpt>
      <trkpt lat="45.83905" lon="1.22313">
        <ele>253</ele>
        <time>2024-11-12T10:24:17Z</time>
      </trkpt>
      <trkpt lat="45.83905" lon="1.22312">
        <ele>253</ele>
        <time>2024-11-12T10:24:18Z</time>
      </trkpt>
      <trkpt lat="45.83904" lon="1.22311">
        <ele>253</ele>
        <time>2024-11-12T10:24:19Z</time>
      </trkpt>
      <trkpt lat="45.83903" lon="1.2231">
        <ele>253</ele>
        <time>2024-11-12T10:24:20Z</time>
      </trkpt>
      <trkpt lat="45.83901" lon="1.22308">
        <ele>253</ele>
        <time>2024-11-12T10:24:21Z</time>
      </trkpt>
      <trkpt lat="45.839" lon="1.22307">
        <ele>253</ele>
        <time>2024-11-12T10:24:22Z</time>
      </trkpt>
      <trkpt lat="45.839" lon="1.22306">
        <ele>253</ele>
        <time>2024-11-12T10:24:23Z</time>
      </trkpt>
      <trkpt lat="45.83899" lon="1.22305">
        <ele>253</ele>
        <time>2024-11-12T10:24:24Z</time>
      </trkpt>
      <trkpt lat="45.83898" lon="1.22303">
        <ele>253</ele>
        <time>2024-11-12T10:24:25Z</time>
      </trkpt>
      <trkpt lat="45.83897" lon="1.22302">
        <ele>253.1</ele>
        <time>2024-11-12T10:24:26Z</time>
      </trkpt>
      <trkpt lat="45.83896" lon="1.22301">
        <ele>253.1</ele>
        <time>2024-11-12T10:24:27Z</time>
      </trkpt>
      <trkpt lat="45.83895" lon="1.223">
        <ele>253.1</ele>
        <time>2024-11-12T10:24:28Z</time>
      </trkpt>
      <trkpt lat="45.83895" lon="1.22299">
        <ele>253.1</ele>
        <time>2024-11-12T10:24:29Z</time>
      </trkpt>
      <trkpt lat="45.83894" lon="1.22299">
        <ele>253.1</ele>
        <time>2024-11-12T10:24:30Z</time>
      </trkpt>
      <trkpt lat="45.83894" lon="1.22298">
        <ele>253.1</ele>
        <time>2024-11-12T10:24:31Z</time>
      </trkpt>
      <trkpt lat="45.83893" lon="1.22297">
        <ele>253.1</ele>
        <time>2024-11-12T10:24:32Z</time>
      </trkpt>
      <trkpt lat="45.83893" lon="1.22296">
        <ele>253.1</ele>
        <time>2024-11-12T10:24:33Z</time>
      </trkpt>
      <trkpt lat="45.83892" lon="1.22296">
        <ele>253.1</ele>
        <time>2024-11-12T10:24:34Z</time>
      </trkpt>
      <trkpt lat="45.83891" lon="1.22294">
        <ele>253.1</ele>
        <time>2024-11-12T10:24:35Z</time>
      </trkpt>
      <trkpt lat="45.8389" lon="1.22293">
        <ele>253.1</ele>
        <time>2024-11-12T10:24:36Z</time>
      </trkpt>
      <trkpt lat="45.83889" lon="1.2229">
        <ele>253.2</ele>
        <time>2024-11-12T10:24:37Z</time>
      </trkpt>
      <trkpt lat="45.83889" lon="1.22289">
        <ele>253.2</ele>
        <time>2024-11-12T10:24:38Z</time>
      </trkpt>
      <trkpt lat="45.83888" lon="1.22288">
        <ele>253.2</ele>
        <time>2024-11-12T10:24:39Z</time>
      </trkpt>
      <trkpt lat="45.83887" lon="1.22286">
        <ele>253.2</ele>
        <time>2024-11-12T10:24:40Z</time>
      </trkpt>
      <trkpt lat="45.83886" lon="1.22285">
        <ele>253.3</ele>
        <time>2024-11-12T10:24:41Z</time>
      </trkpt>
      <trkpt lat="45.83885" lon="1.22284">
        <ele>253.3</ele>
        <time>2024-11-12T10:24:42Z</time>
      </trkpt>
      <trkpt lat="45.83885" lon="1.22282">
        <ele>253.3</ele>
        <time>2024-11-12T10:24:43Z</time>
      </trkpt>
      <trkpt lat="45.83885" lon="1.22281">
        <ele>253.3</ele>
        <time>2024-11-12T10:24:44Z</time>
      </trkpt>
      <trkpt lat="45.83887" lon="1.22279">
        <ele>253.3</ele>
        <time>2024-11-12T10:24:45Z</time>
      </trkpt>
      <trkpt lat="45.83888" lon="1.22278">
        <ele>253.2</ele>
        <time>2024-11-12T10:24:46Z</time>
      </trkpt>
      <trkpt lat="45.83889" lon="1.22277">
        <ele>253.2</ele>
        <time>2024-11-12T10:24:47Z</time>
      </trkpt>
      <trkpt lat="45.8389" lon="1.22275">
        <ele>253.2</ele>
        <time>2024-11-12T10:24:48Z</time>
      </trkpt>
      <trkpt lat="45.83891" lon="1.22274">
        <ele>253.2</ele>
        <time>2024-11-12T10:24:49Z</time>
      </trkpt>
      <trkpt lat="45.83892" lon="1.22273">
        <ele>253.2</ele>
        <time>2024-11-12T10:24:50Z</time>
      </trkpt>
      <trkpt lat="45.83893" lon="1.22271">
        <ele>253.2</ele>
        <time>2024-11-12T10:24:51Z</time>
      </trkpt>
      <trkpt lat="45.83894" lon="1.2227">
        <ele>253.2</ele>
        <time>2024-11-12T10:24:52Z</time>
      </trkpt>
      <trkpt lat="45.83896" lon="1.22268">
        <ele>253.2</ele>
        <time>2024-11-12T10:24:53Z</time>
      </trkpt>
      <trkpt lat="45.83896" lon="1.22266">
        <ele>253.2</ele>
        <time>2024-11-12T10:24:54Z</time>
      </trkpt>
      <trkpt lat="45.83897" lon="1.22265">
        <ele>253.2</ele>
        <time>2024-11-12T10:24:55Z</time>
      </trkpt>
      <trkpt lat="45.83899" lon="1.22263">
        <ele>253.2</ele>
        <time>2024-11-12T10:24:56Z</time>
      </trkpt>
      <trkpt lat="45.83899" lon="1.22263">
        <ele>253.2</ele>
        <time>2024-11-12T10:24:57Z</time>
      </trkpt>
      <trkpt lat="45.839" lon="1.22262">
        <ele>253.2</ele>
        <time>2024-11-12T10:24:58Z</time>
      </trkpt>
      <trkpt lat="45.83901" lon="1.22259">
        <ele>253.2</ele>
        <time>2024-11-12T10:24:59Z</time>
      </trkpt>
      <trkpt lat="45.83902" lon="1.22258">
        <ele>253.2</ele>
        <time>2024-11-12T10:25:00Z</time>
      </trkpt>
      <trkpt lat="45.83902" lon="1.22257">
        <ele>253.2</ele>
        <time>2024-11-12T10:25:01Z</time>
      </trkpt>
      <trkpt lat="45.83904" lon="1.22255">
        <ele>253.2</ele>
        <time>2024-11-12T10:25:02Z</time>
      </trkpt>
      <trkpt lat="45.83904" lon="1.22254">
        <ele>253.2</ele>
        <time>2024-11-12T10:25:03Z</time>
      </trkpt>
      <trkpt lat="45.83905" lon="1.22253">
        <ele>253.2</ele>
        <time>2024-11-12T10:25:04Z</time>
      </trkpt>
      <trkpt lat="45.83906" lon="1.2225">
        <ele>253.2</ele>
        <time>2024-11-12T10:25:05Z</time>
      </trkpt>
      <trkpt lat="45.83906" lon="1.22249">
        <ele>253.2</ele>
        <time>2024-11-12T10:25:06Z</time>
      </trkpt>
      <trkpt lat="45.83907" lon="1.22248">
        <ele>253.2</ele>
        <time>2024-11-12T10:25:07Z</time>
      </trkpt>
      <trkpt lat="45.83908" lon="1.22246">
        <ele>253.2</ele>
        <time>2024-11-12T10:25:08Z</time>
      </trkpt>
      <trkpt lat="45.83909" lon="1.22245">
        <ele>253.2</ele>
        <time>2024-11-12T10:25:09Z</time>
      </trkpt>
      <trkpt lat="45.83909" lon="1.22244">
        <ele>253.2</ele>
        <time>2024-11-12T10:25:10Z</time>
      </trkpt>
      <trkpt lat="45.83911" lon="1.22241">
        <ele>253.2</ele>
        <time>2024-11-12T10:25:11Z</time>
      </trkpt>
      <trkpt lat="45.83911" lon="1.2224">
        <ele>253.2</ele>
        <time>2024-11-12T10:25:12Z</time>
      </trkpt>
      <trkpt lat="45.83912" lon="1.22239">
        <ele>253.2</ele>
        <time>2024-11-12T10:25:13Z</time>
      </trkpt>
      <trkpt lat="45.83913" lon="1.22238">
        <ele>253.2</ele>
        <time>2024-11-12T10:25:14Z</time>
      </trkpt>
      <trkpt lat="45.83914" lon="1.22236">
        <ele>253.2</ele>
        <time>2024-11-12T10:25:15Z</time>
      </trkpt>
      <trkpt lat="45.83914" lon="1.22235">
        <ele>253.2</ele>
        <time>2024-11-12T10:25:16Z</time>
      </trkpt>
      <trkpt lat="45.83915" lon="1.22234">
        <ele>253.2</ele>
        <time>2024-11-12T10:25:17Z</time>
      </trkpt>
      <trkpt lat="45.83916" lon="1.22232">
        <ele>253.2</ele>
        <time>2024-11-12T10:25:18Z</time>
      </trkpt>
      <trkpt lat="45.83917" lon="1.2223">
        <ele>253.2</ele>
        <time>2024-11-12T10:25:19Z</time>
      </trkpt>
      <trkpt lat="45.83917" lon="1.22229">
        <ele>253.2</ele>
        <time>2024-11-12T10:25:20Z</time>
      </trkpt>
      <trkpt lat="45.83918" lon="1.22228">
        <ele>253.2</ele>
        <time>2024-11-12T10:25:21Z</time>
      </trkpt>
      <trkpt lat="45.83919" lon="1.22225">
        <ele>253.2</ele>
        <time>2024-11-12T10:25:22Z</time>
      </trkpt>
      <trkpt lat="45.8392" lon="1.22224">
        <ele>253.2</ele>
        <time>2024-11-12T10:25:23Z</time>
      </trkpt>
      <trkpt lat="45.8392" lon="1.22223">
        <ele>253.2</ele>
        <time>2024-11-12T10:25:24Z</time>
      </trkpt>
      <trkpt lat="45.83921" lon="1.22221">
        <ele>253.2</ele>
        <time>2024-11-12T10:25:25Z</time>
      </trkpt>
      <trkpt lat="45.83922" lon="1.2222">
        <ele>253.2</ele>
        <time>2024-11-12T10:25:26Z</time>
      </trkpt>
      <trkpt lat="45.83923" lon="1.22218">
        <ele>253.2</ele>
        <time>2024-11-12T10:25:27Z</time>
      </trkpt>
      <trkpt lat="45.83924" lon="1.22217">
        <ele>253.2</ele>
        <time>2024-11-12T10:25:28Z</time>
      </trkpt>
      <trkpt lat="45.83924" lon="1.22216">
        <ele>253.2</ele>
        <time>2024-11-12T10:25:29Z</time>
      </trkpt>
      <trkpt lat="45.83925" lon="1.22214">
        <ele>253.2</ele>
        <time>2024-11-12T10:25:30Z</time>
      </trkpt>
      <trkpt lat="45.83926" lon="1.22212">
        <ele>253.2</ele>
        <time>2024-11-12T10:25:31Z</time>
      </trkpt>
      <trkpt lat="45.83927" lon="1.22211">
        <ele>253.2</ele>
        <time>2024-11-12T10:25:32Z</time>
      </trkpt>
      <trkpt lat="45.83929" lon="1.2221">
        <ele>253.2</ele>
        <time>2024-11-12T10:25:33Z</time>
      </trkpt>
      <trkpt lat="45.8393" lon="1.22209">
        <ele>253.2</ele>
        <time>2024-11-12T10:25:34Z</time>
      </trkpt>
      <trkpt lat="45.83932" lon="1.22208">
        <ele>253.2</ele>
        <time>2024-11-12T10:25:35Z</time>
      </trkpt>
      <trkpt lat="45.83933" lon="1.22208">
        <ele>253.2</ele>
        <time>2024-11-12T10:25:36Z</time>
      </trkpt>
      <trkpt lat="45.83935" lon="1.2221">
        <ele>253.2</ele>
        <time>2024-11-12T10:25:37Z</time>
      </trkpt>
      <trkpt lat="45.83936" lon="1.22212">
        <ele>253.2</ele>
        <time>2024-11-12T10:25:38Z</time>
      </trkpt>
      <trkpt lat="45.83937" lon="1.22214">
        <ele>253.2</ele>
        <time>2024-11-12T10:25:39Z</time>
      </trkpt>
      <trkpt lat="45.83938" lon="1.22216">
        <ele>253.2</ele>
        <time>2024-11-12T10:25:40Z</time>
      </trkpt>
      <trkpt lat="45.83939" lon="1.22218">
        <ele>253.2</ele>
        <time>2024-11-12T10:25:41Z</time>
      </trkpt>
      <trkpt lat="45.8394" lon="1.22219">
        <ele>253.2</ele>
        <time>2024-11-12T10:25:42Z</time>
      </trkpt>
      <trkpt lat="45.83942" lon="1.22221">
        <ele>253.2</ele>
        <time>2024-11-12T10:25:43Z</time>
      </trkpt>
      <trkpt lat="45.83943" lon="1.22222">
        <ele>253.3</ele>
        <time>2024-11-12T10:25:44Z</time>
      </trkpt>
      <trkpt lat="45.83944" lon="1.22224">
        <ele>253.2</ele>
        <time>2024-11-12T10:25:45Z</time>
      </trkpt>
      <trkpt lat="45.83945" lon="1.22225">
        <ele>253.2</ele>
        <time>2024-11-12T10:25:46Z</time>
      </trkpt>
      <trkpt lat="45.83947" lon="1.22226">
        <ele>253.2</ele>
        <time>2024-11-12T10:25:47Z</time>
      </trkpt>
      <trkpt lat="45.83948" lon="1.22228">
        <ele>253.2</ele>
        <time>2024-11-12T10:25:48Z</time>
      </trkpt>
      <trkpt lat="45.83949" lon="1.22229">
        <ele>253.2</ele>
        <time>2024-11-12T10:25:49Z</time>
      </trkpt>
      <trkpt lat="45.8395" lon="1.22231">
        <ele>253.4</ele>
        <time>2024-11-12T10:25:50Z</time>
      </trkpt>
      <trkpt lat="45.83951" lon="1.22232">
        <ele>253.2</ele>
        <time>2024-11-12T10:25:51Z</time>
      </trkpt>
      <trkpt lat="45.83952" lon="1.22234">
        <ele>253.2</ele>
        <time>2024-11-12T10:25:52Z</time>
      </trkpt>
      <trkpt lat="45.83954" lon="1.22235">
        <ele>253.3</ele>
        <time>2024-11-12T10:25:53Z</time>
      </trkpt>
      <trkpt lat="45.83955" lon="1.22236">
        <ele>253.2</ele>
        <time>2024-11-12T10:25:54Z</time>
      </trkpt>
      <trkpt lat="45.83956" lon="1.22238">
        <ele>253.2</ele>
        <time>2024-11-12T10:25:55Z</time>
      </trkpt>
      <trkpt lat="45.83958" lon="1.22239">
        <ele>253.3</ele>
        <time>2024-11-12T10:25:56Z</time>
      </trkpt>
      <trkpt lat="45.83958" lon="1.2224">
        <ele>253.1</ele>
        <time>2024-11-12T10:25:57Z</time>
      </trkpt>
      <trkpt lat="45.83959" lon="1.22241">
        <ele>253.1</ele>
        <time>2024-11-12T10:25:58Z</time>
      </trkpt>
      <trkpt lat="45.83961" lon="1.22243">
        <ele>253.3</ele>
        <time>2024-11-12T10:25:59Z</time>
      </trkpt>
      <trkpt lat="45.83962" lon="1.22244">
        <ele>253.2</ele>
        <time>2024-11-12T10:26:00Z</time>
      </trkpt>
      <trkpt lat="45.83962" lon="1.22245">
        <ele>253.1</ele>
        <time>2024-11-12T10:26:01Z</time>
      </trkpt>
      <trkpt lat="45.83964" lon="1.22246">
        <ele>253.2</ele>
        <time>2024-11-12T10:26:02Z</time>
      </trkpt>
      <trkpt lat="45.83965" lon="1.22247">
        <ele>253.2</ele>
        <time>2024-11-12T10:26:03Z</time>
      </trkpt>
      <trkpt lat="45.83966" lon="1.22248">
        <ele>253.4</ele>
        <time>2024-11-12T10:26:04Z</time>
      </trkpt>
      <trkpt lat="45.83967" lon="1.2225">
        <ele>253.2</ele>
        <time>2024-11-12T10:26:05Z</time>
      </trkpt>
      <trkpt lat="45.83968" lon="1.22251">
        <ele>253.2</ele>
        <time>2024-11-12T10:26:06Z</time>
      </trkpt>
      <trkpt lat="45.83969" lon="1.22253">
        <ele>253.2</ele>
        <time>2024-11-12T10:26:07Z</time>
      </trkpt>
      <trkpt lat="45.8397" lon="1.22254">
        <ele>253.2</ele>
        <time>2024-11-12T10:26:08Z</time>
      </trkpt>
      <trkpt lat="45.83971" lon="1.22255">
        <ele>253.1</ele>
        <time>2024-11-12T10:26:09Z</time>
      </trkpt>
      <trkpt lat="45.83972" lon="1.22256">
        <ele>253.3</ele>
        <time>2024-11-12T10:26:10Z</time>
      </trkpt>
      <trkpt lat="45.83973" lon="1.22258">
        <ele>253.1</ele>
        <time>2024-11-12T10:26:11Z</time>
      </trkpt>
      <trkpt lat="45.83974" lon="1.22259">
        <ele>253.1</ele>
        <time>2024-11-12T10:26:12Z</time>
      </trkpt>
      <trkpt lat="45.83975" lon="1.2226">
        <ele>253.3</ele>
        <time>2024-11-12T10:26:13Z</time>
      </trkpt>
      <trkpt lat="45.83976" lon="1.22261">
        <ele>253.3</ele>
        <time>2024-11-12T10:26:14Z</time>
      </trkpt>
      <trkpt lat="45.83977" lon="1.22263">
        <ele>253.3</ele>
        <time>2024-11-12T10:26:15Z</time>
      </trkpt>
      <trkpt lat="45.83978" lon="1.22264">
        <ele>253.3</ele>
        <time>2024-11-12T10:26:16Z</time>
      </trkpt>
      <trkpt lat="45.8398" lon="1.22265">
        <ele>253.3</ele>
        <time>2024-11-12T10:26:17Z</time>
      </trkpt>
      <trkpt lat="45.8398" lon="1.22266">
        <ele>253.3</ele>
        <time>2024-11-12T10:26:18Z</time>
      </trkpt>
      <trkpt lat="45.83981" lon="1.22267">
        <ele>253.3</ele>
        <time>2024-11-12T10:26:19Z</time>
      </trkpt>
      <trkpt lat="45.83983" lon="1.22269">
        <ele>253.3</ele>
        <time>2024-11-12T10:26:20Z</time>
      </trkpt>
      <trkpt lat="45.83983" lon="1.2227">
        <ele>253.3</ele>
        <time>2024-11-12T10:26:21Z</time>
      </trkpt>
      <trkpt lat="45.83984" lon="1.22272">
        <ele>253.3</ele>
        <time>2024-11-12T10:26:22Z</time>
      </trkpt>
      <trkpt lat="45.83985" lon="1.22273">
        <ele>253.3</ele>
        <time>2024-11-12T10:26:23Z</time>
      </trkpt>
      <trkpt lat="45.83986" lon="1.22275">
        <ele>253.3</ele>
        <time>2024-11-12T10:26:24Z</time>
      </trkpt>
      <trkpt lat="45.83987" lon="1.22276">
        <ele>253.3</ele>
        <time>2024-11-12T10:26:25Z</time>
      </trkpt>
      <trkpt lat="45.83988" lon="1.22277">
        <ele>253.3</ele>
        <time>2024-11-12T10:26:26Z</time>
      </trkpt>
      <trkpt lat="45.83989" lon="1.22279">
        <ele>253.3</ele>
        <time>2024-11-12T10:26:27Z</time>
      </trkpt>
      <trkpt lat="45.8399" lon="1.2228">
        <ele>253.3</ele>
        <time>2024-11-12T10:26:28Z</time>
      </trkpt>
      <trkpt lat="45.83991" lon="1.22281">
        <ele>253.3</ele>
        <time>2024-11-12T10:26:29Z</time>
      </trkpt>
      <trkpt lat="45.83992" lon="1.22283">
        <ele>253.3</ele>
        <time>2024-11-12T10:26:30Z</time>
      </trkpt>
      <trkpt lat="45.83993" lon="1.22285">
        <ele>253.3</ele>
        <time>2024-11-12T10:26:31Z</time>
      </trkpt>
      <trkpt lat="45.83994" lon="1.22286">
        <ele>253.3</ele>
        <time>2024-11-12T10:26:32Z</time>
      </trkpt>
      <trkpt lat="45.83994" lon="1.22287">
        <ele>253.3</ele>
        <time>2024-11-12T10:26:33Z</time>
      </trkpt>
      <trkpt lat="45.83995" lon="1.22288">
        <ele>253.3</ele>
        <time>2024-11-12T10:26:34Z</time>
      </trkpt>
      <trkpt lat="45.83996" lon="1.22289">
        <ele>253.3</ele>
        <time>2024-11-12T10:26:35Z</time>
      </trkpt>
      <trkpt lat="45.83997" lon="1.2229">
        <ele>253.3</ele>
        <time>2024-11-12T10:26:36Z</time>
      </trkpt>
      <trkpt lat="45.83998" lon="1.22292">
        <ele>253.3</ele>
        <time>2024-11-12T10:26:37Z</time>
      </trkpt>
      <trkpt lat="45.84" lon="1.22294">
        <ele>253.4</ele>
        <time>2024-11-12T10:26:38Z</time>
      </trkpt>
      <trkpt lat="45.84001" lon="1.22295">
        <ele>253.4</ele>
        <time>2024-11-12T10:26:39Z</time>
      </trkpt>
      <trkpt lat="45.84002" lon="1.22296">
        <ele>253.4</ele>
        <time>2024-11-12T10:26:40Z</time>
      </trkpt>
      <trkpt lat="45.84003" lon="1.22298">
        <ele>253.4</ele>
        <time>2024-11-12T10:26:41Z</time>
      </trkpt>
      <trkpt lat="45.84004" lon="1.22299">
        <ele>253.4</ele>
        <time>2024-11-12T10:26:42Z</time>
      </trkpt>
      <trkpt lat="45.84004" lon="1.223">
        <ele>253.4</ele>
        <time>2024-11-12T10:26:43Z</time>
      </trkpt>
      <trkpt lat="45.84005" lon="1.22301">
        <ele>253.4</ele>
        <time>2024-11-12T10:26:44Z</time>
      </trkpt>
      <trkpt lat="45.84006" lon="1.22303">
        <ele>253.4</ele>
        <time>2024-11-12T10:26:45Z</time>
      </trkpt>
      <trkpt lat="45.84007" lon="1.22304">
        <ele>253.4</ele>
        <time>2024-11-12T10:26:46Z</time>
      </trkpt>
      <trkpt lat="45.84007" lon="1.22306">
        <ele>253.4</ele>
        <time>2024-11-12T10:26:47Z</time>
      </trkpt>
      <trkpt lat="45.84008" lon="1.22307">
        <ele>253.4</ele>
        <time>2024-11-12T10:26:48Z</time>
      </trkpt>
      <trkpt lat="45.84009" lon="1.22308">
        <ele>253.4</ele>
        <time>2024-11-12T10:26:49Z</time>
      </trkpt>
      <trkpt lat="45.8401" lon="1.2231">
        <ele>253.5</ele>
        <time>2024-11-12T10:26:50Z</time>
      </trkpt>
      <trkpt lat="45.84011" lon="1.22311">
        <ele>253.5</ele>
        <time>2024-11-12T10:26:51Z</time>
      </trkpt>
      <trkpt lat="45.84012" lon="1.22312">
        <ele>253.5</ele>
        <time>2024-11-12T10:26:52Z</time>
      </trkpt>
      <trkpt lat="45.84013" lon="1.22314">
        <ele>253.5</ele>
        <time>2024-11-12T10:26:53Z</time>
      </trkpt>
      <trkpt lat="45.84014" lon="1.22315">
        <ele>253.5</ele>
        <time>2024-11-12T10:26:54Z</time>
      </trkpt>
      <trkpt lat="45.84015" lon="1.22316">
        <ele>253.5</ele>
        <time>2024-11-12T10:26:55Z</time>
      </trkpt>
      <trkpt lat="45.84016" lon="1.22317">
        <ele>253.5</ele>
        <time>2024-11-12T10:26:56Z</time>
      </trkpt>
      <trkpt lat="45.84017" lon="1.22318">
        <ele>253.5</ele>
        <time>2024-11-12T10:26:57Z</time>
      </trkpt>
      <trkpt lat="45.84018" lon="1.22318">
        <ele>253.5</ele>
        <time>2024-11-12T10:26:58Z</time>
      </trkpt>
      <trkpt lat="45.84019" lon="1.22319">
        <ele>253.5</ele>
        <time>2024-11-12T10:26:59Z</time>
      </trkpt>
      <trkpt lat="45.84021" lon="1.2232">
        <ele>253.5</ele>
        <time>2024-11-12T10:27:00Z</time>
      </trkpt>
      <trkpt lat="45.84022" lon="1.22321">
        <ele>253.6</ele>
        <time>2024-11-12T10:27:01Z</time>
      </trkpt>
      <trkpt lat="45.84023" lon="1.22322">
        <ele>253.6</ele>
        <time>2024-11-12T10:27:02Z</time>
      </trkpt>
      <trkpt lat="45.84024" lon="1.22323">
        <ele>253.6</ele>
        <time>2024-11-12T10:27:03Z</time>
      </trkpt>
      <trkpt lat="45.84025" lon="1.22324">
        <ele>253.6</ele>
        <time>2024-11-12T10:27:04Z</time>
      </trkpt>
      <trkpt lat="45.84026" lon="1.22325">
        <ele>253.6</ele>
        <time>2024-11-12T10:27:05Z</time>
      </trkpt>
      <trkpt lat="45.84028" lon="1.22327">
        <ele>253.6</ele>
        <time>2024-11-12T10:27:06Z</time>
      </trkpt>
      <trkpt lat="45.84029" lon="1.22327">
        <ele>253.6</ele>
        <time>2024-11-12T10:27:07Z</time>
      </trkpt>
      <trkpt lat="45.8403" lon="1.22328">
        <ele>253.7</ele>
        <time>2024-11-12T10:27:08Z</time>
      </trkpt>
      <trkpt lat="45.84031" lon="1.22329">
        <ele>253.7</ele>
        <time>2024-11-12T10:27:09Z</time>
      </trkpt>
      <trkpt lat="45.84032" lon="1.2233">
        <ele>253.7</ele>
        <time>2024-11-12T10:27:10Z</time>
      </trkpt>
      <trkpt lat="45.84033" lon="1.22331">
        <ele>253.7</ele>
        <time>2024-11-12T10:27:11Z</time>
      </trkpt>
      <trkpt lat="45.84034" lon="1.22332">
        <ele>253.7</ele>
        <time>2024-11-12T10:27:12Z</time>
      </trkpt>
      <trkpt lat="45.84035" lon="1.22332">
        <ele>253.7</ele>
        <time>2024-11-12T10:27:13Z</time>
      </trkpt>
      <trkpt lat="45.84036" lon="1.22333">
        <ele>253.7</ele>
        <time>2024-11-12T10:27:14Z</time>
      </trkpt>
      <trkpt lat="45.84038" lon="1.22333">
        <ele>253.8</ele>
        <time>2024-11-12T10:27:15Z</time>
      </trkpt>
      <trkpt lat="45.84039" lon="1.22333">
        <ele>253.8</ele>
        <time>2024-11-12T10:27:16Z</time>
      </trkpt>
      <trkpt lat="45.8404" lon="1.22333">
        <ele>253.8</ele>
        <time>2024-11-12T10:27:17Z</time>
      </trkpt>
      <trkpt lat="45.84042" lon="1.22334">
        <ele>253.8</ele>
        <time>2024-11-12T10:27:18Z</time>
      </trkpt>
      <trkpt lat="45.84043" lon="1.22334">
        <ele>253.8</ele>
        <time>2024-11-12T10:27:19Z</time>
      </trkpt>
      <trkpt lat="45.84045" lon="1.22334">
        <ele>253.8</ele>
        <time>2024-11-12T10:27:20Z</time>
      </trkpt>
      <trkpt lat="45.84045" lon="1.22334">
        <ele>253.9</ele>
        <time>2024-11-12T10:27:21Z</time>
      </trkpt>
      <trkpt lat="45.84046" lon="1.22334">
        <ele>253.9</ele>
        <time>2024-11-12T10:27:22Z</time>
      </trkpt>
      <trkpt lat="45.84048" lon="1.22334">
        <ele>253.9</ele>
        <time>2024-11-12T10:27:23Z</time>
      </trkpt>
      <trkpt lat="45.84049" lon="1.22333">
        <ele>253.9</ele>
        <time>2024-11-12T10:27:24Z</time>
      </trkpt>
      <trkpt lat="45.8405" lon="1.22333">
        <ele>253.9</ele>
        <time>2024-11-12T10:27:25Z</time>
      </trkpt>
      <trkpt lat="45.84051" lon="1.22333">
        <ele>253.9</ele>
        <time>2024-11-12T10:27:26Z</time>
      </trkpt>
      <trkpt lat="45.84052" lon="1.22332">
        <ele>253.9</ele>
        <time>2024-11-12T10:27:27Z</time>
      </trkpt>
      <trkpt lat="45.84053" lon="1.22332">
        <ele>253.9</ele>
        <time>2024-11-12T10:27:28Z</time>
      </trkpt>
      <trkpt lat="45.84055" lon="1.22332">
        <ele>254</ele>
        <time>2024-11-12T10:27:29Z</time>
      </trkpt>
      <trkpt lat="45.84057" lon="1.22333">
        <ele>254</ele>
        <time>2024-11-12T10:27:30Z</time>
      </trkpt>
      <trkpt lat="45.84058" lon="1.22333">
        <ele>254</ele>
        <time>2024-11-12T10:27:31Z</time>
      </trkpt>
      <trkpt lat="45.84058" lon="1.22333">
        <ele>254</ele>
        <time>2024-11-12T10:27:32Z</time>
      </trkpt>
      <trkpt lat="45.8406" lon="1.22333">
        <ele>254</ele>
        <time>2024-11-12T10:27:33Z</time>
      </trkpt>
      <trkpt lat="45.84061" lon="1.22333">
        <ele>254</ele>
        <time>2024-11-12T10:27:34Z</time>
      </trkpt>
      <trkpt lat="45.84062" lon="1.22333">
        <ele>254</ele>
        <time>2024-11-12T10:27:35Z</time>
      </trkpt>
      <trkpt lat="45.84063" lon="1.22333">
        <ele>254</ele>
        <time>2024-11-12T10:27:36Z</time>
      </trkpt>
      <trkpt lat="45.84064" lon="1.22333">
        <ele>254</ele>
        <time>2024-11-12T10:27:37Z</time>
      </trkpt>
      <trkpt lat="45.84066" lon="1.22333">
        <ele>254</ele>
        <time>2024-11-12T10:27:38Z</time>
      </trkpt>
      <trkpt lat="45.84067" lon="1.22332">
        <ele>254</ele>
        <time>2024-11-12T10:27:39Z</time>
      </trkpt>
      <trkpt lat="45.84069" lon="1.22332">
        <ele>254.1</ele>
        <time>2024-11-12T10:27:40Z</time>
      </trkpt>
      <trkpt lat="45.8407" lon="1.22332">
        <ele>254.1</ele>
        <time>2024-11-12T10:27:41Z</time>
      </trkpt>
      <trkpt lat="45.84071" lon="1.22332">
        <ele>254.1</ele>
        <time>2024-11-12T10:27:42Z</time>
      </trkpt>
      <trkpt lat="45.84072" lon="1.22332">
        <ele>254.1</ele>
        <time>2024-11-12T10:27:43Z</time>
      </trkpt>
      <trkpt lat="45.84074" lon="1.22333">
        <ele>254.1</ele>
        <time>2024-11-12T10:27:44Z</time>
      </trkpt>
      <trkpt lat="45.84075" lon="1.22333">
        <ele>254.1</ele>
        <time>2024-11-12T10:27:45Z</time>
      </trkpt>
      <trkpt lat="45.84076" lon="1.22333">
        <ele>254.1</ele>
        <time>2024-11-12T10:27:46Z</time>
      </trkpt>
      <trkpt lat="45.84078" lon="1.22333">
        <ele>254.1</ele>
        <time>2024-11-12T10:27:47Z</time>
      </trkpt>
      <trkpt lat="45.84079" lon="1.22333">
        <ele>254.1</ele>
        <time>2024-11-12T10:27:48Z</time>
      </trkpt>
      <trkpt lat="45.8408" lon="1.22334">
        <ele>254.1</ele>
        <time>2024-11-12T10:27:49Z</time>
      </trkpt>
      <trkpt lat="45.84082" lon="1.22335">
        <ele>254.1</ele>
        <time>2024-11-12T10:27:50Z</time>
      </trkpt>
      <trkpt lat="45.84083" lon="1.22335">
        <ele>254.2</ele>
        <time>2024-11-12T10:27:51Z</time>
      </trkpt>
      <trkpt lat="45.84084" lon="1.22336">
        <ele>254.2</ele>
        <time>2024-11-12T10:27:52Z</time>
      </trkpt>
      <trkpt lat="45.84085" lon="1.22336">
        <ele>254.2</ele>
        <time>2024-11-12T10:27:53Z</time>
      </trkpt>
      <trkpt lat="45.84086" lon="1.22337">
        <ele>254.2</ele>
        <time>2024-11-12T10:27:54Z</time>
      </trkpt>
      <trkpt lat="45.84088" lon="1.22337">
        <ele>254.2</ele>
        <time>2024-11-12T10:27:55Z</time>
      </trkpt>
      <trkpt lat="45.84089" lon="1.22337">
        <ele>254.2</ele>
        <time>2024-11-12T10:27:56Z</time>
      </trkpt>
      <trkpt lat="45.8409" lon="1.22338">
        <ele>254.2</ele>
        <time>2024-11-12T10:27:57Z</time>
      </trkpt>
      <trkpt lat="45.84091" lon="1.22338">
        <ele>254.2</ele>
        <time>2024-11-12T10:27:58Z</time>
      </trkpt>
      <trkpt lat="45.84093" lon="1.22339">
        <ele>254.2</ele>
        <time>2024-11-12T10:27:59Z</time>
      </trkpt>
      <trkpt lat="45.84094" lon="1.2234">
        <ele>254.2</ele>
        <time>2024-11-12T10:28:00Z</time>
      </trkpt>
      <trkpt lat="45.84095" lon="1.22341">
        <ele>254.2</ele>
        <time>2024-11-12T10:28:01Z</time>
      </trkpt>
      <trkpt lat="45.84096" lon="1.22341">
        <ele>254.2</ele>
        <time>2024-11-12T10:28:02Z</time>
      </trkpt>
      <trkpt lat="45.84097" lon="1.22342">
        <ele>254.2</ele>
        <time>2024-11-12T10:28:03Z</time>
      </trkpt>
      <trkpt lat="45.84098" lon="1.22343">
        <ele>254.2</ele>
        <time>2024-11-12T10:28:04Z</time>
      </trkpt>
      <trkpt lat="45.841" lon="1.22344">
        <ele>254.2</ele>
        <time>2024-11-12T10:28:05Z</time>
      </trkpt>
      <trkpt lat="45.84101" lon="1.22344">
        <ele>254.2</ele>
        <time>2024-11-12T10:28:06Z</time>
      </trkpt>
      <trkpt lat="45.84102" lon="1.22345">
        <ele>254.2</ele>
        <time>2024-11-12T10:28:07Z</time>
      </trkpt>
      <trkpt lat="45.84103" lon="1.22346">
        <ele>254.2</ele>
        <time>2024-11-12T10:28:08Z</time>
      </trkpt>
      <trkpt lat="45.84104" lon="1.22347">
        <ele>254.2</ele>
        <time>2024-11-12T10:28:09Z</time>
      </trkpt>
      <trkpt lat="45.84106" lon="1.22348">
        <ele>254.2</ele>
        <time>2024-11-12T10:28:10Z</time>
      </trkpt>
      <trkpt lat="45.84107" lon="1.22349">
        <ele>254.2</ele>
        <time>2024-11-12T10:28:11Z</time>
      </trkpt>
      <trkpt lat="45.84108" lon="1.22351">
        <ele>254.2</ele>
        <time>2024-11-12T10:28:12Z</time>
      </trkpt>
      <trkpt lat="45.84109" lon="1.22353">
        <ele>254.2</ele>
        <time>2024-11-12T10:28:13Z</time>
      </trkpt>
      <trkpt lat="45.8411" lon="1.22354">
        <ele>254.2</ele>
        <time>2024-11-12T10:28:14Z</time>
      </trkpt>
      <trkpt lat="45.84111" lon="1.22354">
        <ele>254.2</ele>
        <time>2024-11-12T10:28:15Z</time>
      </trkpt>
      <trkpt lat="45.84112" lon="1.22356">
        <ele>254.3</ele>
        <time>2024-11-12T10:28:16Z</time>
      </trkpt>
      <trkpt lat="45.84112" lon="1.22358">
        <ele>254.3</ele>
        <time>2024-11-12T10:28:17Z</time>
      </trkpt>
      <trkpt lat="45.84113" lon="1.22359">
        <ele>254.3</ele>
        <time>2024-11-12T10:28:18Z</time>
      </trkpt>
      <trkpt lat="45.84114" lon="1.22361">
        <ele>254.3</ele>
        <time>2024-11-12T10:28:19Z</time>
      </trkpt>
      <trkpt lat="45.84115" lon="1.22362">
        <ele>254.3</ele>
        <time>2024-11-12T10:28:20Z</time>
      </trkpt>
      <trkpt lat="45.84116" lon="1.22363">
        <ele>254.3</ele>
        <time>2024-11-12T10:28:21Z</time>
      </trkpt>
      <trkpt lat="45.84117" lon="1.22365">
        <ele>254.3</ele>
        <time>2024-11-12T10:28:22Z</time>
      </trkpt>
      <trkpt lat="45.84118" lon="1.22367">
        <ele>254.3</ele>
        <time>2024-11-12T10:28:23Z</time>
      </trkpt>
      <trkpt lat="45.84119" lon="1.22369">
        <ele>254.3</ele>
        <time>2024-11-12T10:28:24Z</time>
      </trkpt>
      <trkpt lat="45.84119" lon="1.22371">
        <ele>254.3</ele>
        <time>2024-11-12T10:28:25Z</time>
      </trkpt>
      <trkpt lat="45.8412" lon="1.22372">
        <ele>254.3</ele>
        <time>2024-11-12T10:28:26Z</time>
      </trkpt>
      <trkpt lat="45.84121" lon="1.22374">
        <ele>254.3</ele>
        <time>2024-11-12T10:28:27Z</time>
      </trkpt>
      <trkpt lat="45.84122" lon="1.22376">
        <ele>254.3</ele>
        <time>2024-11-12T10:28:28Z</time>
      </trkpt>
      <trkpt lat="45.84123" lon="1.22377">
        <ele>254.3</ele>
        <time>2024-11-12T10:28:29Z</time>
      </trkpt>
      <trkpt lat="45.84123" lon="1.22379">
        <ele>254.3</ele>
        <time>2024-11-12T10:28:30Z</time>
      </trkpt>
      <trkpt lat="45.84124" lon="1.22381">
        <ele>254.4</ele>
        <time>2024-11-12T10:28:31Z</time>
      </trkpt>
      <trkpt lat="45.84125" lon="1.22383">
        <ele>254.4</ele>
        <time>2024-11-12T10:28:32Z</time>
      </trkpt>
      <trkpt lat="45.84126" lon="1.22384">
        <ele>254.4</ele>
        <time>2024-11-12T10:28:33Z</time>
      </trkpt>
      <trkpt lat="45.84126" lon="1.22385">
        <ele>254.4</ele>
        <time>2024-11-12T10:28:34Z</time>
      </trkpt>
      <trkpt lat="45.84127" lon="1.22387">
        <ele>254.4</ele>
        <time>2024-11-12T10:28:35Z</time>
      </trkpt>
      <trkpt lat="45.84128" lon="1.22389">
        <ele>254.4</ele>
        <time>2024-11-12T10:28:36Z</time>
      </trkpt>
      <trkpt lat="45.84129" lon="1.2239">
        <ele>254.4</ele>
        <time>2024-11-12T10:28:37Z</time>
      </trkpt>
      <trkpt lat="45.8413" lon="1.22392">
        <ele>254.4</ele>
        <time>2024-11-12T10:28:38Z</time>
      </trkpt>
      <trkpt lat="45.84132" lon="1.22394">
        <ele>254.5</ele>
        <time>2024-11-12T10:28:39Z</time>
      </trkpt>
      <trkpt lat="45.84132" lon="1.22395">
        <ele>254.5</ele>
        <time>2024-11-12T10:28:40Z</time>
      </trkpt>
      <trkpt lat="45.84133" lon="1.22396">
        <ele>254.5</ele>
        <time>2024-11-12T10:28:41Z</time>
      </trkpt>
      <trkpt lat="45.84134" lon="1.22396">
        <ele>254.5</ele>
        <time>2024-11-12T10:28:42Z</time>
      </trkpt>
      <trkpt lat="45.84135" lon="1.22397">
        <ele>254.5</ele>
        <time>2024-11-12T10:28:43Z</time>
      </trkpt>
      <trkpt lat="45.84136" lon="1.22398">
        <ele>254.5</ele>
        <time>2024-11-12T10:28:44Z</time>
      </trkpt>
      <trkpt lat="45.84137" lon="1.224">
        <ele>254.5</ele>
        <time>2024-11-12T10:28:45Z</time>
      </trkpt>
      <trkpt lat="45.84138" lon="1.22401">
        <ele>254.5</ele>
        <time>2024-11-12T10:28:46Z</time>
      </trkpt>
      <trkpt lat="45.84139" lon="1.22404">
        <ele>254.5</ele>
        <time>2024-11-12T10:28:47Z</time>
      </trkpt>
      <trkpt lat="45.8414" lon="1.22405">
        <ele>254.5</ele>
        <time>2024-11-12T10:28:48Z</time>
      </trkpt>
      <trkpt lat="45.8414" lon="1.22406">
        <ele>254.6</ele>
        <time>2024-11-12T10:28:49Z</time>
      </trkpt>
      <trkpt lat="45.84141" lon="1.22407">
        <ele>254.6</ele>
        <time>2024-11-12T10:28:50Z</time>
      </trkpt>
      <trkpt lat="45.84143" lon="1.22408">
        <ele>254.6</ele>
        <time>2024-11-12T10:28:51Z</time>
      </trkpt>
      <trkpt lat="45.84144" lon="1.2241">
        <ele>254.6</ele>
        <time>2024-11-12T10:28:52Z</time>
      </trkpt>
      <trkpt lat="45.84145" lon="1.22411">
        <ele>254.6</ele>
        <time>2024-11-12T10:28:53Z</time>
      </trkpt>
      <trkpt lat="45.84146" lon="1.22412">
        <ele>254.6</ele>
        <time>2024-11-12T10:28:54Z</time>
      </trkpt>
      <trkpt lat="45.84147" lon="1.22413">
        <ele>254.6</ele>
        <time>2024-11-12T10:28:55Z</time>
      </trkpt>
      <trkpt lat="45.84148" lon="1.22415">
        <ele>254.6</ele>
        <time>2024-11-12T10:28:56Z</time>
      </trkpt>
      <trkpt lat="45.84148" lon="1.22416">
        <ele>254.6</ele>
        <time>2024-11-12T10:28:57Z</time>
      </trkpt>
      <trkpt lat="45.84149" lon="1.22417">
        <ele>254.6</ele>
        <time>2024-11-12T10:28:58Z</time>
      </trkpt>
      <trkpt lat="45.8415" lon="1.22418">
        <ele>254.7</ele>
        <time>2024-11-12T10:28:59Z</time>
      </trkpt>
      <trkpt lat="45.84152" lon="1.2242">
        <ele>254.7</ele>
        <time>2024-11-12T10:29:00Z</time>
      </trkpt>
      <trkpt lat="45.84153" lon="1.22421">
        <ele>254.7</ele>
        <time>2024-11-12T10:29:01Z</time>
      </trkpt>
      <trkpt lat="45.84153" lon="1.22422">
        <ele>254.7</ele>
        <time>2024-11-12T10:29:02Z</time>
      </trkpt>
      <trkpt lat="45.84154" lon="1.22423">
        <ele>254.7</ele>
        <time>2024-11-12T10:29:03Z</time>
      </trkpt>
      <trkpt lat="45.84155" lon="1.22424">
        <ele>254.7</ele>
        <time>2024-11-12T10:29:04Z</time>
      </trkpt>
      <trkpt lat="45.84156" lon="1.22425">
        <ele>254.7</ele>
        <time>2024-11-12T10:29:05Z</time>
      </trkpt>
      <trkpt lat="45.84157" lon="1.22426">
        <ele>254.7</ele>
        <time>2024-11-12T10:29:06Z</time>
      </trkpt>
      <trkpt lat="45.84157" lon="1.22427">
        <ele>254.7</ele>
        <time>2024-11-12T10:29:07Z</time>
      </trkpt>
      <trkpt lat="45.84158" lon="1.22428">
        <ele>254.7</ele>
        <time>2024-11-12T10:29:08Z</time>
      </trkpt>
      <trkpt lat="45.8416" lon="1.2243">
        <ele>254.8</ele>
        <time>2024-11-12T10:29:09Z</time>
      </trkpt>
      <trkpt lat="45.84161" lon="1.22431">
        <ele>254.8</ele>
        <time>2024-11-12T10:29:10Z</time>
      </trkpt>
      <trkpt lat="45.84162" lon="1.22432">
        <ele>254.8</ele>
        <time>2024-11-12T10:29:11Z</time>
      </trkpt>
      <trkpt lat="45.84162" lon="1.22433">
        <ele>254.8</ele>
        <time>2024-11-12T10:29:12Z</time>
      </trkpt>
      <trkpt lat="45.84163" lon="1.22434">
        <ele>254.8</ele>
        <time>2024-11-12T10:29:13Z</time>
      </trkpt>
      <trkpt lat="45.84164" lon="1.22435">
        <ele>254.8</ele>
        <time>2024-11-12T10:29:14Z</time>
      </trkpt>
      <trkpt lat="45.84166" lon="1.22436">
        <ele>254.8</ele>
        <time>2024-11-12T10:29:15Z</time>
      </trkpt>
      <trkpt lat="45.84167" lon="1.22437">
        <ele>254.8</ele>
        <time>2024-11-12T10:29:16Z</time>
      </trkpt>
      <trkpt lat="45.84168" lon="1.22437">
        <ele>254.8</ele>
        <time>2024-11-12T10:29:17Z</time>
      </trkpt>
      <trkpt lat="45.84169" lon="1.22438">
        <ele>254.8</ele>
        <time>2024-11-12T10:29:18Z</time>
      </trkpt>
      <trkpt lat="45.8417" lon="1.22439">
        <ele>254.8</ele>
        <time>2024-11-12T10:29:19Z</time>
      </trkpt>
      <trkpt lat="45.84171" lon="1.2244">
        <ele>254.8</ele>
        <time>2024-11-12T10:29:20Z</time>
      </trkpt>
      <trkpt lat="45.84173" lon="1.22441">
        <ele>254.8</ele>
        <time>2024-11-12T10:29:21Z</time>
      </trkpt>
      <trkpt lat="45.84173" lon="1.22442">
        <ele>254.8</ele>
        <time>2024-11-12T10:29:22Z</time>
      </trkpt>
      <trkpt lat="45.84174" lon="1.22443">
        <ele>254.8</ele>
        <time>2024-11-12T10:29:23Z</time>
      </trkpt>
      <trkpt lat="45.84176" lon="1.22445">
        <ele>254.8</ele>
        <time>2024-11-12T10:29:24Z</time>
      </trkpt>
      <trkpt lat="45.84176" lon="1.22446">
        <ele>254.8</ele>
        <time>2024-11-12T10:29:25Z</time>
      </trkpt>
      <trkpt lat="45.84177" lon="1.22447">
        <ele>254.8</ele>
        <time>2024-11-12T10:29:26Z</time>
      </trkpt>
      <trkpt lat="45.84178" lon="1.22449">
        <ele>254.9</ele>
        <time>2024-11-12T10:29:27Z</time>
      </trkpt>
      <trkpt lat="45.84179" lon="1.22449">
        <ele>254.9</ele>
        <time>2024-11-12T10:29:28Z</time>
      </trkpt>
      <trkpt lat="45.8418" lon="1.2245">
        <ele>254.9</ele>
        <time>2024-11-12T10:29:29Z</time>
      </trkpt>
      <trkpt lat="45.84181" lon="1.22452">
        <ele>254.9</ele>
        <time>2024-11-12T10:29:30Z</time>
      </trkpt>
      <trkpt lat="45.84182" lon="1.22453">
        <ele>254.9</ele>
        <time>2024-11-12T10:29:31Z</time>
      </trkpt>
      <trkpt lat="45.84183" lon="1.22455">
        <ele>254.9</ele>
        <time>2024-11-12T10:29:32Z</time>
      </trkpt>
      <trkpt lat="45.84184" lon="1.22456">
        <ele>254.9</ele>
        <time>2024-11-12T10:29:33Z</time>
      </trkpt>
      <trkpt lat="45.84184" lon="1.22457">
        <ele>254.9</ele>
        <time>2024-11-12T10:29:34Z</time>
      </trkpt>
      <trkpt lat="45.84186" lon="1.22459">
        <ele>254.9</ele>
        <time>2024-11-12T10:29:35Z</time>
      </trkpt>
      <trkpt lat="45.84186" lon="1.2246">
        <ele>254.9</ele>
        <time>2024-11-12T10:29:36Z</time>
      </trkpt>
      <trkpt lat="45.84187" lon="1.22461">
        <ele>254.9</ele>
        <time>2024-11-12T10:29:37Z</time>
      </trkpt>
      <trkpt lat="45.84188" lon="1.22463">
        <ele>254.9</ele>
        <time>2024-11-12T10:29:38Z</time>
      </trkpt>
      <trkpt lat="45.84188" lon="1.22465">
        <ele>254.9</ele>
        <time>2024-11-12T10:29:39Z</time>
      </trkpt>
      <trkpt lat="45.84189" lon="1.22466">
        <ele>254.9</ele>
        <time>2024-11-12T10:29:40Z</time>
      </trkpt>
      <trkpt lat="45.8419" lon="1.22468">
        <ele>254.9</ele>
        <time>2024-11-12T10:29:41Z</time>
      </trkpt>
      <trkpt lat="45.8419" lon="1.22469">
        <ele>254.9</ele>
        <time>2024-11-12T10:29:42Z</time>
      </trkpt>
      <trkpt lat="45.84191" lon="1.22471">
        <ele>254.9</ele>
        <time>2024-11-12T10:29:43Z</time>
      </trkpt>
      <trkpt lat="45.84192" lon="1.22473">
        <ele>254.9</ele>
        <time>2024-11-12T10:29:44Z</time>
      </trkpt>
      <trkpt lat="45.84193" lon="1.22474">
        <ele>254.9</ele>
        <time>2024-11-12T10:29:45Z</time>
      </trkpt>
      <trkpt lat="45.84194" lon="1.22475">
        <ele>254.9</ele>
        <time>2024-11-12T10:29:46Z</time>
      </trkpt>
      <trkpt lat="45.84195" lon="1.22477">
        <ele>254.9</ele>
        <time>2024-11-12T10:29:47Z</time>
      </trkpt>
      <trkpt lat="45.84196" lon="1.22478">
        <ele>254.9</ele>
        <time>2024-11-12T10:29:48Z</time>
      </trkpt>
      <trkpt lat="45.84197" lon="1.22479">
        <ele>254.9</ele>
        <time>2024-11-12T10:29:49Z</time>
      </trkpt>
      <trkpt lat="45.84198" lon="1.2248">
        <ele>254.9</ele>
        <time>2024-11-12T10:29:50Z</time>
      </trkpt>
      <trkpt lat="45.84199" lon="1.22482">
        <ele>254.9</ele>
        <time>2024-11-12T10:29:51Z</time>
      </trkpt>
      <trkpt lat="45.842" lon="1.22484">
        <ele>254.9</ele>
        <time>2024-11-12T10:29:52Z</time>
      </trkpt>
      <trkpt lat="45.84201" lon="1.22485">
        <ele>255</ele>
        <time>2024-11-12T10:29:53Z</time>
      </trkpt>
      <trkpt lat="45.84202" lon="1.22486">
        <ele>255</ele>
        <time>2024-11-12T10:29:54Z</time>
      </trkpt>
      <trkpt lat="45.84203" lon="1.22487">
        <ele>255</ele>
        <time>2024-11-12T10:29:55Z</time>
      </trkpt>
      <trkpt lat="45.84204" lon="1.22489">
        <ele>255</ele>
        <time>2024-11-12T10:29:56Z</time>
      </trkpt>
      <trkpt lat="45.84205" lon="1.22491">
        <ele>255</ele>
        <time>2024-11-12T10:29:57Z</time>
      </trkpt>
      <trkpt lat="45.84206" lon="1.22491">
        <ele>255</ele>
        <time>2024-11-12T10:29:58Z</time>
      </trkpt>
      <trkpt lat="45.84207" lon="1.22492">
        <ele>255</ele>
        <time>2024-11-12T10:29:59Z</time>
      </trkpt>
      <trkpt lat="45.84209" lon="1.22494">
        <ele>255</ele>
        <time>2024-11-12T10:30:00Z</time>
      </trkpt>
      <trkpt lat="45.84209" lon="1.22495">
        <ele>255</ele>
        <time>2024-11-12T10:30:01Z</time>
      </trkpt>
      <trkpt lat="45.8421" lon="1.22495">
        <ele>255</ele>
        <time>2024-11-12T10:30:02Z</time>
      </trkpt>
      <trkpt lat="45.84212" lon="1.22497">
        <ele>255</ele>
        <time>2024-11-12T10:30:03Z</time>
      </trkpt>
      <trkpt lat="45.84212" lon="1.22498">
        <ele>255</ele>
        <time>2024-11-12T10:30:04Z</time>
      </trkpt>
      <trkpt lat="45.84213" lon="1.22499">
        <ele>255</ele>
        <time>2024-11-12T10:30:05Z</time>
      </trkpt>
      <trkpt lat="45.84215" lon="1.225">
        <ele>255</ele>
        <time>2024-11-12T10:30:06Z</time>
      </trkpt>
      <trkpt lat="45.84216" lon="1.22501">
        <ele>255</ele>
        <time>2024-11-12T10:30:07Z</time>
      </trkpt>
      <trkpt lat="45.84217" lon="1.22501">
        <ele>255</ele>
        <time>2024-11-12T10:30:08Z</time>
      </trkpt>
      <trkpt lat="45.84218" lon="1.22502">
        <ele>255</ele>
        <time>2024-11-12T10:30:09Z</time>
      </trkpt>
      <trkpt lat="45.84219" lon="1.22503">
        <ele>255</ele>
        <time>2024-11-12T10:30:10Z</time>
      </trkpt>
      <trkpt lat="45.84221" lon="1.22504">
        <ele>255</ele>
        <time>2024-11-12T10:30:11Z</time>
      </trkpt>
      <trkpt lat="45.84222" lon="1.22504">
        <ele>255</ele>
        <time>2024-11-12T10:30:12Z</time>
      </trkpt>
      <trkpt lat="45.84222" lon="1.22505">
        <ele>255</ele>
        <time>2024-11-12T10:30:13Z</time>
      </trkpt>
      <trkpt lat="45.84224" lon="1.22507">
        <ele>255</ele>
        <time>2024-11-12T10:30:14Z</time>
      </trkpt>
      <trkpt lat="45.84225" lon="1.22508">
        <ele>255</ele>
        <time>2024-11-12T10:30:15Z</time>
      </trkpt>
      <trkpt lat="45.84226" lon="1.22509">
        <ele>255</ele>
        <time>2024-11-12T10:30:16Z</time>
      </trkpt>
      <trkpt lat="45.84227" lon="1.2251">
        <ele>255</ele>
        <time>2024-11-12T10:30:17Z</time>
      </trkpt>
      <trkpt lat="45.84227" lon="1.22511">
        <ele>255</ele>
        <time>2024-11-12T10:30:18Z</time>
      </trkpt>
      <trkpt lat="45.84228" lon="1.22513">
        <ele>255</ele>
        <time>2024-11-12T10:30:19Z</time>
      </trkpt>
      <trkpt lat="45.84229" lon="1.22514">
        <ele>255</ele>
        <time>2024-11-12T10:30:20Z</time>
      </trkpt>
      <trkpt lat="45.8423" lon="1.22516">
        <ele>255</ele>
        <time>2024-11-12T10:30:21Z</time>
      </trkpt>
      <trkpt lat="45.84231" lon="1.22517">
        <ele>255</ele>
        <time>2024-11-12T10:30:22Z</time>
      </trkpt>
      <trkpt lat="45.84232" lon="1.22517">
        <ele>255</ele>
        <time>2024-11-12T10:30:23Z</time>
      </trkpt>
      <trkpt lat="45.84233" lon="1.22517">
        <ele>255</ele>
        <time>2024-11-12T10:30:24Z</time>
      </trkpt>
      <trkpt lat="45.84235" lon="1.22517">
        <ele>255</ele>
        <time>2024-11-12T10:30:25Z</time>
      </trkpt>
      <trkpt lat="45.84236" lon="1.22516">
        <ele>255</ele>
        <time>2024-11-12T10:30:26Z</time>
      </trkpt>
      <trkpt lat="45.84237" lon="1.22515">
        <ele>255</ele>
        <time>2024-11-12T10:30:27Z</time>
      </trkpt>
      <trkpt lat="45.84238" lon="1.22514">
        <ele>255</ele>
        <time>2024-11-12T10:30:28Z</time>
      </trkpt>
      <trkpt lat="45.84239" lon="1.22513">
        <ele>255.1</ele>
        <time>2024-11-12T10:30:29Z</time>
      </trkpt>
      <trkpt lat="45.8424" lon="1.22512">
        <ele>255.1</ele>
        <time>2024-11-12T10:30:30Z</time>
      </trkpt>
      <trkpt lat="45.84241" lon="1.22511">
        <ele>255.1</ele>
        <time>2024-11-12T10:30:31Z</time>
      </trkpt>
      <trkpt lat="45.84242" lon="1.2251">
        <ele>255.1</ele>
        <time>2024-11-12T10:30:32Z</time>
      </trkpt>
      <trkpt lat="45.84243" lon="1.22509">
        <ele>255.1</ele>
        <time>2024-11-12T10:30:33Z</time>
      </trkpt>
      <trkpt lat="45.84244" lon="1.22507">
        <ele>255.1</ele>
        <time>2024-11-12T10:30:34Z</time>
      </trkpt>
      <trkpt lat="45.84245" lon="1.22506">
        <ele>255.1</ele>
        <time>2024-11-12T10:30:35Z</time>
      </trkpt>
      <trkpt lat="45.84245" lon="1.22504">
        <ele>255.2</ele>
        <time>2024-11-12T10:30:36Z</time>
      </trkpt>
      <trkpt lat="45.84245" lon="1.22501">
        <ele>255.2</ele>
        <time>2024-11-12T10:30:37Z</time>
      </trkpt>
      <trkpt lat="45.84245" lon="1.225">
        <ele>255.2</ele>
        <time>2024-11-12T10:30:38Z</time>
      </trkpt>
      <trkpt lat="45.84245" lon="1.22499">
        <ele>255.2</ele>
        <time>2024-11-12T10:30:39Z</time>
      </trkpt>
      <trkpt lat="45.84245" lon="1.22496">
        <ele>255.3</ele>
        <time>2024-11-12T10:30:40Z</time>
      </trkpt>
      <trkpt lat="45.84246" lon="1.22494">
        <ele>255.3</ele>
        <time>2024-11-12T10:30:41Z</time>
      </trkpt>
      <trkpt lat="45.84246" lon="1.22493">
        <ele>255.3</ele>
        <time>2024-11-12T10:30:42Z</time>
      </trkpt>
      <trkpt lat="45.84247" lon="1.22492">
        <ele>255.3</ele>
        <time>2024-11-12T10:30:43Z</time>
      </trkpt>
      <trkpt lat="45.84249" lon="1.22491">
        <ele>255.4</ele>
        <time>2024-11-12T10:30:44Z</time>
      </trkpt>
      <trkpt lat="45.8425" lon="1.2249">
        <ele>255.4</ele>
        <time>2024-11-12T10:30:45Z</time>
      </trkpt>
      <trkpt lat="45.84252" lon="1.2249">
        <ele>255.5</ele>
        <time>2024-11-12T10:30:46Z</time>
      </trkpt>
      <trkpt lat="45.84254" lon="1.22489">
        <ele>255.6</ele>
        <time>2024-11-12T10:30:47Z</time>
      </trkpt>
      <trkpt lat="45.84255" lon="1.22489">
        <ele>255.6</ele>
        <time>2024-11-12T10:30:48Z</time>
      </trkpt>
      <trkpt lat="45.84256" lon="1.22489">
        <ele>255.6</ele>
        <time>2024-11-12T10:30:49Z</time>
      </trkpt>
      <trkpt lat="45.84257" lon="1.22489">
        <ele>255.7</ele>
        <time>2024-11-12T10:30:50Z</time>
      </trkpt>
      <trkpt lat="45.84259" lon="1.22489">
        <ele>255.7</ele>
        <time>2024-11-12T10:30:51Z</time>
      </trkpt>
      <trkpt lat="45.8426" lon="1.22488">
        <ele>255.8</ele>
        <time>2024-11-12T10:30:52Z</time>
      </trkpt>
      <trkpt lat="45.84261" lon="1.22489">
        <ele>255.8</ele>
        <time>2024-11-12T10:30:53Z</time>
      </trkpt>
      <trkpt lat="45.84262" lon="1.22488">
        <ele>255.9</ele>
        <time>2024-11-12T10:30:54Z</time>
      </trkpt>
      <trkpt lat="45.84263" lon="1.22488">
        <ele>256</ele>
        <time>2024-11-12T10:30:55Z</time>
      </trkpt>
      <trkpt lat="45.84264" lon="1.22487">
        <ele>256</ele>
        <time>2024-11-12T10:30:56Z</time>
      </trkpt>
      <trkpt lat="45.84265" lon="1.22487">
        <ele>256.1</ele>
        <time>2024-11-12T10:30:57Z</time>
      </trkpt>
      <trkpt lat="45.84266" lon="1.22486">
        <ele>256.1</ele>
        <time>2024-11-12T10:30:58Z</time>
      </trkpt>
      <trkpt lat="45.84267" lon="1.22485">
        <ele>256.2</ele>
        <time>2024-11-12T10:30:59Z</time>
      </trkpt>
      <trkpt lat="45.84268" lon="1.22485">
        <ele>256.3</ele>
        <time>2024-11-12T10:31:00Z</time>
      </trkpt>
      <trkpt lat="45.8427" lon="1.22485">
        <ele>256.4</ele>
        <time>2024-11-12T10:31:01Z</time>
      </trkpt>
      <trkpt lat="45.84271" lon="1.22484">
        <ele>256.4</ele>
        <time>2024-11-12T10:31:02Z</time>
      </trkpt>
      <trkpt lat="45.84274" lon="1.22484">
        <ele>256.6</ele>
        <time>2024-11-12T10:31:03Z</time>
      </trkpt>
      <trkpt lat="45.84275" lon="1.22483">
        <ele>256.6</ele>
        <time>2024-11-12T10:31:04Z</time>
      </trkpt>
      <trkpt lat="45.84275" lon="1.22483">
        <ele>256.7</ele>
        <time>2024-11-12T10:31:05Z</time>
      </trkpt>
      <trkpt lat="45.84277" lon="1.22483">
        <ele>256.8</ele>
        <time>2024-11-12T10:31:06Z</time>
      </trkpt>
      <trkpt lat="45.84278" lon="1.22482">
        <ele>256.8</ele>
        <time>2024-11-12T10:31:07Z</time>
      </trkpt>
      <trkpt lat="45.8428" lon="1.22481">
        <ele>257</ele>
        <time>2024-11-12T10:31:08Z</time>
      </trkpt>
      <trkpt lat="45.84281" lon="1.22481">
        <ele>257</ele>
        <time>2024-11-12T10:31:09Z</time>
      </trkpt>
      <trkpt lat="45.84282" lon="1.2248">
        <ele>257.1</ele>
        <time>2024-11-12T10:31:10Z</time>
      </trkpt>
      <trkpt lat="45.84283" lon="1.22479">
        <ele>257.2</ele>
        <time>2024-11-12T10:31:11Z</time>
      </trkpt>
      <trkpt lat="45.84285" lon="1.22478">
        <ele>257.3</ele>
        <time>2024-11-12T10:31:12Z</time>
      </trkpt>
      <trkpt lat="45.84286" lon="1.22477">
        <ele>257.4</ele>
        <time>2024-11-12T10:31:13Z</time>
      </trkpt>
      <trkpt lat="45.84287" lon="1.22476">
        <ele>257.5</ele>
        <time>2024-11-12T10:31:14Z</time>
      </trkpt>
      <trkpt lat="45.84288" lon="1.22476">
        <ele>257.6</ele>
        <time>2024-11-12T10:31:15Z</time>
      </trkpt>
      <trkpt lat="45.8429" lon="1.22475">
        <ele>257.7</ele>
        <time>2024-11-12T10:31:16Z</time>
      </trkpt>
      <trkpt lat="45.84291" lon="1.22474">
        <ele>257.8</ele>
        <time>2024-11-12T10:31:17Z</time>
      </trkpt>
      <trkpt lat="45.84293" lon="1.22473">
        <ele>257.9</ele>
        <time>2024-11-12T10:31:18Z</time>
      </trkpt>
      <trkpt lat="45.84294" lon="1.22473">
        <ele>258</ele>
        <time>2024-11-12T10:31:19Z</time>
      </trkpt>
      <trkpt lat="45.84295" lon="1.22472">
        <ele>258.1</ele>
        <time>2024-11-12T10:31:20Z</time>
      </trkpt>
      <trkpt lat="45.84296" lon="1.22472">
        <ele>258.2</ele>
        <time>2024-11-12T10:31:21Z</time>
      </trkpt>
      <trkpt lat="45.84298" lon="1.22471">
        <ele>258.3</ele>
        <time>2024-11-12T10:31:22Z</time>
      </trkpt>
      <trkpt lat="45.84299" lon="1.22471">
        <ele>258.4</ele>
        <time>2024-11-12T10:31:23Z</time>
      </trkpt>
      <trkpt lat="45.843" lon="1.2247">
        <ele>258.5</ele>
        <time>2024-11-12T10:31:24Z</time>
      </trkpt>
      <trkpt lat="45.84301" lon="1.2247">
        <ele>258.6</ele>
        <time>2024-11-12T10:31:25Z</time>
      </trkpt>
      <trkpt lat="45.84302" lon="1.2247">
        <ele>258.8</ele>
        <time>2024-11-12T10:31:26Z</time>
      </trkpt>
      <trkpt lat="45.84304" lon="1.22469">
        <ele>258.9</ele>
        <time>2024-11-12T10:31:27Z</time>
      </trkpt>
      <trkpt lat="45.84306" lon="1.22468">
        <ele>259.1</ele>
        <time>2024-11-12T10:31:28Z</time>
      </trkpt>
      <trkpt lat="45.84306" lon="1.22467">
        <ele>259.2</ele>
        <time>2024-11-12T10:31:29Z</time>
      </trkpt>
      <trkpt lat="45.84307" lon="1.22467">
        <ele>259.3</ele>
        <time>2024-11-12T10:31:30Z</time>
      </trkpt>
      <trkpt lat="45.84309" lon="1.22465">
        <ele>259.6</ele>
        <time>2024-11-12T10:31:31Z</time>
      </trkpt>
      <trkpt lat="45.84309" lon="1.22464">
        <ele>259.7</ele>
        <time>2024-11-12T10:31:32Z</time>
      </trkpt>
      <trkpt lat="45.8431" lon="1.22463">
        <ele>259.8</ele>
        <time>2024-11-12T10:31:33Z</time>
      </trkpt>
      <trkpt lat="45.84311" lon="1.2246">
        <ele>260</ele>
        <time>2024-11-12T10:31:34Z</time>
      </trkpt>
      <trkpt lat="45.84311" lon="1.22459">
        <ele>260.1</ele>
        <time>2024-11-12T10:31:35Z</time>
      </trkpt>
      <trkpt lat="45.84311" lon="1.22458">
        <ele>260.2</ele>
        <time>2024-11-12T10:31:36Z</time>
      </trkpt>
      <trkpt lat="45.84312" lon="1.22456">
        <ele>260.4</ele>
        <time>2024-11-12T10:31:37Z</time>
      </trkpt>
      <trkpt lat="45.84312" lon="1.22455">
        <ele>260.6</ele>
        <time>2024-11-12T10:31:38Z</time>
      </trkpt>
      <trkpt lat="45.84313" lon="1.22453">
        <ele>260.7</ele>
        <time>2024-11-12T10:31:39Z</time>
      </trkpt>
      <trkpt lat="45.84313" lon="1.22452">
        <ele>260.8</ele>
        <time>2024-11-12T10:31:40Z</time>
      </trkpt>
      <trkpt lat="45.84313" lon="1.22452">
        <ele>260.8</ele>
        <time>2024-11-12T10:31:41Z</time>
      </trkpt>
      <trkpt lat="45.84314" lon="1.22451">
        <ele>261</ele>
        <time>2024-11-12T10:31:42Z</time>
      </trkpt>
      <trkpt lat="45.84314" lon="1.2245">
        <ele>261.1</ele>
        <time>2024-11-12T10:31:43Z</time>
      </trkpt>
      <trkpt lat="45.84315" lon="1.22449">
        <ele>261.2</ele>
        <time>2024-11-12T10:31:44Z</time>
      </trkpt>
      <trkpt lat="45.84315" lon="1.22448">
        <ele>261.3</ele>
        <time>2024-11-12T10:31:45Z</time>
      </trkpt>
      <trkpt lat="45.84316" lon="1.22447">
        <ele>261.4</ele>
        <time>2024-11-12T10:31:46Z</time>
      </trkpt>
      <trkpt lat="45.84317" lon="1.22446">
        <ele>261.6</ele>
        <time>2024-11-12T10:31:47Z</time>
      </trkpt>
      <trkpt lat="45.84318" lon="1.22445">
        <ele>261.7</ele>
        <time>2024-11-12T10:31:48Z</time>
      </trkpt>
      <trkpt lat="45.84319" lon="1.22444">
        <ele>261.8</ele>
        <time>2024-11-12T10:31:49Z</time>
      </trkpt>
      <trkpt lat="45.84319" lon="1.22443">
        <ele>261.9</ele>
        <time>2024-11-12T10:31:50Z</time>
      </trkpt>
      <trkpt lat="45.8432" lon="1.22442">
        <ele>262</ele>
        <time>2024-11-12T10:31:51Z</time>
      </trkpt>
      <trkpt lat="45.84321" lon="1.2244">
        <ele>262.2</ele>
        <time>2024-11-12T10:31:52Z</time>
      </trkpt>
      <trkpt lat="45.84321" lon="1.22439">
        <ele>262.3</ele>
        <time>2024-11-12T10:31:53Z</time>
      </trkpt>
      <trkpt lat="45.84322" lon="1.22438">
        <ele>262.5</ele>
        <time>2024-11-12T10:31:54Z</time>
      </trkpt>
      <trkpt lat="45.84323" lon="1.22436">
        <ele>262.6</ele>
        <time>2024-11-12T10:31:55Z</time>
      </trkpt>
      <trkpt lat="45.84324" lon="1.22434">
        <ele>262.8</ele>
        <time>2024-11-12T10:31:56Z</time>
      </trkpt>
      <trkpt lat="45.84324" lon="1.22433">
        <ele>262.9</ele>
        <time>2024-11-12T10:31:57Z</time>
      </trkpt>
      <trkpt lat="45.84325" lon="1.22432">
        <ele>263</ele>
        <time>2024-11-12T10:31:58Z</time>
      </trkpt>
      <trkpt lat="45.84326" lon="1.2243">
        <ele>263.1</ele>
        <time>2024-11-12T10:31:59Z</time>
      </trkpt>
      <trkpt lat="45.84326" lon="1.22429">
        <ele>263.3</ele>
        <time>2024-11-12T10:32:00Z</time>
      </trkpt>
      <trkpt lat="45.84326" lon="1.22429">
        <ele>263.3</ele>
        <time>2024-11-12T10:32:01Z</time>
      </trkpt>
      <trkpt lat="45.84327" lon="1.22427">
        <ele>263.4</ele>
        <time>2024-11-12T10:32:02Z</time>
      </trkpt>
      <trkpt lat="45.84328" lon="1.22426">
        <ele>263.5</ele>
        <time>2024-11-12T10:32:03Z</time>
      </trkpt>
      <trkpt lat="45.84328" lon="1.22425">
        <ele>263.7</ele>
        <time>2024-11-12T10:32:04Z</time>
      </trkpt>
      <trkpt lat="45.8433" lon="1.22422">
        <ele>263.9</ele>
        <time>2024-11-12T10:32:05Z</time>
      </trkpt>
      <trkpt lat="45.8433" lon="1.22421">
        <ele>264</ele>
        <time>2024-11-12T10:32:06Z</time>
      </trkpt>
      <trkpt lat="45.84331" lon="1.2242">
        <ele>264.1</ele>
        <time>2024-11-12T10:32:07Z</time>
      </trkpt>
      <trkpt lat="45.84331" lon="1.22419">
        <ele>264.2</ele>
        <time>2024-11-12T10:32:08Z</time>
      </trkpt>
      <trkpt lat="45.84332" lon="1.22418">
        <ele>264.3</ele>
        <time>2024-11-12T10:32:09Z</time>
      </trkpt>
      <trkpt lat="45.84333" lon="1.22416">
        <ele>264.5</ele>
        <time>2024-11-12T10:32:10Z</time>
      </trkpt>
      <trkpt lat="45.84333" lon="1.22415">
        <ele>264.7</ele>
        <time>2024-11-12T10:32:11Z</time>
      </trkpt>
      <trkpt lat="45.84334" lon="1.22413">
        <ele>264.9</ele>
        <time>2024-11-12T10:32:12Z</time>
      </trkpt>
      <trkpt lat="45.84335" lon="1.22412">
        <ele>265</ele>
        <time>2024-11-12T10:32:13Z</time>
      </trkpt>
      <trkpt lat="45.84335" lon="1.22411">
        <ele>265.2</ele>
        <time>2024-11-12T10:32:14Z</time>
      </trkpt>
      <trkpt lat="45.84337" lon="1.22411">
        <ele>265.3</ele>
        <time>2024-11-12T10:32:15Z</time>
      </trkpt>
      <trkpt lat="45.84338" lon="1.2241">
        <ele>265.5</ele>
        <time>2024-11-12T10:32:16Z</time>
      </trkpt>
      <trkpt lat="45.84339" lon="1.22409">
        <ele>265.8</ele>
        <time>2024-11-12T10:32:17Z</time>
      </trkpt>
      <trkpt lat="45.8434" lon="1.22409">
        <ele>265.9</ele>
        <time>2024-11-12T10:32:18Z</time>
      </trkpt>
      <trkpt lat="45.84341" lon="1.22409">
        <ele>266.1</ele>
        <time>2024-11-12T10:32:19Z</time>
      </trkpt>
      <trkpt lat="45.84343" lon="1.22409">
        <ele>266.3</ele>
        <time>2024-11-12T10:32:20Z</time>
      </trkpt>
      <trkpt lat="45.84344" lon="1.22409">
        <ele>266.5</ele>
        <time>2024-11-12T10:32:21Z</time>
      </trkpt>
      <trkpt lat="45.84345" lon="1.22409">
        <ele>266.8</ele>
        <time>2024-11-12T10:32:22Z</time>
      </trkpt>
      <trkpt lat="45.84346" lon="1.2241">
        <ele>266.9</ele>
        <time>2024-11-12T10:32:23Z</time>
      </trkpt>
      <trkpt lat="45.84347" lon="1.2241">
        <ele>267.1</ele>
        <time>2024-11-12T10:32:24Z</time>
      </trkpt>
      <trkpt lat="45.84348" lon="1.22411">
        <ele>267.3</ele>
        <time>2024-11-12T10:32:25Z</time>
      </trkpt>
      <trkpt lat="45.84349" lon="1.22411">
        <ele>267.4</ele>
        <time>2024-11-12T10:32:26Z</time>
      </trkpt>
      <trkpt lat="45.84351" lon="1.22412">
        <ele>267.6</ele>
        <time>2024-11-12T10:32:27Z</time>
      </trkpt>
      <trkpt lat="45.84352" lon="1.22412">
        <ele>267.7</ele>
        <time>2024-11-12T10:32:28Z</time>
      </trkpt>
      <trkpt lat="45.84353" lon="1.22412">
        <ele>267.9</ele>
        <time>2024-11-12T10:32:29Z</time>
      </trkpt>
      <trkpt lat="45.84354" lon="1.22412">
        <ele>268</ele>
        <time>2024-11-12T10:32:30Z</time>
      </trkpt>
      <trkpt lat="45.84355" lon="1.22412">
        <ele>268.1</ele>
        <time>2024-11-12T10:32:31Z</time>
      </trkpt>
      <trkpt lat="45.84356" lon="1.22411">
        <ele>268.3</ele>
        <time>2024-11-12T10:32:32Z</time>
      </trkpt>
      <trkpt lat="45.84357" lon="1.22411">
        <ele>268.4</ele>
        <time>2024-11-12T10:32:33Z</time>
      </trkpt>
      <trkpt lat="45.84358" lon="1.22411">
        <ele>268.5</ele>
        <time>2024-11-12T10:32:34Z</time>
      </trkpt>
      <trkpt lat="45.84359" lon="1.2241">
        <ele>268.7</ele>
        <time>2024-11-12T10:32:35Z</time>
      </trkpt>
      <trkpt lat="45.8436" lon="1.2241">
        <ele>268.8</ele>
        <time>2024-11-12T10:32:36Z</time>
      </trkpt>
      <trkpt lat="45.84361" lon="1.22409">
        <ele>268.9</ele>
        <time>2024-11-12T10:32:37Z</time>
      </trkpt>
      <trkpt lat="45.84362" lon="1.22408">
        <ele>269</ele>
        <time>2024-11-12T10:32:38Z</time>
      </trkpt>
      <trkpt lat="45.84363" lon="1.22407">
        <ele>269.1</ele>
        <time>2024-11-12T10:32:39Z</time>
      </trkpt>
      <trkpt lat="45.84364" lon="1.22407">
        <ele>269.2</ele>
        <time>2024-11-12T10:32:40Z</time>
      </trkpt>
      <trkpt lat="45.84365" lon="1.22406">
        <ele>269.3</ele>
        <time>2024-11-12T10:32:41Z</time>
      </trkpt>
      <trkpt lat="45.84367" lon="1.22405">
        <ele>269.5</ele>
        <time>2024-11-12T10:32:42Z</time>
      </trkpt>
      <trkpt lat="45.84368" lon="1.22404">
        <ele>269.6</ele>
        <time>2024-11-12T10:32:43Z</time>
      </trkpt>
      <trkpt lat="45.84368" lon="1.22404">
        <ele>269.7</ele>
        <time>2024-11-12T10:32:44Z</time>
      </trkpt>
      <trkpt lat="45.8437" lon="1.22402">
        <ele>269.9</ele>
        <time>2024-11-12T10:32:45Z</time>
      </trkpt>
      <trkpt lat="45.84371" lon="1.22401">
        <ele>270</ele>
        <time>2024-11-12T10:32:46Z</time>
      </trkpt>
      <trkpt lat="45.84372" lon="1.22401">
        <ele>270.1</ele>
        <time>2024-11-12T10:32:47Z</time>
      </trkpt>
      <trkpt lat="45.84373" lon="1.224">
        <ele>270.2</ele>
        <time>2024-11-12T10:32:48Z</time>
      </trkpt>
      <trkpt lat="45.84374" lon="1.22399">
        <ele>270.3</ele>
        <time>2024-11-12T10:32:49Z</time>
      </trkpt>
      <trkpt lat="45.84375" lon="1.22399">
        <ele>270.3</ele>
        <time>2024-11-12T10:32:50Z</time>
      </trkpt>
      <trkpt lat="45.84375" lon="1.22398">
        <ele>270.4</ele>
        <time>2024-11-12T10:32:51Z</time>
      </trkpt>
      <trkpt lat="45.84376" lon="1.22397">
        <ele>270.5</ele>
        <time>2024-11-12T10:32:52Z</time>
      </trkpt>
      <trkpt lat="45.84376" lon="1.22397">
        <ele>270.6</ele>
        <time>2024-11-12T10:32:53Z</time>
      </trkpt>
      <trkpt lat="45.84377" lon="1.22396">
        <ele>270.7</ele>
        <time>2024-11-12T10:32:54Z</time>
      </trkpt>
      <trkpt lat="45.84379" lon="1.22395">
        <ele>270.9</ele>
        <time>2024-11-12T10:32:55Z</time>
      </trkpt>
      <trkpt lat="45.8438" lon="1.22394">
        <ele>271</ele>
        <time>2024-11-12T10:32:56Z</time>
      </trkpt>
      <trkpt lat="45.84381" lon="1.22394">
        <ele>271.1</ele>
        <time>2024-11-12T10:32:57Z</time>
      </trkpt>
      <trkpt lat="45.84382" lon="1.22393">
        <ele>271.2</ele>
        <time>2024-11-12T10:32:58Z</time>
      </trkpt>
      <trkpt lat="45.84382" lon="1.22392">
        <ele>271.3</ele>
        <time>2024-11-12T10:32:59Z</time>
      </trkpt>
      <trkpt lat="45.84383" lon="1.22391">
        <ele>271.4</ele>
        <time>2024-11-12T10:33:00Z</time>
      </trkpt>
      <trkpt lat="45.84384" lon="1.22391">
        <ele>271.5</ele>
        <time>2024-11-12T10:33:01Z</time>
      </trkpt>
      <trkpt lat="45.84385" lon="1.22389">
        <ele>271.7</ele>
        <time>2024-11-12T10:33:02Z</time>
      </trkpt>
      <trkpt lat="45.84386" lon="1.22389">
        <ele>271.8</ele>
        <time>2024-11-12T10:33:03Z</time>
      </trkpt>
      <trkpt lat="45.84387" lon="1.22388">
        <ele>271.9</ele>
        <time>2024-11-12T10:33:04Z</time>
      </trkpt>
      <trkpt lat="45.84388" lon="1.22386">
        <ele>272.2</ele>
        <time>2024-11-12T10:33:05Z</time>
      </trkpt>
      <trkpt lat="45.84389" lon="1.22385">
        <ele>272.3</ele>
        <time>2024-11-12T10:33:06Z</time>
      </trkpt>
      <trkpt lat="45.8439" lon="1.22385">
        <ele>272.4</ele>
        <time>2024-11-12T10:33:07Z</time>
      </trkpt>
      <trkpt lat="45.84391" lon="1.22384">
        <ele>272.6</ele>
        <time>2024-11-12T10:33:08Z</time>
      </trkpt>
      <trkpt lat="45.84392" lon="1.22383">
        <ele>272.7</ele>
        <time>2024-11-12T10:33:09Z</time>
      </trkpt>
      <trkpt lat="45.84393" lon="1.22383">
        <ele>272.8</ele>
        <time>2024-11-12T10:33:10Z</time>
      </trkpt>
      <trkpt lat="45.84394" lon="1.22382">
        <ele>273</ele>
        <time>2024-11-12T10:33:11Z</time>
      </trkpt>
      <trkpt lat="45.84395" lon="1.22381">
        <ele>273.1</ele>
        <time>2024-11-12T10:33:12Z</time>
      </trkpt>
      <trkpt lat="45.84396" lon="1.2238">
        <ele>273.3</ele>
        <time>2024-11-12T10:33:13Z</time>
      </trkpt>
      <trkpt lat="45.84396" lon="1.2238">
        <ele>273.4</ele>
        <time>2024-11-12T10:33:14Z</time>
      </trkpt>
      <trkpt lat="45.84397" lon="1.22379">
        <ele>273.6</ele>
        <time>2024-11-12T10:33:15Z</time>
      </trkpt>
      <trkpt lat="45.84398" lon="1.22379">
        <ele>273.7</ele>
        <time>2024-11-12T10:33:16Z</time>
      </trkpt>
      <trkpt lat="45.844" lon="1.22377">
        <ele>273.9</ele>
        <time>2024-11-12T10:33:17Z</time>
      </trkpt>
      <trkpt lat="45.844" lon="1.22377">
        <ele>274</ele>
        <time>2024-11-12T10:33:18Z</time>
      </trkpt>
      <trkpt lat="45.84401" lon="1.22376">
        <ele>274.2</ele>
        <time>2024-11-12T10:33:19Z</time>
      </trkpt>
      <trkpt lat="45.84402" lon="1.22376">
        <ele>274.3</ele>
        <time>2024-11-12T10:33:20Z</time>
      </trkpt>
      <trkpt lat="45.84403" lon="1.22376">
        <ele>274.4</ele>
        <time>2024-11-12T10:33:21Z</time>
      </trkpt>
      <trkpt lat="45.84404" lon="1.22375">
        <ele>274.6</ele>
        <time>2024-11-12T10:33:22Z</time>
      </trkpt>
      <trkpt lat="45.84405" lon="1.22374">
        <ele>274.7</ele>
        <time>2024-11-12T10:33:23Z</time>
      </trkpt>
      <trkpt lat="45.84406" lon="1.22374">
        <ele>274.9</ele>
        <time>2024-11-12T10:33:24Z</time>
      </trkpt>
      <trkpt lat="45.84407" lon="1.22373">
        <ele>275</ele>
        <time>2024-11-12T10:33:25Z</time>
      </trkpt>
      <trkpt lat="45.84408" lon="1.22373">
        <ele>275</ele>
        <time>2024-11-12T10:33:26Z</time>
      </trkpt>
      <trkpt lat="45.84409" lon="1.22371">
        <ele>275</ele>
        <time>2024-11-12T10:33:27Z</time>
      </trkpt>
      <trkpt lat="45.8441" lon="1.22371">
        <ele>275</ele>
        <time>2024-11-12T10:33:28Z</time>
      </trkpt>
      <trkpt lat="45.84411" lon="1.2237">
        <ele>275</ele>
        <time>2024-11-12T10:33:29Z</time>
      </trkpt>
      <trkpt lat="45.84412" lon="1.2237">
        <ele>275</ele>
        <time>2024-11-12T10:33:30Z</time>
      </trkpt>
      <trkpt lat="45.84413" lon="1.22369">
        <ele>275</ele>
        <time>2024-11-12T10:33:31Z</time>
      </trkpt>
      <trkpt lat="45.84414" lon="1.22367">
        <ele>275.1</ele>
        <time>2024-11-12T10:33:32Z</time>
      </trkpt>
      <trkpt lat="45.84414" lon="1.22366">
        <ele>275.1</ele>
        <time>2024-11-12T10:33:33Z</time>
      </trkpt>
      <trkpt lat="45.84416" lon="1.22364">
        <ele>275.1</ele>
        <time>2024-11-12T10:33:34Z</time>
      </trkpt>
      <trkpt lat="45.84416" lon="1.22363">
        <ele>275.1</ele>
        <time>2024-11-12T10:33:35Z</time>
      </trkpt>
      <trkpt lat="45.84417" lon="1.22362">
        <ele>275.2</ele>
        <time>2024-11-12T10:33:36Z</time>
      </trkpt>
      <trkpt lat="45.84417" lon="1.22361">
        <ele>275.2</ele>
        <time>2024-11-12T10:33:37Z</time>
      </trkpt>
      <trkpt lat="45.84417" lon="1.2236">
        <ele>275.2</ele>
        <time>2024-11-12T10:33:38Z</time>
      </trkpt>
      <trkpt lat="45.84418" lon="1.22359">
        <ele>275.2</ele>
        <time>2024-11-12T10:33:39Z</time>
      </trkpt>
      <trkpt lat="45.84418" lon="1.22358">
        <ele>275.2</ele>
        <time>2024-11-12T10:33:40Z</time>
      </trkpt>
      <trkpt lat="45.84419" lon="1.22357">
        <ele>275.3</ele>
        <time>2024-11-12T10:33:41Z</time>
      </trkpt>
      <trkpt lat="45.8442" lon="1.22354">
        <ele>275.3</ele>
        <time>2024-11-12T10:33:42Z</time>
      </trkpt>
      <trkpt lat="45.8442" lon="1.22353">
        <ele>275.3</ele>
        <time>2024-11-12T10:33:43Z</time>
      </trkpt>
      <trkpt lat="45.84421" lon="1.22351">
        <ele>275.3</ele>
        <time>2024-11-12T10:33:44Z</time>
      </trkpt>
      <trkpt lat="45.84421" lon="1.2235">
        <ele>275.3</ele>
        <time>2024-11-12T10:33:45Z</time>
      </trkpt>
      <trkpt lat="45.84422" lon="1.22349">
        <ele>275.3</ele>
        <time>2024-11-12T10:33:46Z</time>
      </trkpt>
      <trkpt lat="45.84423" lon="1.22346">
        <ele>275.3</ele>
        <time>2024-11-12T10:33:47Z</time>
      </trkpt>
      <trkpt lat="45.84424" lon="1.22345">
        <ele>275.3</ele>
        <time>2024-11-12T10:33:48Z</time>
      </trkpt>
      <trkpt lat="45.84425" lon="1.22344">
        <ele>275.3</ele>
        <time>2024-11-12T10:33:49Z</time>
      </trkpt>
      <trkpt lat="45.84425" lon="1.22343">
        <ele>275.3</ele>
        <time>2024-11-12T10:33:50Z</time>
      </trkpt>
      <trkpt lat="45.84426" lon="1.22342">
        <ele>275.3</ele>
        <time>2024-11-12T10:33:51Z</time>
      </trkpt>
      <trkpt lat="45.84426" lon="1.22341">
        <ele>275.3</ele>
        <time>2024-11-12T10:33:52Z</time>
      </trkpt>
      <trkpt lat="45.84427" lon="1.2234">
        <ele>275.3</ele>
        <time>2024-11-12T10:33:53Z</time>
      </trkpt>
      <trkpt lat="45.84428" lon="1.22339">
        <ele>275.3</ele>
        <time>2024-11-12T10:33:54Z</time>
      </trkpt>
      <trkpt lat="45.84429" lon="1.22339">
        <ele>275.3</ele>
        <time>2024-11-12T10:33:55Z</time>
      </trkpt>
      <trkpt lat="45.84429" lon="1.22338">
        <ele>275.3</ele>
        <time>2024-11-12T10:33:56Z</time>
      </trkpt>
      <trkpt lat="45.8443" lon="1.22335">
        <ele>275.3</ele>
        <time>2024-11-12T10:33:57Z</time>
      </trkpt>
      <trkpt lat="45.8443" lon="1.22334">
        <ele>275.3</ele>
        <time>2024-11-12T10:33:58Z</time>
      </trkpt>
      <trkpt lat="45.84431" lon="1.22333">
        <ele>275.3</ele>
        <time>2024-11-12T10:33:59Z</time>
      </trkpt>
      <trkpt lat="45.84431" lon="1.22332">
        <ele>275.4</ele>
        <time>2024-11-12T10:34:00Z</time>
      </trkpt>
      <trkpt lat="45.84431" lon="1.2233">
        <ele>275.4</ele>
        <time>2024-11-12T10:34:01Z</time>
      </trkpt>
      <trkpt lat="45.84432" lon="1.22327">
        <ele>275.6</ele>
        <time>2024-11-12T10:34:02Z</time>
      </trkpt>
      <trkpt lat="45.84432" lon="1.22326">
        <ele>275.6</ele>
        <time>2024-11-12T10:34:03Z</time>
      </trkpt>
      <trkpt lat="45.84432" lon="1.22325">
        <ele>275.6</ele>
        <time>2024-11-12T10:34:04Z</time>
      </trkpt>
      <trkpt lat="45.84433" lon="1.22322">
        <ele>275.7</ele>
        <time>2024-11-12T10:34:05Z</time>
      </trkpt>
      <trkpt lat="45.84433" lon="1.2232">
        <ele>275.7</ele>
        <time>2024-11-12T10:34:06Z</time>
      </trkpt>
      <trkpt lat="45.84433" lon="1.22319">
        <ele>275.8</ele>
        <time>2024-11-12T10:34:07Z</time>
      </trkpt>
      <trkpt lat="45.84433" lon="1.22318">
        <ele>275.8</ele>
        <time>2024-11-12T10:34:08Z</time>
      </trkpt>
      <trkpt lat="45.84434" lon="1.22316">
        <ele>275.9</ele>
        <time>2024-11-12T10:34:09Z</time>
      </trkpt>
      <trkpt lat="45.84434" lon="1.22315">
        <ele>275.9</ele>
        <time>2024-11-12T10:34:10Z</time>
      </trkpt>
      <trkpt lat="45.84434" lon="1.22312">
        <ele>276</ele>
        <time>2024-11-12T10:34:11Z</time>
      </trkpt>
      <trkpt lat="45.84434" lon="1.22311">
        <ele>276</ele>
        <time>2024-11-12T10:34:12Z</time>
      </trkpt>
      <trkpt lat="45.84435" lon="1.22309">
        <ele>276</ele>
        <time>2024-11-12T10:34:13Z</time>
      </trkpt>
      <trkpt lat="45.84435" lon="1.22308">
        <ele>276</ele>
        <time>2024-11-12T10:34:14Z</time>
      </trkpt>
      <trkpt lat="45.84435" lon="1.22306">
        <ele>276.1</ele>
        <time>2024-11-12T10:34:15Z</time>
      </trkpt>
      <trkpt lat="45.84435" lon="1.22305">
        <ele>276.1</ele>
        <time>2024-11-12T10:34:16Z</time>
      </trkpt>
      <trkpt lat="45.84435" lon="1.22303">
        <ele>276.2</ele>
        <time>2024-11-12T10:34:17Z</time>
      </trkpt>
      <trkpt lat="45.84435" lon="1.22302">
        <ele>276.2</ele>
        <time>2024-11-12T10:34:18Z</time>
      </trkpt>
      <trkpt lat="45.84435" lon="1.223">
        <ele>276.2</ele>
        <time>2024-11-12T10:34:19Z</time>
      </trkpt>
      <trkpt lat="45.84436" lon="1.22297">
        <ele>276.3</ele>
        <time>2024-11-12T10:34:20Z</time>
      </trkpt>
      <trkpt lat="45.84436" lon="1.22296">
        <ele>276.4</ele>
        <time>2024-11-12T10:34:21Z</time>
      </trkpt>
      <trkpt lat="45.84436" lon="1.22295">
        <ele>276.4</ele>
        <time>2024-11-12T10:34:22Z</time>
      </trkpt>
      <trkpt lat="45.84436" lon="1.22293">
        <ele>276.5</ele>
        <time>2024-11-12T10:34:23Z</time>
      </trkpt>
      <trkpt lat="45.84436" lon="1.22292">
        <ele>276.6</ele>
        <time>2024-11-12T10:34:24Z</time>
      </trkpt>
      <trkpt lat="45.84437" lon="1.2229">
        <ele>276.6</ele>
        <time>2024-11-12T10:34:25Z</time>
      </trkpt>
      <trkpt lat="45.84437" lon="1.22289">
        <ele>276.7</ele>
        <time>2024-11-12T10:34:26Z</time>
      </trkpt>
      <trkpt lat="45.84438" lon="1.22287">
        <ele>276.8</ele>
        <time>2024-11-12T10:34:27Z</time>
      </trkpt>
      <trkpt lat="45.84439" lon="1.22286">
        <ele>276.9</ele>
        <time>2024-11-12T10:34:28Z</time>
      </trkpt>
      <trkpt lat="45.8444" lon="1.22285">
        <ele>277</ele>
        <time>2024-11-12T10:34:29Z</time>
      </trkpt>
      <trkpt lat="45.84441" lon="1.22284">
        <ele>277</ele>
        <time>2024-11-12T10:34:30Z</time>
      </trkpt>
      <trkpt lat="45.84442" lon="1.22284">
        <ele>277</ele>
        <time>2024-11-12T10:34:31Z</time>
      </trkpt>
      <trkpt lat="45.84443" lon="1.22283">
        <ele>277</ele>
        <time>2024-11-12T10:34:32Z</time>
      </trkpt>
      <trkpt lat="45.84445" lon="1.22283">
        <ele>277</ele>
        <time>2024-11-12T10:34:33Z</time>
      </trkpt>
      <trkpt lat="45.84447" lon="1.22284">
        <ele>276.9</ele>
        <time>2024-11-12T10:34:34Z</time>
      </trkpt>
      <trkpt lat="45.84447" lon="1.22285">
        <ele>276.9</ele>
        <time>2024-11-12T10:34:35Z</time>
      </trkpt>
      <trkpt lat="45.84448" lon="1.22285">
        <ele>276.9</ele>
        <time>2024-11-12T10:34:36Z</time>
      </trkpt>
      <trkpt lat="45.8445" lon="1.22286">
        <ele>276.9</ele>
        <time>2024-11-12T10:34:37Z</time>
      </trkpt>
      <trkpt lat="45.84451" lon="1.22287">
        <ele>276.9</ele>
        <time>2024-11-12T10:34:38Z</time>
      </trkpt>
      <trkpt lat="45.84451" lon="1.22288">
        <ele>276.9</ele>
        <time>2024-11-12T10:34:39Z</time>
      </trkpt>
      <trkpt lat="45.84452" lon="1.22289">
        <ele>276.9</ele>
        <time>2024-11-12T10:34:40Z</time>
      </trkpt>
      <trkpt lat="45.84452" lon="1.22289">
        <ele>276.9</ele>
        <time>2024-11-12T10:34:41Z</time>
      </trkpt>
      <trkpt lat="45.84453" lon="1.2229">
        <ele>276.9</ele>
        <time>2024-11-12T10:34:42Z</time>
      </trkpt>
      <trkpt lat="45.84453" lon="1.22291">
        <ele>276.8</ele>
        <time>2024-11-12T10:34:43Z</time>
      </trkpt>
      <trkpt lat="45.84454" lon="1.22292">
        <ele>276.8</ele>
        <time>2024-11-12T10:34:44Z</time>
      </trkpt>
      <trkpt lat="45.84454" lon="1.22292">
        <ele>276.8</ele>
        <time>2024-11-12T10:34:45Z</time>
      </trkpt>
      <trkpt lat="45.84454" lon="1.22292">
        <ele>276.8</ele>
        <time>2024-11-12T10:34:46Z</time>
      </trkpt>
      <trkpt lat="45.84454" lon="1.22292">
        <ele>276.8</ele>
        <time>2024-11-12T10:34:47Z</time>
      </trkpt>
      <trkpt lat="45.84453" lon="1.22292">
        <ele>276.8</ele>
        <time>2024-11-12T10:34:48Z</time>
      </trkpt>
      <trkpt lat="45.84453" lon="1.22292">
        <ele>276.8</ele>
        <time>2024-11-12T10:34:49Z</time>
      </trkpt>
      <trkpt lat="45.84453" lon="1.22292">
        <ele>276.8</ele>
        <time>2024-11-12T10:34:50Z</time>
      </trkpt>
      <trkpt lat="45.84453" lon="1.22292">
        <ele>276.8</ele>
        <time>2024-11-12T10:34:51Z</time>
      </trkpt>
      <trkpt lat="45.84453" lon="1.22292">
        <ele>276.8</ele>
        <time>2024-11-12T10:34:52Z</time>
      </trkpt>
      <trkpt lat="45.84453" lon="1.22292">
        <ele>276.8</ele>
        <time>2024-11-12T10:34:53Z</time>
      </trkpt>
      <trkpt lat="45.84453" lon="1.22292">
        <ele>276.8</ele>
        <time>2024-11-12T10:34:54Z</time>
      </trkpt>
      <trkpt lat="45.84453" lon="1.22292">
        <ele>276.8</ele>
        <time>2024-11-12T10:34:55Z</time>
      </trkpt>
      <trkpt lat="45.84453" lon="1.22292">
        <ele>276.8</ele>
        <time>2024-11-12T10:34:56Z</time>
      </trkpt>
      <trkpt lat="45.84453" lon="1.22292">
        <ele>276.8</ele>
        <time>2024-11-12T10:34:57Z</time>
      </trkpt>
      <trkpt lat="45.84453" lon="1.22291">
        <ele>276.8</ele>
        <time>2024-11-12T10:34:58Z</time>
      </trkpt>
      <trkpt lat="45.84453" lon="1.22291">
        <ele>276.8</ele>
        <time>2024-11-12T10:34:59Z</time>
      </trkpt>
      <trkpt lat="45.84453" lon="1.22291">
        <ele>276.8</ele>
        <time>2024-11-12T10:35:00Z</time>
      </trkpt>
      <trkpt lat="45.84453" lon="1.22291">
        <ele>276.8</ele>
        <time>2024-11-12T10:35:01Z</time>
      </trkpt>
      <trkpt lat="45.84453" lon="1.22291">
        <ele>276.8</ele>
        <time>2024-11-12T10:35:02Z</time>
      </trkpt>
      <trkpt lat="45.84453" lon="1.22291">
        <ele>276.8</ele>
        <time>2024-11-12T10:35:03Z</time>
      </trkpt>
      <trkpt lat="45.84453" lon="1.22291">
        <ele>276.8</ele>
        <time>2024-11-12T10:35:04Z</time>
      </trkpt>
      <trkpt lat="45.84454" lon="1.2229">
        <ele>276.8</ele>
        <time>2024-11-12T10:35:05Z</time>
      </trkpt>
      <trkpt lat="45.84455" lon="1.2229">
        <ele>276.8</ele>
        <time>2024-11-12T10:35:06Z</time>
      </trkpt>
      <trkpt lat="45.84456" lon="1.2229">
        <ele>276.8</ele>
        <time>2024-11-12T10:35:07Z</time>
      </trkpt>
      <trkpt lat="45.84454" lon="1.22291">
        <ele>276.7</ele>
        <time>2024-11-12T10:35:08Z</time>
      </trkpt>
      <trkpt lat="45.84455" lon="1.22292">
        <ele>276.7</ele>
        <time>2024-11-12T10:35:09Z</time>
      </trkpt>
      <trkpt lat="45.84457" lon="1.22293">
        <ele>276.7</ele>
        <time>2024-11-12T10:35:10Z</time>
      </trkpt>
      <trkpt lat="45.84459" lon="1.22293">
        <ele>276.7</ele>
        <time>2024-11-12T10:35:11Z</time>
      </trkpt>
      <trkpt lat="45.8446" lon="1.22293">
        <ele>276.7</ele>
        <time>2024-11-12T10:35:12Z</time>
      </trkpt>
      <trkpt lat="45.84461" lon="1.22292">
        <ele>276.6</ele>
        <time>2024-11-12T10:35:13Z</time>
      </trkpt>
      <trkpt lat="45.84462" lon="1.22292">
        <ele>276.6</ele>
        <time>2024-11-12T10:35:14Z</time>
      </trkpt>
      <trkpt lat="45.84464" lon="1.22291">
        <ele>276.6</ele>
        <time>2024-11-12T10:35:15Z</time>
      </trkpt>
      <trkpt lat="45.84464" lon="1.22289">
        <ele>276.6</ele>
        <time>2024-11-12T10:35:16Z</time>
      </trkpt>
      <trkpt lat="45.84465" lon="1.22288">
        <ele>276.6</ele>
        <time>2024-11-12T10:35:17Z</time>
      </trkpt>
      <trkpt lat="45.84465" lon="1.22286">
        <ele>276.6</ele>
        <time>2024-11-12T10:35:18Z</time>
      </trkpt>
      <trkpt lat="45.84466" lon="1.22286">
        <ele>276.6</ele>
        <time>2024-11-12T10:35:19Z</time>
      </trkpt>
      <trkpt lat="45.84466" lon="1.22285">
        <ele>276.5</ele>
        <time>2024-11-12T10:35:20Z</time>
      </trkpt>
      <trkpt lat="45.84467" lon="1.22284">
        <ele>276.5</ele>
        <time>2024-11-12T10:35:21Z</time>
      </trkpt>
      <trkpt lat="45.84468" lon="1.22282">
        <ele>276.5</ele>
        <time>2024-11-12T10:35:22Z</time>
      </trkpt>
      <trkpt lat="45.84469" lon="1.2228">
        <ele>276.5</ele>
        <time>2024-11-12T10:35:23Z</time>
      </trkpt>
      <trkpt lat="45.8447" lon="1.22279">
        <ele>276.5</ele>
        <time>2024-11-12T10:35:24Z</time>
      </trkpt>
      <trkpt lat="45.8447" lon="1.22278">
        <ele>276.5</ele>
        <time>2024-11-12T10:35:25Z</time>
      </trkpt>
      <trkpt lat="45.8447" lon="1.22278">
        <ele>276.5</ele>
        <time>2024-11-12T10:35:26Z</time>
      </trkpt>
      <trkpt lat="45.8447" lon="1.22278">
        <ele>276.5</ele>
        <time>2024-11-12T10:35:27Z</time>
      </trkpt>
      <trkpt lat="45.8447" lon="1.22278">
        <ele>276.5</ele>
        <time>2024-11-12T10:35:28Z</time>
      </trkpt>
      <trkpt lat="45.8447" lon="1.22278">
        <ele>276.5</ele>
        <time>2024-11-12T10:35:29Z</time>
      </trkpt>
      <trkpt lat="45.8447" lon="1.22278">
        <ele>276.5</ele>
        <time>2024-11-12T10:35:30Z</time>
      </trkpt>
      <trkpt lat="45.8447" lon="1.22278">
        <ele>276.5</ele>
        <time>2024-11-12T10:35:31Z</time>
      </trkpt>
      <trkpt lat="45.8447" lon="1.22279">
        <ele>276.5</ele>
        <time>2024-11-12T10:35:32Z</time>
      </trkpt>
      <trkpt lat="45.8447" lon="1.22279">
        <ele>276.5</ele>
        <time>2024-11-12T10:35:33Z</time>
      </trkpt>
      <trkpt lat="45.8447" lon="1.22279">
        <ele>276.5</ele>
        <time>2024-11-12T10:35:34Z</time>
      </trkpt>
      <trkpt lat="45.8447" lon="1.22279">
        <ele>276.5</ele>
        <time>2024-11-12T10:35:35Z</time>
      </trkpt>
      <trkpt lat="45.8447" lon="1.22279">
        <ele>276.5</ele>
        <time>2024-11-12T10:35:36Z</time>
      </trkpt>
      <trkpt lat="45.8447" lon="1.22279">
        <ele>276.5</ele>
        <time>2024-11-12T10:35:37Z</time>
      </trkpt>
      <trkpt lat="45.8447" lon="1.22279">
        <ele>276.5</ele>
        <time>2024-11-12T10:35:38Z</time>
      </trkpt>
      <trkpt lat="45.8447" lon="1.22279">
        <ele>276.5</ele>
        <time>2024-11-12T10:35:39Z</time>
      </trkpt>
      <trkpt lat="45.8447" lon="1.22279">
        <ele>276.5</ele>
        <time>2024-11-12T10:35:40Z</time>
      </trkpt>
      <trkpt lat="45.8447" lon="1.22279">
        <ele>276.5</ele>
        <time>2024-11-12T10:35:41Z</time>
      </trkpt>
      <trkpt lat="45.8447" lon="1.22279">
        <ele>276.5</ele>
        <time>2024-11-12T10:35:42Z</time>
      </trkpt>
      <trkpt lat="45.84469" lon="1.22279">
        <ele>276.5</ele>
        <time>2024-11-12T10:35:43Z</time>
      </trkpt>
      <trkpt lat="45.84469" lon="1.22279">
        <ele>276.5</ele>
        <time>2024-11-12T10:35:44Z</time>
      </trkpt>
      <trkpt lat="45.84469" lon="1.22279">
        <ele>276.5</ele>
        <time>2024-11-12T10:35:45Z</time>
      </trkpt>
    </trkseg>
  </trk>
</gpx>